<?xml version='1.0' encoding='UTF-8'?><gpx version="1.1" creator="JPX - https://github.com/jenetics/jpx" xmlns="http://www.topografix.com/GPX/1/1"><trk><trkseg><trkpt lat="39.60709298513226" lon="16.73121870061402"><ele>12.0</ele><time>2026-04-06T07:36:06.999Z</time></trkpt><trkpt lat="39.60710379790789" lon="16.731481024719102"><ele>12.0</ele><time>2026-04-06T07:36:07.999Z</time></trkpt><trkpt lat="39.60711412007969" lon="16.73174455461702"><ele>12.0</ele><time>2026-04-06T07:36:08.999Z</time></trkpt><trkpt lat="39.60712209710638" lon="16.73201020332423"><ele>12.0</ele><time>2026-04-06T07:36:09.999Z</time></trkpt><trkpt lat="39.60712910854389" lon="16.732276630979637"><ele>12.0</ele><time>2026-04-06T07:36:10.999Z</time></trkpt><trkpt lat="39.607135754444556" lon="16.732545592887046"><ele>12.0</ele><time>2026-04-06T07:36:11.999Z</time></trkpt><trkpt lat="39.60713665216307" lon="16.7328192762665"><ele>12.0</ele><time>2026-04-06T07:36:12.999Z</time></trkpt><trkpt lat="39.60713153495116" lon="16.73309565990844"><ele>12.0</ele><time>2026-04-06T07:36:13.999Z</time></trkpt><trkpt lat="39.60713778210546" lon="16.73337328954069"><ele>12.0</ele><time>2026-04-06T07:36:14.999Z</time></trkpt><trkpt lat="39.60715490484656" lon="16.733662484748105"><ele>12.0</ele><time>2026-04-06T07:36:15.999Z</time></trkpt><trkpt lat="39.607180214764234" lon="16.733952685461304"><ele>12.0</ele><time>2026-04-06T07:36:16.999Z</time></trkpt><trkpt lat="39.607201631430726" lon="16.734239962138744"><ele>12.0</ele><time>2026-04-06T07:36:17.999Z</time></trkpt><trkpt lat="39.60722170364904" lon="16.73452501239583"><ele>12.333333333333332</ele><time>2026-04-06T07:36:18.999Z</time></trkpt><trkpt lat="39.60723799304603" lon="16.734810254016995"><ele>12.666666666666666</ele><time>2026-04-06T07:36:19.999Z</time></trkpt><trkpt lat="39.607252251366674" lon="16.735095191495596"><ele>13.0</ele><time>2026-04-06T07:36:20.999Z</time></trkpt><trkpt lat="39.60726834163622" lon="16.735375149181078"><ele>13.333333333333332</ele><time>2026-04-06T07:36:21.999Z</time></trkpt><trkpt lat="39.60728507649635" lon="16.7356550451111"><ele>13.666666666666668</ele><time>2026-04-06T07:36:22.999Z</time></trkpt><trkpt lat="39.60730038361942" lon="16.73593655047054"><ele>14.0</ele><time>2026-04-06T07:36:23.999Z</time></trkpt><trkpt lat="39.60731640112502" lon="16.736216925462998"><ele>14.333333333333334</ele><time>2026-04-06T07:36:24.999Z</time></trkpt><trkpt lat="39.60733329243683" lon="16.736495281147192"><ele>14.666666666666668</ele><time>2026-04-06T07:36:25.999Z</time></trkpt><trkpt lat="39.60735146436848" lon="16.736774224330656"><ele>15.0</ele><time>2026-04-06T07:36:26.999Z</time></trkpt><trkpt lat="39.60737109147805" lon="16.73705239225917"><ele>15.0</ele><time>2026-04-06T07:36:27.999Z</time></trkpt><trkpt lat="39.60738651625506" lon="16.737328764680836"><ele>15.0</ele><time>2026-04-06T07:36:28.999Z</time></trkpt><trkpt lat="39.60740254144039" lon="16.737607902056013"><ele>15.0</ele><time>2026-04-06T07:36:29.999Z</time></trkpt><trkpt lat="39.60741813869992" lon="16.737886030695336"><ele>14.666666666666668</ele><time>2026-04-06T07:36:30.999Z</time></trkpt><trkpt lat="39.607433164842796" lon="16.738164387361188"><ele>14.333333333333334</ele><time>2026-04-06T07:36:31.999Z</time></trkpt><trkpt lat="39.60744900981" lon="16.738441695469263"><ele>14.0</ele><time>2026-04-06T07:36:32.999Z</time></trkpt><trkpt lat="39.607467307853355" lon="16.73871729447712"><ele>14.0</ele><time>2026-04-06T07:36:33.999Z</time></trkpt><trkpt lat="39.60748261920705" lon="16.738991294814596"><ele>14.0</ele><time>2026-04-06T07:36:34.999Z</time></trkpt><trkpt lat="39.607492935707015" lon="16.73926265513404"><ele>14.0</ele><time>2026-04-06T07:36:35.999Z</time></trkpt><trkpt lat="39.60749958498446" lon="16.739530929040384"><ele>13.333333333333334</ele><time>2026-04-06T07:36:36.999Z</time></trkpt><trkpt lat="39.60750381922428" lon="16.739796656122667"><ele>12.666666666666668</ele><time>2026-04-06T07:36:37.999Z</time></trkpt><trkpt lat="39.6075001978656" lon="16.740064264131338"><ele>12.0</ele><time>2026-04-06T07:36:39Z</time></trkpt><trkpt lat="39.60749151294484" lon="16.740329000074635"><ele>12.0</ele><time>2026-04-06T07:36:40Z</time></trkpt><trkpt lat="39.60747799271498" lon="16.740600456455034"><ele>12.0</ele><time>2026-04-06T07:36:41Z</time></trkpt><trkpt lat="39.607463669559465" lon="16.74087466420494"><ele>12.0</ele><time>2026-04-06T07:36:42Z</time></trkpt><trkpt lat="39.60745658511265" lon="16.741152262547637"><ele>12.333333333333332</ele><time>2026-04-06T07:36:43Z</time></trkpt><trkpt lat="39.607449406194206" lon="16.74142923410246"><ele>12.666666666666666</ele><time>2026-04-06T07:36:44Z</time></trkpt><trkpt lat="39.607443905941395" lon="16.741702638540886"><ele>13.0</ele><time>2026-04-06T07:36:45Z</time></trkpt><trkpt lat="39.60743964460427" lon="16.741975960235127"><ele>13.0</ele><time>2026-04-06T07:36:46Z</time></trkpt><trkpt lat="39.60743662407895" lon="16.742246458393772"><ele>13.0</ele><time>2026-04-06T07:36:47Z</time></trkpt><trkpt lat="39.60743616194623" lon="16.742516846352785"><ele>13.0</ele><time>2026-04-06T07:36:48Z</time></trkpt><trkpt lat="39.607434792019646" lon="16.74278666075966"><ele>13.0</ele><time>2026-04-06T07:36:49Z</time></trkpt><trkpt lat="39.60743400127719" lon="16.743057033007588"><ele>13.0</ele><time>2026-04-06T07:36:50Z</time></trkpt><trkpt lat="39.607437815243316" lon="16.743328691873227"><ele>13.0</ele><time>2026-04-06T07:36:51Z</time></trkpt><trkpt lat="39.607444637703196" lon="16.743601546977946"><ele>13.0</ele><time>2026-04-06T07:36:52Z</time></trkpt><trkpt lat="39.60744759531267" lon="16.743881498967166"><ele>13.0</ele><time>2026-04-06T07:36:53Z</time></trkpt><trkpt lat="39.60744923912593" lon="16.744158044146577"><ele>13.0</ele><time>2026-04-06T07:36:54Z</time></trkpt><trkpt lat="39.60745272086315" lon="16.74442590535311"><ele>12.666666666666666</ele><time>2026-04-06T07:36:55Z</time></trkpt><trkpt lat="39.60745582151053" lon="16.744686126479213"><ele>12.333333333333332</ele><time>2026-04-06T07:36:56Z</time></trkpt><trkpt lat="39.607455696648664" lon="16.74493158722137"><ele>12.0</ele><time>2026-04-06T07:36:57Z</time></trkpt><trkpt lat="39.60745716598743" lon="16.74515784280769"><ele>12.333333333333332</ele><time>2026-04-06T07:36:58Z</time></trkpt><trkpt lat="39.60746015827574" lon="16.745375164268125"><ele>12.666666666666666</ele><time>2026-04-06T07:36:59Z</time></trkpt><trkpt lat="39.60746434576838" lon="16.745592124581982"><ele>13.0</ele><time>2026-04-06T07:37:00Z</time></trkpt><trkpt lat="39.607470511588964" lon="16.745815920555515"><ele>13.0</ele><time>2026-04-06T07:37:01Z</time></trkpt><trkpt lat="39.60747470346958" lon="16.746040955054774"><ele>13.0</ele><time>2026-04-06T07:37:02Z</time></trkpt><trkpt lat="39.60747582603866" lon="16.746266183485588"><ele>13.0</ele><time>2026-04-06T07:37:03Z</time></trkpt><trkpt lat="39.607475948502945" lon="16.74648481744163"><ele>13.0</ele><time>2026-04-06T07:37:04Z</time></trkpt><trkpt lat="39.607478448298885" lon="16.746685866516245"><ele>13.0</ele><time>2026-04-06T07:37:05Z</time></trkpt><trkpt lat="39.60747468105769" lon="16.74687282112627"><ele>13.0</ele><time>2026-04-06T07:37:06Z</time></trkpt><trkpt lat="39.60747358571177" lon="16.747040465743417"><ele>13.0</ele><time>2026-04-06T07:37:07Z</time></trkpt><trkpt lat="39.60747013688443" lon="16.747185803505857"><ele>13.0</ele><time>2026-04-06T07:37:08Z</time></trkpt><trkpt lat="39.60746084869876" lon="16.747319558230924"><ele>13.0</ele><time>2026-04-06T07:37:09Z</time></trkpt><trkpt lat="39.60743704634568" lon="16.747434458820944"><ele>13.0</ele><time>2026-04-06T07:37:10Z</time></trkpt><trkpt lat="39.60739775698208" lon="16.74755062783252"><ele>13.0</ele><time>2026-04-06T07:37:11Z</time></trkpt><trkpt lat="39.607346882231745" lon="16.74766358799566"><ele>13.0</ele><time>2026-04-06T07:37:12Z</time></trkpt><trkpt lat="39.60734086657888" lon="16.747781631498714"><ele>13.4</ele><time>2026-04-06T07:37:13Z</time></trkpt><trkpt lat="39.60736978139212" lon="16.747889072615475"><ele>13.8</ele><time>2026-04-06T07:37:14Z</time></trkpt><trkpt lat="39.60742693915377" lon="16.74799951138609"><ele>14.2</ele><time>2026-04-06T07:37:15Z</time></trkpt><trkpt lat="39.60747595736593" lon="16.74813959466337"><ele>14.6</ele><time>2026-04-06T07:37:16Z</time></trkpt><trkpt lat="39.60748518251645" lon="16.748315644550317"><ele>15.0</ele><time>2026-04-06T07:37:17Z</time></trkpt><trkpt lat="39.60747421961787" lon="16.74851767047244"><ele>15.666666666666668</ele><time>2026-04-06T07:37:18Z</time></trkpt><trkpt lat="39.60746983047691" lon="16.748741351941078"><ele>16.333333333333336</ele><time>2026-04-06T07:37:19Z</time></trkpt><trkpt lat="39.60746187591927" lon="16.74897414943957"><ele>17.0</ele><time>2026-04-06T07:37:20Z</time></trkpt><trkpt lat="39.607439069746945" lon="16.749213961463973"><ele>16.666666666666668</ele><time>2026-04-06T07:37:21Z</time></trkpt><trkpt lat="39.607411805625766" lon="16.74945561327293"><ele>16.333333333333332</ele><time>2026-04-06T07:37:22Z</time></trkpt><trkpt lat="39.60738241757167" lon="16.749700294969852"><ele>16.0</ele><time>2026-04-06T07:37:23Z</time></trkpt><trkpt lat="39.607344206768275" lon="16.74995767013035"><ele>16.0</ele><time>2026-04-06T07:37:24Z</time></trkpt><trkpt lat="39.60730356926306" lon="16.75022597292892"><ele>16.0</ele><time>2026-04-06T07:37:25Z</time></trkpt><trkpt lat="39.60726358270499" lon="16.750493474296"><ele>16.0</ele><time>2026-04-06T07:37:26Z</time></trkpt><trkpt lat="39.60722427003972" lon="16.75076275915811"><ele>16.0</ele><time>2026-04-06T07:37:27Z</time></trkpt><trkpt lat="39.607186318694794" lon="16.75103482704298"><ele>16.0</ele><time>2026-04-06T07:37:28Z</time></trkpt><trkpt lat="39.607146133355094" lon="16.751307221865883"><ele>16.0</ele><time>2026-04-06T07:37:29Z</time></trkpt><trkpt lat="39.60710397281529" lon="16.75158073021978"><ele>16.333333333333332</ele><time>2026-04-06T07:37:30Z</time></trkpt><trkpt lat="39.607060824819165" lon="16.75185421210993"><ele>16.666666666666668</ele><time>2026-04-06T07:37:31Z</time></trkpt><trkpt lat="39.60701833819068" lon="16.752126713004994"><ele>17.0</ele><time>2026-04-06T07:37:32Z</time></trkpt><trkpt lat="39.6069744360133" lon="16.75240095161282"><ele>17.333333333333336</ele><time>2026-04-06T07:37:33Z</time></trkpt><trkpt lat="39.606931491175544" lon="16.75267192762234"><ele>17.666666666666668</ele><time>2026-04-06T07:37:34Z</time></trkpt><trkpt lat="39.60688705504447" lon="16.752941980831675"><ele>18.0</ele><time>2026-04-06T07:37:35Z</time></trkpt><trkpt lat="39.606844459916275" lon="16.753213292253093"><ele>18.0</ele><time>2026-04-06T07:37:35.999Z</time></trkpt><trkpt lat="39.606803841735356" lon="16.75348497032069"><ele>18.0</ele><time>2026-04-06T07:37:36.999Z</time></trkpt><trkpt lat="39.60677150023633" lon="16.753755094027117"><ele>18.0</ele><time>2026-04-06T07:37:37.999Z</time></trkpt><trkpt lat="39.60674872948891" lon="16.75402865235413"><ele>18.333333333333332</ele><time>2026-04-06T07:37:38.999Z</time></trkpt><trkpt lat="39.6067302388312" lon="16.754303980532477"><ele>18.666666666666664</ele><time>2026-04-06T07:37:39.999Z</time></trkpt><trkpt lat="39.60671209199406" lon="16.754574839151683"><ele>19.0</ele><time>2026-04-06T07:37:40.999Z</time></trkpt><trkpt lat="39.606691678705474" lon="16.754846395959376"><ele>19.0</ele><time>2026-04-06T07:37:41.999Z</time></trkpt><trkpt lat="39.60666695968855" lon="16.755116158821863"><ele>19.0</ele><time>2026-04-06T07:37:42.999Z</time></trkpt><trkpt lat="39.60664526137376" lon="16.755385290742478"><ele>19.0</ele><time>2026-04-06T07:37:43.999Z</time></trkpt><trkpt lat="39.60662413326512" lon="16.755656332860585"><ele>19.0</ele><time>2026-04-06T07:37:44.999Z</time></trkpt><trkpt lat="39.6066024067816" lon="16.7559229536629"><ele>19.0</ele><time>2026-04-06T07:37:45.999Z</time></trkpt><trkpt lat="39.60658376590451" lon="16.756186793144643"><ele>19.0</ele><time>2026-04-06T07:37:46.999Z</time></trkpt><trkpt lat="39.60657490402755" lon="16.756450590972072"><ele>19.0</ele><time>2026-04-06T07:37:47.999Z</time></trkpt><trkpt lat="39.60657573367274" lon="16.75671315637047"><ele>19.0</ele><time>2026-04-06T07:37:48.999Z</time></trkpt><trkpt lat="39.606580747190556" lon="16.756975734306234"><ele>19.0</ele><time>2026-04-06T07:37:49.999Z</time></trkpt><trkpt lat="39.60658233502076" lon="16.75723489186855"><ele>19.333333333333332</ele><time>2026-04-06T07:37:50.999Z</time></trkpt><trkpt lat="39.606580039332606" lon="16.757494199819856"><ele>19.666666666666668</ele><time>2026-04-06T07:37:51.999Z</time></trkpt><trkpt lat="39.60657338207719" lon="16.757754943285118"><ele>20.0</ele><time>2026-04-06T07:37:52.999Z</time></trkpt><trkpt lat="39.60655943617334" lon="16.75801505730846"><ele>19.333333333333336</ele><time>2026-04-06T07:37:53.999Z</time></trkpt><trkpt lat="39.606537194551436" lon="16.758276889387858"><ele>18.666666666666668</ele><time>2026-04-06T07:37:54.999Z</time></trkpt><trkpt lat="39.606512796055235" lon="16.758540842976615"><ele>18.0</ele><time>2026-04-06T07:37:55.999Z</time></trkpt><trkpt lat="39.60648875522375" lon="16.758805083784175"><ele>18.0</ele><time>2026-04-06T07:37:56.999Z</time></trkpt><trkpt lat="39.60646897828947" lon="16.759070568847793"><ele>18.0</ele><time>2026-04-06T07:37:57.999Z</time></trkpt><trkpt lat="39.606449878814146" lon="16.75933773334174"><ele>18.0</ele><time>2026-04-06T07:37:58.999Z</time></trkpt><trkpt lat="39.60642628236099" lon="16.759601989682864"><ele>18.333333333333332</ele><time>2026-04-06T07:37:59.999Z</time></trkpt><trkpt lat="39.606401559504214" lon="16.75987192115042"><ele>18.666666666666664</ele><time>2026-04-06T07:38:00.999Z</time></trkpt><trkpt lat="39.606382116375656" lon="16.76013451758752"><ele>19.0</ele><time>2026-04-06T07:38:01.999Z</time></trkpt><trkpt lat="39.606360020047546" lon="16.760397975279375"><ele>19.333333333333332</ele><time>2026-04-06T07:38:02.999Z</time></trkpt><trkpt lat="39.60631369718086" lon="16.76064998585707"><ele>19.666666666666668</ele><time>2026-04-06T07:38:03.999Z</time></trkpt><trkpt lat="39.60626830073028" lon="16.760920654988002"><ele>20.0</ele><time>2026-04-06T07:38:04.999Z</time></trkpt><trkpt lat="39.606233283847544" lon="16.761190133660538"><ele>20.0</ele><time>2026-04-06T07:38:05.999Z</time></trkpt><trkpt lat="39.606176029969134" lon="16.76144995940335"><ele>20.0</ele><time>2026-04-06T07:38:06.999Z</time></trkpt><trkpt lat="39.60612024402015" lon="16.76170780477073"><ele>20.0</ele><time>2026-04-06T07:38:07.999Z</time></trkpt><trkpt lat="39.60607463166679" lon="16.761967718308288"><ele>20.333333333333336</ele><time>2026-04-06T07:38:08.999Z</time></trkpt><trkpt lat="39.606047027038876" lon="16.762233095930846"><ele>20.666666666666668</ele><time>2026-04-06T07:38:09.999Z</time></trkpt><trkpt lat="39.606029832781566" lon="16.76249716908721"><ele>21.0</ele><time>2026-04-06T07:38:10.999Z</time></trkpt><trkpt lat="39.60601065718918" lon="16.76276084842404"><ele>21.0</ele><time>2026-04-06T07:38:11.999Z</time></trkpt><trkpt lat="39.60598657459459" lon="16.76301709990555"><ele>21.0</ele><time>2026-04-06T07:38:12.999Z</time></trkpt><trkpt lat="39.60596019421991" lon="16.76326655757666"><ele>21.0</ele><time>2026-04-06T07:38:13.999Z</time></trkpt><trkpt lat="39.605943631882035" lon="16.763522375245486"><ele>20.666666666666668</ele><time>2026-04-06T07:38:14.999Z</time></trkpt><trkpt lat="39.60594077246893" lon="16.763779069534742"><ele>20.333333333333336</ele><time>2026-04-06T07:38:15.999Z</time></trkpt><trkpt lat="39.6059473739148" lon="16.764038947575273"><ele>20.0</ele><time>2026-04-06T07:38:16.999Z</time></trkpt><trkpt lat="39.605967969097215" lon="16.76430154102658"><ele>20.333333333333336</ele><time>2026-04-06T07:38:17.999Z</time></trkpt><trkpt lat="39.60598416230273" lon="16.764556841537637"><ele>20.666666666666668</ele><time>2026-04-06T07:38:18.999Z</time></trkpt><trkpt lat="39.60600057623136" lon="16.76479708589612"><ele>21.0</ele><time>2026-04-06T07:38:19.999Z</time></trkpt><trkpt lat="39.60601456289533" lon="16.76502035645409"><ele>21.0</ele><time>2026-04-06T07:38:20.999Z</time></trkpt><trkpt lat="39.60602924549621" lon="16.76523770341518"><ele>21.0</ele><time>2026-04-06T07:38:21.999Z</time></trkpt><trkpt lat="39.60604658252149" lon="16.765438017944454"><ele>21.0</ele><time>2026-04-06T07:38:22.999Z</time></trkpt><trkpt lat="39.60605991687967" lon="16.76562688915046"><ele>21.0</ele><time>2026-04-06T07:38:23.999Z</time></trkpt><trkpt lat="39.606067555779724" lon="16.76580589826524"><ele>21.0</ele><time>2026-04-06T07:38:24.999Z</time></trkpt><trkpt lat="39.606065950845306" lon="16.76596933774852"><ele>21.0</ele><time>2026-04-06T07:38:25.999Z</time></trkpt><trkpt lat="39.606056706000786" lon="16.76610957364548"><ele>21.0</ele><time>2026-04-06T07:38:26.999Z</time></trkpt><trkpt lat="39.60604217511523" lon="16.76624743390274"><ele>20.6</ele><time>2026-04-06T07:38:27.999Z</time></trkpt><trkpt lat="39.60600606873148" lon="16.76637624945886"><ele>20.200000000000003</ele><time>2026-04-06T07:38:28.999Z</time></trkpt><trkpt lat="39.6059459413949" lon="16.766495057633897"><ele>19.799999999999997</ele><time>2026-04-06T07:38:29.999Z</time></trkpt><trkpt lat="39.605871659038655" lon="16.766584880296854"><ele>19.4</ele><time>2026-04-06T07:38:30.999Z</time></trkpt><trkpt lat="39.60580503356548" lon="16.76666126063628"><ele>19.0</ele><time>2026-04-06T07:38:31.999Z</time></trkpt><trkpt lat="39.60576319393383" lon="16.766747203261144"><ele>19.0</ele><time>2026-04-06T07:38:32.999Z</time></trkpt><trkpt lat="39.60575456544532" lon="16.766839277363484"><ele>19.0</ele><time>2026-04-06T07:38:33.999Z</time></trkpt><trkpt lat="39.605769052612466" lon="16.766937162915347"><ele>19.0</ele><time>2026-04-06T07:38:34.999Z</time></trkpt><trkpt lat="39.605817032738" lon="16.767035661323256"><ele>19.0</ele><time>2026-04-06T07:38:35.999Z</time></trkpt><trkpt lat="39.60587523616687" lon="16.767137540785058"><ele>19.0</ele><time>2026-04-06T07:38:36.999Z</time></trkpt><trkpt lat="39.6059333045347" lon="16.767258350078492"><ele>19.0</ele><time>2026-04-06T07:38:37.999Z</time></trkpt><trkpt lat="39.605980251490564" lon="16.76740870915651"><ele>19.0</ele><time>2026-04-06T07:38:38.999Z</time></trkpt><trkpt lat="39.6060090729627" lon="16.767585550172324"><ele>19.0</ele><time>2026-04-06T07:38:39.999Z</time></trkpt><trkpt lat="39.60601130690921" lon="16.767767887901066"><ele>19.0</ele><time>2026-04-06T07:38:40.999Z</time></trkpt><trkpt lat="39.60599452908316" lon="16.767955941156472"><ele>19.0</ele><time>2026-04-06T07:38:41.999Z</time></trkpt><trkpt lat="39.605974055394185" lon="16.7681403698206"><ele>19.0</ele><time>2026-04-06T07:38:42.999Z</time></trkpt><trkpt lat="39.605962056884856" lon="16.76831391488124"><ele>19.0</ele><time>2026-04-06T07:38:43.999Z</time></trkpt><trkpt lat="39.60594726923336" lon="16.768471814661837"><ele>19.0</ele><time>2026-04-06T07:38:45Z</time></trkpt><trkpt lat="39.60593557988974" lon="16.76861687591462"><ele>19.0</ele><time>2026-04-06T07:38:46Z</time></trkpt><trkpt lat="39.605924146009265" lon="16.768761295371924"><ele>19.75</ele><time>2026-04-06T07:38:47Z</time></trkpt><trkpt lat="39.60591195438162" lon="16.768917438290448"><ele>20.5</ele><time>2026-04-06T07:38:48Z</time></trkpt><trkpt lat="39.60589785658173" lon="16.7690821596366"><ele>21.25</ele><time>2026-04-06T07:38:49Z</time></trkpt><trkpt lat="39.60587678435608" lon="16.769256093142925"><ele>22.0</ele><time>2026-04-06T07:38:50Z</time></trkpt><trkpt lat="39.60585884660858" lon="16.769442421021846"><ele>22.0</ele><time>2026-04-06T07:38:51Z</time></trkpt><trkpt lat="39.60584423187789" lon="16.769632161728207"><ele>22.0</ele><time>2026-04-06T07:38:52Z</time></trkpt><trkpt lat="39.605823628199445" lon="16.769808551496983"><ele>22.0</ele><time>2026-04-06T07:38:53Z</time></trkpt><trkpt lat="39.60580365154287" lon="16.769968497660233"><ele>22.0</ele><time>2026-04-06T07:38:54Z</time></trkpt><trkpt lat="39.6057860971798" lon="16.770118885275842"><ele>21.6</ele><time>2026-04-06T07:38:55Z</time></trkpt><trkpt lat="39.60577054938114" lon="16.770261447822925"><ele>21.200000000000003</ele><time>2026-04-06T07:38:56Z</time></trkpt><trkpt lat="39.60575764601337" lon="16.770396203983854"><ele>20.8</ele><time>2026-04-06T07:38:57Z</time></trkpt><trkpt lat="39.60574401012549" lon="16.770529106238087"><ele>20.4</ele><time>2026-04-06T07:38:58Z</time></trkpt><trkpt lat="39.60572926850344" lon="16.770672885251177"><ele>20.0</ele><time>2026-04-06T07:38:59Z</time></trkpt><trkpt lat="39.60571311176795" lon="16.770821325807397"><ele>20.0</ele><time>2026-04-06T07:39:00Z</time></trkpt><trkpt lat="39.605681576332266" lon="16.770971810253464"><ele>20.0</ele><time>2026-04-06T07:39:01Z</time></trkpt><trkpt lat="39.6056645180574" lon="16.77113047945035"><ele>20.0</ele><time>2026-04-06T07:39:02Z</time></trkpt><trkpt lat="39.6056626759216" lon="16.77130187965614"><ele>20.0</ele><time>2026-04-06T07:39:03Z</time></trkpt><trkpt lat="39.60564277415568" lon="16.77147617362604"><ele>20.0</ele><time>2026-04-06T07:39:04Z</time></trkpt><trkpt lat="39.605607623762204" lon="16.771652396314952"><ele>20.0</ele><time>2026-04-06T07:39:05Z</time></trkpt><trkpt lat="39.60558914460773" lon="16.77182780438185"><ele>20.0</ele><time>2026-04-06T07:39:06Z</time></trkpt><trkpt lat="39.60557096763867" lon="16.771999413610487"><ele>20.0</ele><time>2026-04-06T07:39:07Z</time></trkpt><trkpt lat="39.605553037540105" lon="16.77216777723945"><ele>20.0</ele><time>2026-04-06T07:39:08Z</time></trkpt><trkpt lat="39.60553301848548" lon="16.772336560437328"><ele>20.0</ele><time>2026-04-06T07:39:09Z</time></trkpt><trkpt lat="39.605508324251076" lon="16.772501675848964"><ele>20.0</ele><time>2026-04-06T07:39:10Z</time></trkpt><trkpt lat="39.605473437936496" lon="16.772668042917957"><ele>20.0</ele><time>2026-04-06T07:39:11Z</time></trkpt><trkpt lat="39.60544933024565" lon="16.772840528338133"><ele>19.75</ele><time>2026-04-06T07:39:12Z</time></trkpt><trkpt lat="39.6054002410966" lon="16.773001825970173"><ele>19.5</ele><time>2026-04-06T07:39:13Z</time></trkpt><trkpt lat="39.60535566922666" lon="16.773152906637016"><ele>19.25</ele><time>2026-04-06T07:39:14Z</time></trkpt><trkpt lat="39.60531645167089" lon="16.77329061403139"><ele>19.0</ele><time>2026-04-06T07:39:15Z</time></trkpt><trkpt lat="39.60527551802918" lon="16.77342314393554"><ele>19.4</ele><time>2026-04-06T07:39:16Z</time></trkpt><trkpt lat="39.60523766881801" lon="16.773549860563502"><ele>19.799999999999997</ele><time>2026-04-06T07:39:17Z</time></trkpt><trkpt lat="39.60520119508662" lon="16.773669929883834"><ele>20.200000000000003</ele><time>2026-04-06T07:39:18Z</time></trkpt><trkpt lat="39.60516690631714" lon="16.77378745334731"><ele>20.6</ele><time>2026-04-06T07:39:19Z</time></trkpt><trkpt lat="39.60513046881143" lon="16.773914000606997"><ele>21.0</ele><time>2026-04-06T07:39:20Z</time></trkpt><trkpt lat="39.6050917839955" lon="16.774047263788315"><ele>21.0</ele><time>2026-04-06T07:39:20.999Z</time></trkpt><trkpt lat="39.605051823302006" lon="16.77418207194625"><ele>21.0</ele><time>2026-04-06T07:39:21.999Z</time></trkpt><trkpt lat="39.60501384037706" lon="16.774319097166984"><ele>21.0</ele><time>2026-04-06T07:39:22.999Z</time></trkpt><trkpt lat="39.60497440417545" lon="16.774459767587736"><ele>21.0</ele><time>2026-04-06T07:39:23.999Z</time></trkpt><trkpt lat="39.604938880322855" lon="16.774592267573947"><ele>21.0</ele><time>2026-04-06T07:39:24.999Z</time></trkpt><trkpt lat="39.604910677333706" lon="16.774705500025156"><ele>20.400000000000002</ele><time>2026-04-06T07:39:25.999Z</time></trkpt><trkpt lat="39.604882305538986" lon="16.774802473506718"><ele>19.8</ele><time>2026-04-06T07:39:26.999Z</time></trkpt><trkpt lat="39.60485180215829" lon="16.774904299132647"><ele>19.200000000000003</ele><time>2026-04-06T07:39:27.999Z</time></trkpt><trkpt lat="39.604814949312455" lon="16.77502503949748"><ele>18.6</ele><time>2026-04-06T07:39:28.999Z</time></trkpt><trkpt lat="39.604759979601745" lon="16.77514739929304"><ele>18.0</ele><time>2026-04-06T07:39:29.999Z</time></trkpt><trkpt lat="39.60471815241316" lon="16.775284041668968"><ele>17.8</ele><time>2026-04-06T07:39:30.999Z</time></trkpt><trkpt lat="39.60467794247275" lon="16.775419175779113"><ele>17.6</ele><time>2026-04-06T07:39:31.999Z</time></trkpt><trkpt lat="39.6046600737617" lon="16.77554159451122"><ele>17.4</ele><time>2026-04-06T07:39:32.999Z</time></trkpt><trkpt lat="39.60462841393297" lon="16.77563974610533"><ele>17.2</ele><time>2026-04-06T07:39:33.999Z</time></trkpt><trkpt lat="39.60459902352609" lon="16.775733522734523"><ele>17.0</ele><time>2026-04-06T07:39:34.999Z</time></trkpt><trkpt lat="39.60456911718436" lon="16.775834978443598"><ele>17.0</ele><time>2026-04-06T07:39:35.999Z</time></trkpt><trkpt lat="39.60454705877563" lon="16.775933727620846"><ele>17.0</ele><time>2026-04-06T07:39:36.999Z</time></trkpt><trkpt lat="39.60452747147945" lon="16.776022787252426"><ele>17.0</ele><time>2026-04-06T07:39:37.999Z</time></trkpt><trkpt lat="39.60451022988226" lon="16.776115642305523"><ele>17.0</ele><time>2026-04-06T07:39:38.999Z</time></trkpt><trkpt lat="39.60449394259221" lon="16.776221520030415"><ele>17.0</ele><time>2026-04-06T07:39:39.999Z</time></trkpt><trkpt lat="39.60447664810096" lon="16.77632802114447"><ele>17.0</ele><time>2026-04-06T07:39:40.999Z</time></trkpt><trkpt lat="39.60446130652612" lon="16.77642652123152"><ele>18.0</ele><time>2026-04-06T07:39:41.999Z</time></trkpt><trkpt lat="39.60444633449437" lon="16.776521049455173"><ele>19.0</ele><time>2026-04-06T07:39:42.999Z</time></trkpt><trkpt lat="39.60441560687488" lon="16.776608221599737"><ele>20.0</ele><time>2026-04-06T07:39:43.999Z</time></trkpt><trkpt lat="39.604389755454115" lon="16.77675702576474"><ele>21.0</ele><time>2026-04-06T07:39:45.999Z</time></trkpt><trkpt lat="39.604366942435256" lon="16.77688834048679"><ele>22.0</ele><time>2026-04-06T07:39:47.999Z</time></trkpt><trkpt lat="39.60434678955913" lon="16.777014496599033"><ele>22.200000000000003</ele><time>2026-04-06T07:39:49.999Z</time></trkpt><trkpt lat="39.60432809907711" lon="16.777143605059244"><ele>22.4</ele><time>2026-04-06T07:39:51.999Z</time></trkpt><trkpt lat="39.60430683636838" lon="16.777290015289907"><ele>22.6</ele><time>2026-04-06T07:39:53.999Z</time></trkpt><trkpt lat="39.60428211620083" lon="16.777455028066907"><ele>22.799999999999997</ele><time>2026-04-06T07:39:55.999Z</time></trkpt><trkpt lat="39.60426783826029" lon="16.777549740997753"><ele>23.0</ele><time>2026-04-06T07:39:56.999Z</time></trkpt><trkpt lat="39.604252553409374" lon="16.77765113329471"><ele>23.0</ele><time>2026-04-06T07:39:57.999Z</time></trkpt><trkpt lat="39.60423703023502" lon="16.777754106499742"><ele>23.0</ele><time>2026-04-06T07:39:58.999Z</time></trkpt><trkpt lat="39.604220657890686" lon="16.777860582747486"><ele>23.0</ele><time>2026-04-06T07:39:59.999Z</time></trkpt><trkpt lat="39.60420330162621" lon="16.777970030662914"><ele>23.0</ele><time>2026-04-06T07:40:00.999Z</time></trkpt><trkpt lat="39.60418753973349" lon="16.77807426002889"><ele>23.0</ele><time>2026-04-06T07:40:01.999Z</time></trkpt><trkpt lat="39.60417229336478" lon="16.778173213887513"><ele>23.0</ele><time>2026-04-06T07:40:02.999Z</time></trkpt><trkpt lat="39.6041579310303" lon="16.77826643006412"><ele>23.0</ele><time>2026-04-06T07:40:03.999Z</time></trkpt><trkpt lat="39.6041440150561" lon="16.778354349741402"><ele>23.0</ele><time>2026-04-06T07:40:04.999Z</time></trkpt><trkpt lat="39.60411959117453" lon="16.778505315468436"><ele>23.0</ele><time>2026-04-06T07:40:06.999Z</time></trkpt><trkpt lat="39.60409467121533" lon="16.778663810985467"><ele>23.0</ele><time>2026-04-06T07:40:08.999Z</time></trkpt><trkpt lat="39.604081859051426" lon="16.77874973789923"><ele>23.0</ele><time>2026-04-06T07:40:09.999Z</time></trkpt><trkpt lat="39.60406870534001" lon="16.778837955374115"><ele>23.0</ele><time>2026-04-06T07:40:10.999Z</time></trkpt><trkpt lat="39.60405561824007" lon="16.778926797624482"><ele>22.666666666666668</ele><time>2026-04-06T07:40:11.999Z</time></trkpt><trkpt lat="39.60404145005612" lon="16.77902268540663"><ele>22.333333333333336</ele><time>2026-04-06T07:40:12.999Z</time></trkpt><trkpt lat="39.60402637001037" lon="16.77912474450871"><ele>22.0</ele><time>2026-04-06T07:40:13.999Z</time></trkpt><trkpt lat="39.604025246028165" lon="16.77923743187925"><ele>21.666666666666668</ele><time>2026-04-06T07:40:14.999Z</time></trkpt><trkpt lat="39.60399133983293" lon="16.779344871778534"><ele>21.333333333333332</ele><time>2026-04-06T07:40:15.999Z</time></trkpt><trkpt lat="39.603971062833146" lon="16.779469368643603"><ele>21.0</ele><time>2026-04-06T07:40:16.999Z</time></trkpt><trkpt lat="39.60394968085906" lon="16.77960782737996"><ele>20.8</ele><time>2026-04-06T07:40:17.999Z</time></trkpt><trkpt lat="39.60392805347455" lon="16.779747875287477"><ele>20.6</ele><time>2026-04-06T07:40:18.999Z</time></trkpt><trkpt lat="39.60391936613942" lon="16.77990144612069"><ele>20.4</ele><time>2026-04-06T07:40:19.999Z</time></trkpt><trkpt lat="39.60388356178269" lon="16.78003385008945"><ele>20.2</ele><time>2026-04-06T07:40:20.999Z</time></trkpt><trkpt lat="39.603864482490735" lon="16.78015028725115"><ele>20.0</ele><time>2026-04-06T07:40:21.999Z</time></trkpt><trkpt lat="39.60384772419772" lon="16.78025255965106"><ele>19.8</ele><time>2026-04-06T07:40:22.999Z</time></trkpt><trkpt lat="39.6038313557807" lon="16.780349344195525"><ele>19.6</ele><time>2026-04-06T07:40:23.999Z</time></trkpt><trkpt lat="39.60381366073251" lon="16.78045520551264"><ele>19.4</ele><time>2026-04-06T07:40:24.999Z</time></trkpt><trkpt lat="39.603795047049815" lon="16.78056656260679"><ele>19.2</ele><time>2026-04-06T07:40:25.999Z</time></trkpt><trkpt lat="39.60377236435468" lon="16.780695030092083"><ele>19.0</ele><time>2026-04-06T07:40:26.999Z</time></trkpt><trkpt lat="39.603763009318754" lon="16.7808414083065"><ele>19.0</ele><time>2026-04-06T07:40:27.999Z</time></trkpt><trkpt lat="39.60373545827272" lon="16.780992981754327"><ele>19.0</ele><time>2026-04-06T07:40:28.999Z</time></trkpt><trkpt lat="39.603694411561854" lon="16.78112823367503"><ele>19.0</ele><time>2026-04-06T07:40:29.999Z</time></trkpt><trkpt lat="39.60366387373597" lon="16.781262855757372"><ele>19.0</ele><time>2026-04-06T07:40:30.999Z</time></trkpt><trkpt lat="39.6036358236313" lon="16.781398333191834"><ele>19.0</ele><time>2026-04-06T07:40:31.999Z</time></trkpt><trkpt lat="39.603609487413785" lon="16.78153292208267"><ele>19.2</ele><time>2026-04-06T07:40:32.999Z</time></trkpt><trkpt lat="39.60358698971916" lon="16.781651096398512"><ele>19.4</ele><time>2026-04-06T07:40:33.999Z</time></trkpt><trkpt lat="39.60356118197186" lon="16.78178665749157"><ele>19.6</ele><time>2026-04-06T07:40:34.999Z</time></trkpt><trkpt lat="39.603533104159496" lon="16.78193070816523"><ele>19.8</ele><time>2026-04-06T07:40:35.999Z</time></trkpt><trkpt lat="39.60350246257569" lon="16.782088119878967"><ele>20.0</ele><time>2026-04-06T07:40:36.999Z</time></trkpt><trkpt lat="39.60347145232835" lon="16.782247425500067"><ele>20.0</ele><time>2026-04-06T07:40:37.999Z</time></trkpt><trkpt lat="39.603439569602486" lon="16.78241121320198"><ele>20.0</ele><time>2026-04-06T07:40:38.999Z</time></trkpt><trkpt lat="39.60340815205706" lon="16.782571828873788"><ele>20.0</ele><time>2026-04-06T07:40:39.999Z</time></trkpt><trkpt lat="39.6033765262126" lon="16.78273343159217"><ele>20.0</ele><time>2026-04-06T07:40:40.999Z</time></trkpt><trkpt lat="39.60334481281936" lon="16.7828954816707"><ele>19.5</ele><time>2026-04-06T07:40:41.999Z</time></trkpt><trkpt lat="39.60332901443509" lon="16.7830632112048"><ele>19.0</ele><time>2026-04-06T07:40:42.999Z</time></trkpt><trkpt lat="39.6032934701269" lon="16.783231405527925"><ele>18.5</ele><time>2026-04-06T07:40:43.999Z</time></trkpt><trkpt lat="39.60325815802042" lon="16.78339984307763"><ele>18.0</ele><time>2026-04-06T07:40:44.999Z</time></trkpt><trkpt lat="39.60321083015715" lon="16.78355613814304"><ele>17.5</ele><time>2026-04-06T07:40:45.999Z</time></trkpt><trkpt lat="39.60317673462187" lon="16.783710322765565"><ele>17.0</ele><time>2026-04-06T07:40:46.999Z</time></trkpt><trkpt lat="39.60314487992387" lon="16.783853765236927"><ele>16.5</ele><time>2026-04-06T07:40:47.999Z</time></trkpt><trkpt lat="39.60311239079644" lon="16.784000064567476"><ele>16.0</ele><time>2026-04-06T07:40:48.999Z</time></trkpt><trkpt lat="39.60308097149636" lon="16.784137156584404"><ele>16.0</ele><time>2026-04-06T07:40:50Z</time></trkpt><trkpt lat="39.603047599490324" lon="16.78428207223913"><ele>16.0</ele><time>2026-04-06T07:40:51Z</time></trkpt><trkpt lat="39.603017776486986" lon="16.78441157646732"><ele>16.0</ele><time>2026-04-06T07:40:52Z</time></trkpt><trkpt lat="39.60298910801923" lon="16.7845344477255"><ele>16.0</ele><time>2026-04-06T07:40:53Z</time></trkpt><trkpt lat="39.6029608246156" lon="16.784653475582534"><ele>16.0</ele><time>2026-04-06T07:40:54Z</time></trkpt><trkpt lat="39.60294849784862" lon="16.784763492071914"><ele>15.8</ele><time>2026-04-06T07:40:55Z</time></trkpt><trkpt lat="39.60292287452216" lon="16.78486642111089"><ele>15.600000000000001</ele><time>2026-04-06T07:40:56Z</time></trkpt><trkpt lat="39.602890956596326" lon="16.78497870656704"><ele>15.4</ele><time>2026-04-06T07:40:57Z</time></trkpt><trkpt lat="39.60285881625809" lon="16.785098713020414"><ele>15.2</ele><time>2026-04-06T07:40:58Z</time></trkpt><trkpt lat="39.60282135486469" lon="16.785231046224066"><ele>15.0</ele><time>2026-04-06T07:40:59Z</time></trkpt><trkpt lat="39.60279000390535" lon="16.78534909563335"><ele>15.0</ele><time>2026-04-06T07:41:00Z</time></trkpt><trkpt lat="39.60275779797263" lon="16.785463203789877"><ele>15.0</ele><time>2026-04-06T07:41:01Z</time></trkpt><trkpt lat="39.60271998982892" lon="16.78558052890765"><ele>15.0</ele><time>2026-04-06T07:41:02Z</time></trkpt><trkpt lat="39.602683337743244" lon="16.785702672989146"><ele>15.0</ele><time>2026-04-06T07:41:03Z</time></trkpt><trkpt lat="39.60264454945319" lon="16.7858261198665"><ele>15.0</ele><time>2026-04-06T07:41:04Z</time></trkpt><trkpt lat="39.60260311040305" lon="16.785957565109634"><ele>14.4</ele><time>2026-04-06T07:41:05Z</time></trkpt><trkpt lat="39.602559917671535" lon="16.786077090699063"><ele>13.8</ele><time>2026-04-06T07:41:06Z</time></trkpt><trkpt lat="39.60252367742464" lon="16.7861905747954"><ele>13.2</ele><time>2026-04-06T07:41:07Z</time></trkpt><trkpt lat="39.60248663716109" lon="16.786301304946424"><ele>12.6</ele><time>2026-04-06T07:41:08Z</time></trkpt><trkpt lat="39.6024422502382" lon="16.786410162633175"><ele>12.0</ele><time>2026-04-06T07:41:09Z</time></trkpt><trkpt lat="39.60240154389839" lon="16.78650348427543"><ele>12.0</ele><time>2026-04-06T07:41:10Z</time></trkpt><trkpt lat="39.602363671180015" lon="16.786589806352083"><ele>12.0</ele><time>2026-04-06T07:41:11Z</time></trkpt><trkpt lat="39.60228486301717" lon="16.786709598563856"><ele>12.0</ele><time>2026-04-06T07:41:13Z</time></trkpt><trkpt lat="39.60217257337061" lon="16.78678927063126"><ele>12.0</ele><time>2026-04-06T07:41:15Z</time></trkpt><trkpt lat="39.602103713690965" lon="16.786810825038724"><ele>12.0</ele><time>2026-04-06T07:41:16Z</time></trkpt><trkpt lat="39.60203874092941" lon="16.78684093256394"><ele>12.2</ele><time>2026-04-06T07:41:17Z</time></trkpt><trkpt lat="39.60195312953718" lon="16.78696300230729"><ele>12.399999999999999</ele><time>2026-04-06T07:41:19Z</time></trkpt><trkpt lat="39.60193589363552" lon="16.787053682743817"><ele>12.600000000000001</ele><time>2026-04-06T07:41:20Z</time></trkpt><trkpt lat="39.601932370811646" lon="16.787154584421387"><ele>12.8</ele><time>2026-04-06T07:41:21Z</time></trkpt><trkpt lat="39.60192790699427" lon="16.787286517346754"><ele>13.0</ele><time>2026-04-06T07:41:22Z</time></trkpt><trkpt lat="39.6018899156289" lon="16.787432708747943"><ele>13.0</ele><time>2026-04-06T07:41:23Z</time></trkpt><trkpt lat="39.601808092556105" lon="16.787579671142336"><ele>13.0</ele><time>2026-04-06T07:41:24Z</time></trkpt><trkpt lat="39.60175371364581" lon="16.78776213146321"><ele>13.0</ele><time>2026-04-06T07:41:25Z</time></trkpt><trkpt lat="39.6017171885099" lon="16.78795443465922"><ele>13.0</ele><time>2026-04-06T07:41:26Z</time></trkpt><trkpt lat="39.60168114811516" lon="16.788154975000474"><ele>13.0</ele><time>2026-04-06T07:41:27Z</time></trkpt><trkpt lat="39.601635825642596" lon="16.78834848495288"><ele>13.0</ele><time>2026-04-06T07:41:27.999Z</time></trkpt><trkpt lat="39.60158592349265" lon="16.78854160752741"><ele>13.0</ele><time>2026-04-06T07:41:28.999Z</time></trkpt><trkpt lat="39.60152595324856" lon="16.788733402679618"><ele>11.666666666666666</ele><time>2026-04-06T07:41:29.999Z</time></trkpt><trkpt lat="39.60145851492339" lon="16.78892189187513"><ele>10.333333333333332</ele><time>2026-04-06T07:41:30.999Z</time></trkpt><trkpt lat="39.601384404345545" lon="16.789110557213256"><ele>9.0</ele><time>2026-04-06T07:41:31.999Z</time></trkpt><trkpt lat="39.6013114333015" lon="16.78929965738735"><ele>9.333333333333334</ele><time>2026-04-06T07:41:32.999Z</time></trkpt><trkpt lat="39.6012422708317" lon="16.78948641950045"><ele>9.666666666666668</ele><time>2026-04-06T07:41:33.999Z</time></trkpt><trkpt lat="39.601176273629044" lon="16.789667415275655"><ele>10.0</ele><time>2026-04-06T07:41:34.999Z</time></trkpt><trkpt lat="39.60110982172809" lon="16.7898415299908"><ele>10.25</ele><time>2026-04-06T07:41:35.999Z</time></trkpt><trkpt lat="39.60104334724799" lon="16.79001223630218"><ele>10.5</ele><time>2026-04-06T07:41:36.999Z</time></trkpt><trkpt lat="39.60097788415247" lon="16.790176359693337"><ele>10.75</ele><time>2026-04-06T07:41:37.999Z</time></trkpt><trkpt lat="39.60091507355996" lon="16.790340179010155"><ele>11.0</ele><time>2026-04-06T07:41:38.999Z</time></trkpt><trkpt lat="39.60085502841825" lon="16.7904990152491"><ele>11.0</ele><time>2026-04-06T07:41:39.999Z</time></trkpt><trkpt lat="39.60078260167547" lon="16.7906505500187"><ele>11.0</ele><time>2026-04-06T07:41:40.999Z</time></trkpt><trkpt lat="39.60070221300584" lon="16.790789927064154"><ele>11.0</ele><time>2026-04-06T07:41:41.999Z</time></trkpt><trkpt lat="39.60060918248889" lon="16.790909347820733"><ele>11.0</ele><time>2026-04-06T07:41:42.999Z</time></trkpt><trkpt lat="39.60051896816446" lon="16.791009972284897"><ele>11.0</ele><time>2026-04-06T07:41:43.999Z</time></trkpt><trkpt lat="39.60043406609048" lon="16.7910953182111"><ele>11.0</ele><time>2026-04-06T07:41:44.999Z</time></trkpt><trkpt lat="39.60035130681146" lon="16.791164872655155"><ele>11.0</ele><time>2026-04-06T07:41:45.999Z</time></trkpt><trkpt lat="39.60027066630669" lon="16.791204994656837"><ele>11.0</ele><time>2026-04-06T07:41:46.999Z</time></trkpt><trkpt lat="39.60019836334608" lon="16.791224288597505"><ele>11.0</ele><time>2026-04-06T07:41:47.999Z</time></trkpt><trkpt lat="39.60013065573843" lon="16.791352361631624"><ele>11.0</ele><time>2026-04-06T07:41:49.999Z</time></trkpt><trkpt lat="39.600140114163885" lon="16.791444602240393"><ele>11.0</ele><time>2026-04-06T07:41:50.999Z</time></trkpt><trkpt lat="39.60018282266186" lon="16.791543021543802"><ele>11.0</ele><time>2026-04-06T07:41:51.999Z</time></trkpt><trkpt lat="39.60023009052336" lon="16.79164969870825"><ele>11.0</ele><time>2026-04-06T07:41:52.999Z</time></trkpt><trkpt lat="39.60024520244526" lon="16.791785299422795"><ele>11.0</ele><time>2026-04-06T07:41:53.999Z</time></trkpt><trkpt lat="39.60023123761154" lon="16.791945204723987"><ele>11.0</ele><time>2026-04-06T07:41:54.999Z</time></trkpt><trkpt lat="39.60019643130726" lon="16.79210573433493"><ele>11.0</ele><time>2026-04-06T07:41:55.999Z</time></trkpt><trkpt lat="39.60014980793065" lon="16.79226136684579"><ele>11.0</ele><time>2026-04-06T07:41:56.999Z</time></trkpt><trkpt lat="39.6000885237685" lon="16.792412694827995"><ele>11.0</ele><time>2026-04-06T07:41:57.999Z</time></trkpt><trkpt lat="39.600011051806575" lon="16.792557710717205"><ele>10.75</ele><time>2026-04-06T07:41:58.999Z</time></trkpt><trkpt lat="39.59993356211742" lon="16.79270437846955"><ele>10.5</ele><time>2026-04-06T07:41:59.999Z</time></trkpt><trkpt lat="39.59986049520818" lon="16.79285546941022"><ele>10.25</ele><time>2026-04-06T07:42:00.999Z</time></trkpt><trkpt lat="39.599794216609496" lon="16.792994069437253"><ele>10.0</ele><time>2026-04-06T07:42:01.999Z</time></trkpt><trkpt lat="39.599730108722795" lon="16.79312739040972"><ele>10.0</ele><time>2026-04-06T07:42:02.999Z</time></trkpt><trkpt lat="39.599653744280715" lon="16.793286330536233"><ele>10.0</ele><time>2026-04-06T07:42:03.999Z</time></trkpt><trkpt lat="39.59957690924185" lon="16.793448558007352"><ele>10.0</ele><time>2026-04-06T07:42:04.999Z</time></trkpt><trkpt lat="39.5995017959206" lon="16.793608210926504"><ele>10.0</ele><time>2026-04-06T07:42:05.999Z</time></trkpt><trkpt lat="39.59942416760581" lon="16.793766364110688"><ele>10.0</ele><time>2026-04-06T07:42:06.999Z</time></trkpt><trkpt lat="39.599350992745585" lon="16.793922494471612"><ele>10.0</ele><time>2026-04-06T07:42:07.999Z</time></trkpt><trkpt lat="39.59927602964016" lon="16.794078400459256"><ele>10.0</ele><time>2026-04-06T07:42:08.999Z</time></trkpt><trkpt lat="39.59919969898988" lon="16.794237663014858"><ele>10.0</ele><time>2026-04-06T07:42:09.999Z</time></trkpt><trkpt lat="39.599128647514085" lon="16.79438164368562"><ele>10.0</ele><time>2026-04-06T07:42:10.999Z</time></trkpt><trkpt lat="39.59906453138702" lon="16.794511483101708"><ele>10.0</ele><time>2026-04-06T07:42:11.999Z</time></trkpt><trkpt lat="39.59901222641806" lon="16.79462375892349"><ele>10.0</ele><time>2026-04-06T07:42:12.999Z</time></trkpt><trkpt lat="39.59896137006079" lon="16.794727981218625"><ele>10.0</ele><time>2026-04-06T07:42:13.999Z</time></trkpt><trkpt lat="39.59891363009069" lon="16.79482630870187"><ele>10.0</ele><time>2026-04-06T07:42:14.999Z</time></trkpt><trkpt lat="39.598867471298874" lon="16.794919347030635"><ele>10.0</ele><time>2026-04-06T07:42:15.999Z</time></trkpt><trkpt lat="39.59881901961612" lon="16.795012572959926"><ele>10.0</ele><time>2026-04-06T07:42:16.999Z</time></trkpt><trkpt lat="39.59876582591244" lon="16.795120369088846"><ele>10.0</ele><time>2026-04-06T07:42:17.999Z</time></trkpt><trkpt lat="39.598708255817186" lon="16.795238317832315"><ele>10.0</ele><time>2026-04-06T07:42:18.999Z</time></trkpt><trkpt lat="39.59864659516036" lon="16.795366920718802"><ele>10.0</ele><time>2026-04-06T07:42:19.999Z</time></trkpt><trkpt lat="39.59857939980667" lon="16.7955038282692"><ele>10.25</ele><time>2026-04-06T07:42:20.999Z</time></trkpt><trkpt lat="39.59850990013409" lon="16.79564265274151"><ele>10.5</ele><time>2026-04-06T07:42:21.999Z</time></trkpt><trkpt lat="39.598440710847406" lon="16.795784776220987"><ele>10.75</ele><time>2026-04-06T07:42:22.999Z</time></trkpt><trkpt lat="39.59837423225769" lon="16.795923444779593"><ele>11.0</ele><time>2026-04-06T07:42:23.999Z</time></trkpt><trkpt lat="39.598312774885805" lon="16.79604954596074"><ele>10.5</ele><time>2026-04-06T07:42:24.999Z</time></trkpt><trkpt lat="39.59825325339134" lon="16.796171800383622"><ele>10.0</ele><time>2026-04-06T07:42:25.999Z</time></trkpt><trkpt lat="39.59819013525182" lon="16.796294642498324"><ele>9.5</ele><time>2026-04-06T07:42:26.999Z</time></trkpt><trkpt lat="39.59812681832957" lon="16.796419472854954"><ele>9.0</ele><time>2026-04-06T07:42:27.999Z</time></trkpt><trkpt lat="39.59806451818112" lon="16.796547787367665"><ele>9.0</ele><time>2026-04-06T07:42:28.999Z</time></trkpt><trkpt lat="39.598000496168424" lon="16.796679909779222"><ele>9.0</ele><time>2026-04-06T07:42:29.999Z</time></trkpt><trkpt lat="39.59793266578643" lon="16.796812881489018"><ele>9.0</ele><time>2026-04-06T07:42:30.999Z</time></trkpt><trkpt lat="39.59786634842741" lon="16.79695058782699"><ele>9.0</ele><time>2026-04-06T07:42:31.999Z</time></trkpt><trkpt lat="39.59780109225829" lon="16.797086814771742"><ele>9.5</ele><time>2026-04-06T07:42:32.999Z</time></trkpt><trkpt lat="39.59773348929894" lon="16.79722184235166"><ele>10.0</ele><time>2026-04-06T07:42:33.999Z</time></trkpt><trkpt lat="39.59767026138688" lon="16.797352278964517"><ele>10.5</ele><time>2026-04-06T07:42:34.999Z</time></trkpt><trkpt lat="39.59760669168552" lon="16.797480951739118"><ele>11.0</ele><time>2026-04-06T07:42:35.999Z</time></trkpt><trkpt lat="39.59754322414194" lon="16.79761359585365"><ele>10.25</ele><time>2026-04-06T07:42:36.999Z</time></trkpt><trkpt lat="39.59747639309726" lon="16.79774453136803"><ele>9.5</ele><time>2026-04-06T07:42:37.999Z</time></trkpt><trkpt lat="39.59741095596658" lon="16.79787882416393"><ele>8.75</ele><time>2026-04-06T07:42:38.999Z</time></trkpt><trkpt lat="39.597343961706194" lon="16.798014719505666"><ele>8.0</ele><time>2026-04-06T07:42:39.999Z</time></trkpt><trkpt lat="39.597276571771225" lon="16.798150658664095"><ele>8.0</ele><time>2026-04-06T07:42:40.999Z</time></trkpt><trkpt lat="39.5972074102952" lon="16.7982870127116"><ele>8.0</ele><time>2026-04-06T07:42:41.999Z</time></trkpt><trkpt lat="39.597138416995406" lon="16.79842625453753"><ele>8.0</ele><time>2026-04-06T07:42:42.999Z</time></trkpt><trkpt lat="39.59707015157887" lon="16.79856650342557"><ele>8.0</ele><time>2026-04-06T07:42:43.999Z</time></trkpt><trkpt lat="39.59700556449914" lon="16.798702243756654"><ele>8.75</ele><time>2026-04-06T07:42:44.999Z</time></trkpt><trkpt lat="39.596942629565035" lon="16.798835609205042"><ele>9.5</ele><time>2026-04-06T07:42:45.999Z</time></trkpt><trkpt lat="39.59687736140626" lon="16.798966074670954"><ele>10.25</ele><time>2026-04-06T07:42:46.999Z</time></trkpt><trkpt lat="39.596811960243194" lon="16.799100119091467"><ele>11.0</ele><time>2026-04-06T07:42:47.999Z</time></trkpt><trkpt lat="39.59674624909259" lon="16.799235520555346"><ele>10.75</ele><time>2026-04-06T07:42:48.999Z</time></trkpt><trkpt lat="39.59668026462402" lon="16.799366434008018"><ele>10.5</ele><time>2026-04-06T07:42:49.999Z</time></trkpt><trkpt lat="39.59661188420572" lon="16.799500544299057"><ele>10.25</ele><time>2026-04-06T07:42:50.999Z</time></trkpt><trkpt lat="39.59654313650497" lon="16.79963442169315"><ele>10.0</ele><time>2026-04-06T07:42:51.999Z</time></trkpt><trkpt lat="39.59647329448711" lon="16.799770989577542"><ele>10.0</ele><time>2026-04-06T07:42:52.999Z</time></trkpt><trkpt lat="39.596402481761686" lon="16.799904842718686"><ele>10.0</ele><time>2026-04-06T07:42:53.999Z</time></trkpt><trkpt lat="39.596329993901136" lon="16.800040138031473"><ele>10.0</ele><time>2026-04-06T07:42:54.999Z</time></trkpt><trkpt lat="39.59625442388835" lon="16.8001726596177"><ele>10.0</ele><time>2026-04-06T07:42:56Z</time></trkpt><trkpt lat="39.596182295802215" lon="16.800304152006927"><ele>10.5</ele><time>2026-04-06T07:42:57Z</time></trkpt><trkpt lat="39.59610757635664" lon="16.800434819026158"><ele>11.0</ele><time>2026-04-06T07:42:58Z</time></trkpt><trkpt lat="39.59603386410418" lon="16.800566192189137"><ele>11.5</ele><time>2026-04-06T07:42:59Z</time></trkpt><trkpt lat="39.595956773166044" lon="16.800695138314317"><ele>12.0</ele><time>2026-04-06T07:43:00Z</time></trkpt><trkpt lat="39.59588265569185" lon="16.800820581419742"><ele>12.0</ele><time>2026-04-06T07:43:01Z</time></trkpt><trkpt lat="39.595807785909685" lon="16.800945713986856"><ele>12.0</ele><time>2026-04-06T07:43:02Z</time></trkpt><trkpt lat="39.59573019154737" lon="16.801071033653233"><ele>12.0</ele><time>2026-04-06T07:43:03Z</time></trkpt><trkpt lat="39.59565673838417" lon="16.801192355465066"><ele>12.0</ele><time>2026-04-06T07:43:04Z</time></trkpt><trkpt lat="39.59558003128339" lon="16.801316598973695"><ele>12.0</ele><time>2026-04-06T07:43:05Z</time></trkpt><trkpt lat="39.59550776619358" lon="16.801438480886077"><ele>12.0</ele><time>2026-04-06T07:43:06Z</time></trkpt><trkpt lat="39.59543518944896" lon="16.801560501986284"><ele>12.0</ele><time>2026-04-06T07:43:07Z</time></trkpt><trkpt lat="39.5953602563138" lon="16.801681519775556"><ele>12.0</ele><time>2026-04-06T07:43:08Z</time></trkpt><trkpt lat="39.59528574618882" lon="16.801802336834044"><ele>11.25</ele><time>2026-04-06T07:43:09Z</time></trkpt><trkpt lat="39.59521465273255" lon="16.801924568080086"><ele>10.5</ele><time>2026-04-06T07:43:10Z</time></trkpt><trkpt lat="39.59514281596471" lon="16.802049156030527"><ele>9.75</ele><time>2026-04-06T07:43:11Z</time></trkpt><trkpt lat="39.59507083964827" lon="16.80217302904112"><ele>9.0</ele><time>2026-04-06T07:43:12Z</time></trkpt><trkpt lat="39.594996595293395" lon="16.802295396321718"><ele>9.0</ele><time>2026-04-06T07:43:13Z</time></trkpt><trkpt lat="39.59492114537907" lon="16.802417940580735"><ele>9.0</ele><time>2026-04-06T07:43:14Z</time></trkpt><trkpt lat="39.59484534420728" lon="16.80254379949371"><ele>9.0</ele><time>2026-04-06T07:43:15Z</time></trkpt><trkpt lat="39.59477011269353" lon="16.802671381224037"><ele>9.0</ele><time>2026-04-06T07:43:16Z</time></trkpt><trkpt lat="39.59469432877257" lon="16.802799439704295"><ele>8.75</ele><time>2026-04-06T07:43:17Z</time></trkpt><trkpt lat="39.59461506852971" lon="16.80292461559899"><ele>8.5</ele><time>2026-04-06T07:43:18Z</time></trkpt><trkpt lat="39.59453385681439" lon="16.803043753181257"><ele>8.25</ele><time>2026-04-06T07:43:19Z</time></trkpt><trkpt lat="39.5944491180888" lon="16.80316147434361"><ele>8.0</ele><time>2026-04-06T07:43:20Z</time></trkpt><trkpt lat="39.59436454494403" lon="16.803278402568733"><ele>8.0</ele><time>2026-04-06T07:43:21Z</time></trkpt><trkpt lat="39.59427903278455" lon="16.803393495817563"><ele>8.0</ele><time>2026-04-06T07:43:22Z</time></trkpt><trkpt lat="39.59419346469792" lon="16.803509553031653"><ele>8.0</ele><time>2026-04-06T07:43:23Z</time></trkpt><trkpt lat="39.5941088763028" lon="16.803627430327083"><ele>8.0</ele><time>2026-04-06T07:43:24Z</time></trkpt><trkpt lat="39.59402399610148" lon="16.803740065158944"><ele>7.5</ele><time>2026-04-06T07:43:24.999Z</time></trkpt><trkpt lat="39.593938181578004" lon="16.80385600221069"><ele>7.0</ele><time>2026-04-06T07:43:25.999Z</time></trkpt><trkpt lat="39.59385486845531" lon="16.803971301552405"><ele>6.5</ele><time>2026-04-06T07:43:26.999Z</time></trkpt><trkpt lat="39.593771639406505" lon="16.804088229038346"><ele>6.0</ele><time>2026-04-06T07:43:27.999Z</time></trkpt><trkpt lat="39.59368835540488" lon="16.804204752587218"><ele>6.5</ele><time>2026-04-06T07:43:28.999Z</time></trkpt><trkpt lat="39.59360439847952" lon="16.804318970301935"><ele>7.0</ele><time>2026-04-06T07:43:29.999Z</time></trkpt><trkpt lat="39.59352093978617" lon="16.804433184040132"><ele>7.5</ele><time>2026-04-06T07:43:30.999Z</time></trkpt><trkpt lat="39.593438853931396" lon="16.80454724431965"><ele>8.0</ele><time>2026-04-06T07:43:31.999Z</time></trkpt><trkpt lat="39.59335528915149" lon="16.804661231127607"><ele>8.0</ele><time>2026-04-06T07:43:32.999Z</time></trkpt><trkpt lat="39.59327008553353" lon="16.8047732584524"><ele>8.0</ele><time>2026-04-06T07:43:33.999Z</time></trkpt><trkpt lat="39.593184351135136" lon="16.804886689256527"><ele>8.0</ele><time>2026-04-06T07:43:34.999Z</time></trkpt><trkpt lat="39.593099459427464" lon="16.80500190914704"><ele>8.0</ele><time>2026-04-06T07:43:35.999Z</time></trkpt><trkpt lat="39.59301431440271" lon="16.805116967442324"><ele>7.5</ele><time>2026-04-06T07:43:36.999Z</time></trkpt><trkpt lat="39.59292976374922" lon="16.80523188314686"><ele>7.0</ele><time>2026-04-06T07:43:37.999Z</time></trkpt><trkpt lat="39.59284568725502" lon="16.80534730044769"><ele>6.5</ele><time>2026-04-06T07:43:38.999Z</time></trkpt><trkpt lat="39.59276109451991" lon="16.805460908164562"><ele>6.0</ele><time>2026-04-06T07:43:39.999Z</time></trkpt><trkpt lat="39.592674133784584" lon="16.80557655181192"><ele>6.25</ele><time>2026-04-06T07:43:40.999Z</time></trkpt><trkpt lat="39.59258713639736" lon="16.805698240650543"><ele>6.5</ele><time>2026-04-06T07:43:41.999Z</time></trkpt><trkpt lat="39.59249765177548" lon="16.805824874672364"><ele>6.75</ele><time>2026-04-06T07:43:42.999Z</time></trkpt><trkpt lat="39.59240395304948" lon="16.805956698364295"><ele>7.0</ele><time>2026-04-06T07:43:43.999Z</time></trkpt><trkpt lat="39.592308085465554" lon="16.80609007843132"><ele>7.0</ele><time>2026-04-06T07:43:44.999Z</time></trkpt><trkpt lat="39.59221316878576" lon="16.806228523127878"><ele>7.0</ele><time>2026-04-06T07:43:45.999Z</time></trkpt><trkpt lat="39.592120306297325" lon="16.806375207812493"><ele>7.0</ele><time>2026-04-06T07:43:46.999Z</time></trkpt><trkpt lat="39.592026354280605" lon="16.80652959055622"><ele>7.0</ele><time>2026-04-06T07:43:47.999Z</time></trkpt><trkpt lat="39.59193200258063" lon="16.80668714581567"><ele>7.75</ele><time>2026-04-06T07:43:48.999Z</time></trkpt><trkpt lat="39.59184013994413" lon="16.806839809344154"><ele>8.5</ele><time>2026-04-06T07:43:49.999Z</time></trkpt><trkpt lat="39.59175274216326" lon="16.80697723813998"><ele>9.25</ele><time>2026-04-06T07:43:50.999Z</time></trkpt><trkpt lat="39.59166525602797" lon="16.80711811489842"><ele>10.0</ele><time>2026-04-06T07:43:51.999Z</time></trkpt><trkpt lat="39.59157818693527" lon="16.80726719086852"><ele>10.0</ele><time>2026-04-06T07:43:52.999Z</time></trkpt><trkpt lat="39.59148618068199" lon="16.80742336338707"><ele>10.0</ele><time>2026-04-06T07:43:53.999Z</time></trkpt><trkpt lat="39.591390680101796" lon="16.80758374674723"><ele>10.0</ele><time>2026-04-06T07:43:54.999Z</time></trkpt><trkpt lat="39.591292156533044" lon="16.807743442606416"><ele>10.0</ele><time>2026-04-06T07:43:55.999Z</time></trkpt><trkpt lat="39.591196030860424" lon="16.80789707333315"><ele>10.0</ele><time>2026-04-06T07:43:56.999Z</time></trkpt><trkpt lat="39.591104938988316" lon="16.808053480162464"><ele>10.0</ele><time>2026-04-06T07:43:57.999Z</time></trkpt><trkpt lat="39.591011430040815" lon="16.80821128735412"><ele>10.0</ele><time>2026-04-06T07:43:58.999Z</time></trkpt><trkpt lat="39.59091633148735" lon="16.808367905150703"><ele>10.0</ele><time>2026-04-06T07:43:59.999Z</time></trkpt><trkpt lat="39.590819750590654" lon="16.808523755810967"><ele>10.0</ele><time>2026-04-06T07:44:00.999Z</time></trkpt><trkpt lat="39.59072523239802" lon="16.808677887790846"><ele>9.333333333333334</ele><time>2026-04-06T07:44:01.999Z</time></trkpt><trkpt lat="39.590632368785435" lon="16.80883143103101"><ele>8.666666666666666</ele><time>2026-04-06T07:44:02.999Z</time></trkpt><trkpt lat="39.590540816634245" lon="16.808988186281972"><ele>8.0</ele><time>2026-04-06T07:44:03.999Z</time></trkpt><trkpt lat="39.59044807289461" lon="16.80914687210857"><ele>8.0</ele><time>2026-04-06T07:44:04.999Z</time></trkpt><trkpt lat="39.5903518700176" lon="16.809302030391684"><ele>8.0</ele><time>2026-04-06T07:44:05.999Z</time></trkpt><trkpt lat="39.590254598990384" lon="16.809461290970905"><ele>8.0</ele><time>2026-04-06T07:44:06.999Z</time></trkpt><trkpt lat="39.59015998259132" lon="16.80962144003216"><ele>8.333333333333332</ele><time>2026-04-06T07:44:07.999Z</time></trkpt><trkpt lat="39.59005993845973" lon="16.809786454815715"><ele>8.666666666666666</ele><time>2026-04-06T07:44:08.999Z</time></trkpt><trkpt lat="39.58995958106667" lon="16.80994783813403"><ele>9.0</ele><time>2026-04-06T07:44:09.999Z</time></trkpt><trkpt lat="39.58985641149037" lon="16.810116145655332"><ele>8.333333333333334</ele><time>2026-04-06T07:44:10.999Z</time></trkpt><trkpt lat="39.589748195972305" lon="16.810287645536086"><ele>7.666666666666667</ele><time>2026-04-06T07:44:11.999Z</time></trkpt><trkpt lat="39.58964624323874" lon="16.810462547324686"><ele>7.0</ele><time>2026-04-06T07:44:12.999Z</time></trkpt><trkpt lat="39.589540933294565" lon="16.810641685190564"><ele>7.0</ele><time>2026-04-06T07:44:13.999Z</time></trkpt><trkpt lat="39.589430202939866" lon="16.810821078868386"><ele>7.0</ele><time>2026-04-06T07:44:14.999Z</time></trkpt><trkpt lat="39.58931823945654" lon="16.81100157420745"><ele>7.0</ele><time>2026-04-06T07:44:15.999Z</time></trkpt><trkpt lat="39.589210097000674" lon="16.811180360917334"><ele>7.0</ele><time>2026-04-06T07:44:16.999Z</time></trkpt><trkpt lat="39.589102267293065" lon="16.81136408742813"><ele>7.0</ele><time>2026-04-06T07:44:17.999Z</time></trkpt><trkpt lat="39.589001837209224" lon="16.811544814615363"><ele>7.0</ele><time>2026-04-06T07:44:18.999Z</time></trkpt><trkpt lat="39.588895200425796" lon="16.811721688352527"><ele>7.0</ele><time>2026-04-06T07:44:19.999Z</time></trkpt><trkpt lat="39.58878734450398" lon="16.81189217996714"><ele>7.0</ele><time>2026-04-06T07:44:20.999Z</time></trkpt><trkpt lat="39.58868062418331" lon="16.812063815374927"><ele>7.0</ele><time>2026-04-06T07:44:21.999Z</time></trkpt><trkpt lat="39.58857395425052" lon="16.81223269024723"><ele>7.0</ele><time>2026-04-06T07:44:22.999Z</time></trkpt><trkpt lat="39.58846562776107" lon="16.8124024053544"><ele>7.0</ele><time>2026-04-06T07:44:23.999Z</time></trkpt><trkpt lat="39.58836013969932" lon="16.812570902972737"><ele>7.0</ele><time>2026-04-06T07:44:24.999Z</time></trkpt><trkpt lat="39.588263943346405" lon="16.81273342025379"><ele>6.666666666666667</ele><time>2026-04-06T07:44:25.999Z</time></trkpt><trkpt lat="39.58816819631738" lon="16.812897651785978"><ele>6.333333333333334</ele><time>2026-04-06T07:44:26.999Z</time></trkpt><trkpt lat="39.58806947453611" lon="16.81305852835607"><ele>6.0</ele><time>2026-04-06T07:44:27.999Z</time></trkpt><trkpt lat="39.58796457834448" lon="16.81322197607679"><ele>6.0</ele><time>2026-04-06T07:44:28.999Z</time></trkpt><trkpt lat="39.587847050667555" lon="16.813375270407946"><ele>6.0</ele><time>2026-04-06T07:44:29.999Z</time></trkpt><trkpt lat="39.58771807372114" lon="16.81351878456317"><ele>6.0</ele><time>2026-04-06T07:44:30.999Z</time></trkpt><trkpt lat="39.587580416442435" lon="16.813651092507474"><ele>5.333333333333333</ele><time>2026-04-06T07:44:31.999Z</time></trkpt><trkpt lat="39.58743564434411" lon="16.813780844972715"><ele>4.666666666666666</ele><time>2026-04-06T07:44:32.999Z</time></trkpt><trkpt lat="39.587294800535254" lon="16.81391261363625"><ele>4.0</ele><time>2026-04-06T07:44:33.999Z</time></trkpt><trkpt lat="39.58715449152754" lon="16.814042916538327"><ele>4.0</ele><time>2026-04-06T07:44:34.999Z</time></trkpt><trkpt lat="39.58701463338109" lon="16.81417572846175"><ele>4.0</ele><time>2026-04-06T07:44:35.999Z</time></trkpt><trkpt lat="39.58687528966495" lon="16.81430976586198"><ele>4.0</ele><time>2026-04-06T07:44:36.999Z</time></trkpt><trkpt lat="39.58673960439914" lon="16.814440917574416"><ele>4.333333333333333</ele><time>2026-04-06T07:44:37.999Z</time></trkpt><trkpt lat="39.586606632895474" lon="16.81457403527483"><ele>4.666666666666667</ele><time>2026-04-06T07:44:38.999Z</time></trkpt><trkpt lat="39.586471871716725" lon="16.814707406709143"><ele>5.0</ele><time>2026-04-06T07:44:39.999Z</time></trkpt><trkpt lat="39.58633660610983" lon="16.814834668744577"><ele>5.0</ele><time>2026-04-06T07:44:40.999Z</time></trkpt><trkpt lat="39.586204829471" lon="16.814962626714415"><ele>5.0</ele><time>2026-04-06T07:44:41.999Z</time></trkpt><trkpt lat="39.58607754761439" lon="16.815087545185957"><ele>5.0</ele><time>2026-04-06T07:44:42.999Z</time></trkpt><trkpt lat="39.58594781896003" lon="16.815209389908247"><ele>5.0</ele><time>2026-04-06T07:44:43.999Z</time></trkpt><trkpt lat="39.58582355760355" lon="16.815331898016513"><ele>5.0</ele><time>2026-04-06T07:44:44.999Z</time></trkpt><trkpt lat="39.58570460044207" lon="16.81544307915598"><ele>5.0</ele><time>2026-04-06T07:44:45.999Z</time></trkpt><trkpt lat="39.5855918729013" lon="16.815552168760433"><ele>5.0</ele><time>2026-04-06T07:44:46.999Z</time></trkpt><trkpt lat="39.58548747260304" lon="16.81564940686638"><ele>5.0</ele><time>2026-04-06T07:44:47.999Z</time></trkpt><trkpt lat="39.58538008696316" lon="16.81574913559136"><ele>5.0</ele><time>2026-04-06T07:44:48.999Z</time></trkpt><trkpt lat="39.58527676696767" lon="16.815843458369788"><ele>5.0</ele><time>2026-04-06T07:44:49.999Z</time></trkpt><trkpt lat="39.58517606842297" lon="16.815935283369168"><ele>5.0</ele><time>2026-04-06T07:44:50.999Z</time></trkpt><trkpt lat="39.58507435292262" lon="16.816032180761475"><ele>5.0</ele><time>2026-04-06T07:44:51.999Z</time></trkpt><trkpt lat="39.58496648604598" lon="16.81613445660883"><ele>5.0</ele><time>2026-04-06T07:44:52.999Z</time></trkpt><trkpt lat="39.584857322029116" lon="16.816242744502194"><ele>5.0</ele><time>2026-04-06T07:44:53.999Z</time></trkpt><trkpt lat="39.584744118966086" lon="16.816350912144156"><ele>5.0</ele><time>2026-04-06T07:44:54.999Z</time></trkpt><trkpt lat="39.58462736494133" lon="16.81646175910751"><ele>5.0</ele><time>2026-04-06T07:44:55.999Z</time></trkpt><trkpt lat="39.584507271316674" lon="16.816571882045242"><ele>5.0</ele><time>2026-04-06T07:44:56.999Z</time></trkpt><trkpt lat="39.58438358526085" lon="16.816676665853176"><ele>5.0</ele><time>2026-04-06T07:44:57.999Z</time></trkpt><trkpt lat="39.584256484300006" lon="16.816775603612726"><ele>5.0</ele><time>2026-04-06T07:44:58.999Z</time></trkpt><trkpt lat="39.584124193005835" lon="16.816868618230615"><ele>4.666666666666667</ele><time>2026-04-06T07:44:59.999Z</time></trkpt><trkpt lat="39.583989122360975" lon="16.816957844078665"><ele>4.333333333333333</ele><time>2026-04-06T07:45:00.999Z</time></trkpt><trkpt lat="39.583852245090185" lon="16.817048495276616"><ele>4.0</ele><time>2026-04-06T07:45:02Z</time></trkpt><trkpt lat="39.58371898087855" lon="16.817141909718163"><ele>4.5</ele><time>2026-04-06T07:45:03Z</time></trkpt><trkpt lat="39.58358795203934" lon="16.817236312291854"><ele>5.0</ele><time>2026-04-06T07:45:04Z</time></trkpt><trkpt lat="39.583458998979125" lon="16.81732732668714"><ele>5.5</ele><time>2026-04-06T07:45:05Z</time></trkpt><trkpt lat="39.58332939885326" lon="16.817416392717647"><ele>6.0</ele><time>2026-04-06T07:45:06Z</time></trkpt><trkpt lat="39.58319989410199" lon="16.81750378925387"><ele>6.0</ele><time>2026-04-06T07:45:07Z</time></trkpt><trkpt lat="39.58307107263465" lon="16.817590594729857"><ele>6.0</ele><time>2026-04-06T07:45:08Z</time></trkpt><trkpt lat="39.58294147018482" lon="16.817675722589154"><ele>6.0</ele><time>2026-04-06T07:45:09Z</time></trkpt><trkpt lat="39.5828116665984" lon="16.817762023882253"><ele>6.0</ele><time>2026-04-06T07:45:10Z</time></trkpt><trkpt lat="39.58267683159805" lon="16.817842541485682"><ele>5.666666666666667</ele><time>2026-04-06T07:45:11Z</time></trkpt><trkpt lat="39.58253664780042" lon="16.81791193972152"><ele>5.333333333333334</ele><time>2026-04-06T07:45:12Z</time></trkpt><trkpt lat="39.58239170423946" lon="16.817973782043744"><ele>5.0</ele><time>2026-04-06T07:45:13Z</time></trkpt><trkpt lat="39.582242174371686" lon="16.818034040873393"><ele>5.0</ele><time>2026-04-06T07:45:14Z</time></trkpt><trkpt lat="39.582092625017594" lon="16.818099359948135"><ele>5.0</ele><time>2026-04-06T07:45:15Z</time></trkpt><trkpt lat="39.58193786869716" lon="16.818151820443642"><ele>5.0</ele><time>2026-04-06T07:45:16Z</time></trkpt><trkpt lat="39.581783257546135" lon="16.818206125848718"><ele>5.0</ele><time>2026-04-06T07:45:17Z</time></trkpt><trkpt lat="39.58163095841007" lon="16.818256413670674"><ele>5.0</ele><time>2026-04-06T07:45:18Z</time></trkpt><trkpt lat="39.58147725096363" lon="16.81830623470733"><ele>5.0</ele><time>2026-04-06T07:45:19Z</time></trkpt><trkpt lat="39.58132537341385" lon="16.8183626037159"><ele>5.0</ele><time>2026-04-06T07:45:20Z</time></trkpt><trkpt lat="39.58117539487684" lon="16.81842190534958"><ele>5.0</ele><time>2026-04-06T07:45:21Z</time></trkpt><trkpt lat="39.581042243469206" lon="16.818476059175424"><ele>5.0</ele><time>2026-04-06T07:45:21.999Z</time></trkpt><trkpt lat="39.58091233852827" lon="16.818530478783867"><ele>5.0</ele><time>2026-04-06T07:45:22.999Z</time></trkpt><trkpt lat="39.580786556087176" lon="16.818575411074935"><ele>4.75</ele><time>2026-04-06T07:45:23.999Z</time></trkpt><trkpt lat="39.58066183321181" lon="16.818619206320246"><ele>4.5</ele><time>2026-04-06T07:45:24.999Z</time></trkpt><trkpt lat="39.58052941257099" lon="16.818657669348042"><ele>4.25</ele><time>2026-04-06T07:45:25.999Z</time></trkpt><trkpt lat="39.58039169662004" lon="16.81869000214544"><ele>4.0</ele><time>2026-04-06T07:45:26.999Z</time></trkpt><trkpt lat="39.58025715037531" lon="16.81872290295691"><ele>3.75</ele><time>2026-04-06T07:45:27.999Z</time></trkpt><trkpt lat="39.580118701244544" lon="16.818760109353143"><ele>3.5</ele><time>2026-04-06T07:45:28.999Z</time></trkpt><trkpt lat="39.57997646192128" lon="16.81879602828242"><ele>3.25</ele><time>2026-04-06T07:45:29.999Z</time></trkpt><trkpt lat="39.57983058235022" lon="16.818826054353355"><ele>3.0</ele><time>2026-04-06T07:45:30.999Z</time></trkpt><trkpt lat="39.57968301602832" lon="16.818862653306695"><ele>3.0</ele><time>2026-04-06T07:45:31.999Z</time></trkpt><trkpt lat="39.57953399800466" lon="16.818904933079455"><ele>3.0</ele><time>2026-04-06T07:45:32.999Z</time></trkpt><trkpt lat="39.57938496269818" lon="16.81894445668383"><ele>3.0</ele><time>2026-04-06T07:45:33.999Z</time></trkpt><trkpt lat="39.57923652923172" lon="16.818983564989892"><ele>3.666666666666667</ele><time>2026-04-06T07:45:34.999Z</time></trkpt><trkpt lat="39.57908789137907" lon="16.819028773698143"><ele>4.333333333333334</ele><time>2026-04-06T07:45:35.999Z</time></trkpt><trkpt lat="39.57894170276841" lon="16.819080404193752"><ele>5.0</ele><time>2026-04-06T07:45:36.999Z</time></trkpt><trkpt lat="39.57879628601912" lon="16.819135710165778"><ele>5.0</ele><time>2026-04-06T07:45:37.999Z</time></trkpt><trkpt lat="39.57865371728586" lon="16.81918420345323"><ele>5.0</ele><time>2026-04-06T07:45:38.999Z</time></trkpt><trkpt lat="39.578512031620086" lon="16.81922826571179"><ele>5.0</ele><time>2026-04-06T07:45:39.999Z</time></trkpt><trkpt lat="39.57837240250691" lon="16.81926853639267"><ele>5.0</ele><time>2026-04-06T07:45:40.999Z</time></trkpt><trkpt lat="39.578229367383344" lon="16.819312508947423"><ele>4.666666666666667</ele><time>2026-04-06T07:45:41.999Z</time></trkpt><trkpt lat="39.57808181316582" lon="16.819362111097384"><ele>4.333333333333333</ele><time>2026-04-06T07:45:42.999Z</time></trkpt><trkpt lat="39.577933309714815" lon="16.819419849366234"><ele>4.0</ele><time>2026-04-06T07:45:43.999Z</time></trkpt><trkpt lat="39.57777864429218" lon="16.81947883863051"><ele>4.0</ele><time>2026-04-06T07:45:44.999Z</time></trkpt><trkpt lat="39.57763082362948" lon="16.81954004564875"><ele>4.0</ele><time>2026-04-06T07:45:45.999Z</time></trkpt><trkpt lat="39.577474181034155" lon="16.81960548905506"><ele>4.0</ele><time>2026-04-06T07:45:46.999Z</time></trkpt><trkpt lat="39.577312648873274" lon="16.81967049993292"><ele>4.0</ele><time>2026-04-06T07:45:47.999Z</time></trkpt><trkpt lat="39.57715266774876" lon="16.819736423089306"><ele>4.0</ele><time>2026-04-06T07:45:48.999Z</time></trkpt><trkpt lat="39.57699263815111" lon="16.819803721073303"><ele>4.0</ele><time>2026-04-06T07:45:49.999Z</time></trkpt><trkpt lat="39.57683678296552" lon="16.819875509556002"><ele>4.0</ele><time>2026-04-06T07:45:50.999Z</time></trkpt><trkpt lat="39.576677040006885" lon="16.8199442533109"><ele>4.0</ele><time>2026-04-06T07:45:51.999Z</time></trkpt><trkpt lat="39.57651827432654" lon="16.820013884832143"><ele>4.0</ele><time>2026-04-06T07:45:52.999Z</time></trkpt><trkpt lat="39.576364701666385" lon="16.820077316736903"><ele>4.0</ele><time>2026-04-06T07:45:53.999Z</time></trkpt><trkpt lat="39.5762120522891" lon="16.8201444015541"><ele>4.0</ele><time>2026-04-06T07:45:54.999Z</time></trkpt><trkpt lat="39.5760657554147" lon="16.82021325293416"><ele>4.0</ele><time>2026-04-06T07:45:55.999Z</time></trkpt><trkpt lat="39.575924965327616" lon="16.82027981750006"><ele>4.0</ele><time>2026-04-06T07:45:56.999Z</time></trkpt><trkpt lat="39.575797663801126" lon="16.820338628350367"><ele>4.0</ele><time>2026-04-06T07:45:57.999Z</time></trkpt><trkpt lat="39.575660393912166" lon="16.820399788539394"><ele>4.0</ele><time>2026-04-06T07:45:58.999Z</time></trkpt><trkpt lat="39.575522504478805" lon="16.820461967571987"><ele>4.0</ele><time>2026-04-06T07:45:59.999Z</time></trkpt><trkpt lat="39.57539676545535" lon="16.8205190940332"><ele>4.5</ele><time>2026-04-06T07:46:00.999Z</time></trkpt><trkpt lat="39.575269423034335" lon="16.8205739908984"><ele>5.0</ele><time>2026-04-06T07:46:01.999Z</time></trkpt><trkpt lat="39.57513885208336" lon="16.820630927750422"><ele>5.5</ele><time>2026-04-06T07:46:02.999Z</time></trkpt><trkpt lat="39.5749988749005" lon="16.82068865730869"><ele>6.0</ele><time>2026-04-06T07:46:03.999Z</time></trkpt><trkpt lat="39.57486223245443" lon="16.82074601935646"><ele>6.0</ele><time>2026-04-06T07:46:04.999Z</time></trkpt><trkpt lat="39.57470202266853" lon="16.820815651638423"><ele>6.0</ele><time>2026-04-06T07:46:05.999Z</time></trkpt><trkpt lat="39.57455051247343" lon="16.820879394760205"><ele>6.0</ele><time>2026-04-06T07:46:06.999Z</time></trkpt><trkpt lat="39.57440919367357" lon="16.82094265009727"><ele>5.5</ele><time>2026-04-06T07:46:07.999Z</time></trkpt><trkpt lat="39.574272655604126" lon="16.82100129623669"><ele>5.0</ele><time>2026-04-06T07:46:08.999Z</time></trkpt><trkpt lat="39.57413490324145" lon="16.821060496931107"><ele>4.5</ele><time>2026-04-06T07:46:09.999Z</time></trkpt><trkpt lat="39.57399675913468" lon="16.821124456757648"><ele>4.0</ele><time>2026-04-06T07:46:10.999Z</time></trkpt><trkpt lat="39.57385533067176" lon="16.821186063888927"><ele>4.0</ele><time>2026-04-06T07:46:11.999Z</time></trkpt><trkpt lat="39.57371308982097" lon="16.82124741866939"><ele>4.0</ele><time>2026-04-06T07:46:12.999Z</time></trkpt><trkpt lat="39.57356898224921" lon="16.82130897192068"><ele>4.0</ele><time>2026-04-06T07:46:13.999Z</time></trkpt><trkpt lat="39.573424625938756" lon="16.821369068004802"><ele>5.0</ele><time>2026-04-06T07:46:14.999Z</time></trkpt><trkpt lat="39.573281013480326" lon="16.82142679425301"><ele>6.0</ele><time>2026-04-06T07:46:16Z</time></trkpt><trkpt lat="39.57313281167643" lon="16.821488285944778"><ele>7.0</ele><time>2026-04-06T07:46:17Z</time></trkpt><trkpt lat="39.57298148218556" lon="16.82154922058019"><ele>7.0</ele><time>2026-04-06T07:46:18Z</time></trkpt><trkpt lat="39.57282837957127" lon="16.821615865934827"><ele>7.0</ele><time>2026-04-06T07:46:19Z</time></trkpt><trkpt lat="39.57267302154893" lon="16.82168159227278"><ele>7.0</ele><time>2026-04-06T07:46:20Z</time></trkpt><trkpt lat="39.57251608913087" lon="16.821747510816273"><ele>6.333333333333334</ele><time>2026-04-06T07:46:21Z</time></trkpt><trkpt lat="39.572357124266354" lon="16.82181646824255"><ele>5.666666666666667</ele><time>2026-04-06T07:46:22Z</time></trkpt><trkpt lat="39.57220058140483" lon="16.821886074734675"><ele>5.0</ele><time>2026-04-06T07:46:23Z</time></trkpt><trkpt lat="39.57204187044991" lon="16.821956165586055"><ele>4.666666666666667</ele><time>2026-04-06T07:46:24Z</time></trkpt><trkpt lat="39.571882077521416" lon="16.82202532915002"><ele>4.333333333333333</ele><time>2026-04-06T07:46:25Z</time></trkpt><trkpt lat="39.57172083866234" lon="16.822095743258302"><ele>4.0</ele><time>2026-04-06T07:46:26Z</time></trkpt><trkpt lat="39.57155881023695" lon="16.8221695415825"><ele>4.0</ele><time>2026-04-06T07:46:27Z</time></trkpt><trkpt lat="39.571397382996416" lon="16.822243800369034"><ele>4.0</ele><time>2026-04-06T07:46:28Z</time></trkpt><trkpt lat="39.571235664135735" lon="16.822323143178465"><ele>4.0</ele><time>2026-04-06T07:46:29Z</time></trkpt><trkpt lat="39.57107588566095" lon="16.822408378013208"><ele>4.0</ele><time>2026-04-06T07:46:30Z</time></trkpt><trkpt lat="39.57092215809203" lon="16.82250781114195"><ele>4.0</ele><time>2026-04-06T07:46:31Z</time></trkpt><trkpt lat="39.57077027131127" lon="16.82261307252218"><ele>4.0</ele><time>2026-04-06T07:46:32Z</time></trkpt><trkpt lat="39.570615437939026" lon="16.82271422250441"><ele>4.0</ele><time>2026-04-06T07:46:33Z</time></trkpt><trkpt lat="39.570459907167695" lon="16.822812938644542"><ele>4.0</ele><time>2026-04-06T07:46:34Z</time></trkpt><trkpt lat="39.57030427704298" lon="16.822908633982973"><ele>4.0</ele><time>2026-04-06T07:46:35Z</time></trkpt><trkpt lat="39.57015029021218" lon="16.82300527052564"><ele>4.333333333333333</ele><time>2026-04-06T07:46:36Z</time></trkpt><trkpt lat="39.570001797641496" lon="16.823105558668807"><ele>4.666666666666667</ele><time>2026-04-06T07:46:37Z</time></trkpt><trkpt lat="39.56985948396824" lon="16.823203971652507"><ele>5.0</ele><time>2026-04-06T07:46:38Z</time></trkpt><trkpt lat="39.56971860724403" lon="16.82330299929861"><ele>5.0</ele><time>2026-04-06T07:46:39Z</time></trkpt><trkpt lat="39.56958439257707" lon="16.823417402698972"><ele>5.0</ele><time>2026-04-06T07:46:40Z</time></trkpt><trkpt lat="39.56944016519558" lon="16.823539926370753"><ele>5.0</ele><time>2026-04-06T07:46:41Z</time></trkpt><trkpt lat="39.56929085056275" lon="16.823663871938173"><ele>4.666666666666667</ele><time>2026-04-06T07:46:42Z</time></trkpt><trkpt lat="39.56914846655528" lon="16.823790691916347"><ele>4.333333333333333</ele><time>2026-04-06T07:46:43Z</time></trkpt><trkpt lat="39.56900327354168" lon="16.82391585801582"><ele>4.0</ele><time>2026-04-06T07:46:44Z</time></trkpt><trkpt lat="39.56885118864787" lon="16.82404037954756"><ele>4.0</ele><time>2026-04-06T07:46:45Z</time></trkpt><trkpt lat="39.56869963617464" lon="16.82416175859682"><ele>4.0</ele><time>2026-04-06T07:46:46Z</time></trkpt><trkpt lat="39.56855071642281" lon="16.82428614912991"><ele>4.0</ele><time>2026-04-06T07:46:47Z</time></trkpt><trkpt lat="39.56839980805043" lon="16.824411893511964"><ele>4.0</ele><time>2026-04-06T07:46:48Z</time></trkpt><trkpt lat="39.568249152794984" lon="16.824538741262003"><ele>4.0</ele><time>2026-04-06T07:46:49Z</time></trkpt><trkpt lat="39.56809885214963" lon="16.824664953184563"><ele>4.0</ele><time>2026-04-06T07:46:50Z</time></trkpt><trkpt lat="39.56795100649388" lon="16.824792393125154"><ele>4.333333333333333</ele><time>2026-04-06T07:46:51Z</time></trkpt><trkpt lat="39.5678012696696" lon="16.824916272074518"><ele>4.666666666666667</ele><time>2026-04-06T07:46:52Z</time></trkpt><trkpt lat="39.56765439090396" lon="16.825036174809888"><ele>5.0</ele><time>2026-04-06T07:46:53Z</time></trkpt><trkpt lat="39.56751179430389" lon="16.82515745254797"><ele>5.0</ele><time>2026-04-06T07:46:54Z</time></trkpt><trkpt lat="39.56736567631702" lon="16.825277636214775"><ele>5.0</ele><time>2026-04-06T07:46:55Z</time></trkpt><trkpt lat="39.56722642507504" lon="16.82539438559864"><ele>5.0</ele><time>2026-04-06T07:46:56Z</time></trkpt><trkpt lat="39.567086474126924" lon="16.825512658573498"><ele>6.0</ele><time>2026-04-06T07:46:57Z</time></trkpt><trkpt lat="39.56694296652884" lon="16.825628334524485"><ele>7.0</ele><time>2026-04-06T07:46:58Z</time></trkpt><trkpt lat="39.56679637315516" lon="16.825750218789718"><ele>8.0</ele><time>2026-04-06T07:46:59Z</time></trkpt><trkpt lat="39.566651196880024" lon="16.825875727139355"><ele>7.0</ele><time>2026-04-06T07:47:00Z</time></trkpt><trkpt lat="39.56650348115884" lon="16.826002328272086"><ele>6.0</ele><time>2026-04-06T07:47:01Z</time></trkpt><trkpt lat="39.566355239792856" lon="16.826127883455783"><ele>5.0</ele><time>2026-04-06T07:47:02Z</time></trkpt><trkpt lat="39.56620470002236" lon="16.826250615712404"><ele>5.333333333333334</ele><time>2026-04-06T07:47:03Z</time></trkpt><trkpt lat="39.56605314970458" lon="16.826376265756807"><ele>5.666666666666667</ele><time>2026-04-06T07:47:04Z</time></trkpt><trkpt lat="39.5659055202994" lon="16.82650833348044"><ele>6.0</ele><time>2026-04-06T07:47:05Z</time></trkpt><trkpt lat="39.565759645911676" lon="16.826639896744446"><ele>6.0</ele><time>2026-04-06T07:47:06Z</time></trkpt><trkpt lat="39.56561405944708" lon="16.82677030361747"><ele>6.0</ele><time>2026-04-06T07:47:07Z</time></trkpt><trkpt lat="39.56546427572917" lon="16.8268997975164"><ele>6.0</ele><time>2026-04-06T07:47:08Z</time></trkpt><trkpt lat="39.56531655332317" lon="16.827031531494676"><ele>6.333333333333334</ele><time>2026-04-06T07:47:09Z</time></trkpt><trkpt lat="39.56516874678329" lon="16.827162990966738"><ele>6.666666666666667</ele><time>2026-04-06T07:47:10Z</time></trkpt><trkpt lat="39.565020218699736" lon="16.827296352431908"><ele>7.0</ele><time>2026-04-06T07:47:11Z</time></trkpt><trkpt lat="39.564871878447654" lon="16.827424047894777"><ele>7.0</ele><time>2026-04-06T07:47:12Z</time></trkpt><trkpt lat="39.564723819637386" lon="16.827554557054412"><ele>7.0</ele><time>2026-04-06T07:47:13Z</time></trkpt><trkpt lat="39.56457851584785" lon="16.827687285612623"><ele>7.0</ele><time>2026-04-06T07:47:14Z</time></trkpt><trkpt lat="39.5644320506046" lon="16.827820299264214"><ele>7.0</ele><time>2026-04-06T07:47:15Z</time></trkpt><trkpt lat="39.56428794415983" lon="16.8279510568923"><ele>7.0</ele><time>2026-04-06T07:47:16Z</time></trkpt><trkpt lat="39.56414288205305" lon="16.828081735295275"><ele>7.0</ele><time>2026-04-06T07:47:17Z</time></trkpt><trkpt lat="39.56399834124246" lon="16.828210141963346"><ele>7.0</ele><time>2026-04-06T07:47:18Z</time></trkpt><trkpt lat="39.563851564389296" lon="16.828335279709577"><ele>7.0</ele><time>2026-04-06T07:47:19Z</time></trkpt><trkpt lat="39.56370491389872" lon="16.82846350583276"><ele>7.0</ele><time>2026-04-06T07:47:20Z</time></trkpt><trkpt lat="39.5635614230928" lon="16.828593056737855"><ele>7.333333333333334</ele><time>2026-04-06T07:47:21Z</time></trkpt><trkpt lat="39.563417394477675" lon="16.828721826108378"><ele>7.666666666666666</ele><time>2026-04-06T07:47:22Z</time></trkpt><trkpt lat="39.56327456225757" lon="16.828852498801673"><ele>8.0</ele><time>2026-04-06T07:47:23Z</time></trkpt><trkpt lat="39.5631367723367" lon="16.828992287989436"><ele>8.0</ele><time>2026-04-06T07:47:24Z</time></trkpt><trkpt lat="39.56299715306318" lon="16.82913852081909"><ele>8.0</ele><time>2026-04-06T07:47:25Z</time></trkpt><trkpt lat="39.562858634421936" lon="16.82928222675247"><ele>8.0</ele><time>2026-04-06T07:47:26Z</time></trkpt><trkpt lat="39.562720359334755" lon="16.829425712212362"><ele>8.0</ele><time>2026-04-06T07:47:27Z</time></trkpt><trkpt lat="39.56258215518485" lon="16.829567215675624"><ele>8.0</ele><time>2026-04-06T07:47:28Z</time></trkpt><trkpt lat="39.56244470748851" lon="16.82970964145787"><ele>8.0</ele><time>2026-04-06T07:47:29Z</time></trkpt><trkpt lat="39.56230882655064" lon="16.829851629564146"><ele>8.0</ele><time>2026-04-06T07:47:30Z</time></trkpt><trkpt lat="39.562171066487295" lon="16.829993176266473"><ele>8.0</ele><time>2026-04-06T07:47:31Z</time></trkpt><trkpt lat="39.56203451653056" lon="16.8301321229057"><ele>8.0</ele><time>2026-04-06T07:47:32Z</time></trkpt><trkpt lat="39.56189897734688" lon="16.83027307367614"><ele>8.0</ele><time>2026-04-06T07:47:33Z</time></trkpt><trkpt lat="39.56176209889258" lon="16.830412517363097"><ele>8.0</ele><time>2026-04-06T07:47:34Z</time></trkpt><trkpt lat="39.56162374772817" lon="16.830548701934735"><ele>8.0</ele><time>2026-04-06T07:47:35Z</time></trkpt><trkpt lat="39.56148649314349" lon="16.83068948720061"><ele>8.0</ele><time>2026-04-06T07:47:36Z</time></trkpt><trkpt lat="39.56135288528158" lon="16.83083014424456"><ele>8.0</ele><time>2026-04-06T07:47:37Z</time></trkpt><trkpt lat="39.56121848164273" lon="16.830975226463107"><ele>8.0</ele><time>2026-04-06T07:47:38Z</time></trkpt><trkpt lat="39.561082818593036" lon="16.831116904477575"><ele>7.0</ele><time>2026-04-06T07:47:39Z</time></trkpt><trkpt lat="39.56094761718781" lon="16.831258257187244"><ele>6.0</ele><time>2026-04-06T07:47:40Z</time></trkpt><trkpt lat="39.56081235439326" lon="16.831394321860895"><ele>5.0</ele><time>2026-04-06T07:47:41Z</time></trkpt><trkpt lat="39.56067714258413" lon="16.831529300013912"><ele>5.0</ele><time>2026-04-06T07:47:42Z</time></trkpt><trkpt lat="39.56054679594585" lon="16.83167276229502"><ele>5.0</ele><time>2026-04-06T07:47:43Z</time></trkpt><trkpt lat="39.56041836183871" lon="16.83182086196907"><ele>5.0</ele><time>2026-04-06T07:47:44Z</time></trkpt><trkpt lat="39.560288572446545" lon="16.831980315910485"><ele>5.333333333333334</ele><time>2026-04-06T07:47:45Z</time></trkpt><trkpt lat="39.56016176022335" lon="16.83213503164746"><ele>5.666666666666667</ele><time>2026-04-06T07:47:46Z</time></trkpt><trkpt lat="39.560031239996526" lon="16.832295203989794"><ele>6.0</ele><time>2026-04-06T07:47:47Z</time></trkpt><trkpt lat="39.55989938125103" lon="16.832456598124292"><ele>6.0</ele><time>2026-04-06T07:47:48Z</time></trkpt><trkpt lat="39.55976795138801" lon="16.83261479865855"><ele>6.0</ele><time>2026-04-06T07:47:49Z</time></trkpt><trkpt lat="39.559638287380096" lon="16.83277979477731"><ele>6.0</ele><time>2026-04-06T07:47:50Z</time></trkpt><trkpt lat="39.559509348872076" lon="16.832953686831445"><ele>5.333333333333333</ele><time>2026-04-06T07:47:51Z</time></trkpt><trkpt lat="39.55938383265632" lon="16.833129005049273"><ele>4.666666666666666</ele><time>2026-04-06T07:47:52Z</time></trkpt><trkpt lat="39.55925322383356" lon="16.83329862042628"><ele>4.0</ele><time>2026-04-06T07:47:53Z</time></trkpt><trkpt lat="39.559122694825966" lon="16.833469383852236"><ele>3.6666666666666665</ele><time>2026-04-06T07:47:54Z</time></trkpt><trkpt lat="39.55898972963689" lon="16.833637557898065"><ele>3.333333333333333</ele><time>2026-04-06T07:47:55Z</time></trkpt><trkpt lat="39.558861987710365" lon="16.833804403326706"><ele>3.0</ele><time>2026-04-06T07:47:56Z</time></trkpt><trkpt lat="39.55872738440056" lon="16.833975266671665"><ele>3.0</ele><time>2026-04-06T07:47:57Z</time></trkpt><trkpt lat="39.55859849109755" lon="16.834137689218036"><ele>3.0</ele><time>2026-04-06T07:47:58Z</time></trkpt><trkpt lat="39.558463051790014" lon="16.834298668907337"><ele>3.0</ele><time>2026-04-06T07:47:59Z</time></trkpt><trkpt lat="39.558330730711496" lon="16.834456988018516"><ele>3.333333333333333</ele><time>2026-04-06T07:48:00Z</time></trkpt><trkpt lat="39.55819350938584" lon="16.834614276049333"><ele>3.6666666666666665</ele><time>2026-04-06T07:48:01Z</time></trkpt><trkpt lat="39.55805460366226" lon="16.834768988702425"><ele>4.0</ele><time>2026-04-06T07:48:02Z</time></trkpt><trkpt lat="39.557920369991365" lon="16.834924982593403"><ele>4.333333333333333</ele><time>2026-04-06T07:48:03Z</time></trkpt><trkpt lat="39.557784795747665" lon="16.835078418137012"><ele>4.666666666666667</ele><time>2026-04-06T07:48:04Z</time></trkpt><trkpt lat="39.55764960745464" lon="16.83523438379012"><ele>5.0</ele><time>2026-04-06T07:48:05Z</time></trkpt><trkpt lat="39.557512476482074" lon="16.835396880557553"><ele>4.333333333333334</ele><time>2026-04-06T07:48:06Z</time></trkpt><trkpt lat="39.55736802308343" lon="16.83556472692899"><ele>3.666666666666667</ele><time>2026-04-06T07:48:07Z</time></trkpt><trkpt lat="39.557215378561" lon="16.835735669134074"><ele>3.0</ele><time>2026-04-06T07:48:08Z</time></trkpt><trkpt lat="39.55705298801469" lon="16.835921031892628"><ele>3.5</ele><time>2026-04-06T07:48:09Z</time></trkpt><trkpt lat="39.55688314764279" lon="16.836112773429278"><ele>4.0</ele><time>2026-04-06T07:48:10Z</time></trkpt><trkpt lat="39.55670540577265" lon="16.836314710837264"><ele>4.0</ele><time>2026-04-06T07:48:11Z</time></trkpt><trkpt lat="39.556518220174254" lon="16.836530393708987"><ele>4.0</ele><time>2026-04-06T07:48:12Z</time></trkpt><trkpt lat="39.556338986837524" lon="16.83673924529839"><ele>4.5</ele><time>2026-04-06T07:48:13Z</time></trkpt><trkpt lat="39.5561682000687" lon="16.836940231096275"><ele>5.0</ele><time>2026-04-06T07:48:14Z</time></trkpt><trkpt lat="39.5559906874457" lon="16.837140128770216"><ele>5.0</ele><time>2026-04-06T07:48:15Z</time></trkpt><trkpt lat="39.55580867330945" lon="16.837338092781714"><ele>5.0</ele><time>2026-04-06T07:48:16Z</time></trkpt><trkpt lat="39.55563417072329" lon="16.837542830830742"><ele>4.5</ele><time>2026-04-06T07:48:17Z</time></trkpt><trkpt lat="39.555455415396764" lon="16.837751200333624"><ele>4.0</ele><time>2026-04-06T07:48:18Z</time></trkpt><trkpt lat="39.5552754167662" lon="16.83795662256522"><ele>4.0</ele><time>2026-04-06T07:48:19Z</time></trkpt><trkpt lat="39.55509527424198" lon="16.83816468685468"><ele>4.0</ele><time>2026-04-06T07:48:20Z</time></trkpt><trkpt lat="39.55491827363141" lon="16.83837552177723"><ele>3.5</ele><time>2026-04-06T07:48:21Z</time></trkpt><trkpt lat="39.55474867764688" lon="16.838590493970937"><ele>3.0</ele><time>2026-04-06T07:48:22Z</time></trkpt><trkpt lat="39.554579575974834" lon="16.83881047479458"><ele>5.5</ele><time>2026-04-06T07:48:23Z</time></trkpt><trkpt lat="39.55441683942767" lon="16.839028686485037"><ele>8.0</ele><time>2026-04-06T07:48:24Z</time></trkpt><trkpt lat="39.554255062418626" lon="16.839246340383795"><ele>7.0</ele><time>2026-04-06T07:48:25Z</time></trkpt><trkpt lat="39.55409401402006" lon="16.83945870436481"><ele>6.0</ele><time>2026-04-06T07:48:26Z</time></trkpt><trkpt lat="39.55393156947135" lon="16.839674792356437"><ele>6.0</ele><time>2026-04-06T07:48:27Z</time></trkpt><trkpt lat="39.553762341252565" lon="16.83989584449712"><ele>6.0</ele><time>2026-04-06T07:48:28Z</time></trkpt><trkpt lat="39.55359637705693" lon="16.840117487704525"><ele>5.5</ele><time>2026-04-06T07:48:29Z</time></trkpt><trkpt lat="39.55341895529485" lon="16.84036041463546"><ele>5.0</ele><time>2026-04-06T07:48:30Z</time></trkpt><trkpt lat="39.55323142356968" lon="16.8406063304871"><ele>5.0</ele><time>2026-04-06T07:48:31Z</time></trkpt><trkpt lat="39.55303750011529" lon="16.840855620477114"><ele>5.0</ele><time>2026-04-06T07:48:32Z</time></trkpt><trkpt lat="39.5528404396868" lon="16.841084958928864"><ele>5.0</ele><time>2026-04-06T07:48:33Z</time></trkpt><trkpt lat="39.55267285134281" lon="16.84135241070269"><ele>5.0</ele><time>2026-04-06T07:48:34Z</time></trkpt><trkpt lat="39.5524984881147" lon="16.841585011713235"><ele>4.0</ele><time>2026-04-06T07:48:35Z</time></trkpt><trkpt lat="39.552328433443776" lon="16.841814418921633"><ele>3.0</ele><time>2026-04-06T07:48:36Z</time></trkpt><trkpt lat="39.55216716611666" lon="16.842029068384704"><ele>5.0</ele><time>2026-04-06T07:48:37Z</time></trkpt><trkpt lat="39.55201075084565" lon="16.84224588750249"><ele>7.0</ele><time>2026-04-06T07:48:38Z</time></trkpt><trkpt lat="39.55185938693765" lon="16.84246493807958"><ele>6.0</ele><time>2026-04-06T07:48:39Z</time></trkpt><trkpt lat="39.55171380775202" lon="16.8426915877998"><ele>5.0</ele><time>2026-04-06T07:48:40Z</time></trkpt><trkpt lat="39.551572907640086" lon="16.842914883808625"><ele>5.0</ele><time>2026-04-06T07:48:41Z</time></trkpt><trkpt lat="39.55142689426008" lon="16.843130959685727"><ele>5.0</ele><time>2026-04-06T07:48:42Z</time></trkpt><trkpt lat="39.551281379806035" lon="16.843346267564485"><ele>5.0</ele><time>2026-04-06T07:48:43Z</time></trkpt><trkpt lat="39.551136936629945" lon="16.843562383265926"><ele>5.666666666666667</ele><time>2026-04-06T07:48:44Z</time></trkpt><trkpt lat="39.55099112763954" lon="16.843773498846414"><ele>6.333333333333334</ele><time>2026-04-06T07:48:45Z</time></trkpt><trkpt lat="39.55085026681401" lon="16.8439867003928"><ele>7.0</ele><time>2026-04-06T07:48:46Z</time></trkpt><trkpt lat="39.55070789802231" lon="16.84419595445822"><ele>7.0</ele><time>2026-04-06T07:48:47Z</time></trkpt><trkpt lat="39.55056384808166" lon="16.844406865806157"><ele>7.0</ele><time>2026-04-06T07:48:48Z</time></trkpt><trkpt lat="39.55042353613374" lon="16.844613023754274"><ele>7.0</ele><time>2026-04-06T07:48:49Z</time></trkpt><trkpt lat="39.550283763273654" lon="16.844821702686016"><ele>7.0</ele><time>2026-04-06T07:48:50Z</time></trkpt><trkpt lat="39.55014316734954" lon="16.84503303548493"><ele>7.0</ele><time>2026-04-06T07:48:51Z</time></trkpt><trkpt lat="39.550004607982295" lon="16.845247554777703"><ele>7.0</ele><time>2026-04-06T07:48:52Z</time></trkpt><trkpt lat="39.549866501746706" lon="16.845460186680096"><ele>7.0</ele><time>2026-04-06T07:48:53Z</time></trkpt><trkpt lat="39.54972798785626" lon="16.845669324259266"><ele>7.0</ele><time>2026-04-06T07:48:54Z</time></trkpt><trkpt lat="39.549587896478826" lon="16.84587845644143"><ele>7.0</ele><time>2026-04-06T07:48:55Z</time></trkpt><trkpt lat="39.54944894222786" lon="16.846091052286145"><ele>7.333333333333334</ele><time>2026-04-06T07:48:56Z</time></trkpt><trkpt lat="39.54931026551783" lon="16.846297074144257"><ele>7.666666666666666</ele><time>2026-04-06T07:48:57Z</time></trkpt><trkpt lat="39.549170662030946" lon="16.846505182702046"><ele>8.0</ele><time>2026-04-06T07:48:58Z</time></trkpt><trkpt lat="39.54903086158836" lon="16.846714637786306"><ele>8.0</ele><time>2026-04-06T07:48:59Z</time></trkpt><trkpt lat="39.54889218083427" lon="16.846923979537856"><ele>8.0</ele><time>2026-04-06T07:49:00Z</time></trkpt><trkpt lat="39.548754603592464" lon="16.847133014313535"><ele>8.0</ele><time>2026-04-06T07:49:01Z</time></trkpt><trkpt lat="39.54861696110838" lon="16.847341186221236"><ele>8.0</ele><time>2026-04-06T07:49:02Z</time></trkpt><trkpt lat="39.5484801335726" lon="16.84754850893641"><ele>8.0</ele><time>2026-04-06T07:49:03Z</time></trkpt><trkpt lat="39.54834362348811" lon="16.847751796952583"><ele>8.0</ele><time>2026-04-06T07:49:04Z</time></trkpt><trkpt lat="39.54820584504803" lon="16.847953267420973"><ele>7.666666666666666</ele><time>2026-04-06T07:49:05Z</time></trkpt><trkpt lat="39.54807046582551" lon="16.84815443071551"><ele>7.333333333333334</ele><time>2026-04-06T07:49:06Z</time></trkpt><trkpt lat="39.54793832501412" lon="16.848357876509468"><ele>7.0</ele><time>2026-04-06T07:49:07Z</time></trkpt><trkpt lat="39.54780560726463" lon="16.84856086853204"><ele>7.0</ele><time>2026-04-06T07:49:08Z</time></trkpt><trkpt lat="39.547670354189" lon="16.848765233198414"><ele>7.0</ele><time>2026-04-06T07:49:09Z</time></trkpt><trkpt lat="39.54753945275937" lon="16.848967637545286"><ele>7.0</ele><time>2026-04-06T07:49:10Z</time></trkpt><trkpt lat="39.547411887011044" lon="16.849173675497486"><ele>7.333333333333334</ele><time>2026-04-06T07:49:11Z</time></trkpt><trkpt lat="39.547281340094074" lon="16.849376751868036"><ele>7.666666666666666</ele><time>2026-04-06T07:49:12Z</time></trkpt><trkpt lat="39.54714773417358" lon="16.849580017038708"><ele>8.0</ele><time>2026-04-06T07:49:13Z</time></trkpt><trkpt lat="39.547014678831175" lon="16.849781102192836"><ele>8.0</ele><time>2026-04-06T07:49:14Z</time></trkpt><trkpt lat="39.54688200409248" lon="16.849979596680697"><ele>8.0</ele><time>2026-04-06T07:49:15Z</time></trkpt><trkpt lat="39.546748946983314" lon="16.850178510606383"><ele>8.0</ele><time>2026-04-06T07:49:16Z</time></trkpt><trkpt lat="39.54661823588052" lon="16.85037054698508"><ele>7.666666666666666</ele><time>2026-04-06T07:49:17Z</time></trkpt><trkpt lat="39.54649173813571" lon="16.85056471108791"><ele>7.333333333333334</ele><time>2026-04-06T07:49:18Z</time></trkpt><trkpt lat="39.54636322588117" lon="16.850755418152318"><ele>7.0</ele><time>2026-04-06T07:49:19Z</time></trkpt><trkpt lat="39.54623277749725" lon="16.85094450758999"><ele>7.666666666666667</ele><time>2026-04-06T07:49:20Z</time></trkpt><trkpt lat="39.546106947111554" lon="16.851131551253456"><ele>8.333333333333334</ele><time>2026-04-06T07:49:21Z</time></trkpt><trkpt lat="39.54597955459755" lon="16.85130432223457"><ele>9.0</ele><time>2026-04-06T07:49:22Z</time></trkpt><trkpt lat="39.5458603259596" lon="16.851471716171766"><ele>9.0</ele><time>2026-04-06T07:49:23Z</time></trkpt><trkpt lat="39.545746756850725" lon="16.85162718166454"><ele>9.0</ele><time>2026-04-06T07:49:24Z</time></trkpt><trkpt lat="39.545644463637544" lon="16.851779751636418"><ele>9.0</ele><time>2026-04-06T07:49:25Z</time></trkpt><trkpt lat="39.54553739753146" lon="16.851937201566113"><ele>9.0</ele><time>2026-04-06T07:49:26Z</time></trkpt><trkpt lat="39.54542762465757" lon="16.852098380265364"><ele>9.0</ele><time>2026-04-06T07:49:27Z</time></trkpt><trkpt lat="39.54531277652966" lon="16.852263474454134"><ele>9.0</ele><time>2026-04-06T07:49:28Z</time></trkpt><trkpt lat="39.545193524322286" lon="16.85242878125141"><ele>9.0</ele><time>2026-04-06T07:49:29Z</time></trkpt><trkpt lat="39.54506994898677" lon="16.852605018127058"><ele>9.0</ele><time>2026-04-06T07:49:30Z</time></trkpt><trkpt lat="39.54493550139573" lon="16.852790848695857"><ele>9.0</ele><time>2026-04-06T07:49:31Z</time></trkpt><trkpt lat="39.54479504495247" lon="16.85299524651377"><ele>9.0</ele><time>2026-04-06T07:49:32Z</time></trkpt><trkpt lat="39.54464628568956" lon="16.853212910376087"><ele>9.0</ele><time>2026-04-06T07:49:33Z</time></trkpt><trkpt lat="39.544499294649235" lon="16.85341417996203"><ele>9.0</ele><time>2026-04-06T07:49:34Z</time></trkpt><trkpt lat="39.54435823158376" lon="16.853619073431553"><ele>9.0</ele><time>2026-04-06T07:49:35Z</time></trkpt><trkpt lat="39.544221105525324" lon="16.853821164453546"><ele>9.0</ele><time>2026-04-06T07:49:36Z</time></trkpt><trkpt lat="39.54408440690949" lon="16.854025430804086"><ele>9.0</ele><time>2026-04-06T07:49:37Z</time></trkpt><trkpt lat="39.54395530727111" lon="16.854215089078096"><ele>8.666666666666666</ele><time>2026-04-06T07:49:38Z</time></trkpt><trkpt lat="39.54383631494429" lon="16.854392687942106"><ele>8.333333333333332</ele><time>2026-04-06T07:49:39Z</time></trkpt><trkpt lat="39.54372509140132" lon="16.85456235679248"><ele>8.0</ele><time>2026-04-06T07:49:40Z</time></trkpt><trkpt lat="39.54361239856577" lon="16.854727995275002"><ele>8.0</ele><time>2026-04-06T07:49:41Z</time></trkpt><trkpt lat="39.5435010103157" lon="16.854902527534687"><ele>8.0</ele><time>2026-04-06T07:49:42Z</time></trkpt><trkpt lat="39.54338259074508" lon="16.855082839920268"><ele>8.0</ele><time>2026-04-06T07:49:43Z</time></trkpt><trkpt lat="39.543258326581174" lon="16.855270571651346"><ele>8.0</ele><time>2026-04-06T07:49:44Z</time></trkpt><trkpt lat="39.543133151331816" lon="16.855459306916412"><ele>8.0</ele><time>2026-04-06T07:49:45Z</time></trkpt><trkpt lat="39.54300389767551" lon="16.855654800941053"><ele>8.0</ele><time>2026-04-06T07:49:46Z</time></trkpt><trkpt lat="39.542873034719285" lon="16.855850757516365"><ele>7.0</ele><time>2026-04-06T07:49:47Z</time></trkpt><trkpt lat="39.54274185408584" lon="16.856051013659744"><ele>6.0</ele><time>2026-04-06T07:49:48Z</time></trkpt><trkpt lat="39.54261187559899" lon="16.856251336836813"><ele>5.0</ele><time>2026-04-06T07:49:49Z</time></trkpt><trkpt lat="39.54247911496167" lon="16.85645339137582"><ele>5.0</ele><time>2026-04-06T07:49:50Z</time></trkpt><trkpt lat="39.54234482496855" lon="16.856652939258712"><ele>5.0</ele><time>2026-04-06T07:49:51Z</time></trkpt><trkpt lat="39.54221128208002" lon="16.85685287291272"><ele>5.0</ele><time>2026-04-06T07:49:52Z</time></trkpt><trkpt lat="39.54207612938658" lon="16.857057918055148"><ele>5.0</ele><time>2026-04-06T07:49:53Z</time></trkpt><trkpt lat="39.54194562634052" lon="16.857265646404787"><ele>5.0</ele><time>2026-04-06T07:49:54Z</time></trkpt><trkpt lat="39.541820762123834" lon="16.857470461627834"><ele>5.0</ele><time>2026-04-06T07:49:55Z</time></trkpt><trkpt lat="39.541704459842805" lon="16.85766064063418"><ele>5.0</ele><time>2026-04-06T07:49:56Z</time></trkpt><trkpt lat="39.54159712751146" lon="16.857839676906885"><ele>5.0</ele><time>2026-04-06T07:49:57Z</time></trkpt><trkpt lat="39.541494724589754" lon="16.858007686759027"><ele>5.0</ele><time>2026-04-06T07:49:58Z</time></trkpt><trkpt lat="39.541402034611515" lon="16.858170232821717"><ele>5.0</ele><time>2026-04-06T07:49:59Z</time></trkpt><trkpt lat="39.54130825328362" lon="16.85832363371746"><ele>5.0</ele><time>2026-04-06T07:50:00Z</time></trkpt><trkpt lat="39.54121054785381" lon="16.858475621083066"><ele>5.0</ele><time>2026-04-06T07:50:01Z</time></trkpt><trkpt lat="39.54111369556292" lon="16.858636538826175"><ele>5.666666666666667</ele><time>2026-04-06T07:50:02Z</time></trkpt><trkpt lat="39.54101718281183" lon="16.858795251939686"><ele>6.333333333333334</ele><time>2026-04-06T07:50:03Z</time></trkpt><trkpt lat="39.54092431742244" lon="16.858945952720056"><ele>7.0</ele><time>2026-04-06T07:50:04Z</time></trkpt><trkpt lat="39.5408327381956" lon="16.85909551352229"><ele>7.0</ele><time>2026-04-06T07:50:05Z</time></trkpt><trkpt lat="39.54074547693952" lon="16.859242036589468"><ele>7.0</ele><time>2026-04-06T07:50:06Z</time></trkpt><trkpt lat="39.54066261835972" lon="16.859383659445232"><ele>7.0</ele><time>2026-04-06T07:50:07Z</time></trkpt><trkpt lat="39.540576271446604" lon="16.85952999684557"><ele>7.0</ele><time>2026-04-06T07:50:08Z</time></trkpt><trkpt lat="39.540486018020864" lon="16.859681020897863"><ele>6.75</ele><time>2026-04-06T07:50:09Z</time></trkpt><trkpt lat="39.540394913954145" lon="16.85983127015879"><ele>6.5</ele><time>2026-04-06T07:50:10Z</time></trkpt><trkpt lat="39.540310310438755" lon="16.85997448121795"><ele>6.25</ele><time>2026-04-06T07:50:11Z</time></trkpt><trkpt lat="39.540222806707085" lon="16.860118780947477"><ele>6.0</ele><time>2026-04-06T07:50:12Z</time></trkpt><trkpt lat="39.54014492281705" lon="16.86025362428709"><ele>6.0</ele><time>2026-04-06T07:50:13Z</time></trkpt><trkpt lat="39.540066735040206" lon="16.86037829396045"><ele>6.0</ele><time>2026-04-06T07:50:14Z</time></trkpt><trkpt lat="39.53999696003123" lon="16.860490013905476"><ele>6.0</ele><time>2026-04-06T07:50:15Z</time></trkpt><trkpt lat="39.53993239887484" lon="16.860592679446118"><ele>6.0</ele><time>2026-04-06T07:50:16Z</time></trkpt><trkpt lat="39.53987152438608" lon="16.860690051498413"><ele>6.0</ele><time>2026-04-06T07:50:17Z</time></trkpt><trkpt lat="39.53981414142827" lon="16.86078179364843"><ele>6.0</ele><time>2026-04-06T07:50:18Z</time></trkpt><trkpt lat="39.539758642668225" lon="16.860872809987004"><ele>6.0</ele><time>2026-04-06T07:50:19Z</time></trkpt><trkpt lat="39.53970199768691" lon="16.860964884534216"><ele>6.0</ele><time>2026-04-06T07:50:20Z</time></trkpt><trkpt lat="39.539639147349085" lon="16.861068814718287"><ele>6.0</ele><time>2026-04-06T07:50:21Z</time></trkpt><trkpt lat="39.53956871256501" lon="16.86119443493001"><ele>6.0</ele><time>2026-04-06T07:50:22Z</time></trkpt><trkpt lat="39.53948341081707" lon="16.861331932385042"><ele>5.666666666666667</ele><time>2026-04-06T07:50:23Z</time></trkpt><trkpt lat="39.53939347812525" lon="16.86147964842972"><ele>5.333333333333334</ele><time>2026-04-06T07:50:24Z</time></trkpt><trkpt lat="39.539302661169096" lon="16.86163295697267"><ele>5.0</ele><time>2026-04-06T07:50:25Z</time></trkpt><trkpt lat="39.53920139411345" lon="16.86178890635667"><ele>5.0</ele><time>2026-04-06T07:50:26Z</time></trkpt><trkpt lat="39.5391007882356" lon="16.86195497561671"><ele>5.0</ele><time>2026-04-06T07:50:27Z</time></trkpt><trkpt lat="39.538998724239505" lon="16.862134673610857"><ele>5.0</ele><time>2026-04-06T07:50:28Z</time></trkpt><trkpt lat="39.538890897907216" lon="16.862321445878564"><ele>5.0</ele><time>2026-04-06T07:50:29Z</time></trkpt><trkpt lat="39.53877960541941" lon="16.862511229037622"><ele>5.0</ele><time>2026-04-06T07:50:30Z</time></trkpt><trkpt lat="39.538663750501016" lon="16.862701256229595"><ele>5.0</ele><time>2026-04-06T07:50:31Z</time></trkpt><trkpt lat="39.538551858860664" lon="16.862893128713015"><ele>5.333333333333334</ele><time>2026-04-06T07:50:32Z</time></trkpt><trkpt lat="39.53843847704352" lon="16.86309032206591"><ele>5.666666666666667</ele><time>2026-04-06T07:50:33Z</time></trkpt><trkpt lat="39.538320527207084" lon="16.86328797190092"><ele>6.0</ele><time>2026-04-06T07:50:34Z</time></trkpt><trkpt lat="39.53820117473768" lon="16.86348759298481"><ele>6.0</ele><time>2026-04-06T07:50:35Z</time></trkpt><trkpt lat="39.538086898127524" lon="16.863680819169527"><ele>6.0</ele><time>2026-04-06T07:50:36Z</time></trkpt><trkpt lat="39.53798380609564" lon="16.8638574058964"><ele>6.0</ele><time>2026-04-06T07:50:37Z</time></trkpt><trkpt lat="39.537884588413256" lon="16.864029993513366"><ele>6.0</ele><time>2026-04-06T07:50:38Z</time></trkpt><trkpt lat="39.53777584263704" lon="16.86421655969892"><ele>6.0</ele><time>2026-04-06T07:50:39Z</time></trkpt><trkpt lat="39.53766158780254" lon="16.864410281759035"><ele>6.0</ele><time>2026-04-06T07:50:40Z</time></trkpt><trkpt lat="39.53754842376194" lon="16.86460541186376"><ele>6.0</ele><time>2026-04-06T07:50:41Z</time></trkpt><trkpt lat="39.537435567532555" lon="16.864799598155738"><ele>6.0</ele><time>2026-04-06T07:50:42Z</time></trkpt><trkpt lat="39.5373204326799" lon="16.864997597015332"><ele>6.0</ele><time>2026-04-06T07:50:43Z</time></trkpt><trkpt lat="39.537203359860655" lon="16.865190330716704"><ele>6.0</ele><time>2026-04-06T07:50:44Z</time></trkpt><trkpt lat="39.5370976006171" lon="16.86536498551632"><ele>6.0</ele><time>2026-04-06T07:50:45Z</time></trkpt><trkpt lat="39.5369936999272" lon="16.865539478519075"><ele>6.0</ele><time>2026-04-06T07:50:46Z</time></trkpt><trkpt lat="39.536890493731384" lon="16.86571847254904"><ele>5.666666666666667</ele><time>2026-04-06T07:50:47Z</time></trkpt><trkpt lat="39.53678682763117" lon="16.865899827892576"><ele>5.333333333333334</ele><time>2026-04-06T07:50:48Z</time></trkpt><trkpt lat="39.53668160401771" lon="16.866078185819042"><ele>5.0</ele><time>2026-04-06T07:50:49Z</time></trkpt><trkpt lat="39.53657618415602" lon="16.86625691438587"><ele>5.0</ele><time>2026-04-06T07:50:50Z</time></trkpt><trkpt lat="39.53647162904451" lon="16.86643550209211"><ele>5.0</ele><time>2026-04-06T07:50:51Z</time></trkpt><trkpt lat="39.53637348486282" lon="16.866619554072088"><ele>5.0</ele><time>2026-04-06T07:50:52Z</time></trkpt><trkpt lat="39.53628265115189" lon="16.86683420827991"><ele>6.0</ele><time>2026-04-06T07:50:53Z</time></trkpt><trkpt lat="39.53619068673014" lon="16.86708125139388"><ele>7.0</ele><time>2026-04-06T07:50:54Z</time></trkpt><trkpt lat="39.5360929899292" lon="16.867321628353068"><ele>8.0</ele><time>2026-04-06T07:50:55Z</time></trkpt><trkpt lat="39.5359949167299" lon="16.867560494439807"><ele>7.0</ele><time>2026-04-06T07:50:56Z</time></trkpt><trkpt lat="39.535895919318214" lon="16.867800793554807"><ele>6.0</ele><time>2026-04-06T07:50:57Z</time></trkpt><trkpt lat="39.53579831882303" lon="16.868039023959433"><ele>5.0</ele><time>2026-04-06T07:50:58Z</time></trkpt><trkpt lat="39.5357004558566" lon="16.868276036694596"><ele>4.333333333333334</ele><time>2026-04-06T07:50:59Z</time></trkpt><trkpt lat="39.53560536845639" lon="16.868509220362302"><ele>3.666666666666667</ele><time>2026-04-06T07:51:00Z</time></trkpt><trkpt lat="39.53550580138301" lon="16.86873972982062"><ele>3.0</ele><time>2026-04-06T07:51:01Z</time></trkpt><trkpt lat="39.535405108080546" lon="16.868973029968835"><ele>4.0</ele><time>2026-04-06T07:51:02Z</time></trkpt><trkpt lat="39.535308028464414" lon="16.86920734402933"><ele>5.0</ele><time>2026-04-06T07:51:03Z</time></trkpt><trkpt lat="39.5352080531628" lon="16.869441402312496"><ele>6.0</ele><time>2026-04-06T07:51:04Z</time></trkpt><trkpt lat="39.53510711254707" lon="16.86967039560541"><ele>6.0</ele><time>2026-04-06T07:51:05Z</time></trkpt><trkpt lat="39.535008074637815" lon="16.869899583188268"><ele>6.0</ele><time>2026-04-06T07:51:06Z</time></trkpt><trkpt lat="39.53491381538258" lon="16.87013154860316"><ele>6.0</ele><time>2026-04-06T07:51:07Z</time></trkpt><trkpt lat="39.53482351754379" lon="16.87036563945774"><ele>5.0</ele><time>2026-04-06T07:51:08Z</time></trkpt><trkpt lat="39.53474529211596" lon="16.870599391842248"><ele>4.0</ele><time>2026-04-06T07:51:09Z</time></trkpt><trkpt lat="39.534673230357114" lon="16.870839715535368"><ele>3.0</ele><time>2026-04-06T07:51:10Z</time></trkpt><trkpt lat="39.534602505246625" lon="16.871061808867776"><ele>4.0</ele><time>2026-04-06T07:51:11Z</time></trkpt><trkpt lat="39.53453835749792" lon="16.8712638541535"><ele>5.0</ele><time>2026-04-06T07:51:12Z</time></trkpt><trkpt lat="39.53447146470431" lon="16.871449822435288"><ele>6.0</ele><time>2026-04-06T07:51:13Z</time></trkpt><trkpt lat="39.534400671245756" lon="16.87162134062122"><ele>6.0</ele><time>2026-04-06T07:51:14Z</time></trkpt><trkpt lat="39.53433195147025" lon="16.87178191724561"><ele>6.0</ele><time>2026-04-06T07:51:15Z</time></trkpt><trkpt lat="39.534257302127756" lon="16.871943747075505"><ele>6.0</ele><time>2026-04-06T07:51:16Z</time></trkpt><trkpt lat="39.53420376043804" lon="16.872108532708385"><ele>6.0</ele><time>2026-04-06T07:51:17Z</time></trkpt><trkpt lat="39.53413621622652" lon="16.87226458932773"><ele>6.0</ele><time>2026-04-06T07:51:18Z</time></trkpt><trkpt lat="39.53407720510575" lon="16.872406678530652"><ele>6.0</ele><time>2026-04-06T07:51:19Z</time></trkpt><trkpt lat="39.53402447439228" lon="16.87253134578225"><ele>6.0</ele><time>2026-04-06T07:51:20Z</time></trkpt><trkpt lat="39.53397707527213" lon="16.87264102674477"><ele>6.0</ele><time>2026-04-06T07:51:21Z</time></trkpt><trkpt lat="39.53392236059765" lon="16.872757602306717"><ele>6.0</ele><time>2026-04-06T07:51:22Z</time></trkpt><trkpt lat="39.53386336551535" lon="16.872893319844533"><ele>6.25</ele><time>2026-04-06T07:51:23Z</time></trkpt><trkpt lat="39.533802410856055" lon="16.873035138381876"><ele>6.5</ele><time>2026-04-06T07:51:24Z</time></trkpt><trkpt lat="39.533741220431956" lon="16.87317587664571"><ele>6.75</ele><time>2026-04-06T07:51:25Z</time></trkpt><trkpt lat="39.53367662069659" lon="16.873320714151202"><ele>7.0</ele><time>2026-04-06T07:51:26Z</time></trkpt><trkpt lat="39.533611010892464" lon="16.87347083111089"><ele>7.0</ele><time>2026-04-06T07:51:27Z</time></trkpt><trkpt lat="39.53354248563398" lon="16.8736300814215"><ele>7.0</ele><time>2026-04-06T07:51:28Z</time></trkpt><trkpt lat="39.5334753006279" lon="16.87378867953641"><ele>7.0</ele><time>2026-04-06T07:51:29Z</time></trkpt><trkpt lat="39.53340759625402" lon="16.873957916719384"><ele>7.0</ele><time>2026-04-06T07:51:30Z</time></trkpt><trkpt lat="39.53333605699899" lon="16.874132844136263"><ele>6.333333333333334</ele><time>2026-04-06T07:51:31Z</time></trkpt><trkpt lat="39.53326694862053" lon="16.874303698432755"><ele>5.666666666666667</ele><time>2026-04-06T07:51:32Z</time></trkpt><trkpt lat="39.533191035088066" lon="16.874473828238163"><ele>5.0</ele><time>2026-04-06T07:51:33Z</time></trkpt><trkpt lat="39.533114489388176" lon="16.87464881231488"><ele>5.0</ele><time>2026-04-06T07:51:34Z</time></trkpt><trkpt lat="39.5330362812347" lon="16.87482049767608"><ele>5.0</ele><time>2026-04-06T07:51:35Z</time></trkpt><trkpt lat="39.53296092323744" lon="16.874992825158376"><ele>5.0</ele><time>2026-04-06T07:51:36Z</time></trkpt><trkpt lat="39.53288639708134" lon="16.875172359505907"><ele>5.666666666666667</ele><time>2026-04-06T07:51:37Z</time></trkpt><trkpt lat="39.532810701408124" lon="16.87534998777762"><ele>6.333333333333334</ele><time>2026-04-06T07:51:38Z</time></trkpt><trkpt lat="39.53273403643151" lon="16.87553116753756"><ele>7.0</ele><time>2026-04-06T07:51:39Z</time></trkpt><trkpt lat="39.53265773487497" lon="16.875711325858042"><ele>7.0</ele><time>2026-04-06T07:51:40Z</time></trkpt><trkpt lat="39.53258283385798" lon="16.87589413392607"><ele>7.0</ele><time>2026-04-06T07:51:41Z</time></trkpt><trkpt lat="39.53250629493778" lon="16.876075127595133"><ele>7.0</ele><time>2026-04-06T07:51:42Z</time></trkpt><trkpt lat="39.532427553244304" lon="16.876255594190717"><ele>6.333333333333334</ele><time>2026-04-06T07:51:43Z</time></trkpt><trkpt lat="39.53234934853682" lon="16.876431859095288"><ele>5.666666666666667</ele><time>2026-04-06T07:51:44Z</time></trkpt><trkpt lat="39.532268591142476" lon="16.87660974613678"><ele>5.0</ele><time>2026-04-06T07:51:45Z</time></trkpt><trkpt lat="39.53218844023998" lon="16.876787049360416"><ele>4.5</ele><time>2026-04-06T07:51:46Z</time></trkpt><trkpt lat="39.532118461129066" lon="16.876952499557973"><ele>4.0</ele><time>2026-04-06T07:51:47Z</time></trkpt><trkpt lat="39.53205172502894" lon="16.877111119478506"><ele>3.5</ele><time>2026-04-06T07:51:48Z</time></trkpt><trkpt lat="39.53198061333953" lon="16.877268100984416"><ele>3.0</ele><time>2026-04-06T07:51:49Z</time></trkpt><trkpt lat="39.531908304939655" lon="16.877436365480705"><ele>4.0</ele><time>2026-04-06T07:51:50Z</time></trkpt><trkpt lat="39.5318308835452" lon="16.877614690693587"><ele>5.0</ele><time>2026-04-06T07:51:51Z</time></trkpt><trkpt lat="39.53175466877276" lon="16.87779486878033"><ele>6.0</ele><time>2026-04-06T07:51:52Z</time></trkpt><trkpt lat="39.531676254675794" lon="16.877979833435344"><ele>6.0</ele><time>2026-04-06T07:51:53Z</time></trkpt><trkpt lat="39.53159588606076" lon="16.878167336536773"><ele>6.0</ele><time>2026-04-06T07:51:54Z</time></trkpt><trkpt lat="39.53151444686144" lon="16.878355800230118"><ele>6.0</ele><time>2026-04-06T07:51:55Z</time></trkpt><trkpt lat="39.53143400381571" lon="16.878547586436444"><ele>6.333333333333334</ele><time>2026-04-06T07:51:56Z</time></trkpt><trkpt lat="39.53135105734508" lon="16.878737256074295"><ele>6.666666666666667</ele><time>2026-04-06T07:51:57Z</time></trkpt><trkpt lat="39.53126830342444" lon="16.878921286712476"><ele>7.0</ele><time>2026-04-06T07:51:58Z</time></trkpt><trkpt lat="39.53118685034424" lon="16.87910548982943"><ele>6.0</ele><time>2026-04-06T07:51:59Z</time></trkpt><trkpt lat="39.53110398990048" lon="16.879292253539486"><ele>5.0</ele><time>2026-04-06T07:52:00Z</time></trkpt><trkpt lat="39.5310230603508" lon="16.879480268121767"><ele>4.0</ele><time>2026-04-06T07:52:01Z</time></trkpt><trkpt lat="39.53093859846914" lon="16.87967437740631"><ele>4.0</ele><time>2026-04-06T07:52:02Z</time></trkpt><trkpt lat="39.5308569983649" lon="16.879868278802476"><ele>4.0</ele><time>2026-04-06T07:52:03Z</time></trkpt><trkpt lat="39.53077030006585" lon="16.880066167466808"><ele>4.0</ele><time>2026-04-06T07:52:04Z</time></trkpt><trkpt lat="39.53068625086596" lon="16.88026541372348"><ele>4.0</ele><time>2026-04-06T07:52:05Z</time></trkpt><trkpt lat="39.53059752939931" lon="16.880462614635437"><ele>4.0</ele><time>2026-04-06T07:52:06Z</time></trkpt><trkpt lat="39.53051472283683" lon="16.88066445567963"><ele>4.0</ele><time>2026-04-06T07:52:07Z</time></trkpt><trkpt lat="39.53042770377191" lon="16.880865775258794"><ele>5.333333333333333</ele><time>2026-04-06T07:52:08Z</time></trkpt><trkpt lat="39.53033720874415" lon="16.88106937030901"><ele>6.666666666666666</ele><time>2026-04-06T07:52:09Z</time></trkpt><trkpt lat="39.53024853684073" lon="16.88127384475515"><ele>8.0</ele><time>2026-04-06T07:52:10Z</time></trkpt><trkpt lat="39.53016071631458" lon="16.881479191260983"><ele>8.0</ele><time>2026-04-06T07:52:11Z</time></trkpt><trkpt lat="39.53007265938986" lon="16.881686823282188"><ele>8.0</ele><time>2026-04-06T07:52:12Z</time></trkpt><trkpt lat="39.52998068802558" lon="16.881894609954358"><ele>8.0</ele><time>2026-04-06T07:52:13Z</time></trkpt><trkpt lat="39.52989141789174" lon="16.882101286087448"><ele>7.0</ele><time>2026-04-06T07:52:14Z</time></trkpt><trkpt lat="39.5298014006254" lon="16.882310219663477"><ele>6.0</ele><time>2026-04-06T07:52:15Z</time></trkpt><trkpt lat="39.52971146115471" lon="16.88251997189608"><ele>5.0</ele><time>2026-04-06T07:52:16Z</time></trkpt><trkpt lat="39.52961861478097" lon="16.882727143483137"><ele>6.0</ele><time>2026-04-06T07:52:17Z</time></trkpt><trkpt lat="39.529529268375086" lon="16.88293437663682"><ele>7.0</ele><time>2026-04-06T07:52:18Z</time></trkpt><trkpt lat="39.52943932065716" lon="16.883142871404992"><ele>8.0</ele><time>2026-04-06T07:52:19Z</time></trkpt><trkpt lat="39.529346600960636" lon="16.88335564959621"><ele>7.666666666666666</ele><time>2026-04-06T07:52:20Z</time></trkpt><trkpt lat="39.529254838905544" lon="16.883566564178693"><ele>7.333333333333334</ele><time>2026-04-06T07:52:21Z</time></trkpt><trkpt lat="39.52916549485755" lon="16.883774742748887"><ele>7.0</ele><time>2026-04-06T07:52:22Z</time></trkpt><trkpt lat="39.52907463497212" lon="16.883985229315453"><ele>7.0</ele><time>2026-04-06T07:52:23Z</time></trkpt><trkpt lat="39.52898052419235" lon="16.88419317284314"><ele>7.0</ele><time>2026-04-06T07:52:24Z</time></trkpt><trkpt lat="39.528889054391335" lon="16.88440343588059"><ele>7.0</ele><time>2026-04-06T07:52:25Z</time></trkpt><trkpt lat="39.52879625767536" lon="16.884612644958015"><ele>7.333333333333334</ele><time>2026-04-06T07:52:26Z</time></trkpt><trkpt lat="39.528706798280865" lon="16.884825223266816"><ele>7.666666666666666</ele><time>2026-04-06T07:52:27Z</time></trkpt><trkpt lat="39.52861630892885" lon="16.88503393853221"><ele>8.0</ele><time>2026-04-06T07:52:28Z</time></trkpt><trkpt lat="39.52852374098521" lon="16.88524422418063"><ele>8.0</ele><time>2026-04-06T07:52:29Z</time></trkpt><trkpt lat="39.52843368161073" lon="16.88545963877811"><ele>8.0</ele><time>2026-04-06T07:52:30Z</time></trkpt><trkpt lat="39.528344957966404" lon="16.885671431102416"><ele>8.0</ele><time>2026-04-06T07:52:31Z</time></trkpt><trkpt lat="39.52825224519809" lon="16.88588605786162"><ele>7.666666666666666</ele><time>2026-04-06T07:52:32Z</time></trkpt><trkpt lat="39.52816305903463" lon="16.886092286427363"><ele>7.333333333333334</ele><time>2026-04-06T07:52:33Z</time></trkpt><trkpt lat="39.52808214775005" lon="16.886282144180655"><ele>7.0</ele><time>2026-04-06T07:52:34Z</time></trkpt><trkpt lat="39.52800569961318" lon="16.886460267697874"><ele>7.0</ele><time>2026-04-06T07:52:35Z</time></trkpt><trkpt lat="39.52793024176397" lon="16.88664649150792"><ele>7.0</ele><time>2026-04-06T07:52:36Z</time></trkpt><trkpt lat="39.527850491133705" lon="16.886826005961613"><ele>7.0</ele><time>2026-04-06T07:52:37Z</time></trkpt><trkpt lat="39.527766976792094" lon="16.88701021229297"><ele>7.666666666666667</ele><time>2026-04-06T07:52:38Z</time></trkpt><trkpt lat="39.52767634890574" lon="16.887196443826863"><ele>8.333333333333334</ele><time>2026-04-06T07:52:39Z</time></trkpt><trkpt lat="39.52757163272084" lon="16.887372443712934"><ele>9.0</ele><time>2026-04-06T07:52:40Z</time></trkpt><trkpt lat="39.527457261884" lon="16.887538402981342"><ele>8.0</ele><time>2026-04-06T07:52:41Z</time></trkpt><trkpt lat="39.527333093030315" lon="16.887691727985597"><ele>7.0</ele><time>2026-04-06T07:52:42Z</time></trkpt><trkpt lat="39.52720052253013" lon="16.887834773494475"><ele>6.0</ele><time>2026-04-06T07:52:43Z</time></trkpt><trkpt lat="39.52706810542068" lon="16.88798031431997"><ele>7.333333333333334</ele><time>2026-04-06T07:52:44Z</time></trkpt><trkpt lat="39.52695253088458" lon="16.88811992547233"><ele>8.666666666666668</ele><time>2026-04-06T07:52:45Z</time></trkpt><trkpt lat="39.526840021249456" lon="16.8882630027848"><ele>10.0</ele><time>2026-04-06T07:52:46Z</time></trkpt><trkpt lat="39.52671756875662" lon="16.8884225793977"><ele>9.666666666666668</ele><time>2026-04-06T07:52:47Z</time></trkpt><trkpt lat="39.52658127070363" lon="16.88858614184725"><ele>9.333333333333334</ele><time>2026-04-06T07:52:48Z</time></trkpt><trkpt lat="39.526442508811854" lon="16.88875340792518"><ele>9.0</ele><time>2026-04-06T07:52:49Z</time></trkpt><trkpt lat="39.52632147231059" lon="16.88891056769326"><ele>10.0</ele><time>2026-04-06T07:52:50Z</time></trkpt><trkpt lat="39.52621018256107" lon="16.889068203955926"><ele>11.0</ele><time>2026-04-06T07:52:51Z</time></trkpt><trkpt lat="39.526094777943186" lon="16.889238789815014"><ele>12.0</ele><time>2026-04-06T07:52:52Z</time></trkpt><trkpt lat="39.52598921728702" lon="16.88944243651909"><ele>12.0</ele><time>2026-04-06T07:52:53Z</time></trkpt><trkpt lat="39.5258966166765" lon="16.889672321915143"><ele>12.0</ele><time>2026-04-06T07:52:54Z</time></trkpt><trkpt lat="39.5258075562687" lon="16.889913681602515"><ele>12.0</ele><time>2026-04-06T07:52:55Z</time></trkpt><trkpt lat="39.525719344131524" lon="16.8901598403515"><ele>11.333333333333334</ele><time>2026-04-06T07:52:56Z</time></trkpt><trkpt lat="39.525633794022475" lon="16.890410039915604"><ele>10.666666666666668</ele><time>2026-04-06T07:52:57Z</time></trkpt><trkpt lat="39.52554593755039" lon="16.890661573974988"><ele>10.0</ele><time>2026-04-06T07:52:58Z</time></trkpt><trkpt lat="39.52545560350143" lon="16.890914988676318"><ele>12.333333333333334</ele><time>2026-04-06T07:52:59Z</time></trkpt><trkpt lat="39.52536879825552" lon="16.89115534877057"><ele>14.666666666666668</ele><time>2026-04-06T07:53:00Z</time></trkpt><trkpt lat="39.52528406206288" lon="16.891384208943965"><ele>17.0</ele><time>2026-04-06T07:53:01Z</time></trkpt><trkpt lat="39.525198001849084" lon="16.89161687431272"><ele>15.666666666666668</ele><time>2026-04-06T07:53:02Z</time></trkpt><trkpt lat="39.525114914990276" lon="16.891846311151962"><ele>14.333333333333332</ele><time>2026-04-06T07:53:03Z</time></trkpt><trkpt lat="39.52503376541562" lon="16.89207547598577"><ele>13.0</ele><time>2026-04-06T07:53:04Z</time></trkpt><trkpt lat="39.52495325405699" lon="16.892305845985142"><ele>13.0</ele><time>2026-04-06T07:53:05Z</time></trkpt><trkpt lat="39.524873510782754" lon="16.892532181917424"><ele>13.0</ele><time>2026-04-06T07:53:06Z</time></trkpt><trkpt lat="39.52479192349582" lon="16.8927571488045"><ele>13.0</ele><time>2026-04-06T07:53:07Z</time></trkpt><trkpt lat="39.52470961258921" lon="16.892978079239672"><ele>12.0</ele><time>2026-04-06T07:53:08Z</time></trkpt><trkpt lat="39.524627744022375" lon="16.89319893459302"><ele>11.0</ele><time>2026-04-06T07:53:09Z</time></trkpt><trkpt lat="39.524546598498986" lon="16.893418681317552"><ele>10.0</ele><time>2026-04-06T07:53:10Z</time></trkpt><trkpt lat="39.52446783587384" lon="16.893631378872765"><ele>12.0</ele><time>2026-04-06T07:53:11Z</time></trkpt><trkpt lat="39.52439498733695" lon="16.8938361857194"><ele>14.0</ele><time>2026-04-06T07:53:12Z</time></trkpt><trkpt lat="39.52432364934959" lon="16.89403136801721"><ele>16.0</ele><time>2026-04-06T07:53:13Z</time></trkpt><trkpt lat="39.52425410839125" lon="16.894233463507753"><ele>14.0</ele><time>2026-04-06T07:53:14Z</time></trkpt><trkpt lat="39.524187263224974" lon="16.894431920374487"><ele>12.0</ele><time>2026-04-06T07:53:15Z</time></trkpt><trkpt lat="39.52412722836361" lon="16.89461942578402"><ele>10.0</ele><time>2026-04-06T07:53:16Z</time></trkpt><trkpt lat="39.52406413906375" lon="16.89480318786525"><ele>10.0</ele><time>2026-04-06T07:53:17Z</time></trkpt><trkpt lat="39.523996448366795" lon="16.894987034671928"><ele>10.0</ele><time>2026-04-06T07:53:17.999Z</time></trkpt><trkpt lat="39.5239345735024" lon="16.8951649333718"><ele>10.0</ele><time>2026-04-06T07:53:18.999Z</time></trkpt><trkpt lat="39.523876032279524" lon="16.89532894154802"><ele>10.0</ele><time>2026-04-06T07:53:19.999Z</time></trkpt><trkpt lat="39.523821053387216" lon="16.895484290655602"><ele>10.2</ele><time>2026-04-06T07:53:20.999Z</time></trkpt><trkpt lat="39.52376492662397" lon="16.895633419796035"><ele>10.4</ele><time>2026-04-06T07:53:21.999Z</time></trkpt><trkpt lat="39.52371504964579" lon="16.895757622458948"><ele>10.600000000000001</ele><time>2026-04-06T07:53:22.999Z</time></trkpt><trkpt lat="39.52366089051545" lon="16.895860825974456"><ele>10.8</ele><time>2026-04-06T07:53:23.999Z</time></trkpt><trkpt lat="39.523591524025804" lon="16.8959455428664"><ele>11.0</ele><time>2026-04-06T07:53:24.999Z</time></trkpt><trkpt lat="39.52351335530445" lon="16.896002322390316"><ele>11.0</ele><time>2026-04-06T07:53:26Z</time></trkpt><trkpt lat="39.52344351408256" lon="16.89601278575227"><ele>11.0</ele><time>2026-04-06T07:53:27Z</time></trkpt><trkpt lat="39.523356175257135" lon="16.895999517087105"><ele>11.0</ele><time>2026-04-06T07:53:28Z</time></trkpt><trkpt lat="39.52326713527312" lon="16.895960941517867"><ele>11.0</ele><time>2026-04-06T07:53:29Z</time></trkpt><trkpt lat="39.52318392433583" lon="16.895890019185767"><ele>11.0</ele><time>2026-04-06T07:53:30Z</time></trkpt><trkpt lat="39.52311969453422" lon="16.895805669000033"><ele>11.0</ele><time>2026-04-06T07:53:31Z</time></trkpt><trkpt lat="39.523079164848454" lon="16.895694789266145"><ele>11.75</ele><time>2026-04-06T07:53:32Z</time></trkpt><trkpt lat="39.52298692641769" lon="16.895611627175377"><ele>12.5</ele><time>2026-04-06T07:53:33Z</time></trkpt><trkpt lat="39.52288190216545" lon="16.89548524933386"><ele>13.25</ele><time>2026-04-06T07:53:34Z</time></trkpt><trkpt lat="39.522760058070034" lon="16.895355062721393"><ele>14.0</ele><time>2026-04-06T07:53:35Z</time></trkpt><trkpt lat="39.52263215486103" lon="16.895223368460037"><ele>14.0</ele><time>2026-04-06T07:53:36Z</time></trkpt><trkpt lat="39.522510012971225" lon="16.895092327891874"><ele>14.0</ele><time>2026-04-06T07:53:37Z</time></trkpt><trkpt lat="39.522389275750164" lon="16.89495498399447"><ele>14.0</ele><time>2026-04-06T07:53:38Z</time></trkpt><trkpt lat="39.52227316731547" lon="16.89481073114965"><ele>13.666666666666668</ele><time>2026-04-06T07:53:39Z</time></trkpt><trkpt lat="39.52216054999748" lon="16.894659510266017"><ele>13.333333333333332</ele><time>2026-04-06T07:53:40Z</time></trkpt><trkpt lat="39.52204735535883" lon="16.894502634242905"><ele>13.0</ele><time>2026-04-06T07:53:41Z</time></trkpt><trkpt lat="39.52193013830622" lon="16.894349314641495"><ele>14.666666666666666</ele><time>2026-04-06T07:53:42Z</time></trkpt><trkpt lat="39.52181156327782" lon="16.89419575314178"><ele>16.333333333333332</ele><time>2026-04-06T07:53:43Z</time></trkpt><trkpt lat="39.521698286979664" lon="16.89403466541556"><ele>18.0</ele><time>2026-04-06T07:53:44Z</time></trkpt><trkpt lat="39.52157547624361" lon="16.89388286182333"><ele>18.0</ele><time>2026-04-06T07:53:45Z</time></trkpt><trkpt lat="39.5214554281307" lon="16.893731106118178"><ele>18.0</ele><time>2026-04-06T07:53:46Z</time></trkpt><trkpt lat="39.521340304728575" lon="16.893580800397647"><ele>18.0</ele><time>2026-04-06T07:53:47Z</time></trkpt><trkpt lat="39.52122925566551" lon="16.893430614257998"><ele>19.0</ele><time>2026-04-06T07:53:48Z</time></trkpt><trkpt lat="39.521114777678775" lon="16.893276335038347"><ele>20.0</ele><time>2026-04-06T07:53:49Z</time></trkpt><trkpt lat="39.52100273370186" lon="16.893128505404103"><ele>21.0</ele><time>2026-04-06T07:53:50Z</time></trkpt><trkpt lat="39.520891408042765" lon="16.89298103074083"><ele>21.0</ele><time>2026-04-06T07:53:51Z</time></trkpt><trkpt lat="39.52078086257526" lon="16.89283475834313"><ele>21.0</ele><time>2026-04-06T07:53:52Z</time></trkpt><trkpt lat="39.5206720449739" lon="16.89269047355886"><ele>21.0</ele><time>2026-04-06T07:53:53Z</time></trkpt><trkpt lat="39.520566593097925" lon="16.89255179358903"><ele>20.5</ele><time>2026-04-06T07:53:54Z</time></trkpt><trkpt lat="39.520461603457974" lon="16.89240958300148"><ele>20.0</ele><time>2026-04-06T07:53:55Z</time></trkpt><trkpt lat="39.52035726539074" lon="16.89226999520595"><ele>19.5</ele><time>2026-04-06T07:53:56Z</time></trkpt><trkpt lat="39.520248599802045" lon="16.892144244637716"><ele>19.0</ele><time>2026-04-06T07:53:57Z</time></trkpt><trkpt lat="39.52013353502777" lon="16.89201828179941"><ele>19.0</ele><time>2026-04-06T07:53:58Z</time></trkpt><trkpt lat="39.52000801621363" lon="16.89189890278802"><ele>19.0</ele><time>2026-04-06T07:53:59Z</time></trkpt><trkpt lat="39.51987548081488" lon="16.891788528558763"><ele>19.0</ele><time>2026-04-06T07:54:00Z</time></trkpt><trkpt lat="39.51973483187909" lon="16.891688526841175"><ele>20.333333333333332</ele><time>2026-04-06T07:54:01Z</time></trkpt><trkpt lat="39.5195902123539" lon="16.891587845027644"><ele>21.666666666666668</ele><time>2026-04-06T07:54:02Z</time></trkpt><trkpt lat="39.51944193543824" lon="16.891500341371465"><ele>23.0</ele><time>2026-04-06T07:54:03Z</time></trkpt><trkpt lat="39.519296641182834" lon="16.891416847820672"><ele>23.0</ele><time>2026-04-06T07:54:04Z</time></trkpt><trkpt lat="39.51916644821224" lon="16.891340894275707"><ele>23.0</ele><time>2026-04-06T07:54:05Z</time></trkpt><trkpt lat="39.51904680587869" lon="16.891262922165463"><ele>23.0</ele><time>2026-04-06T07:54:06Z</time></trkpt><trkpt lat="39.51893709230869" lon="16.891195192722332"><ele>23.0</ele><time>2026-04-06T07:54:07Z</time></trkpt><trkpt lat="39.51883170205535" lon="16.891129673838844"><ele>23.0</ele><time>2026-04-06T07:54:08Z</time></trkpt><trkpt lat="39.51873833131957" lon="16.891042583765614"><ele>23.0</ele><time>2026-04-06T07:54:09Z</time></trkpt><trkpt lat="39.51866330430684" lon="16.89095660653803"><ele>23.0</ele><time>2026-04-06T07:54:10Z</time></trkpt><trkpt lat="39.518601801050636" lon="16.89085749031199"><ele>23.0</ele><time>2026-04-06T07:54:11Z</time></trkpt><trkpt lat="39.51855686569694" lon="16.890751391461684"><ele>23.0</ele><time>2026-04-06T07:54:12Z</time></trkpt><trkpt lat="39.518526713507995" lon="16.8906465742325"><ele>23.666666666666668</ele><time>2026-04-06T07:54:13Z</time></trkpt><trkpt lat="39.51842616768989" lon="16.890376603903377"><ele>24.333333333333336</ele><time>2026-04-06T07:54:14Z</time></trkpt><trkpt lat="39.51838436194147" lon="16.890222810406215"><ele>25.0</ele><time>2026-04-06T07:54:15Z</time></trkpt><trkpt lat="39.51831573228936" lon="16.89006409141653"><ele>25.0</ele><time>2026-04-06T07:54:16Z</time></trkpt><trkpt lat="39.5182269617449" lon="16.889918832207695"><ele>25.0</ele><time>2026-04-06T07:54:17Z</time></trkpt><trkpt lat="39.51811412752696" lon="16.889797894277837"><ele>25.0</ele><time>2026-04-06T07:54:18Z</time></trkpt><trkpt lat="39.51799810356408" lon="16.889716599319318"><ele>25.0</ele><time>2026-04-06T07:54:19Z</time></trkpt><trkpt lat="39.517866786787565" lon="16.889672143192627"><ele>25.0</ele><time>2026-04-06T07:54:20Z</time></trkpt><trkpt lat="39.5177168908874" lon="16.889640799213627"><ele>25.0</ele><time>2026-04-06T07:54:21Z</time></trkpt><trkpt lat="39.51758482802421" lon="16.889603985717102"><ele>25.0</ele><time>2026-04-06T07:54:22Z</time></trkpt><trkpt lat="39.517472645482954" lon="16.88953695161435"><ele>25.0</ele><time>2026-04-06T07:54:23Z</time></trkpt><trkpt lat="39.5173699793907" lon="16.889439305993786"><ele>25.0</ele><time>2026-04-06T07:54:24Z</time></trkpt><trkpt lat="39.5172775493819" lon="16.889313698996006"><ele>25.0</ele><time>2026-04-06T07:54:25Z</time></trkpt><trkpt lat="39.517204802068804" lon="16.889169282116885"><ele>25.0</ele><time>2026-04-06T07:54:26Z</time></trkpt><trkpt lat="39.51713871450847" lon="16.889029534304207"><ele>25.0</ele><time>2026-04-06T07:54:27Z</time></trkpt><trkpt lat="39.5170874930765" lon="16.88887095801029"><ele>25.5</ele><time>2026-04-06T07:54:28Z</time></trkpt><trkpt lat="39.51703961729371" lon="16.88869861821011"><ele>26.0</ele><time>2026-04-06T07:54:29Z</time></trkpt><trkpt lat="39.51697968115444" lon="16.888526549697264"><ele>26.5</ele><time>2026-04-06T07:54:30Z</time></trkpt><trkpt lat="39.51695474073431" lon="16.888345279028268"><ele>27.0</ele><time>2026-04-06T07:54:31Z</time></trkpt><trkpt lat="39.5169025560744" lon="16.88818240680418"><ele>27.0</ele><time>2026-04-06T07:54:32Z</time></trkpt><trkpt lat="39.51687480563771" lon="16.888017424637578"><ele>27.0</ele><time>2026-04-06T07:54:33Z</time></trkpt><trkpt lat="39.51684905690904" lon="16.88786850047802"><ele>27.0</ele><time>2026-04-06T07:54:34Z</time></trkpt><trkpt lat="39.51680506727706" lon="16.88771454266256"><ele>27.0</ele><time>2026-04-06T07:54:35Z</time></trkpt><trkpt lat="39.516739455190134" lon="16.88757467288942"><ele>28.0</ele><time>2026-04-06T07:54:36Z</time></trkpt><trkpt lat="39.51665285540884" lon="16.887445260595584"><ele>29.0</ele><time>2026-04-06T07:54:37Z</time></trkpt><trkpt lat="39.516548083888374" lon="16.887343610833426"><ele>30.0</ele><time>2026-04-06T07:54:38Z</time></trkpt><trkpt lat="39.51642481218181" lon="16.887262747933068"><ele>31.0</ele><time>2026-04-06T07:54:39Z</time></trkpt><trkpt lat="39.51628170870579" lon="16.887196881033727"><ele>29.0</ele><time>2026-04-06T07:54:40Z</time></trkpt><trkpt lat="39.51614167979152" lon="16.88711478848463"><ele>27.0</ele><time>2026-04-06T07:54:41Z</time></trkpt><trkpt lat="39.5160084178001" lon="16.887022158112348"><ele>25.0</ele><time>2026-04-06T07:54:42Z</time></trkpt><trkpt lat="39.515886880169056" lon="16.886916571725198"><ele>25.0</ele><time>2026-04-06T07:54:43Z</time></trkpt><trkpt lat="39.515779473595224" lon="16.886789765096758"><ele>25.0</ele><time>2026-04-06T07:54:44Z</time></trkpt><trkpt lat="39.51568570998377" lon="16.886631888915037"><ele>25.0</ele><time>2026-04-06T07:54:45Z</time></trkpt><trkpt lat="39.51560668093403" lon="16.886461581315746"><ele>25.333333333333336</ele><time>2026-04-06T07:54:46Z</time></trkpt><trkpt lat="39.515540921047915" lon="16.886275695476318"><ele>25.666666666666664</ele><time>2026-04-06T07:54:47Z</time></trkpt><trkpt lat="39.515470658810855" lon="16.886090346869366"><ele>26.0</ele><time>2026-04-06T07:54:48Z</time></trkpt><trkpt lat="39.51539194310885" lon="16.885909549112277"><ele>26.666666666666664</ele><time>2026-04-06T07:54:49Z</time></trkpt><trkpt lat="39.51531030645541" lon="16.885725165614883"><ele>27.333333333333336</ele><time>2026-04-06T07:54:50Z</time></trkpt><trkpt lat="39.51522805643675" lon="16.885545795557125"><ele>28.0</ele><time>2026-04-06T07:54:51Z</time></trkpt><trkpt lat="39.51514850393999" lon="16.885363744093517"><ele>28.0</ele><time>2026-04-06T07:54:52Z</time></trkpt><trkpt lat="39.51507040825641" lon="16.885180267073128"><ele>28.0</ele><time>2026-04-06T07:54:53Z</time></trkpt><trkpt lat="39.514988271335184" lon="16.884987876293014"><ele>28.0</ele><time>2026-04-06T07:54:54Z</time></trkpt><trkpt lat="39.51490470443403" lon="16.884787343067"><ele>28.333333333333336</ele><time>2026-04-06T07:54:55Z</time></trkpt><trkpt lat="39.51481896129645" lon="16.884588754634677"><ele>28.666666666666664</ele><time>2026-04-06T07:54:56Z</time></trkpt><trkpt lat="39.51473849056069" lon="16.884391087108593"><ele>29.0</ele><time>2026-04-06T07:54:57Z</time></trkpt><trkpt lat="39.51465585126334" lon="16.88419192987537"><ele>29.333333333333332</ele><time>2026-04-06T07:54:58Z</time></trkpt><trkpt lat="39.51457166151381" lon="16.883996368412376"><ele>29.666666666666664</ele><time>2026-04-06T07:54:59Z</time></trkpt><trkpt lat="39.514492675605965" lon="16.883810817528076"><ele>30.0</ele><time>2026-04-06T07:55:00Z</time></trkpt><trkpt lat="39.51441713613415" lon="16.883638511624618"><ele>30.0</ele><time>2026-04-06T07:55:01Z</time></trkpt><trkpt lat="39.51432867535972" lon="16.883473224339756"><ele>30.0</ele><time>2026-04-06T07:55:02Z</time></trkpt><trkpt lat="39.514232117056956" lon="16.8833174744247"><ele>30.0</ele><time>2026-04-06T07:55:03Z</time></trkpt><trkpt lat="39.514137432245114" lon="16.883178323899642"><ele>31.5</ele><time>2026-04-06T07:55:04Z</time></trkpt><trkpt lat="39.5140517944187" lon="16.88302956111515"><ele>33.0</ele><time>2026-04-06T07:55:05Z</time></trkpt><trkpt lat="39.51398270805282" lon="16.88285948603531"><ele>34.5</ele><time>2026-04-06T07:55:06Z</time></trkpt><trkpt lat="39.513932622178" lon="16.882689967779793"><ele>36.0</ele><time>2026-04-06T07:55:07Z</time></trkpt><trkpt lat="39.51390766044008" lon="16.882507113723822"><ele>38.0</ele><time>2026-04-06T07:55:08Z</time></trkpt><trkpt lat="39.513928724068656" lon="16.882338314020412"><ele>40.0</ele><time>2026-04-06T07:55:09Z</time></trkpt><trkpt lat="39.51394972585633" lon="16.88216440792202"><ele>42.0</ele><time>2026-04-06T07:55:10Z</time></trkpt><trkpt lat="39.51396836691021" lon="16.88197687742419"><ele>44.0</ele><time>2026-04-06T07:55:11Z</time></trkpt><trkpt lat="39.514001576606766" lon="16.881786603963185"><ele>42.33333333333333</ele><time>2026-04-06T07:55:12Z</time></trkpt><trkpt lat="39.51402725059861" lon="16.88159069163709"><ele>40.666666666666664</ele><time>2026-04-06T07:55:13Z</time></trkpt><trkpt lat="39.514046606294855" lon="16.88139432826093"><ele>39.0</ele><time>2026-04-06T07:55:14Z</time></trkpt><trkpt lat="39.514062527251625" lon="16.8812016911922"><ele>39.0</ele><time>2026-04-06T07:55:15Z</time></trkpt><trkpt lat="39.514076235235194" lon="16.88100792623207"><ele>39.0</ele><time>2026-04-06T07:55:16Z</time></trkpt><trkpt lat="39.51407788832824" lon="16.88081058532191"><ele>39.0</ele><time>2026-04-06T07:55:17Z</time></trkpt><trkpt lat="39.51406694448843" lon="16.880613161086746"><ele>38.75</ele><time>2026-04-06T07:55:18Z</time></trkpt><trkpt lat="39.51404674250435" lon="16.880423278238833"><ele>38.5</ele><time>2026-04-06T07:55:19Z</time></trkpt><trkpt lat="39.51402006245464" lon="16.88023739021295"><ele>38.25</ele><time>2026-04-06T07:55:19.999Z</time></trkpt><trkpt lat="39.513990985435925" lon="16.880049235969924"><ele>38.0</ele><time>2026-04-06T07:55:20.999Z</time></trkpt><trkpt lat="39.513957630283706" lon="16.879868074753993"><ele>37.5</ele><time>2026-04-06T07:55:21.999Z</time></trkpt><trkpt lat="39.513903108506625" lon="16.879705748309235"><ele>37.0</ele><time>2026-04-06T07:55:22.999Z</time></trkpt><trkpt lat="39.513826677426515" lon="16.879567517478574"><ele>36.5</ele><time>2026-04-06T07:55:23.999Z</time></trkpt><trkpt lat="39.51372093320245" lon="16.879455525797866"><ele>36.0</ele><time>2026-04-06T07:55:24.999Z</time></trkpt><trkpt lat="39.51359132016487" lon="16.87937018553494"><ele>36.0</ele><time>2026-04-06T07:55:25.999Z</time></trkpt><trkpt lat="39.51345176158065" lon="16.87930029794146"><ele>36.0</ele><time>2026-04-06T07:55:26.999Z</time></trkpt><trkpt lat="39.513318465889746" lon="16.879212846754026"><ele>36.0</ele><time>2026-04-06T07:55:27.999Z</time></trkpt><trkpt lat="39.513191760821684" lon="16.879115956393687"><ele>36.0</ele><time>2026-04-06T07:55:28.999Z</time></trkpt><trkpt lat="39.51306842506649" lon="16.879013484789052"><ele>36.75</ele><time>2026-04-06T07:55:29.999Z</time></trkpt><trkpt lat="39.51294976022171" lon="16.878909996016226"><ele>37.5</ele><time>2026-04-06T07:55:30.999Z</time></trkpt><trkpt lat="39.51284187661893" lon="16.87880225341247"><ele>38.25</ele><time>2026-04-06T07:55:32Z</time></trkpt><trkpt lat="39.51274697804264" lon="16.878676668126914"><ele>39.0</ele><time>2026-04-06T07:55:33Z</time></trkpt><trkpt lat="39.51267264721569" lon="16.87853354467142"><ele>41.0</ele><time>2026-04-06T07:55:34Z</time></trkpt><trkpt lat="39.51262497104691" lon="16.87838250277986"><ele>43.0</ele><time>2026-04-06T07:55:35Z</time></trkpt><trkpt lat="39.512599837975635" lon="16.878242497770966"><ele>45.0</ele><time>2026-04-06T07:55:36Z</time></trkpt><trkpt lat="39.51257329215333" lon="16.878124071703915"><ele>47.0</ele><time>2026-04-06T07:55:37Z</time></trkpt><trkpt lat="39.512514585024576" lon="16.878017238533197"><ele>49.0</ele><time>2026-04-06T07:55:38Z</time></trkpt><trkpt lat="39.5124265863824" lon="16.87791803900391"><ele>49.0</ele><time>2026-04-06T07:55:39Z</time></trkpt><trkpt lat="39.51233419528188" lon="16.877826172885587"><ele>49.0</ele><time>2026-04-06T07:55:40Z</time></trkpt><trkpt lat="39.512244935359085" lon="16.87776899003208"><ele>49.0</ele><time>2026-04-06T07:55:41Z</time></trkpt><trkpt lat="39.512141632082496" lon="16.877751372848532"><ele>49.0</ele><time>2026-04-06T07:55:42Z</time></trkpt><trkpt lat="39.51202832104867" lon="16.877750956833804"><ele>49.0</ele><time>2026-04-06T07:55:43Z</time></trkpt><trkpt lat="39.51192797408044" lon="16.877752749717622"><ele>50.14285714285714</ele><time>2026-04-06T07:55:44Z</time></trkpt><trkpt lat="39.51185218963983" lon="16.877740308360966"><ele>51.285714285714285</ele><time>2026-04-06T07:55:45Z</time></trkpt><trkpt lat="39.511793364028655" lon="16.877704514880765"><ele>52.42857142857143</ele><time>2026-04-06T07:55:46Z</time></trkpt><trkpt lat="39.511760205363416" lon="16.87763220295836"><ele>53.57142857142857</ele><time>2026-04-06T07:55:47Z</time></trkpt><trkpt lat="39.51175960876631" lon="16.87754979570892"><ele>54.71428571428571</ele><time>2026-04-06T07:55:48Z</time></trkpt><trkpt lat="39.51180289960859" lon="16.877484911537472"><ele>55.857142857142854</ele><time>2026-04-06T07:55:49Z</time></trkpt><trkpt lat="39.511863747053155" lon="16.87745837945337"><ele>57.0</ele><time>2026-04-06T07:55:50Z</time></trkpt><trkpt lat="39.511944808744964" lon="16.87750158469998"><ele>57.0</ele><time>2026-04-06T07:55:51Z</time></trkpt><trkpt lat="39.512042200016516" lon="16.877533217135458"><ele>57.0</ele><time>2026-04-06T07:55:52Z</time></trkpt><trkpt lat="39.51215815114926" lon="16.877555466203976"><ele>57.0</ele><time>2026-04-06T07:55:53Z</time></trkpt><trkpt lat="39.5122768890639" lon="16.877575537035106"><ele>57.0</ele><time>2026-04-06T07:55:54Z</time></trkpt><trkpt lat="39.512390189891" lon="16.877563738022783"><ele>58.6</ele><time>2026-04-06T07:55:55Z</time></trkpt><trkpt lat="39.51250029752678" lon="16.877514334516842"><ele>60.2</ele><time>2026-04-06T07:55:56Z</time></trkpt><trkpt lat="39.51260217466369" lon="16.877437234303628"><ele>61.8</ele><time>2026-04-06T07:55:57Z</time></trkpt><trkpt lat="39.51269576990048" lon="16.877366453975945"><ele>63.4</ele><time>2026-04-06T07:55:58Z</time></trkpt><trkpt lat="39.51276268818673" lon="16.87730064799343"><ele>65.0</ele><time>2026-04-06T07:55:59Z</time></trkpt><trkpt lat="39.512810101118774" lon="16.87723119214002"><ele>65.0</ele><time>2026-04-06T07:56:00Z</time></trkpt><trkpt lat="39.51283744421217" lon="16.87713343744565"><ele>65.0</ele><time>2026-04-06T07:56:01Z</time></trkpt><trkpt lat="39.512826731979246" lon="16.877000679592417"><ele>65.0</ele><time>2026-04-06T07:56:02Z</time></trkpt><trkpt lat="39.512795526448286" lon="16.87686116793018"><ele>65.0</ele><time>2026-04-06T07:56:03Z</time></trkpt><trkpt lat="39.512765406986475" lon="16.876711605570605"><ele>65.0</ele><time>2026-04-06T07:56:04Z</time></trkpt><trkpt lat="39.51274177752195" lon="16.876571110237027"><ele>67.75</ele><time>2026-04-06T07:56:05Z</time></trkpt><trkpt lat="39.51272229977423" lon="16.87643738513145"><ele>70.5</ele><time>2026-04-06T07:56:06Z</time></trkpt><trkpt lat="39.512688978889216" lon="16.87630064377619"><ele>73.25</ele><time>2026-04-06T07:56:07Z</time></trkpt><trkpt lat="39.51263370455658" lon="16.876152910257154"><ele>76.0</ele><time>2026-04-06T07:56:08Z</time></trkpt><trkpt lat="39.51256857852037" lon="16.875991346694438"><ele>73.25</ele><time>2026-04-06T07:56:09Z</time></trkpt><trkpt lat="39.51249736981944" lon="16.875843265441507"><ele>70.5</ele><time>2026-04-06T07:56:10Z</time></trkpt><trkpt lat="39.51241529126526" lon="16.87571627293105"><ele>67.75</ele><time>2026-04-06T07:56:11Z</time></trkpt><trkpt lat="39.51232961423366" lon="16.875604833733238"><ele>65.0</ele><time>2026-04-06T07:56:12Z</time></trkpt><trkpt lat="39.512238789485885" lon="16.875511236017317"><ele>65.0</ele><time>2026-04-06T07:56:13Z</time></trkpt><trkpt lat="39.51215252036916" lon="16.875413520067234"><ele>65.0</ele><time>2026-04-06T07:56:14Z</time></trkpt><trkpt lat="39.51207956180435" lon="16.875322750461724"><ele>65.0</ele><time>2026-04-06T07:56:15Z</time></trkpt><trkpt lat="39.51200150932273" lon="16.875258742420616"><ele>65.0</ele><time>2026-04-06T07:56:16Z</time></trkpt><trkpt lat="39.51191624341228" lon="16.87521711152053"><ele>65.0</ele><time>2026-04-06T07:56:17Z</time></trkpt><trkpt lat="39.51182440927735" lon="16.87518154625924"><ele>64.0</ele><time>2026-04-06T07:56:18Z</time></trkpt><trkpt lat="39.51174549130507" lon="16.87512658231416"><ele>63.0</ele><time>2026-04-06T07:56:19Z</time></trkpt><trkpt lat="39.51164179455955" lon="16.875072434214847"><ele>62.0</ele><time>2026-04-06T07:56:21Z</time></trkpt><trkpt lat="39.511634572949134" lon="16.87491970570135"><ele>61.0</ele><time>2026-04-06T07:56:23Z</time></trkpt><trkpt lat="39.51173204963524" lon="16.87484061026237"><ele>60.0</ele><time>2026-04-06T07:56:25Z</time></trkpt><trkpt lat="39.5118100575726" lon="16.87484731564807"><ele>60.0</ele><time>2026-04-06T07:56:26Z</time></trkpt><trkpt lat="39.511906955596366" lon="16.874890497635416"><ele>60.0</ele><time>2026-04-06T07:56:27Z</time></trkpt><trkpt lat="39.51201159366309" lon="16.87493980848314"><ele>60.0</ele><time>2026-04-06T07:56:28Z</time></trkpt><trkpt lat="39.51211037051667" lon="16.874977299802232"><ele>60.0</ele><time>2026-04-06T07:56:29Z</time></trkpt><trkpt lat="39.51220226596091" lon="16.875017101621"><ele>60.0</ele><time>2026-04-06T07:56:30Z</time></trkpt><trkpt lat="39.51229455800861" lon="16.87505396024706"><ele>58.4</ele><time>2026-04-06T07:56:31Z</time></trkpt><trkpt lat="39.512384795474865" lon="16.875065181475883"><ele>56.8</ele><time>2026-04-06T07:56:32Z</time></trkpt><trkpt lat="39.51246922669153" lon="16.875044182588965"><ele>55.2</ele><time>2026-04-06T07:56:33Z</time></trkpt><trkpt lat="39.512545567708536" lon="16.874972016156217"><ele>53.6</ele><time>2026-04-06T07:56:34Z</time></trkpt><trkpt lat="39.51261275407929" lon="16.874859428349986"><ele>52.0</ele><time>2026-04-06T07:56:35Z</time></trkpt><trkpt lat="39.51265287793547" lon="16.87470325436388"><ele>52.0</ele><time>2026-04-06T07:56:36Z</time></trkpt><trkpt lat="39.512682978982184" lon="16.87453773115061"><ele>52.0</ele><time>2026-04-06T07:56:37Z</time></trkpt><trkpt lat="39.51271027320224" lon="16.874373806931935"><ele>52.0</ele><time>2026-04-06T07:56:38Z</time></trkpt><trkpt lat="39.51274711524024" lon="16.87422900861051"><ele>52.0</ele><time>2026-04-06T07:56:39Z</time></trkpt><trkpt lat="39.51278131045274" lon="16.87410529964783"><ele>51.2</ele><time>2026-04-06T07:56:40Z</time></trkpt><trkpt lat="39.51279417120113" lon="16.873988952738227"><ele>50.400000000000006</ele><time>2026-04-06T07:56:41Z</time></trkpt><trkpt lat="39.51277699324922" lon="16.873873695623434"><ele>49.599999999999994</ele><time>2026-04-06T07:56:42Z</time></trkpt><trkpt lat="39.51273382410673" lon="16.873762782008537"><ele>48.8</ele><time>2026-04-06T07:56:43Z</time></trkpt><trkpt lat="39.51265795916005" lon="16.873662596316677"><ele>48.0</ele><time>2026-04-06T07:56:44Z</time></trkpt><trkpt lat="39.512555623061" lon="16.873588991491665"><ele>48.0</ele><time>2026-04-06T07:56:45Z</time></trkpt><trkpt lat="39.51243316312372" lon="16.873541470571038"><ele>48.0</ele><time>2026-04-06T07:56:46Z</time></trkpt><trkpt lat="39.512317021447245" lon="16.873500821162526"><ele>48.0</ele><time>2026-04-06T07:56:47Z</time></trkpt><trkpt lat="39.512196517191164" lon="16.873447455763028"><ele>48.0</ele><time>2026-04-06T07:56:48Z</time></trkpt><trkpt lat="39.51207600061699" lon="16.873389270454673"><ele>47.75</ele><time>2026-04-06T07:56:49Z</time></trkpt><trkpt lat="39.51196030034749" lon="16.873329972401816"><ele>47.5</ele><time>2026-04-06T07:56:50Z</time></trkpt><trkpt lat="39.511830629124454" lon="16.873264528032298"><ele>47.25</ele><time>2026-04-06T07:56:51Z</time></trkpt><trkpt lat="39.511698272621906" lon="16.873196430008225"><ele>47.0</ele><time>2026-04-06T07:56:52Z</time></trkpt><trkpt lat="39.511570617827715" lon="16.87312623173187"><ele>47.0</ele><time>2026-04-06T07:56:53Z</time></trkpt><trkpt lat="39.511449795696" lon="16.87305744543383"><ele>47.0</ele><time>2026-04-06T07:56:54Z</time></trkpt><trkpt lat="39.511335382124436" lon="16.872972074019334"><ele>47.0</ele><time>2026-04-06T07:56:55Z</time></trkpt><trkpt lat="39.51122284198791" lon="16.872865436160428"><ele>47.0</ele><time>2026-04-06T07:56:56Z</time></trkpt><trkpt lat="39.5111211011642" lon="16.872741789932242"><ele>46.75</ele><time>2026-04-06T07:56:57Z</time></trkpt><trkpt lat="39.51103687151257" lon="16.872594628152477"><ele>46.5</ele><time>2026-04-06T07:56:58Z</time></trkpt><trkpt lat="39.510953723375366" lon="16.872440575160443"><ele>46.25</ele><time>2026-04-06T07:56:59Z</time></trkpt><trkpt lat="39.51087036183744" lon="16.872288061371087"><ele>46.0</ele><time>2026-04-06T07:57:00Z</time></trkpt><trkpt lat="39.510780491507376" lon="16.872125551442966"><ele>46.0</ele><time>2026-04-06T07:57:01Z</time></trkpt><trkpt lat="39.51068478626635" lon="16.871955192739588"><ele>46.0</ele><time>2026-04-06T07:57:02Z</time></trkpt><trkpt lat="39.51058915068077" lon="16.871783341394217"><ele>46.0</ele><time>2026-04-06T07:57:03Z</time></trkpt><trkpt lat="39.51049058379652" lon="16.871609482389836"><ele>44.66666666666667</ele><time>2026-04-06T07:57:04Z</time></trkpt><trkpt lat="39.51039332380288" lon="16.871432178856004"><ele>43.333333333333336</ele><time>2026-04-06T07:57:05Z</time></trkpt><trkpt lat="39.51029839097526" lon="16.871252624889834"><ele>42.0</ele><time>2026-04-06T07:57:06Z</time></trkpt><trkpt lat="39.510207024714724" lon="16.871074342978133"><ele>44.66666666666667</ele><time>2026-04-06T07:57:07Z</time></trkpt><trkpt lat="39.510116430470426" lon="16.870903849051665"><ele>47.333333333333336</ele><time>2026-04-06T07:57:08Z</time></trkpt><trkpt lat="39.51001856917311" lon="16.870738456013573"><ele>50.0</ele><time>2026-04-06T07:57:09Z</time></trkpt><trkpt lat="39.50992783686419" lon="16.8705597589789"><ele>50.0</ele><time>2026-04-06T07:57:10Z</time></trkpt><trkpt lat="39.50983674946013" lon="16.870386552500456"><ele>50.0</ele><time>2026-04-06T07:57:11Z</time></trkpt><trkpt lat="39.50973983031902" lon="16.870213224772236"><ele>50.0</ele><time>2026-04-06T07:57:12Z</time></trkpt><trkpt lat="39.509640096631905" lon="16.87003336294335"><ele>48.333333333333336</ele><time>2026-04-06T07:57:13Z</time></trkpt><trkpt lat="39.509545236258035" lon="16.86984877590859"><ele>46.66666666666667</ele><time>2026-04-06T07:57:14Z</time></trkpt><trkpt lat="39.509455039558695" lon="16.869671843878795"><ele>45.0</ele><time>2026-04-06T07:57:15Z</time></trkpt><trkpt lat="39.50936550835412" lon="16.869503504291583"><ele>45.0</ele><time>2026-04-06T07:57:16Z</time></trkpt><trkpt lat="39.50927655949184" lon="16.86933786693079"><ele>45.0</ele><time>2026-04-06T07:57:17Z</time></trkpt><trkpt lat="39.509187043027936" lon="16.869176483086218"><ele>45.0</ele><time>2026-04-06T07:57:18Z</time></trkpt><trkpt lat="39.50910062177293" lon="16.869016025611284"><ele>45.666666666666664</ele><time>2026-04-06T07:57:19Z</time></trkpt><trkpt lat="39.509012605444646" lon="16.86886042862312"><ele>46.33333333333333</ele><time>2026-04-06T07:57:20Z</time></trkpt><trkpt lat="39.508910576517685" lon="16.868701777625077"><ele>47.0</ele><time>2026-04-06T07:57:21Z</time></trkpt><trkpt lat="39.50880255975063" lon="16.86853961573796"><ele>47.0</ele><time>2026-04-06T07:57:21.999Z</time></trkpt><trkpt lat="39.50868538352664" lon="16.86838140950552"><ele>47.0</ele><time>2026-04-06T07:57:22.999Z</time></trkpt><trkpt lat="39.50857490738061" lon="16.868237577174252"><ele>47.0</ele><time>2026-04-06T07:57:23.999Z</time></trkpt><trkpt lat="39.50846776956684" lon="16.868103854090005"><ele>47.0</ele><time>2026-04-06T07:57:24.999Z</time></trkpt><trkpt lat="39.5083531354015" lon="16.867966781321925"><ele>47.0</ele><time>2026-04-06T07:57:25.999Z</time></trkpt><trkpt lat="39.50823469751749" lon="16.86782561002568"><ele>47.0</ele><time>2026-04-06T07:57:26.999Z</time></trkpt><trkpt lat="39.50811676537972" lon="16.867677200106034"><ele>47.33333333333333</ele><time>2026-04-06T07:57:27.999Z</time></trkpt><trkpt lat="39.50800268816553" lon="16.86753488824179"><ele>47.666666666666664</ele><time>2026-04-06T07:57:28.999Z</time></trkpt><trkpt lat="39.507902341098" lon="16.86738625117691"><ele>48.0</ele><time>2026-04-06T07:57:29.999Z</time></trkpt><trkpt lat="39.50777975183344" lon="16.86727821822766"><ele>48.0</ele><time>2026-04-06T07:57:30.999Z</time></trkpt><trkpt lat="39.507671233615355" lon="16.86714582952135"><ele>48.0</ele><time>2026-04-06T07:57:31.999Z</time></trkpt><trkpt lat="39.50757075527652" lon="16.86702223439717"><ele>48.0</ele><time>2026-04-06T07:57:32.999Z</time></trkpt><trkpt lat="39.5074782842973" lon="16.86690980374853"><ele>48.0</ele><time>2026-04-06T07:57:33.999Z</time></trkpt><trkpt lat="39.50737706384886" lon="16.866791725354926"><ele>48.75</ele><time>2026-04-06T07:57:34.999Z</time></trkpt><trkpt lat="39.5072676863417" lon="16.86666177199297"><ele>49.5</ele><time>2026-04-06T07:57:35.999Z</time></trkpt><trkpt lat="39.507152863961615" lon="16.86654760274441"><ele>50.25</ele><time>2026-04-06T07:57:36.999Z</time></trkpt><trkpt lat="39.50702803220814" lon="16.866453313255818"><ele>51.0</ele><time>2026-04-06T07:57:38Z</time></trkpt><trkpt lat="39.506889231380555" lon="16.866379447326175"><ele>51.0</ele><time>2026-04-06T07:57:39Z</time></trkpt><trkpt lat="39.50673101010469" lon="16.866325376428247"><ele>51.0</ele><time>2026-04-06T07:57:40Z</time></trkpt><trkpt lat="39.50656390153088" lon="16.866268322376644"><ele>51.0</ele><time>2026-04-06T07:57:41Z</time></trkpt><trkpt lat="39.50639427217528" lon="16.866214153138678"><ele>51.0</ele><time>2026-04-06T07:57:42Z</time></trkpt><trkpt lat="39.506222764706635" lon="16.86616608101474"><ele>51.0</ele><time>2026-04-06T07:57:43Z</time></trkpt><trkpt lat="39.50604904764482" lon="16.866111575536863"><ele>51.0</ele><time>2026-04-06T07:57:44Z</time></trkpt><trkpt lat="39.505873311444645" lon="16.8660540990791"><ele>51.0</ele><time>2026-04-06T07:57:45Z</time></trkpt><trkpt lat="39.5056973182508" lon="16.865998013963257"><ele>51.0</ele><time>2026-04-06T07:57:46Z</time></trkpt><trkpt lat="39.50552646336412" lon="16.86594124303863"><ele>51.0</ele><time>2026-04-06T07:57:47Z</time></trkpt><trkpt lat="39.50535936272845" lon="16.865890219018308"><ele>54.33333333333333</ele><time>2026-04-06T07:57:48Z</time></trkpt><trkpt lat="39.505191729889745" lon="16.86584633332916"><ele>57.666666666666664</ele><time>2026-04-06T07:57:49Z</time></trkpt><trkpt lat="39.50502850560152" lon="16.86579287843514"><ele>61.0</ele><time>2026-04-06T07:57:50Z</time></trkpt><trkpt lat="39.504865620583395" lon="16.865735809587328"><ele>61.0</ele><time>2026-04-06T07:57:51Z</time></trkpt><trkpt lat="39.50470593166788" lon="16.865663385450627"><ele>61.0</ele><time>2026-04-06T07:57:52Z</time></trkpt><trkpt lat="39.504540833176655" lon="16.865625670230656"><ele>61.0</ele><time>2026-04-06T07:57:53Z</time></trkpt><trkpt lat="39.50438236574585" lon="16.86556458921654"><ele>60.666666666666664</ele><time>2026-04-06T07:57:54Z</time></trkpt><trkpt lat="39.50422341731956" lon="16.86550734671635"><ele>60.33333333333333</ele><time>2026-04-06T07:57:55Z</time></trkpt><trkpt lat="39.504065413469284" lon="16.8654499761371"><ele>60.0</ele><time>2026-04-06T07:57:56Z</time></trkpt><trkpt lat="39.50390742327183" lon="16.865398470927385"><ele>60.0</ele><time>2026-04-06T07:57:57Z</time></trkpt><trkpt lat="39.503747794347454" lon="16.865341446809275"><ele>60.0</ele><time>2026-04-06T07:57:58Z</time></trkpt><trkpt lat="39.50358719811051" lon="16.86528313843019"><ele>60.0</ele><time>2026-04-06T07:57:59Z</time></trkpt><trkpt lat="39.50342708111171" lon="16.865226139138635"><ele>59.0</ele><time>2026-04-06T07:58:00Z</time></trkpt><trkpt lat="39.50326763046855" lon="16.865172179369928"><ele>58.0</ele><time>2026-04-06T07:58:01Z</time></trkpt><trkpt lat="39.503111637412964" lon="16.865115292201256"><ele>57.0</ele><time>2026-04-06T07:58:02Z</time></trkpt><trkpt lat="39.50295833600804" lon="16.865058296375892"><ele>58.66666666666667</ele><time>2026-04-06T07:58:03Z</time></trkpt><trkpt lat="39.50280813594302" lon="16.8649997016298"><ele>60.333333333333336</ele><time>2026-04-06T07:58:04Z</time></trkpt><trkpt lat="39.50266149631863" lon="16.86493621841133"><ele>62.0</ele><time>2026-04-06T07:58:05Z</time></trkpt><trkpt lat="39.50251331326102" lon="16.8648606007123"><ele>62.0</ele><time>2026-04-06T07:58:06Z</time></trkpt><trkpt lat="39.50236650014236" lon="16.864774120976243"><ele>62.0</ele><time>2026-04-06T07:58:07Z</time></trkpt><trkpt lat="39.50222218666879" lon="16.864672519990403"><ele>62.0</ele><time>2026-04-06T07:58:08Z</time></trkpt><trkpt lat="39.50207929557355" lon="16.864566937890014"><ele>62.333333333333336</ele><time>2026-04-06T07:58:09Z</time></trkpt><trkpt lat="39.501941029354576" lon="16.864452766330473"><ele>62.66666666666667</ele><time>2026-04-06T07:58:10Z</time></trkpt><trkpt lat="39.501811356996704" lon="16.864327112343915"><ele>63.0</ele><time>2026-04-06T07:58:11Z</time></trkpt><trkpt lat="39.50168310626882" lon="16.864202762681572"><ele>63.0</ele><time>2026-04-06T07:58:12Z</time></trkpt><trkpt lat="39.50155217186266" lon="16.864070036933168"><ele>63.0</ele><time>2026-04-06T07:58:13Z</time></trkpt><trkpt lat="39.50142272633069" lon="16.863936080032673"><ele>63.0</ele><time>2026-04-06T07:58:14Z</time></trkpt><trkpt lat="39.50129290216415" lon="16.863804263062885"><ele>63.0</ele><time>2026-04-06T07:58:15Z</time></trkpt><trkpt lat="39.50115892045326" lon="16.86367423881253"><ele>63.0</ele><time>2026-04-06T07:58:16Z</time></trkpt><trkpt lat="39.501024671113804" lon="16.86354421427791"><ele>63.0</ele><time>2026-04-06T07:58:17Z</time></trkpt><trkpt lat="39.50088963539069" lon="16.863411198649683"><ele>63.0</ele><time>2026-04-06T07:58:18Z</time></trkpt><trkpt lat="39.500754938229456" lon="16.863275692162098"><ele>63.0</ele><time>2026-04-06T07:58:19Z</time></trkpt><trkpt lat="39.50061678127092" lon="16.863136998267198"><ele>63.0</ele><time>2026-04-06T07:58:20Z</time></trkpt><trkpt lat="39.50047572337728" lon="16.86299509767855"><ele>65.33333333333333</ele><time>2026-04-06T07:58:21Z</time></trkpt><trkpt lat="39.50033558052475" lon="16.862860383998523"><ele>67.66666666666666</ele><time>2026-04-06T07:58:22Z</time></trkpt><trkpt lat="39.50019303093422" lon="16.86272483226479"><ele>70.0</ele><time>2026-04-06T07:58:23Z</time></trkpt><trkpt lat="39.50005164162071" lon="16.862581604235533"><ele>70.66666666666666</ele><time>2026-04-06T07:58:24Z</time></trkpt><trkpt lat="39.49991134054189" lon="16.862447050969543"><ele>71.33333333333333</ele><time>2026-04-06T07:58:25Z</time></trkpt><trkpt lat="39.4997739951201" lon="16.862305607714223"><ele>72.0</ele><time>2026-04-06T07:58:26Z</time></trkpt><trkpt lat="39.49964591893943" lon="16.862175015086443"><ele>73.0</ele><time>2026-04-06T07:58:27Z</time></trkpt><trkpt lat="39.49951796990771" lon="16.86205637744791"><ele>74.0</ele><time>2026-04-06T07:58:28Z</time></trkpt><trkpt lat="39.49939678746515" lon="16.861942188954888"><ele>75.0</ele><time>2026-04-06T07:58:29Z</time></trkpt><trkpt lat="39.49928129936102" lon="16.861838151684726"><ele>76.0</ele><time>2026-04-06T07:58:30Z</time></trkpt><trkpt lat="39.499158156316845" lon="16.861769598425813"><ele>76.0</ele><time>2026-04-06T07:58:31Z</time></trkpt><trkpt lat="39.499022353609" lon="16.861741630177004"><ele>76.0</ele><time>2026-04-06T07:58:32Z</time></trkpt><trkpt lat="39.49887852260774" lon="16.861752296926486"><ele>76.0</ele><time>2026-04-06T07:58:33Z</time></trkpt><trkpt lat="39.498733361377084" lon="16.861808934322152"><ele>76.0</ele><time>2026-04-06T07:58:34Z</time></trkpt><trkpt lat="39.49858316423627" lon="16.861840891997513"><ele>73.33333333333333</ele><time>2026-04-06T07:58:35Z</time></trkpt><trkpt lat="39.49843301986943" lon="16.861894657572474"><ele>70.66666666666667</ele><time>2026-04-06T07:58:36Z</time></trkpt><trkpt lat="39.498277412822425" lon="16.861900437853816"><ele>68.0</ele><time>2026-04-06T07:58:37Z</time></trkpt><trkpt lat="39.498119849384864" lon="16.861882736821936"><ele>68.0</ele><time>2026-04-06T07:58:38Z</time></trkpt><trkpt lat="39.4979664418369" lon="16.861855319663178"><ele>68.0</ele><time>2026-04-06T07:58:39Z</time></trkpt><trkpt lat="39.49781595034395" lon="16.861807443928893"><ele>68.0</ele><time>2026-04-06T07:58:40Z</time></trkpt><trkpt lat="39.497669956697976" lon="16.861733829882642"><ele>72.66666666666667</ele><time>2026-04-06T07:58:41Z</time></trkpt><trkpt lat="39.497521399448104" lon="16.86164645881804"><ele>77.33333333333333</ele><time>2026-04-06T07:58:42Z</time></trkpt><trkpt lat="39.49736728249983" lon="16.86155651490247"><ele>82.0</ele><time>2026-04-06T07:58:43Z</time></trkpt><trkpt lat="39.49721243814151" lon="16.86147315071777"><ele>81.25</ele><time>2026-04-06T07:58:44Z</time></trkpt><trkpt lat="39.49706750396097" lon="16.861389519181348"><ele>80.5</ele><time>2026-04-06T07:58:45Z</time></trkpt><trkpt lat="39.49694402122347" lon="16.861303491434178"><ele>79.75</ele><time>2026-04-06T07:58:46Z</time></trkpt><trkpt lat="39.49685011961121" lon="16.86119174605454"><ele>79.0</ele><time>2026-04-06T07:58:47Z</time></trkpt><trkpt lat="39.49675879361865" lon="16.861047856193192"><ele>82.75</ele><time>2026-04-06T07:58:48Z</time></trkpt><trkpt lat="39.49667203840475" lon="16.860889511918113"><ele>86.5</ele><time>2026-04-06T07:58:49Z</time></trkpt><trkpt lat="39.496577344675494" lon="16.86074793132859"><ele>90.25</ele><time>2026-04-06T07:58:50Z</time></trkpt><trkpt lat="39.49647443892653" lon="16.86062909694306"><ele>94.0</ele><time>2026-04-06T07:58:51Z</time></trkpt><trkpt lat="39.49635472655631" lon="16.86055862815052"><ele>92.33333333333333</ele><time>2026-04-06T07:58:52Z</time></trkpt><trkpt lat="39.496204706075495" lon="16.860516750537776"><ele>90.66666666666667</ele><time>2026-04-06T07:58:53Z</time></trkpt><trkpt lat="39.49604168511212" lon="16.86048855711528"><ele>89.0</ele><time>2026-04-06T07:58:54Z</time></trkpt><trkpt lat="39.49587891967065" lon="16.860443533079195"><ele>89.0</ele><time>2026-04-06T07:58:55Z</time></trkpt><trkpt lat="39.49572029018165" lon="16.86039788911019"><ele>89.0</ele><time>2026-04-06T07:58:56Z</time></trkpt><trkpt lat="39.49556962896489" lon="16.860362067561"><ele>89.0</ele><time>2026-04-06T07:58:57Z</time></trkpt><trkpt lat="39.49542069564952" lon="16.860326925291236"><ele>89.0</ele><time>2026-04-06T07:58:58Z</time></trkpt><trkpt lat="39.49527178403566" lon="16.86029095269186"><ele>89.0</ele><time>2026-04-06T07:58:59Z</time></trkpt><trkpt lat="39.4951146869692" lon="16.86026242079213"><ele>89.0</ele><time>2026-04-06T07:59:00Z</time></trkpt><trkpt lat="39.49495518725967" lon="16.860247185095723"><ele>89.0</ele><time>2026-04-06T07:59:01Z</time></trkpt><trkpt lat="39.49479672871616" lon="16.86027316957469"><ele>89.0</ele><time>2026-04-06T07:59:02Z</time></trkpt><trkpt lat="39.49463515697672" lon="16.860325375446607"><ele>89.0</ele><time>2026-04-06T07:59:03Z</time></trkpt><trkpt lat="39.494481216013" lon="16.860379274637975"><ele>90.66666666666667</ele><time>2026-04-06T07:59:04Z</time></trkpt><trkpt lat="39.49432375163149" lon="16.860391576817747"><ele>92.33333333333333</ele><time>2026-04-06T07:59:05Z</time></trkpt><trkpt lat="39.49416382741856" lon="16.86036632384604"><ele>94.0</ele><time>2026-04-06T07:59:06Z</time></trkpt><trkpt lat="39.49400807865863" lon="16.860307674810258"><ele>94.0</ele><time>2026-04-06T07:59:07Z</time></trkpt><trkpt lat="39.49385411551783" lon="16.8602522657803"><ele>94.0</ele><time>2026-04-06T07:59:08Z</time></trkpt><trkpt lat="39.493703762738036" lon="16.86020132520673"><ele>94.0</ele><time>2026-04-06T07:59:09Z</time></trkpt><trkpt lat="39.493573453625764" lon="16.860161395184257"><ele>94.0</ele><time>2026-04-06T07:59:10Z</time></trkpt><trkpt lat="39.49346480991057" lon="16.86012988341996"><ele>97.6</ele><time>2026-04-06T07:59:11Z</time></trkpt><trkpt lat="39.49337105839749" lon="16.860077268309446"><ele>101.2</ele><time>2026-04-06T07:59:12Z</time></trkpt><trkpt lat="39.49329080118863" lon="16.85998564854824"><ele>104.79999999999998</ele><time>2026-04-06T07:59:13Z</time></trkpt><trkpt lat="39.49322523661297" lon="16.859869944563037"><ele>108.39999999999999</ele><time>2026-04-06T07:59:14Z</time></trkpt><trkpt lat="39.49316322988931" lon="16.859732207896563"><ele>112.0</ele><time>2026-04-06T07:59:15Z</time></trkpt><trkpt lat="39.49309302886515" lon="16.85958718057811"><ele>112.0</ele><time>2026-04-06T07:59:16Z</time></trkpt><trkpt lat="39.49302190886649" lon="16.859442992993745"><ele>112.0</ele><time>2026-04-06T07:59:17Z</time></trkpt><trkpt lat="39.49296255402449" lon="16.859298063409067"><ele>112.0</ele><time>2026-04-06T07:59:18Z</time></trkpt><trkpt lat="39.49290183901037" lon="16.859156993883712"><ele>112.0</ele><time>2026-04-06T07:59:19Z</time></trkpt><trkpt lat="39.492833160743515" lon="16.859020871698217"><ele>112.0</ele><time>2026-04-06T07:59:20Z</time></trkpt><trkpt lat="39.49275081625175" lon="16.858900165433038"><ele>112.0</ele><time>2026-04-06T07:59:21Z</time></trkpt><trkpt lat="39.492651050400234" lon="16.858794067216152"><ele>112.0</ele><time>2026-04-06T07:59:22Z</time></trkpt><trkpt lat="39.492523730625024" lon="16.85871405237789"><ele>112.0</ele><time>2026-04-06T07:59:23Z</time></trkpt><trkpt lat="39.49238757331318" lon="16.85863747175783"><ele>112.0</ele><time>2026-04-06T07:59:24Z</time></trkpt><trkpt lat="39.4922466365226" lon="16.85855006638894"><ele>112.0</ele><time>2026-04-06T07:59:25Z</time></trkpt><trkpt lat="39.492109452209924" lon="16.858468512798666"><ele>112.0</ele><time>2026-04-06T07:59:26Z</time></trkpt><trkpt lat="39.491956840820066" lon="16.858395897981296"><ele>117.33333333333334</ele><time>2026-04-06T07:59:26.999Z</time></trkpt><trkpt lat="39.491792258693714" lon="16.85834539583594"><ele>122.66666666666666</ele><time>2026-04-06T07:59:27.999Z</time></trkpt><trkpt lat="39.49162983938089" lon="16.858326881917513"><ele>128.0</ele><time>2026-04-06T07:59:28.999Z</time></trkpt><trkpt lat="39.49147053324489" lon="16.858310088641772"><ele>128.0</ele><time>2026-04-06T07:59:29.999Z</time></trkpt><trkpt lat="39.491318788173686" lon="16.858263068405282"><ele>128.0</ele><time>2026-04-06T07:59:30.999Z</time></trkpt><trkpt lat="39.49117788100554" lon="16.85817580441351"><ele>128.0</ele><time>2026-04-06T07:59:31.999Z</time></trkpt><trkpt lat="39.49104987312883" lon="16.85806074086565"><ele>126.25</ele><time>2026-04-06T07:59:32.999Z</time></trkpt><trkpt lat="39.49092834910004" lon="16.857951402652315"><ele>124.5</ele><time>2026-04-06T07:59:33.999Z</time></trkpt><trkpt lat="39.49081690393928" lon="16.857871264044157"><ele>122.75</ele><time>2026-04-06T07:59:34.999Z</time></trkpt><trkpt lat="39.490719708130314" lon="16.857795248333012"><ele>121.0</ele><time>2026-04-06T07:59:35.999Z</time></trkpt><trkpt lat="39.490629467461794" lon="16.857746211487324"><ele>121.0</ele><time>2026-04-06T07:59:36.999Z</time></trkpt><trkpt lat="39.49053130501704" lon="16.857718420489917"><ele>121.0</ele><time>2026-04-06T07:59:37.999Z</time></trkpt><trkpt lat="39.49041618670952" lon="16.857731230978615"><ele>121.0</ele><time>2026-04-06T07:59:38.999Z</time></trkpt><trkpt lat="39.49029270205485" lon="16.857769261940593"><ele>121.0</ele><time>2026-04-06T07:59:39.999Z</time></trkpt><trkpt lat="39.4901691127451" lon="16.857803980483347"><ele>122.0</ele><time>2026-04-06T07:59:40.999Z</time></trkpt><trkpt lat="39.490048631910255" lon="16.857804832745177"><ele>123.0</ele><time>2026-04-06T07:59:41.999Z</time></trkpt><trkpt lat="39.48993087621585" lon="16.857764096019253"><ele>124.0</ele><time>2026-04-06T07:59:42.999Z</time></trkpt><trkpt lat="39.48981741878846" lon="16.857694198266266"><ele>125.0</ele><time>2026-04-06T07:59:44Z</time></trkpt><trkpt lat="39.48970340083605" lon="16.85761091428811"><ele>128.25</ele><time>2026-04-06T07:59:45Z</time></trkpt><trkpt lat="39.48957813877238" lon="16.85754443710258"><ele>131.5</ele><time>2026-04-06T07:59:46Z</time></trkpt><trkpt lat="39.489436591971554" lon="16.857508379949795"><ele>134.75</ele><time>2026-04-06T07:59:47Z</time></trkpt><trkpt lat="39.48929042058331" lon="16.85750636144762"><ele>138.0</ele><time>2026-04-06T07:59:48Z</time></trkpt><trkpt lat="39.489146354769126" lon="16.857506369485925"><ele>138.0</ele><time>2026-04-06T07:59:49Z</time></trkpt><trkpt lat="39.489006957315695" lon="16.857495810992656"><ele>138.0</ele><time>2026-04-06T07:59:50Z</time></trkpt><trkpt lat="39.48887031858291" lon="16.85748641814729"><ele>138.0</ele><time>2026-04-06T07:59:51Z</time></trkpt><trkpt lat="39.488741419148774" lon="16.857479417618073"><ele>138.0</ele><time>2026-04-06T07:59:52Z</time></trkpt><trkpt lat="39.48863493758161" lon="16.857448328679208"><ele>138.0</ele><time>2026-04-06T07:59:53Z</time></trkpt><trkpt lat="39.488551170335846" lon="16.857383678549063"><ele>138.0</ele><time>2026-04-06T07:59:54Z</time></trkpt><trkpt lat="39.488499237579255" lon="16.857291519611582"><ele>138.0</ele><time>2026-04-06T07:59:55Z</time></trkpt><trkpt lat="39.48846481512009" lon="16.85715467815324"><ele>138.0</ele><time>2026-04-06T07:59:56Z</time></trkpt><trkpt lat="39.4884231132913" lon="16.856973032474077"><ele>138.0</ele><time>2026-04-06T07:59:57Z</time></trkpt><trkpt lat="39.488366961830636" lon="16.856789121732444"><ele>139.25</ele><time>2026-04-06T07:59:58Z</time></trkpt><trkpt lat="39.48830899955013" lon="16.856609509993277"><ele>140.5</ele><time>2026-04-06T07:59:59Z</time></trkpt><trkpt lat="39.48824910845635" lon="16.85643592803376"><ele>141.75</ele><time>2026-04-06T08:00:00Z</time></trkpt><trkpt lat="39.48819775672459" lon="16.856277729014774"><ele>143.0</ele><time>2026-04-06T08:00:01Z</time></trkpt><trkpt lat="39.48815505945971" lon="16.856123875469144"><ele>143.0</ele><time>2026-04-06T08:00:02Z</time></trkpt><trkpt lat="39.48812433398738" lon="16.855968883787128"><ele>143.0</ele><time>2026-04-06T08:00:03Z</time></trkpt><trkpt lat="39.48810974591021" lon="16.855813251820777"><ele>143.0</ele><time>2026-04-06T08:00:04Z</time></trkpt><trkpt lat="39.48809376617125" lon="16.855648103476426"><ele>143.0</ele><time>2026-04-06T08:00:05Z</time></trkpt><trkpt lat="39.48807156256954" lon="16.855491321650998"><ele>143.25</ele><time>2026-04-06T08:00:06Z</time></trkpt><trkpt lat="39.4880346292397" lon="16.855332764891184"><ele>143.5</ele><time>2026-04-06T08:00:07Z</time></trkpt><trkpt lat="39.487980218183864" lon="16.85517973209855"><ele>143.75</ele><time>2026-04-06T08:00:08Z</time></trkpt><trkpt lat="39.48791398376121" lon="16.855040650197147"><ele>144.0</ele><time>2026-04-06T08:00:09Z</time></trkpt><trkpt lat="39.48783184437299" lon="16.85491012618143"><ele>144.0</ele><time>2026-04-06T08:00:10Z</time></trkpt><trkpt lat="39.487740240833375" lon="16.854814196651425"><ele>144.0</ele><time>2026-04-06T08:00:11Z</time></trkpt><trkpt lat="39.48763640948918" lon="16.854722333926002"><ele>144.0</ele><time>2026-04-06T08:00:12Z</time></trkpt><trkpt lat="39.48751918778508" lon="16.854660638921857"><ele>144.0</ele><time>2026-04-06T08:00:13Z</time></trkpt><trkpt lat="39.48739068413462" lon="16.85462467335959"><ele>144.0</ele><time>2026-04-06T08:00:14Z</time></trkpt><trkpt lat="39.48726063560764" lon="16.85460461179936"><ele>144.0</ele><time>2026-04-06T08:00:15Z</time></trkpt><trkpt lat="39.487138748377646" lon="16.8546120466446"><ele>144.0</ele><time>2026-04-06T08:00:16Z</time></trkpt><trkpt lat="39.48704542266817" lon="16.854634068620378"><ele>144.0</ele><time>2026-04-06T08:00:17Z</time></trkpt><trkpt lat="39.48695163595002" lon="16.854658428303942"><ele>144.0</ele><time>2026-04-06T08:00:18Z</time></trkpt><trkpt lat="39.48684051222437" lon="16.854693109637807"><ele>145.2</ele><time>2026-04-06T08:00:19Z</time></trkpt><trkpt lat="39.486730202683496" lon="16.854730568998107"><ele>146.4</ele><time>2026-04-06T08:00:20Z</time></trkpt><trkpt lat="39.486624166787124" lon="16.8547861092712"><ele>147.6</ele><time>2026-04-06T08:00:21Z</time></trkpt><trkpt lat="39.48652375056891" lon="16.854854733680316"><ele>148.8</ele><time>2026-04-06T08:00:22Z</time></trkpt><trkpt lat="39.486432737490084" lon="16.854925028207635"><ele>150.0</ele><time>2026-04-06T08:00:23Z</time></trkpt><trkpt lat="39.486348934695" lon="16.85498580981026"><ele>150.0</ele><time>2026-04-06T08:00:24Z</time></trkpt><trkpt lat="39.48627848233281" lon="16.85505254491613"><ele>150.0</ele><time>2026-04-06T08:00:25Z</time></trkpt><trkpt lat="39.48623503397912" lon="16.85517141842223"><ele>150.0</ele><time>2026-04-06T08:00:26Z</time></trkpt><trkpt lat="39.48615864729435" lon="16.855213854020974"><ele>150.0</ele><time>2026-04-06T08:00:27Z</time></trkpt><trkpt lat="39.486060530720856" lon="16.85518906608372"><ele>150.0</ele><time>2026-04-06T08:00:28Z</time></trkpt><trkpt lat="39.485953773437814" lon="16.85520310168051"><ele>149.16666666666666</ele><time>2026-04-06T08:00:29Z</time></trkpt><trkpt lat="39.48584529481257" lon="16.855207912557116"><ele>148.33333333333334</ele><time>2026-04-06T08:00:30Z</time></trkpt><trkpt lat="39.48574814607507" lon="16.855235942651966"><ele>147.5</ele><time>2026-04-06T08:00:31Z</time></trkpt><trkpt lat="39.48565894189249" lon="16.855267608781386"><ele>146.66666666666669</ele><time>2026-04-06T08:00:32Z</time></trkpt><trkpt lat="39.485586430290965" lon="16.855268462586967"><ele>145.83333333333334</ele><time>2026-04-06T08:00:33Z</time></trkpt><trkpt lat="39.48552902913116" lon="16.85521876910848"><ele>145.0</ele><time>2026-04-06T08:00:34Z</time></trkpt><trkpt lat="39.485501013238164" lon="16.85513451532327"><ele>148.8</ele><time>2026-04-06T08:00:35Z</time></trkpt><trkpt lat="39.48550088225401" lon="16.85502607333765"><ele>152.6</ele><time>2026-04-06T08:00:36Z</time></trkpt><trkpt lat="39.48553662471842" lon="16.85490046357892"><ele>156.39999999999998</ele><time>2026-04-06T08:00:37Z</time></trkpt><trkpt lat="39.485628846598" lon="16.85480518248704"><ele>160.2</ele><time>2026-04-06T08:00:38Z</time></trkpt><trkpt lat="39.48568669281868" lon="16.854669577644223"><ele>164.0</ele><time>2026-04-06T08:00:39Z</time></trkpt><trkpt lat="39.485768591576225" lon="16.854544223819243"><ele>164.0</ele><time>2026-04-06T08:00:40Z</time></trkpt><trkpt lat="39.48584122395618" lon="16.854417462873588"><ele>164.0</ele><time>2026-04-06T08:00:41Z</time></trkpt><trkpt lat="39.48592604106174" lon="16.854312892882714"><ele>164.0</ele><time>2026-04-06T08:00:42Z</time></trkpt><trkpt lat="39.486016843402396" lon="16.854223440837767"><ele>164.0</ele><time>2026-04-06T08:00:43Z</time></trkpt><trkpt lat="39.48612338082168" lon="16.854126066403055"><ele>164.5</ele><time>2026-04-06T08:00:44Z</time></trkpt><trkpt lat="39.486226456390426" lon="16.854011598780502"><ele>165.0</ele><time>2026-04-06T08:00:45Z</time></trkpt><trkpt lat="39.486335562241145" lon="16.853904299075424"><ele>165.5</ele><time>2026-04-06T08:00:46Z</time></trkpt><trkpt lat="39.48642770152327" lon="16.853784540615006"><ele>166.0</ele><time>2026-04-06T08:00:47Z</time></trkpt><trkpt lat="39.486512470846016" lon="16.853655236563043"><ele>166.0</ele><time>2026-04-06T08:00:48Z</time></trkpt><trkpt lat="39.48659103423363" lon="16.853518918826424"><ele>166.0</ele><time>2026-04-06T08:00:49Z</time></trkpt><trkpt lat="39.48668771107021" lon="16.853429102859447"><ele>166.0</ele><time>2026-04-06T08:00:50Z</time></trkpt><trkpt lat="39.486770082052544" lon="16.853360099068027"><ele>166.0</ele><time>2026-04-06T08:00:51Z</time></trkpt><trkpt lat="39.48683900870193" lon="16.853287647447594"><ele>166.0</ele><time>2026-04-06T08:00:52Z</time></trkpt><trkpt lat="39.48690411442278" lon="16.8532516762518"><ele>169.16666666666669</ele><time>2026-04-06T08:00:53Z</time></trkpt><trkpt lat="39.48695970755854" lon="16.85319826770217"><ele>172.33333333333334</ele><time>2026-04-06T08:00:54Z</time></trkpt><trkpt lat="39.486984462875" lon="16.853119447285188"><ele>175.5</ele><time>2026-04-06T08:00:55Z</time></trkpt><trkpt lat="39.48693531243884" lon="16.853040622680304"><ele>178.66666666666666</ele><time>2026-04-06T08:00:56Z</time></trkpt><trkpt lat="39.48679560219676" lon="16.853013312380906"><ele>181.83333333333331</ele><time>2026-04-06T08:00:58Z</time></trkpt><trkpt lat="39.486714742291795" lon="16.853069971324917"><ele>185.0</ele><time>2026-04-06T08:00:59Z</time></trkpt><trkpt lat="39.48662345904068" lon="16.853125938546018"><ele>185.0</ele><time>2026-04-06T08:01:00Z</time></trkpt><trkpt lat="39.48652246313222" lon="16.853169093633184"><ele>185.0</ele><time>2026-04-06T08:01:01Z</time></trkpt><trkpt lat="39.486433729953816" lon="16.853244043310987"><ele>185.0</ele><time>2026-04-06T08:01:02Z</time></trkpt><trkpt lat="39.486365679244685" lon="16.853354365979012"><ele>185.0</ele><time>2026-04-06T08:01:03Z</time></trkpt><trkpt lat="39.48629871746408" lon="16.85346518884721"><ele>185.0</ele><time>2026-04-06T08:01:04Z</time></trkpt><trkpt lat="39.486197440057325" lon="16.85351316540777"><ele>183.4</ele><time>2026-04-06T08:01:05Z</time></trkpt><trkpt lat="39.48609374176469" lon="16.85357410537885"><ele>181.8</ele><time>2026-04-06T08:01:06Z</time></trkpt><trkpt lat="39.485993763028056" lon="16.853606998640338"><ele>180.2</ele><time>2026-04-06T08:01:07Z</time></trkpt><trkpt lat="39.48590123240391" lon="16.853604265539097"><ele>178.6</ele><time>2026-04-06T08:01:08Z</time></trkpt><trkpt lat="39.4858271363608" lon="16.85356485180441"><ele>177.0</ele><time>2026-04-06T08:01:09Z</time></trkpt><trkpt lat="39.485768420659625" lon="16.853481031492294"><ele>181.25</ele><time>2026-04-06T08:01:10Z</time></trkpt><trkpt lat="39.48572404158354" lon="16.85335863025879"><ele>185.5</ele><time>2026-04-06T08:01:11Z</time></trkpt><trkpt lat="39.485683690304334" lon="16.853215884307303"><ele>189.75</ele><time>2026-04-06T08:01:12Z</time></trkpt><trkpt lat="39.485628388811335" lon="16.853066611607666"><ele>194.0</ele><time>2026-04-06T08:01:13Z</time></trkpt><trkpt lat="39.485563974877046" lon="16.85291548762059"><ele>194.0</ele><time>2026-04-06T08:01:14Z</time></trkpt><trkpt lat="39.48549094536695" lon="16.85275864550681"><ele>194.0</ele><time>2026-04-06T08:01:15Z</time></trkpt><trkpt lat="39.4854049069352" lon="16.852601006288843"><ele>194.0</ele><time>2026-04-06T08:01:16Z</time></trkpt><trkpt lat="39.48531121477863" lon="16.85245830824496"><ele>194.0</ele><time>2026-04-06T08:01:17Z</time></trkpt><trkpt lat="39.48523398249367" lon="16.852319865187916"><ele>194.0</ele><time>2026-04-06T08:01:18Z</time></trkpt><trkpt lat="39.48518745678513" lon="16.852184666865874"><ele>194.0</ele><time>2026-04-06T08:01:19Z</time></trkpt><trkpt lat="39.48515997305641" lon="16.852034425879634"><ele>194.0</ele><time>2026-04-06T08:01:20Z</time></trkpt><trkpt lat="39.48514836170561" lon="16.851876080108006"><ele>194.0</ele><time>2026-04-06T08:01:21Z</time></trkpt><trkpt lat="39.48515741534152" lon="16.851709919475265"><ele>195.5</ele><time>2026-04-06T08:01:22Z</time></trkpt><trkpt lat="39.48517224441036" lon="16.85153861466424"><ele>197.0</ele><time>2026-04-06T08:01:23Z</time></trkpt><trkpt lat="39.48518827593411" lon="16.85136106664249"><ele>198.5</ele><time>2026-04-06T08:01:23.999Z</time></trkpt><trkpt lat="39.485204978985685" lon="16.851180256015414"><ele>200.0</ele><time>2026-04-06T08:01:24.999Z</time></trkpt><trkpt lat="39.485219225522236" lon="16.850990944438134"><ele>201.75</ele><time>2026-04-06T08:01:25.999Z</time></trkpt><trkpt lat="39.48523482787674" lon="16.85080007800105"><ele>203.5</ele><time>2026-04-06T08:01:26.999Z</time></trkpt><trkpt lat="39.48525245914187" lon="16.850613994691415"><ele>205.25</ele><time>2026-04-06T08:01:27.999Z</time></trkpt><trkpt lat="39.48526400493953" lon="16.85043583549469"><ele>207.0</ele><time>2026-04-06T08:01:28.999Z</time></trkpt><trkpt lat="39.48527810844747" lon="16.85026572557177"><ele>208.75</ele><time>2026-04-06T08:01:29.999Z</time></trkpt><trkpt lat="39.48529293232098" lon="16.85010193693203"><ele>210.5</ele><time>2026-04-06T08:01:30.999Z</time></trkpt><trkpt lat="39.4852868518095" lon="16.84994887092484"><ele>212.25</ele><time>2026-04-06T08:01:31.999Z</time></trkpt><trkpt lat="39.48525654131812" lon="16.849800317954408"><ele>214.0</ele><time>2026-04-06T08:01:32.999Z</time></trkpt><trkpt lat="39.48520491667091" lon="16.849658642784405"><ele>214.0</ele><time>2026-04-06T08:01:33.999Z</time></trkpt><trkpt lat="39.485146386348724" lon="16.849523944939207"><ele>213.99999999999997</ele><time>2026-04-06T08:01:34.999Z</time></trkpt><trkpt lat="39.485095195034866" lon="16.84939085570043"><ele>213.99999999999997</ele><time>2026-04-06T08:01:35.999Z</time></trkpt><trkpt lat="39.485059463895844" lon="16.849284871456767"><ele>214.0</ele><time>2026-04-06T08:01:36.999Z</time></trkpt><trkpt lat="39.485038450792096" lon="16.849204058945602"><ele>214.0</ele><time>2026-04-06T08:01:37.999Z</time></trkpt><trkpt lat="39.48504196206007" lon="16.849121474101512"><ele>215.16666666666666</ele><time>2026-04-06T08:01:38.999Z</time></trkpt><trkpt lat="39.48507490782105" lon="16.849046628193744"><ele>216.33333333333331</ele><time>2026-04-06T08:01:39.999Z</time></trkpt><trkpt lat="39.48514693483934" lon="16.849013486656435"><ele>217.5</ele><time>2026-04-06T08:01:40.999Z</time></trkpt><trkpt lat="39.48522401794613" lon="16.84901496055628"><ele>218.66666666666669</ele><time>2026-04-06T08:01:41.999Z</time></trkpt><trkpt lat="39.48529204917696" lon="16.849068349600557"><ele>219.83333333333334</ele><time>2026-04-06T08:01:42.999Z</time></trkpt><trkpt lat="39.48533580146682" lon="16.849188774541553"><ele>221.0</ele><time>2026-04-06T08:01:43.999Z</time></trkpt><trkpt lat="39.48542704218987" lon="16.849288479031205"><ele>221.25</ele><time>2026-04-06T08:01:44.999Z</time></trkpt><trkpt lat="39.48551510250619" lon="16.84941541001266"><ele>221.5</ele><time>2026-04-06T08:01:45.999Z</time></trkpt><trkpt lat="39.48561541074573" lon="16.849541587836402"><ele>221.75</ele><time>2026-04-06T08:01:46.999Z</time></trkpt><trkpt lat="39.485712227896975" lon="16.84966969686369"><ele>222.0</ele><time>2026-04-06T08:01:47.999Z</time></trkpt><trkpt lat="39.485803487109834" lon="16.849785808740382"><ele>222.0</ele><time>2026-04-06T08:01:48.999Z</time></trkpt><trkpt lat="39.4858873184683" lon="16.849900762319336"><ele>222.0</ele><time>2026-04-06T08:01:50Z</time></trkpt><trkpt lat="39.485964547048724" lon="16.850016743456397"><ele>222.0</ele><time>2026-04-06T08:01:51Z</time></trkpt><trkpt lat="39.48603001159378" lon="16.850133781031566"><ele>222.0</ele><time>2026-04-06T08:01:52Z</time></trkpt><trkpt lat="39.48607612255822" lon="16.850237059791496"><ele>222.0</ele><time>2026-04-06T08:01:53Z</time></trkpt><trkpt lat="39.48612579353734" lon="16.850312795072885"><ele>222.66666666666666</ele><time>2026-04-06T08:01:54Z</time></trkpt><trkpt lat="39.48618118417807" lon="16.850356289701946"><ele>223.33333333333331</ele><time>2026-04-06T08:01:55Z</time></trkpt><trkpt lat="39.48624471418673" lon="16.85034608778961"><ele>224.0</ele><time>2026-04-06T08:01:56Z</time></trkpt><trkpt lat="39.48629850839429" lon="16.8502897082611"><ele>224.66666666666666</ele><time>2026-04-06T08:01:57Z</time></trkpt><trkpt lat="39.48632747093469" lon="16.85019773308259"><ele>225.33333333333331</ele><time>2026-04-06T08:01:58Z</time></trkpt><trkpt lat="39.486326228128284" lon="16.850080770493335"><ele>226.0</ele><time>2026-04-06T08:01:59Z</time></trkpt><trkpt lat="39.48631156179814" lon="16.84994989449416"><ele>226.0</ele><time>2026-04-06T08:02:00Z</time></trkpt><trkpt lat="39.486295450675655" lon="16.849804706592128"><ele>226.0</ele><time>2026-04-06T08:02:01Z</time></trkpt><trkpt lat="39.48628568211244" lon="16.849641524259305"><ele>226.0</ele><time>2026-04-06T08:02:02Z</time></trkpt><trkpt lat="39.4862879742287" lon="16.84947539928511"><ele>226.0</ele><time>2026-04-06T08:02:03Z</time></trkpt><trkpt lat="39.48629080517784" lon="16.8493032883253"><ele>228.0</ele><time>2026-04-06T08:02:04Z</time></trkpt><trkpt lat="39.48628760734861" lon="16.849117271197162"><ele>230.0</ele><time>2026-04-06T08:02:05Z</time></trkpt><trkpt lat="39.4862915165535" lon="16.848928241406075"><ele>232.0</ele><time>2026-04-06T08:02:06Z</time></trkpt><trkpt lat="39.4862953510831" lon="16.84873879517719"><ele>234.0</ele><time>2026-04-06T08:02:07Z</time></trkpt><trkpt lat="39.486293333969556" lon="16.848549362760675"><ele>236.25</ele><time>2026-04-06T08:02:08Z</time></trkpt><trkpt lat="39.486296471709025" lon="16.84836403553658"><ele>238.5</ele><time>2026-04-06T08:02:09Z</time></trkpt><trkpt lat="39.48630857072128" lon="16.848173286036896"><ele>240.75</ele><time>2026-04-06T08:02:10Z</time></trkpt><trkpt lat="39.48631961707728" lon="16.84798363707989"><ele>243.0</ele><time>2026-04-06T08:02:11Z</time></trkpt><trkpt lat="39.486330766751024" lon="16.84779855301506"><ele>244.75</ele><time>2026-04-06T08:02:12Z</time></trkpt><trkpt lat="39.48634599530042" lon="16.847617811705643"><ele>246.5</ele><time>2026-04-06T08:02:13Z</time></trkpt><trkpt lat="39.486359363099076" lon="16.847439418843734"><ele>248.25</ele><time>2026-04-06T08:02:14Z</time></trkpt><trkpt lat="39.48637269955347" lon="16.847265427968324"><ele>250.0</ele><time>2026-04-06T08:02:15Z</time></trkpt><trkpt lat="39.48638143819626" lon="16.847098983250042"><ele>250.0</ele><time>2026-04-06T08:02:16Z</time></trkpt><trkpt lat="39.486391439712456" lon="16.846932906620363"><ele>250.0</ele><time>2026-04-06T08:02:17Z</time></trkpt><trkpt lat="39.48640789926584" lon="16.846794116621435"><ele>250.0</ele><time>2026-04-06T08:02:18Z</time></trkpt><trkpt lat="39.48643283395352" lon="16.846675751206146"><ele>250.0</ele><time>2026-04-06T08:02:19Z</time></trkpt><trkpt lat="39.48648224028119" lon="16.846592536872937"><ele>250.0</ele><time>2026-04-06T08:02:20Z</time></trkpt><trkpt lat="39.48655168087428" lon="16.846536654186057"><ele>250.6</ele><time>2026-04-06T08:02:21Z</time></trkpt><trkpt lat="39.486639655315024" lon="16.846562523414168"><ele>251.2</ele><time>2026-04-06T08:02:22Z</time></trkpt><trkpt lat="39.48672552409566" lon="16.846568160672142"><ele>251.8</ele><time>2026-04-06T08:02:23Z</time></trkpt><trkpt lat="39.48683397201892" lon="16.84656516817002"><ele>252.4</ele><time>2026-04-06T08:02:24Z</time></trkpt><trkpt lat="39.486948712276" lon="16.846585918739258"><ele>253.0</ele><time>2026-04-06T08:02:25Z</time></trkpt><trkpt lat="39.4870609868843" lon="16.846592557461726"><ele>254.83333333333331</ele><time>2026-04-06T08:02:26Z</time></trkpt><trkpt lat="39.48715450670105" lon="16.846598408669585"><ele>256.66666666666663</ele><time>2026-04-06T08:02:27Z</time></trkpt><trkpt lat="39.48722679706628" lon="16.846587459246326"><ele>258.5</ele><time>2026-04-06T08:02:28Z</time></trkpt><trkpt lat="39.48728093707337" lon="16.846539306815135"><ele>260.3333333333333</ele><time>2026-04-06T08:02:29Z</time></trkpt><trkpt lat="39.48731611793062" lon="16.846454785600223"><ele>262.1666666666667</ele><time>2026-04-06T08:02:30Z</time></trkpt><trkpt lat="39.487318622176126" lon="16.846343644570776"><ele>264.0</ele><time>2026-04-06T08:02:31Z</time></trkpt><trkpt lat="39.48728690077054" lon="16.84621738121176"><ele>264.0</ele><time>2026-04-06T08:02:32Z</time></trkpt><trkpt lat="39.48722578635878" lon="16.846106750868717"><ele>264.0</ele><time>2026-04-06T08:02:33Z</time></trkpt><trkpt lat="39.48717400590536" lon="16.845991029292527"><ele>264.0</ele><time>2026-04-06T08:02:34Z</time></trkpt><trkpt lat="39.487150793229596" lon="16.845860513181865"><ele>264.0</ele><time>2026-04-06T08:02:35Z</time></trkpt><trkpt lat="39.487189020918095" lon="16.845733065791237"><ele>264.0</ele><time>2026-04-06T08:02:36Z</time></trkpt><trkpt lat="39.48720798549346" lon="16.845590677950753"><ele>265.0</ele><time>2026-04-06T08:02:37Z</time></trkpt><trkpt lat="39.4872396094776" lon="16.845448028679026"><ele>266.0</ele><time>2026-04-06T08:02:38Z</time></trkpt><trkpt lat="39.48723704912436" lon="16.845301745176943"><ele>267.0</ele><time>2026-04-06T08:02:39Z</time></trkpt><trkpt lat="39.487220527089434" lon="16.84517428329633"><ele>268.0</ele><time>2026-04-06T08:02:40Z</time></trkpt><trkpt lat="39.48718368034123" lon="16.845072409035545"><ele>269.0</ele><time>2026-04-06T08:02:41Z</time></trkpt><trkpt lat="39.48711717587198" lon="16.84499562509426"><ele>270.5</ele><time>2026-04-06T08:02:42Z</time></trkpt><trkpt lat="39.48702512424945" lon="16.84495647543953"><ele>272.0</ele><time>2026-04-06T08:02:43Z</time></trkpt><trkpt lat="39.486915798115234" lon="16.844947065579056"><ele>273.5</ele><time>2026-04-06T08:02:44Z</time></trkpt><trkpt lat="39.486794481685685" lon="16.844977973317945"><ele>275.0</ele><time>2026-04-06T08:02:45Z</time></trkpt><trkpt lat="39.48667336156989" lon="16.845037810475247"><ele>275.0</ele><time>2026-04-06T08:02:46Z</time></trkpt><trkpt lat="39.48655642928651" lon="16.845097779102737"><ele>275.0</ele><time>2026-04-06T08:02:47Z</time></trkpt><trkpt lat="39.486455562973596" lon="16.845165508975303"><ele>275.0</ele><time>2026-04-06T08:02:48Z</time></trkpt><trkpt lat="39.486369614533004" lon="16.84524474117842"><ele>275.0</ele><time>2026-04-06T08:02:49Z</time></trkpt><trkpt lat="39.4862860921118" lon="16.84532940317235"><ele>273.6</ele><time>2026-04-06T08:02:50Z</time></trkpt><trkpt lat="39.48620432241267" lon="16.845391250837185"><ele>272.2</ele><time>2026-04-06T08:02:51Z</time></trkpt><trkpt lat="39.4861225771167" lon="16.845423500202365"><ele>270.8</ele><time>2026-04-06T08:02:52Z</time></trkpt><trkpt lat="39.48602892631546" lon="16.845414936353222"><ele>269.4</ele><time>2026-04-06T08:02:53Z</time></trkpt><trkpt lat="39.48595017621818" lon="16.84532756705072"><ele>268.0</ele><time>2026-04-06T08:02:54Z</time></trkpt><trkpt lat="39.48585258828019" lon="16.845268699876797"><ele>268.0</ele><time>2026-04-06T08:02:55Z</time></trkpt><trkpt lat="39.485762985025154" lon="16.845171647913077"><ele>268.0</ele><time>2026-04-06T08:02:56Z</time></trkpt><trkpt lat="39.48565836534425" lon="16.845096968688747"><ele>268.0</ele><time>2026-04-06T08:02:57Z</time></trkpt><trkpt lat="39.48555736377623" lon="16.84505909470263"><ele>268.0</ele><time>2026-04-06T08:02:58Z</time></trkpt><trkpt lat="39.4854579273019" lon="16.845063331245708"><ele>268.0</ele><time>2026-04-06T08:02:59Z</time></trkpt><trkpt lat="39.48536624516063" lon="16.845113623775955"><ele>270.25</ele><time>2026-04-06T08:03:00Z</time></trkpt><trkpt lat="39.485287372403455" lon="16.845216511190063"><ele>272.5</ele><time>2026-04-06T08:03:01Z</time></trkpt><trkpt lat="39.48521408835001" lon="16.84534792176258"><ele>274.75</ele><time>2026-04-06T08:03:02Z</time></trkpt><trkpt lat="39.48513620246121" lon="16.84547581634633"><ele>277.0</ele><time>2026-04-06T08:03:03Z</time></trkpt><trkpt lat="39.485058303089744" lon="16.84559768896714"><ele>277.0</ele><time>2026-04-06T08:03:04Z</time></trkpt><trkpt lat="39.48497556659671" lon="16.845685578651803"><ele>277.0</ele><time>2026-04-06T08:03:05Z</time></trkpt><trkpt lat="39.48491793798897" lon="16.84576844052778"><ele>277.0</ele><time>2026-04-06T08:03:06Z</time></trkpt><trkpt lat="39.484865460265816" lon="16.845842129015036"><ele>277.0</ele><time>2026-04-06T08:03:07Z</time></trkpt><trkpt lat="39.4848225794787" lon="16.84590395384738"><ele>277.0</ele><time>2026-04-06T08:03:08Z</time></trkpt><trkpt lat="39.48475443110314" lon="16.84590877711262"><ele>277.0</ele><time>2026-04-06T08:03:09Z</time></trkpt><trkpt lat="39.48469119496463" lon="16.8458729874754"><ele>277.0</ele><time>2026-04-06T08:03:10Z</time></trkpt><trkpt lat="39.4846509171145" lon="16.845795930782387"><ele>277.0</ele><time>2026-04-06T08:03:11Z</time></trkpt><trkpt lat="39.48465206866205" lon="16.845709803110882"><ele>277.0</ele><time>2026-04-06T08:03:12Z</time></trkpt><trkpt lat="39.484688532956696" lon="16.845626946362543"><ele>277.0</ele><time>2026-04-06T08:03:13Z</time></trkpt><trkpt lat="39.48476327075854" lon="16.845548066565637"><ele>277.0</ele><time>2026-04-06T08:03:14Z</time></trkpt><trkpt lat="39.48485036813547" lon="16.845458479417655"><ele>277.0</ele><time>2026-04-06T08:03:15Z</time></trkpt><trkpt lat="39.484909886989804" lon="16.84533685819622"><ele>277.0</ele><time>2026-04-06T08:03:16Z</time></trkpt><trkpt lat="39.48494500097074" lon="16.845191759645804"><ele>277.0</ele><time>2026-04-06T08:03:17Z</time></trkpt><trkpt lat="39.48496237504115" lon="16.845055646517142"><ele>277.0</ele><time>2026-04-06T08:03:18Z</time></trkpt><trkpt lat="39.484980320190274" lon="16.844922300375153"><ele>277.0</ele><time>2026-04-06T08:03:19Z</time></trkpt><trkpt lat="39.48501761279197" lon="16.844804402032867"><ele>277.0</ele><time>2026-04-06T08:03:20Z</time></trkpt><trkpt lat="39.485075766367245" lon="16.844708114439353"><ele>279.8</ele><time>2026-04-06T08:03:20.999Z</time></trkpt><trkpt lat="39.48514543240626" lon="16.844622029628287"><ele>282.6</ele><time>2026-04-06T08:03:21.999Z</time></trkpt><trkpt lat="39.4852133427683" lon="16.84452008128898"><ele>285.40000000000003</ele><time>2026-04-06T08:03:22.999Z</time></trkpt><trkpt lat="39.48527269389914" lon="16.844391465466384"><ele>288.2</ele><time>2026-04-06T08:03:23.999Z</time></trkpt><trkpt lat="39.48531466862694" lon="16.844252970204124"><ele>291.0</ele><time>2026-04-06T08:03:24.999Z</time></trkpt><trkpt lat="39.48534847312052" lon="16.844129549826114"><ele>293.3333333333333</ele><time>2026-04-06T08:03:25.999Z</time></trkpt><trkpt lat="39.48538138495336" lon="16.84401337082908"><ele>295.6666666666667</ele><time>2026-04-06T08:03:26.999Z</time></trkpt><trkpt lat="39.485401451093345" lon="16.84391006090372"><ele>298.0</ele><time>2026-04-06T08:03:27.999Z</time></trkpt><trkpt lat="39.48537234910037" lon="16.843777690794656"><ele>300.33333333333337</ele><time>2026-04-06T08:03:29.999Z</time></trkpt><trkpt lat="39.48532561534583" lon="16.843717924576758"><ele>302.6666666666667</ele><time>2026-04-06T08:03:30.999Z</time></trkpt><trkpt lat="39.485248321178936" lon="16.84370663584384"><ele>305.0</ele><time>2026-04-06T08:03:31.999Z</time></trkpt><trkpt lat="39.485190931059954" lon="16.84386317659978"><ele>305.0</ele><time>2026-04-06T08:03:34.999Z</time></trkpt><trkpt lat="39.48518435681421" lon="16.844002273675446"><ele>305.0</ele><time>2026-04-06T08:03:35.999Z</time></trkpt><trkpt lat="39.485154269670346" lon="16.8441302482182"><ele>305.0</ele><time>2026-04-06T08:03:36.999Z</time></trkpt><trkpt lat="39.48511022651517" lon="16.844238083556633"><ele>305.0</ele><time>2026-04-06T08:03:37.999Z</time></trkpt><trkpt lat="39.48503489372291" lon="16.844285595541105"><ele>305.0</ele><time>2026-04-06T08:03:38.999Z</time></trkpt><trkpt lat="39.484952219354994" lon="16.84434458942198"><ele>305.0</ele><time>2026-04-06T08:03:39.999Z</time></trkpt><trkpt lat="39.484873005204335" lon="16.844400205681275"><ele>305.0</ele><time>2026-04-06T08:03:40.999Z</time></trkpt><trkpt lat="39.484808682687316" lon="16.844422305067816"><ele>305.0</ele><time>2026-04-06T08:03:41.999Z</time></trkpt><trkpt lat="39.484727566757755" lon="16.8443390729084"><ele>305.0</ele><time>2026-04-06T08:03:43.999Z</time></trkpt><trkpt lat="39.484731795139695" lon="16.844241612011576"><ele>305.0</ele><time>2026-04-06T08:03:44.999Z</time></trkpt><trkpt lat="39.48477531352456" lon="16.8441517268884"><ele>305.0</ele><time>2026-04-06T08:03:45.999Z</time></trkpt><trkpt lat="39.48487270894874" lon="16.84409228125896"><ele>305.0</ele><time>2026-04-06T08:03:46.999Z</time></trkpt><trkpt lat="39.484961037614795" lon="16.843980186594393"><ele>305.0</ele><time>2026-04-06T08:03:47.999Z</time></trkpt><trkpt lat="39.485034855407385" lon="16.843897281565994"><ele>305.0</ele><time>2026-04-06T08:03:48.999Z</time></trkpt><trkpt lat="39.48507225224979" lon="16.843782232414593"><ele>305.0</ele><time>2026-04-06T08:03:49.999Z</time></trkpt><trkpt lat="39.48508424115313" lon="16.84365582513433"><ele>305.0</ele><time>2026-04-06T08:03:50.999Z</time></trkpt><trkpt lat="39.485060139476055" lon="16.84353898461674"><ele>305.0</ele><time>2026-04-06T08:03:51.999Z</time></trkpt><trkpt lat="39.4849976345403" lon="16.843461591957748"><ele>305.0</ele><time>2026-04-06T08:03:52.999Z</time></trkpt><trkpt lat="39.48491262678427" lon="16.843433364135983"><ele>305.0</ele><time>2026-04-06T08:03:53.999Z</time></trkpt><trkpt lat="39.4848159910424" lon="16.843441431336174"><ele>305.0</ele><time>2026-04-06T08:03:54.999Z</time></trkpt><trkpt lat="39.48471795063099" lon="16.84349832172577"><ele>305.0</ele><time>2026-04-06T08:03:56Z</time></trkpt><trkpt lat="39.484613721562376" lon="16.843512845378907"><ele>305.8</ele><time>2026-04-06T08:03:57Z</time></trkpt><trkpt lat="39.48451814139061" lon="16.84347104149886"><ele>306.6</ele><time>2026-04-06T08:03:58Z</time></trkpt><trkpt lat="39.48442830398199" lon="16.843411394225456"><ele>307.4</ele><time>2026-04-06T08:03:59Z</time></trkpt><trkpt lat="39.484357462892056" lon="16.843327308170565"><ele>308.2</ele><time>2026-04-06T08:04:00Z</time></trkpt><trkpt lat="39.48431695053123" lon="16.843239559488424"><ele>309.0</ele><time>2026-04-06T08:04:01Z</time></trkpt><trkpt lat="39.48434345761342" lon="16.843146468833417"><ele>310.0</ele><time>2026-04-06T08:04:02Z</time></trkpt><trkpt lat="39.484400340935316" lon="16.843073493240283"><ele>311.0</ele><time>2026-04-06T08:04:03Z</time></trkpt><trkpt lat="39.484489187994775" lon="16.843012848859964"><ele>312.0</ele><time>2026-04-06T08:04:04Z</time></trkpt><trkpt lat="39.48463111808082" lon="16.84303355531088"><ele>313.0</ele><time>2026-04-06T08:04:05Z</time></trkpt><trkpt lat="39.48475080185834" lon="16.84300328192774"><ele>314.0</ele><time>2026-04-06T08:04:06Z</time></trkpt><trkpt lat="39.484862531707" lon="16.842995065746145"><ele>314.0</ele><time>2026-04-06T08:04:07Z</time></trkpt><trkpt lat="39.48496442611698" lon="16.842977903356857"><ele>314.0</ele><time>2026-04-06T08:04:08Z</time></trkpt><trkpt lat="39.48506241411222" lon="16.842942625841026"><ele>314.0</ele><time>2026-04-06T08:04:09Z</time></trkpt><trkpt lat="39.48515296331738" lon="16.842855954436395"><ele>314.0</ele><time>2026-04-06T08:04:10Z</time></trkpt><trkpt lat="39.48522444761302" lon="16.842731592277335"><ele>314.0</ele><time>2026-04-06T08:04:11Z</time></trkpt><trkpt lat="39.485272114710654" lon="16.84258211428519"><ele>317.25</ele><time>2026-04-06T08:04:12Z</time></trkpt><trkpt lat="39.485297248027805" lon="16.842427186813953"><ele>320.5</ele><time>2026-04-06T08:04:13Z</time></trkpt><trkpt lat="39.48531702178967" lon="16.84227744580614"><ele>323.75</ele><time>2026-04-06T08:04:14Z</time></trkpt><trkpt lat="39.48534145622736" lon="16.842129724225792"><ele>327.0</ele><time>2026-04-06T08:04:15Z</time></trkpt><trkpt lat="39.48539503291681" lon="16.842003337623545"><ele>326.5</ele><time>2026-04-06T08:04:16Z</time></trkpt><trkpt lat="39.48549900700601" lon="16.84192716000933"><ele>326.0</ele><time>2026-04-06T08:04:17Z</time></trkpt><trkpt lat="39.485585500225184" lon="16.841807778756433"><ele>325.5</ele><time>2026-04-06T08:04:18Z</time></trkpt><trkpt lat="39.48569441835543" lon="16.84170037438234"><ele>325.0</ele><time>2026-04-06T08:04:19Z</time></trkpt><trkpt lat="39.485793414777284" lon="16.841583772732193"><ele>327.25</ele><time>2026-04-06T08:04:20Z</time></trkpt><trkpt lat="39.48589703927963" lon="16.84146254116131"><ele>329.5</ele><time>2026-04-06T08:04:21Z</time></trkpt><trkpt lat="39.485998332720875" lon="16.841342838640497"><ele>331.75</ele><time>2026-04-06T08:04:22Z</time></trkpt><trkpt lat="39.48608645953945" lon="16.84122885752019"><ele>334.0</ele><time>2026-04-06T08:04:23Z</time></trkpt><trkpt lat="39.486159614111614" lon="16.84111784520073"><ele>334.0</ele><time>2026-04-06T08:04:24Z</time></trkpt><trkpt lat="39.48621548422435" lon="16.841005944627273"><ele>334.0</ele><time>2026-04-06T08:04:25Z</time></trkpt><trkpt lat="39.48625472149413" lon="16.84088313158227"><ele>334.0</ele><time>2026-04-06T08:04:26Z</time></trkpt><trkpt lat="39.486276910435734" lon="16.840753654446974"><ele>334.0</ele><time>2026-04-06T08:04:27Z</time></trkpt><trkpt lat="39.486284113092545" lon="16.84062816460495"><ele>334.0</ele><time>2026-04-06T08:04:28Z</time></trkpt><trkpt lat="39.486294650503886" lon="16.840503319165986"><ele>334.0</ele><time>2026-04-06T08:04:29Z</time></trkpt><trkpt lat="39.486309679534656" lon="16.840374478659264"><ele>334.0</ele><time>2026-04-06T08:04:30Z</time></trkpt><trkpt lat="39.48632981936364" lon="16.840223673082754"><ele>334.0</ele><time>2026-04-06T08:04:31Z</time></trkpt><trkpt lat="39.48635005008696" lon="16.840064987621453"><ele>334.0</ele><time>2026-04-06T08:04:32Z</time></trkpt><trkpt lat="39.48636387085756" lon="16.83990025514161"><ele>334.0</ele><time>2026-04-06T08:04:33Z</time></trkpt><trkpt lat="39.48638381920489" lon="16.83973811434106"><ele>334.0</ele><time>2026-04-06T08:04:34Z</time></trkpt><trkpt lat="39.48641365945382" lon="16.839593093365817"><ele>334.0</ele><time>2026-04-06T08:04:35Z</time></trkpt><trkpt lat="39.48645876306337" lon="16.83947254539519"><ele>334.0</ele><time>2026-04-06T08:04:36Z</time></trkpt><trkpt lat="39.486529671242934" lon="16.839390744073153"><ele>334.0</ele><time>2026-04-06T08:04:37Z</time></trkpt><trkpt lat="39.48660755306669" lon="16.839343325202137"><ele>336.3333333333333</ele><time>2026-04-06T08:04:38Z</time></trkpt><trkpt lat="39.486666054633695" lon="16.839278425414097"><ele>338.66666666666663</ele><time>2026-04-06T08:04:39Z</time></trkpt><trkpt lat="39.48673192471646" lon="16.839237278869373"><ele>341.0</ele><time>2026-04-06T08:04:40Z</time></trkpt><trkpt lat="39.4867611281258" lon="16.839159928101676"><ele>343.3333333333333</ele><time>2026-04-06T08:04:41Z</time></trkpt><trkpt lat="39.48669476847722" lon="16.839030432497687"><ele>345.6666666666667</ele><time>2026-04-06T08:04:43Z</time></trkpt><trkpt lat="39.48662648435733" lon="16.839034134186026"><ele>348.0</ele><time>2026-04-06T08:04:44Z</time></trkpt><trkpt lat="39.48656035267565" lon="16.83909718524158"><ele>348.0</ele><time>2026-04-06T08:04:45Z</time></trkpt><trkpt lat="39.48650061983125" lon="16.83919458503847"><ele>348.0</ele><time>2026-04-06T08:04:46Z</time></trkpt><trkpt lat="39.48642180948812" lon="16.83926845352183"><ele>348.0</ele><time>2026-04-06T08:04:47Z</time></trkpt><trkpt lat="39.48635363118264" lon="16.83937894693206"><ele>348.0</ele><time>2026-04-06T08:04:48Z</time></trkpt><trkpt lat="39.4862740282742" lon="16.839491538595556"><ele>348.0</ele><time>2026-04-06T08:04:49Z</time></trkpt><trkpt lat="39.48622693739683" lon="16.839644029484937"><ele>350.25</ele><time>2026-04-06T08:04:50Z</time></trkpt><trkpt lat="39.48618933793007" lon="16.83979539569208"><ele>352.5</ele><time>2026-04-06T08:04:51Z</time></trkpt><trkpt lat="39.48611577678348" lon="16.83990689054292"><ele>354.75</ele><time>2026-04-06T08:04:52Z</time></trkpt><trkpt lat="39.48603896411703" lon="16.840007088501824"><ele>357.0</ele><time>2026-04-06T08:04:53Z</time></trkpt><trkpt lat="39.48594265145234" lon="16.84008483759769"><ele>357.25</ele><time>2026-04-06T08:04:54Z</time></trkpt><trkpt lat="39.48583064576583" lon="16.840140014475438"><ele>357.5</ele><time>2026-04-06T08:04:55Z</time></trkpt><trkpt lat="39.485707620868" lon="16.84020003153568"><ele>357.75</ele><time>2026-04-06T08:04:56Z</time></trkpt><trkpt lat="39.48557016793902" lon="16.840230134696355"><ele>358.0</ele><time>2026-04-06T08:04:57Z</time></trkpt><trkpt lat="39.48542804326383" lon="16.84029179267328"><ele>358.0</ele><time>2026-04-06T08:04:58Z</time></trkpt><trkpt lat="39.485290147186646" lon="16.84035505154711"><ele>358.0</ele><time>2026-04-06T08:04:59Z</time></trkpt><trkpt lat="39.48517055336038" lon="16.84040757673521"><ele>358.0</ele><time>2026-04-06T08:05:00Z</time></trkpt><trkpt lat="39.485061779647765" lon="16.840495233849456"><ele>358.0</ele><time>2026-04-06T08:05:01Z</time></trkpt><trkpt lat="39.48496707182871" lon="16.84061893166248"><ele>358.0</ele><time>2026-04-06T08:05:02Z</time></trkpt><trkpt lat="39.484889494570965" lon="16.840763865782964"><ele>358.0</ele><time>2026-04-06T08:05:03Z</time></trkpt><trkpt lat="39.48480934311725" lon="16.840891355002928"><ele>358.0</ele><time>2026-04-06T08:05:04Z</time></trkpt><trkpt lat="39.484717419813855" lon="16.840936757948086"><ele>358.0</ele><time>2026-04-06T08:05:05Z</time></trkpt><trkpt lat="39.484620065158346" lon="16.840940985332416"><ele>357.75</ele><time>2026-04-06T08:05:06Z</time></trkpt><trkpt lat="39.48449460241106" lon="16.84097015185866"><ele>357.5</ele><time>2026-04-06T08:05:07Z</time></trkpt><trkpt lat="39.48434448917941" lon="16.840965098644126"><ele>357.25</ele><time>2026-04-06T08:05:08Z</time></trkpt><trkpt lat="39.4841876333515" lon="16.84099538044064"><ele>357.0</ele><time>2026-04-06T08:05:09Z</time></trkpt><trkpt lat="39.484035069667996" lon="16.841046209976497"><ele>357.0</ele><time>2026-04-06T08:05:10Z</time></trkpt><trkpt lat="39.48389040129294" lon="16.841113749797056"><ele>357.0</ele><time>2026-04-06T08:05:11Z</time></trkpt><trkpt lat="39.4837487217115" lon="16.841179893339756"><ele>357.0</ele><time>2026-04-06T08:05:12Z</time></trkpt><trkpt lat="39.4836110113064" lon="16.841204160161467"><ele>357.0</ele><time>2026-04-06T08:05:13Z</time></trkpt><trkpt lat="39.48348718464143" lon="16.841202090682593"><ele>360.5</ele><time>2026-04-06T08:05:14Z</time></trkpt><trkpt lat="39.48338051011095" lon="16.841216702714735"><ele>364.0</ele><time>2026-04-06T08:05:15Z</time></trkpt><trkpt lat="39.48329129046177" lon="16.841290522858294"><ele>367.5</ele><time>2026-04-06T08:05:16Z</time></trkpt><trkpt lat="39.48322481136477" lon="16.84140745957404"><ele>371.0</ele><time>2026-04-06T08:05:16.999Z</time></trkpt><trkpt lat="39.483158550086834" lon="16.841546219574813"><ele>371.0</ele><time>2026-04-06T08:05:17.999Z</time></trkpt><trkpt lat="39.48307395390586" lon="16.84166648447373"><ele>371.0</ele><time>2026-04-06T08:05:18.999Z</time></trkpt><trkpt lat="39.48298025909307" lon="16.841780147049114"><ele>371.0</ele><time>2026-04-06T08:05:19.999Z</time></trkpt><trkpt lat="39.48289232663385" lon="16.84190745569979"><ele>371.0</ele><time>2026-04-06T08:05:20.999Z</time></trkpt><trkpt lat="39.48281267011152" lon="16.842039004046665"><ele>372.4</ele><time>2026-04-06T08:05:21.999Z</time></trkpt><trkpt lat="39.482730922742974" lon="16.842159824398497"><ele>373.8</ele><time>2026-04-06T08:05:22.999Z</time></trkpt><trkpt lat="39.48266176321203" lon="16.842267004855245"><ele>375.2</ele><time>2026-04-06T08:05:23.999Z</time></trkpt><trkpt lat="39.48258033408655" lon="16.84234383168171"><ele>376.59999999999997</ele><time>2026-04-06T08:05:24.999Z</time></trkpt><trkpt lat="39.482475779701694" lon="16.842395473563343"><ele>378.0</ele><time>2026-04-06T08:05:25.999Z</time></trkpt><trkpt lat="39.482363666697104" lon="16.842412080963648"><ele>378.0</ele><time>2026-04-06T08:05:26.999Z</time></trkpt><trkpt lat="39.48224651727182" lon="16.84239139303068"><ele>378.0</ele><time>2026-04-06T08:05:27.999Z</time></trkpt><trkpt lat="39.48213371144665" lon="16.842341191733517"><ele>378.0</ele><time>2026-04-06T08:05:28.999Z</time></trkpt><trkpt lat="39.48202453552748" lon="16.84227007124679"><ele>378.0</ele><time>2026-04-06T08:05:29.999Z</time></trkpt><trkpt lat="39.48191604070426" lon="16.84219657915159"><ele>379.0</ele><time>2026-04-06T08:05:30.999Z</time></trkpt><trkpt lat="39.481801439489836" lon="16.84213989796853"><ele>380.0</ele><time>2026-04-06T08:05:31.999Z</time></trkpt><trkpt lat="39.48168300792699" lon="16.842106203395694"><ele>381.0</ele><time>2026-04-06T08:05:32.999Z</time></trkpt><trkpt lat="39.48155873857545" lon="16.842115484860187"><ele>382.0</ele><time>2026-04-06T08:05:33.999Z</time></trkpt><trkpt lat="39.48143541247785" lon="16.84216802093413"><ele>382.0</ele><time>2026-04-06T08:05:34.999Z</time></trkpt><trkpt lat="39.481310086795084" lon="16.84222193448988"><ele>382.0</ele><time>2026-04-06T08:05:35.999Z</time></trkpt><trkpt lat="39.481192913972095" lon="16.84225098388163"><ele>382.0</ele><time>2026-04-06T08:05:36.999Z</time></trkpt><trkpt lat="39.48109501947202" lon="16.84224155492589"><ele>382.0</ele><time>2026-04-06T08:05:37.999Z</time></trkpt><trkpt lat="39.48100543069417" lon="16.842208257876646"><ele>382.0</ele><time>2026-04-06T08:05:38.999Z</time></trkpt><trkpt lat="39.48094344191697" lon="16.842143520617185"><ele>382.20000000000005</ele><time>2026-04-06T08:05:39.999Z</time></trkpt><trkpt lat="39.48090669093914" lon="16.842049028159373"><ele>382.4</ele><time>2026-04-06T08:05:40.999Z</time></trkpt><trkpt lat="39.480881884887765" lon="16.841918048811415"><ele>382.6</ele><time>2026-04-06T08:05:41.999Z</time></trkpt><trkpt lat="39.480844393189436" lon="16.841787318479664"><ele>382.79999999999995</ele><time>2026-04-06T08:05:42.999Z</time></trkpt><trkpt lat="39.4807773353897" lon="16.8416960420975"><ele>383.0</ele><time>2026-04-06T08:05:43.999Z</time></trkpt><trkpt lat="39.480685016163854" lon="16.841645553986222"><ele>387.0</ele><time>2026-04-06T08:05:44.999Z</time></trkpt><trkpt lat="39.48057732820356" lon="16.841641075466097"><ele>391.0</ele><time>2026-04-06T08:05:45.999Z</time></trkpt><trkpt lat="39.48046409099992" lon="16.841672891776156"><ele>395.0</ele><time>2026-04-06T08:05:46.999Z</time></trkpt><trkpt lat="39.48036001513146" lon="16.84174799395476"><ele>399.0</ele><time>2026-04-06T08:05:47.999Z</time></trkpt><trkpt lat="39.48027150456554" lon="16.84186702098993"><ele>399.0</ele><time>2026-04-06T08:05:48.999Z</time></trkpt><trkpt lat="39.48019473379705" lon="16.841999751980726"><ele>399.0</ele><time>2026-04-06T08:05:49.999Z</time></trkpt><trkpt lat="39.480122215493985" lon="16.842131191418392"><ele>399.0</ele><time>2026-04-06T08:05:50.999Z</time></trkpt><trkpt lat="39.48006758652973" lon="16.84226809081806"><ele>399.0</ele><time>2026-04-06T08:05:51.999Z</time></trkpt><trkpt lat="39.480029298572184" lon="16.842368986561972"><ele>399.0</ele><time>2026-04-06T08:05:52.999Z</time></trkpt><trkpt lat="39.47996359124426" lon="16.84241167513121"><ele>399.0</ele><time>2026-04-06T08:05:53.999Z</time></trkpt><trkpt lat="39.47990285293031" lon="16.84245594764634"><ele>399.0</ele><time>2026-04-06T08:05:54.999Z</time></trkpt><trkpt lat="39.47978038584303" lon="16.842352186304108"><ele>399.0</ele><time>2026-04-06T08:05:56.999Z</time></trkpt><trkpt lat="39.47972409180994" lon="16.842244345679276"><ele>399.0</ele><time>2026-04-06T08:05:57.999Z</time></trkpt><trkpt lat="39.47965264929925" lon="16.842120294617448"><ele>399.25</ele><time>2026-04-06T08:05:58.999Z</time></trkpt><trkpt lat="39.47957159063444" lon="16.841997877404644"><ele>399.5</ele><time>2026-04-06T08:05:59.999Z</time></trkpt><trkpt lat="39.47949180905649" lon="16.841883092480938"><ele>399.75</ele><time>2026-04-06T08:06:00.999Z</time></trkpt><trkpt lat="39.479404908899966" lon="16.84179880308866"><ele>400.0</ele><time>2026-04-06T08:06:02Z</time></trkpt><trkpt lat="39.479306576131385" lon="16.84177357690824"><ele>400.0</ele><time>2026-04-06T08:06:03Z</time></trkpt><trkpt lat="39.47920041281892" lon="16.84178441853183"><ele>400.0</ele><time>2026-04-06T08:06:04Z</time></trkpt><trkpt lat="39.47908457989397" lon="16.841847688152114"><ele>400.0</ele><time>2026-04-06T08:06:05Z</time></trkpt><trkpt lat="39.47897976654196" lon="16.841933819667386"><ele>400.0</ele><time>2026-04-06T08:06:06Z</time></trkpt><trkpt lat="39.478898802777316" lon="16.84201120916162"><ele>400.0</ele><time>2026-04-06T08:06:07Z</time></trkpt><trkpt lat="39.47881441354792" lon="16.842037435807885"><ele>400.0</ele><time>2026-04-06T08:06:08Z</time></trkpt><trkpt lat="39.47872107847583" lon="16.84201304547796"><ele>400.0</ele><time>2026-04-06T08:06:09Z</time></trkpt><trkpt lat="39.478631233289725" lon="16.841952051257802"><ele>400.0</ele><time>2026-04-06T08:06:10Z</time></trkpt><trkpt lat="39.47853980478198" lon="16.841901800088515"><ele>400.0</ele><time>2026-04-06T08:06:11Z</time></trkpt><trkpt lat="39.47844663180495" lon="16.841932924250816"><ele>401.8</ele><time>2026-04-06T08:06:12Z</time></trkpt><trkpt lat="39.47836687265006" lon="16.842007149103743"><ele>403.6</ele><time>2026-04-06T08:06:13Z</time></trkpt><trkpt lat="39.47830811043385" lon="16.842129155037913"><ele>405.4</ele><time>2026-04-06T08:06:14Z</time></trkpt><trkpt lat="39.47823694683666" lon="16.842236727108155"><ele>407.2</ele><time>2026-04-06T08:06:15Z</time></trkpt><trkpt lat="39.47818355469616" lon="16.842323631745572"><ele>409.0</ele><time>2026-04-06T08:06:16Z</time></trkpt><trkpt lat="39.478102088041084" lon="16.842350801512044"><ele>409.0</ele><time>2026-04-06T08:06:17Z</time></trkpt><trkpt lat="39.4780127677867" lon="16.84233052785467"><ele>409.0</ele><time>2026-04-06T08:06:18Z</time></trkpt><trkpt lat="39.47792523384423" lon="16.842280287647238"><ele>409.0</ele><time>2026-04-06T08:06:19Z</time></trkpt><trkpt lat="39.47782539992103" lon="16.842225470392183"><ele>409.0</ele><time>2026-04-06T08:06:20Z</time></trkpt><trkpt lat="39.47773230122274" lon="16.842149108472903"><ele>409.0</ele><time>2026-04-06T08:06:21Z</time></trkpt><trkpt lat="39.477668516393976" lon="16.842047552409564"><ele>411.0</ele><time>2026-04-06T08:06:22Z</time></trkpt><trkpt lat="39.4776244208257" lon="16.84191918398273"><ele>413.0</ele><time>2026-04-06T08:06:23Z</time></trkpt><trkpt lat="39.477590505018405" lon="16.841783042921232"><ele>415.0</ele><time>2026-04-06T08:06:24Z</time></trkpt><trkpt lat="39.4775463101908" lon="16.841652228076118"><ele>417.0</ele><time>2026-04-06T08:06:25Z</time></trkpt><trkpt lat="39.47747546791753" lon="16.841534255762912"><ele>419.0</ele><time>2026-04-06T08:06:26Z</time></trkpt><trkpt lat="39.47737796215032" lon="16.84142946488355"><ele>420.0</ele><time>2026-04-06T08:06:27Z</time></trkpt><trkpt lat="39.477263076118795" lon="16.84133581235983"><ele>421.0</ele><time>2026-04-06T08:06:28Z</time></trkpt><trkpt lat="39.47715643301444" lon="16.841254139947115"><ele>422.0</ele><time>2026-04-06T08:06:29Z</time></trkpt><trkpt lat="39.47709924970996" lon="16.84116511955276"><ele>423.0</ele><time>2026-04-06T08:06:30Z</time></trkpt><trkpt lat="39.47707696939188" lon="16.84106585494381"><ele>424.0</ele><time>2026-04-06T08:06:31Z</time></trkpt><trkpt lat="39.47708494570285" lon="16.84096765080783"><ele>424.2</ele><time>2026-04-06T08:06:32Z</time></trkpt><trkpt lat="39.477109573986276" lon="16.84085150121742"><ele>424.4</ele><time>2026-04-06T08:06:33Z</time></trkpt><trkpt lat="39.477142762325755" lon="16.840726281307987"><ele>424.6</ele><time>2026-04-06T08:06:34Z</time></trkpt><trkpt lat="39.47717615037082" lon="16.840585662965072"><ele>424.8</ele><time>2026-04-06T08:06:35Z</time></trkpt><trkpt lat="39.47722213208139" lon="16.84044036877743"><ele>425.0</ele><time>2026-04-06T08:06:36Z</time></trkpt><trkpt lat="39.47726770458588" lon="16.8402969174079"><ele>425.0</ele><time>2026-04-06T08:06:37Z</time></trkpt><trkpt lat="39.477319770635205" lon="16.840169029272566"><ele>425.0</ele><time>2026-04-06T08:06:38Z</time></trkpt><trkpt lat="39.47735435722317" lon="16.840053149019734"><ele>425.0</ele><time>2026-04-06T08:06:39Z</time></trkpt><trkpt lat="39.47738503069593" lon="16.839943257512402"><ele>425.0</ele><time>2026-04-06T08:06:40Z</time></trkpt><trkpt lat="39.47736926446199" lon="16.839822710634234"><ele>425.0</ele><time>2026-04-06T08:06:41Z</time></trkpt><trkpt lat="39.47731186207807" lon="16.839727664819133"><ele>425.75</ele><time>2026-04-06T08:06:42Z</time></trkpt><trkpt lat="39.4772295241795" lon="16.839665539319622"><ele>426.5</ele><time>2026-04-06T08:06:43Z</time></trkpt><trkpt lat="39.477120732508126" lon="16.839626434531958"><ele>427.25</ele><time>2026-04-06T08:06:44Z</time></trkpt><trkpt lat="39.477001799612765" lon="16.839578899817127"><ele>428.0</ele><time>2026-04-06T08:06:45Z</time></trkpt><trkpt lat="39.47687957775616" lon="16.839518251958488"><ele>431.25</ele><time>2026-04-06T08:06:46Z</time></trkpt><trkpt lat="39.476754380299575" lon="16.83945161292547"><ele>434.5</ele><time>2026-04-06T08:06:47Z</time></trkpt><trkpt lat="39.47662722485795" lon="16.83937994187287"><ele>437.75</ele><time>2026-04-06T08:06:48Z</time></trkpt><trkpt lat="39.47650465189236" lon="16.839301338378572"><ele>441.0</ele><time>2026-04-06T08:06:49Z</time></trkpt><trkpt lat="39.47638936108885" lon="16.839220256934375"><ele>441.0</ele><time>2026-04-06T08:06:50Z</time></trkpt><trkpt lat="39.47627082450842" lon="16.83913919659153"><ele>441.0</ele><time>2026-04-06T08:06:51Z</time></trkpt><trkpt lat="39.47616281740035" lon="16.83906732001225"><ele>441.0</ele><time>2026-04-06T08:06:52Z</time></trkpt><trkpt lat="39.47606760403235" lon="16.839016153592244"><ele>441.0</ele><time>2026-04-06T08:06:53Z</time></trkpt><trkpt lat="39.47597703243635" lon="16.839007145506248"><ele>441.0</ele><time>2026-04-06T08:06:54Z</time></trkpt><trkpt lat="39.475891781664785" lon="16.839052237334823"><ele>441.0</ele><time>2026-04-06T08:06:55Z</time></trkpt><trkpt lat="39.47581131375441" lon="16.83913704620634"><ele>441.0</ele><time>2026-04-06T08:06:56Z</time></trkpt><trkpt lat="39.47573603638562" lon="16.839240902262667"><ele>441.0</ele><time>2026-04-06T08:06:57Z</time></trkpt><trkpt lat="39.475642265974265" lon="16.839320069905234"><ele>441.0</ele><time>2026-04-06T08:06:58Z</time></trkpt><trkpt lat="39.47554454356626" lon="16.839399032690363"><ele>441.0</ele><time>2026-04-06T08:06:59Z</time></trkpt><trkpt lat="39.47543406338793" lon="16.839434181400524"><ele>440.8</ele><time>2026-04-06T08:07:00Z</time></trkpt><trkpt lat="39.475328639044584" lon="16.839401175650913"><ele>440.6</ele><time>2026-04-06T08:07:01Z</time></trkpt><trkpt lat="39.47523070584456" lon="16.8393549149801"><ele>440.4</ele><time>2026-04-06T08:07:02Z</time></trkpt><trkpt lat="39.475123071260526" lon="16.839305089017582"><ele>440.2</ele><time>2026-04-06T08:07:03Z</time></trkpt><trkpt lat="39.47502308283383" lon="16.839225361696176"><ele>440.0</ele><time>2026-04-06T08:07:04Z</time></trkpt><trkpt lat="39.47491731768626" lon="16.839138631711112"><ele>443.0</ele><time>2026-04-06T08:07:05Z</time></trkpt><trkpt lat="39.47481579664393" lon="16.83905083155526"><ele>446.0</ele><time>2026-04-06T08:07:06Z</time></trkpt><trkpt lat="39.47472133497586" lon="16.838958505329895"><ele>449.0</ele><time>2026-04-06T08:07:07Z</time></trkpt><trkpt lat="39.474620311330014" lon="16.83886437034709"><ele>452.0</ele><time>2026-04-06T08:07:08Z</time></trkpt><trkpt lat="39.47451862293734" lon="16.83875733358628"><ele>454.66666666666663</ele><time>2026-04-06T08:07:09Z</time></trkpt><trkpt lat="39.474389025701875" lon="16.838656586780047"><ele>457.33333333333337</ele><time>2026-04-06T08:07:10Z</time></trkpt><trkpt lat="39.47424687197714" lon="16.8385758837842"><ele>460.0</ele><time>2026-04-06T08:07:11Z</time></trkpt><trkpt lat="39.474115915873085" lon="16.838498440669213"><ele>460.0</ele><time>2026-04-06T08:07:11.999Z</time></trkpt><trkpt lat="39.47401162403689" lon="16.838396861267793"><ele>460.0</ele><time>2026-04-06T08:07:12.999Z</time></trkpt><trkpt lat="39.47392754045657" lon="16.838283457356653"><ele>460.0</ele><time>2026-04-06T08:07:13.999Z</time></trkpt><trkpt lat="39.473837811986805" lon="16.838176483433813"><ele>460.0</ele><time>2026-04-06T08:07:14.999Z</time></trkpt><trkpt lat="39.473739934495434" lon="16.838076355775915"><ele>462.25</ele><time>2026-04-06T08:07:15.999Z</time></trkpt><trkpt lat="39.47362452914388" lon="16.83799826297917"><ele>464.5</ele><time>2026-04-06T08:07:16.999Z</time></trkpt><trkpt lat="39.47350110314813" lon="16.837946654991377"><ele>466.75</ele><time>2026-04-06T08:07:17.999Z</time></trkpt><trkpt lat="39.47338394302964" lon="16.83792089088155"><ele>469.0</ele><time>2026-04-06T08:07:18.999Z</time></trkpt><trkpt lat="39.47329171371225" lon="16.837864930332753"><ele>469.0</ele><time>2026-04-06T08:07:19.999Z</time></trkpt><trkpt lat="39.47321926610871" lon="16.83776608779434"><ele>469.0</ele><time>2026-04-06T08:07:20.999Z</time></trkpt><trkpt lat="39.473163778246565" lon="16.83765374697755"><ele>469.0</ele><time>2026-04-06T08:07:21.999Z</time></trkpt><trkpt lat="39.47308273840575" lon="16.837572848356665"><ele>469.0</ele><time>2026-04-06T08:07:22.999Z</time></trkpt><trkpt lat="39.472980267218304" lon="16.837561471753762"><ele>469.0</ele><time>2026-04-06T08:07:23.999Z</time></trkpt><trkpt lat="39.47288067058523" lon="16.8376079340989"><ele>470.2</ele><time>2026-04-06T08:07:24.999Z</time></trkpt><trkpt lat="39.47277932584481" lon="16.837688720657553"><ele>471.4</ele><time>2026-04-06T08:07:25.999Z</time></trkpt><trkpt lat="39.47270056054438" lon="16.837771078589068"><ele>472.6</ele><time>2026-04-06T08:07:26.999Z</time></trkpt><trkpt lat="39.472621642839286" lon="16.83784638665439"><ele>473.8</ele><time>2026-04-06T08:07:27.999Z</time></trkpt><trkpt lat="39.47252316285966" lon="16.837898074006713"><ele>475.0</ele><time>2026-04-06T08:07:28.999Z</time></trkpt><trkpt lat="39.472420622043664" lon="16.837862350894177"><ele>475.0</ele><time>2026-04-06T08:07:29.999Z</time></trkpt><trkpt lat="39.47230217686263" lon="16.837853671369025"><ele>475.0</ele><time>2026-04-06T08:07:30.999Z</time></trkpt><trkpt lat="39.472184841128175" lon="16.83780000737418"><ele>475.0</ele><time>2026-04-06T08:07:31.999Z</time></trkpt><trkpt lat="39.47206209250399" lon="16.83774612823032"><ele>475.0</ele><time>2026-04-06T08:07:32.999Z</time></trkpt><trkpt lat="39.471925767061535" lon="16.83767881717519"><ele>477.33333333333337</ele><time>2026-04-06T08:07:33.999Z</time></trkpt><trkpt lat="39.47177183979965" lon="16.83766331991396"><ele>479.66666666666663</ele><time>2026-04-06T08:07:34.999Z</time></trkpt><trkpt lat="39.47161359878864" lon="16.837681583543773"><ele>482.0</ele><time>2026-04-06T08:07:35.999Z</time></trkpt><trkpt lat="39.47147069340502" lon="16.837663160323636"><ele>482.0</ele><time>2026-04-06T08:07:36.999Z</time></trkpt><trkpt lat="39.47134387334369" lon="16.837641615291453"><ele>482.00000000000006</ele><time>2026-04-06T08:07:37.999Z</time></trkpt><trkpt lat="39.471238529805376" lon="16.837678598945814"><ele>482.00000000000006</ele><time>2026-04-06T08:07:38.999Z</time></trkpt><trkpt lat="39.47114715842149" lon="16.837742057327237"><ele>482.0</ele><time>2026-04-06T08:07:39.999Z</time></trkpt><trkpt lat="39.471075504353124" lon="16.837829898300196"><ele>482.0</ele><time>2026-04-06T08:07:40.999Z</time></trkpt><trkpt lat="39.47102811885009" lon="16.837956263559313"><ele>486.75</ele><time>2026-04-06T08:07:41.999Z</time></trkpt><trkpt lat="39.47099160933502" lon="16.83811063347535"><ele>491.5</ele><time>2026-04-06T08:07:42.999Z</time></trkpt><trkpt lat="39.47093894032285" lon="16.838254711015555"><ele>496.25</ele><time>2026-04-06T08:07:43.999Z</time></trkpt><trkpt lat="39.470875225540155" lon="16.838390166939952"><ele>501.0</ele><time>2026-04-06T08:07:44.999Z</time></trkpt><trkpt lat="39.47084362527034" lon="16.8385323411892"><ele>501.0</ele><time>2026-04-06T08:07:45.999Z</time></trkpt><trkpt lat="39.470850864748805" lon="16.838674120884715"><ele>501.0</ele><time>2026-04-06T08:07:46.999Z</time></trkpt><trkpt lat="39.47089185824451" lon="16.838805085017846"><ele>501.0</ele><time>2026-04-06T08:07:47.999Z</time></trkpt><trkpt lat="39.47096168341902" lon="16.838922735412996"><ele>501.0</ele><time>2026-04-06T08:07:48.999Z</time></trkpt><trkpt lat="39.47098477858459" lon="16.83905816045893"><ele>501.0</ele><time>2026-04-06T08:07:49.999Z</time></trkpt><trkpt lat="39.47099984545147" lon="16.83917888322714"><ele>501.0</ele><time>2026-04-06T08:07:50.999Z</time></trkpt><trkpt lat="39.470966047182905" lon="16.839290259635476"><ele>501.0</ele><time>2026-04-06T08:07:51.999Z</time></trkpt><trkpt lat="39.47090016153631" lon="16.839372797172587"><ele>501.0</ele><time>2026-04-06T08:07:52.999Z</time></trkpt><trkpt lat="39.47080391610327" lon="16.839395198129253"><ele>501.0</ele><time>2026-04-06T08:07:53.999Z</time></trkpt><trkpt lat="39.470700847205244" lon="16.839459361283804"><ele>501.0</ele><time>2026-04-06T08:07:54.999Z</time></trkpt><trkpt lat="39.47057907694525" lon="16.839514539788038"><ele>501.0</ele><time>2026-04-06T08:07:55.999Z</time></trkpt><trkpt lat="39.47046029267246" lon="16.839584129989774"><ele>501.0</ele><time>2026-04-06T08:07:56.999Z</time></trkpt><trkpt lat="39.47035084614128" lon="16.839632296574433"><ele>501.0</ele><time>2026-04-06T08:07:57.999Z</time></trkpt><trkpt lat="39.470254158949814" lon="16.83963936977805"><ele>501.0</ele><time>2026-04-06T08:07:58.999Z</time></trkpt><trkpt lat="39.4701753208086" lon="16.8395988350785"><ele>501.0</ele><time>2026-04-06T08:07:59.999Z</time></trkpt><trkpt lat="39.47012301309584" lon="16.839533649605457"><ele>501.0</ele><time>2026-04-06T08:08:00.999Z</time></trkpt><trkpt lat="39.47010209236681" lon="16.839438974805827"><ele>501.0</ele><time>2026-04-06T08:08:01.999Z</time></trkpt><trkpt lat="39.470091771639446" lon="16.839318609766053"><ele>501.0</ele><time>2026-04-06T08:08:02.999Z</time></trkpt><trkpt lat="39.47008411587543" lon="16.83917619008866"><ele>501.0</ele><time>2026-04-06T08:08:03.999Z</time></trkpt><trkpt lat="39.470056370589724" lon="16.83902062086156"><ele>501.0</ele><time>2026-04-06T08:08:04.999Z</time></trkpt><trkpt lat="39.47000696646786" lon="16.838872789009738"><ele>503.0</ele><time>2026-04-06T08:08:05.999Z</time></trkpt><trkpt lat="39.46993784739654" lon="16.838734349610018"><ele>505.0</ele><time>2026-04-06T08:08:06.999Z</time></trkpt><trkpt lat="39.46985725447748" lon="16.838606825614164"><ele>507.0</ele><time>2026-04-06T08:08:08Z</time></trkpt><trkpt lat="39.46978475262681" lon="16.838476046072177"><ele>509.0</ele><time>2026-04-06T08:08:09Z</time></trkpt><trkpt lat="39.46972425711436" lon="16.838341057932645"><ele>511.2</ele><time>2026-04-06T08:08:10Z</time></trkpt><trkpt lat="39.469679084510304" lon="16.838200565468398"><ele>513.4</ele><time>2026-04-06T08:08:11Z</time></trkpt><trkpt lat="39.469654223727304" lon="16.83806435139957"><ele>515.6</ele><time>2026-04-06T08:08:12Z</time></trkpt><trkpt lat="39.469637667561805" lon="16.837938367518554"><ele>517.8</ele><time>2026-04-06T08:08:13Z</time></trkpt><trkpt lat="39.469589228613266" lon="16.837839462885412"><ele>520.0</ele><time>2026-04-06T08:08:14Z</time></trkpt><trkpt lat="39.46952160704639" lon="16.837766098831537"><ele>520.0</ele><time>2026-04-06T08:08:15Z</time></trkpt><trkpt lat="39.46943195746669" lon="16.83773743805068"><ele>520.0</ele><time>2026-04-06T08:08:16Z</time></trkpt><trkpt lat="39.469334918115884" lon="16.83773888576159"><ele>520.0</ele><time>2026-04-06T08:08:17Z</time></trkpt><trkpt lat="39.46922707490791" lon="16.837743979225586"><ele>520.0</ele><time>2026-04-06T08:08:18Z</time></trkpt><trkpt lat="39.469108545626845" lon="16.83774507933954"><ele>520.0</ele><time>2026-04-06T08:08:19Z</time></trkpt><trkpt lat="39.468989145485175" lon="16.837736175051596"><ele>520.0</ele><time>2026-04-06T08:08:20Z</time></trkpt><trkpt lat="39.46887303721333" lon="16.83773425566347"><ele>520.0</ele><time>2026-04-06T08:08:21Z</time></trkpt><trkpt lat="39.46876715536935" lon="16.83774780993101"><ele>520.0</ele><time>2026-04-06T08:08:22Z</time></trkpt><trkpt lat="39.468685955487615" lon="16.83780972232175"><ele>520.0</ele><time>2026-04-06T08:08:23Z</time></trkpt><trkpt lat="39.468624724731235" lon="16.837908174738654"><ele>520.0</ele><time>2026-04-06T08:08:24Z</time></trkpt><trkpt lat="39.4685590639196" lon="16.83801381819534"><ele>523.5</ele><time>2026-04-06T08:08:25Z</time></trkpt><trkpt lat="39.46854626663377" lon="16.83816120354311"><ele>527.0</ele><time>2026-04-06T08:08:26Z</time></trkpt><trkpt lat="39.46854326760902" lon="16.838321661958922"><ele>530.5</ele><time>2026-04-06T08:08:27Z</time></trkpt><trkpt lat="39.46855206027972" lon="16.838500895898964"><ele>534.0</ele><time>2026-04-06T08:08:28Z</time></trkpt><trkpt lat="39.468554295036" lon="16.838650480863993"><ele>534.0</ele><time>2026-04-06T08:08:29Z</time></trkpt><trkpt lat="39.46855243244683" lon="16.83877914794693"><ele>534.0</ele><time>2026-04-06T08:08:30Z</time></trkpt><trkpt lat="39.468539713329356" lon="16.838891586031696"><ele>534.0</ele><time>2026-04-06T08:08:31Z</time></trkpt><trkpt lat="39.4684948876395" lon="16.8389745409197"><ele>534.0</ele><time>2026-04-06T08:08:32Z</time></trkpt><trkpt lat="39.46843296300794" lon="16.83902564076804"><ele>534.0</ele><time>2026-04-06T08:08:33Z</time></trkpt><trkpt lat="39.46836274260243" lon="16.83903136168406"><ele>534.0</ele><time>2026-04-06T08:08:34Z</time></trkpt><trkpt lat="39.46827641427984" lon="16.839003434055147"><ele>534.0</ele><time>2026-04-06T08:08:35Z</time></trkpt><trkpt lat="39.46816397690556" lon="16.8389531910129"><ele>534.0</ele><time>2026-04-06T08:08:36Z</time></trkpt><trkpt lat="39.468036032340876" lon="16.838911683796308"><ele>534.0</ele><time>2026-04-06T08:08:37Z</time></trkpt><trkpt lat="39.46791457875334" lon="16.83890484415892"><ele>534.0</ele><time>2026-04-06T08:08:38Z</time></trkpt><trkpt lat="39.46781164345458" lon="16.83893583337864"><ele>532.0</ele><time>2026-04-06T08:08:39Z</time></trkpt><trkpt lat="39.46771541906319" lon="16.838984931776018"><ele>530.0</ele><time>2026-04-06T08:08:40Z</time></trkpt><trkpt lat="39.467623593715" lon="16.83896937552759"><ele>528.0</ele><time>2026-04-06T08:08:41Z</time></trkpt><trkpt lat="39.46752229930222" lon="16.83893108191623"><ele>526.0</ele><time>2026-04-06T08:08:42Z</time></trkpt><trkpt lat="39.467415515142946" lon="16.838890092826386"><ele>524.0</ele><time>2026-04-06T08:08:43Z</time></trkpt><trkpt lat="39.46733028404191" lon="16.83882590589968"><ele>524.0</ele><time>2026-04-06T08:08:44Z</time></trkpt><trkpt lat="39.467272007771726" lon="16.838753218539583"><ele>524.0</ele><time>2026-04-06T08:08:45Z</time></trkpt><trkpt lat="39.46724329374734" lon="16.838673556227985"><ele>524.0</ele><time>2026-04-06T08:08:46Z</time></trkpt><trkpt lat="39.467240221416276" lon="16.83858903353266"><ele>524.0</ele><time>2026-04-06T08:08:47Z</time></trkpt><trkpt lat="39.46724574856113" lon="16.838500744143584"><ele>524.0</ele><time>2026-04-06T08:08:48Z</time></trkpt><trkpt lat="39.46724640146158" lon="16.838412055278365"><ele>524.0</ele><time>2026-04-06T08:08:49Z</time></trkpt><trkpt lat="39.467241272429305" lon="16.838315187901376"><ele>524.0</ele><time>2026-04-06T08:08:50Z</time></trkpt><trkpt lat="39.467234139184356" lon="16.83821157404603"><ele>529.2</ele><time>2026-04-06T08:08:51Z</time></trkpt><trkpt lat="39.467229566001556" lon="16.838107120734488"><ele>534.4</ele><time>2026-04-06T08:08:52Z</time></trkpt><trkpt lat="39.46723154955016" lon="16.837985701122907"><ele>539.6</ele><time>2026-04-06T08:08:53Z</time></trkpt><trkpt lat="39.4672388990114" lon="16.83786135356793"><ele>544.8</ele><time>2026-04-06T08:08:54Z</time></trkpt><trkpt lat="39.467254514230724" lon="16.837722594026914"><ele>550.0</ele><time>2026-04-06T08:08:55Z</time></trkpt><trkpt lat="39.46727654293134" lon="16.837581084072806"><ele>550.6</ele><time>2026-04-06T08:08:56Z</time></trkpt><trkpt lat="39.46730917176644" lon="16.837444501662365"><ele>551.2</ele><time>2026-04-06T08:08:57Z</time></trkpt><trkpt lat="39.4673358781642" lon="16.837308525220905"><ele>551.8</ele><time>2026-04-06T08:08:58Z</time></trkpt><trkpt lat="39.467353990284536" lon="16.837179339570845"><ele>552.4</ele><time>2026-04-06T08:08:59Z</time></trkpt><trkpt lat="39.46737470304449" lon="16.837050721923948"><ele>553.0</ele><time>2026-04-06T08:09:00Z</time></trkpt><trkpt lat="39.46739489934721" lon="16.836921313040058"><ele>552.8</ele><time>2026-04-06T08:09:01Z</time></trkpt><trkpt lat="39.467421118461026" lon="16.83679192759888"><ele>552.5999999999999</ele><time>2026-04-06T08:09:02Z</time></trkpt><trkpt lat="39.46744424177076" lon="16.836657833736165"><ele>552.4000000000001</ele><time>2026-04-06T08:09:03Z</time></trkpt><trkpt lat="39.467456630309776" lon="16.83652164747216"><ele>552.2</ele><time>2026-04-06T08:09:04Z</time></trkpt><trkpt lat="39.46746737551516" lon="16.836379874107866"><ele>552.0</ele><time>2026-04-06T08:09:05Z</time></trkpt><trkpt lat="39.46747631271116" lon="16.836252606280453"><ele>552.0</ele><time>2026-04-06T08:09:06Z</time></trkpt><trkpt lat="39.46748300567045" lon="16.836134487573553"><ele>552.0</ele><time>2026-04-06T08:09:07Z</time></trkpt><trkpt lat="39.46748824748297" lon="16.83601117646805"><ele>552.0</ele><time>2026-04-06T08:09:08Z</time></trkpt><trkpt lat="39.4674950854079" lon="16.835890489668706"><ele>552.0</ele><time>2026-04-06T08:09:09Z</time></trkpt><trkpt lat="39.467513338265874" lon="16.83577342016761"><ele>552.0</ele><time>2026-04-06T08:09:10Z</time></trkpt><trkpt lat="39.46753824334314" lon="16.835659623561472"><ele>551.8000000000001</ele><time>2026-04-06T08:09:11Z</time></trkpt><trkpt lat="39.46754820238642" lon="16.83553448850821"><ele>551.6</ele><time>2026-04-06T08:09:12Z</time></trkpt><trkpt lat="39.46754285330016" lon="16.835411654478285"><ele>551.4000000000001</ele><time>2026-04-06T08:09:13Z</time></trkpt><trkpt lat="39.46753182280341" lon="16.83528699894645"><ele>551.2</ele><time>2026-04-06T08:09:13.999Z</time></trkpt><trkpt lat="39.467523802043885" lon="16.835164048359747"><ele>551.0</ele><time>2026-04-06T08:09:14.999Z</time></trkpt><trkpt lat="39.46751765293873" lon="16.83503958753457"><ele>550.8</ele><time>2026-04-06T08:09:15.999Z</time></trkpt><trkpt lat="39.46751209278777" lon="16.83491309200982"><ele>550.6</ele><time>2026-04-06T08:09:16.999Z</time></trkpt><trkpt lat="39.4675169045459" lon="16.834781767421852"><ele>550.4</ele><time>2026-04-06T08:09:17.999Z</time></trkpt><trkpt lat="39.46753283532338" lon="16.834636285872147"><ele>550.2</ele><time>2026-04-06T08:09:18.999Z</time></trkpt><trkpt lat="39.467565091838466" lon="16.834483076628008"><ele>550.0</ele><time>2026-04-06T08:09:19.999Z</time></trkpt><trkpt lat="39.46760309772834" lon="16.83432784744993"><ele>551.0</ele><time>2026-04-06T08:09:20.999Z</time></trkpt><trkpt lat="39.46764149330268" lon="16.83417664432507"><ele>552.0</ele><time>2026-04-06T08:09:21.999Z</time></trkpt><trkpt lat="39.467669104448866" lon="16.834031081584094"><ele>553.0</ele><time>2026-04-06T08:09:22.999Z</time></trkpt><trkpt lat="39.467679736941115" lon="16.83389159076443"><ele>554.0</ele><time>2026-04-06T08:09:23.999Z</time></trkpt><trkpt lat="39.467669327497916" lon="16.83376137961873"><ele>555.0</ele><time>2026-04-06T08:09:24.999Z</time></trkpt><trkpt lat="39.46763363289374" lon="16.833638323380963"><ele>555.0</ele><time>2026-04-06T08:09:25.999Z</time></trkpt><trkpt lat="39.46757875152484" lon="16.83353748916417"><ele>555.0</ele><time>2026-04-06T08:09:26.999Z</time></trkpt><trkpt lat="39.46750962822036" lon="16.83346415270343"><ele>555.0</ele><time>2026-04-06T08:09:27.999Z</time></trkpt><trkpt lat="39.46742549328219" lon="16.833398093186812"><ele>555.0</ele><time>2026-04-06T08:09:28.999Z</time></trkpt><trkpt lat="39.46733692276535" lon="16.83335056201627"><ele>555.0</ele><time>2026-04-06T08:09:29.999Z</time></trkpt><trkpt lat="39.46723525292679" lon="16.833330978830258"><ele>556.2</ele><time>2026-04-06T08:09:30.999Z</time></trkpt><trkpt lat="39.467124868127094" lon="16.833329047530935"><ele>557.4</ele><time>2026-04-06T08:09:31.999Z</time></trkpt><trkpt lat="39.46701793057046" lon="16.833335598336856"><ele>558.6</ele><time>2026-04-06T08:09:32.999Z</time></trkpt><trkpt lat="39.466914879903044" lon="16.833310081359315"><ele>559.8</ele><time>2026-04-06T08:09:33.999Z</time></trkpt><trkpt lat="39.46681775474267" lon="16.83325806137451"><ele>561.0</ele><time>2026-04-06T08:09:34.999Z</time></trkpt><trkpt lat="39.46672034224229" lon="16.833205483410477"><ele>561.0</ele><time>2026-04-06T08:09:35.999Z</time></trkpt><trkpt lat="39.466617902029526" lon="16.833150561465587"><ele>561.0</ele><time>2026-04-06T08:09:36.999Z</time></trkpt><trkpt lat="39.46651550638229" lon="16.833084707120186"><ele>561.0</ele><time>2026-04-06T08:09:37.999Z</time></trkpt><trkpt lat="39.46641823677778" lon="16.833005595732374"><ele>561.0</ele><time>2026-04-06T08:09:38.999Z</time></trkpt><trkpt lat="39.466325925661174" lon="16.83291501919922"><ele>561.0</ele><time>2026-04-06T08:09:39.999Z</time></trkpt><trkpt lat="39.46624292576038" lon="16.832815643400412"><ele>561.0</ele><time>2026-04-06T08:09:40.999Z</time></trkpt><trkpt lat="39.4661679189315" lon="16.832718252177184"><ele>561.0</ele><time>2026-04-06T08:09:41.999Z</time></trkpt><trkpt lat="39.46610087396083" lon="16.832634617663363"><ele>561.0</ele><time>2026-04-06T08:09:42.999Z</time></trkpt><trkpt lat="39.46604472639812" lon="16.832569367433454"><ele>561.0</ele><time>2026-04-06T08:09:43.999Z</time></trkpt><trkpt lat="39.465992890593306" lon="16.832509291261367"><ele>562.1666666666666</ele><time>2026-04-06T08:09:44.999Z</time></trkpt><trkpt lat="39.46594453287993" lon="16.832451946559615"><ele>563.3333333333334</ele><time>2026-04-06T08:09:45.999Z</time></trkpt><trkpt lat="39.46589043042535" lon="16.83238748243217"><ele>564.5</ele><time>2026-04-06T08:09:46.999Z</time></trkpt><trkpt lat="39.46583517574929" lon="16.83232224802917"><ele>565.6666666666667</ele><time>2026-04-06T08:09:47.999Z</time></trkpt><trkpt lat="39.46577034140648" lon="16.83224761757961"><ele>566.8333333333334</ele><time>2026-04-06T08:09:48.999Z</time></trkpt><trkpt lat="39.465698439439905" lon="16.832165633756706"><ele>568.0</ele><time>2026-04-06T08:09:49.999Z</time></trkpt><trkpt lat="39.4656226265497" lon="16.83207243242344"><ele>568.0</ele><time>2026-04-06T08:09:50.999Z</time></trkpt><trkpt lat="39.46553954360882" lon="16.831933051544752"><ele>568.0</ele><time>2026-04-06T08:09:51.999Z</time></trkpt><trkpt lat="39.465443826111986" lon="16.831793514670466"><ele>568.0</ele><time>2026-04-06T08:09:52.999Z</time></trkpt><trkpt lat="39.46534880748873" lon="16.83165487736669"><ele>568.0</ele><time>2026-04-06T08:09:53.999Z</time></trkpt><trkpt lat="39.46525889723706" lon="16.831523697543307"><ele>569.25</ele><time>2026-04-06T08:09:54.999Z</time></trkpt><trkpt lat="39.465169666261865" lon="16.831396335275638"><ele>570.5</ele><time>2026-04-06T08:09:55.999Z</time></trkpt><trkpt lat="39.465071429394996" lon="16.831287956704376"><ele>571.75</ele><time>2026-04-06T08:09:56.999Z</time></trkpt><trkpt lat="39.46498281992739" lon="16.83118546885289"><ele>573.0</ele><time>2026-04-06T08:09:57.999Z</time></trkpt><trkpt lat="39.464884624131656" lon="16.831112739163757"><ele>573.0</ele><time>2026-04-06T08:09:58.999Z</time></trkpt><trkpt lat="39.46477719608319" lon="16.831072613102005"><ele>573.0</ele><time>2026-04-06T08:09:59.999Z</time></trkpt><trkpt lat="39.46466175205471" lon="16.83107900875837"><ele>573.0</ele><time>2026-04-06T08:10:00.999Z</time></trkpt><trkpt lat="39.46453939214434" lon="16.831122073051226"><ele>573.0</ele><time>2026-04-06T08:10:01.999Z</time></trkpt><trkpt lat="39.4644122729709" lon="16.831184472156895"><ele>574.5</ele><time>2026-04-06T08:10:02.999Z</time></trkpt><trkpt lat="39.46428313538087" lon="16.831250653288087"><ele>576.0</ele><time>2026-04-06T08:10:03.999Z</time></trkpt><trkpt lat="39.46415926183954" lon="16.8313228875308"><ele>577.5</ele><time>2026-04-06T08:10:04.999Z</time></trkpt><trkpt lat="39.46403817539612" lon="16.831411045986506"><ele>579.0</ele><time>2026-04-06T08:10:05.999Z</time></trkpt><trkpt lat="39.463929821189474" lon="16.831535163937826"><ele>579.0</ele><time>2026-04-06T08:10:06.999Z</time></trkpt><trkpt lat="39.46384156613306" lon="16.831684382388385"><ele>579.0</ele><time>2026-04-06T08:10:07.999Z</time></trkpt><trkpt lat="39.46377009243931" lon="16.83185854404916"><ele>579.0</ele><time>2026-04-06T08:10:08.999Z</time></trkpt><trkpt lat="39.46368231874729" lon="16.832021823263265"><ele>582.25</ele><time>2026-04-06T08:10:09.999Z</time></trkpt><trkpt lat="39.463610664767735" lon="16.832182379057596"><ele>585.5</ele><time>2026-04-06T08:10:10.999Z</time></trkpt><trkpt lat="39.463558358560235" lon="16.832318812664017"><ele>588.75</ele><time>2026-04-06T08:10:11.999Z</time></trkpt><trkpt lat="39.46350295158965" lon="16.83243658692115"><ele>592.0</ele><time>2026-04-06T08:10:12.999Z</time></trkpt><trkpt lat="39.46343433293703" lon="16.832562265827015"><ele>590.5</ele><time>2026-04-06T08:10:14Z</time></trkpt><trkpt lat="39.4633306843985" lon="16.832669123410707"><ele>589.0</ele><time>2026-04-06T08:10:15Z</time></trkpt><trkpt lat="39.463222542326214" lon="16.832784138575633"><ele>587.5</ele><time>2026-04-06T08:10:16Z</time></trkpt><trkpt lat="39.46310582475561" lon="16.83292226443252"><ele>586.0</ele><time>2026-04-06T08:10:17Z</time></trkpt><trkpt lat="39.46297405737566" lon="16.83304027156513"><ele>590.75</ele><time>2026-04-06T08:10:18Z</time></trkpt><trkpt lat="39.46283928848937" lon="16.83314961026592"><ele>595.5</ele><time>2026-04-06T08:10:19Z</time></trkpt><trkpt lat="39.46272628668517" lon="16.833286410172803"><ele>600.25</ele><time>2026-04-06T08:10:20Z</time></trkpt><trkpt lat="39.4626347006802" lon="16.833392249443108"><ele>605.0</ele><time>2026-04-06T08:10:21Z</time></trkpt><trkpt lat="39.4625664623342" lon="16.833512646300257"><ele>605.0</ele><time>2026-04-06T08:10:22Z</time></trkpt><trkpt lat="39.46253023586606" lon="16.833665024307148"><ele>605.0</ele><time>2026-04-06T08:10:23Z</time></trkpt><trkpt lat="39.462511871824795" lon="16.83385360403381"><ele>605.0</ele><time>2026-04-06T08:10:24Z</time></trkpt><trkpt lat="39.462478841920316" lon="16.834072252133964"><ele>605.0</ele><time>2026-04-06T08:10:25Z</time></trkpt><trkpt lat="39.4624812509206" lon="16.8342693530032"><ele>604.6</ele><time>2026-04-06T08:10:26Z</time></trkpt><trkpt lat="39.46246465775934" lon="16.834431108345576"><ele>604.2</ele><time>2026-04-06T08:10:27Z</time></trkpt><trkpt lat="39.46245257060535" lon="16.834571062414884"><ele>603.8</ele><time>2026-04-06T08:10:28Z</time></trkpt><trkpt lat="39.46242938013293" lon="16.834695658336198"><ele>603.4</ele><time>2026-04-06T08:10:29Z</time></trkpt><trkpt lat="39.46238391342613" lon="16.834800936848822"><ele>603.0</ele><time>2026-04-06T08:10:30Z</time></trkpt><trkpt lat="39.46231277529793" lon="16.834897624235833"><ele>603.0</ele><time>2026-04-06T08:10:31Z</time></trkpt><trkpt lat="39.46221636039248" lon="16.834976718163762"><ele>603.0</ele><time>2026-04-06T08:10:32Z</time></trkpt><trkpt lat="39.46210813650174" lon="16.83500131034016"><ele>603.0</ele><time>2026-04-06T08:10:33Z</time></trkpt><trkpt lat="39.462014408886574" lon="16.835009336380615"><ele>603.0</ele><time>2026-04-06T08:10:34Z</time></trkpt><trkpt lat="39.46191499392835" lon="16.835035592868927"><ele>603.0</ele><time>2026-04-06T08:10:35Z</time></trkpt><trkpt lat="39.46177493328489" lon="16.83501843699917"><ele>606.3333333333334</ele><time>2026-04-06T08:10:36Z</time></trkpt><trkpt lat="39.461605495719525" lon="16.835014696424643"><ele>609.6666666666667</ele><time>2026-04-06T08:10:37Z</time></trkpt><trkpt lat="39.46143475140077" lon="16.835015002336778"><ele>613.0</ele><time>2026-04-06T08:10:38Z</time></trkpt><trkpt lat="39.46128220613895" lon="16.8350141259074"><ele>614.0</ele><time>2026-04-06T08:10:39Z</time></trkpt><trkpt lat="39.46113981336716" lon="16.835006685621895"><ele>615.0</ele><time>2026-04-06T08:10:40Z</time></trkpt><trkpt lat="39.46100184625151" lon="16.834996794645658"><ele>616.0</ele><time>2026-04-06T08:10:41Z</time></trkpt><trkpt lat="39.46087293868207" lon="16.83496703816562"><ele>617.0</ele><time>2026-04-06T08:10:42Z</time></trkpt><trkpt lat="39.4607532379178" lon="16.834921321077157"><ele>617.0</ele><time>2026-04-06T08:10:43Z</time></trkpt><trkpt lat="39.460638909333895" lon="16.834845403004397"><ele>617.0</ele><time>2026-04-06T08:10:44Z</time></trkpt><trkpt lat="39.46052827559107" lon="16.834751060574053"><ele>617.0</ele><time>2026-04-06T08:10:45Z</time></trkpt><trkpt lat="39.46042085878933" lon="16.834628596420764"><ele>617.0</ele><time>2026-04-06T08:10:46Z</time></trkpt><trkpt lat="39.46032399837582" lon="16.83449749457922"><ele>618.25</ele><time>2026-04-06T08:10:47Z</time></trkpt><trkpt lat="39.46022746556245" lon="16.834357661157387"><ele>619.5</ele><time>2026-04-06T08:10:48Z</time></trkpt><trkpt lat="39.460129269233065" lon="16.834230098173727"><ele>620.75</ele><time>2026-04-06T08:10:49Z</time></trkpt><trkpt lat="39.46002747662934" lon="16.83410550682654"><ele>622.0</ele><time>2026-04-06T08:10:50Z</time></trkpt><trkpt lat="39.4599307916305" lon="16.83398488974442"><ele>623.25</ele><time>2026-04-06T08:10:51Z</time></trkpt><trkpt lat="39.45982244423152" lon="16.833883645889323"><ele>624.5</ele><time>2026-04-06T08:10:52Z</time></trkpt><trkpt lat="39.4597001918102" lon="16.833812854863595"><ele>625.75</ele><time>2026-04-06T08:10:53Z</time></trkpt><trkpt lat="39.45956929228952" lon="16.833763265772625"><ele>627.0</ele><time>2026-04-06T08:10:54Z</time></trkpt><trkpt lat="39.459428138265245" lon="16.833748244102015"><ele>628.5</ele><time>2026-04-06T08:10:55Z</time></trkpt><trkpt lat="39.45928727116975" lon="16.833768978127797"><ele>630.0</ele><time>2026-04-06T08:10:56Z</time></trkpt><trkpt lat="39.45914852245694" lon="16.83381153690335"><ele>631.5</ele><time>2026-04-06T08:10:57Z</time></trkpt><trkpt lat="39.45902200454047" lon="16.83388723566223"><ele>633.0</ele><time>2026-04-06T08:10:58Z</time></trkpt><trkpt lat="39.45890491585141" lon="16.833981370804132"><ele>633.0</ele><time>2026-04-06T08:10:59Z</time></trkpt><trkpt lat="39.458795390044436" lon="16.834102077281933"><ele>633.0</ele><time>2026-04-06T08:11:00Z</time></trkpt><trkpt lat="39.45870156856811" lon="16.834252552451048"><ele>633.0</ele><time>2026-04-06T08:11:01Z</time></trkpt><trkpt lat="39.458605853466466" lon="16.83442390464457"><ele>636.3333333333334</ele><time>2026-04-06T08:11:02Z</time></trkpt><trkpt lat="39.45850160663008" lon="16.834570165097464"><ele>639.6666666666667</ele><time>2026-04-06T08:11:03Z</time></trkpt><trkpt lat="39.458408285073176" lon="16.834749101492747"><ele>643.0</ele><time>2026-04-06T08:11:04Z</time></trkpt><trkpt lat="39.45831798040438" lon="16.834930984955484"><ele>643.0</ele><time>2026-04-06T08:11:05Z</time></trkpt><trkpt lat="39.45823692235907" lon="16.835114908465744"><ele>643.0</ele><time>2026-04-06T08:11:06Z</time></trkpt><trkpt lat="39.458162691826516" lon="16.835309170899862"><ele>643.0</ele><time>2026-04-06T08:11:07Z</time></trkpt><trkpt lat="39.45809490419444" lon="16.835498793722138"><ele>643.0</ele><time>2026-04-06T08:11:08Z</time></trkpt><trkpt lat="39.45802790851016" lon="16.835689959789796"><ele>643.0</ele><time>2026-04-06T08:11:09Z</time></trkpt><trkpt lat="39.457957635324554" lon="16.83586921373797"><ele>643.0</ele><time>2026-04-06T08:11:10Z</time></trkpt><trkpt lat="39.45788395784269" lon="16.836014273431896"><ele>644.25</ele><time>2026-04-06T08:11:11Z</time></trkpt><trkpt lat="39.45779394256666" lon="16.836152171550893"><ele>645.5</ele><time>2026-04-06T08:11:12Z</time></trkpt><trkpt lat="39.457698639463224" lon="16.83624518393396"><ele>646.75</ele><time>2026-04-06T08:11:13Z</time></trkpt><trkpt lat="39.45759906080609" lon="16.83632965014342"><ele>648.0</ele><time>2026-04-06T08:11:13.999Z</time></trkpt><trkpt lat="39.45748764756683" lon="16.836392131551403"><ele>648.0</ele><time>2026-04-06T08:11:14.999Z</time></trkpt><trkpt lat="39.45735982112216" lon="16.83643948789602"><ele>648.0</ele><time>2026-04-06T08:11:15.999Z</time></trkpt><trkpt lat="39.457223164106274" lon="16.83643679580961"><ele>648.0</ele><time>2026-04-06T08:11:16.999Z</time></trkpt><trkpt lat="39.45707997784852" lon="16.836463113105747"><ele>648.0</ele><time>2026-04-06T08:11:17.999Z</time></trkpt><trkpt lat="39.45693265251586" lon="16.836464818200508"><ele>649.75</ele><time>2026-04-06T08:11:18.999Z</time></trkpt><trkpt lat="39.45678822382784" lon="16.836465793472193"><ele>651.5</ele><time>2026-04-06T08:11:19.999Z</time></trkpt><trkpt lat="39.45664461230426" lon="16.836465818659807"><ele>653.25</ele><time>2026-04-06T08:11:20.999Z</time></trkpt><trkpt lat="39.45650572179852" lon="16.83643306709077"><ele>655.0</ele><time>2026-04-06T08:11:21.999Z</time></trkpt><trkpt lat="39.45636523499794" lon="16.83640762767183"><ele>658.75</ele><time>2026-04-06T08:11:22.999Z</time></trkpt><trkpt lat="39.45622820871231" lon="16.83637441815864"><ele>662.5</ele><time>2026-04-06T08:11:23.999Z</time></trkpt><trkpt lat="39.456094396707066" lon="16.83632723339459"><ele>666.25</ele><time>2026-04-06T08:11:24.999Z</time></trkpt><trkpt lat="39.45595673045733" lon="16.83626657539383"><ele>670.0</ele><time>2026-04-06T08:11:25.999Z</time></trkpt><trkpt lat="39.45580140634758" lon="16.836222500699808"><ele>670.0</ele><time>2026-04-06T08:11:26.999Z</time></trkpt><trkpt lat="39.45564352061337" lon="16.836186399810213"><ele>670.0</ele><time>2026-04-06T08:11:27.999Z</time></trkpt><trkpt lat="39.4554826869542" lon="16.83616869969957"><ele>670.0</ele><time>2026-04-06T08:11:28.999Z</time></trkpt><trkpt lat="39.45531572830371" lon="16.836185742959156"><ele>672.0</ele><time>2026-04-06T08:11:29.999Z</time></trkpt><trkpt lat="39.455148477331555" lon="16.836237156824996"><ele>674.0</ele><time>2026-04-06T08:11:30.999Z</time></trkpt><trkpt lat="39.45497848185509" lon="16.836322218511814"><ele>676.0</ele><time>2026-04-06T08:11:31.999Z</time></trkpt><trkpt lat="39.45479746081498" lon="16.83640865445814"><ele>676.0</ele><time>2026-04-06T08:11:32.999Z</time></trkpt><trkpt lat="39.454631593015506" lon="16.83647218016299"><ele>676.0</ele><time>2026-04-06T08:11:33.999Z</time></trkpt><trkpt lat="39.45448031038494" lon="16.836524475827886"><ele>676.0</ele><time>2026-04-06T08:11:34.999Z</time></trkpt><trkpt lat="39.45432741543218" lon="16.836590756171496"><ele>676.0</ele><time>2026-04-06T08:11:35.999Z</time></trkpt><trkpt lat="39.454178171756695" lon="16.836689018641856"><ele>676.0</ele><time>2026-04-06T08:11:36.999Z</time></trkpt><trkpt lat="39.454035372435" lon="16.836825967645403"><ele>676.0</ele><time>2026-04-06T08:11:37.999Z</time></trkpt><trkpt lat="39.45389759397327" lon="16.836987217252894"><ele>677.6666666666667</ele><time>2026-04-06T08:11:38.999Z</time></trkpt><trkpt lat="39.453759935680345" lon="16.837148464077895"><ele>679.3333333333334</ele><time>2026-04-06T08:11:39.999Z</time></trkpt><trkpt lat="39.45362802600813" lon="16.83727904559932"><ele>681.0</ele><time>2026-04-06T08:11:40.999Z</time></trkpt><trkpt lat="39.45349366695361" lon="16.837369172580075"><ele>681.0</ele><time>2026-04-06T08:11:41.999Z</time></trkpt><trkpt lat="39.45334742159171" lon="16.83743142205079"><ele>681.0</ele><time>2026-04-06T08:11:42.999Z</time></trkpt><trkpt lat="39.45318755178357" lon="16.837477963487522"><ele>681.0</ele><time>2026-04-06T08:11:43.999Z</time></trkpt><trkpt lat="39.453023800342585" lon="16.837518013697476"><ele>682.5</ele><time>2026-04-06T08:11:44.999Z</time></trkpt><trkpt lat="39.45286163298932" lon="16.837529862694954"><ele>684.0</ele><time>2026-04-06T08:11:45.999Z</time></trkpt><trkpt lat="39.45271950731202" lon="16.83751765823917"><ele>685.5</ele><time>2026-04-06T08:11:46.999Z</time></trkpt><trkpt lat="39.45258782760478" lon="16.837472637311702"><ele>687.0</ele><time>2026-04-06T08:11:47.999Z</time></trkpt><trkpt lat="39.452469374439524" lon="16.837404170870855"><ele>687.0</ele><time>2026-04-06T08:11:48.999Z</time></trkpt><trkpt lat="39.45235574255621" lon="16.837320545371707"><ele>687.0</ele><time>2026-04-06T08:11:49.999Z</time></trkpt><trkpt lat="39.4522583626366" lon="16.83725577311664"><ele>687.0</ele><time>2026-04-06T08:11:50.999Z</time></trkpt><trkpt lat="39.45215867835649" lon="16.837224774821543"><ele>687.0</ele><time>2026-04-06T08:11:51.999Z</time></trkpt><trkpt lat="39.45205259008162" lon="16.837237008652824"><ele>687.0</ele><time>2026-04-06T08:11:52.999Z</time></trkpt><trkpt lat="39.45194836265302" lon="16.8372803612271"><ele>686.75</ele><time>2026-04-06T08:11:53.999Z</time></trkpt><trkpt lat="39.45186011970643" lon="16.83735304919921"><ele>686.5</ele><time>2026-04-06T08:11:54.999Z</time></trkpt><trkpt lat="39.45178929094002" lon="16.837458159433893"><ele>686.25</ele><time>2026-04-06T08:11:55.999Z</time></trkpt><trkpt lat="39.45173983525608" lon="16.837593811335168"><ele>686.0</ele><time>2026-04-06T08:11:56.999Z</time></trkpt><trkpt lat="39.4517191762218" lon="16.837754888031117"><ele>686.0</ele><time>2026-04-06T08:11:57.999Z</time></trkpt><trkpt lat="39.45169742375816" lon="16.837894954509665"><ele>686.0</ele><time>2026-04-06T08:11:58.999Z</time></trkpt><trkpt lat="39.45162981762044" lon="16.838003644013956"><ele>686.0</ele><time>2026-04-06T08:11:59.999Z</time></trkpt><trkpt lat="39.45154595796175" lon="16.838108441153675"><ele>686.0</ele><time>2026-04-06T08:12:00.999Z</time></trkpt><trkpt lat="39.45144761335328" lon="16.838214951647164"><ele>686.0</ele><time>2026-04-06T08:12:01.999Z</time></trkpt><trkpt lat="39.45133023339507" lon="16.838286838836428"><ele>686.0</ele><time>2026-04-06T08:12:02.999Z</time></trkpt><trkpt lat="39.45122774290693" lon="16.838346687802993"><ele>686.0</ele><time>2026-04-06T08:12:03.999Z</time></trkpt><trkpt lat="39.45114360749517" lon="16.83842750506586"><ele>686.0</ele><time>2026-04-06T08:12:04.999Z</time></trkpt><trkpt lat="39.45108320590253" lon="16.838530301443164"><ele>686.0</ele><time>2026-04-06T08:12:05.999Z</time></trkpt><trkpt lat="39.45104691089662" lon="16.83863813376156"><ele>688.5</ele><time>2026-04-06T08:12:06.999Z</time></trkpt><trkpt lat="39.45102057768297" lon="16.838762031398556"><ele>691.0</ele><time>2026-04-06T08:12:07.999Z</time></trkpt><trkpt lat="39.451031250677694" lon="16.838915235134948"><ele>693.5</ele><time>2026-04-06T08:12:08.999Z</time></trkpt><trkpt lat="39.45106910668871" lon="16.839058679536212"><ele>696.0</ele><time>2026-04-06T08:12:09.999Z</time></trkpt><trkpt lat="39.45115276838976" lon="16.839183898901133"><ele>696.0</ele><time>2026-04-06T08:12:10.999Z</time></trkpt><trkpt lat="39.451253223109624" lon="16.839288610903015"><ele>696.0</ele><time>2026-04-06T08:12:11.999Z</time></trkpt><trkpt lat="39.45137414676069" lon="16.839368546032293"><ele>696.0</ele><time>2026-04-06T08:12:12.999Z</time></trkpt><trkpt lat="39.45151309641726" lon="16.83942531858047"><ele>696.0</ele><time>2026-04-06T08:12:13.999Z</time></trkpt><trkpt lat="39.4516445903875" lon="16.839506854113623"><ele>693.75</ele><time>2026-04-06T08:12:14.999Z</time></trkpt><trkpt lat="39.45177097795365" lon="16.839572493946793"><ele>691.5</ele><time>2026-04-06T08:12:15.999Z</time></trkpt><trkpt lat="39.45189593652232" lon="16.83961113035871"><ele>689.25</ele><time>2026-04-06T08:12:16.999Z</time></trkpt><trkpt lat="39.45201227526747" lon="16.839671521100186"><ele>687.0</ele><time>2026-04-06T08:12:17.999Z</time></trkpt><trkpt lat="39.45213172825799" lon="16.839734877030647"><ele>683.25</ele><time>2026-04-06T08:12:18.999Z</time></trkpt><trkpt lat="39.4522497975464" lon="16.8398012420836"><ele>679.5</ele><time>2026-04-06T08:12:20Z</time></trkpt><trkpt lat="39.452337478955116" lon="16.83990963089449"><ele>675.75</ele><time>2026-04-06T08:12:21Z</time></trkpt><trkpt lat="39.4524228334464" lon="16.839999992849847"><ele>672.0</ele><time>2026-04-06T08:12:22Z</time></trkpt><trkpt lat="39.452481731719566" lon="16.840110909874355"><ele>672.0</ele><time>2026-04-06T08:12:23Z</time></trkpt><trkpt lat="39.452521316720414" lon="16.840239821276096"><ele>672.0</ele><time>2026-04-06T08:12:24Z</time></trkpt><trkpt lat="39.45254625321378" lon="16.840392053869543"><ele>672.0</ele><time>2026-04-06T08:12:25Z</time></trkpt><trkpt lat="39.45256300504465" lon="16.840541599979602"><ele>672.0</ele><time>2026-04-06T08:12:26Z</time></trkpt><trkpt lat="39.4525644177774" lon="16.84068493254132"><ele>672.0</ele><time>2026-04-06T08:12:27Z</time></trkpt><trkpt lat="39.452542184868705" lon="16.84084295495248"><ele>672.0</ele><time>2026-04-06T08:12:28Z</time></trkpt><trkpt lat="39.45249520056648" lon="16.841000315305166"><ele>672.0</ele><time>2026-04-06T08:12:29Z</time></trkpt><trkpt lat="39.45243834632635" lon="16.841157153391645"><ele>672.0</ele><time>2026-04-06T08:12:30Z</time></trkpt><trkpt lat="39.45238431312038" lon="16.841289890094803"><ele>668.75</ele><time>2026-04-06T08:12:31Z</time></trkpt><trkpt lat="39.45230031191995" lon="16.84139495589109"><ele>665.5</ele><time>2026-04-06T08:12:32Z</time></trkpt><trkpt lat="39.45219716756337" lon="16.841477810829588"><ele>662.25</ele><time>2026-04-06T08:12:33Z</time></trkpt><trkpt lat="39.452088059016255" lon="16.84152204023181"><ele>659.0</ele><time>2026-04-06T08:12:34Z</time></trkpt><trkpt lat="39.45198227822535" lon="16.84152861700904"><ele>659.0</ele><time>2026-04-06T08:12:35Z</time></trkpt><trkpt lat="39.451877877637585" lon="16.841493355286673"><ele>659.0</ele><time>2026-04-06T08:12:36Z</time></trkpt><trkpt lat="39.451764116843634" lon="16.841431200578352"><ele>659.0</ele><time>2026-04-06T08:12:37Z</time></trkpt><trkpt lat="39.451626700808056" lon="16.841325495954948"><ele>659.0</ele><time>2026-04-06T08:12:38Z</time></trkpt><trkpt lat="39.45149307707503" lon="16.841242036374435"><ele>659.0</ele><time>2026-04-06T08:12:39Z</time></trkpt><trkpt lat="39.45136291737885" lon="16.841200529497556"><ele>659.0</ele><time>2026-04-06T08:12:40Z</time></trkpt><trkpt lat="39.45123472224976" lon="16.841173882384382"><ele>659.0</ele><time>2026-04-06T08:12:41Z</time></trkpt><trkpt lat="39.451103773875055" lon="16.841139381049246"><ele>659.0</ele><time>2026-04-06T08:12:42Z</time></trkpt><trkpt lat="39.45097219218337" lon="16.841082201437214"><ele>656.5</ele><time>2026-04-06T08:12:43Z</time></trkpt><trkpt lat="39.45085197384425" lon="16.84099997857088"><ele>654.0</ele><time>2026-04-06T08:12:44Z</time></trkpt><trkpt lat="39.45075783530271" lon="16.840903816334837"><ele>651.5</ele><time>2026-04-06T08:12:45Z</time></trkpt><trkpt lat="39.450675371018264" lon="16.840815469779667"><ele>649.0</ele><time>2026-04-06T08:12:46Z</time></trkpt><trkpt lat="39.450594655283275" lon="16.84075909338611"><ele>652.2</ele><time>2026-04-06T08:12:47Z</time></trkpt><trkpt lat="39.45051405383005" lon="16.8407387545213"><ele>655.4000000000001</ele><time>2026-04-06T08:12:48Z</time></trkpt><trkpt lat="39.45043499713185" lon="16.840741308532813"><ele>658.6</ele><time>2026-04-06T08:12:49Z</time></trkpt><trkpt lat="39.45035222037517" lon="16.840814536603162"><ele>661.8</ele><time>2026-04-06T08:12:50Z</time></trkpt><trkpt lat="39.45025936684666" lon="16.84089154061294"><ele>665.0</ele><time>2026-04-06T08:12:51Z</time></trkpt><trkpt lat="39.45016079365033" lon="16.84096721259984"><ele>665.6</ele><time>2026-04-06T08:12:52Z</time></trkpt><trkpt lat="39.450087961604254" lon="16.84103938114802"><ele>666.2</ele><time>2026-04-06T08:12:53Z</time></trkpt><trkpt lat="39.45002804797184" lon="16.841105786808274"><ele>666.8</ele><time>2026-04-06T08:12:54Z</time></trkpt><trkpt lat="39.45003506781739" lon="16.841222257751028"><ele>667.4</ele><time>2026-04-06T08:12:55Z</time></trkpt><trkpt lat="39.450061807003436" lon="16.841342150573524"><ele>668.0</ele><time>2026-04-06T08:12:56Z</time></trkpt><trkpt lat="39.450097627497506" lon="16.84148080114254"><ele>668.0</ele><time>2026-04-06T08:12:57Z</time></trkpt><trkpt lat="39.450083653200004" lon="16.841639371188275"><ele>668.0</ele><time>2026-04-06T08:12:58Z</time></trkpt><trkpt lat="39.450072699748134" lon="16.84180457757605"><ele>668.0</ele><time>2026-04-06T08:12:59Z</time></trkpt><trkpt lat="39.450033278916024" lon="16.841951285476934"><ele>668.0</ele><time>2026-04-06T08:13:00Z</time></trkpt><trkpt lat="39.44999328932687" lon="16.842097651887144"><ele>668.5</ele><time>2026-04-06T08:13:01Z</time></trkpt><trkpt lat="39.449907301514976" lon="16.842220944937573"><ele>669.0</ele><time>2026-04-06T08:13:02Z</time></trkpt><trkpt lat="39.449800794842936" lon="16.84234662206064"><ele>669.5</ele><time>2026-04-06T08:13:03Z</time></trkpt><trkpt lat="39.44968174503717" lon="16.842480631614063"><ele>670.0</ele><time>2026-04-06T08:13:04Z</time></trkpt><trkpt lat="39.44955676372795" lon="16.842616754095747"><ele>668.6666666666667</ele><time>2026-04-06T08:13:05Z</time></trkpt><trkpt lat="39.44941983645263" lon="16.84273510111956"><ele>667.3333333333334</ele><time>2026-04-06T08:13:06Z</time></trkpt><trkpt lat="39.44930851846262" lon="16.842873670751576"><ele>666.0</ele><time>2026-04-06T08:13:07Z</time></trkpt><trkpt lat="39.4491910670935" lon="16.84299027622444"><ele>666.0</ele><time>2026-04-06T08:13:08Z</time></trkpt><trkpt lat="39.44908529464643" lon="16.843090899650246"><ele>666.0</ele><time>2026-04-06T08:13:09Z</time></trkpt><trkpt lat="39.448981083449155" lon="16.84317192196548"><ele>666.0</ele><time>2026-04-06T08:13:10Z</time></trkpt><trkpt lat="39.448863911836" lon="16.843242100479102"><ele>666.0</ele><time>2026-04-06T08:13:10.999Z</time></trkpt><trkpt lat="39.4487419936611" lon="16.843295666788617"><ele>667.25</ele><time>2026-04-06T08:13:11.999Z</time></trkpt><trkpt lat="39.448620457032284" lon="16.84331990835676"><ele>668.5</ele><time>2026-04-06T08:13:12.999Z</time></trkpt><trkpt lat="39.44850529589824" lon="16.84330829288328"><ele>669.75</ele><time>2026-04-06T08:13:13.999Z</time></trkpt><trkpt lat="39.44838775465796" lon="16.843267284984975"><ele>671.0</ele><time>2026-04-06T08:13:14.999Z</time></trkpt><trkpt lat="39.44828060100863" lon="16.84318790007131"><ele>671.0</ele><time>2026-04-06T08:13:15.999Z</time></trkpt><trkpt lat="39.44818431026522" lon="16.843084138898707"><ele>671.0</ele><time>2026-04-06T08:13:16.999Z</time></trkpt><trkpt lat="39.44809110103399" lon="16.842974277568405"><ele>671.0</ele><time>2026-04-06T08:13:17.999Z</time></trkpt><trkpt lat="39.44799212569907" lon="16.84287672235399"><ele>671.0</ele><time>2026-04-06T08:13:18.999Z</time></trkpt><trkpt lat="39.44787493527199" lon="16.842815878759307"><ele>669.5</ele><time>2026-04-06T08:13:19.999Z</time></trkpt><trkpt lat="39.447748802943295" lon="16.842795399002576"><ele>668.0</ele><time>2026-04-06T08:13:20.999Z</time></trkpt><trkpt lat="39.44762235194961" lon="16.84282230741435"><ele>666.5</ele><time>2026-04-06T08:13:21.999Z</time></trkpt><trkpt lat="39.44750016146794" lon="16.842847295861297"><ele>665.0</ele><time>2026-04-06T08:13:22.999Z</time></trkpt><trkpt lat="39.447384493245245" lon="16.842824591250086"><ele>665.0</ele><time>2026-04-06T08:13:23.999Z</time></trkpt><trkpt lat="39.44727773193062" lon="16.842760304084837"><ele>665.0</ele><time>2026-04-06T08:13:24.999Z</time></trkpt><trkpt lat="39.447187339918216" lon="16.842666923229768"><ele>665.0</ele><time>2026-04-06T08:13:25.999Z</time></trkpt><trkpt lat="39.44712188116295" lon="16.84255246365386"><ele>665.0</ele><time>2026-04-06T08:13:26.999Z</time></trkpt><trkpt lat="39.44710099692736" lon="16.842419070750466"><ele>665.0</ele><time>2026-04-06T08:13:27.999Z</time></trkpt><trkpt lat="39.447055365771604" lon="16.84228557613988"><ele>667.6</ele><time>2026-04-06T08:13:28.999Z</time></trkpt><trkpt lat="39.44699567723225" lon="16.842152380750168"><ele>670.2</ele><time>2026-04-06T08:13:29.999Z</time></trkpt><trkpt lat="39.446906013028844" lon="16.84205917378089"><ele>672.8</ele><time>2026-04-06T08:13:30.999Z</time></trkpt><trkpt lat="39.44680774214317" lon="16.84200266323919"><ele>675.4</ele><time>2026-04-06T08:13:31.999Z</time></trkpt><trkpt lat="39.44670379465109" lon="16.841980711096742"><ele>678.0</ele><time>2026-04-06T08:13:32.999Z</time></trkpt><trkpt lat="39.44658996437135" lon="16.841995621167253"><ele>678.0</ele><time>2026-04-06T08:13:33.999Z</time></trkpt><trkpt lat="39.446483117505984" lon="16.842052544064448"><ele>678.0</ele><time>2026-04-06T08:13:34.999Z</time></trkpt><trkpt lat="39.446411082224564" lon="16.842155569727677"><ele>678.0</ele><time>2026-04-06T08:13:35.999Z</time></trkpt><trkpt lat="39.44637358002758" lon="16.842246596136317"><ele>678.0</ele><time>2026-04-06T08:13:36.999Z</time></trkpt><trkpt lat="39.44636488751531" lon="16.84235176411874"><ele>678.0</ele><time>2026-04-06T08:13:37.999Z</time></trkpt><trkpt lat="39.44635199699196" lon="16.842472044591982"><ele>678.0</ele><time>2026-04-06T08:13:38.999Z</time></trkpt><trkpt lat="39.44636042669936" lon="16.842596731823566"><ele>678.0</ele><time>2026-04-06T08:13:39.999Z</time></trkpt><trkpt lat="39.44637007382239" lon="16.842729564256167"><ele>678.0</ele><time>2026-04-06T08:13:40.999Z</time></trkpt><trkpt lat="39.44638103080214" lon="16.84287179865235"><ele>678.0</ele><time>2026-04-06T08:13:41.999Z</time></trkpt><trkpt lat="39.44639439566697" lon="16.8430213928193"><ele>678.0</ele><time>2026-04-06T08:13:42.999Z</time></trkpt><trkpt lat="39.44640821942938" lon="16.84317612372902"><ele>676.75</ele><time>2026-04-06T08:13:43.999Z</time></trkpt><trkpt lat="39.44642129798399" lon="16.84332785588266"><ele>675.5</ele><time>2026-04-06T08:13:44.999Z</time></trkpt><trkpt lat="39.44642175879372" lon="16.84349122454121"><ele>674.25</ele><time>2026-04-06T08:13:45.999Z</time></trkpt><trkpt lat="39.44640461006238" lon="16.8436641256748"><ele>673.0</ele><time>2026-04-06T08:13:46.999Z</time></trkpt><trkpt lat="39.446378439548866" lon="16.843847409819553"><ele>673.0</ele><time>2026-04-06T08:13:47.999Z</time></trkpt><trkpt lat="39.44632077296285" lon="16.84401287740543"><ele>673.0</ele><time>2026-04-06T08:13:48.999Z</time></trkpt><trkpt lat="39.44623572350248" lon="16.844155858550316"><ele>673.0</ele><time>2026-04-06T08:13:49.999Z</time></trkpt><trkpt lat="39.446126331432716" lon="16.844273863724627"><ele>673.0</ele><time>2026-04-06T08:13:50.999Z</time></trkpt><trkpt lat="39.44599705284" lon="16.844368545177396"><ele>669.3333333333334</ele><time>2026-04-06T08:13:51.999Z</time></trkpt><trkpt lat="39.445839923061065" lon="16.844435170078953"><ele>665.6666666666666</ele><time>2026-04-06T08:13:52.999Z</time></trkpt><trkpt lat="39.44567282592044" lon="16.84452112327416"><ele>662.0</ele><time>2026-04-06T08:13:53.999Z</time></trkpt><trkpt lat="39.445487056154334" lon="16.844610946337163"><ele>666.3333333333333</ele><time>2026-04-06T08:13:54.999Z</time></trkpt><trkpt lat="39.44535252174349" lon="16.84477320959736"><ele>670.6666666666666</ele><time>2026-04-06T08:13:56.999Z</time></trkpt><trkpt lat="39.44523811140561" lon="16.84489108441448"><ele>675.0</ele><time>2026-04-06T08:13:57.999Z</time></trkpt><trkpt lat="39.44515436153273" lon="16.84503175318816"><ele>674.0</ele><time>2026-04-06T08:13:58.999Z</time></trkpt><trkpt lat="39.44509659228504" lon="16.8451745685444"><ele>673.0</ele><time>2026-04-06T08:13:59.999Z</time></trkpt><trkpt lat="39.445057540634274" lon="16.84533177082606"><ele>672.0</ele><time>2026-04-06T08:14:00.999Z</time></trkpt><trkpt lat="39.44503374265602" lon="16.84551931785341"><ele>671.0</ele><time>2026-04-06T08:14:01.999Z</time></trkpt><trkpt lat="39.445024476039926" lon="16.84571592125267"><ele>671.0</ele><time>2026-04-06T08:14:02.999Z</time></trkpt><trkpt lat="39.445017385089336" lon="16.845905715444268"><ele>671.0</ele><time>2026-04-06T08:14:03.999Z</time></trkpt><trkpt lat="39.44497686098907" lon="16.846079554867632"><ele>671.0</ele><time>2026-04-06T08:14:04.999Z</time></trkpt><trkpt lat="39.44491738734842" lon="16.846247056360674"><ele>671.0</ele><time>2026-04-06T08:14:05.999Z</time></trkpt><trkpt lat="39.444838387528925" lon="16.846410003615148"><ele>669.75</ele><time>2026-04-06T08:14:06.999Z</time></trkpt><trkpt lat="39.44475098081911" lon="16.846567241311906"><ele>668.5</ele><time>2026-04-06T08:14:07.999Z</time></trkpt><trkpt lat="39.44467286374856" lon="16.846712957588874"><ele>667.25</ele><time>2026-04-06T08:14:08.999Z</time></trkpt><trkpt lat="39.44460469408395" lon="16.84685521031706"><ele>666.0</ele><time>2026-04-06T08:14:09.999Z</time></trkpt><trkpt lat="39.44453589643687" lon="16.84701222527974"><ele>666.0</ele><time>2026-04-06T08:14:10.999Z</time></trkpt><trkpt lat="39.444464879464554" lon="16.847176333620975"><ele>666.0</ele><time>2026-04-06T08:14:11.999Z</time></trkpt><trkpt lat="39.44439289231925" lon="16.84733633975775"><ele>666.0</ele><time>2026-04-06T08:14:12.999Z</time></trkpt><trkpt lat="39.444315072448525" lon="16.847487521782725"><ele>666.0</ele><time>2026-04-06T08:14:13.999Z</time></trkpt><trkpt lat="39.4442247286772" lon="16.847629003931132"><ele>662.25</ele><time>2026-04-06T08:14:14.999Z</time></trkpt><trkpt lat="39.444136361790626" lon="16.847761725029475"><ele>658.5</ele><time>2026-04-06T08:14:15.999Z</time></trkpt><trkpt lat="39.44403558112299" lon="16.847902968341913"><ele>654.75</ele><time>2026-04-06T08:14:16.999Z</time></trkpt><trkpt lat="39.44395409696525" lon="16.848072795497814"><ele>651.0</ele><time>2026-04-06T08:14:17.999Z</time></trkpt><trkpt lat="39.443884206152454" lon="16.848257907305996"><ele>650.0</ele><time>2026-04-06T08:14:18.999Z</time></trkpt><trkpt lat="39.443831665045124" lon="16.84846431286237"><ele>649.0</ele><time>2026-04-06T08:14:19.999Z</time></trkpt><trkpt lat="39.44376894382059" lon="16.848657316476995"><ele>648.0</ele><time>2026-04-06T08:14:20.999Z</time></trkpt><trkpt lat="39.44373274038587" lon="16.8488539510151"><ele>646.6666666666666</ele><time>2026-04-06T08:14:21.999Z</time></trkpt><trkpt lat="39.443656307611825" lon="16.84904496006966"><ele>645.3333333333333</ele><time>2026-04-06T08:14:22.999Z</time></trkpt><trkpt lat="39.44354439870213" lon="16.84922381203069"><ele>644.0</ele><time>2026-04-06T08:14:23.999Z</time></trkpt><trkpt lat="39.44344374023134" lon="16.849408662912648"><ele>644.0</ele><time>2026-04-06T08:14:24.999Z</time></trkpt><trkpt lat="39.443356407876394" lon="16.84958324708681"><ele>644.0</ele><time>2026-04-06T08:14:26Z</time></trkpt><trkpt lat="39.443289514104826" lon="16.84976620350052"><ele>644.0</ele><time>2026-04-06T08:14:27Z</time></trkpt><trkpt lat="39.44320496496677" lon="16.84991802509099"><ele>644.0</ele><time>2026-04-06T08:14:28Z</time></trkpt><trkpt lat="39.44310770553581" lon="16.850050983358837"><ele>644.0</ele><time>2026-04-06T08:14:29Z</time></trkpt><trkpt lat="39.44299842459779" lon="16.85016493651201"><ele>644.0</ele><time>2026-04-06T08:14:30Z</time></trkpt><trkpt lat="39.44288310854171" lon="16.85025612446802"><ele>644.0</ele><time>2026-04-06T08:14:31Z</time></trkpt><trkpt lat="39.44276084084966" lon="16.850317273450454"><ele>641.8000000000001</ele><time>2026-04-06T08:14:32Z</time></trkpt><trkpt lat="39.44263513668975" lon="16.850347138268877"><ele>639.6</ele><time>2026-04-06T08:14:33Z</time></trkpt><trkpt lat="39.44252004013086" lon="16.85035827209389"><ele>637.4</ele><time>2026-04-06T08:14:34Z</time></trkpt><trkpt lat="39.44242623342196" lon="16.85038256365168"><ele>635.2</ele><time>2026-04-06T08:14:35Z</time></trkpt><trkpt lat="39.44234373398626" lon="16.850426345936842"><ele>633.0</ele><time>2026-04-06T08:14:36Z</time></trkpt><trkpt lat="39.44227745546941" lon="16.850499141784734"><ele>633.0</ele><time>2026-04-06T08:14:37Z</time></trkpt><trkpt lat="39.4422335343372" lon="16.85062667239985"><ele>633.0</ele><time>2026-04-06T08:14:38Z</time></trkpt><trkpt lat="39.44222117976249" lon="16.850785087895456"><ele>633.0</ele><time>2026-04-06T08:14:39Z</time></trkpt><trkpt lat="39.44225260306426" lon="16.85092469466029"><ele>633.0</ele><time>2026-04-06T08:14:40Z</time></trkpt><trkpt lat="39.44231255940968" lon="16.85103452887605"><ele>633.0</ele><time>2026-04-06T08:14:41Z</time></trkpt><trkpt lat="39.442384953881486" lon="16.851119513762956"><ele>629.5</ele><time>2026-04-06T08:14:42Z</time></trkpt><trkpt lat="39.442496839356465" lon="16.85115061129828"><ele>626.0</ele><time>2026-04-06T08:14:43Z</time></trkpt><trkpt lat="39.442604487230405" lon="16.85110873812069"><ele>622.5</ele><time>2026-04-06T08:14:44Z</time></trkpt><trkpt lat="39.44270676911352" lon="16.851054392341617"><ele>619.0</ele><time>2026-04-06T08:14:45Z</time></trkpt><trkpt lat="39.44282811501097" lon="16.85097615115249"><ele>621.75</ele><time>2026-04-06T08:14:46Z</time></trkpt><trkpt lat="39.44295960222258" lon="16.850907559928103"><ele>624.5</ele><time>2026-04-06T08:14:47Z</time></trkpt><trkpt lat="39.44309168113246" lon="16.850833874203886"><ele>627.25</ele><time>2026-04-06T08:14:48Z</time></trkpt><trkpt lat="39.44321189816222" lon="16.850768843479525"><ele>630.0</ele><time>2026-04-06T08:14:49Z</time></trkpt><trkpt lat="39.443318626933085" lon="16.850705287162775"><ele>630.0</ele><time>2026-04-06T08:14:50Z</time></trkpt><trkpt lat="39.44341718221431" lon="16.85066750221814"><ele>630.0</ele><time>2026-04-06T08:14:51Z</time></trkpt><trkpt lat="39.443514294113584" lon="16.850655977343642"><ele>630.0</ele><time>2026-04-06T08:14:52Z</time></trkpt><trkpt lat="39.44359789125668" lon="16.85071600232115"><ele>630.0</ele><time>2026-04-06T08:14:53Z</time></trkpt><trkpt lat="39.443662787577814" lon="16.850780216887415"><ele>630.0</ele><time>2026-04-06T08:14:54Z</time></trkpt><trkpt lat="39.443717851316" lon="16.850869367258976"><ele>628.8</ele><time>2026-04-06T08:14:55Z</time></trkpt><trkpt lat="39.443746850661334" lon="16.850983424220594"><ele>627.6</ele><time>2026-04-06T08:14:56Z</time></trkpt><trkpt lat="39.4437501640975" lon="16.851096529309448"><ele>626.4</ele><time>2026-04-06T08:14:57Z</time></trkpt><trkpt lat="39.443724197340885" lon="16.851216396792903"><ele>625.2</ele><time>2026-04-06T08:14:58Z</time></trkpt><trkpt lat="39.44366748317036" lon="16.851312216211134"><ele>624.0</ele><time>2026-04-06T08:14:59Z</time></trkpt><trkpt lat="39.443594280277686" lon="16.851399492788588"><ele>624.0</ele><time>2026-04-06T08:15:00Z</time></trkpt><trkpt lat="39.44348950212077" lon="16.851450961684353"><ele>624.0</ele><time>2026-04-06T08:15:01Z</time></trkpt><trkpt lat="39.443375407748796" lon="16.85149315471967"><ele>624.0</ele><time>2026-04-06T08:15:02Z</time></trkpt><trkpt lat="39.443260447076256" lon="16.851550912004296"><ele>624.0</ele><time>2026-04-06T08:15:03Z</time></trkpt><trkpt lat="39.44313733166285" lon="16.851604591714757"><ele>624.0</ele><time>2026-04-06T08:15:04Z</time></trkpt><trkpt lat="39.443002871900156" lon="16.851632143474394"><ele>624.0</ele><time>2026-04-06T08:15:05Z</time></trkpt><trkpt lat="39.442865984201156" lon="16.85163073695618"><ele>624.0</ele><time>2026-04-06T08:15:06Z</time></trkpt><trkpt lat="39.44273834052666" lon="16.85162096555938"><ele>624.0</ele><time>2026-04-06T08:15:07Z</time></trkpt><trkpt lat="39.44261779706043" lon="16.851618380065553"><ele>622.75</ele><time>2026-04-06T08:15:08Z</time></trkpt><trkpt lat="39.44249694701407" lon="16.85161080651679"><ele>621.5</ele><time>2026-04-06T08:15:08.999Z</time></trkpt><trkpt lat="39.442378346278296" lon="16.851589804636305"><ele>620.25</ele><time>2026-04-06T08:15:09.999Z</time></trkpt><trkpt lat="39.44226571546641" lon="16.85153735143639"><ele>619.0</ele><time>2026-04-06T08:15:10.999Z</time></trkpt><trkpt lat="39.442152965096206" lon="16.851462885514987"><ele>614.5</ele><time>2026-04-06T08:15:11.999Z</time></trkpt><trkpt lat="39.44204586481756" lon="16.851366032211875"><ele>610.0</ele><time>2026-04-06T08:15:12.999Z</time></trkpt><trkpt lat="39.44194863026857" lon="16.85125507380645"><ele>605.5</ele><time>2026-04-06T08:15:13.999Z</time></trkpt><trkpt lat="39.44185720192354" lon="16.85113860672416"><ele>601.0</ele><time>2026-04-06T08:15:14.999Z</time></trkpt><trkpt lat="39.441768875848595" lon="16.851028250731282"><ele>604.4</ele><time>2026-04-06T08:15:15.999Z</time></trkpt><trkpt lat="39.44168619935062" lon="16.85092301192479"><ele>607.8</ele><time>2026-04-06T08:15:16.999Z</time></trkpt><trkpt lat="39.44160271368341" lon="16.850826875359097"><ele>611.1999999999999</ele><time>2026-04-06T08:15:17.999Z</time></trkpt><trkpt lat="39.441515932252386" lon="16.85073899178489"><ele>614.6</ele><time>2026-04-06T08:15:18.999Z</time></trkpt><trkpt lat="39.441426650204676" lon="16.850655208204827"><ele>618.0</ele><time>2026-04-06T08:15:19.999Z</time></trkpt><trkpt lat="39.441340580512644" lon="16.850575058338016"><ele>614.6</ele><time>2026-04-06T08:15:20.999Z</time></trkpt><trkpt lat="39.441258557519795" lon="16.85049875938247"><ele>611.1999999999999</ele><time>2026-04-06T08:15:21.999Z</time></trkpt><trkpt lat="39.44117683958681" lon="16.85043486954884"><ele>607.8</ele><time>2026-04-06T08:15:22.999Z</time></trkpt><trkpt lat="39.44109021276931" lon="16.850384600228093"><ele>604.4</ele><time>2026-04-06T08:15:23.999Z</time></trkpt><trkpt lat="39.44100088180231" lon="16.85034656574746"><ele>601.0</ele><time>2026-04-06T08:15:24.999Z</time></trkpt><trkpt lat="39.44091361964677" lon="16.850307895321713"><ele>601.0</ele><time>2026-04-06T08:15:25.999Z</time></trkpt><trkpt lat="39.440828581180725" lon="16.850277561261716"><ele>601.0</ele><time>2026-04-06T08:15:26.999Z</time></trkpt><trkpt lat="39.4407482850747" lon="16.85025439129066"><ele>601.0</ele><time>2026-04-06T08:15:27.999Z</time></trkpt><trkpt lat="39.44065148542204" lon="16.850216660238257"><ele>601.0</ele><time>2026-04-06T08:15:28.999Z</time></trkpt><trkpt lat="39.44051992783971" lon="16.850140469384474"><ele>601.0</ele><time>2026-04-06T08:15:29.999Z</time></trkpt><trkpt lat="39.44037373279282" lon="16.850044492346182"><ele>601.5</ele><time>2026-04-06T08:15:30.999Z</time></trkpt><trkpt lat="39.44024263357029" lon="16.849966449646335"><ele>602.0</ele><time>2026-04-06T08:15:31.999Z</time></trkpt><trkpt lat="39.4401321103053" lon="16.849918330636626"><ele>602.5</ele><time>2026-04-06T08:15:32.999Z</time></trkpt><trkpt lat="39.44002935587278" lon="16.84987549658154"><ele>603.0</ele><time>2026-04-06T08:15:33.999Z</time></trkpt><trkpt lat="39.43993632013691" lon="16.84983468420755"><ele>603.0</ele><time>2026-04-06T08:15:34.999Z</time></trkpt><trkpt lat="39.43984416240938" lon="16.84977939393491"><ele>603.0</ele><time>2026-04-06T08:15:35.999Z</time></trkpt><trkpt lat="39.43975806486497" lon="16.849686312247595"><ele>603.0</ele><time>2026-04-06T08:15:36.999Z</time></trkpt><trkpt lat="39.439684114042194" lon="16.849571247434177"><ele>603.0</ele><time>2026-04-06T08:15:37.999Z</time></trkpt><trkpt lat="39.439624760620376" lon="16.849446524278594"><ele>603.0</ele><time>2026-04-06T08:15:38.999Z</time></trkpt><trkpt lat="39.43957281551668" lon="16.849325210727606"><ele>600.75</ele><time>2026-04-06T08:15:39.999Z</time></trkpt><trkpt lat="39.439511322461534" lon="16.849208306616777"><ele>598.5</ele><time>2026-04-06T08:15:40.999Z</time></trkpt><trkpt lat="39.43944025666854" lon="16.84908909980194"><ele>596.25</ele><time>2026-04-06T08:15:41.999Z</time></trkpt><trkpt lat="39.43937774479469" lon="16.848952392515265"><ele>594.0</ele><time>2026-04-06T08:15:42.999Z</time></trkpt><trkpt lat="39.43933256088697" lon="16.848813083735976"><ele>594.0</ele><time>2026-04-06T08:15:43.999Z</time></trkpt><trkpt lat="39.439309261033614" lon="16.848674138870738"><ele>594.0</ele><time>2026-04-06T08:15:44.999Z</time></trkpt><trkpt lat="39.439289266045364" lon="16.848540453893474"><ele>594.0</ele><time>2026-04-06T08:15:45.999Z</time></trkpt><trkpt lat="39.43924095685066" lon="16.848411799878402"><ele>594.0</ele><time>2026-04-06T08:15:46.999Z</time></trkpt><trkpt lat="39.43916337715764" lon="16.848285467555677"><ele>599.75</ele><time>2026-04-06T08:15:47.999Z</time></trkpt><trkpt lat="39.439075856977794" lon="16.848168732644943"><ele>605.5</ele><time>2026-04-06T08:15:48.999Z</time></trkpt><trkpt lat="39.43898881774456" lon="16.84805471374696"><ele>611.25</ele><time>2026-04-06T08:15:49.999Z</time></trkpt><trkpt lat="39.43891685460804" lon="16.847944064357446"><ele>617.0</ele><time>2026-04-06T08:15:50.999Z</time></trkpt><trkpt lat="39.43887354252438" lon="16.84782526388332"><ele>617.0</ele><time>2026-04-06T08:15:51.999Z</time></trkpt><trkpt lat="39.43884881370844" lon="16.847683043024986"><ele>617.0</ele><time>2026-04-06T08:15:52.999Z</time></trkpt><trkpt lat="39.4388377533508" lon="16.847518452398663"><ele>617.0</ele><time>2026-04-06T08:15:53.999Z</time></trkpt><trkpt lat="39.438826588172624" lon="16.84735271527211"><ele>617.0</ele><time>2026-04-06T08:15:54.999Z</time></trkpt><trkpt lat="39.43881560643955" lon="16.847196433880654"><ele>616.6</ele><time>2026-04-06T08:15:55.999Z</time></trkpt><trkpt lat="39.43881526150246" lon="16.847048309593234"><ele>616.2</ele><time>2026-04-06T08:15:56.999Z</time></trkpt><trkpt lat="39.43882488889744" lon="16.846901470783568"><ele>615.8</ele><time>2026-04-06T08:15:57.999Z</time></trkpt><trkpt lat="39.438859262543005" lon="16.846774642864187"><ele>615.4</ele><time>2026-04-06T08:15:58.999Z</time></trkpt><trkpt lat="39.43892039993013" lon="16.846662342293175"><ele>615.0</ele><time>2026-04-06T08:15:59.999Z</time></trkpt><trkpt lat="39.43900981409326" lon="16.846560066351675"><ele>615.0</ele><time>2026-04-06T08:16:00.999Z</time></trkpt><trkpt lat="39.439084450975336" lon="16.84646436612023"><ele>615.0</ele><time>2026-04-06T08:16:01.999Z</time></trkpt><trkpt lat="39.43912343863557" lon="16.84635417719996"><ele>615.0</ele><time>2026-04-06T08:16:02.999Z</time></trkpt><trkpt lat="39.43911905636533" lon="16.846235602260798"><ele>615.0</ele><time>2026-04-06T08:16:03.999Z</time></trkpt><trkpt lat="39.43907510865195" lon="16.846096515127517"><ele>615.0</ele><time>2026-04-06T08:16:04.999Z</time></trkpt><trkpt lat="39.43900727192171" lon="16.84595337782233"><ele>614.25</ele><time>2026-04-06T08:16:05.999Z</time></trkpt><trkpt lat="39.438924535318684" lon="16.845802794244353"><ele>613.5</ele><time>2026-04-06T08:16:06.999Z</time></trkpt><trkpt lat="39.43885721678656" lon="16.84563805523425"><ele>612.75</ele><time>2026-04-06T08:16:07.999Z</time></trkpt><trkpt lat="39.438790967018974" lon="16.8454805027105"><ele>612.0</ele><time>2026-04-06T08:16:08.999Z</time></trkpt><trkpt lat="39.438721213682776" lon="16.84532233382123"><ele>604.0</ele><time>2026-04-06T08:16:09.999Z</time></trkpt><trkpt lat="39.43865384227472" lon="16.84516520905043"><ele>596.0</ele><time>2026-04-06T08:16:10.999Z</time></trkpt><trkpt lat="39.438593144100636" lon="16.845020013674286"><ele>588.0</ele><time>2026-04-06T08:16:11.999Z</time></trkpt><trkpt lat="39.438543079208436" lon="16.84488239409284"><ele>580.0</ele><time>2026-04-06T08:16:12.999Z</time></trkpt><trkpt lat="39.43850104346613" lon="16.844734151387616"><ele>580.0</ele><time>2026-04-06T08:16:13.999Z</time></trkpt><trkpt lat="39.43848248238998" lon="16.844575849961306"><ele>580.0</ele><time>2026-04-06T08:16:14.999Z</time></trkpt><trkpt lat="39.438487840281496" lon="16.84439995085379"><ele>580.0</ele><time>2026-04-06T08:16:15.999Z</time></trkpt><trkpt lat="39.438513915113404" lon="16.844216122807286"><ele>580.0</ele><time>2026-04-06T08:16:16.999Z</time></trkpt><trkpt lat="39.43854486675493" lon="16.84402935246188"><ele>580.75</ele><time>2026-04-06T08:16:17.999Z</time></trkpt><trkpt lat="39.438569084174546" lon="16.843853158758087"><ele>581.5</ele><time>2026-04-06T08:16:18.999Z</time></trkpt><trkpt lat="39.438578962329096" lon="16.843685357238765"><ele>582.25</ele><time>2026-04-06T08:16:19.999Z</time></trkpt><trkpt lat="39.438566340795155" lon="16.843509479022373"><ele>583.0</ele><time>2026-04-06T08:16:20.999Z</time></trkpt><trkpt lat="39.438520533532675" lon="16.84333819237073"><ele>583.0</ele><time>2026-04-06T08:16:21.999Z</time></trkpt><trkpt lat="39.4384432758308" lon="16.843169593351444"><ele>583.0</ele><time>2026-04-06T08:16:22.999Z</time></trkpt><trkpt lat="39.43837150068845" lon="16.843011914991276"><ele>583.0</ele><time>2026-04-06T08:16:23.999Z</time></trkpt><trkpt lat="39.4383298152112" lon="16.842844818514575"><ele>583.0</ele><time>2026-04-06T08:16:24.999Z</time></trkpt><trkpt lat="39.43831315466181" lon="16.842664156959223"><ele>585.75</ele><time>2026-04-06T08:16:25.999Z</time></trkpt><trkpt lat="39.43830534600795" lon="16.842481007953513"><ele>588.5</ele><time>2026-04-06T08:16:26.999Z</time></trkpt><trkpt lat="39.43829303818834" lon="16.842330574227407"><ele>591.25</ele><time>2026-04-06T08:16:27.999Z</time></trkpt><trkpt lat="39.43824716550844" lon="16.842192510547594"><ele>594.0</ele><time>2026-04-06T08:16:28.999Z</time></trkpt><trkpt lat="39.43816952149493" lon="16.84206613055946"><ele>594.0</ele><time>2026-04-06T08:16:29.999Z</time></trkpt><trkpt lat="39.43808330628414" lon="16.841941865985476"><ele>594.0</ele><time>2026-04-06T08:16:30.999Z</time></trkpt><trkpt lat="39.437986855009036" lon="16.841822190985376"><ele>594.0</ele><time>2026-04-06T08:16:32Z</time></trkpt><trkpt lat="39.43790281751599" lon="16.84169276463169"><ele>594.0</ele><time>2026-04-06T08:16:33Z</time></trkpt><trkpt lat="39.437841782421856" lon="16.841556278228722"><ele>589.5</ele><time>2026-04-06T08:16:34Z</time></trkpt><trkpt lat="39.43778887894982" lon="16.841407908100333"><ele>585.0</ele><time>2026-04-06T08:16:35Z</time></trkpt><trkpt lat="39.437744431047335" lon="16.841241818110802"><ele>580.5</ele><time>2026-04-06T08:16:36Z</time></trkpt><trkpt lat="39.43771160777396" lon="16.84106019305315"><ele>576.0</ele><time>2026-04-06T08:16:37Z</time></trkpt><trkpt lat="39.43767462624438" lon="16.84087136757581"><ele>576.0</ele><time>2026-04-06T08:16:38Z</time></trkpt><trkpt lat="39.437637192245994" lon="16.84068653858054"><ele>576.0</ele><time>2026-04-06T08:16:39Z</time></trkpt><trkpt lat="39.437594693837525" lon="16.84050381962808"><ele>576.0</ele><time>2026-04-06T08:16:40Z</time></trkpt><trkpt lat="39.43754939575526" lon="16.840317097846533"><ele>576.0</ele><time>2026-04-06T08:16:41Z</time></trkpt><trkpt lat="39.4375111203986" lon="16.84014408245088"><ele>577.6</ele><time>2026-04-06T08:16:42Z</time></trkpt><trkpt lat="39.43747025569683" lon="16.83999179583043"><ele>579.2</ele><time>2026-04-06T08:16:43Z</time></trkpt><trkpt lat="39.437432733652834" lon="16.83983030434612"><ele>580.8</ele><time>2026-04-06T08:16:44Z</time></trkpt><trkpt lat="39.4373836330078" lon="16.83971720036043"><ele>582.4</ele><time>2026-04-06T08:16:45Z</time></trkpt><trkpt lat="39.43731693983576" lon="16.839631805547313"><ele>584.0</ele><time>2026-04-06T08:16:46Z</time></trkpt><trkpt lat="39.437254274119724" lon="16.83954286433494"><ele>584.0</ele><time>2026-04-06T08:16:47Z</time></trkpt><trkpt lat="39.437210790920226" lon="16.839410924555676"><ele>584.0</ele><time>2026-04-06T08:16:48Z</time></trkpt><trkpt lat="39.43719235474836" lon="16.83925518734076"><ele>584.0</ele><time>2026-04-06T08:16:49Z</time></trkpt><trkpt lat="39.43720796779655" lon="16.83908069284092"><ele>584.0</ele><time>2026-04-06T08:16:50Z</time></trkpt><trkpt lat="39.437238294892964" lon="16.838906591045436"><ele>586.0</ele><time>2026-04-06T08:16:51Z</time></trkpt><trkpt lat="39.43725973656637" lon="16.838734423988527"><ele>588.0</ele><time>2026-04-06T08:16:52Z</time></trkpt><trkpt lat="39.437260070518604" lon="16.838553869474843"><ele>590.0</ele><time>2026-04-06T08:16:53Z</time></trkpt><trkpt lat="39.43723626409991" lon="16.838383433262322"><ele>592.0</ele><time>2026-04-06T08:16:54Z</time></trkpt><trkpt lat="39.43719330586891" lon="16.83822465522857"><ele>592.5</ele><time>2026-04-06T08:16:55Z</time></trkpt><trkpt lat="39.43716487454948" lon="16.838067269687066"><ele>593.0</ele><time>2026-04-06T08:16:56Z</time></trkpt><trkpt lat="39.437152693495364" lon="16.837903694166915"><ele>593.5</ele><time>2026-04-06T08:16:57Z</time></trkpt><trkpt lat="39.43715541648938" lon="16.837751661813"><ele>594.0</ele><time>2026-04-06T08:16:58Z</time></trkpt><trkpt lat="39.437177018050555" lon="16.837581155558283"><ele>594.0</ele><time>2026-04-06T08:16:59Z</time></trkpt><trkpt lat="39.43725009280068" lon="16.837419605391993"><ele>594.0</ele><time>2026-04-06T08:17:00Z</time></trkpt><trkpt lat="39.43728636369136" lon="16.837258828014498"><ele>594.0</ele><time>2026-04-06T08:17:01Z</time></trkpt><trkpt lat="39.43732243732617" lon="16.837127866310055"><ele>594.0</ele><time>2026-04-06T08:17:02Z</time></trkpt><trkpt lat="39.437338767806196" lon="16.836975255278936"><ele>594.0</ele><time>2026-04-06T08:17:03Z</time></trkpt><trkpt lat="39.437353908227806" lon="16.836827506141688"><ele>594.0</ele><time>2026-04-06T08:17:04Z</time></trkpt><trkpt lat="39.43736818679334" lon="16.83669095056834"><ele>594.0</ele><time>2026-04-06T08:17:05Z</time></trkpt><trkpt lat="39.43738032183489" lon="16.836573925602874"><ele>594.0</ele><time>2026-04-06T08:17:06Z</time></trkpt><trkpt lat="39.4373956668414" lon="16.836472256166065"><ele>594.0</ele><time>2026-04-06T08:17:07Z</time></trkpt><trkpt lat="39.437417209471384" lon="16.83638094670203"><ele>591.8333333333334</ele><time>2026-04-06T08:17:07.999Z</time></trkpt><trkpt lat="39.4374448679977" lon="16.83629871274"><ele>589.6666666666666</ele><time>2026-04-06T08:17:08.999Z</time></trkpt><trkpt lat="39.43750005988099" lon="16.83624179292888"><ele>587.5</ele><time>2026-04-06T08:17:09.999Z</time></trkpt><trkpt lat="39.437555028811005" lon="16.83615952502869"><ele>585.3333333333333</ele><time>2026-04-06T08:17:10.999Z</time></trkpt><trkpt lat="39.43759237010076" lon="16.836058839601755"><ele>583.1666666666666</ele><time>2026-04-06T08:17:11.999Z</time></trkpt><trkpt lat="39.43762401537562" lon="16.835966059743775"><ele>581.0</ele><time>2026-04-06T08:17:12.999Z</time></trkpt><trkpt lat="39.43763449981458" lon="16.835851187543234"><ele>578.8</ele><time>2026-04-06T08:17:13.999Z</time></trkpt><trkpt lat="39.437623400489876" lon="16.83569662365179"><ele>576.6</ele><time>2026-04-06T08:17:14.999Z</time></trkpt><trkpt lat="39.43760920315643" lon="16.83555189839492"><ele>574.4</ele><time>2026-04-06T08:17:15.999Z</time></trkpt><trkpt lat="39.4375682316417" lon="16.8354295134447"><ele>572.2</ele><time>2026-04-06T08:17:16.999Z</time></trkpt><trkpt lat="39.43752489158605" lon="16.83531846343771"><ele>570.0</ele><time>2026-04-06T08:17:17.999Z</time></trkpt><trkpt lat="39.43750846516406" lon="16.83518962700268"><ele>570.2</ele><time>2026-04-06T08:17:18.999Z</time></trkpt><trkpt lat="39.43752004710111" lon="16.83505321680324"><ele>570.4</ele><time>2026-04-06T08:17:19.999Z</time></trkpt><trkpt lat="39.43754749255782" lon="16.834918968371987"><ele>570.6</ele><time>2026-04-06T08:17:20.999Z</time></trkpt><trkpt lat="39.43757739044906" lon="16.83479448383513"><ele>570.8</ele><time>2026-04-06T08:17:21.999Z</time></trkpt><trkpt lat="39.43758285639938" lon="16.8346846719723"><ele>571.0</ele><time>2026-04-06T08:17:22.999Z</time></trkpt><trkpt lat="39.43756704507539" lon="16.834586686111578"><ele>571.0</ele><time>2026-04-06T08:17:23.999Z</time></trkpt><trkpt lat="39.43752219952522" lon="16.83450295196992"><ele>571.0</ele><time>2026-04-06T08:17:24.999Z</time></trkpt><trkpt lat="39.4374557978862" lon="16.834446667778423"><ele>571.0</ele><time>2026-04-06T08:17:25.999Z</time></trkpt><trkpt lat="39.437368251144115" lon="16.834427323455618"><ele>571.0</ele><time>2026-04-06T08:17:26.999Z</time></trkpt><trkpt lat="39.4372604283737" lon="16.834503868027273"><ele>571.0</ele><time>2026-04-06T08:17:27.999Z</time></trkpt><trkpt lat="39.43716607430264" lon="16.83458796902546"><ele>565.25</ele><time>2026-04-06T08:17:28.999Z</time></trkpt><trkpt lat="39.43707016772737" lon="16.834641194105583"><ele>559.5</ele><time>2026-04-06T08:17:29.999Z</time></trkpt><trkpt lat="39.436958911458184" lon="16.83464253165902"><ele>553.75</ele><time>2026-04-06T08:17:30.999Z</time></trkpt><trkpt lat="39.43684325062444" lon="16.834594990779635"><ele>548.0</ele><time>2026-04-06T08:17:31.999Z</time></trkpt><trkpt lat="39.436735024204445" lon="16.834522274357862"><ele>548.0</ele><time>2026-04-06T08:17:32.999Z</time></trkpt><trkpt lat="39.43663030323474" lon="16.83442110827712"><ele>548.0</ele><time>2026-04-06T08:17:33.999Z</time></trkpt><trkpt lat="39.43653210687247" lon="16.834292001780412"><ele>548.0</ele><time>2026-04-06T08:17:34.999Z</time></trkpt><trkpt lat="39.43643306830559" lon="16.834151008644245"><ele>548.0</ele><time>2026-04-06T08:17:35.999Z</time></trkpt><trkpt lat="39.436339852214985" lon="16.834003287807402"><ele>546.75</ele><time>2026-04-06T08:17:36.999Z</time></trkpt><trkpt lat="39.43625251745888" lon="16.83385170321124"><ele>545.5</ele><time>2026-04-06T08:17:37.999Z</time></trkpt><trkpt lat="39.4361714419859" lon="16.83372004537915"><ele>544.25</ele><time>2026-04-06T08:17:38.999Z</time></trkpt><trkpt lat="39.436082614143636" lon="16.83358802149147"><ele>543.0</ele><time>2026-04-06T08:17:39.999Z</time></trkpt><trkpt lat="39.435995084698185" lon="16.83345352946994"><ele>545.5</ele><time>2026-04-06T08:17:40.999Z</time></trkpt><trkpt lat="39.43591984911604" lon="16.833301142252775"><ele>548.0</ele><time>2026-04-06T08:17:41.999Z</time></trkpt><trkpt lat="39.43586915453676" lon="16.833128180703866"><ele>550.5</ele><time>2026-04-06T08:17:42.999Z</time></trkpt><trkpt lat="39.43582932473717" lon="16.832943392409145"><ele>553.0</ele><time>2026-04-06T08:17:43.999Z</time></trkpt><trkpt lat="39.43577480606761" lon="16.832758412202057"><ele>551.25</ele><time>2026-04-06T08:17:44.999Z</time></trkpt><trkpt lat="39.4357107884553" lon="16.83258708111061"><ele>549.5</ele><time>2026-04-06T08:17:45.999Z</time></trkpt><trkpt lat="39.43564248171748" lon="16.83242990227556"><ele>547.75</ele><time>2026-04-06T08:17:46.999Z</time></trkpt><trkpt lat="39.43556014854389" lon="16.832283528784007"><ele>546.0</ele><time>2026-04-06T08:17:47.999Z</time></trkpt><trkpt lat="39.43546247165922" lon="16.832171260851094"><ele>546.0</ele><time>2026-04-06T08:17:48.999Z</time></trkpt><trkpt lat="39.43535926540021" lon="16.83207558368413"><ele>546.0</ele><time>2026-04-06T08:17:49.999Z</time></trkpt><trkpt lat="39.43525492336003" lon="16.83201197368327"><ele>546.0</ele><time>2026-04-06T08:17:50.999Z</time></trkpt><trkpt lat="39.43514468084199" lon="16.831946865141763"><ele>546.0</ele><time>2026-04-06T08:17:51.999Z</time></trkpt><trkpt lat="39.43504506465173" lon="16.831850337239814"><ele>548.8</ele><time>2026-04-06T08:17:52.999Z</time></trkpt><trkpt lat="39.43496089626143" lon="16.831744425591197"><ele>551.6</ele><time>2026-04-06T08:17:53.999Z</time></trkpt><trkpt lat="39.434892104282525" lon="16.831638311005303"><ele>554.4</ele><time>2026-04-06T08:17:54.999Z</time></trkpt><trkpt lat="39.434824097367716" lon="16.83154618461927"><ele>557.2</ele><time>2026-04-06T08:17:55.999Z</time></trkpt><trkpt lat="39.43474288046612" lon="16.831465287934403"><ele>560.0</ele><time>2026-04-06T08:17:56.999Z</time></trkpt><trkpt lat="39.434650169821325" lon="16.83141608344789"><ele>556.6</ele><time>2026-04-06T08:17:57.999Z</time></trkpt><trkpt lat="39.434549362040705" lon="16.83139642498256"><ele>553.2</ele><time>2026-04-06T08:17:58.999Z</time></trkpt><trkpt lat="39.4344398353011" lon="16.831397708760775"><ele>549.8</ele><time>2026-04-06T08:17:59.999Z</time></trkpt><trkpt lat="39.43434613322892" lon="16.831383053251407"><ele>546.4</ele><time>2026-04-06T08:18:00.999Z</time></trkpt><trkpt lat="39.434269236627564" lon="16.83135478322755"><ele>543.0</ele><time>2026-04-06T08:18:01.999Z</time></trkpt><trkpt lat="39.43421867133695" lon="16.83129283386951"><ele>543.0</ele><time>2026-04-06T08:18:02.999Z</time></trkpt><trkpt lat="39.434177074979694" lon="16.831202939176364"><ele>543.0</ele><time>2026-04-06T08:18:03.999Z</time></trkpt><trkpt lat="39.43414259140312" lon="16.83107926546041"><ele>543.0</ele><time>2026-04-06T08:18:04.999Z</time></trkpt><trkpt lat="39.43412638631067" lon="16.830923323790714"><ele>543.0</ele><time>2026-04-06T08:18:05.999Z</time></trkpt><trkpt lat="39.43409566199968" lon="16.83074516585118"><ele>543.0</ele><time>2026-04-06T08:18:06.999Z</time></trkpt><trkpt lat="39.43403839796887" lon="16.830576644015636"><ele>544.8</ele><time>2026-04-06T08:18:07.999Z</time></trkpt><trkpt lat="39.43397362096961" lon="16.83043802807823"><ele>546.5999999999999</ele><time>2026-04-06T08:18:08.999Z</time></trkpt><trkpt lat="39.43391701817962" lon="16.830305345717694"><ele>548.4000000000001</ele><time>2026-04-06T08:18:09.999Z</time></trkpt><trkpt lat="39.43385403969388" lon="16.830207753778904"><ele>550.2</ele><time>2026-04-06T08:18:10.999Z</time></trkpt><trkpt lat="39.43377312508102" lon="16.830140028362248"><ele>552.0</ele><time>2026-04-06T08:18:11.999Z</time></trkpt><trkpt lat="39.43367471584847" lon="16.83009273354634"><ele>553.0</ele><time>2026-04-06T08:18:12.999Z</time></trkpt><trkpt lat="39.43356442252585" lon="16.83005728213053"><ele>554.0</ele><time>2026-04-06T08:18:13.999Z</time></trkpt><trkpt lat="39.433452819933514" lon="16.83002337129552"><ele>555.0</ele><time>2026-04-06T08:18:14.999Z</time></trkpt><trkpt lat="39.43334458869859" lon="16.829977855503493"><ele>556.0</ele><time>2026-04-06T08:18:15.999Z</time></trkpt><trkpt lat="39.433239771695476" lon="16.82992424387443"><ele>556.0</ele><time>2026-04-06T08:18:16.999Z</time></trkpt><trkpt lat="39.433145079500086" lon="16.82985012211622"><ele>556.0</ele><time>2026-04-06T08:18:17.999Z</time></trkpt><trkpt lat="39.4330689989383" lon="16.829734313597186"><ele>556.0</ele><time>2026-04-06T08:18:18.999Z</time></trkpt><trkpt lat="39.432999906406735" lon="16.829599047832836"><ele>556.0</ele><time>2026-04-06T08:18:19.999Z</time></trkpt><trkpt lat="39.43292547496256" lon="16.829464453781384"><ele>558.75</ele><time>2026-04-06T08:18:20.999Z</time></trkpt><trkpt lat="39.432842431067606" lon="16.82933952078702"><ele>561.5</ele><time>2026-04-06T08:18:21.999Z</time></trkpt><trkpt lat="39.43276291254837" lon="16.829207108962688"><ele>564.25</ele><time>2026-04-06T08:18:22.999Z</time></trkpt><trkpt lat="39.43269574126964" lon="16.829060752061007"><ele>567.0</ele><time>2026-04-06T08:18:23.999Z</time></trkpt><trkpt lat="39.432643853609285" lon="16.8289021554028"><ele>567.5</ele><time>2026-04-06T08:18:24.999Z</time></trkpt><trkpt lat="39.43261245839367" lon="16.828736093982002"><ele>568.0</ele><time>2026-04-06T08:18:25.999Z</time></trkpt><trkpt lat="39.432563613779266" lon="16.828578417768536"><ele>568.5</ele><time>2026-04-06T08:18:26.999Z</time></trkpt><trkpt lat="39.432488820270194" lon="16.828421491286086"><ele>569.0</ele><time>2026-04-06T08:18:27.999Z</time></trkpt><trkpt lat="39.432408817298544" lon="16.828270541624608"><ele>571.25</ele><time>2026-04-06T08:18:28.999Z</time></trkpt><trkpt lat="39.432331565044" lon="16.828131885964357"><ele>573.5</ele><time>2026-04-06T08:18:29.999Z</time></trkpt><trkpt lat="39.43226430371422" lon="16.82799700855992"><ele>575.75</ele><time>2026-04-06T08:18:30.999Z</time></trkpt><trkpt lat="39.432187956780396" lon="16.827870337613046"><ele>578.0</ele><time>2026-04-06T08:18:31.999Z</time></trkpt><trkpt lat="39.43210072290738" lon="16.82775647000457"><ele>577.5</ele><time>2026-04-06T08:18:32.999Z</time></trkpt><trkpt lat="39.43200697130786" lon="16.827671304879765"><ele>577.0</ele><time>2026-04-06T08:18:33.999Z</time></trkpt><trkpt lat="39.431907318156554" lon="16.827619835013966"><ele>576.5</ele><time>2026-04-06T08:18:34.999Z</time></trkpt><trkpt lat="39.43178909422373" lon="16.827612896142487"><ele>576.0</ele><time>2026-04-06T08:18:35.999Z</time></trkpt><trkpt lat="39.4316528696596" lon="16.827636787927723"><ele>578.0</ele><time>2026-04-06T08:18:36.999Z</time></trkpt><trkpt lat="39.43151527321646" lon="16.827665414709653"><ele>580.0</ele><time>2026-04-06T08:18:38Z</time></trkpt><trkpt lat="39.43138063686936" lon="16.827684234465913"><ele>582.0</ele><time>2026-04-06T08:18:39Z</time></trkpt><trkpt lat="39.43125673637515" lon="16.82767544617139"><ele>584.0</ele><time>2026-04-06T08:18:40Z</time></trkpt><trkpt lat="39.43113634851175" lon="16.82763101500052"><ele>584.0</ele><time>2026-04-06T08:18:41Z</time></trkpt><trkpt lat="39.43102451477141" lon="16.827546083430278"><ele>584.0</ele><time>2026-04-06T08:18:42Z</time></trkpt><trkpt lat="39.43091726531224" lon="16.827433491125156"><ele>584.0</ele><time>2026-04-06T08:18:43Z</time></trkpt><trkpt lat="39.43081411895479" lon="16.827327986691216"><ele>584.0</ele><time>2026-04-06T08:18:44Z</time></trkpt><trkpt lat="39.430720955497634" lon="16.827247315359433"><ele>584.0</ele><time>2026-04-06T08:18:45Z</time></trkpt><trkpt lat="39.4306296546864" lon="16.827182916662373"><ele>584.0</ele><time>2026-04-06T08:18:46Z</time></trkpt><trkpt lat="39.43053202250376" lon="16.827169009781162"><ele>584.0</ele><time>2026-04-06T08:18:47Z</time></trkpt><trkpt lat="39.430436030304584" lon="16.827193734213385"><ele>584.0</ele><time>2026-04-06T08:18:48Z</time></trkpt><trkpt lat="39.43034684922928" lon="16.827265795865994"><ele>584.0</ele><time>2026-04-06T08:18:49Z</time></trkpt><trkpt lat="39.43026074146318" lon="16.82733665964463"><ele>585.4</ele><time>2026-04-06T08:18:50Z</time></trkpt><trkpt lat="39.43018282830029" lon="16.82736504853776"><ele>586.8</ele><time>2026-04-06T08:18:51Z</time></trkpt><trkpt lat="39.43009896765413" lon="16.82736280625138"><ele>588.2</ele><time>2026-04-06T08:18:52Z</time></trkpt><trkpt lat="39.42999639800287" lon="16.827324065923317"><ele>589.6</ele><time>2026-04-06T08:18:53Z</time></trkpt><trkpt lat="39.42987636892335" lon="16.82725987008503"><ele>591.0</ele><time>2026-04-06T08:18:54Z</time></trkpt><trkpt lat="39.42975612115866" lon="16.827203809676885"><ele>591.0</ele><time>2026-04-06T08:18:55Z</time></trkpt><trkpt lat="39.42964650374885" lon="16.827180826456967"><ele>591.0</ele><time>2026-04-06T08:18:56Z</time></trkpt><trkpt lat="39.42955323107256" lon="16.82720957624687"><ele>591.0</ele><time>2026-04-06T08:18:57Z</time></trkpt><trkpt lat="39.42946500872415" lon="16.82729936061996"><ele>591.0</ele><time>2026-04-06T08:18:58Z</time></trkpt><trkpt lat="39.42940412482027" lon="16.82742988119396"><ele>591.0</ele><time>2026-04-06T08:18:58.999Z</time></trkpt><trkpt lat="39.42935403139306" lon="16.82754097083263"><ele>590.4</ele><time>2026-04-06T08:18:59.999Z</time></trkpt><trkpt lat="39.429306804138584" lon="16.827595114100376"><ele>589.8</ele><time>2026-04-06T08:19:00.999Z</time></trkpt><trkpt lat="39.429197313953914" lon="16.82755638269386"><ele>589.1999999999999</ele><time>2026-04-06T08:19:02.999Z</time></trkpt><trkpt lat="39.42913391335784" lon="16.82747513701486"><ele>588.6</ele><time>2026-04-06T08:19:03.999Z</time></trkpt><trkpt lat="39.429036158441235" lon="16.827357992587984"><ele>588.0</ele><time>2026-04-06T08:19:04.999Z</time></trkpt><trkpt lat="39.428924782708634" lon="16.827238111434536"><ele>588.0</ele><time>2026-04-06T08:19:05.999Z</time></trkpt><trkpt lat="39.42881107656759" lon="16.827123503532565"><ele>588.0</ele><time>2026-04-06T08:19:06.999Z</time></trkpt><trkpt lat="39.428706895714875" lon="16.827008962885234"><ele>588.0</ele><time>2026-04-06T08:19:07.999Z</time></trkpt><trkpt lat="39.42861977400173" lon="16.826897835052034"><ele>588.0</ele><time>2026-04-06T08:19:08.999Z</time></trkpt><trkpt lat="39.4285522759191" lon="16.82676831783925"><ele>592.75</ele><time>2026-04-06T08:19:09.999Z</time></trkpt><trkpt lat="39.42851402609342" lon="16.826610591427542"><ele>597.5</ele><time>2026-04-06T08:19:10.999Z</time></trkpt><trkpt lat="39.42849067846221" lon="16.826442982984005"><ele>602.25</ele><time>2026-04-06T08:19:11.999Z</time></trkpt><trkpt lat="39.42847824523377" lon="16.826276876976973"><ele>607.0</ele><time>2026-04-06T08:19:12.999Z</time></trkpt><trkpt lat="39.428447745830866" lon="16.826127409164673"><ele>607.0</ele><time>2026-04-06T08:19:13.999Z</time></trkpt><trkpt lat="39.42838434509795" lon="16.82600020918399"><ele>607.0</ele><time>2026-04-06T08:19:14.999Z</time></trkpt><trkpt lat="39.42829442502371" lon="16.825894328082196"><ele>607.0</ele><time>2026-04-06T08:19:15.999Z</time></trkpt><trkpt lat="39.42818324051938" lon="16.825804834433736"><ele>607.0</ele><time>2026-04-06T08:19:16.999Z</time></trkpt><trkpt lat="39.4280714663822" lon="16.82572392720529"><ele>605.4</ele><time>2026-04-06T08:19:17.999Z</time></trkpt><trkpt lat="39.427977579245734" lon="16.825638438560784"><ele>603.8000000000001</ele><time>2026-04-06T08:19:18.999Z</time></trkpt><trkpt lat="39.427897291956505" lon="16.825548729150785"><ele>602.2</ele><time>2026-04-06T08:19:19.999Z</time></trkpt><trkpt lat="39.42782551916038" lon="16.82547244841647"><ele>600.6</ele><time>2026-04-06T08:19:20.999Z</time></trkpt><trkpt lat="39.42778741599377" lon="16.825384757584064"><ele>599.0</ele><time>2026-04-06T08:19:21.999Z</time></trkpt><trkpt lat="39.427779994178834" lon="16.825295932695784"><ele>598.5</ele><time>2026-04-06T08:19:22.999Z</time></trkpt><trkpt lat="39.427811502656176" lon="16.825218535562342"><ele>598.0</ele><time>2026-04-06T08:19:23.999Z</time></trkpt><trkpt lat="39.42787262215989" lon="16.825160761145337"><ele>597.5</ele><time>2026-04-06T08:19:24.999Z</time></trkpt><trkpt lat="39.42795709424855" lon="16.825134249439234"><ele>597.0</ele><time>2026-04-06T08:19:25.999Z</time></trkpt><trkpt lat="39.42804725912793" lon="16.82511534222266"><ele>596.5</ele><time>2026-04-06T08:19:26.999Z</time></trkpt><trkpt lat="39.42812041366335" lon="16.82505773671336"><ele>596.0</ele><time>2026-04-06T08:19:27.999Z</time></trkpt><trkpt lat="39.42816043305521" lon="16.824957738617982"><ele>596.0</ele><time>2026-04-06T08:19:28.999Z</time></trkpt><trkpt lat="39.42816943117559" lon="16.82482404480939"><ele>596.0</ele><time>2026-04-06T08:19:29.999Z</time></trkpt><trkpt lat="39.428160681988764" lon="16.824674016140143"><ele>596.0</ele><time>2026-04-06T08:19:30.999Z</time></trkpt><trkpt lat="39.42815378048385" lon="16.824513089423665"><ele>596.0</ele><time>2026-04-06T08:19:31.999Z</time></trkpt><trkpt lat="39.42814843006224" lon="16.824325022712845"><ele>597.3333333333333</ele><time>2026-04-06T08:19:32.999Z</time></trkpt><trkpt lat="39.428135788449126" lon="16.82413287979802"><ele>598.6666666666666</ele><time>2026-04-06T08:19:33.999Z</time></trkpt><trkpt lat="39.42810675881308" lon="16.823937066941948"><ele>600.0</ele><time>2026-04-06T08:19:34.999Z</time></trkpt><trkpt lat="39.42806929493152" lon="16.82374833665653"><ele>600.0</ele><time>2026-04-06T08:19:35.999Z</time></trkpt><trkpt lat="39.42803481964036" lon="16.823575048564255"><ele>600.0</ele><time>2026-04-06T08:19:36.999Z</time></trkpt><trkpt lat="39.42799357506796" lon="16.823408733274594"><ele>600.0</ele><time>2026-04-06T08:19:37.999Z</time></trkpt><trkpt lat="39.427939537543054" lon="16.823262091564718"><ele>600.0</ele><time>2026-04-06T08:19:38.999Z</time></trkpt><trkpt lat="39.427873710272614" lon="16.8231294713567"><ele>602.25</ele><time>2026-04-06T08:19:39.999Z</time></trkpt><trkpt lat="39.42779327339909" lon="16.822998049646127"><ele>604.5</ele><time>2026-04-06T08:19:40.999Z</time></trkpt><trkpt lat="39.4277024832661" lon="16.822871955596156"><ele>606.75</ele><time>2026-04-06T08:19:41.999Z</time></trkpt><trkpt lat="39.42760889959203" lon="16.822746184953086"><ele>609.0</ele><time>2026-04-06T08:19:42.999Z</time></trkpt><trkpt lat="39.42751516177586" lon="16.822619889561203"><ele>609.0</ele><time>2026-04-06T08:19:43.999Z</time></trkpt><trkpt lat="39.42740955482886" lon="16.82250749689001"><ele>609.0</ele><time>2026-04-06T08:19:44.999Z</time></trkpt><trkpt lat="39.42728045299561" lon="16.822416431068138"><ele>609.0</ele><time>2026-04-06T08:19:45.999Z</time></trkpt><trkpt lat="39.42713552241239" lon="16.822351718898133"><ele>609.0</ele><time>2026-04-06T08:19:46.999Z</time></trkpt><trkpt lat="39.42699868219576" lon="16.82227605415181"><ele>612.25</ele><time>2026-04-06T08:19:47.999Z</time></trkpt><trkpt lat="39.42686292259444" lon="16.822197760432957"><ele>615.5</ele><time>2026-04-06T08:19:48.999Z</time></trkpt><trkpt lat="39.42673579956164" lon="16.82211997740563"><ele>618.75</ele><time>2026-04-06T08:19:49.999Z</time></trkpt><trkpt lat="39.42662122129895" lon="16.82205657195753"><ele>622.0</ele><time>2026-04-06T08:19:50.999Z</time></trkpt><trkpt lat="39.42650170400146" lon="16.822024384147422"><ele>622.0</ele><time>2026-04-06T08:19:51.999Z</time></trkpt><trkpt lat="39.42637507431687" lon="16.82200225100856"><ele>622.0</ele><time>2026-04-06T08:19:52.999Z</time></trkpt><trkpt lat="39.426256593677856" lon="16.822028197642936"><ele>622.0</ele><time>2026-04-06T08:19:53.999Z</time></trkpt><trkpt lat="39.42615065548836" lon="16.82203468694468"><ele>622.0</ele><time>2026-04-06T08:19:54.999Z</time></trkpt><trkpt lat="39.42606029392106" lon="16.821985471856944"><ele>621.8000000000001</ele><time>2026-04-06T08:19:55.999Z</time></trkpt><trkpt lat="39.42600429946258" lon="16.821873313182312"><ele>621.6</ele><time>2026-04-06T08:19:56.999Z</time></trkpt><trkpt lat="39.42593884602741" lon="16.821774257445597"><ele>621.4000000000001</ele><time>2026-04-06T08:19:57.999Z</time></trkpt><trkpt lat="39.4259665562027" lon="16.821651613594096"><ele>621.2</ele><time>2026-04-06T08:19:58.999Z</time></trkpt><trkpt lat="39.4259806203802" lon="16.821529341469695"><ele>621.0</ele><time>2026-04-06T08:19:59.999Z</time></trkpt><trkpt lat="39.42600206217684" lon="16.82139176363089"><ele>621.0</ele><time>2026-04-06T08:20:00.999Z</time></trkpt><trkpt lat="39.4260147035263" lon="16.82123826316429"><ele>621.0</ele><time>2026-04-06T08:20:01.999Z</time></trkpt><trkpt lat="39.42602572910639" lon="16.821096394404552"><ele>621.0</ele><time>2026-04-06T08:20:02.999Z</time></trkpt><trkpt lat="39.42601645200629" lon="16.820974369792086"><ele>621.0</ele><time>2026-04-06T08:20:03.999Z</time></trkpt><trkpt lat="39.42598972211257" lon="16.82085396696758"><ele>621.0</ele><time>2026-04-06T08:20:04.999Z</time></trkpt><trkpt lat="39.42593732559443" lon="16.820753015446353"><ele>620.6666666666666</ele><time>2026-04-06T08:20:05.999Z</time></trkpt><trkpt lat="39.42587062720236" lon="16.820695597071538"><ele>620.3333333333334</ele><time>2026-04-06T08:20:06.999Z</time></trkpt><trkpt lat="39.42579580190159" lon="16.82067261501586"><ele>620.0</ele><time>2026-04-06T08:20:07.999Z</time></trkpt><trkpt lat="39.4257163799828" lon="16.820677750831912"><ele>619.6666666666667</ele><time>2026-04-06T08:20:08.999Z</time></trkpt><trkpt lat="39.42563549450389" lon="16.82072561189759"><ele>619.3333333333334</ele><time>2026-04-06T08:20:09.999Z</time></trkpt><trkpt lat="39.425553777371896" lon="16.82079988788455"><ele>619.0</ele><time>2026-04-06T08:20:10.999Z</time></trkpt><trkpt lat="39.425481795731486" lon="16.82092912859383"><ele>617.5</ele><time>2026-04-06T08:20:11.999Z</time></trkpt><trkpt lat="39.42542210671827" lon="16.82111410927188"><ele>616.0</ele><time>2026-04-06T08:20:12.999Z</time></trkpt><trkpt lat="39.42536324697327" lon="16.82128659397656"><ele>614.5</ele><time>2026-04-06T08:20:13.999Z</time></trkpt><trkpt lat="39.425305101861525" lon="16.82143634599536"><ele>613.0</ele><time>2026-04-06T08:20:14.999Z</time></trkpt><trkpt lat="39.425247597118464" lon="16.821574238999897"><ele>613.0</ele><time>2026-04-06T08:20:15.999Z</time></trkpt><trkpt lat="39.425201709533276" lon="16.821671407458318"><ele>613.0</ele><time>2026-04-06T08:20:16.999Z</time></trkpt><trkpt lat="39.42515100833946" lon="16.821734696063736"><ele>613.0</ele><time>2026-04-06T08:20:17.999Z</time></trkpt><trkpt lat="39.42508953293784" lon="16.82176748087035"><ele>613.0</ele><time>2026-04-06T08:20:18.999Z</time></trkpt><trkpt lat="39.42502636772903" lon="16.821752428562665"><ele>613.0</ele><time>2026-04-06T08:20:19.999Z</time></trkpt><trkpt lat="39.4249733219592" lon="16.821698495222023"><ele>613.0</ele><time>2026-04-06T08:20:20.999Z</time></trkpt><trkpt lat="39.424937828945566" lon="16.82160463565655"><ele>613.0</ele><time>2026-04-06T08:20:21.999Z</time></trkpt><trkpt lat="39.424919811184864" lon="16.821497846443172"><ele>613.0</ele><time>2026-04-06T08:20:22.999Z</time></trkpt><trkpt lat="39.424938699607175" lon="16.821372771256808"><ele>613.0</ele><time>2026-04-06T08:20:23.999Z</time></trkpt><trkpt lat="39.42496560068193" lon="16.821235830532956"><ele>613.0</ele><time>2026-04-06T08:20:24.999Z</time></trkpt><trkpt lat="39.42497409338786" lon="16.82110424776667"><ele>613.0</ele><time>2026-04-06T08:20:25.999Z</time></trkpt><trkpt lat="39.4249600285767" lon="16.820991955973643"><ele>613.0</ele><time>2026-04-06T08:20:26.999Z</time></trkpt><trkpt lat="39.42491237028101" lon="16.820895842764457"><ele>612.5</ele><time>2026-04-06T08:20:27.999Z</time></trkpt><trkpt lat="39.42483596937711" lon="16.82080793952565"><ele>612.0</ele><time>2026-04-06T08:20:28.999Z</time></trkpt><trkpt lat="39.42472222366571" lon="16.8207370064118"><ele>611.5</ele><time>2026-04-06T08:20:29.999Z</time></trkpt><trkpt lat="39.42461343028564" lon="16.820658685181566"><ele>611.0</ele><time>2026-04-06T08:20:30.999Z</time></trkpt><trkpt lat="39.424516399839476" lon="16.82055160477871"><ele>609.0</ele><time>2026-04-06T08:20:31.999Z</time></trkpt><trkpt lat="39.42442854549203" lon="16.82041023877056"><ele>607.0</ele><time>2026-04-06T08:20:32.999Z</time></trkpt><trkpt lat="39.42434185879613" lon="16.82025390168398"><ele>605.0</ele><time>2026-04-06T08:20:33.999Z</time></trkpt><trkpt lat="39.42425094055424" lon="16.820089069322176"><ele>603.0</ele><time>2026-04-06T08:20:34.999Z</time></trkpt><trkpt lat="39.424160037606974" lon="16.819933891740327"><ele>603.0</ele><time>2026-04-06T08:20:35.999Z</time></trkpt><trkpt lat="39.42407609626512" lon="16.819790242231473"><ele>603.0</ele><time>2026-04-06T08:20:36.999Z</time></trkpt><trkpt lat="39.42399839395912" lon="16.819658619610834"><ele>603.0</ele><time>2026-04-06T08:20:37.999Z</time></trkpt><trkpt lat="39.42391683525844" lon="16.819525438872216"><ele>603.0</ele><time>2026-04-06T08:20:38.999Z</time></trkpt><trkpt lat="39.423837929963994" lon="16.819387132759235"><ele>600.25</ele><time>2026-04-06T08:20:39.999Z</time></trkpt><trkpt lat="39.4237689291924" lon="16.819247510525994"><ele>597.5</ele><time>2026-04-06T08:20:40.999Z</time></trkpt><trkpt lat="39.42371332163147" lon="16.819094319978685"><ele>594.75</ele><time>2026-04-06T08:20:41.999Z</time></trkpt><trkpt lat="39.423679613549346" lon="16.818917692954006"><ele>592.0</ele><time>2026-04-06T08:20:42.998Z</time></trkpt><trkpt lat="39.423636113779644" lon="16.818741947053606"><ele>592.0</ele><time>2026-04-06T08:20:43.999Z</time></trkpt><trkpt lat="39.42359693818393" lon="16.818584651804297"><ele>592.0</ele><time>2026-04-06T08:20:44.999Z</time></trkpt><trkpt lat="39.42356984739396" lon="16.818428549619576"><ele>592.0</ele><time>2026-04-06T08:20:45.999Z</time></trkpt><trkpt lat="39.42356027894352" lon="16.81826845306889"><ele>592.0</ele><time>2026-04-06T08:20:46.999Z</time></trkpt><trkpt lat="39.423568030232424" lon="16.81810834187115"><ele>592.0</ele><time>2026-04-06T08:20:47.999Z</time></trkpt><trkpt lat="39.42360430194005" lon="16.817938411372754"><ele>592.0</ele><time>2026-04-06T08:20:48.999Z</time></trkpt><trkpt lat="39.423635378383615" lon="16.81772935990622"><ele>592.0</ele><time>2026-04-06T08:20:49.999Z</time></trkpt><trkpt lat="39.42364017157645" lon="16.817488313386857"><ele>592.0</ele><time>2026-04-06T08:20:50.999Z</time></trkpt><trkpt lat="39.42363241188599" lon="16.817269370542643"><ele>592.0</ele><time>2026-04-06T08:20:51.999Z</time></trkpt><trkpt lat="39.42362738500229" lon="16.81708317540692"><ele>592.0</ele><time>2026-04-06T08:20:52.999Z</time></trkpt><trkpt lat="39.4236188030067" lon="16.81691410288037"><ele>592.0</ele><time>2026-04-06T08:20:53.999Z</time></trkpt><trkpt lat="39.42361321825716" lon="16.816755863552306"><ele>592.6</ele><time>2026-04-06T08:20:54.999Z</time></trkpt><trkpt lat="39.423612989798784" lon="16.81660697472693"><ele>593.2</ele><time>2026-04-06T08:20:55.999Z</time></trkpt><trkpt lat="39.423611921075086" lon="16.81646716115788"><ele>593.8</ele><time>2026-04-06T08:20:56.999Z</time></trkpt><trkpt lat="39.423600894708294" lon="16.81634504004459"><ele>594.4</ele><time>2026-04-06T08:20:57.999Z</time></trkpt><trkpt lat="39.42357727611754" lon="16.816247396030516"><ele>595.0</ele><time>2026-04-06T08:20:58.999Z</time></trkpt><trkpt lat="39.42352952681906" lon="16.816179355493013"><ele>595.0</ele><time>2026-04-06T08:20:59.999Z</time></trkpt><trkpt lat="39.423451813223245" lon="16.816119691519145"><ele>595.0</ele><time>2026-04-06T08:21:00.999Z</time></trkpt><trkpt lat="39.42335114151004" lon="16.816094938805684"><ele>595.0</ele><time>2026-04-06T08:21:01.999Z</time></trkpt><trkpt lat="39.423225515548005" lon="16.81610411560859"><ele>595.0</ele><time>2026-04-06T08:21:02.999Z</time></trkpt><trkpt lat="39.42310916736172" lon="16.81609063841547"><ele>595.0</ele><time>2026-04-06T08:21:03.999Z</time></trkpt><trkpt lat="39.42301550598434" lon="16.81608841298392"><ele>594.2</ele><time>2026-04-06T08:21:04.999Z</time></trkpt><trkpt lat="39.42293668324767" lon="16.816131132813762"><ele>593.4</ele><time>2026-04-06T08:21:05.999Z</time></trkpt><trkpt lat="39.42286129738971" lon="16.81622418517316"><ele>592.6</ele><time>2026-04-06T08:21:06.999Z</time></trkpt><trkpt lat="39.422778502752045" lon="16.81633349262601"><ele>591.8</ele><time>2026-04-06T08:21:07.999Z</time></trkpt><trkpt lat="39.422685082805025" lon="16.81642439584214"><ele>591.0</ele><time>2026-04-06T08:21:08.999Z</time></trkpt><trkpt lat="39.422596214202564" lon="16.816485026095997"><ele>591.0</ele><time>2026-04-06T08:21:09.999Z</time></trkpt><trkpt lat="39.422505255461616" lon="16.81651833574701"><ele>591.0</ele><time>2026-04-06T08:21:10.999Z</time></trkpt><trkpt lat="39.4224084544112" lon="16.81650945740617"><ele>591.0</ele><time>2026-04-06T08:21:11.999Z</time></trkpt><trkpt lat="39.42230425715484" lon="16.816465653100494"><ele>591.0</ele><time>2026-04-06T08:21:12.999Z</time></trkpt><trkpt lat="39.42218144231826" lon="16.81639869944269"><ele>591.0</ele><time>2026-04-06T08:21:13.999Z</time></trkpt><trkpt lat="39.42206070779203" lon="16.81634150574325"><ele>589.6</ele><time>2026-04-06T08:21:14.999Z</time></trkpt><trkpt lat="39.42195364308911" lon="16.81628757388361"><ele>588.2</ele><time>2026-04-06T08:21:15.999Z</time></trkpt><trkpt lat="39.4218629586127" lon="16.81623819506498"><ele>586.8</ele><time>2026-04-06T08:21:16.999Z</time></trkpt><trkpt lat="39.421781592663834" lon="16.81619377772428"><ele>585.4</ele><time>2026-04-06T08:21:17.999Z</time></trkpt><trkpt lat="39.42168708798259" lon="16.816146149964684"><ele>584.0</ele><time>2026-04-06T08:21:18.999Z</time></trkpt><trkpt lat="39.42156856901263" lon="16.816079601205793"><ele>584.0</ele><time>2026-04-06T08:21:19.999Z</time></trkpt><trkpt lat="39.42143611751863" lon="16.816032613882637"><ele>584.0</ele><time>2026-04-06T08:21:20.999Z</time></trkpt><trkpt lat="39.42129435023098" lon="16.81600270705811"><ele>584.0</ele><time>2026-04-06T08:21:21.999Z</time></trkpt><trkpt lat="39.421123399955164" lon="16.81600300740102"><ele>582.75</ele><time>2026-04-06T08:21:22.999Z</time></trkpt><trkpt lat="39.420959930874965" lon="16.81601411670297"><ele>581.5</ele><time>2026-04-06T08:21:23.999Z</time></trkpt><trkpt lat="39.42080939818812" lon="16.81601448120634"><ele>580.25</ele><time>2026-04-06T08:21:24.999Z</time></trkpt><trkpt lat="39.420676332275356" lon="16.81599819995884"><ele>579.0</ele><time>2026-04-06T08:21:25.999Z</time></trkpt><trkpt lat="39.420549678279066" lon="16.81598395648574"><ele>577.0</ele><time>2026-04-06T08:21:26.999Z</time></trkpt><trkpt lat="39.420432889037734" lon="16.815998144918186"><ele>575.0</ele><time>2026-04-06T08:21:27.999Z</time></trkpt><trkpt lat="39.42031310116712" lon="16.816024064618567"><ele>573.0</ele><time>2026-04-06T08:21:28.999Z</time></trkpt><trkpt lat="39.42018724314812" lon="16.81603392958082"><ele>571.0</ele><time>2026-04-06T08:21:29.999Z</time></trkpt><trkpt lat="39.42004705212852" lon="16.816007877592988"><ele>569.5</ele><time>2026-04-06T08:21:30.999Z</time></trkpt><trkpt lat="39.41990296619845" lon="16.81596580324854"><ele>568.0</ele><time>2026-04-06T08:21:31.999Z</time></trkpt><trkpt lat="39.4197759720373" lon="16.815913754286377"><ele>566.5</ele><time>2026-04-06T08:21:32.999Z</time></trkpt><trkpt lat="39.41966355172547" lon="16.815876711244577"><ele>565.0</ele><time>2026-04-06T08:21:33.999Z</time></trkpt><trkpt lat="39.41957733545713" lon="16.81584065156301"><ele>565.0</ele><time>2026-04-06T08:21:34.999Z</time></trkpt><trkpt lat="39.419507897513995" lon="16.815794632371546"><ele>565.0</ele><time>2026-04-06T08:21:35.999Z</time></trkpt><trkpt lat="39.41945309504578" lon="16.815715634662382"><ele>565.0</ele><time>2026-04-06T08:21:36.999Z</time></trkpt><trkpt lat="39.41941987640853" lon="16.81561658300288"><ele>565.0</ele><time>2026-04-06T08:21:37.999Z</time></trkpt><trkpt lat="39.41940627374262" lon="16.815484786459972"><ele>565.0</ele><time>2026-04-06T08:21:38.999Z</time></trkpt><trkpt lat="39.419398169683745" lon="16.815340564641406"><ele>565.0</ele><time>2026-04-06T08:21:39.999Z</time></trkpt><trkpt lat="39.41940032473807" lon="16.815186446563427"><ele>565.0</ele><time>2026-04-06T08:21:40.999Z</time></trkpt><trkpt lat="39.41944553727758" lon="16.815051648634572"><ele>565.0</ele><time>2026-04-06T08:21:41.999Z</time></trkpt><trkpt lat="39.41947714842764" lon="16.814933209149558"><ele>565.0</ele><time>2026-04-06T08:21:42.999Z</time></trkpt><trkpt lat="39.41948963134631" lon="16.81481636548679"><ele>565.0</ele><time>2026-04-06T08:21:43.999Z</time></trkpt><trkpt lat="39.419471927289" lon="16.81469846414888"><ele>565.2</ele><time>2026-04-06T08:21:44.999Z</time></trkpt><trkpt lat="39.41942971957921" lon="16.814593884272618"><ele>565.4</ele><time>2026-04-06T08:21:45.999Z</time></trkpt><trkpt lat="39.41938114851334" lon="16.814490472028126"><ele>565.6</ele><time>2026-04-06T08:21:46.999Z</time></trkpt><trkpt lat="39.419332423773874" lon="16.814378507501164"><ele>565.8</ele><time>2026-04-06T08:21:47.999Z</time></trkpt><trkpt lat="39.41929035421892" lon="16.814252352015917"><ele>566.0</ele><time>2026-04-06T08:21:48.999Z</time></trkpt><trkpt lat="39.41924258813305" lon="16.814122882161502"><ele>566.8</ele><time>2026-04-06T08:21:49.999Z</time></trkpt><trkpt lat="39.41919293052094" lon="16.81400631542438"><ele>567.6</ele><time>2026-04-06T08:21:50.999Z</time></trkpt><trkpt lat="39.41915103051822" lon="16.813894656573737"><ele>568.4</ele><time>2026-04-06T08:21:51.999Z</time></trkpt><trkpt lat="39.41910485218898" lon="16.813785607649656"><ele>569.2</ele><time>2026-04-06T08:21:52.999Z</time></trkpt><trkpt lat="39.41905770071822" lon="16.813692021801884"><ele>570.0</ele><time>2026-04-06T08:21:53.999Z</time></trkpt><trkpt lat="39.41900474190591" lon="16.81362957785082"><ele>570.0</ele><time>2026-04-06T08:21:54.999Z</time></trkpt><trkpt lat="39.418942898116086" lon="16.813605253393487"><ele>570.0</ele><time>2026-04-06T08:21:55.999Z</time></trkpt><trkpt lat="39.41886316486514" lon="16.813621730164154"><ele>570.0</ele><time>2026-04-06T08:21:56.999Z</time></trkpt><trkpt lat="39.41876267702816" lon="16.813656562131186"><ele>570.0</ele><time>2026-04-06T08:21:57.999Z</time></trkpt><trkpt lat="39.41866067844684" lon="16.813702018389495"><ele>570.0</ele><time>2026-04-06T08:21:58.999Z</time></trkpt><trkpt lat="39.41858006096269" lon="16.81372088944548"><ele>570.0</ele><time>2026-04-06T08:21:59.999Z</time></trkpt><trkpt lat="39.41854478309587" lon="16.813792210628577"><ele>570.3333333333334</ele><time>2026-04-06T08:22:00.999Z</time></trkpt><trkpt lat="39.418544819772315" lon="16.813876224920552"><ele>570.6666666666666</ele><time>2026-04-06T08:22:01.999Z</time></trkpt><trkpt lat="39.41854125065199" lon="16.814000516313254"><ele>571.0</ele><time>2026-04-06T08:22:03.999Z</time></trkpt><trkpt lat="39.41853394590482" lon="16.814119918813798"><ele>571.3333333333333</ele><time>2026-04-06T08:22:05.999Z</time></trkpt><trkpt lat="39.41847678979192" lon="16.814163491998045"><ele>571.6666666666666</ele><time>2026-04-06T08:22:07.999Z</time></trkpt><trkpt lat="39.41837279903191" lon="16.81417541098161"><ele>572.0</ele><time>2026-04-06T08:22:09.999Z</time></trkpt><trkpt lat="39.41827444611359" lon="16.814291484019094"><ele>572.2</ele><time>2026-04-06T08:22:11.999Z</time></trkpt><trkpt lat="39.418206227944026" lon="16.814370899825445"><ele>572.4000000000001</ele><time>2026-04-06T08:22:12.999Z</time></trkpt><trkpt lat="39.41812167366812" lon="16.81445413606909"><ele>572.5999999999999</ele><time>2026-04-06T08:22:13.999Z</time></trkpt><trkpt lat="39.41801866365357" lon="16.814554908078073"><ele>572.8</ele><time>2026-04-06T08:22:14.999Z</time></trkpt><trkpt lat="39.41792845682534" lon="16.81464986088379"><ele>573.0</ele><time>2026-04-06T08:22:15.999Z</time></trkpt><trkpt lat="39.41784324567761" lon="16.81474010592359"><ele>575.5</ele><time>2026-04-06T08:22:16.999Z</time></trkpt><trkpt lat="39.41775685024852" lon="16.814849933818294"><ele>578.0</ele><time>2026-04-06T08:22:17.999Z</time></trkpt><trkpt lat="39.41767466524073" lon="16.81497970175667"><ele>580.5</ele><time>2026-04-06T08:22:18.999Z</time></trkpt><trkpt lat="39.417596920069144" lon="16.815112136681723"><ele>583.0</ele><time>2026-04-06T08:22:19.999Z</time></trkpt><trkpt lat="39.417516835722495" lon="16.81524187980859"><ele>583.5</ele><time>2026-04-06T08:22:20.999Z</time></trkpt><trkpt lat="39.417441734326694" lon="16.815377661376623"><ele>584.0</ele><time>2026-04-06T08:22:21.999Z</time></trkpt><trkpt lat="39.41735836734473" lon="16.815529804083226"><ele>584.5</ele><time>2026-04-06T08:22:22.999Z</time></trkpt><trkpt lat="39.41727145013432" lon="16.815678770687878"><ele>585.0</ele><time>2026-04-06T08:22:23.999Z</time></trkpt><trkpt lat="39.41718470911459" lon="16.81581825747034"><ele>587.75</ele><time>2026-04-06T08:22:24.999Z</time></trkpt><trkpt lat="39.417106251065775" lon="16.81595414344875"><ele>590.5</ele><time>2026-04-06T08:22:25.999Z</time></trkpt><trkpt lat="39.417030118811574" lon="16.816089012179535"><ele>593.25</ele><time>2026-04-06T08:22:26.999Z</time></trkpt><trkpt lat="39.41693901516757" lon="16.81624704743945"><ele>596.0</ele><time>2026-04-06T08:22:27.999Z</time></trkpt><trkpt lat="39.416841693431465" lon="16.816419048354916"><ele>596.25</ele><time>2026-04-06T08:22:28.999Z</time></trkpt><trkpt lat="39.41675448083094" lon="16.816568346239"><ele>596.5</ele><time>2026-04-06T08:22:29.999Z</time></trkpt><trkpt lat="39.416677962517944" lon="16.816706202857183"><ele>596.75</ele><time>2026-04-06T08:22:30.999Z</time></trkpt><trkpt lat="39.41660462545305" lon="16.81684407026005"><ele>597.0</ele><time>2026-04-06T08:22:31.999Z</time></trkpt><trkpt lat="39.416537885888836" lon="16.816981524937912"><ele>597.0</ele><time>2026-04-06T08:22:32.999Z</time></trkpt><trkpt lat="39.41646359375413" lon="16.81712872255907"><ele>597.0</ele><time>2026-04-06T08:22:33.999Z</time></trkpt><trkpt lat="39.41638772670813" lon="16.817276672428246"><ele>597.0</ele><time>2026-04-06T08:22:34.999Z</time></trkpt><trkpt lat="39.41631958509039" lon="16.817410802211864"><ele>597.0</ele><time>2026-04-06T08:22:35.999Z</time></trkpt><trkpt lat="39.41625865507877" lon="16.817533792012856"><ele>597.4</ele><time>2026-04-06T08:22:36.999Z</time></trkpt><trkpt lat="39.41619775756934" lon="16.81763238581046"><ele>597.8000000000001</ele><time>2026-04-06T08:22:37.999Z</time></trkpt><trkpt lat="39.41614030699558" lon="16.81772517207414"><ele>598.2</ele><time>2026-04-06T08:22:38.999Z</time></trkpt><trkpt lat="39.41608778666" lon="16.817816263212336"><ele>598.6</ele><time>2026-04-06T08:22:39.999Z</time></trkpt><trkpt lat="39.41603624186991" lon="16.81793714770912"><ele>599.0</ele><time>2026-04-06T08:22:40.999Z</time></trkpt><trkpt lat="39.4159760855512" lon="16.81809787264724"><ele>599.0</ele><time>2026-04-06T08:22:41.999Z</time></trkpt><trkpt lat="39.415886964251534" lon="16.818280843885287"><ele>599.0</ele><time>2026-04-06T08:22:42.999Z</time></trkpt><trkpt lat="39.41580206566949" lon="16.818451882076427"><ele>599.0</ele><time>2026-04-06T08:22:43.999Z</time></trkpt><trkpt lat="39.41572746276635" lon="16.818609049614224"><ele>599.6666666666666</ele><time>2026-04-06T08:22:44.999Z</time></trkpt><trkpt lat="39.41563364503029" lon="16.818757009316688"><ele>600.3333333333334</ele><time>2026-04-06T08:22:45.999Z</time></trkpt><trkpt lat="39.41554905498336" lon="16.818924721871575"><ele>601.0</ele><time>2026-04-06T08:22:46.999Z</time></trkpt><trkpt lat="39.41546568954144" lon="16.81908772218881"><ele>604.25</ele><time>2026-04-06T08:22:47.999Z</time></trkpt><trkpt lat="39.415385892808125" lon="16.819243256567702"><ele>607.5</ele><time>2026-04-06T08:22:48.999Z</time></trkpt><trkpt lat="39.415311050369546" lon="16.819389134370127"><ele>610.75</ele><time>2026-04-06T08:22:50Z</time></trkpt><trkpt lat="39.415236432707346" lon="16.819530608618443"><ele>614.0</ele><time>2026-04-06T08:22:51Z</time></trkpt><trkpt lat="39.41516314498564" lon="16.819667592134"><ele>615.25</ele><time>2026-04-06T08:22:52Z</time></trkpt><trkpt lat="39.41510018884932" lon="16.81981888611968"><ele>616.5</ele><time>2026-04-06T08:22:53Z</time></trkpt><trkpt lat="39.41501651627154" lon="16.819958094776574"><ele>617.75</ele><time>2026-04-06T08:22:54Z</time></trkpt><trkpt lat="39.414925412528675" lon="16.820079824532538"><ele>619.0</ele><time>2026-04-06T08:22:55Z</time></trkpt><trkpt lat="39.41484447180535" lon="16.820211371653095"><ele>619.6</ele><time>2026-04-06T08:22:56Z</time></trkpt><trkpt lat="39.41477012556708" lon="16.820332167411255"><ele>620.2</ele><time>2026-04-06T08:22:57Z</time></trkpt><trkpt lat="39.4147023668798" lon="16.820444973861868"><ele>620.8000000000001</ele><time>2026-04-06T08:22:58Z</time></trkpt><trkpt lat="39.41463977448251" lon="16.82054860194981"><ele>621.4</ele><time>2026-04-06T08:22:59Z</time></trkpt><trkpt lat="39.41457627437872" lon="16.820650760539177"><ele>622.0</ele><time>2026-04-06T08:23:00Z</time></trkpt><trkpt lat="39.414514690465644" lon="16.820741065488782"><ele>622.8000000000001</ele><time>2026-04-06T08:23:01Z</time></trkpt><trkpt lat="39.41444718991084" lon="16.820844713246736"><ele>623.6</ele><time>2026-04-06T08:23:02Z</time></trkpt><trkpt lat="39.41436446006222" lon="16.820931846580322"><ele>624.4000000000001</ele><time>2026-04-06T08:23:03Z</time></trkpt><trkpt lat="39.41428857298959" lon="16.821006299853583"><ele>625.2</ele><time>2026-04-06T08:23:04Z</time></trkpt><trkpt lat="39.41422296966689" lon="16.82107951026344"><ele>626.0</ele><time>2026-04-06T08:23:05Z</time></trkpt><trkpt lat="39.41413870186399" lon="16.82115496939417"><ele>626.0</ele><time>2026-04-06T08:23:05.999Z</time></trkpt><trkpt lat="39.41405437696055" lon="16.82123140897239"><ele>626.0</ele><time>2026-04-06T08:23:06.999Z</time></trkpt><trkpt lat="39.41396305095212" lon="16.821303840041182"><ele>626.0</ele><time>2026-04-06T08:23:07.999Z</time></trkpt><trkpt lat="39.413874047260656" lon="16.821370023391946"><ele>626.0</ele><time>2026-04-06T08:23:08.999Z</time></trkpt><trkpt lat="39.41378267010544" lon="16.82144676305768"><ele>626.0</ele><time>2026-04-06T08:23:09.999Z</time></trkpt><trkpt lat="39.41369397184142" lon="16.821526964717446"><ele>627.0</ele><time>2026-04-06T08:23:10.999Z</time></trkpt><trkpt lat="39.41361177497928" lon="16.821598545528374"><ele>628.0</ele><time>2026-04-06T08:23:11.999Z</time></trkpt><trkpt lat="39.41352089904152" lon="16.821640632165714"><ele>629.0</ele><time>2026-04-06T08:23:12.999Z</time></trkpt><trkpt lat="39.41344362788866" lon="16.82171435944541"><ele>630.0</ele><time>2026-04-06T08:23:13.999Z</time></trkpt><trkpt lat="39.41336432888646" lon="16.821790206318717"><ele>631.0</ele><time>2026-04-06T08:23:14.999Z</time></trkpt><trkpt lat="39.41328754944604" lon="16.8218628929927"><ele>629.3333333333334</ele><time>2026-04-06T08:23:15.999Z</time></trkpt><trkpt lat="39.41321130917934" lon="16.821934376499083"><ele>627.6666666666667</ele><time>2026-04-06T08:23:16.999Z</time></trkpt><trkpt lat="39.413139916362034" lon="16.82200626669733"><ele>626.0</ele><time>2026-04-06T08:23:17.999Z</time></trkpt><trkpt lat="39.41307199026888" lon="16.822076082827046"><ele>624.3333333333334</ele><time>2026-04-06T08:23:18.999Z</time></trkpt><trkpt lat="39.41300488132714" lon="16.822135398512685"><ele>622.6666666666666</ele><time>2026-04-06T08:23:19.999Z</time></trkpt><trkpt lat="39.412927746024295" lon="16.822175061971354"><ele>621.0</ele><time>2026-04-06T08:23:20.999Z</time></trkpt><trkpt lat="39.412862351714494" lon="16.822231148050747"><ele>620.9999999999999</ele><time>2026-04-06T08:23:21.999Z</time></trkpt><trkpt lat="39.41280174927125" lon="16.822287221005737"><ele>621.0</ele><time>2026-04-06T08:23:22.999Z</time></trkpt><trkpt lat="39.41273912317529" lon="16.822345092400088"><ele>621.0</ele><time>2026-04-06T08:23:23.999Z</time></trkpt><trkpt lat="39.41267232608712" lon="16.822406818801447"><ele>621.0</ele><time>2026-04-06T08:23:24.999Z</time></trkpt><trkpt lat="39.41262002663358" lon="16.82247503460323"><ele>621.0</ele><time>2026-04-06T08:23:25.999Z</time></trkpt><trkpt lat="39.41256455770049" lon="16.822529913046292"><ele>620.9999999999999</ele><time>2026-04-06T08:23:26.999Z</time></trkpt><trkpt lat="39.412505877260486" lon="16.822560647718312"><ele>621.0</ele><time>2026-04-06T08:23:27.999Z</time></trkpt><trkpt lat="39.412428567358944" lon="16.82263052323836"><ele>620.1666666666666</ele><time>2026-04-06T08:23:29.999Z</time></trkpt><trkpt lat="39.41236190336266" lon="16.822677824563787"><ele>619.3333333333334</ele><time>2026-04-06T08:23:32Z</time></trkpt><trkpt lat="39.41228032957782" lon="16.82267576869275"><ele>618.5</ele><time>2026-04-06T08:23:35Z</time></trkpt><trkpt lat="39.41221830550872" lon="16.8227408685086"><ele>617.6666666666667</ele><time>2026-04-06T08:23:37Z</time></trkpt><trkpt lat="39.41216249484963" lon="16.822833588540927"><ele>616.8333333333334</ele><time>2026-04-06T08:23:39Z</time></trkpt><trkpt lat="39.41211893647312" lon="16.822946219939052"><ele>616.0</ele><time>2026-04-06T08:23:41Z</time></trkpt><trkpt lat="39.412024548802684" lon="16.8230555981455"><ele>616.0</ele><time>2026-04-06T08:23:43Z</time></trkpt><trkpt lat="39.41197631781661" lon="16.82312908075667"><ele>616.0</ele><time>2026-04-06T08:23:44Z</time></trkpt><trkpt lat="39.41191895463178" lon="16.823216476799526"><ele>616.0</ele><time>2026-04-06T08:23:45Z</time></trkpt><trkpt lat="39.41185937170536" lon="16.823307254728107"><ele>616.0</ele><time>2026-04-06T08:23:46Z</time></trkpt><trkpt lat="39.41180136254049" lon="16.823395634957222"><ele>616.0</ele><time>2026-04-06T08:23:47Z</time></trkpt><trkpt lat="39.411750211229894" lon="16.823482180360312"><ele>616.0</ele><time>2026-04-06T08:23:48Z</time></trkpt><trkpt lat="39.411701638776854" lon="16.823560433998967"><ele>614.3333333333334</ele><time>2026-04-06T08:23:49Z</time></trkpt><trkpt lat="39.41165684711732" lon="16.823632664807075"><ele>612.6666666666667</ele><time>2026-04-06T08:23:50Z</time></trkpt><trkpt lat="39.41160354923397" lon="16.82371307089424"><ele>611.0</ele><time>2026-04-06T08:23:51Z</time></trkpt><trkpt lat="39.41154717190592" lon="16.823805400650834"><ele>609.3333333333334</ele><time>2026-04-06T08:23:52Z</time></trkpt><trkpt lat="39.41148518268924" lon="16.82389287867474"><ele>607.6666666666666</ele><time>2026-04-06T08:23:53Z</time></trkpt><trkpt lat="39.4114177771216" lon="16.82397721363643"><ele>606.0</ele><time>2026-04-06T08:23:54Z</time></trkpt><trkpt lat="39.411349295194434" lon="16.8240795111638"><ele>605.75</ele><time>2026-04-06T08:23:55Z</time></trkpt><trkpt lat="39.41127577082512" lon="16.824195818955072"><ele>605.5</ele><time>2026-04-06T08:23:56Z</time></trkpt><trkpt lat="39.4111979254435" lon="16.824312323497445"><ele>605.25</ele><time>2026-04-06T08:23:57Z</time></trkpt><trkpt lat="39.41112080141564" lon="16.824429385471124"><ele>605.0</ele><time>2026-04-06T08:23:58Z</time></trkpt><trkpt lat="39.41104307484168" lon="16.824541746856546"><ele>605.0</ele><time>2026-04-06T08:23:59Z</time></trkpt><trkpt lat="39.41097562439188" lon="16.82464444708718"><ele>605.0</ele><time>2026-04-06T08:24:00Z</time></trkpt><trkpt lat="39.4109097642554" lon="16.82474206125992"><ele>605.0</ele><time>2026-04-06T08:24:01Z</time></trkpt><trkpt lat="39.410847751496" lon="16.824833975983637"><ele>605.0</ele><time>2026-04-06T08:24:02Z</time></trkpt><trkpt lat="39.41078821598101" lon="16.824924561430905"><ele>605.0</ele><time>2026-04-06T08:24:03Z</time></trkpt><trkpt lat="39.4107320833772" lon="16.82501250737324"><ele>605.0</ele><time>2026-04-06T08:24:04Z</time></trkpt><trkpt lat="39.410678229584015" lon="16.825093891474978"><ele>605.0</ele><time>2026-04-06T08:24:05Z</time></trkpt><trkpt lat="39.41062614053178" lon="16.825171261341396"><ele>605.0</ele><time>2026-04-06T08:24:06Z</time></trkpt><trkpt lat="39.41057535219626" lon="16.82524252048656"><ele>605.0</ele><time>2026-04-06T08:24:07Z</time></trkpt><trkpt lat="39.4105387047135" lon="16.825318122039896"><ele>605.0</ele><time>2026-04-06T08:24:08Z</time></trkpt><trkpt lat="39.410480009511616" lon="16.825428649751323"><ele>605.0</ele><time>2026-04-06T08:24:10Z</time></trkpt><trkpt lat="39.41044115007891" lon="16.82549765596525"><ele>604.1666666666666</ele><time>2026-04-06T08:24:12Z</time></trkpt><trkpt lat="39.410360627229025" lon="16.82556998052732"><ele>603.3333333333333</ele><time>2026-04-06T08:25:14Z</time></trkpt><trkpt lat="39.41031876218217" lon="16.82564404469838"><ele>602.5</ele><time>2026-04-06T08:25:15Z</time></trkpt><trkpt lat="39.410268448432376" lon="16.825726189551837"><ele>601.6666666666666</ele><time>2026-04-06T08:25:16Z</time></trkpt><trkpt lat="39.41021984561799" lon="16.82580875484623"><ele>600.8333333333334</ele><time>2026-04-06T08:25:17Z</time></trkpt><trkpt lat="39.410164180637196" lon="16.82588282550711"><ele>600.0</ele><time>2026-04-06T08:25:18Z</time></trkpt><trkpt lat="39.41010894674506" lon="16.8259431572602"><ele>598.6</ele><time>2026-04-06T08:25:19Z</time></trkpt><trkpt lat="39.41005333944511" lon="16.82599803633521"><ele>597.2</ele><time>2026-04-06T08:25:20Z</time></trkpt><trkpt lat="39.40997021162383" lon="16.826111167363997"><ele>595.8</ele><time>2026-04-06T08:25:22Z</time></trkpt><trkpt lat="39.409916182976275" lon="16.82623989706712"><ele>594.4</ele><time>2026-04-06T08:25:24Z</time></trkpt><trkpt lat="39.409890500204924" lon="16.826374247686516"><ele>593.0</ele><time>2026-04-06T08:25:26Z</time></trkpt><trkpt lat="39.40993032678663" lon="16.82648970686115"><ele>593.0</ele><time>2026-04-06T08:25:28Z</time></trkpt><trkpt lat="39.40997343328356" lon="16.826562043330348"><ele>593.0</ele><time>2026-04-06T08:25:29Z</time></trkpt><trkpt lat="39.41004145397172" lon="16.826654383908455"><ele>593.0</ele><time>2026-04-06T08:25:31Z</time></trkpt><trkpt lat="39.41012697851814" lon="16.82663714018914"><ele>593.0</ele><time>2026-04-06T08:25:33Z</time></trkpt><trkpt lat="39.41024218070077" lon="16.826649650526594"><ele>593.0</ele><time>2026-04-06T08:25:35Z</time></trkpt><trkpt lat="39.410294146652575" lon="16.82670513213342"><ele>593.0</ele><time>2026-04-06T08:25:36Z</time></trkpt><trkpt lat="39.4104076113291" lon="16.82677040031454"><ele>592.3333333333333</ele><time>2026-04-06T08:25:38Z</time></trkpt><trkpt lat="39.4104847577276" lon="16.82684781586679"><ele>591.6666666666666</ele><time>2026-04-06T08:25:40Z</time></trkpt><trkpt lat="39.41055387973667" lon="16.82693900701398"><ele>591.0</ele><time>2026-04-06T08:25:42Z</time></trkpt><trkpt lat="39.41061289626633" lon="16.826905778420215"><ele>590.3333333333334</ele><time>2026-04-06T08:25:43Z</time></trkpt><trkpt lat="39.41067792180727" lon="16.82683286362026"><ele>589.6666666666667</ele><time>2026-04-06T08:25:44Z</time></trkpt><trkpt lat="39.410748572222104" lon="16.826762941260988"><ele>589.0</ele><time>2026-04-06T08:25:45Z</time></trkpt><trkpt lat="39.41081547053794" lon="16.82670351640827"><ele>589.0</ele><time>2026-04-06T08:25:46Z</time></trkpt><trkpt lat="39.41087045048857" lon="16.8266297488124"><ele>589.0</ele><time>2026-04-06T08:25:47Z</time></trkpt><trkpt lat="39.41093286336316" lon="16.826564168955553"><ele>589.0</ele><time>2026-04-06T08:25:48Z</time></trkpt><trkpt lat="39.411004981994154" lon="16.826483608367116"><ele>589.0</ele><time>2026-04-06T08:25:49Z</time></trkpt><trkpt lat="39.411044573687334" lon="16.826355843171736"><ele>589.0</ele><time>2026-04-06T08:25:50Z</time></trkpt><trkpt lat="39.41109170736869" lon="16.82622497383606"><ele>589.0</ele><time>2026-04-06T08:25:51Z</time></trkpt><trkpt lat="39.4111615511806" lon="16.826096402358242"><ele>589.0</ele><time>2026-04-06T08:25:52Z</time></trkpt><trkpt lat="39.411233171237285" lon="16.825980603378756"><ele>589.0</ele><time>2026-04-06T08:25:53Z</time></trkpt><trkpt lat="39.41131274208076" lon="16.82588054366295"><ele>589.0</ele><time>2026-04-06T08:25:54Z</time></trkpt><trkpt lat="39.411382842249296" lon="16.825785417877803"><ele>589.0</ele><time>2026-04-06T08:25:55Z</time></trkpt><trkpt lat="39.41144297445108" lon="16.82569688376056"><ele>587.6666666666667</ele><time>2026-04-06T08:25:56Z</time></trkpt><trkpt lat="39.41150382172454" lon="16.825607471447917"><ele>586.3333333333334</ele><time>2026-04-06T08:25:57Z</time></trkpt><trkpt lat="39.411561556491975" lon="16.825528470855396"><ele>585.0</ele><time>2026-04-06T08:25:58Z</time></trkpt><trkpt lat="39.41161699721054" lon="16.82545644637825"><ele>583.6666666666666</ele><time>2026-04-06T08:25:59Z</time></trkpt><trkpt lat="39.41167190051164" lon="16.82538728292271"><ele>582.3333333333333</ele><time>2026-04-06T08:26:00Z</time></trkpt><trkpt lat="39.411725030365076" lon="16.825322561888505"><ele>581.0</ele><time>2026-04-06T08:26:01Z</time></trkpt><trkpt lat="39.411772676880304" lon="16.825264520450446"><ele>581.0</ele><time>2026-04-06T08:26:02Z</time></trkpt><trkpt lat="39.41187194972992" lon="16.825149906572747"><ele>581.0</ele><time>2026-04-06T08:26:04Z</time></trkpt><trkpt lat="39.41192838362404" lon="16.825088533857684"><ele>581.0</ele><time>2026-04-06T08:26:05Z</time></trkpt><trkpt lat="39.41201543704398" lon="16.8249938619044"><ele>581.0</ele><time>2026-04-06T08:26:07Z</time></trkpt><trkpt lat="39.41210080697709" lon="16.82489716376122"><ele>581.0</ele><time>2026-04-06T08:26:09Z</time></trkpt><trkpt lat="39.41218585942163" lon="16.82479406653239"><ele>583.2</ele><time>2026-04-06T08:26:11Z</time></trkpt><trkpt lat="39.41228338954306" lon="16.824665009509424"><ele>585.4000000000001</ele><time>2026-04-06T08:26:13Z</time></trkpt><trkpt lat="39.412336005344294" lon="16.824593180401106"><ele>587.6</ele><time>2026-04-06T08:26:14Z</time></trkpt><trkpt lat="39.41238415857294" lon="16.824527445516"><ele>589.8000000000001</ele><time>2026-04-06T08:26:15Z</time></trkpt><trkpt lat="39.41245255729391" lon="16.8244532930643"><ele>592.0</ele><time>2026-04-06T08:26:17Z</time></trkpt><trkpt lat="39.41251658118197" lon="16.824345300999678"><ele>593.2</ele><time>2026-04-06T08:27:17Z</time></trkpt><trkpt lat="39.41259296969227" lon="16.824222487792674"><ele>594.4000000000001</ele><time>2026-04-06T08:27:19Z</time></trkpt><trkpt lat="39.41266467066547" lon="16.82416893170721"><ele>595.5999999999999</ele><time>2026-04-06T08:27:20Z</time></trkpt><trkpt lat="39.4127213324578" lon="16.82408552724061"><ele>596.8</ele><time>2026-04-06T08:27:21Z</time></trkpt><trkpt lat="39.41278781069894" lon="16.824026623011406"><ele>598.0</ele><time>2026-04-06T08:27:22Z</time></trkpt><trkpt lat="39.412874687717434" lon="16.82399374130255"><ele>598.0</ele><time>2026-04-06T08:27:23Z</time></trkpt><trkpt lat="39.41296176666381" lon="16.82393371352229"><ele>598.0</ele><time>2026-04-06T08:27:24Z</time></trkpt><trkpt lat="39.413047459854724" lon="16.82387167195026"><ele>598.0</ele><time>2026-04-06T08:27:25Z</time></trkpt><trkpt lat="39.41317636133938" lon="16.823783222144908"><ele>598.0</ele><time>2026-04-06T08:27:26Z</time></trkpt><trkpt lat="39.41328560997526" lon="16.82370573514125"><ele>598.25</ele><time>2026-04-06T08:27:27Z</time></trkpt><trkpt lat="39.41338357292355" lon="16.82362933379891"><ele>598.5</ele><time>2026-04-06T08:27:28Z</time></trkpt><trkpt lat="39.413478256588405" lon="16.823554046123174"><ele>598.75</ele><time>2026-04-06T08:27:29Z</time></trkpt><trkpt lat="39.41357040410912" lon="16.823466940347217"><ele>599.0</ele><time>2026-04-06T08:27:30Z</time></trkpt><trkpt lat="39.41367978178982" lon="16.823421447960083"><ele>600.8</ele><time>2026-04-06T08:27:31Z</time></trkpt><trkpt lat="39.41378384058729" lon="16.82335513827347"><ele>602.5999999999999</ele><time>2026-04-06T08:27:32Z</time></trkpt><trkpt lat="39.41387993902519" lon="16.823289657628028"><ele>604.4</ele><time>2026-04-06T08:27:33Z</time></trkpt><trkpt lat="39.413967369061" lon="16.823251508904583"><ele>606.1999999999999</ele><time>2026-04-06T08:27:34Z</time></trkpt><trkpt lat="39.41404614208117" lon="16.82321938079315"><ele>608.0</ele><time>2026-04-06T08:27:35Z</time></trkpt><trkpt lat="39.41411232924349" lon="16.82319829513644"><ele>608.6</ele><time>2026-04-06T08:27:36Z</time></trkpt><trkpt lat="39.41417480074372" lon="16.823175678395714"><ele>609.1999999999999</ele><time>2026-04-06T08:27:38Z</time></trkpt><trkpt lat="39.41418806448272" lon="16.823003497180977"><ele>609.8</ele><time>2026-04-06T08:27:41Z</time></trkpt><trkpt lat="39.41411093994059" lon="16.822861519448075"><ele>610.4</ele><time>2026-04-06T08:27:43Z</time></trkpt><trkpt lat="39.414053566000604" lon="16.822783808043283"><ele>611.0</ele><time>2026-04-06T08:27:44Z</time></trkpt><trkpt lat="39.41398490299996" lon="16.822706797606173"><ele>612.2</ele><time>2026-04-06T08:27:45Z</time></trkpt><trkpt lat="39.41390783578552" lon="16.822629193343495"><ele>613.4000000000001</ele><time>2026-04-06T08:27:46Z</time></trkpt><trkpt lat="39.41382705854747" lon="16.822561287994716"><ele>614.6</ele><time>2026-04-06T08:27:47Z</time></trkpt><trkpt lat="39.41375022869254" lon="16.822505086106453"><ele>615.8000000000001</ele><time>2026-04-06T08:27:48Z</time></trkpt><trkpt lat="39.4136723659177" lon="16.82247160756473"><ele>617.0</ele><time>2026-04-06T08:27:49Z</time></trkpt><trkpt lat="39.41358275072897" lon="16.822466712419804"><ele>617.5</ele><time>2026-04-06T08:27:50Z</time></trkpt><trkpt lat="39.41350146743103" lon="16.822505039313445"><ele>618.0</ele><time>2026-04-06T08:27:51Z</time></trkpt><trkpt lat="39.413437884793964" lon="16.82256233009529"><ele>618.5</ele><time>2026-04-06T08:27:52Z</time></trkpt><trkpt lat="39.41338054248862" lon="16.822617981645767"><ele>619.0</ele><time>2026-04-06T08:27:53Z</time></trkpt><trkpt lat="39.41331463755291" lon="16.822694345643157"><ele>619.5</ele><time>2026-04-06T08:27:54Z</time></trkpt><trkpt lat="39.413230135203094" lon="16.82275632783972"><ele>620.0</ele><time>2026-04-06T08:27:55Z</time></trkpt><trkpt lat="39.41314228644535" lon="16.822797532307586"><ele>618.6</ele><time>2026-04-06T08:27:56Z</time></trkpt><trkpt lat="39.41304981109455" lon="16.822770730325622"><ele>617.2</ele><time>2026-04-06T08:27:57Z</time></trkpt><trkpt lat="39.41294801395336" lon="16.822771021388316"><ele>615.8</ele><time>2026-04-06T08:27:58Z</time></trkpt><trkpt lat="39.41284089698337" lon="16.82277313490901"><ele>614.4</ele><time>2026-04-06T08:27:59Z</time></trkpt><trkpt lat="39.412734762297234" lon="16.822794970242374"><ele>613.0</ele><time>2026-04-06T08:28:00Z</time></trkpt><trkpt lat="39.4126321313416" lon="16.822796943402512"><ele>613.0</ele><time>2026-04-06T08:28:01Z</time></trkpt><trkpt lat="39.4125460936992" lon="16.822772636580783"><ele>613.0</ele><time>2026-04-06T08:28:02Z</time></trkpt><trkpt lat="39.412460322731924" lon="16.82276270939613"><ele>613.0</ele><time>2026-04-06T08:28:03Z</time></trkpt><trkpt lat="39.41239313965262" lon="16.82276349018406"><ele>613.0</ele><time>2026-04-06T08:28:04Z</time></trkpt><trkpt lat="39.41230150994195" lon="16.822702631595575"><ele>613.0</ele><time>2026-04-06T08:28:06Z</time></trkpt><trkpt lat="39.412275193613844" lon="16.822566851721625"><ele>614.6</ele><time>2026-04-06T08:28:08Z</time></trkpt><trkpt lat="39.412335723774355" lon="16.822390667538652"><ele>616.1999999999999</ele><time>2026-04-06T08:28:10Z</time></trkpt><trkpt lat="39.41237076316014" lon="16.82229679777833"><ele>617.8</ele><time>2026-04-06T08:28:11Z</time></trkpt><trkpt lat="39.412409648903676" lon="16.822189074246428"><ele>619.4</ele><time>2026-04-06T08:28:12Z</time></trkpt><trkpt lat="39.41244687998146" lon="16.822085936245344"><ele>621.0</ele><time>2026-04-06T08:28:13Z</time></trkpt><trkpt lat="39.41245744436258" lon="16.821974302525366"><ele>621.0</ele><time>2026-04-06T08:28:14Z</time></trkpt><trkpt lat="39.41249345034639" lon="16.821874732609633"><ele>621.0</ele><time>2026-04-06T08:28:15Z</time></trkpt><trkpt lat="39.412529637035085" lon="16.82177705309839"><ele>621.0</ele><time>2026-04-06T08:28:16Z</time></trkpt><trkpt lat="39.412562981954146" lon="16.8216889416123"><ele>621.0</ele><time>2026-04-06T08:28:17Z</time></trkpt><trkpt lat="39.41260077757216" lon="16.821595429594563"><ele>621.0</ele><time>2026-04-06T08:28:18Z</time></trkpt><trkpt lat="39.4126337403359" lon="16.82149604175086"><ele>621.0</ele><time>2026-04-06T08:28:19Z</time></trkpt><trkpt lat="39.41267555410923" lon="16.821388932579747"><ele>621.2</ele><time>2026-04-06T08:28:20Z</time></trkpt><trkpt lat="39.41271609965581" lon="16.82127384438772"><ele>621.4000000000001</ele><time>2026-04-06T08:28:21Z</time></trkpt><trkpt lat="39.41275487056256" lon="16.82115626374475"><ele>621.6</ele><time>2026-04-06T08:28:22Z</time></trkpt><trkpt lat="39.412815659641666" lon="16.8210481282605"><ele>621.8000000000001</ele><time>2026-04-06T08:28:23Z</time></trkpt><trkpt lat="39.412840623606314" lon="16.820913177127128"><ele>622.0</ele><time>2026-04-06T08:28:24Z</time></trkpt><trkpt lat="39.4128897294319" lon="16.820781912899047"><ele>622.2</ele><time>2026-04-06T08:28:25Z</time></trkpt><trkpt lat="39.41293472835267" lon="16.820649144670767"><ele>622.4000000000001</ele><time>2026-04-06T08:28:26Z</time></trkpt><trkpt lat="39.41297896590874" lon="16.820526009177474"><ele>622.5999999999999</ele><time>2026-04-06T08:28:27Z</time></trkpt><trkpt lat="39.41304244884162" lon="16.82040873147283"><ele>622.8</ele><time>2026-04-06T08:28:28Z</time></trkpt><trkpt lat="39.41308452021281" lon="16.8202896708336"><ele>623.0</ele><time>2026-04-06T08:28:29Z</time></trkpt><trkpt lat="39.413120586972056" lon="16.820187603080903"><ele>624.6666666666666</ele><time>2026-04-06T08:28:30Z</time></trkpt><trkpt lat="39.41315275876659" lon="16.820096558103344"><ele>626.3333333333333</ele><time>2026-04-06T08:28:31Z</time></trkpt><trkpt lat="39.41318693362749" lon="16.819996238602876"><ele>628.0</ele><time>2026-04-06T08:28:32Z</time></trkpt><trkpt lat="39.413217743303946" lon="16.8199049806044"><ele>629.6666666666666</ele><time>2026-04-06T08:28:33Z</time></trkpt><trkpt lat="39.41324810024756" lon="16.819810238165445"><ele>631.3333333333334</ele><time>2026-04-06T08:28:34Z</time></trkpt><trkpt lat="39.41329274011253" lon="16.819667207107244"><ele>633.0</ele><time>2026-04-06T08:28:36Z</time></trkpt><trkpt lat="39.41331845887284" lon="16.819553697200202"><ele>633.0</ele><time>2026-04-06T08:28:38Z</time></trkpt><trkpt lat="39.4133322634773" lon="16.81947087111766"><ele>633.0</ele><time>2026-04-06T08:28:40Z</time></trkpt><trkpt lat="39.41334346413099" lon="16.819319039404487"><ele>633.0</ele><time>2026-04-06T08:28:42Z</time></trkpt><trkpt lat="39.41333342193908" lon="16.81920509437261"><ele>633.0</ele><time>2026-04-06T08:28:43Z</time></trkpt><trkpt lat="39.41333438990877" lon="16.81908455480068"><ele>633.0</ele><time>2026-04-06T08:28:44Z</time></trkpt><trkpt lat="39.41333400393798" lon="16.818954181981884"><ele>633.0</ele><time>2026-04-06T08:28:45Z</time></trkpt><trkpt lat="39.41333827686572" lon="16.818831979999015"><ele>633.0</ele><time>2026-04-06T08:28:46Z</time></trkpt><trkpt lat="39.413334021382866" lon="16.818697643838018"><ele>633.0</ele><time>2026-04-06T08:28:47Z</time></trkpt><trkpt lat="39.41332897573242" lon="16.81856416308122"><ele>633.0</ele><time>2026-04-06T08:28:48Z</time></trkpt><trkpt lat="39.41331565089706" lon="16.81843226774663"><ele>633.0</ele><time>2026-04-06T08:28:49Z</time></trkpt><trkpt lat="39.41332949659412" lon="16.818314206596927"><ele>633.1999999999999</ele><time>2026-04-06T08:28:50Z</time></trkpt><trkpt lat="39.413328442127394" lon="16.81819561576216"><ele>633.4</ele><time>2026-04-06T08:28:51Z</time></trkpt><trkpt lat="39.41333046335455" lon="16.818063584218038"><ele>633.5999999999999</ele><time>2026-04-06T08:28:52Z</time></trkpt><trkpt lat="39.41333400000228" lon="16.817925464165086"><ele>633.8</ele><time>2026-04-06T08:28:53Z</time></trkpt><trkpt lat="39.41334567545712" lon="16.817792494918454"><ele>634.0</ele><time>2026-04-06T08:28:54Z</time></trkpt><trkpt lat="39.41336623622329" lon="16.8176550337354"><ele>634.75</ele><time>2026-04-06T08:28:55Z</time></trkpt><trkpt lat="39.413404701081056" lon="16.81751011325596"><ele>635.5</ele><time>2026-04-06T08:28:56Z</time></trkpt><trkpt lat="39.41345504639401" lon="16.817365141731944"><ele>636.25</ele><time>2026-04-06T08:28:57Z</time></trkpt><trkpt lat="39.41350754086426" lon="16.817221256473875"><ele>637.0</ele><time>2026-04-06T08:28:58Z</time></trkpt><trkpt lat="39.413561542628976" lon="16.817066032358145"><ele>637.0</ele><time>2026-04-06T08:28:59Z</time></trkpt><trkpt lat="39.41361988984153" lon="16.816906540791866"><ele>637.0</ele><time>2026-04-06T08:29:00Z</time></trkpt><trkpt lat="39.41368012727063" lon="16.81674311270098"><ele>637.0</ele><time>2026-04-06T08:29:01Z</time></trkpt><trkpt lat="39.4137257824978" lon="16.816576477984373"><ele>637.0</ele><time>2026-04-06T08:29:02Z</time></trkpt><trkpt lat="39.41379732701136" lon="16.816425034826484"><ele>636.0</ele><time>2026-04-06T08:29:03Z</time></trkpt><trkpt lat="39.41385873978961" lon="16.816262754278693"><ele>635.0</ele><time>2026-04-06T08:29:04Z</time></trkpt><trkpt lat="39.41391958433418" lon="16.81610125427731"><ele>634.0</ele><time>2026-04-06T08:29:04.999Z</time></trkpt><trkpt lat="39.41397577353448" lon="16.815945296665117"><ele>633.0</ele><time>2026-04-06T08:29:05.999Z</time></trkpt><trkpt lat="39.41402783872543" lon="16.8158007890236"><ele>633.0</ele><time>2026-04-06T08:29:06.999Z</time></trkpt><trkpt lat="39.41407287333917" lon="16.81565150268243"><ele>633.0</ele><time>2026-04-06T08:29:08Z</time></trkpt><trkpt lat="39.41409454023086" lon="16.81548820401883"><ele>633.0</ele><time>2026-04-06T08:29:09Z</time></trkpt><trkpt lat="39.41412657723001" lon="16.815332184030247"><ele>633.0</ele><time>2026-04-06T08:29:10Z</time></trkpt><trkpt lat="39.414111289320836" lon="16.815163053923815"><ele>633.0</ele><time>2026-04-06T08:29:11Z</time></trkpt><trkpt lat="39.41410550434543" lon="16.8149932049459"><ele>633.0</ele><time>2026-04-06T08:29:12Z</time></trkpt><trkpt lat="39.414088466820274" lon="16.814819987564455"><ele>633.0</ele><time>2026-04-06T08:29:13Z</time></trkpt><trkpt lat="39.414075837738615" lon="16.814643946852996"><ele>633.0</ele><time>2026-04-06T08:29:14Z</time></trkpt><trkpt lat="39.41406279461756" lon="16.81445980324958"><ele>633.5</ele><time>2026-04-06T08:29:15Z</time></trkpt><trkpt lat="39.41405760896875" lon="16.814266436387232"><ele>634.0</ele><time>2026-04-06T08:29:16Z</time></trkpt><trkpt lat="39.41404162831775" lon="16.814085810217417"><ele>634.5</ele><time>2026-04-06T08:29:17Z</time></trkpt><trkpt lat="39.4140429669098" lon="16.813928726383278"><ele>635.0</ele><time>2026-04-06T08:29:18Z</time></trkpt><trkpt lat="39.41405234435885" lon="16.813796306478956"><ele>635.0</ele><time>2026-04-06T08:29:19Z</time></trkpt><trkpt lat="39.41409134258418" lon="16.813677117377793"><ele>635.0</ele><time>2026-04-06T08:29:20Z</time></trkpt><trkpt lat="39.414127269549475" lon="16.81354174999111"><ele>635.0</ele><time>2026-04-06T08:29:21Z</time></trkpt><trkpt lat="39.41415345781874" lon="16.813393620373226"><ele>635.0</ele><time>2026-04-06T08:29:22Z</time></trkpt><trkpt lat="39.414173377962705" lon="16.81325714011753"><ele>635.0</ele><time>2026-04-06T08:29:23Z</time></trkpt><trkpt lat="39.414160101184194" lon="16.813124328639447"><ele>636.75</ele><time>2026-04-06T08:29:24Z</time></trkpt><trkpt lat="39.414131510273506" lon="16.81300099252943"><ele>638.5</ele><time>2026-04-06T08:29:25Z</time></trkpt><trkpt lat="39.4140426957546" lon="16.812902791259695"><ele>640.25</ele><time>2026-04-06T08:29:26Z</time></trkpt><trkpt lat="39.413946714247395" lon="16.812813095441854"><ele>642.0</ele><time>2026-04-06T08:29:27Z</time></trkpt><trkpt lat="39.41383482815351" lon="16.812744502626774"><ele>643.5</ele><time>2026-04-06T08:29:28Z</time></trkpt><trkpt lat="39.41371568487626" lon="16.812714078741454"><ele>645.0</ele><time>2026-04-06T08:29:29Z</time></trkpt><trkpt lat="39.413593322727834" lon="16.81271863716842"><ele>646.5</ele><time>2026-04-06T08:29:30Z</time></trkpt><trkpt lat="39.41346939970989" lon="16.81274743334471"><ele>648.0</ele><time>2026-04-06T08:29:31Z</time></trkpt><trkpt lat="39.413355621755166" lon="16.812718763771883"><ele>648.0</ele><time>2026-04-06T08:29:32Z</time></trkpt><trkpt lat="39.41325393008713" lon="16.812670889937394"><ele>648.0</ele><time>2026-04-06T08:29:33Z</time></trkpt><trkpt lat="39.4131579504431" lon="16.812586089996582"><ele>648.0</ele><time>2026-04-06T08:29:34Z</time></trkpt><trkpt lat="39.413046544841976" lon="16.81248955634009"><ele>648.0</ele><time>2026-04-06T08:29:35Z</time></trkpt><trkpt lat="39.41294403083105" lon="16.812365224631257"><ele>650.25</ele><time>2026-04-06T08:29:36Z</time></trkpt><trkpt lat="39.41284232146277" lon="16.812234290459674"><ele>652.5</ele><time>2026-04-06T08:29:37Z</time></trkpt><trkpt lat="39.412739479731975" lon="16.81210387071562"><ele>654.75</ele><time>2026-04-06T08:29:38Z</time></trkpt><trkpt lat="39.412646427504306" lon="16.811991067653295"><ele>657.0</ele><time>2026-04-06T08:29:39Z</time></trkpt><trkpt lat="39.41255995242184" lon="16.8119001632727"><ele>657.0</ele><time>2026-04-06T08:29:40Z</time></trkpt><trkpt lat="39.41247532710437" lon="16.81183959260591"><ele>657.0</ele><time>2026-04-06T08:29:41Z</time></trkpt><trkpt lat="39.412382903158864" lon="16.81182859525556"><ele>657.0</ele><time>2026-04-06T08:29:42Z</time></trkpt><trkpt lat="39.412293546003056" lon="16.811860600645854"><ele>657.0</ele><time>2026-04-06T08:29:43Z</time></trkpt><trkpt lat="39.41221304649419" lon="16.81193307451738"><ele>657.0</ele><time>2026-04-06T08:29:44Z</time></trkpt><trkpt lat="39.412128644018125" lon="16.812032141269377"><ele>659.5</ele><time>2026-04-06T08:29:45Z</time></trkpt><trkpt lat="39.412025688553825" lon="16.81215115764163"><ele>662.0</ele><time>2026-04-06T08:29:46Z</time></trkpt><trkpt lat="39.41191703802324" lon="16.81227082166684"><ele>664.5</ele><time>2026-04-06T08:29:47Z</time></trkpt><trkpt lat="39.41179898620276" lon="16.8123966583442"><ele>667.0</ele><time>2026-04-06T08:29:48Z</time></trkpt><trkpt lat="39.411661530436874" lon="16.81254075094722"><ele>665.6666666666667</ele><time>2026-04-06T08:29:49Z</time></trkpt><trkpt lat="39.4115292324289" lon="16.812682218634087"><ele>664.3333333333334</ele><time>2026-04-06T08:29:50Z</time></trkpt><trkpt lat="39.41139250782235" lon="16.81282931969093"><ele>663.0</ele><time>2026-04-06T08:29:51Z</time></trkpt><trkpt lat="39.41126139883893" lon="16.81297142645741"><ele>666.3333333333334</ele><time>2026-04-06T08:29:52Z</time></trkpt><trkpt lat="39.41113818936862" lon="16.813104316026397"><ele>669.6666666666667</ele><time>2026-04-06T08:29:53Z</time></trkpt><trkpt lat="39.41101593490446" lon="16.813229656929096"><ele>673.0</ele><time>2026-04-06T08:29:54Z</time></trkpt><trkpt lat="39.41090677002505" lon="16.813340816334566"><ele>673.0</ele><time>2026-04-06T08:29:55Z</time></trkpt><trkpt lat="39.410805553523836" lon="16.813428492777657"><ele>673.0</ele><time>2026-04-06T08:29:56Z</time></trkpt><trkpt lat="39.410709866256305" lon="16.813490469145567"><ele>673.0</ele><time>2026-04-06T08:29:57Z</time></trkpt><trkpt lat="39.4106102311474" lon="16.81352276674518"><ele>673.0</ele><time>2026-04-06T08:29:58Z</time></trkpt><trkpt lat="39.41050610376796" lon="16.81352481408805"><ele>673.0</ele><time>2026-04-06T08:29:59Z</time></trkpt><trkpt lat="39.41039845338284" lon="16.8134854552247"><ele>673.75</ele><time>2026-04-06T08:30:00Z</time></trkpt><trkpt lat="39.41029252272413" lon="16.813414700293634"><ele>674.5</ele><time>2026-04-06T08:30:01Z</time></trkpt><trkpt lat="39.410178339833905" lon="16.8133243890255"><ele>675.25</ele><time>2026-04-06T08:30:02Z</time></trkpt><trkpt lat="39.41007243681198" lon="16.81323518149649"><ele>676.0</ele><time>2026-04-06T08:30:03Z</time></trkpt><trkpt lat="39.40998167540728" lon="16.813164951360726"><ele>676.0</ele><time>2026-04-06T08:30:04Z</time></trkpt><trkpt lat="39.409876870008674" lon="16.81309878660179"><ele>676.0</ele><time>2026-04-06T08:30:05Z</time></trkpt><trkpt lat="39.40975171790302" lon="16.81300420691932"><ele>676.0</ele><time>2026-04-06T08:30:06Z</time></trkpt><trkpt lat="39.409621637912586" lon="16.812905418620407"><ele>676.0</ele><time>2026-04-06T08:30:07Z</time></trkpt><trkpt lat="39.40949482614558" lon="16.81281630880806"><ele>676.5999999999999</ele><time>2026-04-06T08:30:08Z</time></trkpt><trkpt lat="39.40938307487777" lon="16.812736722906944"><ele>677.2</ele><time>2026-04-06T08:30:09Z</time></trkpt><trkpt lat="39.40928915508759" lon="16.812657766091977"><ele>677.8</ele><time>2026-04-06T08:30:10Z</time></trkpt><trkpt lat="39.409225022560705" lon="16.812577603933015"><ele>678.4000000000001</ele><time>2026-04-06T08:30:11Z</time></trkpt><trkpt lat="39.40920207683854" lon="16.812490102243753"><ele>679.0</ele><time>2026-04-06T08:30:12Z</time></trkpt><trkpt lat="39.409211988826264" lon="16.812403714011104"><ele>679.0</ele><time>2026-04-06T08:30:13Z</time></trkpt><trkpt lat="39.409265648683785" lon="16.812315634046904"><ele>679.0</ele><time>2026-04-06T08:30:14Z</time></trkpt><trkpt lat="39.40932186120846" lon="16.812188897907184"><ele>679.0</ele><time>2026-04-06T08:30:15Z</time></trkpt><trkpt lat="39.409400180890714" lon="16.81206040561318"><ele>679.0</ele><time>2026-04-06T08:30:16Z</time></trkpt><trkpt lat="39.409459117964666" lon="16.811928454016893"><ele>679.0</ele><time>2026-04-06T08:30:17Z</time></trkpt><trkpt lat="39.409496348284094" lon="16.811807480663038"><ele>680.4000000000001</ele><time>2026-04-06T08:30:18Z</time></trkpt><trkpt lat="39.40948797475318" lon="16.811723453186335"><ele>681.8</ele><time>2026-04-06T08:30:19Z</time></trkpt><trkpt lat="39.409403123131625" lon="16.811615099749407"><ele>683.2</ele><time>2026-04-06T08:30:21Z</time></trkpt><trkpt lat="39.4093109360166" lon="16.811580451197937"><ele>684.5999999999999</ele><time>2026-04-06T08:30:22Z</time></trkpt><trkpt lat="39.40919648842057" lon="16.811560281407786"><ele>686.0</ele><time>2026-04-06T08:30:23Z</time></trkpt><trkpt lat="39.409107127065965" lon="16.81153013151404"><ele>686.0</ele><time>2026-04-06T08:30:24Z</time></trkpt><trkpt lat="39.40906124383851" lon="16.811455816680695"><ele>686.0</ele><time>2026-04-06T08:30:25Z</time></trkpt><trkpt lat="39.409062436067444" lon="16.811348777751142"><ele>686.0</ele><time>2026-04-06T08:30:26Z</time></trkpt><trkpt lat="39.40908435936704" lon="16.81122751377787"><ele>686.0</ele><time>2026-04-06T08:30:27Z</time></trkpt><trkpt lat="39.409095623591554" lon="16.811108716070805"><ele>686.0</ele><time>2026-04-06T08:30:28Z</time></trkpt><trkpt lat="39.409064121434916" lon="16.811013671447917"><ele>686.0</ele><time>2026-04-06T08:30:29Z</time></trkpt><trkpt lat="39.40900670447877" lon="16.81094715165053"><ele>686.5999999999999</ele><time>2026-04-06T08:30:30Z</time></trkpt><trkpt lat="39.40892977563975" lon="16.81092246149429"><ele>687.2</ele><time>2026-04-06T08:30:31Z</time></trkpt><trkpt lat="39.408844560936124" lon="16.81094901593994"><ele>687.8</ele><time>2026-04-06T08:30:32Z</time></trkpt><trkpt lat="39.40876349729631" lon="16.81102988880888"><ele>688.4000000000001</ele><time>2026-04-06T08:30:33Z</time></trkpt><trkpt lat="39.40868671200598" lon="16.811136015797036"><ele>689.0</ele><time>2026-04-06T08:30:34Z</time></trkpt><trkpt lat="39.40860394880335" lon="16.811251354237662"><ele>689.0</ele><time>2026-04-06T08:30:35Z</time></trkpt><trkpt lat="39.40851710836321" lon="16.81133141616384"><ele>689.0</ele><time>2026-04-06T08:30:36Z</time></trkpt><trkpt lat="39.40842432066686" lon="16.81136360512746"><ele>689.0</ele><time>2026-04-06T08:30:37Z</time></trkpt><trkpt lat="39.408331099581" lon="16.811358105505253"><ele>689.0</ele><time>2026-04-06T08:30:38Z</time></trkpt><trkpt lat="39.40825560940384" lon="16.811295023944492"><ele>689.0</ele><time>2026-04-06T08:30:39Z</time></trkpt><trkpt lat="39.408171722253435" lon="16.81122898604699"><ele>689.0</ele><time>2026-04-06T08:30:40Z</time></trkpt><trkpt lat="39.40809021256158" lon="16.811117131772296"><ele>689.0</ele><time>2026-04-06T08:30:41Z</time></trkpt><trkpt lat="39.408007252047085" lon="16.811019067418286"><ele>689.0</ele><time>2026-04-06T08:30:42Z</time></trkpt><trkpt lat="39.40793246224878" lon="16.810950007594965"><ele>689.0</ele><time>2026-04-06T08:30:43Z</time></trkpt><trkpt lat="39.40786085395692" lon="16.81092698519011"><ele>689.0</ele><time>2026-04-06T08:30:44Z</time></trkpt><trkpt lat="39.40778568798766" lon="16.81093689019034"><ele>691.0</ele><time>2026-04-06T08:30:45Z</time></trkpt><trkpt lat="39.407705371135194" lon="16.810988437603655"><ele>693.0</ele><time>2026-04-06T08:30:46Z</time></trkpt><trkpt lat="39.40760647290055" lon="16.811082076026864"><ele>695.0</ele><time>2026-04-06T08:30:47Z</time></trkpt><trkpt lat="39.407485195223394" lon="16.81121718720387"><ele>697.0</ele><time>2026-04-06T08:30:48Z</time></trkpt><trkpt lat="39.407358242859566" lon="16.81132720597827"><ele>697.0</ele><time>2026-04-06T08:30:49Z</time></trkpt><trkpt lat="39.40723674502521" lon="16.811398491367648"><ele>697.0</ele><time>2026-04-06T08:30:50Z</time></trkpt><trkpt lat="39.407106861118464" lon="16.81146409887582"><ele>697.0</ele><time>2026-04-06T08:30:51Z</time></trkpt><trkpt lat="39.4069742012917" lon="16.81153025172699"><ele>697.0</ele><time>2026-04-06T08:30:52Z</time></trkpt><trkpt lat="39.40683403503349" lon="16.811594832036878"><ele>700.0</ele><time>2026-04-06T08:30:53Z</time></trkpt><trkpt lat="39.406670642115564" lon="16.811664944220816"><ele>703.0</ele><time>2026-04-06T08:30:54Z</time></trkpt><trkpt lat="39.40649617692304" lon="16.811724813337108"><ele>706.0</ele><time>2026-04-06T08:30:55Z</time></trkpt><trkpt lat="39.4063266719136" lon="16.811761465188304"><ele>708.3333333333334</ele><time>2026-04-06T08:30:56Z</time></trkpt><trkpt lat="39.406165722878484" lon="16.811798135257337"><ele>710.6666666666666</ele><time>2026-04-06T08:30:57Z</time></trkpt><trkpt lat="39.40601218778296" lon="16.811835093134697"><ele>713.0</ele><time>2026-04-06T08:30:58Z</time></trkpt><trkpt lat="39.405868020395836" lon="16.81186992067161"><ele>710.0</ele><time>2026-04-06T08:30:59Z</time></trkpt><trkpt lat="39.40574682060288" lon="16.81189362555398"><ele>707.0</ele><time>2026-04-06T08:31:00Z</time></trkpt><trkpt lat="39.40564013201891" lon="16.811913897458275"><ele>704.0</ele><time>2026-04-06T08:31:01Z</time></trkpt><trkpt lat="39.405541245502235" lon="16.811917041070053"><ele>701.0</ele><time>2026-04-06T08:31:02Z</time></trkpt><trkpt lat="39.4054558566025" lon="16.811884367588174"><ele>698.0</ele><time>2026-04-06T08:31:03Z</time></trkpt><trkpt lat="39.405385332631404" lon="16.81180805075032"><ele>698.0</ele><time>2026-04-06T08:31:04Z</time></trkpt><trkpt lat="39.405353279691866" lon="16.81169022923429"><ele>698.0</ele><time>2026-04-06T08:31:04.999Z</time></trkpt><trkpt lat="39.40529141297693" lon="16.81156989645558"><ele>698.0</ele><time>2026-04-06T08:31:05.999Z</time></trkpt><trkpt lat="39.405232225272975" lon="16.811386989886937"><ele>698.0</ele><time>2026-04-06T08:31:06.999Z</time></trkpt><trkpt lat="39.40515303502036" lon="16.811174494440813"><ele>704.0</ele><time>2026-04-06T08:31:07.999Z</time></trkpt><trkpt lat="39.40506660835218" lon="16.810956421945928"><ele>710.0</ele><time>2026-04-06T08:31:08.999Z</time></trkpt><trkpt lat="39.40499962263245" lon="16.810769107514396"><ele>716.0</ele><time>2026-04-06T08:31:09.999Z</time></trkpt><trkpt lat="39.4049394718756" lon="16.81060942211318"><ele>716.0</ele><time>2026-04-06T08:31:10.999Z</time></trkpt><trkpt lat="39.40488293738353" lon="16.81046847130181"><ele>716.0</ele><time>2026-04-06T08:31:11.999Z</time></trkpt><trkpt lat="39.40482542335304" lon="16.810355880884757"><ele>716.0</ele><time>2026-04-06T08:31:13Z</time></trkpt><trkpt lat="39.404771058483796" lon="16.810256972323526"><ele>716.0</ele><time>2026-04-06T08:31:14Z</time></trkpt><trkpt lat="39.40469829018623" lon="16.81016001764822"><ele>716.0</ele><time>2026-04-06T08:31:15Z</time></trkpt><trkpt lat="39.4046361855096" lon="16.810085851798437"><ele>717.8</ele><time>2026-04-06T08:31:16Z</time></trkpt><trkpt lat="39.40459078656304" lon="16.80999413089154"><ele>719.5999999999999</ele><time>2026-04-06T08:31:17Z</time></trkpt><trkpt lat="39.40452968797557" lon="16.809861849123504"><ele>721.4</ele><time>2026-04-06T08:31:18Z</time></trkpt><trkpt lat="39.404486839321" lon="16.80974036846793"><ele>723.2</ele><time>2026-04-06T08:31:19Z</time></trkpt><trkpt lat="39.404471834877604" lon="16.80961598286466"><ele>725.0</ele><time>2026-04-06T08:31:20Z</time></trkpt><trkpt lat="39.40446445541546" lon="16.809516367217487"><ele>725.0</ele><time>2026-04-06T08:31:21Z</time></trkpt><trkpt lat="39.404438826990436" lon="16.80942331733704"><ele>725.0</ele><time>2026-04-06T08:31:22Z</time></trkpt><trkpt lat="39.40438891832933" lon="16.809349460142947"><ele>725.0</ele><time>2026-04-06T08:31:23Z</time></trkpt><trkpt lat="39.40432629498375" lon="16.80931730747202"><ele>725.0</ele><time>2026-04-06T08:31:24Z</time></trkpt><trkpt lat="39.40425238076405" lon="16.809322651220292"><ele>725.0</ele><time>2026-04-06T08:31:25Z</time></trkpt><trkpt lat="39.40416348164798" lon="16.809374507449736"><ele>725.0</ele><time>2026-04-06T08:31:26Z</time></trkpt><trkpt lat="39.40407921184246" lon="16.809431402703744"><ele>725.0</ele><time>2026-04-06T08:31:27Z</time></trkpt><trkpt lat="39.403973206937096" lon="16.809503808556126"><ele>725.0</ele><time>2026-04-06T08:31:28Z</time></trkpt><trkpt lat="39.40384222351261" lon="16.809587991980965"><ele>725.0</ele><time>2026-04-06T08:31:29Z</time></trkpt><trkpt lat="39.40372250313089" lon="16.809659467792617"><ele>725.0</ele><time>2026-04-06T08:31:30Z</time></trkpt><trkpt lat="39.40361808673381" lon="16.809724685608405"><ele>727.2</ele><time>2026-04-06T08:31:31Z</time></trkpt><trkpt lat="39.40352415837263" lon="16.80978228818346"><ele>729.4</ele><time>2026-04-06T08:31:32Z</time></trkpt><trkpt lat="39.40343591067906" lon="16.80983933229838"><ele>731.5999999999999</ele><time>2026-04-06T08:31:33Z</time></trkpt><trkpt lat="39.4033385771109" lon="16.80989497002835"><ele>733.8</ele><time>2026-04-06T08:31:34Z</time></trkpt><trkpt lat="39.40325262165137" lon="16.809970125460435"><ele>736.0</ele><time>2026-04-06T08:31:35Z</time></trkpt><trkpt lat="39.4031737000619" lon="16.810054539645517"><ele>735.5</ele><time>2026-04-06T08:31:36Z</time></trkpt><trkpt lat="39.40312055067762" lon="16.810172035806286"><ele>735.0</ele><time>2026-04-06T08:31:37Z</time></trkpt><trkpt lat="39.40308964143416" lon="16.81030369947324"><ele>734.5</ele><time>2026-04-06T08:31:38Z</time></trkpt><trkpt lat="39.403080638504605" lon="16.810450999562306"><ele>734.0</ele><time>2026-04-06T08:31:39Z</time></trkpt><trkpt lat="39.40308544047022" lon="16.81061586344115"><ele>734.0</ele><time>2026-04-06T08:31:40Z</time></trkpt><trkpt lat="39.40309653390197" lon="16.81077905811298"><ele>734.0</ele><time>2026-04-06T08:31:41Z</time></trkpt><trkpt lat="39.403095958094866" lon="16.810935021746747"><ele>734.0</ele><time>2026-04-06T08:31:42Z</time></trkpt><trkpt lat="39.403094603643865" lon="16.811091450718713"><ele>734.0</ele><time>2026-04-06T08:31:43Z</time></trkpt><trkpt lat="39.403088761736555" lon="16.811249644288743"><ele>731.25</ele><time>2026-04-06T08:31:44Z</time></trkpt><trkpt lat="39.403058923968004" lon="16.8114047908405"><ele>728.5</ele><time>2026-04-06T08:31:45Z</time></trkpt><trkpt lat="39.402985877452586" lon="16.811537851382916"><ele>725.75</ele><time>2026-04-06T08:31:46Z</time></trkpt><trkpt lat="39.402912520070906" lon="16.81167619105746"><ele>723.0</ele><time>2026-04-06T08:31:47Z</time></trkpt><trkpt lat="39.40284106787423" lon="16.811818371620305"><ele>727.75</ele><time>2026-04-06T08:31:48Z</time></trkpt><trkpt lat="39.40275935346519" lon="16.811960305461753"><ele>732.5</ele><time>2026-04-06T08:31:49Z</time></trkpt><trkpt lat="39.40268139688992" lon="16.812094011497987"><ele>737.25</ele><time>2026-04-06T08:31:50Z</time></trkpt><trkpt lat="39.402613959145164" lon="16.81222638650809"><ele>742.0</ele><time>2026-04-06T08:31:51Z</time></trkpt><trkpt lat="39.402568938767914" lon="16.812367919248825"><ele>742.0</ele><time>2026-04-06T08:31:52Z</time></trkpt><trkpt lat="39.402552336105806" lon="16.81250894309148"><ele>742.0</ele><time>2026-04-06T08:31:53Z</time></trkpt><trkpt lat="39.40254510374152" lon="16.812623587416986"><ele>742.0</ele><time>2026-04-06T08:31:54Z</time></trkpt><trkpt lat="39.402528120748045" lon="16.81272337687593"><ele>742.0</ele><time>2026-04-06T08:31:55Z</time></trkpt><trkpt lat="39.40248392075999" lon="16.812818448474342"><ele>742.0</ele><time>2026-04-06T08:31:56Z</time></trkpt><trkpt lat="39.40239351206557" lon="16.81289961044933"><ele>742.2</ele><time>2026-04-06T08:31:57Z</time></trkpt><trkpt lat="39.40229952891776" lon="16.81298603976975"><ele>742.4000000000001</ele><time>2026-04-06T08:31:58Z</time></trkpt><trkpt lat="39.402216941147344" lon="16.813091495196623"><ele>742.5999999999999</ele><time>2026-04-06T08:31:59Z</time></trkpt><trkpt lat="39.402142480566305" lon="16.813201311560697"><ele>742.8</ele><time>2026-04-06T08:32:00Z</time></trkpt><trkpt lat="39.40207771051812" lon="16.81330567307202"><ele>743.0</ele><time>2026-04-06T08:32:01Z</time></trkpt><trkpt lat="39.40202240142074" lon="16.813382959592325"><ele>743.0</ele><time>2026-04-06T08:32:02Z</time></trkpt><trkpt lat="39.401965954971246" lon="16.813423643741995"><ele>743.0</ele><time>2026-04-06T08:32:03Z</time></trkpt><trkpt lat="39.40183735062417" lon="16.81344629938307"><ele>743.0</ele><time>2026-04-06T08:32:05Z</time></trkpt><trkpt lat="39.401746724487744" lon="16.81343058429761"><ele>743.0</ele><time>2026-04-06T08:32:06Z</time></trkpt><trkpt lat="39.40165289583727" lon="16.813399539348467"><ele>743.0</ele><time>2026-04-06T08:32:07Z</time></trkpt><trkpt lat="39.40155002991135" lon="16.813390073537825"><ele>743.0</ele><time>2026-04-06T08:32:08Z</time></trkpt><trkpt lat="39.4014485216937" lon="16.813423376650572"><ele>743.0</ele><time>2026-04-06T08:32:09Z</time></trkpt><trkpt lat="39.40136119563112" lon="16.813498425074076"><ele>743.0</ele><time>2026-04-06T08:32:10Z</time></trkpt><trkpt lat="39.40129264748643" lon="16.81360050425256"><ele>743.0</ele><time>2026-04-06T08:32:11Z</time></trkpt><trkpt lat="39.40125854145711" lon="16.813737806077025"><ele>743.0</ele><time>2026-04-06T08:32:12Z</time></trkpt><trkpt lat="39.40124819008537" lon="16.81388368000427"><ele>743.8</ele><time>2026-04-06T08:32:13Z</time></trkpt><trkpt lat="39.40124354159159" lon="16.814026966632284"><ele>744.5999999999999</ele><time>2026-04-06T08:32:14Z</time></trkpt><trkpt lat="39.40119796334417" lon="16.814140583737824"><ele>745.4000000000001</ele><time>2026-04-06T08:32:15Z</time></trkpt><trkpt lat="39.40112668910955" lon="16.814220342775627"><ele>746.2</ele><time>2026-04-06T08:32:16Z</time></trkpt><trkpt lat="39.40103841683843" lon="16.81427304881588"><ele>747.0</ele><time>2026-04-06T08:32:17Z</time></trkpt><trkpt lat="39.40093718420645" lon="16.814298850799908"><ele>748.0</ele><time>2026-04-06T08:32:18Z</time></trkpt><trkpt lat="39.40082270090986" lon="16.81432818647431"><ele>749.0</ele><time>2026-04-06T08:32:19Z</time></trkpt><trkpt lat="39.400699730720916" lon="16.814374386740386"><ele>750.0</ele><time>2026-04-06T08:32:20Z</time></trkpt><trkpt lat="39.400575400961216" lon="16.814425052801575"><ele>751.0</ele><time>2026-04-06T08:32:21Z</time></trkpt><trkpt lat="39.40045323351354" lon="16.81447067364716"><ele>751.0</ele><time>2026-04-06T08:32:22Z</time></trkpt><trkpt lat="39.40033961664832" lon="16.81451447501166"><ele>751.0</ele><time>2026-04-06T08:32:23Z</time></trkpt><trkpt lat="39.40025003087324" lon="16.814571475968005"><ele>751.0</ele><time>2026-04-06T08:32:24Z</time></trkpt><trkpt lat="39.40017150312423" lon="16.814643472795918"><ele>751.0</ele><time>2026-04-06T08:32:25Z</time></trkpt><trkpt lat="39.40010027182904" lon="16.814740562433368"><ele>751.0</ele><time>2026-04-06T08:32:26Z</time></trkpt><trkpt lat="39.400023120815774" lon="16.81484644713483"><ele>751.0</ele><time>2026-04-06T08:32:27Z</time></trkpt><trkpt lat="39.39994341765924" lon="16.81492027152043"><ele>751.0</ele><time>2026-04-06T08:32:28Z</time></trkpt><trkpt lat="39.399886836037766" lon="16.81498899472619"><ele>751.0</ele><time>2026-04-06T08:32:29Z</time></trkpt><trkpt lat="39.39990483369205" lon="16.815128664383437"><ele>751.0</ele><time>2026-04-06T08:32:30Z</time></trkpt><trkpt lat="39.399897806854725" lon="16.815230259276714"><ele>751.0</ele><time>2026-04-06T08:32:31Z</time></trkpt><trkpt lat="39.399898049639006" lon="16.815333026157553"><ele>751.0</ele><time>2026-04-06T08:32:32Z</time></trkpt><trkpt lat="39.39992411334201" lon="16.815421579521534"><ele>750.1666666666667</ele><time>2026-04-06T08:32:33Z</time></trkpt><trkpt lat="39.39997375505935" lon="16.81550235881052"><ele>749.3333333333334</ele><time>2026-04-06T08:32:34Z</time></trkpt><trkpt lat="39.40003453287069" lon="16.815578938061353"><ele>748.5</ele><time>2026-04-06T08:32:35Z</time></trkpt><trkpt lat="39.400094827081475" lon="16.815654610276678"><ele>747.6666666666666</ele><time>2026-04-06T08:32:36Z</time></trkpt><trkpt lat="39.400141533932235" lon="16.81572510108505"><ele>746.8333333333333</ele><time>2026-04-06T08:32:37Z</time></trkpt><trkpt lat="39.40016533399812" lon="16.81583151531412"><ele>746.0</ele><time>2026-04-06T08:32:39Z</time></trkpt><trkpt lat="39.40014476711254" lon="16.8159214511815"><ele>746.0</ele><time>2026-04-06T08:32:41Z</time></trkpt><trkpt lat="39.40009737407073" lon="16.81599746553701"><ele>746.0</ele><time>2026-04-06T08:32:43Z</time></trkpt><trkpt lat="39.40006514963007" lon="16.816072818570117"><ele>746.0</ele><time>2026-04-06T08:32:45Z</time></trkpt><trkpt lat="39.40011610422707" lon="16.815972382295797"><ele>746.0</ele><time>2026-04-06T08:34:13Z</time></trkpt><trkpt lat="39.40015630782702" lon="16.81589279191407"><ele>746.0</ele><time>2026-04-06T08:34:15Z</time></trkpt><trkpt lat="39.40017086336698" lon="16.815811789471432"><ele>746.0</ele><time>2026-04-06T08:34:18Z</time></trkpt><trkpt lat="39.40012162751924" lon="16.815677744434236"><ele>746.0</ele><time>2026-04-06T08:34:20Z</time></trkpt><trkpt lat="39.400076942079615" lon="16.81561792276288"><ele>746.0</ele><time>2026-04-06T08:34:21Z</time></trkpt><trkpt lat="39.40001181665118" lon="16.815541530693775"><ele>746.0</ele><time>2026-04-06T08:34:22Z</time></trkpt><trkpt lat="39.39996042389266" lon="16.815460102021557"><ele>746.0</ele><time>2026-04-06T08:34:23Z</time></trkpt><trkpt lat="39.39992779684453" lon="16.815382643132384"><ele>746.0</ele><time>2026-04-06T08:34:24Z</time></trkpt><trkpt lat="39.399909223369384" lon="16.8153027329803"><ele>746.0</ele><time>2026-04-06T08:34:25Z</time></trkpt><trkpt lat="39.39990593663036" lon="16.81521946339193"><ele>746.0</ele><time>2026-04-06T08:34:26Z</time></trkpt><trkpt lat="39.39993105203393" lon="16.815070452582592"><ele>747.0</ele><time>2026-04-06T08:34:28Z</time></trkpt><trkpt lat="39.39998144267449" lon="16.814919651707743"><ele>748.0</ele><time>2026-04-06T08:34:30Z</time></trkpt><trkpt lat="39.40003439616001" lon="16.814837713895383"><ele>749.0</ele><time>2026-04-06T08:34:31Z</time></trkpt><trkpt lat="39.40011239428874" lon="16.814751732101865"><ele>750.0</ele><time>2026-04-06T08:34:32Z</time></trkpt><trkpt lat="39.40019090307738" lon="16.81467053657988"><ele>751.0</ele><time>2026-04-06T08:34:33Z</time></trkpt><trkpt lat="39.40027453128904" lon="16.814613106960053"><ele>751.0</ele><time>2026-04-06T08:34:34Z</time></trkpt><trkpt lat="39.400373376051824" lon="16.814563921859733"><ele>751.0</ele><time>2026-04-06T08:34:35Z</time></trkpt><trkpt lat="39.40046378871849" lon="16.81449533829722"><ele>751.0</ele><time>2026-04-06T08:34:36Z</time></trkpt><trkpt lat="39.40057161110837" lon="16.814458018830553"><ele>751.0</ele><time>2026-04-06T08:34:37Z</time></trkpt><trkpt lat="39.40067291842377" lon="16.814423289678288"><ele>751.0</ele><time>2026-04-06T08:34:38Z</time></trkpt><trkpt lat="39.400777469637035" lon="16.814395131175704"><ele>750.3333333333334</ele><time>2026-04-06T08:34:39Z</time></trkpt><trkpt lat="39.40086103042527" lon="16.81434104860452"><ele>749.6666666666667</ele><time>2026-04-06T08:34:40Z</time></trkpt><trkpt lat="39.400947702302474" lon="16.81430678009622"><ele>749.0</ele><time>2026-04-06T08:34:41Z</time></trkpt><trkpt lat="39.401034212103916" lon="16.814277810675808"><ele>748.3333333333334</ele><time>2026-04-06T08:34:42Z</time></trkpt><trkpt lat="39.401114020763856" lon="16.8142430903792"><ele>747.6666666666666</ele><time>2026-04-06T08:34:43Z</time></trkpt><trkpt lat="39.40118825757286" lon="16.81418593981018"><ele>747.0</ele><time>2026-04-06T08:34:44Z</time></trkpt><trkpt lat="39.40123962523179" lon="16.814117341148094"><ele>747.0</ele><time>2026-04-06T08:34:45Z</time></trkpt><trkpt lat="39.40127830230302" lon="16.814016525088817"><ele>747.0</ele><time>2026-04-06T08:34:46Z</time></trkpt><trkpt lat="39.40129700183847" lon="16.81388609445247"><ele>747.0</ele><time>2026-04-06T08:34:47Z</time></trkpt><trkpt lat="39.40129858426146" lon="16.813756164400395"><ele>747.0</ele><time>2026-04-06T08:34:48Z</time></trkpt><trkpt lat="39.40130836900328" lon="16.813646296560886"><ele>747.0</ele><time>2026-04-06T08:34:49Z</time></trkpt><trkpt lat="39.40136567965734" lon="16.813566767956164"><ele>746.3333333333334</ele><time>2026-04-06T08:34:50Z</time></trkpt><trkpt lat="39.401431586947545" lon="16.81349253146899"><ele>745.6666666666666</ele><time>2026-04-06T08:34:51Z</time></trkpt><trkpt lat="39.40151598284632" lon="16.813445426743765"><ele>745.0</ele><time>2026-04-06T08:34:52Z</time></trkpt><trkpt lat="39.401600519784985" lon="16.813421837074056"><ele>744.3333333333333</ele><time>2026-04-06T08:34:53Z</time></trkpt><trkpt lat="39.40167850188536" lon="16.813444248168015"><ele>743.6666666666666</ele><time>2026-04-06T08:34:54Z</time></trkpt><trkpt lat="39.401759934329526" lon="16.813460187021203"><ele>743.0</ele><time>2026-04-06T08:34:55Z</time></trkpt><trkpt lat="39.401835066589804" lon="16.813473225872823"><ele>743.0</ele><time>2026-04-06T08:34:56Z</time></trkpt><trkpt lat="39.40191456960063" lon="16.813481136537227"><ele>743.0</ele><time>2026-04-06T08:34:57Z</time></trkpt><trkpt lat="39.401999448836214" lon="16.81343851430322"><ele>743.0</ele><time>2026-04-06T08:34:58Z</time></trkpt><trkpt lat="39.402070593523455" lon="16.813381533900767"><ele>743.0</ele><time>2026-04-06T08:34:59Z</time></trkpt><trkpt lat="39.40211962530531" lon="16.813307246870064"><ele>743.0</ele><time>2026-04-06T08:35:00Z</time></trkpt><trkpt lat="39.40217399359552" lon="16.81321306446312"><ele>743.0</ele><time>2026-04-06T08:35:01Z</time></trkpt><trkpt lat="39.40223844776769" lon="16.813108365425535"><ele>742.8</ele><time>2026-04-06T08:35:02Z</time></trkpt><trkpt lat="39.40231327845212" lon="16.813002499079772"><ele>742.5999999999999</ele><time>2026-04-06T08:35:02.999Z</time></trkpt><trkpt lat="39.402416554034026" lon="16.812921179105114"><ele>742.4000000000001</ele><time>2026-04-06T08:35:03.999Z</time></trkpt><trkpt lat="39.40249466381991" lon="16.81283498530436"><ele>742.2</ele><time>2026-04-06T08:35:04.999Z</time></trkpt><trkpt lat="39.4025547463672" lon="16.81273978735647"><ele>742.0</ele><time>2026-04-06T08:35:05.999Z</time></trkpt><trkpt lat="39.40259429289717" lon="16.81263506626825"><ele>742.0</ele><time>2026-04-06T08:35:06.999Z</time></trkpt><trkpt lat="39.40260978108834" lon="16.81251227235513"><ele>742.0</ele><time>2026-04-06T08:35:07.999Z</time></trkpt><trkpt lat="39.40261029851688" lon="16.812382540466285"><ele>742.0</ele><time>2026-04-06T08:35:08.999Z</time></trkpt><trkpt lat="39.402630337543435" lon="16.81224427000732"><ele>742.0</ele><time>2026-04-06T08:35:09.999Z</time></trkpt><trkpt lat="39.40269949530039" lon="16.81212891614014"><ele>742.0</ele><time>2026-04-06T08:35:10.999Z</time></trkpt><trkpt lat="39.40277309693896" lon="16.811996320778984"><ele>742.0</ele><time>2026-04-06T08:35:11.999Z</time></trkpt><trkpt lat="39.40285165828222" lon="16.811859366031737"><ele>742.0</ele><time>2026-04-06T08:35:12.999Z</time></trkpt><trkpt lat="39.402914404933156" lon="16.811711529951538"><ele>742.0</ele><time>2026-04-06T08:35:13.999Z</time></trkpt><trkpt lat="39.402989178974536" lon="16.811589867822338"><ele>742.0</ele><time>2026-04-06T08:35:14.999Z</time></trkpt><trkpt lat="39.40305886851625" lon="16.81146715705555"><ele>740.0</ele><time>2026-04-06T08:35:15.999Z</time></trkpt><trkpt lat="39.40310315525431" lon="16.811329039463207"><ele>738.0</ele><time>2026-04-06T08:35:16.999Z</time></trkpt><trkpt lat="39.40311876369062" lon="16.81117081791948"><ele>736.0</ele><time>2026-04-06T08:35:17.999Z</time></trkpt><trkpt lat="39.403118334335275" lon="16.811000600912053"><ele>734.0</ele><time>2026-04-06T08:35:18.999Z</time></trkpt><trkpt lat="39.40311359961317" lon="16.810829337222046"><ele>734.0</ele><time>2026-04-06T08:35:19.999Z</time></trkpt><trkpt lat="39.403117799315964" lon="16.810672837524823"><ele>734.0</ele><time>2026-04-06T08:35:20.999Z</time></trkpt><trkpt lat="39.40311772507573" lon="16.810531983012275"><ele>734.0</ele><time>2026-04-06T08:35:21.999Z</time></trkpt><trkpt lat="39.40312423485884" lon="16.810399760715907"><ele>734.0</ele><time>2026-04-06T08:35:22.999Z</time></trkpt><trkpt lat="39.4031375487376" lon="16.810264625540942"><ele>734.0</ele><time>2026-04-06T08:35:23.999Z</time></trkpt><trkpt lat="39.4031679582081" lon="16.810142540476882"><ele>734.4000000000001</ele><time>2026-04-06T08:35:25Z</time></trkpt><trkpt lat="39.40323354055881" lon="16.810055668057885"><ele>734.8</ele><time>2026-04-06T08:35:26Z</time></trkpt><trkpt lat="39.403304292374195" lon="16.809976643779134"><ele>735.2</ele><time>2026-04-06T08:35:27Z</time></trkpt><trkpt lat="39.40339770864228" lon="16.80991927744666"><ele>735.5999999999999</ele><time>2026-04-06T08:35:28Z</time></trkpt><trkpt lat="39.40349536118656" lon="16.809838138031683"><ele>736.0</ele><time>2026-04-06T08:35:29Z</time></trkpt><trkpt lat="39.40360191715328" lon="16.80977563649253"><ele>736.0</ele><time>2026-04-06T08:35:30Z</time></trkpt><trkpt lat="39.40371069893204" lon="16.809700289074584"><ele>736.0</ele><time>2026-04-06T08:35:31Z</time></trkpt><trkpt lat="39.40382758633293" lon="16.80963433106979"><ele>736.0</ele><time>2026-04-06T08:35:32Z</time></trkpt><trkpt lat="39.40393607289542" lon="16.809562637752528"><ele>736.0</ele><time>2026-04-06T08:35:33Z</time></trkpt><trkpt lat="39.40403286815038" lon="16.80949867058253"><ele>734.1666666666667</ele><time>2026-04-06T08:35:34Z</time></trkpt><trkpt lat="39.4041201208844" lon="16.80944100959775"><ele>732.3333333333334</ele><time>2026-04-06T08:35:35Z</time></trkpt><trkpt lat="39.40419069656002" lon="16.809397438879977"><ele>730.5</ele><time>2026-04-06T08:35:36Z</time></trkpt><trkpt lat="39.40430741668006" lon="16.809363450830652"><ele>728.6666666666666</ele><time>2026-04-06T08:35:38Z</time></trkpt><trkpt lat="39.40437354493705" lon="16.809370143597015"><ele>726.8333333333333</ele><time>2026-04-06T08:35:39Z</time></trkpt><trkpt lat="39.40443231606461" lon="16.809428587685677"><ele>725.0</ele><time>2026-04-06T08:35:40Z</time></trkpt><trkpt lat="39.404467219552984" lon="16.809507700634093"><ele>725.0</ele><time>2026-04-06T08:35:41Z</time></trkpt><trkpt lat="39.40447780154972" lon="16.80959190267644"><ele>725.0</ele><time>2026-04-06T08:35:42Z</time></trkpt><trkpt lat="39.40448260890413" lon="16.809691665523626"><ele>725.0</ele><time>2026-04-06T08:35:43Z</time></trkpt><trkpt lat="39.404495896599585" lon="16.809803686977066"><ele>725.0</ele><time>2026-04-06T08:35:44Z</time></trkpt><trkpt lat="39.40452311573032" lon="16.809907807614326"><ele>725.0</ele><time>2026-04-06T08:35:45Z</time></trkpt><trkpt lat="39.404577566809515" lon="16.810018450540905"><ele>725.0</ele><time>2026-04-06T08:35:46Z</time></trkpt><trkpt lat="39.40465423367275" lon="16.810128629795834"><ele>722.75</ele><time>2026-04-06T08:35:47Z</time></trkpt><trkpt lat="39.404747929622395" lon="16.810248641773974"><ele>720.5</ele><time>2026-04-06T08:35:48Z</time></trkpt><trkpt lat="39.404810627466375" lon="16.81038810043985"><ele>718.25</ele><time>2026-04-06T08:35:49Z</time></trkpt><trkpt lat="39.404871109455655" lon="16.810527616458003"><ele>716.0</ele><time>2026-04-06T08:35:50Z</time></trkpt><trkpt lat="39.40494291211488" lon="16.81066693019907"><ele>716.0</ele><time>2026-04-06T08:35:51Z</time></trkpt><trkpt lat="39.40499730582535" lon="16.810817348646324"><ele>716.0</ele><time>2026-04-06T08:35:52Z</time></trkpt><trkpt lat="39.40503978013088" lon="16.810965097357954"><ele>716.0</ele><time>2026-04-06T08:35:53Z</time></trkpt><trkpt lat="39.40508961043731" lon="16.81109529841741"><ele>716.0</ele><time>2026-04-06T08:35:54Z</time></trkpt><trkpt lat="39.405137421026204" lon="16.811220222294722"><ele>712.4</ele><time>2026-04-06T08:35:55Z</time></trkpt><trkpt lat="39.4051972866036" lon="16.811330844248566"><ele>708.8</ele><time>2026-04-06T08:35:56Z</time></trkpt><trkpt lat="39.4052431189135" lon="16.811452524561826"><ele>705.1999999999999</ele><time>2026-04-06T08:35:57Z</time></trkpt><trkpt lat="39.40529067729805" lon="16.81158023352037"><ele>701.5999999999999</ele><time>2026-04-06T08:35:58Z</time></trkpt><trkpt lat="39.40533381364293" lon="16.81169993980379"><ele>698.0</ele><time>2026-04-06T08:35:59Z</time></trkpt><trkpt lat="39.40537095584198" lon="16.811803824614913"><ele>696.2</ele><time>2026-04-06T08:36:00Z</time></trkpt><trkpt lat="39.405421618748434" lon="16.811889693828405"><ele>694.4</ele><time>2026-04-06T08:36:01Z</time></trkpt><trkpt lat="39.40549959504797" lon="16.811945925704222"><ele>692.6</ele><time>2026-04-06T08:36:02Z</time></trkpt><trkpt lat="39.40558631135045" lon="16.81195733408264"><ele>690.8000000000001</ele><time>2026-04-06T08:36:03Z</time></trkpt><trkpt lat="39.40568187954376" lon="16.8119334438494"><ele>689.0</ele><time>2026-04-06T08:36:04Z</time></trkpt><trkpt lat="39.405790442397894" lon="16.811899384893994"><ele>689.0</ele><time>2026-04-06T08:36:05Z</time></trkpt><trkpt lat="39.40591025528654" lon="16.811873749362032"><ele>689.0</ele><time>2026-04-06T08:36:06Z</time></trkpt><trkpt lat="39.406035920221335" lon="16.81184983577141"><ele>689.0</ele><time>2026-04-06T08:36:07Z</time></trkpt><trkpt lat="39.406163438932126" lon="16.811818378614692"><ele>689.0</ele><time>2026-04-06T08:36:08Z</time></trkpt><trkpt lat="39.40628429619985" lon="16.81179581413228"><ele>693.25</ele><time>2026-04-06T08:36:09Z</time></trkpt><trkpt lat="39.40640128816957" lon="16.811770827774275"><ele>697.5</ele><time>2026-04-06T08:36:10Z</time></trkpt><trkpt lat="39.40652280184793" lon="16.811734805436583"><ele>701.75</ele><time>2026-04-06T08:36:11Z</time></trkpt><trkpt lat="39.4066491124728" lon="16.811691154463954"><ele>706.0</ele><time>2026-04-06T08:36:12Z</time></trkpt><trkpt lat="39.40678379548645" lon="16.81162854283221"><ele>706.0</ele><time>2026-04-06T08:36:13Z</time></trkpt><trkpt lat="39.40691551928284" lon="16.811571245414275"><ele>706.0</ele><time>2026-04-06T08:36:14Z</time></trkpt><trkpt lat="39.40703622538537" lon="16.81150938829395"><ele>706.0</ele><time>2026-04-06T08:36:15Z</time></trkpt><trkpt lat="39.40715271881357" lon="16.811457006032693"><ele>706.0</ele><time>2026-04-06T08:36:16Z</time></trkpt><trkpt lat="39.4072702408421" lon="16.81140081973004"><ele>703.75</ele><time>2026-04-06T08:36:17Z</time></trkpt><trkpt lat="39.407389282049614" lon="16.811329872787756"><ele>701.5</ele><time>2026-04-06T08:36:18Z</time></trkpt><trkpt lat="39.40749785311573" lon="16.811242093889373"><ele>699.25</ele><time>2026-04-06T08:36:19Z</time></trkpt><trkpt lat="39.40759348264302" lon="16.81114879979628"><ele>697.0</ele><time>2026-04-06T08:36:20Z</time></trkpt><trkpt lat="39.407674800431124" lon="16.81106438256524"><ele>697.0</ele><time>2026-04-06T08:36:21Z</time></trkpt><trkpt lat="39.40774892840933" lon="16.811017804441224"><ele>697.0</ele><time>2026-04-06T08:36:22Z</time></trkpt><trkpt lat="39.40781198667052" lon="16.81097308254677"><ele>697.0</ele><time>2026-04-06T08:36:23Z</time></trkpt><trkpt lat="39.40787665261562" lon="16.810936897576216"><ele>697.0</ele><time>2026-04-06T08:36:24Z</time></trkpt><trkpt lat="39.40794968582243" lon="16.810975597304335"><ele>697.0</ele><time>2026-04-06T08:36:25Z</time></trkpt><trkpt lat="39.40800823242774" lon="16.811073359879824"><ele>697.0</ele><time>2026-04-06T08:36:26Z</time></trkpt><trkpt lat="39.40808877675013" lon="16.81116197518946"><ele>695.4000000000001</ele><time>2026-04-06T08:36:27Z</time></trkpt><trkpt lat="39.40816564515446" lon="16.811260602207984"><ele>693.8000000000001</ele><time>2026-04-06T08:36:28Z</time></trkpt><trkpt lat="39.40824710756953" lon="16.811330485193224"><ele>692.2</ele><time>2026-04-06T08:36:29Z</time></trkpt><trkpt lat="39.408338555026305" lon="16.811375177242027"><ele>690.6</ele><time>2026-04-06T08:36:30Z</time></trkpt><trkpt lat="39.40843166507691" lon="16.811384668192627"><ele>689.0</ele><time>2026-04-06T08:36:31Z</time></trkpt><trkpt lat="39.408526613634756" lon="16.811358921351562"><ele>689.0</ele><time>2026-04-06T08:36:32Z</time></trkpt><trkpt lat="39.40861741093389" lon="16.811287673682386"><ele>689.0</ele><time>2026-04-06T08:36:33Z</time></trkpt><trkpt lat="39.40869654500915" lon="16.811183046511513"><ele>689.0</ele><time>2026-04-06T08:36:34Z</time></trkpt><trkpt lat="39.408770271123636" lon="16.811077521989848"><ele>689.0</ele><time>2026-04-06T08:36:35Z</time></trkpt><trkpt lat="39.40885049931941" lon="16.811016289987172"><ele>689.0</ele><time>2026-04-06T08:36:36Z</time></trkpt><trkpt lat="39.408918157353206" lon="16.810980486613758"><ele>688.4000000000001</ele><time>2026-04-06T08:36:37Z</time></trkpt><trkpt lat="39.409036742653946" lon="16.811023862072815"><ele>687.8</ele><time>2026-04-06T08:36:39Z</time></trkpt><trkpt lat="39.40906755140141" lon="16.811106673608787"><ele>687.2</ele><time>2026-04-06T08:36:40Z</time></trkpt><trkpt lat="39.40906902975461" lon="16.811213835023466"><ele>686.5999999999999</ele><time>2026-04-06T08:36:41Z</time></trkpt><trkpt lat="39.409069380626015" lon="16.8113361696496"><ele>686.0</ele><time>2026-04-06T08:36:42Z</time></trkpt><trkpt lat="39.409054779528184" lon="16.811464787165107"><ele>686.0</ele><time>2026-04-06T08:36:43Z</time></trkpt><trkpt lat="39.40907952970488" lon="16.81156245844331"><ele>686.0</ele><time>2026-04-06T08:36:44Z</time></trkpt><trkpt lat="39.40914348447226" lon="16.811621133985906"><ele>686.0</ele><time>2026-04-06T08:36:45Z</time></trkpt><trkpt lat="39.4092416109858" lon="16.81162229808683"><ele>686.0</ele><time>2026-04-06T08:36:46Z</time></trkpt><trkpt lat="39.40933830633887" lon="16.81162012336376"><ele>686.0</ele><time>2026-04-06T08:36:47Z</time></trkpt><trkpt lat="39.409409118108876" lon="16.811680126672105"><ele>686.0</ele><time>2026-04-06T08:36:48Z</time></trkpt><trkpt lat="39.4094533253936" lon="16.811754523581516"><ele>684.5999999999999</ele><time>2026-04-06T08:36:49Z</time></trkpt><trkpt lat="39.409476057473995" lon="16.81183737582808"><ele>683.2</ele><time>2026-04-06T08:36:50Z</time></trkpt><trkpt lat="39.40944991175174" lon="16.811939993618108"><ele>681.8</ele><time>2026-04-06T08:36:51Z</time></trkpt><trkpt lat="39.409399047432835" lon="16.812038853741992"><ele>680.4000000000001</ele><time>2026-04-06T08:36:52Z</time></trkpt><trkpt lat="39.40932757522926" lon="16.81214580115031"><ele>679.0</ele><time>2026-04-06T08:36:53Z</time></trkpt><trkpt lat="39.409258640063875" lon="16.81226122241648"><ele>679.0</ele><time>2026-04-06T08:36:54Z</time></trkpt><trkpt lat="39.40920944132867" lon="16.81237519731951"><ele>679.0</ele><time>2026-04-06T08:36:55Z</time></trkpt><trkpt lat="39.409180979302754" lon="16.812481848145566"><ele>679.0</ele><time>2026-04-06T08:36:56Z</time></trkpt><trkpt lat="39.40919122834627" lon="16.812586659011966"><ele>679.0</ele><time>2026-04-06T08:36:57Z</time></trkpt><trkpt lat="39.40924826541525" lon="16.812679302886536"><ele>679.0</ele><time>2026-04-06T08:36:58Z</time></trkpt><trkpt lat="39.409344850734676" lon="16.81274827028217"><ele>678.25</ele><time>2026-04-06T08:36:59Z</time></trkpt><trkpt lat="39.409461902028276" lon="16.812811106896895"><ele>677.5</ele><time>2026-04-06T08:37:00Z</time></trkpt><trkpt lat="39.40957215777656" lon="16.81291513851543"><ele>676.75</ele><time>2026-04-06T08:37:01Z</time></trkpt><trkpt lat="39.40970093221926" lon="16.8130109955708"><ele>676.0</ele><time>2026-04-06T08:37:01.999Z</time></trkpt><trkpt lat="39.409825502578926" lon="16.8131045323321"><ele>676.0</ele><time>2026-04-06T08:37:02.999Z</time></trkpt><trkpt lat="39.40994711490251" lon="16.81317294377581"><ele>676.0</ele><time>2026-04-06T08:37:03.999Z</time></trkpt><trkpt lat="39.410054457388256" lon="16.813254020155206"><ele>676.0</ele><time>2026-04-06T08:37:04.999Z</time></trkpt><trkpt lat="39.4101593896711" lon="16.81333374951779"><ele>676.0</ele><time>2026-04-06T08:37:05.999Z</time></trkpt><trkpt lat="39.4102610236853" lon="16.813413373932868"><ele>673.75</ele><time>2026-04-06T08:37:06.999Z</time></trkpt><trkpt lat="39.41036009291098" lon="16.813491581909698"><ele>671.5</ele><time>2026-04-06T08:37:07.999Z</time></trkpt><trkpt lat="39.41047001862648" lon="16.813529745471886"><ele>669.25</ele><time>2026-04-06T08:37:08.999Z</time></trkpt><trkpt lat="39.41057667862563" lon="16.813562111872663"><ele>667.0</ele><time>2026-04-06T08:37:09.999Z</time></trkpt><trkpt lat="39.41069059716289" lon="16.81352561115369"><ele>668.5</ele><time>2026-04-06T08:37:10.999Z</time></trkpt><trkpt lat="39.41079480524972" lon="16.813481212820207"><ele>670.0</ele><time>2026-04-06T08:37:11.999Z</time></trkpt><trkpt lat="39.41089658168481" lon="16.81340006907763"><ele>671.5</ele><time>2026-04-06T08:37:12.999Z</time></trkpt><trkpt lat="39.41099698398599" lon="16.813287959835115"><ele>673.0</ele><time>2026-04-06T08:37:13.999Z</time></trkpt><trkpt lat="39.41109060612975" lon="16.813179461736162"><ele>673.0</ele><time>2026-04-06T08:37:14.999Z</time></trkpt><trkpt lat="39.411177652231224" lon="16.813081174123745"><ele>673.0</ele><time>2026-04-06T08:37:15.999Z</time></trkpt><trkpt lat="39.41126046318537" lon="16.812993658277"><ele>673.0</ele><time>2026-04-06T08:37:16.999Z</time></trkpt><trkpt lat="39.411344284573346" lon="16.812911940501092"><ele>673.0</ele><time>2026-04-06T08:37:17.999Z</time></trkpt><trkpt lat="39.41142966917988" lon="16.81281934130792"><ele>673.0</ele><time>2026-04-06T08:37:18.999Z</time></trkpt><trkpt lat="39.411523502887015" lon="16.81272321524913"><ele>671.5</ele><time>2026-04-06T08:37:19.999Z</time></trkpt><trkpt lat="39.41161775149204" lon="16.812622883889993"><ele>670.0</ele><time>2026-04-06T08:37:20.999Z</time></trkpt><trkpt lat="39.411718550319115" lon="16.81252443356903"><ele>668.5</ele><time>2026-04-06T08:37:21.999Z</time></trkpt><trkpt lat="39.41181998846346" lon="16.812417971755455"><ele>667.0</ele><time>2026-04-06T08:37:22.999Z</time></trkpt><trkpt lat="39.41192149960483" lon="16.81230691777046"><ele>667.0</ele><time>2026-04-06T08:37:23.999Z</time></trkpt><trkpt lat="39.41201734883582" lon="16.812197388205014"><ele>667.0</ele><time>2026-04-06T08:37:24.999Z</time></trkpt><trkpt lat="39.412117799388625" lon="16.812116380755736"><ele>667.0</ele><time>2026-04-06T08:37:25.999Z</time></trkpt><trkpt lat="39.41219484420627" lon="16.8120081512134"><ele>667.0</ele><time>2026-04-06T08:37:26.999Z</time></trkpt><trkpt lat="39.412275263952466" lon="16.811930499487715"><ele>665.0</ele><time>2026-04-06T08:37:27.999Z</time></trkpt><trkpt lat="39.41235274941353" lon="16.811890249016173"><ele>663.0</ele><time>2026-04-06T08:37:28.999Z</time></trkpt><trkpt lat="39.412438116295384" lon="16.811877281354793"><ele>661.0</ele><time>2026-04-06T08:37:30Z</time></trkpt><trkpt lat="39.41251964490015" lon="16.811910632748233"><ele>659.0</ele><time>2026-04-06T08:37:31Z</time></trkpt><trkpt lat="39.41260266495449" lon="16.81198313182723"><ele>657.0</ele><time>2026-04-06T08:37:32Z</time></trkpt><trkpt lat="39.412682450048635" lon="16.812073162562182"><ele>657.0</ele><time>2026-04-06T08:37:33Z</time></trkpt><trkpt lat="39.41275583937422" lon="16.81218874505171"><ele>657.0</ele><time>2026-04-06T08:37:34Z</time></trkpt><trkpt lat="39.41284837050293" lon="16.8122975844074"><ele>657.0</ele><time>2026-04-06T08:37:35Z</time></trkpt><trkpt lat="39.41294315059214" lon="16.81240808859706"><ele>657.0</ele><time>2026-04-06T08:37:36Z</time></trkpt><trkpt lat="39.4130308856116" lon="16.812497610391226"><ele>656.2</ele><time>2026-04-06T08:37:37Z</time></trkpt><trkpt lat="39.413114935439005" lon="16.812595483365836"><ele>655.4000000000001</ele><time>2026-04-06T08:37:38Z</time></trkpt><trkpt lat="39.413197415324476" lon="16.812683981042646"><ele>654.5999999999999</ele><time>2026-04-06T08:37:39Z</time></trkpt><trkpt lat="39.413285692148676" lon="16.812744971313"><ele>653.8</ele><time>2026-04-06T08:37:40Z</time></trkpt><trkpt lat="39.41339284462338" lon="16.812778893173434"><ele>653.0</ele><time>2026-04-06T08:37:41Z</time></trkpt><trkpt lat="39.41351783322923" lon="16.812797963410976"><ele>652.0</ele><time>2026-04-06T08:37:42Z</time></trkpt><trkpt lat="39.41363309352318" lon="16.812780659009267"><ele>651.0</ele><time>2026-04-06T08:37:43Z</time></trkpt><trkpt lat="39.41373239827539" lon="16.812754216112996"><ele>650.0</ele><time>2026-04-06T08:37:44Z</time></trkpt><trkpt lat="39.413835190666774" lon="16.81275865962511"><ele>649.0</ele><time>2026-04-06T08:37:45Z</time></trkpt><trkpt lat="39.41393650128849" lon="16.812836000275258"><ele>648.0</ele><time>2026-04-06T08:37:46Z</time></trkpt><trkpt lat="39.41402631418646" lon="16.8129362755134"><ele>646.8</ele><time>2026-04-06T08:37:47Z</time></trkpt><trkpt lat="39.41410109965368" lon="16.813051710440906"><ele>645.5999999999999</ele><time>2026-04-06T08:37:48Z</time></trkpt><trkpt lat="39.414140950326" lon="16.81316769487282"><ele>644.4000000000001</ele><time>2026-04-06T08:37:49Z</time></trkpt><trkpt lat="39.41418412149349" lon="16.813288956855356"><ele>643.2</ele><time>2026-04-06T08:37:50Z</time></trkpt><trkpt lat="39.41413614086661" lon="16.813423652476196"><ele>642.0</ele><time>2026-04-06T08:37:51Z</time></trkpt><trkpt lat="39.41408834167509" lon="16.813553284062177"><ele>640.6</ele><time>2026-04-06T08:37:52Z</time></trkpt><trkpt lat="39.414052406970804" lon="16.81369174875276"><ele>639.2</ele><time>2026-04-06T08:37:53Z</time></trkpt><trkpt lat="39.41402359623736" lon="16.81382542238654"><ele>637.8</ele><time>2026-04-06T08:37:54Z</time></trkpt><trkpt lat="39.41403041827842" lon="16.813955293563755"><ele>636.4</ele><time>2026-04-06T08:37:55Z</time></trkpt><trkpt lat="39.41403242261693" lon="16.814102227955956"><ele>635.0</ele><time>2026-04-06T08:37:56Z</time></trkpt><trkpt lat="39.414039690123005" lon="16.814268395114894"><ele>634.5</ele><time>2026-04-06T08:37:57Z</time></trkpt><trkpt lat="39.414052103351295" lon="16.814440998252532"><ele>634.0</ele><time>2026-04-06T08:37:58Z</time></trkpt><trkpt lat="39.414062372426734" lon="16.814619983344365"><ele>633.5</ele><time>2026-04-06T08:37:59Z</time></trkpt><trkpt lat="39.41407409366868" lon="16.81479321862484"><ele>633.0</ele><time>2026-04-06T08:38:00Z</time></trkpt><trkpt lat="39.41408507881735" lon="16.814973606235835"><ele>633.0</ele><time>2026-04-06T08:38:01Z</time></trkpt><trkpt lat="39.414096268947596" lon="16.815147432476284"><ele>633.0</ele><time>2026-04-06T08:38:02Z</time></trkpt><trkpt lat="39.41410696949296" lon="16.815299867501917"><ele>633.0</ele><time>2026-04-06T08:38:03Z</time></trkpt><trkpt lat="39.41408015587553" lon="16.815466162480284"><ele>633.0</ele><time>2026-04-06T08:38:04Z</time></trkpt><trkpt lat="39.41404235510069" lon="16.815635058155003"><ele>633.0</ele><time>2026-04-06T08:38:05Z</time></trkpt><trkpt lat="39.41398689800073" lon="16.815809266237334"><ele>633.0</ele><time>2026-04-06T08:38:06Z</time></trkpt><trkpt lat="39.41392383677517" lon="16.81598747123245"><ele>633.0</ele><time>2026-04-06T08:38:07Z</time></trkpt><trkpt lat="39.413866485711814" lon="16.816179626936922"><ele>633.25</ele><time>2026-04-06T08:38:08Z</time></trkpt><trkpt lat="39.413799634567916" lon="16.816359023703033"><ele>633.5</ele><time>2026-04-06T08:38:09Z</time></trkpt><trkpt lat="39.413739673874765" lon="16.816524214278218"><ele>633.75</ele><time>2026-04-06T08:38:10Z</time></trkpt><trkpt lat="39.413682288818244" lon="16.81667632481061"><ele>634.0</ele><time>2026-04-06T08:38:11Z</time></trkpt><trkpt lat="39.413616876299756" lon="16.816844980928487"><ele>634.75</ele><time>2026-04-06T08:38:12Z</time></trkpt><trkpt lat="39.413559583640826" lon="16.817006135996493"><ele>635.5</ele><time>2026-04-06T08:38:13Z</time></trkpt><trkpt lat="39.413506413236256" lon="16.8171538090591"><ele>636.25</ele><time>2026-04-06T08:38:14Z</time></trkpt><trkpt lat="39.41345598050105" lon="16.817289489012353"><ele>637.0</ele><time>2026-04-06T08:38:15Z</time></trkpt><trkpt lat="39.41340829188475" lon="16.817415002466237"><ele>637.0</ele><time>2026-04-06T08:38:16Z</time></trkpt><trkpt lat="39.41336968848991" lon="16.817535156025617"><ele>637.0</ele><time>2026-04-06T08:38:17Z</time></trkpt><trkpt lat="39.41333774596657" lon="16.81766606923626"><ele>637.0</ele><time>2026-04-06T08:38:18Z</time></trkpt><trkpt lat="39.413314506827206" lon="16.817814500403486"><ele>637.0</ele><time>2026-04-06T08:38:19Z</time></trkpt><trkpt lat="39.413310489193435" lon="16.81796196418326"><ele>637.0</ele><time>2026-04-06T08:38:20Z</time></trkpt><trkpt lat="39.41331237569908" lon="16.81810173435147"><ele>636.4</ele><time>2026-04-06T08:38:21Z</time></trkpt><trkpt lat="39.41329510702782" lon="16.81825379345328"><ele>635.8000000000001</ele><time>2026-04-06T08:38:22Z</time></trkpt><trkpt lat="39.413297700494326" lon="16.818401872175887"><ele>635.2</ele><time>2026-04-06T08:38:23Z</time></trkpt><trkpt lat="39.41331562017695" lon="16.8185351511602"><ele>634.6</ele><time>2026-04-06T08:38:24Z</time></trkpt><trkpt lat="39.41331550858755" lon="16.818660088073177"><ele>634.0</ele><time>2026-04-06T08:38:25Z</time></trkpt><trkpt lat="39.41331742161608" lon="16.818780133365266"><ele>633.8333333333334</ele><time>2026-04-06T08:38:26Z</time></trkpt><trkpt lat="39.413322858756494" lon="16.818892664928384"><ele>633.6666666666667</ele><time>2026-04-06T08:38:27Z</time></trkpt><trkpt lat="39.41332799783895" lon="16.81900171442404"><ele>633.5</ele><time>2026-04-06T08:38:28Z</time></trkpt><trkpt lat="39.413329707317814" lon="16.819103749091667"><ele>633.3333333333334</ele><time>2026-04-06T08:38:29Z</time></trkpt><trkpt lat="39.41332927174916" lon="16.81919548307878"><ele>633.1666666666666</ele><time>2026-04-06T08:38:30Z</time></trkpt><trkpt lat="39.41332523141826" lon="16.819289332394384"><ele>633.0</ele><time>2026-04-06T08:38:31Z</time></trkpt><trkpt lat="39.41331807575192" lon="16.819413283706506"><ele>633.0</ele><time>2026-04-06T08:38:33Z</time></trkpt><trkpt lat="39.413478613911515" lon="16.81950521693928"><ele>633.0</ele><time>2026-04-06T08:38:38Z</time></trkpt><trkpt lat="39.41355066129239" lon="16.819517241471875"><ele>633.0</ele><time>2026-04-06T08:38:39Z</time></trkpt><trkpt lat="39.413631004517654" lon="16.819541095477526"><ele>633.0</ele><time>2026-04-06T08:38:41Z</time></trkpt><trkpt lat="39.4137145444017" lon="16.819574027878364"><ele>633.0</ele><time>2026-04-06T08:38:43Z</time></trkpt><trkpt lat="39.41383188631315" lon="16.81963264690828"><ele>632.6666666666666</ele><time>2026-04-06T08:38:45Z</time></trkpt><trkpt lat="39.41388165139118" lon="16.81969054100296"><ele>632.3333333333334</ele><time>2026-04-06T08:38:46Z</time></trkpt><trkpt lat="39.41388005767968" lon="16.819789754472428"><ele>632.0</ele><time>2026-04-06T08:38:47Z</time></trkpt><trkpt lat="39.413899648386234" lon="16.81987384229868"><ele>631.6666666666667</ele><time>2026-04-06T08:38:48Z</time></trkpt><trkpt lat="39.41392099087032" lon="16.81997469949256"><ele>631.3333333333334</ele><time>2026-04-06T08:38:49Z</time></trkpt><trkpt lat="39.41394472954723" lon="16.820089477541316"><ele>631.0</ele><time>2026-04-06T08:38:50Z</time></trkpt><trkpt lat="39.41397877816001" lon="16.820200929675917"><ele>630.8333333333334</ele><time>2026-04-06T08:38:51Z</time></trkpt><trkpt lat="39.41400018471504" lon="16.820309865572035"><ele>630.6666666666667</ele><time>2026-04-06T08:38:52Z</time></trkpt><trkpt lat="39.41402981618745" lon="16.8204032916057"><ele>630.5</ele><time>2026-04-06T08:38:53Z</time></trkpt><trkpt lat="39.41403470070947" lon="16.820499062477516"><ele>630.3333333333334</ele><time>2026-04-06T08:38:54Z</time></trkpt><trkpt lat="39.414053858969964" lon="16.82058279727246"><ele>630.1666666666666</ele><time>2026-04-06T08:38:55Z</time></trkpt><trkpt lat="39.41407318531879" lon="16.82066984395727"><ele>630.0</ele><time>2026-04-06T08:38:56Z</time></trkpt><trkpt lat="39.41410463902269" lon="16.820758950628537"><ele>630.0</ele><time>2026-04-06T08:38:57Z</time></trkpt><trkpt lat="39.41408608590695" lon="16.820857984807034"><ele>630.0</ele><time>2026-04-06T08:38:58Z</time></trkpt><trkpt lat="39.41413592621039" lon="16.820994328259964"><ele>630.0</ele><time>2026-04-06T08:39:00Z</time></trkpt><trkpt lat="39.414159324445656" lon="16.82108004797436"><ele>630.0</ele><time>2026-04-06T08:39:01.999Z</time></trkpt><trkpt lat="39.414322395378306" lon="16.820996486350857"><ele>630.0</ele><time>2026-04-06T08:39:05.999Z</time></trkpt><trkpt lat="39.414380163187005" lon="16.820927466989016"><ele>630.0</ele><time>2026-04-06T08:39:06.999Z</time></trkpt><trkpt lat="39.41444287282981" lon="16.820849504922244"><ele>630.0</ele><time>2026-04-06T08:39:07.999Z</time></trkpt><trkpt lat="39.41451609952077" lon="16.820765809299846"><ele>630.0</ele><time>2026-04-06T08:39:08.999Z</time></trkpt><trkpt lat="39.41459127344023" lon="16.820678302403113"><ele>630.0</ele><time>2026-04-06T08:39:09.999Z</time></trkpt><trkpt lat="39.41465196583381" lon="16.82058106719766"><ele>630.0</ele><time>2026-04-06T08:39:10.999Z</time></trkpt><trkpt lat="39.41470160554792" lon="16.82049760211362"><ele>628.4</ele><time>2026-04-06T08:39:11.999Z</time></trkpt><trkpt lat="39.414744780378705" lon="16.820413078748782"><ele>626.8</ele><time>2026-04-06T08:39:12.999Z</time></trkpt><trkpt lat="39.41479298192996" lon="16.8203279689447"><ele>625.2</ele><time>2026-04-06T08:39:13.999Z</time></trkpt><trkpt lat="39.4148487269571" lon="16.820226595599394"><ele>623.6</ele><time>2026-04-06T08:39:14.999Z</time></trkpt><trkpt lat="39.41491016446689" lon="16.820119009397313"><ele>622.0</ele><time>2026-04-06T08:39:15.999Z</time></trkpt><trkpt lat="39.41497362135533" lon="16.820013381474645"><ele>621.4</ele><time>2026-04-06T08:39:16.999Z</time></trkpt><trkpt lat="39.41505385730675" lon="16.81993723378353"><ele>620.8000000000001</ele><time>2026-04-06T08:39:17.999Z</time></trkpt><trkpt lat="39.41510964909672" lon="16.819840623825307"><ele>620.2</ele><time>2026-04-06T08:39:18.999Z</time></trkpt><trkpt lat="39.41516337035452" lon="16.819744104280716"><ele>619.6</ele><time>2026-04-06T08:39:19.999Z</time></trkpt><trkpt lat="39.41521335458161" lon="16.819649408373035"><ele>619.0</ele><time>2026-04-06T08:39:20.999Z</time></trkpt><trkpt lat="39.41526641111629" lon="16.8195502394893"><ele>619.0</ele><time>2026-04-06T08:39:21.999Z</time></trkpt><trkpt lat="39.41532927383817" lon="16.81943274090821"><ele>619.0</ele><time>2026-04-06T08:39:22.999Z</time></trkpt><trkpt lat="39.41539760210242" lon="16.81929830726045"><ele>619.0</ele><time>2026-04-06T08:39:23.999Z</time></trkpt><trkpt lat="39.41546877201907" lon="16.81915958771042"><ele>619.0</ele><time>2026-04-06T08:39:24.999Z</time></trkpt><trkpt lat="39.41554083482919" lon="16.819019127753673"><ele>614.5</ele><time>2026-04-06T08:39:25.999Z</time></trkpt><trkpt lat="39.41560897703345" lon="16.818884743835522"><ele>610.0</ele><time>2026-04-06T08:39:26.999Z</time></trkpt><trkpt lat="39.41567223237111" lon="16.818759367565203"><ele>605.5</ele><time>2026-04-06T08:39:27.999Z</time></trkpt><trkpt lat="39.41573976393126" lon="16.818625693607082"><ele>601.0</ele><time>2026-04-06T08:39:28.999Z</time></trkpt><trkpt lat="39.415800426706504" lon="16.818505632554405"><ele>600.6</ele><time>2026-04-06T08:39:29.999Z</time></trkpt><trkpt lat="39.415857789671634" lon="16.818392102327824"><ele>600.2</ele><time>2026-04-06T08:39:30.999Z</time></trkpt><trkpt lat="39.41591145512632" lon="16.818283788131033"><ele>599.8</ele><time>2026-04-06T08:39:31.999Z</time></trkpt><trkpt lat="39.41596266312106" lon="16.818180310245122"><ele>599.4</ele><time>2026-04-06T08:39:32.999Z</time></trkpt><trkpt lat="39.41601214667845" lon="16.818080317072624"><ele>599.0</ele><time>2026-04-06T08:39:33.999Z</time></trkpt><trkpt lat="39.41605861222626" lon="16.81798642239627"><ele>599.0</ele><time>2026-04-06T08:39:34.999Z</time></trkpt><trkpt lat="39.416097610619424" lon="16.81790600814136"><ele>599.0</ele><time>2026-04-06T08:39:36Z</time></trkpt><trkpt lat="39.416164599233895" lon="16.817855633916942"><ele>599.0</ele><time>2026-04-06T08:39:37Z</time></trkpt><trkpt lat="39.41619754627862" lon="16.817784542309447"><ele>599.0</ele><time>2026-04-06T08:39:38Z</time></trkpt><trkpt lat="39.41619921423999" lon="16.817684995608303"><ele>599.0</ele><time>2026-04-06T08:39:39Z</time></trkpt><trkpt lat="39.41625457337301" lon="16.817604530194423"><ele>599.0</ele><time>2026-04-06T08:39:40Z</time></trkpt><trkpt lat="39.416302142728874" lon="16.817511606051113"><ele>598.6</ele><time>2026-04-06T08:39:41Z</time></trkpt><trkpt lat="39.41635511523866" lon="16.81740340204365"><ele>598.2</ele><time>2026-04-06T08:39:42Z</time></trkpt><trkpt lat="39.416414226122534" lon="16.817282659567738"><ele>597.8000000000001</ele><time>2026-04-06T08:39:43Z</time></trkpt><trkpt lat="39.41647207936868" lon="16.817164486031086"><ele>597.4</ele><time>2026-04-06T08:39:44Z</time></trkpt><trkpt lat="39.41652933444372" lon="16.817048112245775"><ele>597.0</ele><time>2026-04-06T08:39:45Z</time></trkpt><trkpt lat="39.41658191465598" lon="16.816943631098397"><ele>597.0</ele><time>2026-04-06T08:39:46Z</time></trkpt><trkpt lat="39.4166296767189" lon="16.816847930791138"><ele>597.0</ele><time>2026-04-06T08:39:47Z</time></trkpt><trkpt lat="39.416662420061215" lon="16.81675664068669"><ele>597.0</ele><time>2026-04-06T08:39:48Z</time></trkpt><trkpt lat="39.4167062961897" lon="16.81668666077858"><ele>597.0</ele><time>2026-04-06T08:39:49Z</time></trkpt><trkpt lat="39.416746217040746" lon="16.81660799746247"><ele>597.0</ele><time>2026-04-06T08:39:50Z</time></trkpt><trkpt lat="39.41680502677531" lon="16.816537445063407"><ele>597.0</ele><time>2026-04-06T08:39:51Z</time></trkpt><trkpt lat="39.41685699969175" lon="16.81644880462063"><ele>597.2</ele><time>2026-04-06T08:39:52Z</time></trkpt><trkpt lat="39.41691410073108" lon="16.81635130600576"><ele>597.4000000000001</ele><time>2026-04-06T08:39:53Z</time></trkpt><trkpt lat="39.41697789804618" lon="16.816241927294556"><ele>597.5999999999999</ele><time>2026-04-06T08:39:54Z</time></trkpt><trkpt lat="39.41704563383183" lon="16.81612439958593"><ele>597.8</ele><time>2026-04-06T08:39:55Z</time></trkpt><trkpt lat="39.41711117554506" lon="16.816010669773856"><ele>598.0</ele><time>2026-04-06T08:39:56Z</time></trkpt><trkpt lat="39.41717426671369" lon="16.81589961402449"><ele>595.4</ele><time>2026-04-06T08:39:57Z</time></trkpt><trkpt lat="39.41723944567896" lon="16.815784905625073"><ele>592.8</ele><time>2026-04-06T08:39:58Z</time></trkpt><trkpt lat="39.417303872231244" lon="16.815671602290333"><ele>590.2</ele><time>2026-04-06T08:39:59Z</time></trkpt><trkpt lat="39.4173683171523" lon="16.815558266672024"><ele>587.6</ele><time>2026-04-06T08:40:00Z</time></trkpt><trkpt lat="39.41743319236402" lon="16.815445085235606"><ele>585.0</ele><time>2026-04-06T08:40:01Z</time></trkpt><trkpt lat="39.417485816703376" lon="16.815320610751616"><ele>585.0</ele><time>2026-04-06T08:40:02Z</time></trkpt><trkpt lat="39.41755283972255" lon="16.815213712837334"><ele>585.0</ele><time>2026-04-06T08:40:03Z</time></trkpt><trkpt lat="39.417615389025755" lon="16.815102129785338"><ele>585.0</ele><time>2026-04-06T08:40:04Z</time></trkpt><trkpt lat="39.41767942803994" lon="16.8149920232858"><ele>585.0</ele><time>2026-04-06T08:40:05Z</time></trkpt><trkpt lat="39.41774680469755" lon="16.81488171365624"><ele>585.0</ele><time>2026-04-06T08:40:06Z</time></trkpt><trkpt lat="39.41782541982916" lon="16.814771119050985"><ele>584.6</ele><time>2026-04-06T08:40:07Z</time></trkpt><trkpt lat="39.417908074665434" lon="16.814680615094954"><ele>584.2</ele><time>2026-04-06T08:40:08Z</time></trkpt><trkpt lat="39.41799104650683" lon="16.81460876594079"><ele>583.8</ele><time>2026-04-06T08:40:09Z</time></trkpt><trkpt lat="39.418065614742595" lon="16.814535579174994"><ele>583.4</ele><time>2026-04-06T08:40:10Z</time></trkpt><trkpt lat="39.418134092713686" lon="16.814463926486848"><ele>583.0</ele><time>2026-04-06T08:40:11Z</time></trkpt><trkpt lat="39.41819184109084" lon="16.814398476792224"><ele>581.0</ele><time>2026-04-06T08:40:12Z</time></trkpt><trkpt lat="39.41824883892938" lon="16.814350861621808"><ele>579.0</ele><time>2026-04-06T08:40:13Z</time></trkpt><trkpt lat="39.41834004747655" lon="16.814279385377244"><ele>577.0</ele><time>2026-04-06T08:40:15Z</time></trkpt><trkpt lat="39.418450364239916" lon="16.814250398116716"><ele>575.0</ele><time>2026-04-06T08:40:17Z</time></trkpt><trkpt lat="39.41850297144447" lon="16.8142037141046"><ele>573.0</ele><time>2026-04-06T08:40:19Z</time></trkpt><trkpt lat="39.41854546443621" lon="16.814070758736623"><ele>572.8333333333334</ele><time>2026-04-06T08:40:21Z</time></trkpt><trkpt lat="39.41855314006885" lon="16.81395882521487"><ele>572.6666666666666</ele><time>2026-04-06T08:40:22Z</time></trkpt><trkpt lat="39.41856593145316" lon="16.81384439177953"><ele>572.5</ele><time>2026-04-06T08:40:23Z</time></trkpt><trkpt lat="39.41859842706342" lon="16.813753034046407"><ele>572.3333333333333</ele><time>2026-04-06T08:40:24Z</time></trkpt><trkpt lat="39.41865051922023" lon="16.813694766068668"><ele>572.1666666666666</ele><time>2026-04-06T08:40:25Z</time></trkpt><trkpt lat="39.41872728859503" lon="16.813701696911323"><ele>572.0</ele><time>2026-04-06T08:40:26Z</time></trkpt><trkpt lat="39.418802939613585" lon="16.81367692934697"><ele>571.6666666666666</ele><time>2026-04-06T08:40:27Z</time></trkpt><trkpt lat="39.418889708723526" lon="16.813654512573475"><ele>571.3333333333333</ele><time>2026-04-06T08:40:28Z</time></trkpt><trkpt lat="39.41897331565795" lon="16.813643482173507"><ele>571.0</ele><time>2026-04-06T08:40:29Z</time></trkpt><trkpt lat="39.419029406632276" lon="16.81369770689476"><ele>570.6666666666666</ele><time>2026-04-06T08:40:30Z</time></trkpt><trkpt lat="39.41908268557642" lon="16.813780096639405"><ele>570.3333333333334</ele><time>2026-04-06T08:40:31Z</time></trkpt><trkpt lat="39.41911103563683" lon="16.81390677921691"><ele>570.0</ele><time>2026-04-06T08:40:32Z</time></trkpt><trkpt lat="39.41916626562433" lon="16.814028427135863"><ele>570.0</ele><time>2026-04-06T08:40:33Z</time></trkpt><trkpt lat="39.41922141144445" lon="16.81416486131896"><ele>570.0</ele><time>2026-04-06T08:40:34Z</time></trkpt><trkpt lat="39.419276388660656" lon="16.814296135870023"><ele>570.0</ele><time>2026-04-06T08:40:35Z</time></trkpt><trkpt lat="39.419316012035594" lon="16.814433321189338"><ele>570.0</ele><time>2026-04-06T08:40:36Z</time></trkpt><trkpt lat="39.41937696139328" lon="16.81456832723474"><ele>569.2</ele><time>2026-04-06T08:40:37Z</time></trkpt><trkpt lat="39.41942933052517" lon="16.81469714224885"><ele>568.4</ele><time>2026-04-06T08:40:38Z</time></trkpt><trkpt lat="39.41944285057225" lon="16.814829884569104"><ele>567.6</ele><time>2026-04-06T08:40:39Z</time></trkpt><trkpt lat="39.4194435290059" lon="16.814950033706697"><ele>566.8</ele><time>2026-04-06T08:40:40Z</time></trkpt><trkpt lat="39.41941620287525" lon="16.815059371373465"><ele>566.0</ele><time>2026-04-06T08:40:41Z</time></trkpt><trkpt lat="39.41937326415784" lon="16.81517217327378"><ele>565.8</ele><time>2026-04-06T08:40:42Z</time></trkpt><trkpt lat="39.41936567337072" lon="16.815316376113515"><ele>565.6</ele><time>2026-04-06T08:40:43Z</time></trkpt><trkpt lat="39.41937284191684" lon="16.815469055166535"><ele>565.4</ele><time>2026-04-06T08:40:44Z</time></trkpt><trkpt lat="39.419395858325515" lon="16.81561212364294"><ele>565.2</ele><time>2026-04-06T08:40:45Z</time></trkpt><trkpt lat="39.41942244387937" lon="16.815725219297345"><ele>565.0</ele><time>2026-04-06T08:40:46Z</time></trkpt><trkpt lat="39.41946695018439" lon="16.815820982619407"><ele>565.0</ele><time>2026-04-06T08:40:47Z</time></trkpt><trkpt lat="39.419549561402235" lon="16.815889914023288"><ele>565.0</ele><time>2026-04-06T08:40:48Z</time></trkpt><trkpt lat="39.419661099700384" lon="16.81592918094991"><ele>565.0</ele><time>2026-04-06T08:40:49Z</time></trkpt><trkpt lat="39.419789613560845" lon="16.815946941314866"><ele>565.0</ele><time>2026-04-06T08:40:50Z</time></trkpt><trkpt lat="39.41990913817208" lon="16.815981055053594"><ele>566.5</ele><time>2026-04-06T08:40:51Z</time></trkpt><trkpt lat="39.420026783261825" lon="16.816017279255522"><ele>568.0</ele><time>2026-04-06T08:40:52Z</time></trkpt><trkpt lat="39.420142989483075" lon="16.81605511372025"><ele>569.5</ele><time>2026-04-06T08:40:53Z</time></trkpt><trkpt lat="39.420270637185276" lon="16.816068980594682"><ele>571.0</ele><time>2026-04-06T08:40:54Z</time></trkpt><trkpt lat="39.42040063972563" lon="16.816049128872415"><ele>573.0</ele><time>2026-04-06T08:40:55Z</time></trkpt><trkpt lat="39.420530426034766" lon="16.81601709930613"><ele>575.0</ele><time>2026-04-06T08:40:56Z</time></trkpt><trkpt lat="39.42064640941348" lon="16.816029105838826"><ele>577.0</ele><time>2026-04-06T08:40:56.999Z</time></trkpt><trkpt lat="39.42076157911838" lon="16.816056964762172"><ele>579.0</ele><time>2026-04-06T08:40:57.999Z</time></trkpt><trkpt lat="39.420888414982706" lon="16.816066072927097"><ele>579.0</ele><time>2026-04-06T08:40:58.999Z</time></trkpt><trkpt lat="39.42101945780953" lon="16.816044372078228"><ele>579.0</ele><time>2026-04-06T08:40:59.999Z</time></trkpt><trkpt lat="39.42114949974266" lon="16.81603329405864"><ele>579.0</ele><time>2026-04-06T08:41:00.999Z</time></trkpt><trkpt lat="39.42127723027704" lon="16.816025214067782"><ele>579.0</ele><time>2026-04-06T08:41:01.999Z</time></trkpt><trkpt lat="39.42140244390311" lon="16.81606692518642"><ele>580.0</ele><time>2026-04-06T08:41:02.999Z</time></trkpt><trkpt lat="39.421508669840875" lon="16.816103884915726"><ele>581.0</ele><time>2026-04-06T08:41:03.999Z</time></trkpt><trkpt lat="39.421600072766104" lon="16.81614540470085"><ele>582.0</ele><time>2026-04-06T08:41:04.999Z</time></trkpt><trkpt lat="39.421680836620446" lon="16.816175534672677"><ele>583.0</ele><time>2026-04-06T08:41:05.999Z</time></trkpt><trkpt lat="39.42177914340142" lon="16.81623013590514"><ele>584.0</ele><time>2026-04-06T08:41:06.999Z</time></trkpt><trkpt lat="39.42189691235646" lon="16.816286451017646"><ele>584.0</ele><time>2026-04-06T08:41:07.999Z</time></trkpt><trkpt lat="39.42201968892742" lon="16.816339567393563"><ele>584.0</ele><time>2026-04-06T08:41:08.999Z</time></trkpt><trkpt lat="39.422135548738346" lon="16.8163977475092"><ele>584.0</ele><time>2026-04-06T08:41:09.999Z</time></trkpt><trkpt lat="39.422242449312314" lon="16.81644612017819"><ele>584.0</ele><time>2026-04-06T08:41:10.999Z</time></trkpt><trkpt lat="39.422341122788495" lon="16.816495435762985"><ele>585.4</ele><time>2026-04-06T08:41:11.999Z</time></trkpt><trkpt lat="39.422440410500315" lon="16.81653662005469"><ele>586.8</ele><time>2026-04-06T08:41:12.999Z</time></trkpt><trkpt lat="39.42254851405217" lon="16.81653771742419"><ele>588.2</ele><time>2026-04-06T08:41:13.999Z</time></trkpt><trkpt lat="39.42265381949289" lon="16.81651419164405"><ele>589.6</ele><time>2026-04-06T08:41:14.999Z</time></trkpt><trkpt lat="39.42274583207867" lon="16.816409042520462"><ele>591.0</ele><time>2026-04-06T08:41:15.999Z</time></trkpt><trkpt lat="39.42282352323361" lon="16.816305049248413"><ele>591.0</ele><time>2026-04-06T08:41:16.999Z</time></trkpt><trkpt lat="39.42289363322469" lon="16.816211022330382"><ele>591.0</ele><time>2026-04-06T08:41:17.999Z</time></trkpt><trkpt lat="39.422968180330614" lon="16.816135501761813"><ele>591.0</ele><time>2026-04-06T08:41:18.999Z</time></trkpt><trkpt lat="39.42305441979302" lon="16.81611109788898"><ele>591.0</ele><time>2026-04-06T08:41:19.999Z</time></trkpt><trkpt lat="39.42313861981679" lon="16.81609831449198"><ele>591.0</ele><time>2026-04-06T08:41:20.999Z</time></trkpt><trkpt lat="39.42322922637725" lon="16.816140434082843"><ele>591.8</ele><time>2026-04-06T08:41:21.999Z</time></trkpt><trkpt lat="39.423335841952536" lon="16.816130499605194"><ele>592.6</ele><time>2026-04-06T08:41:22.999Z</time></trkpt><trkpt lat="39.423434349955535" lon="16.816176176915246"><ele>593.4</ele><time>2026-04-06T08:41:23.999Z</time></trkpt><trkpt lat="39.42351662882287" lon="16.816221872700893"><ele>594.2</ele><time>2026-04-06T08:41:24.999Z</time></trkpt><trkpt lat="39.423562351781044" lon="16.81630087021144"><ele>595.0</ele><time>2026-04-06T08:41:25.999Z</time></trkpt><trkpt lat="39.42359406462983" lon="16.816386379203994"><ele>595.0</ele><time>2026-04-06T08:41:26.999Z</time></trkpt><trkpt lat="39.42358781569153" lon="16.816511488770214"><ele>595.0</ele><time>2026-04-06T08:41:27.999Z</time></trkpt><trkpt lat="39.423578612795914" lon="16.816663171989816"><ele>595.0</ele><time>2026-04-06T08:41:28.999Z</time></trkpt><trkpt lat="39.423587903481284" lon="16.816840302505053"><ele>595.0</ele><time>2026-04-06T08:41:29.999Z</time></trkpt><trkpt lat="39.42358545060473" lon="16.81704114861423"><ele>594.25</ele><time>2026-04-06T08:41:30.999Z</time></trkpt><trkpt lat="39.42359132519471" lon="16.81724477776663"><ele>593.5</ele><time>2026-04-06T08:41:31.999Z</time></trkpt><trkpt lat="39.42359481718097" lon="16.81743797270869"><ele>592.75</ele><time>2026-04-06T08:41:32.999Z</time></trkpt><trkpt lat="39.42361086856374" lon="16.8176207561947"><ele>592.0</ele><time>2026-04-06T08:41:33.999Z</time></trkpt><trkpt lat="39.4235940926751" lon="16.817791297701564"><ele>592.0</ele><time>2026-04-06T08:41:34.999Z</time></trkpt><trkpt lat="39.42357346796843" lon="16.817942325074696"><ele>592.0</ele><time>2026-04-06T08:41:35.999Z</time></trkpt><trkpt lat="39.42354722990921" lon="16.818087342789447"><ele>592.0</ele><time>2026-04-06T08:41:36.999Z</time></trkpt><trkpt lat="39.42352304616101" lon="16.818243406534094"><ele>592.0</ele><time>2026-04-06T08:41:37.999Z</time></trkpt><trkpt lat="39.42352924725093" lon="16.818420256610047"><ele>592.0</ele><time>2026-04-06T08:41:38.999Z</time></trkpt><trkpt lat="39.423561962178916" lon="16.818601571618835"><ele>592.0</ele><time>2026-04-06T08:41:39.999Z</time></trkpt><trkpt lat="39.423612969621054" lon="16.81877947594953"><ele>592.0</ele><time>2026-04-06T08:41:40.999Z</time></trkpt><trkpt lat="39.42366146796233" lon="16.81895264383132"><ele>592.0</ele><time>2026-04-06T08:41:42Z</time></trkpt><trkpt lat="39.42370260096651" lon="16.81912466224993"><ele>592.0</ele><time>2026-04-06T08:41:43Z</time></trkpt><trkpt lat="39.42375572616114" lon="16.819295557754423"><ele>592.0</ele><time>2026-04-06T08:41:44Z</time></trkpt><trkpt lat="39.42383048351036" lon="16.81945437494248"><ele>592.0</ele><time>2026-04-06T08:41:45Z</time></trkpt><trkpt lat="39.42393627867096" lon="16.81961298954439"><ele>592.0</ele><time>2026-04-06T08:41:46Z</time></trkpt><trkpt lat="39.42404271082254" lon="16.81977983920776"><ele>594.6666666666667</ele><time>2026-04-06T08:41:47Z</time></trkpt><trkpt lat="39.42413506214683" lon="16.8199511268942"><ele>597.3333333333334</ele><time>2026-04-06T08:41:48Z</time></trkpt><trkpt lat="39.4242260402793" lon="16.82011547720581"><ele>600.0</ele><time>2026-04-06T08:41:49Z</time></trkpt><trkpt lat="39.42431618314831" lon="16.820263041861118"><ele>600.0</ele><time>2026-04-06T08:41:50Z</time></trkpt><trkpt lat="39.424394829912394" lon="16.820397528481156"><ele>600.0</ele><time>2026-04-06T08:41:51Z</time></trkpt><trkpt lat="39.424468708055734" lon="16.820519156129414"><ele>600.0</ele><time>2026-04-06T08:41:52Z</time></trkpt><trkpt lat="39.42455852700688" lon="16.82063700997476"><ele>600.0</ele><time>2026-04-06T08:41:53Z</time></trkpt><trkpt lat="39.424664310956736" lon="16.82073958361133"><ele>602.2</ele><time>2026-04-06T08:41:54Z</time></trkpt><trkpt lat="39.42477532952841" lon="16.82082813031169"><ele>604.4</ele><time>2026-04-06T08:41:55Z</time></trkpt><trkpt lat="39.424871431549846" lon="16.820907905478432"><ele>606.6</ele><time>2026-04-06T08:41:56Z</time></trkpt><trkpt lat="39.4249285527753" lon="16.820998694177"><ele>608.8</ele><time>2026-04-06T08:41:57Z</time></trkpt><trkpt lat="39.42495977976031" lon="16.82110001352127"><ele>611.0</ele><time>2026-04-06T08:41:58Z</time></trkpt><trkpt lat="39.424926748602324" lon="16.821215842180614"><ele>611.4</ele><time>2026-04-06T08:41:59Z</time></trkpt><trkpt lat="39.424925250410155" lon="16.82135953578971"><ele>611.8</ele><time>2026-04-06T08:42:00Z</time></trkpt><trkpt lat="39.424898518286106" lon="16.821497729112075"><ele>612.1999999999999</ele><time>2026-04-06T08:42:01Z</time></trkpt><trkpt lat="39.4249023679659" lon="16.82161432575194"><ele>612.6</ele><time>2026-04-06T08:42:02Z</time></trkpt><trkpt lat="39.42493643988481" lon="16.82171628846149"><ele>613.0</ele><time>2026-04-06T08:42:03Z</time></trkpt><trkpt lat="39.42499808773859" lon="16.821772529930268"><ele>613.0</ele><time>2026-04-06T08:42:04Z</time></trkpt><trkpt lat="39.425075450678406" lon="16.821787799975628"><ele>613.0</ele><time>2026-04-06T08:42:05Z</time></trkpt><trkpt lat="39.42516050207301" lon="16.821761389695414"><ele>613.0</ele><time>2026-04-06T08:42:06Z</time></trkpt><trkpt lat="39.42523546021248" lon="16.821736778434207"><ele>613.0</ele><time>2026-04-06T08:42:07Z</time></trkpt><trkpt lat="39.42526783240708" lon="16.821597954900504"><ele>613.0</ele><time>2026-04-06T08:42:08Z</time></trkpt><trkpt lat="39.42530189747716" lon="16.821475840198385"><ele>613.0</ele><time>2026-04-06T08:42:09Z</time></trkpt><trkpt lat="39.42535167259449" lon="16.82134837991593"><ele>613.0</ele><time>2026-04-06T08:42:10Z</time></trkpt><trkpt lat="39.425408279976274" lon="16.821218437688348"><ele>613.0</ele><time>2026-04-06T08:42:11Z</time></trkpt><trkpt lat="39.42546150680825" lon="16.821090493250413"><ele>613.0</ele><time>2026-04-06T08:42:12Z</time></trkpt><trkpt lat="39.42550879733134" lon="16.820975930039797"><ele>613.0</ele><time>2026-04-06T08:42:13Z</time></trkpt><trkpt lat="39.425549144574305" lon="16.82088383293336"><ele>614.0</ele><time>2026-04-06T08:42:14Z</time></trkpt><trkpt lat="39.425598801480156" lon="16.820813602094947"><ele>615.0</ele><time>2026-04-06T08:42:15Z</time></trkpt><trkpt lat="39.425661008529445" lon="16.820760095488495"><ele>616.0</ele><time>2026-04-06T08:42:16Z</time></trkpt><trkpt lat="39.42573364282814" lon="16.82073783836382"><ele>617.0</ele><time>2026-04-06T08:42:17Z</time></trkpt><trkpt lat="39.425815091367674" lon="16.820753066258618"><ele>618.0</ele><time>2026-04-06T08:42:18Z</time></trkpt><trkpt lat="39.42589497122423" lon="16.82080027808533"><ele>619.0</ele><time>2026-04-06T08:42:19Z</time></trkpt><trkpt lat="39.42596459748175" lon="16.820878626044838"><ele>619.0</ele><time>2026-04-06T08:42:20Z</time></trkpt><trkpt lat="39.42600132201778" lon="16.820981472170647"><ele>619.0</ele><time>2026-04-06T08:42:21Z</time></trkpt><trkpt lat="39.426014318685525" lon="16.821108073044492"><ele>619.0</ele><time>2026-04-06T08:42:22Z</time></trkpt><trkpt lat="39.42599571855846" lon="16.82125946122247"><ele>619.0</ele><time>2026-04-06T08:42:23Z</time></trkpt><trkpt lat="39.42597151053762" lon="16.821416050443016"><ele>619.0</ele><time>2026-04-06T08:42:24Z</time></trkpt><trkpt lat="39.42594948821554" lon="16.821570537218218"><ele>619.4</ele><time>2026-04-06T08:42:25Z</time></trkpt><trkpt lat="39.425939115503716" lon="16.821717114099314"><ele>619.8</ele><time>2026-04-06T08:42:26Z</time></trkpt><trkpt lat="39.42595687208683" lon="16.821849210020098"><ele>620.2</ele><time>2026-04-06T08:42:27Z</time></trkpt><trkpt lat="39.42601327209235" lon="16.821959757433405"><ele>620.6</ele><time>2026-04-06T08:42:28Z</time></trkpt><trkpt lat="39.42609511294452" lon="16.822033127953635"><ele>621.0</ele><time>2026-04-06T08:42:29Z</time></trkpt><trkpt lat="39.426194489393495" lon="16.822080351264454"><ele>621.25</ele><time>2026-04-06T08:42:30Z</time></trkpt><trkpt lat="39.42630832453527" lon="16.82207951640667"><ele>621.5</ele><time>2026-04-06T08:42:31Z</time></trkpt><trkpt lat="39.426420596159126" lon="16.822057502045748"><ele>621.75</ele><time>2026-04-06T08:42:32Z</time></trkpt><trkpt lat="39.42653718419276" lon="16.822079048212263"><ele>622.0</ele><time>2026-04-06T08:42:33Z</time></trkpt><trkpt lat="39.4266527313072" lon="16.822114920917652"><ele>622.0</ele><time>2026-04-06T08:42:34Z</time></trkpt><trkpt lat="39.42676829171423" lon="16.822182981223953"><ele>622.0</ele><time>2026-04-06T08:42:35Z</time></trkpt><trkpt lat="39.42689573260122" lon="16.8222358944709"><ele>622.0</ele><time>2026-04-06T08:42:36Z</time></trkpt><trkpt lat="39.427012470472334" lon="16.822321302856103"><ele>622.0</ele><time>2026-04-06T08:42:37Z</time></trkpt><trkpt lat="39.42713347849343" lon="16.822385849255298"><ele>623.5</ele><time>2026-04-06T08:42:38Z</time></trkpt><trkpt lat="39.4272533916649" lon="16.82245235079589"><ele>625.0</ele><time>2026-04-06T08:42:39Z</time></trkpt><trkpt lat="39.427377585995366" lon="16.82251054512546"><ele>626.5</ele><time>2026-04-06T08:42:40Z</time></trkpt><trkpt lat="39.42747314900557" lon="16.822629061948557"><ele>628.0</ele><time>2026-04-06T08:42:41Z</time></trkpt><trkpt lat="39.42756725856603" lon="16.822743748483838"><ele>628.0</ele><time>2026-04-06T08:42:42Z</time></trkpt><trkpt lat="39.42766664665737" lon="16.822841113465625"><ele>628.0</ele><time>2026-04-06T08:42:43Z</time></trkpt><trkpt lat="39.42774967221106" lon="16.822954248442688"><ele>628.0</ele><time>2026-04-06T08:42:44Z</time></trkpt><trkpt lat="39.427826704867265" lon="16.82306566389987"><ele>628.0</ele><time>2026-04-06T08:42:45Z</time></trkpt><trkpt lat="39.42788996960625" lon="16.823188620280348"><ele>628.0</ele><time>2026-04-06T08:42:46Z</time></trkpt><trkpt lat="39.427946940166876" lon="16.823334132994557"><ele>628.0</ele><time>2026-04-06T08:42:47Z</time></trkpt><trkpt lat="39.42798217705956" lon="16.82349935100006"><ele>628.0</ele><time>2026-04-06T08:42:48Z</time></trkpt><trkpt lat="39.42801945413396" lon="16.82366694298669"><ele>628.0</ele><time>2026-04-06T08:42:49Z</time></trkpt><trkpt lat="39.428049798978144" lon="16.823824622370722"><ele>621.0</ele><time>2026-04-06T08:42:50Z</time></trkpt><trkpt lat="39.428076642470586" lon="16.82397832141442"><ele>614.0</ele><time>2026-04-06T08:42:51Z</time></trkpt><trkpt lat="39.428099629791426" lon="16.824146460455363"><ele>607.0</ele><time>2026-04-06T08:42:52Z</time></trkpt><trkpt lat="39.42811330691221" lon="16.82432294365493"><ele>600.0</ele><time>2026-04-06T08:42:53Z</time></trkpt><trkpt lat="39.428121367374914" lon="16.824497293943136"><ele>599.2</ele><time>2026-04-06T08:42:54Z</time></trkpt><trkpt lat="39.42812803130469" lon="16.82465198912735"><ele>598.4</ele><time>2026-04-06T08:42:55Z</time></trkpt><trkpt lat="39.42813178086202" lon="16.82478017457256"><ele>597.6</ele><time>2026-04-06T08:42:56Z</time></trkpt><trkpt lat="39.428146055417706" lon="16.824893176628148"><ele>596.8</ele><time>2026-04-06T08:42:57Z</time></trkpt><trkpt lat="39.4281171269012" lon="16.82500385010321"><ele>596.0</ele><time>2026-04-06T08:42:58Z</time></trkpt><trkpt lat="39.428057873493806" lon="16.825091367201686"><ele>599.5</ele><time>2026-04-06T08:42:59Z</time></trkpt><trkpt lat="39.42796741734041" lon="16.82512010398071"><ele>603.0</ele><time>2026-04-06T08:42:59.999Z</time></trkpt><trkpt lat="39.42788315169662" lon="16.825156717521597"><ele>606.5</ele><time>2026-04-06T08:43:00.999Z</time></trkpt><trkpt lat="39.4278113323115" lon="16.825190893914133"><ele>610.0</ele><time>2026-04-06T08:43:01.999Z</time></trkpt><trkpt lat="39.42776136635579" lon="16.82524585343601"><ele>613.5</ele><time>2026-04-06T08:43:02.999Z</time></trkpt><trkpt lat="39.427770167004574" lon="16.825370196980725"><ele>617.0</ele><time>2026-04-06T08:43:03.999Z</time></trkpt><trkpt lat="39.42777879768419" lon="16.82548051217011"><ele>620.0</ele><time>2026-04-06T08:43:04.999Z</time></trkpt><trkpt lat="39.427860914533035" lon="16.82555696585862"><ele>623.0</ele><time>2026-04-06T08:43:05.999Z</time></trkpt><trkpt lat="39.427956784870574" lon="16.82562935208935"><ele>626.0</ele><time>2026-04-06T08:43:06.999Z</time></trkpt><trkpt lat="39.42804433968537" lon="16.825735646865855"><ele>629.0</ele><time>2026-04-06T08:43:07.999Z</time></trkpt><trkpt lat="39.42814573174265" lon="16.82583777939561"><ele>624.6</ele><time>2026-04-06T08:43:08.999Z</time></trkpt><trkpt lat="39.42824107474952" lon="16.825935790899848"><ele>620.2</ele><time>2026-04-06T08:43:09.999Z</time></trkpt><trkpt lat="39.428326990494746" lon="16.826029639344007"><ele>615.8000000000001</ele><time>2026-04-06T08:43:10.999Z</time></trkpt><trkpt lat="39.42840231187974" lon="16.826129182912645"><ele>611.4</ele><time>2026-04-06T08:43:11.999Z</time></trkpt><trkpt lat="39.42843896511527" lon="16.826249090928144"><ele>607.0</ele><time>2026-04-06T08:43:12.999Z</time></trkpt><trkpt lat="39.42845808326096" lon="16.826396110314015"><ele>607.0</ele><time>2026-04-06T08:43:13.999Z</time></trkpt><trkpt lat="39.42847793077015" lon="16.82656643965905"><ele>607.0</ele><time>2026-04-06T08:43:14.999Z</time></trkpt><trkpt lat="39.42853207931281" lon="16.826729701451004"><ele>607.0</ele><time>2026-04-06T08:43:15.999Z</time></trkpt><trkpt lat="39.42857698311612" lon="16.82688310416275"><ele>607.0</ele><time>2026-04-06T08:43:16.999Z</time></trkpt><trkpt lat="39.428660697757344" lon="16.82700353916407"><ele>609.0</ele><time>2026-04-06T08:43:17.999Z</time></trkpt><trkpt lat="39.428750962985006" lon="16.827106972878493"><ele>611.0</ele><time>2026-04-06T08:43:18.999Z</time></trkpt><trkpt lat="39.428847134527466" lon="16.82721201435993"><ele>613.0</ele><time>2026-04-06T08:43:19.999Z</time></trkpt><trkpt lat="39.4289427340437" lon="16.827314285550578"><ele>615.0</ele><time>2026-04-06T08:43:20.999Z</time></trkpt><trkpt lat="39.429032060731295" lon="16.82740947109797"><ele>610.5</ele><time>2026-04-06T08:43:21.999Z</time></trkpt><trkpt lat="39.42911481577324" lon="16.82749861389661"><ele>606.0</ele><time>2026-04-06T08:43:22.999Z</time></trkpt><trkpt lat="39.42917902512408" lon="16.827568741927816"><ele>601.5</ele><time>2026-04-06T08:43:23.999Z</time></trkpt><trkpt lat="39.42924410362589" lon="16.827617230480016"><ele>597.0</ele><time>2026-04-06T08:43:24.999Z</time></trkpt><trkpt lat="39.42931773323168" lon="16.827628086081273"><ele>592.5</ele><time>2026-04-06T08:43:25.999Z</time></trkpt><trkpt lat="39.429394439039235" lon="16.827545853734964"><ele>588.0</ele><time>2026-04-06T08:43:26.999Z</time></trkpt><trkpt lat="39.42943693121192" lon="16.827431783227535"><ele>588.0</ele><time>2026-04-06T08:43:27.999Z</time></trkpt><trkpt lat="39.42949368217725" lon="16.827325797055924"><ele>588.0</ele><time>2026-04-06T08:43:28.999Z</time></trkpt><trkpt lat="39.42957388702512" lon="16.827240960642214"><ele>588.0</ele><time>2026-04-06T08:43:29.999Z</time></trkpt><trkpt lat="39.42966025278193" lon="16.827207761641347"><ele>588.0</ele><time>2026-04-06T08:43:30.999Z</time></trkpt><trkpt lat="39.42974847489023" lon="16.82724777179942"><ele>588.0</ele><time>2026-04-06T08:43:31.999Z</time></trkpt><trkpt lat="39.429853074283734" lon="16.827273111454282"><ele>588.6</ele><time>2026-04-06T08:43:32.999Z</time></trkpt><trkpt lat="39.42996573454778" lon="16.827333780970633"><ele>589.1999999999999</ele><time>2026-04-06T08:43:33.999Z</time></trkpt><trkpt lat="39.43007862570721" lon="16.827367798894432"><ele>589.8</ele><time>2026-04-06T08:43:34.999Z</time></trkpt><trkpt lat="39.430192213730734" lon="16.827395349414456"><ele>590.4</ele><time>2026-04-06T08:43:35.999Z</time></trkpt><trkpt lat="39.43027721554554" lon="16.82734340359668"><ele>591.0</ele><time>2026-04-06T08:43:36.999Z</time></trkpt><trkpt lat="39.430357356822675" lon="16.827317099160513"><ele>591.0</ele><time>2026-04-06T08:43:37.999Z</time></trkpt><trkpt lat="39.43043170360777" lon="16.827267449467506"><ele>591.0</ele><time>2026-04-06T08:43:38.999Z</time></trkpt><trkpt lat="39.43049793407012" lon="16.82722591742309"><ele>591.0</ele><time>2026-04-06T08:43:39.999Z</time></trkpt><trkpt lat="39.43057644040401" lon="16.827212891712367"><ele>591.0</ele><time>2026-04-06T08:43:40.999Z</time></trkpt><trkpt lat="39.430668492513625" lon="16.82724525601239"><ele>591.0</ele><time>2026-04-06T08:43:41.999Z</time></trkpt><trkpt lat="39.43075307658954" lon="16.827336107363095"><ele>591.0</ele><time>2026-04-06T08:43:42.999Z</time></trkpt><trkpt lat="39.43085992912849" lon="16.827430832709332"><ele>591.5</ele><time>2026-04-06T08:43:43.999Z</time></trkpt><trkpt lat="39.43096656632288" lon="16.82752536718892"><ele>592.0</ele><time>2026-04-06T08:43:44.999Z</time></trkpt><trkpt lat="39.43107795801751" lon="16.827615112594597"><ele>592.5</ele><time>2026-04-06T08:43:45.999Z</time></trkpt><trkpt lat="39.43119177541721" lon="16.827687510076785"><ele>593.0</ele><time>2026-04-06T08:43:47Z</time></trkpt><trkpt lat="39.43131244174891" lon="16.82772333994562"><ele>593.0</ele><time>2026-04-06T08:43:48Z</time></trkpt><trkpt lat="39.431435085861956" lon="16.82771433939869"><ele>593.0</ele><time>2026-04-06T08:43:49Z</time></trkpt><trkpt lat="39.431558403044505" lon="16.827699108514054"><ele>593.0</ele><time>2026-04-06T08:43:50Z</time></trkpt><trkpt lat="39.43167614342436" lon="16.827684434991816"><ele>593.0</ele><time>2026-04-06T08:43:51Z</time></trkpt><trkpt lat="39.43180431348096" lon="16.827677601567075"><ele>593.0</ele><time>2026-04-06T08:43:52Z</time></trkpt><trkpt lat="39.4319188214047" lon="16.827670651247374"><ele>593.0</ele><time>2026-04-06T08:43:53Z</time></trkpt><trkpt lat="39.43201957608716" lon="16.82771414701471"><ele>593.0</ele><time>2026-04-06T08:43:54Z</time></trkpt><trkpt lat="39.43208958197177" lon="16.82781442460955"><ele>593.0</ele><time>2026-04-06T08:43:55Z</time></trkpt><trkpt lat="39.43216692891854" lon="16.82792149168702"><ele>593.0</ele><time>2026-04-06T08:43:56Z</time></trkpt><trkpt lat="39.43224076924663" lon="16.828056808944613"><ele>589.25</ele><time>2026-04-06T08:43:57Z</time></trkpt><trkpt lat="39.4323165492865" lon="16.828200205882577"><ele>585.5</ele><time>2026-04-06T08:43:58Z</time></trkpt><trkpt lat="39.43239837823792" lon="16.82833220678681"><ele>581.75</ele><time>2026-04-06T08:43:59Z</time></trkpt><trkpt lat="39.43247665205991" lon="16.828468778467258"><ele>578.0</ele><time>2026-04-06T08:44:00Z</time></trkpt><trkpt lat="39.432551520755275" lon="16.82860789242685"><ele>575.75</ele><time>2026-04-06T08:44:01Z</time></trkpt><trkpt lat="39.43260681045223" lon="16.828763783979145"><ele>573.5</ele><time>2026-04-06T08:44:02Z</time></trkpt><trkpt lat="39.432628624362934" lon="16.828931802481687"><ele>571.25</ele><time>2026-04-06T08:44:03Z</time></trkpt><trkpt lat="39.43266946958732" lon="16.829091605582864"><ele>569.0</ele><time>2026-04-06T08:44:04Z</time></trkpt><trkpt lat="39.43274663091697" lon="16.829233522491947"><ele>568.5</ele><time>2026-04-06T08:44:05Z</time></trkpt><trkpt lat="39.43283343505232" lon="16.82937705755006"><ele>568.0</ele><time>2026-04-06T08:44:06Z</time></trkpt><trkpt lat="39.43291515565021" lon="16.829503461254575"><ele>567.5</ele><time>2026-04-06T08:44:07Z</time></trkpt><trkpt lat="39.432995093033966" lon="16.829623056452974"><ele>567.0</ele><time>2026-04-06T08:44:08Z</time></trkpt><trkpt lat="39.433061035524375" lon="16.82975359064514"><ele>564.25</ele><time>2026-04-06T08:44:09Z</time></trkpt><trkpt lat="39.433129677395904" lon="16.829872274419078"><ele>561.5</ele><time>2026-04-06T08:44:10Z</time></trkpt><trkpt lat="39.43321107147219" lon="16.829966685364365"><ele>558.75</ele><time>2026-04-06T08:44:11Z</time></trkpt><trkpt lat="39.43331903701394" lon="16.8300242782407"><ele>556.0</ele><time>2026-04-06T08:44:12Z</time></trkpt><trkpt lat="39.43345379098317" lon="16.830058285370967"><ele>556.0</ele><time>2026-04-06T08:44:13Z</time></trkpt><trkpt lat="39.433584982703856" lon="16.830092882344932"><ele>556.0</ele><time>2026-04-06T08:44:14Z</time></trkpt><trkpt lat="39.43370485488769" lon="16.830136527645095"><ele>556.0</ele><time>2026-04-06T08:44:15Z</time></trkpt><trkpt lat="39.43380166676337" lon="16.830216186147986"><ele>556.0</ele><time>2026-04-06T08:44:16Z</time></trkpt><trkpt lat="39.4338844283975" lon="16.83030202607488"><ele>555.0</ele><time>2026-04-06T08:44:17Z</time></trkpt><trkpt lat="39.43393963753041" lon="16.830437061132404"><ele>554.0</ele><time>2026-04-06T08:44:18Z</time></trkpt><trkpt lat="39.43399366988609" lon="16.830586927978683"><ele>553.0</ele><time>2026-04-06T08:44:19Z</time></trkpt><trkpt lat="39.434061090986795" lon="16.830737890996446"><ele>552.0</ele><time>2026-04-06T08:44:20Z</time></trkpt><trkpt lat="39.43409985090086" lon="16.830885965461164"><ele>550.2</ele><time>2026-04-06T08:44:21Z</time></trkpt><trkpt lat="39.43412874303514" lon="16.831022430061118"><ele>548.4000000000001</ele><time>2026-04-06T08:44:22Z</time></trkpt><trkpt lat="39.43414431387309" lon="16.83115034686649"><ele>546.5999999999999</ele><time>2026-04-06T08:44:23Z</time></trkpt><trkpt lat="39.43418172975795" lon="16.831264842125208"><ele>544.8</ele><time>2026-04-06T08:44:24Z</time></trkpt><trkpt lat="39.434242427266305" lon="16.83135038830147"><ele>543.0</ele><time>2026-04-06T08:44:25Z</time></trkpt><trkpt lat="39.434322955229405" lon="16.83141347063033"><ele>543.0</ele><time>2026-04-06T08:44:26Z</time></trkpt><trkpt lat="39.43440692820225" lon="16.831440242541937"><ele>543.0</ele><time>2026-04-06T08:44:27Z</time></trkpt><trkpt lat="39.434501067181486" lon="16.831435627846947"><ele>543.0</ele><time>2026-04-06T08:44:28Z</time></trkpt><trkpt lat="39.43460168089946" lon="16.83143012646927"><ele>543.0</ele><time>2026-04-06T08:44:29Z</time></trkpt><trkpt lat="39.43469793665741" lon="16.8314841617429"><ele>543.0</ele><time>2026-04-06T08:44:30Z</time></trkpt><trkpt lat="39.434784825808" lon="16.831552653826673"><ele>543.6</ele><time>2026-04-06T08:44:31Z</time></trkpt><trkpt lat="39.434848301873046" lon="16.831641846629033"><ele>544.1999999999999</ele><time>2026-04-06T08:44:32Z</time></trkpt><trkpt lat="39.43492869686735" lon="16.831727650273336"><ele>544.8</ele><time>2026-04-06T08:44:33Z</time></trkpt><trkpt lat="39.43500015027498" lon="16.831832336240367"><ele>545.4</ele><time>2026-04-06T08:44:34Z</time></trkpt><trkpt lat="39.43506816106469" lon="16.831940013651785"><ele>546.0</ele><time>2026-04-06T08:44:35Z</time></trkpt><trkpt lat="39.435171281509575" lon="16.83200876516954"><ele>546.0</ele><time>2026-04-06T08:44:36Z</time></trkpt><trkpt lat="39.43527289690452" lon="16.83208320416593"><ele>546.0</ele><time>2026-04-06T08:44:37Z</time></trkpt><trkpt lat="39.43538133112044" lon="16.83215053321981"><ele>546.0</ele><time>2026-04-06T08:44:38Z</time></trkpt><trkpt lat="39.435472475235734" lon="16.832254512428108"><ele>546.0</ele><time>2026-04-06T08:44:39Z</time></trkpt><trkpt lat="39.435563272525066" lon="16.832337227208345"><ele>547.75</ele><time>2026-04-06T08:44:40Z</time></trkpt><trkpt lat="39.43563215076172" lon="16.832461463552878"><ele>549.5</ele><time>2026-04-06T08:44:41Z</time></trkpt><trkpt lat="39.43568043048394" lon="16.832612123870426"><ele>551.25</ele><time>2026-04-06T08:44:42Z</time></trkpt><trkpt lat="39.43574628319464" lon="16.83276750952498"><ele>553.0</ele><time>2026-04-06T08:44:43Z</time></trkpt><trkpt lat="39.43579205898931" lon="16.832938803406897"><ele>553.0</ele><time>2026-04-06T08:44:44Z</time></trkpt><trkpt lat="39.43583478843858" lon="16.833099514662614"><ele>553.0</ele><time>2026-04-06T08:44:45Z</time></trkpt><trkpt lat="39.435883407001675" lon="16.833253320014187"><ele>553.0</ele><time>2026-04-06T08:44:46Z</time></trkpt><trkpt lat="39.43595335062651" lon="16.83341738882283"><ele>553.0</ele><time>2026-04-06T08:44:47Z</time></trkpt><trkpt lat="39.43605001072037" lon="16.8335801480802"><ele>550.5</ele><time>2026-04-06T08:44:48Z</time></trkpt><trkpt lat="39.436147183403506" lon="16.83373268762375"><ele>548.0</ele><time>2026-04-06T08:44:49Z</time></trkpt><trkpt lat="39.43622846099941" lon="16.833888273700026"><ele>545.5</ele><time>2026-04-06T08:44:50Z</time></trkpt><trkpt lat="39.43631675056412" lon="16.834029349306476"><ele>543.0</ele><time>2026-04-06T08:44:51Z</time></trkpt><trkpt lat="39.4364056435809" lon="16.83416497348212"><ele>544.25</ele><time>2026-04-06T08:44:52Z</time></trkpt><trkpt lat="39.43649539481205" lon="16.834296395239946"><ele>545.5</ele><time>2026-04-06T08:44:53Z</time></trkpt><trkpt lat="39.436597417853704" lon="16.834403690254774"><ele>546.75</ele><time>2026-04-06T08:44:54Z</time></trkpt><trkpt lat="39.43670230817021" lon="16.834517822426843"><ele>548.0</ele><time>2026-04-06T08:44:55Z</time></trkpt><trkpt lat="39.43681267370528" lon="16.83460235492209"><ele>548.0</ele><time>2026-04-06T08:44:56Z</time></trkpt><trkpt lat="39.43692651308854" lon="16.834655746438486"><ele>548.0</ele><time>2026-04-06T08:44:56.999Z</time></trkpt><trkpt lat="39.437041080626244" lon="16.834671326604866"><ele>548.0</ele><time>2026-04-06T08:44:57.999Z</time></trkpt><trkpt lat="39.43715065268344" lon="16.83465302817421"><ele>548.0</ele><time>2026-04-06T08:44:58.999Z</time></trkpt><trkpt lat="39.43724517636282" lon="16.834601789181658"><ele>548.0</ele><time>2026-04-06T08:44:59.999Z</time></trkpt><trkpt lat="39.43731866983292" lon="16.83452312021758"><ele>551.8333333333333</ele><time>2026-04-06T08:45:00.999Z</time></trkpt><trkpt lat="39.437397218568016" lon="16.834467978633306"><ele>555.6666666666666</ele><time>2026-04-06T08:45:01.999Z</time></trkpt><trkpt lat="39.437477740338956" lon="16.83447636892431"><ele>559.5</ele><time>2026-04-06T08:45:02.999Z</time></trkpt><trkpt lat="39.437533400779614" lon="16.83454787257068"><ele>563.3333333333334</ele><time>2026-04-06T08:45:03.999Z</time></trkpt><trkpt lat="39.437562314042964" lon="16.834636560016488"><ele>567.1666666666667</ele><time>2026-04-06T08:45:04.999Z</time></trkpt><trkpt lat="39.43756755284176" lon="16.834746866532274"><ele>571.0</ele><time>2026-04-06T08:45:05.999Z</time></trkpt><trkpt lat="39.43752210341727" lon="16.834883127295278"><ele>571.0</ele><time>2026-04-06T08:45:06.999Z</time></trkpt><trkpt lat="39.43750432471727" lon="16.83503831042188"><ele>571.0</ele><time>2026-04-06T08:45:07.999Z</time></trkpt><trkpt lat="39.43748669643871" lon="16.835195867974218"><ele>571.0</ele><time>2026-04-06T08:45:08.999Z</time></trkpt><trkpt lat="39.437508018346065" lon="16.835365441384113"><ele>571.0</ele><time>2026-04-06T08:45:09.999Z</time></trkpt><trkpt lat="39.437556214538084" lon="16.83551138068746"><ele>570.8</ele><time>2026-04-06T08:45:10.999Z</time></trkpt><trkpt lat="39.43759792373608" lon="16.8356425752634"><ele>570.6</ele><time>2026-04-06T08:45:11.999Z</time></trkpt><trkpt lat="39.43758698264383" lon="16.83579455953702"><ele>570.4</ele><time>2026-04-06T08:45:12.999Z</time></trkpt><trkpt lat="39.43758830098369" lon="16.835941290990778"><ele>570.2</ele><time>2026-04-06T08:45:13.999Z</time></trkpt><trkpt lat="39.437586562421025" lon="16.836060170363602"><ele>570.0</ele><time>2026-04-06T08:45:14.999Z</time></trkpt><trkpt lat="39.43755028603747" lon="16.83613707104004"><ele>572.2</ele><time>2026-04-06T08:45:15.999Z</time></trkpt><trkpt lat="39.437502585413384" lon="16.836192166759513"><ele>574.4</ele><time>2026-04-06T08:45:16.999Z</time></trkpt><trkpt lat="39.43741964240746" lon="16.83630857084059"><ele>576.6</ele><time>2026-04-06T08:45:18.999Z</time></trkpt><trkpt lat="39.437391881716266" lon="16.836406838635046"><ele>578.8</ele><time>2026-04-06T08:45:19.999Z</time></trkpt><trkpt lat="39.43736885184953" lon="16.836537229445447"><ele>581.0</ele><time>2026-04-06T08:45:20.999Z</time></trkpt><trkpt lat="39.43734953990042" lon="16.836694308231532"><ele>584.25</ele><time>2026-04-06T08:45:21.999Z</time></trkpt><trkpt lat="39.437333864682" lon="16.836881578367215"><ele>587.5</ele><time>2026-04-06T08:45:22.999Z</time></trkpt><trkpt lat="39.43730024757302" lon="16.837064798913662"><ele>590.75</ele><time>2026-04-06T08:45:23.999Z</time></trkpt><trkpt lat="39.43726707275682" lon="16.837233722207078"><ele>594.0</ele><time>2026-04-06T08:45:24.999Z</time></trkpt><trkpt lat="39.43722263969248" lon="16.83739208835247"><ele>594.0</ele><time>2026-04-06T08:45:25.999Z</time></trkpt><trkpt lat="39.43717764219334" lon="16.837563298065263"><ele>594.0</ele><time>2026-04-06T08:45:26.999Z</time></trkpt><trkpt lat="39.43713668212114" lon="16.837734126637887"><ele>594.0</ele><time>2026-04-06T08:45:27.999Z</time></trkpt><trkpt lat="39.43713302120347" lon="16.83795065694412"><ele>594.0</ele><time>2026-04-06T08:45:28.999Z</time></trkpt><trkpt lat="39.43715075948198" lon="16.838170902935733"><ele>593.5</ele><time>2026-04-06T08:45:29.999Z</time></trkpt><trkpt lat="39.43718410960412" lon="16.83836909323266"><ele>593.0</ele><time>2026-04-06T08:45:30.999Z</time></trkpt><trkpt lat="39.43722138449104" lon="16.838537883530204"><ele>592.5</ele><time>2026-04-06T08:45:31.999Z</time></trkpt><trkpt lat="39.437244467591775" lon="16.838693272705115"><ele>592.0</ele><time>2026-04-06T08:45:32.999Z</time></trkpt><trkpt lat="39.4372159752133" lon="16.83884800024431"><ele>592.0</ele><time>2026-04-06T08:45:33.999Z</time></trkpt><trkpt lat="39.43721155910455" lon="16.838993983737854"><ele>592.0</ele><time>2026-04-06T08:45:34.999Z</time></trkpt><trkpt lat="39.437191593448155" lon="16.83913716717155"><ele>592.0</ele><time>2026-04-06T08:45:35.999Z</time></trkpt><trkpt lat="39.437183919092114" lon="16.839287388441576"><ele>592.0</ele><time>2026-04-06T08:45:36.999Z</time></trkpt><trkpt lat="39.437199549246415" lon="16.839441160726516"><ele>590.0</ele><time>2026-04-06T08:45:37.999Z</time></trkpt><trkpt lat="39.43724308857649" lon="16.839586513628092"><ele>588.0</ele><time>2026-04-06T08:45:38.999Z</time></trkpt><trkpt lat="39.43730808027869" lon="16.839718626662552"><ele>586.0</ele><time>2026-04-06T08:45:39.999Z</time></trkpt><trkpt lat="39.43738337836124" lon="16.83983621307355"><ele>584.0</ele><time>2026-04-06T08:45:40.999Z</time></trkpt><trkpt lat="39.437430577377455" lon="16.839964804314057"><ele>584.0</ele><time>2026-04-06T08:45:41.999Z</time></trkpt><trkpt lat="39.437459210888704" lon="16.840109434785"><ele>584.0</ele><time>2026-04-06T08:45:42.999Z</time></trkpt><trkpt lat="39.43749570456175" lon="16.840279476367357"><ele>584.0</ele><time>2026-04-06T08:45:43.999Z</time></trkpt><trkpt lat="39.43754202714019" lon="16.840459147451817"><ele>584.0</ele><time>2026-04-06T08:45:44.999Z</time></trkpt><trkpt lat="39.43758844733911" lon="16.84065247998782"><ele>581.3333333333333</ele><time>2026-04-06T08:45:45.999Z</time></trkpt><trkpt lat="39.437626821758734" lon="16.840848670125865"><ele>578.6666666666666</ele><time>2026-04-06T08:45:46.999Z</time></trkpt><trkpt lat="39.43766257803424" lon="16.84104900073448"><ele>576.0</ele><time>2026-04-06T08:45:47.999Z</time></trkpt><trkpt lat="39.43771410926914" lon="16.84123923077451"><ele>574.75</ele><time>2026-04-06T08:45:48.999Z</time></trkpt><trkpt lat="39.43775881570879" lon="16.841415776399597"><ele>573.5</ele><time>2026-04-06T08:45:49.999Z</time></trkpt><trkpt lat="39.43781347637888" lon="16.841574752452544"><ele>572.25</ele><time>2026-04-06T08:45:50.999Z</time></trkpt><trkpt lat="39.43787993629224" lon="16.841721229342234"><ele>571.0</ele><time>2026-04-06T08:45:51.999Z</time></trkpt><trkpt lat="39.437978218685444" lon="16.84185861407036"><ele>576.75</ele><time>2026-04-06T08:45:53Z</time></trkpt><trkpt lat="39.43809179172479" lon="16.841984245802927"><ele>582.5</ele><time>2026-04-06T08:45:54Z</time></trkpt><trkpt lat="39.43818114448094" lon="16.842126007016894"><ele>588.25</ele><time>2026-04-06T08:45:55Z</time></trkpt><trkpt lat="39.438257579402375" lon="16.842240699838605"><ele>594.0</ele><time>2026-04-06T08:45:56Z</time></trkpt><trkpt lat="39.438272458418744" lon="16.842386626550233"><ele>594.0</ele><time>2026-04-06T08:45:57Z</time></trkpt><trkpt lat="39.43827343329844" lon="16.84252462623478"><ele>594.0</ele><time>2026-04-06T08:45:58Z</time></trkpt><trkpt lat="39.43828404698388" lon="16.842687190865032"><ele>594.0</ele><time>2026-04-06T08:45:59Z</time></trkpt><trkpt lat="39.43830989105087" lon="16.84285478351669"><ele>594.0</ele><time>2026-04-06T08:46:00Z</time></trkpt><trkpt lat="39.438350038217095" lon="16.843027024930297"><ele>591.25</ele><time>2026-04-06T08:46:01Z</time></trkpt><trkpt lat="39.438418312152294" lon="16.84319434477432"><ele>588.5</ele><time>2026-04-06T08:46:02Z</time></trkpt><trkpt lat="39.43848324393884" lon="16.843369956340947"><ele>585.75</ele><time>2026-04-06T08:46:03Z</time></trkpt><trkpt lat="39.438539954144595" lon="16.84353819373174"><ele>583.0</ele><time>2026-04-06T08:46:04Z</time></trkpt><trkpt lat="39.43855067193041" lon="16.84369001427127"><ele>583.0</ele><time>2026-04-06T08:46:05Z</time></trkpt><trkpt lat="39.438536317551225" lon="16.843842223408235"><ele>583.0</ele><time>2026-04-06T08:46:06Z</time></trkpt><trkpt lat="39.438530954408535" lon="16.844007919465092"><ele>583.0</ele><time>2026-04-06T08:46:07Z</time></trkpt><trkpt lat="39.438500900200566" lon="16.844172532580057"><ele>583.0</ele><time>2026-04-06T08:46:08Z</time></trkpt><trkpt lat="39.438482119352386" lon="16.844308928141757"><ele>582.25</ele><time>2026-04-06T08:46:09Z</time></trkpt><trkpt lat="39.4384662808574" lon="16.844435772937935"><ele>581.5</ele><time>2026-04-06T08:46:10Z</time></trkpt><trkpt lat="39.43846605533888" lon="16.84458613701346"><ele>580.75</ele><time>2026-04-06T08:46:11Z</time></trkpt><trkpt lat="39.4384828158597" lon="16.844746404058082"><ele>580.0</ele><time>2026-04-06T08:46:12Z</time></trkpt><trkpt lat="39.438524102377464" lon="16.84490684435184"><ele>580.0</ele><time>2026-04-06T08:46:13Z</time></trkpt><trkpt lat="39.43858814057782" lon="16.845069704068653"><ele>580.0</ele><time>2026-04-06T08:46:14Z</time></trkpt><trkpt lat="39.438660391758106" lon="16.845229352986347"><ele>580.0</ele><time>2026-04-06T08:46:15Z</time></trkpt><trkpt lat="39.43872954532953" lon="16.845390461231055"><ele>580.0</ele><time>2026-04-06T08:46:16Z</time></trkpt><trkpt lat="39.43879580131549" lon="16.845544383497522"><ele>588.0</ele><time>2026-04-06T08:46:17Z</time></trkpt><trkpt lat="39.438846661347476" lon="16.845697236467547"><ele>596.0</ele><time>2026-04-06T08:46:18Z</time></trkpt><trkpt lat="39.438910750748654" lon="16.84584611587715"><ele>604.0</ele><time>2026-04-06T08:46:19Z</time></trkpt><trkpt lat="39.438972673314005" lon="16.845989961726435"><ele>612.0</ele><time>2026-04-06T08:46:20Z</time></trkpt><trkpt lat="39.43902813081377" lon="16.84611912697076"><ele>612.6</ele><time>2026-04-06T08:46:21Z</time></trkpt><trkpt lat="39.43906988084356" lon="16.846230341005388"><ele>613.2</ele><time>2026-04-06T08:46:22Z</time></trkpt><trkpt lat="39.43909800003836" lon="16.8463407974858"><ele>613.8</ele><time>2026-04-06T08:46:23Z</time></trkpt><trkpt lat="39.43908638542239" lon="16.846449299222233"><ele>614.4</ele><time>2026-04-06T08:46:24Z</time></trkpt><trkpt lat="39.439033426628555" lon="16.84653347286996"><ele>615.0</ele><time>2026-04-06T08:46:25Z</time></trkpt><trkpt lat="39.438952708393906" lon="16.846615853216022"><ele>615.0</ele><time>2026-04-06T08:46:26Z</time></trkpt><trkpt lat="39.43886336641797" lon="16.846709114268805"><ele>615.0</ele><time>2026-04-06T08:46:27Z</time></trkpt><trkpt lat="39.438814857584816" lon="16.84684120585662"><ele>615.0</ele><time>2026-04-06T08:46:28Z</time></trkpt><trkpt lat="39.43877763743884" lon="16.846994329291476"><ele>615.0</ele><time>2026-04-06T08:46:29Z</time></trkpt><trkpt lat="39.43877810168277" lon="16.84717130705772"><ele>615.5</ele><time>2026-04-06T08:46:30Z</time></trkpt><trkpt lat="39.43879309040814" lon="16.847340137550937"><ele>616.0</ele><time>2026-04-06T08:46:31Z</time></trkpt><trkpt lat="39.43880748494496" lon="16.847510041041915"><ele>616.5</ele><time>2026-04-06T08:46:32Z</time></trkpt><trkpt lat="39.43883051826046" lon="16.84766285923168"><ele>617.0</ele><time>2026-04-06T08:46:33Z</time></trkpt><trkpt lat="39.43885214151273" lon="16.847797829481284"><ele>617.0</ele><time>2026-04-06T08:46:34Z</time></trkpt><trkpt lat="39.43886731642874" lon="16.847934342764606"><ele>617.0</ele><time>2026-04-06T08:46:35Z</time></trkpt><trkpt lat="39.43895706715096" lon="16.84804606099386"><ele>617.0</ele><time>2026-04-06T08:46:36Z</time></trkpt><trkpt lat="39.439042144129914" lon="16.848169998246608"><ele>617.0</ele><time>2026-04-06T08:46:37Z</time></trkpt><trkpt lat="39.439127910710646" lon="16.848292241612985"><ele>617.0</ele><time>2026-04-06T08:46:38Z</time></trkpt><trkpt lat="39.43920988664245" lon="16.848419276284105"><ele>617.0</ele><time>2026-04-06T08:46:39Z</time></trkpt><trkpt lat="39.439278331494535" lon="16.848540607361926"><ele>617.0</ele><time>2026-04-06T08:46:40Z</time></trkpt><trkpt lat="39.439277955717095" lon="16.848681468947778"><ele>617.0</ele><time>2026-04-06T08:46:41Z</time></trkpt><trkpt lat="39.439298505910514" lon="16.84884225002024"><ele>611.25</ele><time>2026-04-06T08:46:42Z</time></trkpt><trkpt lat="39.43934870667159" lon="16.848980031386763"><ele>605.5</ele><time>2026-04-06T08:46:43Z</time></trkpt><trkpt lat="39.439414531770325" lon="16.849101177811402"><ele>599.75</ele><time>2026-04-06T08:46:44Z</time></trkpt><trkpt lat="39.43948987547106" lon="16.849224580752598"><ele>594.0</ele><time>2026-04-06T08:46:45Z</time></trkpt><trkpt lat="39.43954366710077" lon="16.84936949514644"><ele>596.25</ele><time>2026-04-06T08:46:46Z</time></trkpt><trkpt lat="39.439617196151765" lon="16.849497746551382"><ele>598.5</ele><time>2026-04-06T08:46:47Z</time></trkpt><trkpt lat="39.43967956175389" lon="16.849627489123826"><ele>600.75</ele><time>2026-04-06T08:46:48Z</time></trkpt><trkpt lat="39.43976060353191" lon="16.8497396883344"><ele>603.0</ele><time>2026-04-06T08:46:49Z</time></trkpt><trkpt lat="39.43985450749182" lon="16.849823204697234"><ele>603.0</ele><time>2026-04-06T08:46:50Z</time></trkpt><trkpt lat="39.43997025458277" lon="16.849872270245307"><ele>603.0</ele><time>2026-04-06T08:46:51Z</time></trkpt><trkpt lat="39.440070140885766" lon="16.849933766369453"><ele>603.0</ele><time>2026-04-06T08:46:52Z</time></trkpt><trkpt lat="39.440184930727376" lon="16.84996428224794"><ele>603.0</ele><time>2026-04-06T08:46:53Z</time></trkpt><trkpt lat="39.44029670170222" lon="16.85002657813948"><ele>603.0</ele><time>2026-04-06T08:46:54Z</time></trkpt><trkpt lat="39.44040568308584" lon="16.850106562853423"><ele>603.0</ele><time>2026-04-06T08:46:55Z</time></trkpt><trkpt lat="39.4405204075088" lon="16.850181811971712"><ele>603.0</ele><time>2026-04-06T08:46:56Z</time></trkpt><trkpt lat="39.44063305991359" lon="16.85026512822255"><ele>603.0</ele><time>2026-04-06T08:46:56.999Z</time></trkpt><trkpt lat="39.44076861448533" lon="16.850292592761996"><ele>602.5</ele><time>2026-04-06T08:46:57.999Z</time></trkpt><trkpt lat="39.44089660323219" lon="16.85033162479212"><ele>602.0</ele><time>2026-04-06T08:46:58.999Z</time></trkpt><trkpt lat="39.44101760786017" lon="16.85037284753205"><ele>601.5</ele><time>2026-04-06T08:46:59.999Z</time></trkpt><trkpt lat="39.4411463346746" lon="16.850439897772283"><ele>601.0</ele><time>2026-04-06T08:47:00.999Z</time></trkpt><trkpt lat="39.44126736577046" lon="16.850533698141636"><ele>601.0</ele><time>2026-04-06T08:47:01.999Z</time></trkpt><trkpt lat="39.441385005570375" lon="16.850639569502377"><ele>601.0</ele><time>2026-04-06T08:47:02.999Z</time></trkpt><trkpt lat="39.4415021820988" lon="16.850752333436535"><ele>601.0</ele><time>2026-04-06T08:47:03.999Z</time></trkpt><trkpt lat="39.44162154380094" lon="16.85087439341819"><ele>601.0</ele><time>2026-04-06T08:47:04.999Z</time></trkpt><trkpt lat="39.441721153488984" lon="16.851022393057583"><ele>601.0</ele><time>2026-04-06T08:47:05.999Z</time></trkpt><trkpt lat="39.44182238712937" lon="16.851156948112997"><ele>601.0</ele><time>2026-04-06T08:47:06.999Z</time></trkpt><trkpt lat="39.441931733425484" lon="16.8512681917038"><ele>601.0</ele><time>2026-04-06T08:47:07.999Z</time></trkpt><trkpt lat="39.44202812869212" lon="16.85139620275013"><ele>601.0</ele><time>2026-04-06T08:47:08.999Z</time></trkpt><trkpt lat="39.44214006603533" lon="16.851496784745702"><ele>605.5</ele><time>2026-04-06T08:47:09.999Z</time></trkpt><trkpt lat="39.442263113154425" lon="16.85156973224866"><ele>610.0</ele><time>2026-04-06T08:47:10.999Z</time></trkpt><trkpt lat="39.44238623935762" lon="16.85162680398512"><ele>614.5</ele><time>2026-04-06T08:47:11.999Z</time></trkpt><trkpt lat="39.44252185420845" lon="16.851657105298358"><ele>619.0</ele><time>2026-04-06T08:47:12.999Z</time></trkpt><trkpt lat="39.44266875010474" lon="16.85165860073194"><ele>619.0</ele><time>2026-04-06T08:47:13.999Z</time></trkpt><trkpt lat="39.44281855033945" lon="16.851649195633595"><ele>619.0</ele><time>2026-04-06T08:47:14.999Z</time></trkpt><trkpt lat="39.44295540468505" lon="16.851648445175854"><ele>619.0</ele><time>2026-04-06T08:47:15.999Z</time></trkpt><trkpt lat="39.44307798391198" lon="16.851640418545486"><ele>619.0</ele><time>2026-04-06T08:47:16.999Z</time></trkpt><trkpt lat="39.44321027786689" lon="16.851613315393593"><ele>620.25</ele><time>2026-04-06T08:47:17.999Z</time></trkpt><trkpt lat="39.44334495772534" lon="16.85155206224933"><ele>621.5</ele><time>2026-04-06T08:47:18.999Z</time></trkpt><trkpt lat="39.4434738844461" lon="16.85148463126093"><ele>622.75</ele><time>2026-04-06T08:47:19.999Z</time></trkpt><trkpt lat="39.443577573371094" lon="16.851430451009104"><ele>624.0</ele><time>2026-04-06T08:47:20.999Z</time></trkpt><trkpt lat="39.44365493716425" lon="16.851380194418773"><ele>624.0</ele><time>2026-04-06T08:47:21.999Z</time></trkpt><trkpt lat="39.44372239936089" lon="16.851311051319804"><ele>624.0</ele><time>2026-04-06T08:47:22.999Z</time></trkpt><trkpt lat="39.44377502666018" lon="16.851208634856018"><ele>624.0</ele><time>2026-04-06T08:47:23.999Z</time></trkpt><trkpt lat="39.443802196202554" lon="16.85108267240544"><ele>624.0</ele><time>2026-04-06T08:47:24.999Z</time></trkpt><trkpt lat="39.44380087325561" lon="16.85094713152395"><ele>624.0</ele><time>2026-04-06T08:47:25.999Z</time></trkpt><trkpt lat="39.4437637862709" lon="16.850809361673107"><ele>625.2</ele><time>2026-04-06T08:47:26.999Z</time></trkpt><trkpt lat="39.443691576359775" lon="16.850693874536287"><ele>626.4</ele><time>2026-04-06T08:47:27.999Z</time></trkpt><trkpt lat="39.443601187336355" lon="16.850618074717428"><ele>627.6</ele><time>2026-04-06T08:47:28.999Z</time></trkpt><trkpt lat="39.44350686951702" lon="16.850597118334317"><ele>628.8</ele><time>2026-04-06T08:47:29.999Z</time></trkpt><trkpt lat="39.44339708330413" lon="16.850611377408043"><ele>630.0</ele><time>2026-04-06T08:47:30.999Z</time></trkpt><trkpt lat="39.44328176932469" lon="16.850665533250126"><ele>630.0</ele><time>2026-04-06T08:47:31.999Z</time></trkpt><trkpt lat="39.44316627382718" lon="16.850750026932893"><ele>630.0</ele><time>2026-04-06T08:47:32.999Z</time></trkpt><trkpt lat="39.44304554098129" lon="16.850835878397202"><ele>630.0</ele><time>2026-04-06T08:47:33.999Z</time></trkpt><trkpt lat="39.44293078340491" lon="16.850902706993555"><ele>630.0</ele><time>2026-04-06T08:47:34.999Z</time></trkpt><trkpt lat="39.44282038874719" lon="16.850964865851235"><ele>627.8</ele><time>2026-04-06T08:47:35.999Z</time></trkpt><trkpt lat="39.44271192917281" lon="16.851024923633986"><ele>625.6</ele><time>2026-04-06T08:47:36.999Z</time></trkpt><trkpt lat="39.442602800233075" lon="16.85105946612339"><ele>623.4</ele><time>2026-04-06T08:47:37.999Z</time></trkpt><trkpt lat="39.442500230580954" lon="16.851084688890058"><ele>621.2</ele><time>2026-04-06T08:47:38.999Z</time></trkpt><trkpt lat="39.4423987232829" lon="16.851079848934894"><ele>619.0</ele><time>2026-04-06T08:47:39.999Z</time></trkpt><trkpt lat="39.44231791900102" lon="16.851016049441284"><ele>621.8</ele><time>2026-04-06T08:47:40.999Z</time></trkpt><trkpt lat="39.442282151572336" lon="16.85091885002763"><ele>624.5999999999999</ele><time>2026-04-06T08:47:41.999Z</time></trkpt><trkpt lat="39.44225080205139" lon="16.85080325097738"><ele>627.4</ele><time>2026-04-06T08:47:42.999Z</time></trkpt><trkpt lat="39.442244081727516" lon="16.85067963952023"><ele>630.1999999999999</ele><time>2026-04-06T08:47:43.999Z</time></trkpt><trkpt lat="39.44227595561968" lon="16.85056870307464"><ele>633.0</ele><time>2026-04-06T08:47:44.999Z</time></trkpt><trkpt lat="39.44232073166573" lon="16.850470019122074"><ele>633.0</ele><time>2026-04-06T08:47:45.999Z</time></trkpt><trkpt lat="39.44239182638222" lon="16.850414443354246"><ele>633.0</ele><time>2026-04-06T08:47:46.999Z</time></trkpt><trkpt lat="39.442468425128304" lon="16.85038815922066"><ele>633.0</ele><time>2026-04-06T08:47:47.999Z</time></trkpt><trkpt lat="39.442544828659855" lon="16.85038724554464"><ele>633.0</ele><time>2026-04-06T08:47:48.999Z</time></trkpt><trkpt lat="39.44264594543153" lon="16.850367848072356"><ele>633.0</ele><time>2026-04-06T08:47:49.999Z</time></trkpt><trkpt lat="39.44275797428817" lon="16.8503276573967"><ele>633.0</ele><time>2026-04-06T08:47:50.999Z</time></trkpt><trkpt lat="39.44288076957905" lon="16.85028571878927"><ele>633.0</ele><time>2026-04-06T08:47:51.999Z</time></trkpt><trkpt lat="39.44299628302938" lon="16.850206301675694"><ele>633.0</ele><time>2026-04-06T08:47:52.999Z</time></trkpt><trkpt lat="39.44310420351676" lon="16.850102059929277"><ele>633.0</ele><time>2026-04-06T08:47:53.999Z</time></trkpt><trkpt lat="39.44320840998357" lon="16.849967123508943"><ele>636.6666666666666</ele><time>2026-04-06T08:47:54.999Z</time></trkpt><trkpt lat="39.443301935597155" lon="16.849799651180774"><ele>640.3333333333333</ele><time>2026-04-06T08:47:55.999Z</time></trkpt><trkpt lat="39.443381553655826" lon="16.84962034910126"><ele>644.0</ele><time>2026-04-06T08:47:56.999Z</time></trkpt><trkpt lat="39.443457577704876" lon="16.849438736047606"><ele>648.3333333333333</ele><time>2026-04-06T08:47:57.999Z</time></trkpt><trkpt lat="39.44354490844592" lon="16.84926918212206"><ele>652.6666666666666</ele><time>2026-04-06T08:47:59Z</time></trkpt><trkpt lat="39.44362991581814" lon="16.849112183328213"><ele>657.0</ele><time>2026-04-06T08:48:00Z</time></trkpt><trkpt lat="39.443709162315756" lon="16.848951123179194"><ele>657.0</ele><time>2026-04-06T08:48:01Z</time></trkpt><trkpt lat="39.44377559359452" lon="16.848770497331934"><ele>657.0</ele><time>2026-04-06T08:48:02Z</time></trkpt><trkpt lat="39.44382122637622" lon="16.848573632326797"><ele>657.0</ele><time>2026-04-06T08:48:03Z</time></trkpt><trkpt lat="39.44386398663183" lon="16.848391417484084"><ele>655.5</ele><time>2026-04-06T08:48:04Z</time></trkpt><trkpt lat="39.44391074117876" lon="16.848219461330395"><ele>654.0</ele><time>2026-04-06T08:48:05Z</time></trkpt><trkpt lat="39.44397004722842" lon="16.848056327212745"><ele>652.5</ele><time>2026-04-06T08:48:06Z</time></trkpt><trkpt lat="39.44407263944308" lon="16.8479146529065"><ele>651.0</ele><time>2026-04-06T08:48:07Z</time></trkpt><trkpt lat="39.44417734067376" lon="16.847766147343876"><ele>656.0</ele><time>2026-04-06T08:48:08Z</time></trkpt><trkpt lat="39.44427845410964" lon="16.84760063117845"><ele>661.0</ele><time>2026-04-06T08:48:09Z</time></trkpt><trkpt lat="39.44437883450074" lon="16.847426260813922"><ele>666.0</ele><time>2026-04-06T08:48:10Z</time></trkpt><trkpt lat="39.44445588788695" lon="16.847262186866313"><ele>666.0</ele><time>2026-04-06T08:48:11Z</time></trkpt><trkpt lat="39.444531215224224" lon="16.84709976095687"><ele>666.0</ele><time>2026-04-06T08:48:12Z</time></trkpt><trkpt lat="39.44459913866149" lon="16.846932330820803"><ele>666.0</ele><time>2026-04-06T08:48:13Z</time></trkpt><trkpt lat="39.4446712188062" lon="16.84676984167902"><ele>666.0</ele><time>2026-04-06T08:48:14Z</time></trkpt><trkpt lat="39.444755193806564" lon="16.846613133979854"><ele>665.25</ele><time>2026-04-06T08:48:15Z</time></trkpt><trkpt lat="39.44484084364303" lon="16.846458583488797"><ele>664.5</ele><time>2026-04-06T08:48:16Z</time></trkpt><trkpt lat="39.44492348782089" lon="16.846301986666052"><ele>663.75</ele><time>2026-04-06T08:48:17Z</time></trkpt><trkpt lat="39.44499096096448" lon="16.846137953394955"><ele>663.0</ele><time>2026-04-06T08:48:18Z</time></trkpt><trkpt lat="39.4450331996796" lon="16.845960594168144"><ele>665.0</ele><time>2026-04-06T08:48:19Z</time></trkpt><trkpt lat="39.44505295077754" lon="16.84577692359578"><ele>667.0</ele><time>2026-04-06T08:48:20Z</time></trkpt><trkpt lat="39.44506232627901" lon="16.84560226098725"><ele>669.0</ele><time>2026-04-06T08:48:21Z</time></trkpt><trkpt lat="39.44507669458387" lon="16.845431365879723"><ele>671.0</ele><time>2026-04-06T08:48:22Z</time></trkpt><trkpt lat="39.44510500871784" lon="16.845266580416396"><ele>672.0</ele><time>2026-04-06T08:48:23Z</time></trkpt><trkpt lat="39.44515179871134" lon="16.845109075307487"><ele>673.0</ele><time>2026-04-06T08:48:24Z</time></trkpt><trkpt lat="39.445218800456296" lon="16.844978153881364"><ele>674.0</ele><time>2026-04-06T08:48:25Z</time></trkpt><trkpt lat="39.44530602213592" lon="16.84489096059948"><ele>675.0</ele><time>2026-04-06T08:48:26Z</time></trkpt><trkpt lat="39.445378891389836" lon="16.844808085413884"><ele>671.75</ele><time>2026-04-06T08:48:27Z</time></trkpt><trkpt lat="39.44547069649848" lon="16.84472928033745"><ele>668.5</ele><time>2026-04-06T08:48:28Z</time></trkpt><trkpt lat="39.44559376922741" lon="16.844662624340973"><ele>665.25</ele><time>2026-04-06T08:48:29Z</time></trkpt><trkpt lat="39.44573611072415" lon="16.84459379927149"><ele>662.0</ele><time>2026-04-06T08:48:30Z</time></trkpt><trkpt lat="39.445865252114686" lon="16.844514336199833"><ele>662.0</ele><time>2026-04-06T08:48:31Z</time></trkpt><trkpt lat="39.44598561032193" lon="16.84444981606528"><ele>662.0</ele><time>2026-04-06T08:48:32Z</time></trkpt><trkpt lat="39.44609139142666" lon="16.844371650292853"><ele>662.0</ele><time>2026-04-06T08:48:33Z</time></trkpt><trkpt lat="39.44618914081446" lon="16.84427766674479"><ele>662.0</ele><time>2026-04-06T08:48:34Z</time></trkpt><trkpt lat="39.44627619492124" lon="16.844162812930502"><ele>664.0</ele><time>2026-04-06T08:48:35Z</time></trkpt><trkpt lat="39.44634473900873" lon="16.84402806383217"><ele>666.0</ele><time>2026-04-06T08:48:36Z</time></trkpt><trkpt lat="39.44639461246546" lon="16.84387371374269"><ele>668.0</ele><time>2026-04-06T08:48:37Z</time></trkpt><trkpt lat="39.446429345542974" lon="16.843710194842586"><ele>670.0</ele><time>2026-04-06T08:48:38Z</time></trkpt><trkpt lat="39.446450395942186" lon="16.84353115703586"><ele>671.0</ele><time>2026-04-06T08:48:39Z</time></trkpt><trkpt lat="39.44645614028154" lon="16.84334015796762"><ele>672.0</ele><time>2026-04-06T08:48:40Z</time></trkpt><trkpt lat="39.44643796774004" lon="16.843134892470385"><ele>673.0</ele><time>2026-04-06T08:48:41Z</time></trkpt><trkpt lat="39.446414804336406" lon="16.84293446153335"><ele>673.0</ele><time>2026-04-06T08:48:42Z</time></trkpt><trkpt lat="39.44640162366593" lon="16.842753448864187"><ele>673.0</ele><time>2026-04-06T08:48:43Z</time></trkpt><trkpt lat="39.44638793694679" lon="16.842598430399892"><ele>673.0</ele><time>2026-04-06T08:48:44Z</time></trkpt><trkpt lat="39.4463735526109" lon="16.842457141152032"><ele>673.0</ele><time>2026-04-06T08:48:45Z</time></trkpt><trkpt lat="39.44637254289892" lon="16.84232204621351"><ele>674.0</ele><time>2026-04-06T08:48:46Z</time></trkpt><trkpt lat="39.446410247569354" lon="16.842204146038217"><ele>675.0</ele><time>2026-04-06T08:48:47Z</time></trkpt><trkpt lat="39.44643700783569" lon="16.842106178860746"><ele>676.0</ele><time>2026-04-06T08:48:48Z</time></trkpt><trkpt lat="39.44651537402738" lon="16.842059259144694"><ele>677.0</ele><time>2026-04-06T08:48:49Z</time></trkpt><trkpt lat="39.44660513382875" lon="16.842045810844755"><ele>678.0</ele><time>2026-04-06T08:48:50Z</time></trkpt><trkpt lat="39.44670818009198" lon="16.842035313095813"><ele>678.0</ele><time>2026-04-06T08:48:51Z</time></trkpt><trkpt lat="39.44681657444178" lon="16.842033604804122"><ele>678.0</ele><time>2026-04-06T08:48:52Z</time></trkpt><trkpt lat="39.44689793507624" lon="16.842120252121912"><ele>678.0</ele><time>2026-04-06T08:48:53Z</time></trkpt><trkpt lat="39.446966688936136" lon="16.842203625955026"><ele>678.0</ele><time>2026-04-06T08:48:54Z</time></trkpt><trkpt lat="39.44703368234503" lon="16.84230849223397"><ele>678.0</ele><time>2026-04-06T08:48:54.999Z</time></trkpt><trkpt lat="39.447073826342965" lon="16.842447579856486"><ele>678.0</ele><time>2026-04-06T08:48:55.999Z</time></trkpt><trkpt lat="39.447107020363354" lon="16.842593814865772"><ele>678.0</ele><time>2026-04-06T08:48:56.999Z</time></trkpt><trkpt lat="39.44717914469861" lon="16.8426997050002"><ele>678.0</ele><time>2026-04-06T08:48:57.999Z</time></trkpt><trkpt lat="39.447269184787906" lon="16.84278146600218"><ele>678.0</ele><time>2026-04-06T08:48:58.999Z</time></trkpt><trkpt lat="39.447381646049244" lon="16.84284271245844"><ele>674.75</ele><time>2026-04-06T08:48:59.999Z</time></trkpt><trkpt lat="39.447501275216695" lon="16.842876495081292"><ele>671.5</ele><time>2026-04-06T08:49:00.999Z</time></trkpt><trkpt lat="39.447627032402345" lon="16.842859572347677"><ele>668.25</ele><time>2026-04-06T08:49:01.999Z</time></trkpt><trkpt lat="39.447751526010535" lon="16.842829425463275"><ele>665.0</ele><time>2026-04-06T08:49:02.999Z</time></trkpt><trkpt lat="39.44786583327184" lon="16.842862422977415"><ele>666.5</ele><time>2026-04-06T08:49:03.999Z</time></trkpt><trkpt lat="39.44796303923435" lon="16.842902480459276"><ele>668.0</ele><time>2026-04-06T08:49:04.999Z</time></trkpt><trkpt lat="39.44805394946395" lon="16.842986899888164"><ele>669.5</ele><time>2026-04-06T08:49:05.999Z</time></trkpt><trkpt lat="39.44815658403332" lon="16.843099304758425"><ele>671.0</ele><time>2026-04-06T08:49:06.999Z</time></trkpt><trkpt lat="39.44826853133072" lon="16.843191642586273"><ele>671.0</ele><time>2026-04-06T08:49:07.999Z</time></trkpt><trkpt lat="39.448365223685" lon="16.843279894542494"><ele>671.0</ele><time>2026-04-06T08:49:08.999Z</time></trkpt><trkpt lat="39.44847179133622" lon="16.843323625643315"><ele>671.0</ele><time>2026-04-06T08:49:09.999Z</time></trkpt><trkpt lat="39.44858682327686" lon="16.843341138055003"><ele>671.0</ele><time>2026-04-06T08:49:10.999Z</time></trkpt><trkpt lat="39.44870970223524" lon="16.843339142717596"><ele>669.75</ele><time>2026-04-06T08:49:11.999Z</time></trkpt><trkpt lat="39.44883577280511" lon="16.843299226643044"><ele>668.5</ele><time>2026-04-06T08:49:12.999Z</time></trkpt><trkpt lat="39.4489589767311" lon="16.84322727815484"><ele>667.25</ele><time>2026-04-06T08:49:13.999Z</time></trkpt><trkpt lat="39.44907656481991" lon="16.84312129330106"><ele>666.0</ele><time>2026-04-06T08:49:14.999Z</time></trkpt><trkpt lat="39.449193451278646" lon="16.84299884054852"><ele>666.0</ele><time>2026-04-06T08:49:15.999Z</time></trkpt><trkpt lat="39.449316935968724" lon="16.842873896464546"><ele>666.0</ele><time>2026-04-06T08:49:16.999Z</time></trkpt><trkpt lat="39.44943212774232" lon="16.84276324707178"><ele>666.0</ele><time>2026-04-06T08:49:17.999Z</time></trkpt><trkpt lat="39.44954143495812" lon="16.842650873640334"><ele>666.0</ele><time>2026-04-06T08:49:18.999Z</time></trkpt><trkpt lat="39.449654206485064" lon="16.84253830298595"><ele>665.25</ele><time>2026-04-06T08:49:19.999Z</time></trkpt><trkpt lat="39.44976110724282" lon="16.842421160047518"><ele>664.5</ele><time>2026-04-06T08:49:20.999Z</time></trkpt><trkpt lat="39.449864236728544" lon="16.842300647733712"><ele>663.75</ele><time>2026-04-06T08:49:21.999Z</time></trkpt><trkpt lat="39.449952043495074" lon="16.842183350316"><ele>663.0</ele><time>2026-04-06T08:49:22.999Z</time></trkpt><trkpt lat="39.450029230526596" lon="16.84205722165487"><ele>663.0</ele><time>2026-04-06T08:49:23.999Z</time></trkpt><trkpt lat="39.450087788362396" lon="16.841902606790452"><ele>663.0</ele><time>2026-04-06T08:49:24.999Z</time></trkpt><trkpt lat="39.45012426785424" lon="16.841726149014548"><ele>663.0</ele><time>2026-04-06T08:49:25.999Z</time></trkpt><trkpt lat="39.45012970554589" lon="16.841554408868387"><ele>663.0</ele><time>2026-04-06T08:49:26.999Z</time></trkpt><trkpt lat="39.450105251017334" lon="16.84139844287285"><ele>663.3333333333334</ele><time>2026-04-06T08:49:27.999Z</time></trkpt><trkpt lat="39.45007914321183" lon="16.841254817183906"><ele>663.6666666666666</ele><time>2026-04-06T08:49:28.999Z</time></trkpt><trkpt lat="39.45006690972585" lon="16.841147535246"><ele>664.0</ele><time>2026-04-06T08:49:29.999Z</time></trkpt><trkpt lat="39.45007655312177" lon="16.841061509330295"><ele>664.3333333333333</ele><time>2026-04-06T08:49:30.999Z</time></trkpt><trkpt lat="39.45012304859128" lon="16.84098999327841"><ele>664.6666666666666</ele><time>2026-04-06T08:49:31.999Z</time></trkpt><trkpt lat="39.45020945708379" lon="16.84096924421751"><ele>665.0</ele><time>2026-04-06T08:49:32.999Z</time></trkpt><trkpt lat="39.45028489359611" lon="16.840915577248737"><ele>665.0</ele><time>2026-04-06T08:49:33.999Z</time></trkpt><trkpt lat="39.450371957754264" lon="16.840853509088735"><ele>665.0</ele><time>2026-04-06T08:49:34.999Z</time></trkpt><trkpt lat="39.4504515584461" lon="16.840781653786774"><ele>665.0</ele><time>2026-04-06T08:49:35.999Z</time></trkpt><trkpt lat="39.450534476273695" lon="16.840758245469132"><ele>665.0</ele><time>2026-04-06T08:49:36.999Z</time></trkpt><trkpt lat="39.450605905066205" lon="16.840770532484115"><ele>665.0</ele><time>2026-04-06T08:49:37.999Z</time></trkpt><trkpt lat="39.450662906128684" lon="16.840861269914523"><ele>665.0</ele><time>2026-04-06T08:49:38.999Z</time></trkpt><trkpt lat="39.45074559173571" lon="16.840937937834394"><ele>661.0</ele><time>2026-04-06T08:49:39.999Z</time></trkpt><trkpt lat="39.450854361074946" lon="16.84101575627037"><ele>657.0</ele><time>2026-04-06T08:49:40.999Z</time></trkpt><trkpt lat="39.450973957197455" lon="16.841103954954292"><ele>653.0</ele><time>2026-04-06T08:49:41.999Z</time></trkpt><trkpt lat="39.45111943472315" lon="16.84116310125749"><ele>649.0</ele><time>2026-04-06T08:49:42.999Z</time></trkpt><trkpt lat="39.45126901196992" lon="16.841207051881447"><ele>651.5</ele><time>2026-04-06T08:49:43.999Z</time></trkpt><trkpt lat="39.4514188463168" lon="16.841242977108944"><ele>654.0</ele><time>2026-04-06T08:49:44.999Z</time></trkpt><trkpt lat="39.451552947363076" lon="16.841321522167036"><ele>656.5</ele><time>2026-04-06T08:49:45.999Z</time></trkpt><trkpt lat="39.45167027469423" lon="16.84139731960332"><ele>659.0</ele><time>2026-04-06T08:49:46.999Z</time></trkpt><trkpt lat="39.45178638719295" lon="16.841472472540957"><ele>659.0</ele><time>2026-04-06T08:49:47.999Z</time></trkpt><trkpt lat="39.45189720388648" lon="16.841516171566965"><ele>659.0</ele><time>2026-04-06T08:49:48.999Z</time></trkpt><trkpt lat="39.45199632987772" lon="16.84154515210442"><ele>659.0</ele><time>2026-04-06T08:49:49.999Z</time></trkpt><trkpt lat="39.45210215294664" lon="16.841536463840214"><ele>659.0</ele><time>2026-04-06T08:49:50.999Z</time></trkpt><trkpt lat="39.45220605690546" lon="16.84149628316421"><ele>659.0</ele><time>2026-04-06T08:49:51.999Z</time></trkpt><trkpt lat="39.45230388446578" lon="16.841421367645676"><ele>658.5</ele><time>2026-04-06T08:49:52.999Z</time></trkpt><trkpt lat="39.452389068936874" lon="16.84132049691541"><ele>658.0</ele><time>2026-04-06T08:49:53.999Z</time></trkpt><trkpt lat="39.45245979996336" lon="16.84118698127214"><ele>657.5</ele><time>2026-04-06T08:49:54.999Z</time></trkpt><trkpt lat="39.45251780205399" lon="16.841032048067685"><ele>657.0</ele><time>2026-04-06T08:49:55.999Z</time></trkpt><trkpt lat="39.45256673189666" lon="16.840872240737557"><ele>660.75</ele><time>2026-04-06T08:49:56.999Z</time></trkpt><trkpt lat="39.4525968698731" lon="16.84071138999427"><ele>664.5</ele><time>2026-04-06T08:49:57.999Z</time></trkpt><trkpt lat="39.452600882389966" lon="16.840548914978243"><ele>668.25</ele><time>2026-04-06T08:49:58.999Z</time></trkpt><trkpt lat="39.4525772596503" lon="16.84038144552214"><ele>672.0</ele><time>2026-04-06T08:49:59.999Z</time></trkpt><trkpt lat="39.452547613443606" lon="16.84022267720983"><ele>672.0</ele><time>2026-04-06T08:50:00.999Z</time></trkpt><trkpt lat="39.45250789960243" lon="16.840084990425744"><ele>672.0</ele><time>2026-04-06T08:50:01.999Z</time></trkpt><trkpt lat="39.45244757975332" lon="16.839965683479363"><ele>672.0</ele><time>2026-04-06T08:50:02.999Z</time></trkpt><trkpt lat="39.45235834762202" lon="16.83986359622319"><ele>672.0</ele><time>2026-04-06T08:50:03.999Z</time></trkpt><trkpt lat="39.45224579860462" lon="16.83977809488682"><ele>675.75</ele><time>2026-04-06T08:50:05Z</time></trkpt><trkpt lat="39.45211712414094" lon="16.839704426797347"><ele>679.5</ele><time>2026-04-06T08:50:06Z</time></trkpt><trkpt lat="39.451980084778306" lon="16.839633827417547"><ele>683.25</ele><time>2026-04-06T08:50:07Z</time></trkpt><trkpt lat="39.45184363522751" lon="16.83956915625537"><ele>687.0</ele><time>2026-04-06T08:50:08Z</time></trkpt><trkpt lat="39.45171252080038" lon="16.839505303083012"><ele>687.0</ele><time>2026-04-06T08:50:09Z</time></trkpt><trkpt lat="39.45160010450326" lon="16.839444623377258"><ele>687.0</ele><time>2026-04-06T08:50:10Z</time></trkpt><trkpt lat="39.451486547095435" lon="16.839391524777106"><ele>687.0</ele><time>2026-04-06T08:50:11Z</time></trkpt><trkpt lat="39.45137807638002" lon="16.83933409187378"><ele>687.0</ele><time>2026-04-06T08:50:12Z</time></trkpt><trkpt lat="39.45127908515997" lon="16.839268947096347"><ele>688.8</ele><time>2026-04-06T08:50:13Z</time></trkpt><trkpt lat="39.451191821267805" lon="16.839185075737003"><ele>690.6</ele><time>2026-04-06T08:50:14Z</time></trkpt><trkpt lat="39.45111705905755" lon="16.83908142677115"><ele>692.4</ele><time>2026-04-06T08:50:15Z</time></trkpt><trkpt lat="39.45107063708505" lon="16.83896401948091"><ele>694.1999999999999</ele><time>2026-04-06T08:50:16Z</time></trkpt><trkpt lat="39.45104725472968" lon="16.83882836601288"><ele>696.0</ele><time>2026-04-06T08:50:17Z</time></trkpt><trkpt lat="39.45105539005793" lon="16.838688228919544"><ele>696.0</ele><time>2026-04-06T08:50:18Z</time></trkpt><trkpt lat="39.45109498708941" lon="16.838566637087133"><ele>696.0</ele><time>2026-04-06T08:50:19Z</time></trkpt><trkpt lat="39.45116635246331" lon="16.838469186072995"><ele>696.0</ele><time>2026-04-06T08:50:20Z</time></trkpt><trkpt lat="39.45124773819813" lon="16.83837721723973"><ele>696.0</ele><time>2026-04-06T08:50:21Z</time></trkpt><trkpt lat="39.451361509800634" lon="16.838298193426816"><ele>696.0</ele><time>2026-04-06T08:50:22Z</time></trkpt><trkpt lat="39.451495211159894" lon="16.838206021442357"><ele>693.5</ele><time>2026-04-06T08:50:23Z</time></trkpt><trkpt lat="39.45160997295934" lon="16.83808943456928"><ele>691.0</ele><time>2026-04-06T08:50:24Z</time></trkpt><trkpt lat="39.451712640868934" lon="16.83795745096202"><ele>688.5</ele><time>2026-04-06T08:50:25Z</time></trkpt><trkpt lat="39.451772094378356" lon="16.83781517654336"><ele>686.0</ele><time>2026-04-06T08:50:26Z</time></trkpt><trkpt lat="39.45179589001842" lon="16.83765963924007"><ele>686.1999999999999</ele><time>2026-04-06T08:50:27Z</time></trkpt><trkpt lat="39.45180991158556" lon="16.83751624595091"><ele>686.4</ele><time>2026-04-06T08:50:28Z</time></trkpt><trkpt lat="39.45186277785542" lon="16.837409485386313"><ele>686.6</ele><time>2026-04-06T08:50:29Z</time></trkpt><trkpt lat="39.451947729190614" lon="16.83733613065272"><ele>686.8</ele><time>2026-04-06T08:50:30Z</time></trkpt><trkpt lat="39.45204618389626" lon="16.837275583868905"><ele>687.0</ele><time>2026-04-06T08:50:31Z</time></trkpt><trkpt lat="39.452155804424635" lon="16.837275524381642"><ele>687.0</ele><time>2026-04-06T08:50:32Z</time></trkpt><trkpt lat="39.4522658939445" lon="16.837300906514994"><ele>687.0</ele><time>2026-04-06T08:50:33Z</time></trkpt><trkpt lat="39.45236425374836" lon="16.83737168633175"><ele>687.0</ele><time>2026-04-06T08:50:34Z</time></trkpt><trkpt lat="39.45247685469642" lon="16.83744064173809"><ele>687.0</ele><time>2026-04-06T08:50:35Z</time></trkpt><trkpt lat="39.452600501194766" lon="16.837498766043197"><ele>687.0</ele><time>2026-04-06T08:50:36Z</time></trkpt><trkpt lat="39.452729411044466" lon="16.83753633277516"><ele>687.0</ele><time>2026-04-06T08:50:37Z</time></trkpt><trkpt lat="39.45285303696981" lon="16.837558823653506"><ele>687.0</ele><time>2026-04-06T08:50:38Z</time></trkpt><trkpt lat="39.45298873512657" lon="16.837556329844936"><ele>687.0</ele><time>2026-04-06T08:50:39Z</time></trkpt><trkpt lat="39.453129433310686" lon="16.83752444351636"><ele>685.5</ele><time>2026-04-06T08:50:40Z</time></trkpt><trkpt lat="39.453275162805085" lon="16.837491406324894"><ele>684.0</ele><time>2026-04-06T08:50:41Z</time></trkpt><trkpt lat="39.45340494102102" lon="16.837452192878242"><ele>682.5</ele><time>2026-04-06T08:50:42Z</time></trkpt><trkpt lat="39.45352727811389" lon="16.837391463709604"><ele>681.0</ele><time>2026-04-06T08:50:43Z</time></trkpt><trkpt lat="39.45365370899122" lon="16.837296101022254"><ele>681.0</ele><time>2026-04-06T08:50:44Z</time></trkpt><trkpt lat="39.45378201659293" lon="16.83717772754793"><ele>681.0</ele><time>2026-04-06T08:50:45Z</time></trkpt><trkpt lat="39.45389713565379" lon="16.83704084155417"><ele>681.0</ele><time>2026-04-06T08:50:46Z</time></trkpt><trkpt lat="39.45400456809322" lon="16.836903255796212"><ele>679.75</ele><time>2026-04-06T08:50:47Z</time></trkpt><trkpt lat="39.45410956187914" lon="16.836793390074003"><ele>678.5</ele><time>2026-04-06T08:50:48Z</time></trkpt><trkpt lat="39.454218506712316" lon="16.836696215569287"><ele>677.25</ele><time>2026-04-06T08:50:49Z</time></trkpt><trkpt lat="39.45434473710051" lon="16.836624541152148"><ele>676.0</ele><time>2026-04-06T08:50:50Z</time></trkpt><trkpt lat="39.45447987066604" lon="16.836561759590385"><ele>676.0</ele><time>2026-04-06T08:50:51Z</time></trkpt><trkpt lat="39.45461181099038" lon="16.836495344829572"><ele>676.0</ele><time>2026-04-06T08:50:52Z</time></trkpt><trkpt lat="39.45474768150529" lon="16.83644933834888"><ele>676.0</ele><time>2026-04-06T08:50:53Z</time></trkpt><trkpt lat="39.45487858696882" lon="16.83640128776218"><ele>676.0</ele><time>2026-04-06T08:50:54Z</time></trkpt><trkpt lat="39.45500600763916" lon="16.836348681951435"><ele>676.0</ele><time>2026-04-06T08:50:54.999Z</time></trkpt><trkpt lat="39.455133507048075" lon="16.836293012021084"><ele>676.0</ele><time>2026-04-06T08:50:55.999Z</time></trkpt><trkpt lat="39.455258174455814" lon="16.836246358539697"><ele>676.0</ele><time>2026-04-06T08:50:56.999Z</time></trkpt><trkpt lat="39.455376554188284" lon="16.83621506794449"><ele>676.0</ele><time>2026-04-06T08:50:57.999Z</time></trkpt><trkpt lat="39.455497473869904" lon="16.836204169687246"><ele>674.5</ele><time>2026-04-06T08:50:58.999Z</time></trkpt><trkpt lat="39.455634178453536" lon="16.836217919353544"><ele>673.0</ele><time>2026-04-06T08:50:59.999Z</time></trkpt><trkpt lat="39.45577724438446" lon="16.83624809216823"><ele>671.5</ele><time>2026-04-06T08:51:00.999Z</time></trkpt><trkpt lat="39.455924679323196" lon="16.836291161334465"><ele>670.0</ele><time>2026-04-06T08:51:01.999Z</time></trkpt><trkpt lat="39.45606691735939" lon="16.83632673811803"><ele>670.0</ele><time>2026-04-06T08:51:02.999Z</time></trkpt><trkpt lat="39.456195157659735" lon="16.83638728544303"><ele>670.0</ele><time>2026-04-06T08:51:03.999Z</time></trkpt><trkpt lat="39.456335035023486" lon="16.83641105641036"><ele>670.0</ele><time>2026-04-06T08:51:04.999Z</time></trkpt><trkpt lat="39.45647691616568" lon="16.836453908897983"><ele>670.0</ele><time>2026-04-06T08:51:05.999Z</time></trkpt><trkpt lat="39.456626337780925" lon="16.836472832818263"><ele>666.25</ele><time>2026-04-06T08:51:06.999Z</time></trkpt><trkpt lat="39.456777741576644" lon="16.836479185811182"><ele>662.5</ele><time>2026-04-06T08:51:07.999Z</time></trkpt><trkpt lat="39.45692320358759" lon="16.83647932740099"><ele>658.75</ele><time>2026-04-06T08:51:08.999Z</time></trkpt><trkpt lat="39.45705373207346" lon="16.836475514010075"><ele>655.0</ele><time>2026-04-06T08:51:09.999Z</time></trkpt><trkpt lat="39.45717384821676" lon="16.83646926441799"><ele>653.25</ele><time>2026-04-06T08:51:10.999Z</time></trkpt><trkpt lat="39.45728733037198" lon="16.836464891521626"><ele>651.5</ele><time>2026-04-06T08:51:11.999Z</time></trkpt><trkpt lat="39.4574015964919" lon="16.83644235630153"><ele>649.75</ele><time>2026-04-06T08:51:12.999Z</time></trkpt><trkpt lat="39.45751715240063" lon="16.836391133838347"><ele>648.0</ele><time>2026-04-06T08:51:13.999Z</time></trkpt><trkpt lat="39.457630203483646" lon="16.836328130021784"><ele>648.0</ele><time>2026-04-06T08:51:14.999Z</time></trkpt><trkpt lat="39.45773166465043" lon="16.836243842505883"><ele>648.0</ele><time>2026-04-06T08:51:15.999Z</time></trkpt><trkpt lat="39.45782275654297" lon="16.836135967816666"><ele>648.0</ele><time>2026-04-06T08:51:16.999Z</time></trkpt><trkpt lat="39.45791284503725" lon="16.8360056220005"><ele>648.0</ele><time>2026-04-06T08:51:17.999Z</time></trkpt><trkpt lat="39.45798411005364" lon="16.835862899022253"><ele>646.75</ele><time>2026-04-06T08:51:18.999Z</time></trkpt><trkpt lat="39.45804755124912" lon="16.835718892740847"><ele>645.5</ele><time>2026-04-06T08:51:19.999Z</time></trkpt><trkpt lat="39.458099501077896" lon="16.83556649816937"><ele>644.25</ele><time>2026-04-06T08:51:20.999Z</time></trkpt><trkpt lat="39.45814958939738" lon="16.835424826937682"><ele>643.0</ele><time>2026-04-06T08:51:21.999Z</time></trkpt><trkpt lat="39.458202509092544" lon="16.83529083211291"><ele>643.0</ele><time>2026-04-06T08:51:22.999Z</time></trkpt><trkpt lat="39.45825455596581" lon="16.835148968682503"><ele>643.0</ele><time>2026-04-06T08:51:23.999Z</time></trkpt><trkpt lat="39.45831703118604" lon="16.834995207199963"><ele>643.0</ele><time>2026-04-06T08:51:24.999Z</time></trkpt><trkpt lat="39.458391352568036" lon="16.83483934347138"><ele>643.0</ele><time>2026-04-06T08:51:25.999Z</time></trkpt><trkpt lat="39.4584766260219" lon="16.834682765431793"><ele>643.0</ele><time>2026-04-06T08:51:26.999Z</time></trkpt><trkpt lat="39.45856806135262" lon="16.834527799841435"><ele>643.0</ele><time>2026-04-06T08:51:27.999Z</time></trkpt><trkpt lat="39.458650947314275" lon="16.834383307836674"><ele>643.0</ele><time>2026-04-06T08:51:28.999Z</time></trkpt><trkpt lat="39.4587303382438" lon="16.834250804351772"><ele>643.0</ele><time>2026-04-06T08:51:29.999Z</time></trkpt><trkpt lat="39.45880552433097" lon="16.83412540495115"><ele>640.5</ele><time>2026-04-06T08:51:30.999Z</time></trkpt><trkpt lat="39.45889140594491" lon="16.83401682193521"><ele>638.0</ele><time>2026-04-06T08:51:31.999Z</time></trkpt><trkpt lat="39.45899610428671" lon="16.833919791710024"><ele>635.5</ele><time>2026-04-06T08:51:32.999Z</time></trkpt><trkpt lat="39.45912531523823" lon="16.833863020159146"><ele>633.0</ele><time>2026-04-06T08:51:33.999Z</time></trkpt><trkpt lat="39.45923957926165" lon="16.833797842867877"><ele>633.0</ele><time>2026-04-06T08:51:34.999Z</time></trkpt><trkpt lat="39.459359742684605" lon="16.833780659240755"><ele>633.0</ele><time>2026-04-06T08:51:35.999Z</time></trkpt><trkpt lat="39.45947804413327" lon="16.833803178050765"><ele>633.0</ele><time>2026-04-06T08:51:36.999Z</time></trkpt><trkpt lat="39.459600171415836" lon="16.83381047935396"><ele>633.0</ele><time>2026-04-06T08:51:37.999Z</time></trkpt><trkpt lat="39.45972089944854" lon="16.833857834706762"><ele>631.5</ele><time>2026-04-06T08:51:38.999Z</time></trkpt><trkpt lat="39.45982700316218" lon="16.833947937371455"><ele>630.0</ele><time>2026-04-06T08:51:39.999Z</time></trkpt><trkpt lat="39.45992096349356" lon="16.834038358793606"><ele>628.5</ele><time>2026-04-06T08:51:40.999Z</time></trkpt><trkpt lat="39.460011968469274" lon="16.83414740496692"><ele>627.0</ele><time>2026-04-06T08:51:41.999Z</time></trkpt><trkpt lat="39.460103762756496" lon="16.834270450701162"><ele>625.75</ele><time>2026-04-06T08:51:42.999Z</time></trkpt><trkpt lat="39.460201346029116" lon="16.83439944578602"><ele>624.5</ele><time>2026-04-06T08:51:43.999Z</time></trkpt><trkpt lat="39.46031222614435" lon="16.834512669753646"><ele>623.25</ele><time>2026-04-06T08:51:44.999Z</time></trkpt><trkpt lat="39.460403653882395" lon="16.8346334737434"><ele>622.0</ele><time>2026-04-06T08:51:45.999Z</time></trkpt><trkpt lat="39.46049018588206" lon="16.834749013440874"><ele>620.75</ele><time>2026-04-06T08:51:46.999Z</time></trkpt><trkpt lat="39.46058000511556" lon="16.83484155709235"><ele>619.5</ele><time>2026-04-06T08:51:47.999Z</time></trkpt><trkpt lat="39.46068394717846" lon="16.834916362327053"><ele>618.25</ele><time>2026-04-06T08:51:48.999Z</time></trkpt><trkpt lat="39.460800744981455" lon="16.834971286162833"><ele>617.0</ele><time>2026-04-06T08:51:49.999Z</time></trkpt><trkpt lat="39.46091941164185" lon="16.83500228056449"><ele>617.0</ele><time>2026-04-06T08:51:50.999Z</time></trkpt><trkpt lat="39.46104157121507" lon="16.83502002058595"><ele>617.0</ele><time>2026-04-06T08:51:51.999Z</time></trkpt><trkpt lat="39.46116739039837" lon="16.835033264101526"><ele>617.0</ele><time>2026-04-06T08:51:52.999Z</time></trkpt><trkpt lat="39.46129964708086" lon="16.83504020529783"><ele>617.0</ele><time>2026-04-06T08:51:53.999Z</time></trkpt><trkpt lat="39.46143096757919" lon="16.83504230137611"><ele>616.0</ele><time>2026-04-06T08:51:54.999Z</time></trkpt><trkpt lat="39.46156482984221" lon="16.83504161354892"><ele>615.0</ele><time>2026-04-06T08:51:55.999Z</time></trkpt><trkpt lat="39.46168863263332" lon="16.83503901883413"><ele>614.0</ele><time>2026-04-06T08:51:56.999Z</time></trkpt><trkpt lat="39.461809429416675" lon="16.83505850009985"><ele>613.0</ele><time>2026-04-06T08:51:57.999Z</time></trkpt><trkpt lat="39.461924840040616" lon="16.835035875992734"><ele>613.0</ele><time>2026-04-06T08:51:58.999Z</time></trkpt><trkpt lat="39.462034404402615" lon="16.83502952799102"><ele>613.0</ele><time>2026-04-06T08:51:59.999Z</time></trkpt><trkpt lat="39.462135280559195" lon="16.835017782202975"><ele>613.0</ele><time>2026-04-06T08:52:00.999Z</time></trkpt><trkpt lat="39.46222614781442" lon="16.834986448021006"><ele>613.0</ele><time>2026-04-06T08:52:01.999Z</time></trkpt><trkpt lat="39.46230954089164" lon="16.834934149997714"><ele>613.0</ele><time>2026-04-06T08:52:02.999Z</time></trkpt><trkpt lat="39.46238416992854" lon="16.834869573328678"><ele>611.0</ele><time>2026-04-06T08:52:03.999Z</time></trkpt><trkpt lat="39.46242970771054" lon="16.834743458794446"><ele>609.0</ele><time>2026-04-06T08:52:04.999Z</time></trkpt><trkpt lat="39.46246578795225" lon="16.834602547520024"><ele>607.0</ele><time>2026-04-06T08:52:05.999Z</time></trkpt><trkpt lat="39.462490746182596" lon="16.834451554560427"><ele>605.0</ele><time>2026-04-06T08:52:06.999Z</time></trkpt><trkpt lat="39.46250190926288" lon="16.834289978330336"><ele>605.0</ele><time>2026-04-06T08:52:07.999Z</time></trkpt><trkpt lat="39.46250778610148" lon="16.83411946349766"><ele>605.0</ele><time>2026-04-06T08:52:08.999Z</time></trkpt><trkpt lat="39.46251934905574" lon="16.833958589375023"><ele>605.0</ele><time>2026-04-06T08:52:09.999Z</time></trkpt><trkpt lat="39.462535083092014" lon="16.833808321746503"><ele>605.0</ele><time>2026-04-06T08:52:11Z</time></trkpt><trkpt lat="39.46255678480553" lon="16.833662832081885"><ele>605.0</ele><time>2026-04-06T08:52:12Z</time></trkpt><trkpt lat="39.46258767591005" lon="16.83352811456127"><ele>605.0</ele><time>2026-04-06T08:52:13Z</time></trkpt><trkpt lat="39.4626361669509" lon="16.833406807968654"><ele>605.0</ele><time>2026-04-06T08:52:14Z</time></trkpt><trkpt lat="39.46270298058648" lon="16.833310507531124"><ele>605.0</ele><time>2026-04-06T08:52:15Z</time></trkpt><trkpt lat="39.46279183124658" lon="16.83324874568088"><ele>605.0</ele><time>2026-04-06T08:52:16Z</time></trkpt><trkpt lat="39.46286143617911" lon="16.833158091583474"><ele>605.25</ele><time>2026-04-06T08:52:17Z</time></trkpt><trkpt lat="39.46294399524547" lon="16.83308426195588"><ele>605.5</ele><time>2026-04-06T08:52:18Z</time></trkpt><trkpt lat="39.463036974797085" lon="16.832996379982724"><ele>605.75</ele><time>2026-04-06T08:52:19Z</time></trkpt><trkpt lat="39.46314800714858" lon="16.83291393305199"><ele>606.0</ele><time>2026-04-06T08:52:20Z</time></trkpt><trkpt lat="39.46324423288506" lon="16.83281680312809"><ele>603.2</ele><time>2026-04-06T08:52:21Z</time></trkpt><trkpt lat="39.4633226718765" lon="16.832708709839107"><ele>600.4000000000001</ele><time>2026-04-06T08:52:22Z</time></trkpt><trkpt lat="39.463413621987165" lon="16.83262593926989"><ele>597.6</ele><time>2026-04-06T08:52:23Z</time></trkpt><trkpt lat="39.463472560353495" lon="16.83250517646522"><ele>594.8000000000001</ele><time>2026-04-06T08:52:24Z</time></trkpt><trkpt lat="39.46354804563665" lon="16.832406658880334"><ele>592.0</ele><time>2026-04-06T08:52:25Z</time></trkpt><trkpt lat="39.46360453548945" lon="16.832279883011307"><ele>592.0</ele><time>2026-04-06T08:52:26Z</time></trkpt><trkpt lat="39.46366102483012" lon="16.832157170693336"><ele>592.0</ele><time>2026-04-06T08:52:27Z</time></trkpt><trkpt lat="39.463699487085485" lon="16.832030043377305"><ele>592.0</ele><time>2026-04-06T08:52:28Z</time></trkpt><trkpt lat="39.463749029110936" lon="16.83191518682114"><ele>592.0</ele><time>2026-04-06T08:52:29Z</time></trkpt><trkpt lat="39.46381132971742" lon="16.831790287829076"><ele>592.0</ele><time>2026-04-06T08:52:30Z</time></trkpt><trkpt lat="39.46387330513331" lon="16.831658448290124"><ele>589.4</ele><time>2026-04-06T08:52:31Z</time></trkpt><trkpt lat="39.46395437341428" lon="16.831554515810485"><ele>586.8000000000001</ele><time>2026-04-06T08:52:32Z</time></trkpt><trkpt lat="39.46403162184754" lon="16.831463866744798"><ele>584.2</ele><time>2026-04-06T08:52:33Z</time></trkpt><trkpt lat="39.464119763421316" lon="16.83139181484284"><ele>581.6</ele><time>2026-04-06T08:52:34Z</time></trkpt><trkpt lat="39.464224283842825" lon="16.831332254550713"><ele>579.0</ele><time>2026-04-06T08:52:35Z</time></trkpt><trkpt lat="39.4643460734254" lon="16.831262692051418"><ele>579.0</ele><time>2026-04-06T08:52:36Z</time></trkpt><trkpt lat="39.464466204768016" lon="16.831197044082266"><ele>579.0</ele><time>2026-04-06T08:52:37Z</time></trkpt><trkpt lat="39.46458335836638" lon="16.831148103089333"><ele>579.0</ele><time>2026-04-06T08:52:38Z</time></trkpt><trkpt lat="39.46469078730482" lon="16.831117646581795"><ele>579.0</ele><time>2026-04-06T08:52:39Z</time></trkpt><trkpt lat="39.464787191525474" lon="16.83110577857647"><ele>577.8</ele><time>2026-04-06T08:52:40Z</time></trkpt><trkpt lat="39.46487979609715" lon="16.8311081846134"><ele>576.5999999999999</ele><time>2026-04-06T08:52:41Z</time></trkpt><trkpt lat="39.46496633838416" lon="16.831193019796792"><ele>575.4</ele><time>2026-04-06T08:52:42Z</time></trkpt><trkpt lat="39.46504450626811" lon="16.83129440774844"><ele>574.1999999999999</ele><time>2026-04-06T08:52:43Z</time></trkpt><trkpt lat="39.46513403422773" lon="16.831405097737278"><ele>573.0</ele><time>2026-04-06T08:52:44Z</time></trkpt><trkpt lat="39.46521632793306" lon="16.83152648850653"><ele>573.0</ele><time>2026-04-06T08:52:45Z</time></trkpt><trkpt lat="39.46530359603054" lon="16.83165381354407"><ele>573.0</ele><time>2026-04-06T08:52:46Z</time></trkpt><trkpt lat="39.465385377364704" lon="16.831773133353074"><ele>573.0</ele><time>2026-04-06T08:52:47Z</time></trkpt><trkpt lat="39.46545671560216" lon="16.831877215826367"><ele>573.0</ele><time>2026-04-06T08:52:48Z</time></trkpt><trkpt lat="39.465521390900804" lon="16.831971458374685"><ele>572.1666666666666</ele><time>2026-04-06T08:52:49Z</time></trkpt><trkpt lat="39.465585367705984" lon="16.83206472362859"><ele>571.3333333333334</ele><time>2026-04-06T08:52:50Z</time></trkpt><trkpt lat="39.46564934442619" lon="16.83215240856842"><ele>570.5</ele><time>2026-04-06T08:52:51Z</time></trkpt><trkpt lat="39.46570776501702" lon="16.832224964110107"><ele>569.6666666666667</ele><time>2026-04-06T08:52:52Z</time></trkpt><trkpt lat="39.46576460349474" lon="16.832280051456912"><ele>568.8333333333334</ele><time>2026-04-06T08:52:53Z</time></trkpt><trkpt lat="39.46581490982353" lon="16.832371964732296"><ele>568.0</ele><time>2026-04-06T08:52:54.999Z</time></trkpt><trkpt lat="39.46573911784029" lon="16.832348549573453"><ele>568.0</ele><time>2026-04-06T08:56:58.999Z</time></trkpt><trkpt lat="39.46580263202112" lon="16.832371933995816"><ele>568.0</ele><time>2026-04-06T08:57:20.999Z</time></trkpt><trkpt lat="39.46594833065115" lon="16.832469183964218"><ele>568.0</ele><time>2026-04-06T08:58:23.999Z</time></trkpt><trkpt lat="39.466043559570124" lon="16.83256933246401"><ele>568.0</ele><time>2026-04-06T08:58:25.999Z</time></trkpt><trkpt lat="39.46609603952145" lon="16.83263101136359"><ele>568.0</ele><time>2026-04-06T08:58:26.999Z</time></trkpt><trkpt lat="39.46613592295502" lon="16.832727042055662"><ele>566.8333333333334</ele><time>2026-04-06T08:58:27.999Z</time></trkpt><trkpt lat="39.4661886706956" lon="16.832788558081656"><ele>565.6666666666667</ele><time>2026-04-06T08:58:29Z</time></trkpt><trkpt lat="39.466242937410755" lon="16.832851307920027"><ele>564.5</ele><time>2026-04-06T08:58:30Z</time></trkpt><trkpt lat="39.466304189006856" lon="16.832922134451508"><ele>563.3333333333334</ele><time>2026-04-06T08:58:30.999Z</time></trkpt><trkpt lat="39.4663712800367" lon="16.83299694136695"><ele>562.1666666666666</ele><time>2026-04-06T08:58:31.999Z</time></trkpt><trkpt lat="39.466437361655785" lon="16.833058385761515"><ele>561.0</ele><time>2026-04-06T08:58:33Z</time></trkpt><trkpt lat="39.46650084527562" lon="16.833106240073477"><ele>561.0</ele><time>2026-04-06T08:58:33.999Z</time></trkpt><trkpt lat="39.466563680319915" lon="16.833146263181632"><ele>561.0</ele><time>2026-04-06T08:58:34.999Z</time></trkpt><trkpt lat="39.46662640087691" lon="16.83318417754918"><ele>561.0</ele><time>2026-04-06T08:58:36Z</time></trkpt><trkpt lat="39.46669620341387" lon="16.833222041764955"><ele>561.0</ele><time>2026-04-06T08:58:36.999Z</time></trkpt><trkpt lat="39.46676700642613" lon="16.833258243218676"><ele>561.0</ele><time>2026-04-06T08:58:37.999Z</time></trkpt><trkpt lat="39.46683964338051" lon="16.833295382375592"><ele>561.0</ele><time>2026-04-06T08:58:39Z</time></trkpt><trkpt lat="39.46691346028449" lon="16.833333124733933"><ele>561.0</ele><time>2026-04-06T08:58:39.999Z</time></trkpt><trkpt lat="39.46699033277363" lon="16.83336334168262"><ele>561.0</ele><time>2026-04-06T08:58:40.999Z</time></trkpt><trkpt lat="39.467067481036565" lon="16.833378014933523"><ele>561.0</ele><time>2026-04-06T08:58:42Z</time></trkpt><trkpt lat="39.46714751910175" lon="16.833379893266063"><ele>561.0</ele><time>2026-04-06T08:58:42.999Z</time></trkpt><trkpt lat="39.46722909456842" lon="16.83338295422811"><ele>561.0</ele><time>2026-04-06T08:58:43.999Z</time></trkpt><trkpt lat="39.46731098219929" lon="16.833371198359217"><ele>561.0</ele><time>2026-04-06T08:58:44.999Z</time></trkpt><trkpt lat="39.46737406755367" lon="16.833408777062523"><ele>561.0</ele><time>2026-04-06T08:58:45.999Z</time></trkpt><trkpt lat="39.467444632915544" lon="16.833449519895606"><ele>560.0</ele><time>2026-04-06T08:58:46.999Z</time></trkpt><trkpt lat="39.467501140584" lon="16.833508254264594"><ele>559.0</ele><time>2026-04-06T08:58:47.999Z</time></trkpt><trkpt lat="39.46755522851716" lon="16.8335699500741"><ele>558.0</ele><time>2026-04-06T08:58:48.999Z</time></trkpt><trkpt lat="39.46760015340376" lon="16.83364005679196"><ele>557.0</ele><time>2026-04-06T08:58:49.999Z</time></trkpt><trkpt lat="39.467643147721816" lon="16.833722183514027"><ele>556.0</ele><time>2026-04-06T08:58:50.999Z</time></trkpt><trkpt lat="39.467663906665884" lon="16.833826266589146"><ele>555.0</ele><time>2026-04-06T08:58:51.999Z</time></trkpt><trkpt lat="39.46765288025327" lon="16.83394183189637"><ele>555.0</ele><time>2026-04-06T08:58:52.999Z</time></trkpt><trkpt lat="39.46764036424959" lon="16.83407896980006"><ele>555.0</ele><time>2026-04-06T08:58:53.999Z</time></trkpt><trkpt lat="39.467609239515035" lon="16.834200274819114"><ele>555.0</ele><time>2026-04-06T08:58:54.999Z</time></trkpt><trkpt lat="39.46758401272408" lon="16.834312209046953"><ele>555.0</ele><time>2026-04-06T08:58:55.999Z</time></trkpt><trkpt lat="39.46755582728356" lon="16.8344372717446"><ele>555.0</ele><time>2026-04-06T08:58:56.999Z</time></trkpt><trkpt lat="39.46752745051529" lon="16.834568477010226"><ele>554.2</ele><time>2026-04-06T08:58:57.999Z</time></trkpt><trkpt lat="39.46750316436343" lon="16.834700967960355"><ele>553.4</ele><time>2026-04-06T08:58:58.999Z</time></trkpt><trkpt lat="39.4674900499885" lon="16.834838537864282"><ele>552.6</ele><time>2026-04-06T08:58:59.999Z</time></trkpt><trkpt lat="39.467496584656296" lon="16.834978144687426"><ele>551.8</ele><time>2026-04-06T08:59:00.999Z</time></trkpt><trkpt lat="39.46750086078689" lon="16.83511593986144"><ele>551.0</ele><time>2026-04-06T08:59:01.999Z</time></trkpt><trkpt lat="39.46750492178557" lon="16.83525036772607"><ele>551.0</ele><time>2026-04-06T08:59:02.999Z</time></trkpt><trkpt lat="39.46750753181006" lon="16.835390335991804"><ele>551.0</ele><time>2026-04-06T08:59:03.999Z</time></trkpt><trkpt lat="39.467509191988" lon="16.83551753731952"><ele>551.0</ele><time>2026-04-06T08:59:04.999Z</time></trkpt><trkpt lat="39.46750566660917" lon="16.835657334940596"><ele>551.0</ele><time>2026-04-06T08:59:05.999Z</time></trkpt><trkpt lat="39.46748704610278" lon="16.835789915536363"><ele>551.0</ele><time>2026-04-06T08:59:06.999Z</time></trkpt><trkpt lat="39.46746963251817" lon="16.83593592223024"><ele>551.25</ele><time>2026-04-06T08:59:07.999Z</time></trkpt><trkpt lat="39.46745591347638" lon="16.836077200334394"><ele>551.5</ele><time>2026-04-06T08:59:08.999Z</time></trkpt><trkpt lat="39.46744705428879" lon="16.836221738968398"><ele>551.75</ele><time>2026-04-06T08:59:09.999Z</time></trkpt><trkpt lat="39.46743737627069" lon="16.836371193546345"><ele>552.0</ele><time>2026-04-06T08:59:10.999Z</time></trkpt><trkpt lat="39.467423255224304" lon="16.836523336052863"><ele>552.0</ele><time>2026-04-06T08:59:11.999Z</time></trkpt><trkpt lat="39.467418331601365" lon="16.83669009935745"><ele>552.0</ele><time>2026-04-06T08:59:12.999Z</time></trkpt><trkpt lat="39.46739661719883" lon="16.83683821230785"><ele>552.0</ele><time>2026-04-06T08:59:13.999Z</time></trkpt><trkpt lat="39.4673777441296" lon="16.836972204434723"><ele>552.0</ele><time>2026-04-06T08:59:14.999Z</time></trkpt><trkpt lat="39.46735436663005" lon="16.8371004775315"><ele>552.2</ele><time>2026-04-06T08:59:15.999Z</time></trkpt><trkpt lat="39.46733056607159" lon="16.837235206891613"><ele>552.4000000000001</ele><time>2026-04-06T08:59:16.999Z</time></trkpt><trkpt lat="39.467290933766634" lon="16.83736460477602"><ele>552.5999999999999</ele><time>2026-04-06T08:59:17.999Z</time></trkpt><trkpt lat="39.46726646990171" lon="16.837496984032953"><ele>552.8</ele><time>2026-04-06T08:59:18.999Z</time></trkpt><trkpt lat="39.46724075165298" lon="16.83763615100699"><ele>553.0</ele><time>2026-04-06T08:59:19.999Z</time></trkpt><trkpt lat="39.4672198091298" lon="16.837764017675045"><ele>552.4</ele><time>2026-04-06T08:59:20.999Z</time></trkpt><trkpt lat="39.467206895611426" lon="16.83786775685721"><ele>551.8</ele><time>2026-04-06T08:59:21.999Z</time></trkpt><trkpt lat="39.46720126438654" lon="16.83795535246554"><ele>551.2</ele><time>2026-04-06T08:59:22.999Z</time></trkpt><trkpt lat="39.467197938420995" lon="16.838120429184617"><ele>550.6</ele><time>2026-04-06T08:59:24.999Z</time></trkpt><trkpt lat="39.467198467815784" lon="16.838263706697425"><ele>550.0</ele><time>2026-04-06T08:59:26.999Z</time></trkpt><trkpt lat="39.46720827770515" lon="16.838390430212673"><ele>544.8</ele><time>2026-04-06T08:59:28.999Z</time></trkpt><trkpt lat="39.46720238670903" lon="16.838552426818527"><ele>539.6</ele><time>2026-04-06T08:59:30.999Z</time></trkpt><trkpt lat="39.46721671672921" lon="16.838669655347914"><ele>534.4</ele><time>2026-04-06T08:59:31.999Z</time></trkpt><trkpt lat="39.46724919373058" lon="16.838786100028656"><ele>529.2</ele><time>2026-04-06T08:59:32.999Z</time></trkpt><trkpt lat="39.46732238774475" lon="16.83885150503503"><ele>524.0</ele><time>2026-04-06T08:59:33.999Z</time></trkpt><trkpt lat="39.46738672967395" lon="16.83890601463358"><ele>524.0</ele><time>2026-04-06T08:59:34.999Z</time></trkpt><trkpt lat="39.46747431780258" lon="16.838943520336045"><ele>524.0</ele><time>2026-04-06T08:59:35.999Z</time></trkpt><trkpt lat="39.467569487826005" lon="16.838976446839162"><ele>524.0</ele><time>2026-04-06T08:59:36.999Z</time></trkpt><trkpt lat="39.4676645207064" lon="16.839001164526763"><ele>524.0</ele><time>2026-04-06T08:59:37.999Z</time></trkpt><trkpt lat="39.467763357746115" lon="16.8390141920322"><ele>524.0</ele><time>2026-04-06T08:59:38.999Z</time></trkpt><trkpt lat="39.467869605437656" lon="16.83898956880478"><ele>525.6666666666666</ele><time>2026-04-06T08:59:39.999Z</time></trkpt><trkpt lat="39.467960588257306" lon="16.838943751852945"><ele>527.3333333333333</ele><time>2026-04-06T08:59:40.999Z</time></trkpt><trkpt lat="39.468046222755476" lon="16.83892562245508"><ele>529.0</ele><time>2026-04-06T08:59:41.999Z</time></trkpt><trkpt lat="39.46812242948378" lon="16.838980362579235"><ele>530.6666666666666</ele><time>2026-04-06T08:59:42.999Z</time></trkpt><trkpt lat="39.46820074590159" lon="16.839009680543324"><ele>532.3333333333334</ele><time>2026-04-06T08:59:43.999Z</time></trkpt><trkpt lat="39.46828024324223" lon="16.839036117461557"><ele>534.0</ele><time>2026-04-06T08:59:44.999Z</time></trkpt><trkpt lat="39.46836211593004" lon="16.839057675529542"><ele>534.0</ele><time>2026-04-06T08:59:45.999Z</time></trkpt><trkpt lat="39.468448370385" lon="16.839036152280947"><ele>534.0</ele><time>2026-04-06T08:59:46.999Z</time></trkpt><trkpt lat="39.46852150019858" lon="16.839003026494193"><ele>534.0</ele><time>2026-04-06T08:59:47.999Z</time></trkpt><trkpt lat="39.468571162214" lon="16.83893226018723"><ele>534.0</ele><time>2026-04-06T08:59:48.999Z</time></trkpt><trkpt lat="39.46859868060187" lon="16.838835893121683"><ele>534.0</ele><time>2026-04-06T08:59:49.999Z</time></trkpt><trkpt lat="39.46859541615144" lon="16.83870364498863"><ele>534.0</ele><time>2026-04-06T08:59:50.999Z</time></trkpt><trkpt lat="39.468576669399866" lon="16.83856463147706"><ele>535.0</ele><time>2026-04-06T08:59:51.999Z</time></trkpt><trkpt lat="39.46856544741591" lon="16.838422928562334"><ele>536.0</ele><time>2026-04-06T08:59:52.999Z</time></trkpt><trkpt lat="39.468565988849065" lon="16.83828283296366"><ele>537.0</ele><time>2026-04-06T08:59:53.999Z</time></trkpt><trkpt lat="39.46857127482695" lon="16.838153885111527"><ele>538.0</ele><time>2026-04-06T08:59:54.999Z</time></trkpt><trkpt lat="39.46859736197258" lon="16.838029705989165"><ele>539.0</ele><time>2026-04-06T08:59:55.999Z</time></trkpt><trkpt lat="39.46864013062771" lon="16.837922674081916"><ele>539.0</ele><time>2026-04-06T08:59:56.999Z</time></trkpt><trkpt lat="39.46870376318952" lon="16.837836471683875"><ele>539.0</ele><time>2026-04-06T08:59:57.999Z</time></trkpt><trkpt lat="39.468788118032116" lon="16.83778654884355"><ele>539.0</ele><time>2026-04-06T08:59:58.999Z</time></trkpt><trkpt lat="39.46887950963949" lon="16.837761228468985"><ele>539.0</ele><time>2026-04-06T08:59:59.999Z</time></trkpt><trkpt lat="39.4689825859599" lon="16.83778698387246"><ele>539.0</ele><time>2026-04-06T09:00:00.999Z</time></trkpt><trkpt lat="39.46909071101021" lon="16.83778119498265"><ele>535.2</ele><time>2026-04-06T09:00:01.999Z</time></trkpt><trkpt lat="39.46920214772132" lon="16.83777648497282"><ele>531.4</ele><time>2026-04-06T09:00:02.999Z</time></trkpt><trkpt lat="39.46930865200263" lon="16.837791898383887"><ele>527.6</ele><time>2026-04-06T09:00:03.999Z</time></trkpt><trkpt lat="39.469406448077656" lon="16.8378009395796"><ele>523.8</ele><time>2026-04-06T09:00:04.999Z</time></trkpt><trkpt lat="39.46949266397907" lon="16.837829092065036"><ele>520.0</ele><time>2026-04-06T09:00:05.999Z</time></trkpt><trkpt lat="39.4695661626602" lon="16.837891489117517"><ele>520.2</ele><time>2026-04-06T09:00:06.999Z</time></trkpt><trkpt lat="39.46961001057807" lon="16.837983482357874"><ele>520.4</ele><time>2026-04-06T09:00:07.999Z</time></trkpt><trkpt lat="39.46963357147562" lon="16.83808261279187"><ele>520.6</ele><time>2026-04-06T09:00:08.999Z</time></trkpt><trkpt lat="39.46965530562742" lon="16.838200553727837"><ele>520.8</ele><time>2026-04-06T09:00:09.999Z</time></trkpt><trkpt lat="39.469699859438464" lon="16.838328870607402"><ele>521.0</ele><time>2026-04-06T09:00:10.999Z</time></trkpt><trkpt lat="39.46975985975562" lon="16.838468612772175"><ele>518.0</ele><time>2026-04-06T09:00:11.999Z</time></trkpt><trkpt lat="39.469822927660026" lon="16.83861916860549"><ele>515.0</ele><time>2026-04-06T09:00:12.999Z</time></trkpt><trkpt lat="39.46990282674554" lon="16.83877195091754"><ele>512.0</ele><time>2026-04-06T09:00:13.999Z</time></trkpt><trkpt lat="39.46997615773353" lon="16.838923631324015"><ele>509.0</ele><time>2026-04-06T09:00:14.999Z</time></trkpt><trkpt lat="39.470022975923946" lon="16.83906765565461"><ele>509.0</ele><time>2026-04-06T09:00:15.999Z</time></trkpt><trkpt lat="39.47005179815026" lon="16.839205939883556"><ele>509.0</ele><time>2026-04-06T09:00:16.999Z</time></trkpt><trkpt lat="39.47006541511667" lon="16.839333718655393"><ele>509.0</ele><time>2026-04-06T09:00:17.999Z</time></trkpt><trkpt lat="39.47007951647857" lon="16.839451007969384"><ele>509.0</ele><time>2026-04-06T09:00:18.999Z</time></trkpt><trkpt lat="39.47012521249238" lon="16.839552062872517"><ele>509.0</ele><time>2026-04-06T09:00:19.999Z</time></trkpt><trkpt lat="39.47015440243799" lon="16.839648014208972"><ele>507.4</ele><time>2026-04-06T09:00:20.999Z</time></trkpt><trkpt lat="39.47024975474919" lon="16.83967555470211"><ele>505.79999999999995</ele><time>2026-04-06T09:00:21.999Z</time></trkpt><trkpt lat="39.470345382264746" lon="16.83967659051351"><ele>504.20000000000005</ele><time>2026-04-06T09:00:22.999Z</time></trkpt><trkpt lat="39.4704491848159" lon="16.839634526008982"><ele>502.6</ele><time>2026-04-06T09:00:23.999Z</time></trkpt><trkpt lat="39.470552896348494" lon="16.839568617796132"><ele>501.0</ele><time>2026-04-06T09:00:24.999Z</time></trkpt><trkpt lat="39.47065999836704" lon="16.83950061001588"><ele>501.0</ele><time>2026-04-06T09:00:26Z</time></trkpt><trkpt lat="39.47077037715599" lon="16.83945167338791"><ele>501.0</ele><time>2026-04-06T09:00:27Z</time></trkpt><trkpt lat="39.47086817910532" lon="16.83941122557079"><ele>501.0</ele><time>2026-04-06T09:00:28Z</time></trkpt><trkpt lat="39.470949833247545" lon="16.83936300176841"><ele>501.0</ele><time>2026-04-06T09:00:29Z</time></trkpt><trkpt lat="39.471000296662176" lon="16.839284955747658"><ele>501.0</ele><time>2026-04-06T09:00:30Z</time></trkpt><trkpt lat="39.47103107782161" lon="16.839170854122905"><ele>501.0</ele><time>2026-04-06T09:00:31Z</time></trkpt><trkpt lat="39.47103258881481" lon="16.839043557851788"><ele>501.0</ele><time>2026-04-06T09:00:32Z</time></trkpt><trkpt lat="39.47100252412038" lon="16.83892059726759"><ele>501.0</ele><time>2026-04-06T09:00:33Z</time></trkpt><trkpt lat="39.470949393373125" lon="16.838798954967924"><ele>501.0</ele><time>2026-04-06T09:00:34Z</time></trkpt><trkpt lat="39.4708902156725" lon="16.838667458506855"><ele>501.0</ele><time>2026-04-06T09:00:35Z</time></trkpt><trkpt lat="39.4708657609344" lon="16.838533599799128"><ele>501.6</ele><time>2026-04-06T09:00:36Z</time></trkpt><trkpt lat="39.47088774372779" lon="16.838401052531385"><ele>502.20000000000005</ele><time>2026-04-06T09:00:37Z</time></trkpt><trkpt lat="39.47093720114101" lon="16.838274673396707"><ele>502.79999999999995</ele><time>2026-04-06T09:00:38Z</time></trkpt><trkpt lat="39.4710015085309" lon="16.83814875364446"><ele>503.4</ele><time>2026-04-06T09:00:39Z</time></trkpt><trkpt lat="39.47105181056319" lon="16.83801699162316"><ele>504.0</ele><time>2026-04-06T09:00:40Z</time></trkpt><trkpt lat="39.47109253410979" lon="16.837887732458313"><ele>504.0</ele><time>2026-04-06T09:00:41Z</time></trkpt><trkpt lat="39.471147060057234" lon="16.837789141488496"><ele>504.0</ele><time>2026-04-06T09:00:42Z</time></trkpt><trkpt lat="39.471216905296444" lon="16.837714547485618"><ele>504.0</ele><time>2026-04-06T09:00:43Z</time></trkpt><trkpt lat="39.47129793633988" lon="16.837677876593112"><ele>504.0</ele><time>2026-04-06T09:00:44Z</time></trkpt><trkpt lat="39.47138471631199" lon="16.837669757033616"><ele>504.0</ele><time>2026-04-06T09:00:45Z</time></trkpt><trkpt lat="39.47148933106282" lon="16.8376879706501"><ele>498.5</ele><time>2026-04-06T09:00:46Z</time></trkpt><trkpt lat="39.471609876213634" lon="16.837710953651893"><ele>493.0</ele><time>2026-04-06T09:00:47Z</time></trkpt><trkpt lat="39.47173727039671" lon="16.83772655144575"><ele>487.5</ele><time>2026-04-06T09:00:48Z</time></trkpt><trkpt lat="39.471868316128734" lon="16.837724684717706"><ele>482.0</ele><time>2026-04-06T09:00:49Z</time></trkpt><trkpt lat="39.47199105743226" lon="16.83772892599894"><ele>482.0</ele><time>2026-04-06T09:00:50Z</time></trkpt><trkpt lat="39.47210275987683" lon="16.837790681218227"><ele>482.0</ele><time>2026-04-06T09:00:51Z</time></trkpt><trkpt lat="39.472226696630656" lon="16.837851944771945"><ele>482.0</ele><time>2026-04-06T09:00:52Z</time></trkpt><trkpt lat="39.472350123086024" lon="16.837879630790706"><ele>482.0</ele><time>2026-04-06T09:00:53Z</time></trkpt><trkpt lat="39.472452874639735" lon="16.83790829142897"><ele>480.6</ele><time>2026-04-06T09:00:54Z</time></trkpt><trkpt lat="39.472546182308655" lon="16.837918009504513"><ele>479.20000000000005</ele><time>2026-04-06T09:00:55Z</time></trkpt><trkpt lat="39.472632453444994" lon="16.837901830088573"><ele>477.8</ele><time>2026-04-06T09:00:56Z</time></trkpt><trkpt lat="39.47272272074394" lon="16.837826461856622"><ele>476.4</ele><time>2026-04-06T09:00:57Z</time></trkpt><trkpt lat="39.47281394345889" lon="16.837723033015635"><ele>475.0</ele><time>2026-04-06T09:00:58Z</time></trkpt><trkpt lat="39.47291615179997" lon="16.837645110717293"><ele>473.8</ele><time>2026-04-06T09:00:59Z</time></trkpt><trkpt lat="39.473027886379164" lon="16.837632482708024"><ele>472.6</ele><time>2026-04-06T09:01:00Z</time></trkpt><trkpt lat="39.47311619554369" lon="16.837653193412784"><ele>471.4</ele><time>2026-04-06T09:01:01Z</time></trkpt><trkpt lat="39.47318400486266" lon="16.837715576395947"><ele>470.2</ele><time>2026-04-06T09:01:02Z</time></trkpt><trkpt lat="39.47323355741517" lon="16.83779827531109"><ele>469.0</ele><time>2026-04-06T09:01:03Z</time></trkpt><trkpt lat="39.473291936171805" lon="16.837897633112284"><ele>469.0</ele><time>2026-04-06T09:01:04Z</time></trkpt><trkpt lat="39.47337294629166" lon="16.837978022216443"><ele>469.0</ele><time>2026-04-06T09:01:05Z</time></trkpt><trkpt lat="39.4734712694519" lon="16.838023887222196"><ele>469.0</ele><time>2026-04-06T09:01:06Z</time></trkpt><trkpt lat="39.47359006271223" lon="16.838027904884196"><ele>469.0</ele><time>2026-04-06T09:01:07Z</time></trkpt><trkpt lat="39.473696991290375" lon="16.838088577575775"><ele>469.0</ele><time>2026-04-06T09:01:08Z</time></trkpt><trkpt lat="39.47379123124638" lon="16.838178258822328"><ele>466.75</ele><time>2026-04-06T09:01:09Z</time></trkpt><trkpt lat="39.473886389692765" lon="16.838280465991158"><ele>464.5</ele><time>2026-04-06T09:01:10Z</time></trkpt><trkpt lat="39.47397875355703" lon="16.838391738019084"><ele>462.25</ele><time>2026-04-06T09:01:11Z</time></trkpt><trkpt lat="39.4740841374415" lon="16.83849467405939"><ele>460.0</ele><time>2026-04-06T09:01:12Z</time></trkpt><trkpt lat="39.47418381261859" lon="16.838591012322517"><ele>460.0</ele><time>2026-04-06T09:01:13Z</time></trkpt><trkpt lat="39.474292507474594" lon="16.83865350190578"><ele>460.0</ele><time>2026-04-06T09:01:14Z</time></trkpt><trkpt lat="39.47440236833158" lon="16.83871134248671"><ele>460.0</ele><time>2026-04-06T09:01:15Z</time></trkpt><trkpt lat="39.47449492091385" lon="16.838801425026432"><ele>460.0</ele><time>2026-04-06T09:01:16Z</time></trkpt><trkpt lat="39.474598370233785" lon="16.83887811530876"><ele>458.0</ele><time>2026-04-06T09:01:17Z</time></trkpt><trkpt lat="39.474689827049936" lon="16.838977557268073"><ele>456.0</ele><time>2026-04-06T09:01:18Z</time></trkpt><trkpt lat="39.474789637633" lon="16.839066244099"><ele>454.0</ele><time>2026-04-06T09:01:19Z</time></trkpt><trkpt lat="39.47489817823584" lon="16.839141481173655"><ele>452.0</ele><time>2026-04-06T09:01:20Z</time></trkpt><trkpt lat="39.47501238160361" lon="16.83922524272573"><ele>449.0</ele><time>2026-04-06T09:01:21Z</time></trkpt><trkpt lat="39.475121595214105" lon="16.839306220532958"><ele>446.0</ele><time>2026-04-06T09:01:22Z</time></trkpt><trkpt lat="39.47522711712478" lon="16.839379230454643"><ele>443.0</ele><time>2026-04-06T09:01:23Z</time></trkpt><trkpt lat="39.47533167971553" lon="16.839423451154023"><ele>440.0</ele><time>2026-04-06T09:01:24Z</time></trkpt><trkpt lat="39.47543466095974" lon="16.839438993506988"><ele>440.2</ele><time>2026-04-06T09:01:25Z</time></trkpt><trkpt lat="39.475538058711955" lon="16.839422650572462"><ele>440.4</ele><time>2026-04-06T09:01:26Z</time></trkpt><trkpt lat="39.4756365224974" lon="16.839369908533666"><ele>440.6</ele><time>2026-04-06T09:01:27Z</time></trkpt><trkpt lat="39.47573662938294" lon="16.839296227246415"><ele>440.8</ele><time>2026-04-06T09:01:28Z</time></trkpt><trkpt lat="39.47583032169736" lon="16.839227562044137"><ele>441.0</ele><time>2026-04-06T09:01:29Z</time></trkpt><trkpt lat="39.4759135733293" lon="16.8391331395626"><ele>441.0</ele><time>2026-04-06T09:01:30Z</time></trkpt><trkpt lat="39.47598749151381" lon="16.83907283933698"><ele>441.0</ele><time>2026-04-06T09:01:31Z</time></trkpt><trkpt lat="39.476072706083265" lon="16.839056694426667"><ele>441.0</ele><time>2026-04-06T09:01:32Z</time></trkpt><trkpt lat="39.47614617661432" lon="16.839115183604548"><ele>441.0</ele><time>2026-04-06T09:01:33Z</time></trkpt><trkpt lat="39.4762322006749" lon="16.839180993554958"><ele>441.0</ele><time>2026-04-06T09:01:34Z</time></trkpt><trkpt lat="39.47633479500544" lon="16.839237007582245"><ele>441.0</ele><time>2026-04-06T09:01:35Z</time></trkpt><trkpt lat="39.47644880794031" lon="16.839311355598348"><ele>441.0</ele><time>2026-04-06T09:01:36Z</time></trkpt><trkpt lat="39.476574527150255" lon="16.83938320812731"><ele>441.0</ele><time>2026-04-06T09:01:37Z</time></trkpt><trkpt lat="39.47668894840019" lon="16.839451178158356"><ele>441.0</ele><time>2026-04-06T09:01:38Z</time></trkpt><trkpt lat="39.47679712321225" lon="16.839511143872116"><ele>441.0</ele><time>2026-04-06T09:01:39Z</time></trkpt><trkpt lat="39.476897224487224" lon="16.83956254840715"><ele>441.0</ele><time>2026-04-06T09:01:40Z</time></trkpt><trkpt lat="39.476995012877666" lon="16.839615492645613"><ele>441.0</ele><time>2026-04-06T09:01:41Z</time></trkpt><trkpt lat="39.47708255771299" lon="16.839670938224348"><ele>441.0</ele><time>2026-04-06T09:01:42Z</time></trkpt><trkpt lat="39.477171100834475" lon="16.839714527754413"><ele>441.0</ele><time>2026-04-06T09:01:43Z</time></trkpt><trkpt lat="39.477254347361615" lon="16.839764495134073"><ele>438.8333333333333</ele><time>2026-04-06T09:01:44Z</time></trkpt><trkpt lat="39.477315061123534" lon="16.83984045476698"><ele>436.66666666666663</ele><time>2026-04-06T09:01:45Z</time></trkpt><trkpt lat="39.47735893908342" lon="16.839938473974964"><ele>434.5</ele><time>2026-04-06T09:01:46Z</time></trkpt><trkpt lat="39.47733829763991" lon="16.84005457739865"><ele>432.3333333333333</ele><time>2026-04-06T09:01:47Z</time></trkpt><trkpt lat="39.47729595012602" lon="16.840138406009906"><ele>430.16666666666663</ele><time>2026-04-06T09:01:48Z</time></trkpt><trkpt lat="39.47725539276872" lon="16.840239587643747"><ele>428.0</ele><time>2026-04-06T09:01:49Z</time></trkpt><trkpt lat="39.47721126962077" lon="16.840361120926215"><ele>428.5</ele><time>2026-04-06T09:01:50Z</time></trkpt><trkpt lat="39.47717101675867" lon="16.840496257793056"><ele>429.0</ele><time>2026-04-06T09:01:51Z</time></trkpt><trkpt lat="39.477141254201356" lon="16.840649570020194"><ele>429.5</ele><time>2026-04-06T09:01:52Z</time></trkpt><trkpt lat="39.47710638089131" lon="16.840791447446783"><ele>430.0</ele><time>2026-04-06T09:01:53Z</time></trkpt><trkpt lat="39.47707447310761" lon="16.840916384001716"><ele>429.0</ele><time>2026-04-06T09:01:54Z</time></trkpt><trkpt lat="39.47705280015205" lon="16.841023682263152"><ele>428.0</ele><time>2026-04-06T09:01:55Z</time></trkpt><trkpt lat="39.4770509580905" lon="16.8411275569609"><ele>427.0</ele><time>2026-04-06T09:01:56Z</time></trkpt><trkpt lat="39.47707909987553" lon="16.841229411364772"><ele>426.0</ele><time>2026-04-06T09:01:57Z</time></trkpt><trkpt lat="39.47714315632091" lon="16.841314213868934"><ele>425.0</ele><time>2026-04-06T09:01:58Z</time></trkpt><trkpt lat="39.477234993163115" lon="16.841391398598617"><ele>425.0</ele><time>2026-04-06T09:01:59Z</time></trkpt><trkpt lat="39.477343240454395" lon="16.841455864406875"><ele>425.0</ele><time>2026-04-06T09:02:00Z</time></trkpt><trkpt lat="39.47745079758671" lon="16.84153932138548"><ele>425.0</ele><time>2026-04-06T09:02:01Z</time></trkpt><trkpt lat="39.477521686301934" lon="16.841645898217823"><ele>425.0</ele><time>2026-04-06T09:02:02Z</time></trkpt><trkpt lat="39.47756279421064" lon="16.841773500257087"><ele>423.8</ele><time>2026-04-06T09:02:03Z</time></trkpt><trkpt lat="39.47759005499557" lon="16.8419080298437"><ele>422.6</ele><time>2026-04-06T09:02:04Z</time></trkpt><trkpt lat="39.4776297129743" lon="16.842032800736828"><ele>421.4</ele><time>2026-04-06T09:02:05Z</time></trkpt><trkpt lat="39.47769040992127" lon="16.842143598457504"><ele>420.2</ele><time>2026-04-06T09:02:06Z</time></trkpt><trkpt lat="39.47777968994587" lon="16.842232312739636"><ele>419.0</ele><time>2026-04-06T09:02:07Z</time></trkpt><trkpt lat="39.47789265899827" lon="16.84229713247371"><ele>417.0</ele><time>2026-04-06T09:02:08Z</time></trkpt><trkpt lat="39.47800209134832" lon="16.84234673331367"><ele>415.0</ele><time>2026-04-06T09:02:09Z</time></trkpt><trkpt lat="39.47809503075989" lon="16.842379057815588"><ele>413.0</ele><time>2026-04-06T09:02:10Z</time></trkpt><trkpt lat="39.478168841333954" lon="16.84237144628509"><ele>411.0</ele><time>2026-04-06T09:02:11Z</time></trkpt><trkpt lat="39.47823501083627" lon="16.84232302057694"><ele>409.0</ele><time>2026-04-06T09:02:12Z</time></trkpt><trkpt lat="39.47829562431088" lon="16.84222823742135"><ele>409.0</ele><time>2026-04-06T09:02:13Z</time></trkpt><trkpt lat="39.47835161335787" lon="16.842116015288003"><ele>409.0</ele><time>2026-04-06T09:02:14Z</time></trkpt><trkpt lat="39.47841648686385" lon="16.842026609269723"><ele>409.0</ele><time>2026-04-06T09:02:15Z</time></trkpt><trkpt lat="39.47848567127982" lon="16.841965519543294"><ele>409.0</ele><time>2026-04-06T09:02:16Z</time></trkpt><trkpt lat="39.47856278420062" lon="16.84192725518689"><ele>409.0</ele><time>2026-04-06T09:02:17Z</time></trkpt><trkpt lat="39.47864347325435" lon="16.841964027183835"><ele>409.0</ele><time>2026-04-06T09:02:18Z</time></trkpt><trkpt lat="39.478723483716955" lon="16.842033727893206"><ele>409.0</ele><time>2026-04-06T09:02:19Z</time></trkpt><trkpt lat="39.47881772744639" lon="16.84204776424618"><ele>409.0</ele><time>2026-04-06T09:02:20Z</time></trkpt><trkpt lat="39.47890541259292" lon="16.842049515723044"><ele>409.0</ele><time>2026-04-06T09:02:21Z</time></trkpt><trkpt lat="39.47899128786853" lon="16.841992913697702"><ele>409.0</ele><time>2026-04-06T09:02:22Z</time></trkpt><trkpt lat="39.47907877921941" lon="16.841906440539134"><ele>407.2</ele><time>2026-04-06T09:02:23Z</time></trkpt><trkpt lat="39.47917471365895" lon="16.841868011137283"><ele>405.4</ele><time>2026-04-06T09:02:24Z</time></trkpt><trkpt lat="39.47926619515494" lon="16.841818727776747"><ele>403.6</ele><time>2026-04-06T09:02:25Z</time></trkpt><trkpt lat="39.47935938995826" lon="16.84181962705385"><ele>401.8</ele><time>2026-04-06T09:02:26Z</time></trkpt><trkpt lat="39.47943774229047" lon="16.841849405783574"><ele>400.0</ele><time>2026-04-06T09:02:27Z</time></trkpt><trkpt lat="39.479484669388796" lon="16.841948182828848"><ele>400.0</ele><time>2026-04-06T09:02:28Z</time></trkpt><trkpt lat="39.479554493226416" lon="16.84204891580568"><ele>400.0</ele><time>2026-04-06T09:02:29Z</time></trkpt><trkpt lat="39.47964329192784" lon="16.84215659222692"><ele>400.0</ele><time>2026-04-06T09:02:30Z</time></trkpt><trkpt lat="39.479713375453315" lon="16.842264753328696"><ele>400.0</ele><time>2026-04-06T09:02:31Z</time></trkpt><trkpt lat="39.47977738402871" lon="16.842366334954317"><ele>400.0</ele><time>2026-04-06T09:02:32Z</time></trkpt><trkpt lat="39.47983433637683" lon="16.842450828461388"><ele>399.83333333333337</ele><time>2026-04-06T09:02:33Z</time></trkpt><trkpt lat="39.47990108207261" lon="16.84248494686181"><ele>399.6666666666667</ele><time>2026-04-06T09:02:34Z</time></trkpt><trkpt lat="39.479969283089595" lon="16.842475444279756"><ele>399.5</ele><time>2026-04-06T09:02:35Z</time></trkpt><trkpt lat="39.48003577826179" lon="16.842409535369843"><ele>399.33333333333337</ele><time>2026-04-06T09:02:36Z</time></trkpt><trkpt lat="39.480091076461356" lon="16.842319424043428"><ele>399.1666666666667</ele><time>2026-04-06T09:02:37Z</time></trkpt><trkpt lat="39.48012967011024" lon="16.842196942354917"><ele>399.0</ele><time>2026-04-06T09:02:38Z</time></trkpt><trkpt lat="39.48017305669663" lon="16.842069325369792"><ele>399.0</ele><time>2026-04-06T09:02:39Z</time></trkpt><trkpt lat="39.48023222384682" lon="16.841960505405602"><ele>399.0</ele><time>2026-04-06T09:02:40Z</time></trkpt><trkpt lat="39.48030314025327" lon="16.841869696127766"><ele>399.0</ele><time>2026-04-06T09:02:41Z</time></trkpt><trkpt lat="39.48037717002593" lon="16.841796427558144"><ele>399.0</ele><time>2026-04-06T09:02:42Z</time></trkpt><trkpt lat="39.48045647432999" lon="16.84173218325128"><ele>399.0</ele><time>2026-04-06T09:02:43Z</time></trkpt><trkpt lat="39.480543378150045" lon="16.84168713861884"><ele>399.4</ele><time>2026-04-06T09:02:44Z</time></trkpt><trkpt lat="39.48063791545081" lon="16.841686977502455"><ele>399.79999999999995</ele><time>2026-04-06T09:02:45Z</time></trkpt><trkpt lat="39.480730747615524" lon="16.841717616985715"><ele>400.20000000000005</ele><time>2026-04-06T09:02:46Z</time></trkpt><trkpt lat="39.48080643251166" lon="16.841776199357916"><ele>400.6</ele><time>2026-04-06T09:02:47Z</time></trkpt><trkpt lat="39.480846816993314" lon="16.841882207391993"><ele>401.0</ele><time>2026-04-06T09:02:48Z</time></trkpt><trkpt lat="39.480872892675215" lon="16.84198163508113"><ele>397.4</ele><time>2026-04-06T09:02:49Z</time></trkpt><trkpt lat="39.48090609795963" lon="16.84209613276504"><ele>393.8</ele><time>2026-04-06T09:02:50Z</time></trkpt><trkpt lat="39.48094878671849" lon="16.84220415614096"><ele>390.2</ele><time>2026-04-06T09:02:51Z</time></trkpt><trkpt lat="39.48103331162144" lon="16.84226858752497"><ele>386.59999999999997</ele><time>2026-04-06T09:02:52Z</time></trkpt><trkpt lat="39.48112169636212" lon="16.842295119158987"><ele>383.0</ele><time>2026-04-06T09:02:53Z</time></trkpt><trkpt lat="39.48122327813227" lon="16.842283652948627"><ele>382.79999999999995</ele><time>2026-04-06T09:02:54Z</time></trkpt><trkpt lat="39.481332122501094" lon="16.84224291363153"><ele>382.6</ele><time>2026-04-06T09:02:55Z</time></trkpt><trkpt lat="39.48144356068786" lon="16.842200232156742"><ele>382.4</ele><time>2026-04-06T09:02:56Z</time></trkpt><trkpt lat="39.481550079481345" lon="16.842157787027414"><ele>382.20000000000005</ele><time>2026-04-06T09:02:57Z</time></trkpt><trkpt lat="39.48165551326247" lon="16.842149687860708"><ele>382.0</ele><time>2026-04-06T09:02:58Z</time></trkpt><trkpt lat="39.481752444266846" lon="16.842152246274907"><ele>382.0</ele><time>2026-04-06T09:02:59Z</time></trkpt><trkpt lat="39.48183820267341" lon="16.842205383772104"><ele>382.0</ele><time>2026-04-06T09:03:00Z</time></trkpt><trkpt lat="39.48194582667025" lon="16.84225119341479"><ele>382.0</ele><time>2026-04-06T09:03:01Z</time></trkpt><trkpt lat="39.48204681732338" lon="16.84233310647763"><ele>382.0</ele><time>2026-04-06T09:03:02Z</time></trkpt><trkpt lat="39.48214272030631" lon="16.842387888083223"><ele>382.0</ele><time>2026-04-06T09:03:03Z</time></trkpt><trkpt lat="39.48224120651569" lon="16.8424263307879"><ele>381.20000000000005</ele><time>2026-04-06T09:03:04Z</time></trkpt><trkpt lat="39.48234354873456" lon="16.84243221191754"><ele>380.4</ele><time>2026-04-06T09:03:05Z</time></trkpt><trkpt lat="39.48244332165938" lon="16.842428403089567"><ele>379.6</ele><time>2026-04-06T09:03:06Z</time></trkpt><trkpt lat="39.48253955742362" lon="16.842403082888044"><ele>378.79999999999995</ele><time>2026-04-06T09:03:07Z</time></trkpt><trkpt lat="39.48263559163431" lon="16.842346802060117"><ele>378.0</ele><time>2026-04-06T09:03:08Z</time></trkpt><trkpt lat="39.48272141570527" lon="16.842254408967296"><ele>378.0</ele><time>2026-04-06T09:03:09Z</time></trkpt><trkpt lat="39.48278831584235" lon="16.842132783839045"><ele>378.0</ele><time>2026-04-06T09:03:10Z</time></trkpt><trkpt lat="39.48285488039446" lon="16.841996573924348"><ele>378.0</ele><time>2026-04-06T09:03:11Z</time></trkpt><trkpt lat="39.48294549661357" lon="16.841873764813506"><ele>378.0</ele><time>2026-04-06T09:03:12Z</time></trkpt><trkpt lat="39.48303962539332" lon="16.84175311658289"><ele>376.25</ele><time>2026-04-06T09:03:13Z</time></trkpt><trkpt lat="39.48312308335924" lon="16.841629387816003"><ele>374.5</ele><time>2026-04-06T09:03:14Z</time></trkpt><trkpt lat="39.483203030415126" lon="16.841514191615246"><ele>372.75</ele><time>2026-04-06T09:03:15Z</time></trkpt><trkpt lat="39.48326846300708" lon="16.841399313614264"><ele>371.0</ele><time>2026-04-06T09:03:16Z</time></trkpt><trkpt lat="39.483327020982884" lon="16.84129649289198"><ele>371.0</ele><time>2026-04-06T09:03:17Z</time></trkpt><trkpt lat="39.483398665983756" lon="16.841229276765006"><ele>371.0</ele><time>2026-04-06T09:03:18Z</time></trkpt><trkpt lat="39.483492132554986" lon="16.84122796385311"><ele>371.0</ele><time>2026-04-06T09:03:19Z</time></trkpt><trkpt lat="39.4835919854796" lon="16.841223573443663"><ele>371.0</ele><time>2026-04-06T09:03:20Z</time></trkpt><trkpt lat="39.48371059716777" lon="16.841222830795974"><ele>371.0</ele><time>2026-04-06T09:03:21Z</time></trkpt><trkpt lat="39.483840882641864" lon="16.84118224110891"><ele>367.5</ele><time>2026-04-06T09:03:22Z</time></trkpt><trkpt lat="39.48395736344183" lon="16.841122344266235"><ele>364.0</ele><time>2026-04-06T09:03:23Z</time></trkpt><trkpt lat="39.48406438715653" lon="16.841062490371908"><ele>360.5</ele><time>2026-04-06T09:03:24Z</time></trkpt><trkpt lat="39.484182813100325" lon="16.84102267535599"><ele>357.0</ele><time>2026-04-06T09:03:25Z</time></trkpt><trkpt lat="39.48430845352762" lon="16.840998427594624"><ele>357.0</ele><time>2026-04-06T09:03:26Z</time></trkpt><trkpt lat="39.4844293899248" lon="16.840988710929"><ele>357.0</ele><time>2026-04-06T09:03:27Z</time></trkpt><trkpt lat="39.484543273908656" lon="16.84098564904"><ele>357.0</ele><time>2026-04-06T09:03:28Z</time></trkpt><trkpt lat="39.484650965867885" lon="16.84097874911026"><ele>357.0</ele><time>2026-04-06T09:03:29Z</time></trkpt><trkpt lat="39.484744899997246" lon="16.840954116640003"><ele>357.0</ele><time>2026-04-06T09:03:30Z</time></trkpt><trkpt lat="39.48482459381999" lon="16.84090322924685"><ele>357.20000000000005</ele><time>2026-04-06T09:03:31Z</time></trkpt><trkpt lat="39.484890945482455" lon="16.840823638537756"><ele>357.4</ele><time>2026-04-06T09:03:32Z</time></trkpt><trkpt lat="39.484952747151205" lon="16.840713944013963"><ele>357.6</ele><time>2026-04-06T09:03:33Z</time></trkpt><trkpt lat="39.48500983454486" lon="16.84059962992447"><ele>357.79999999999995</ele><time>2026-04-06T09:03:34Z</time></trkpt><trkpt lat="39.4850894146625" lon="16.84051985166293"><ele>358.0</ele><time>2026-04-06T09:03:35Z</time></trkpt><trkpt lat="39.48517098245922" lon="16.84045748109605"><ele>358.0</ele><time>2026-04-06T09:03:36Z</time></trkpt><trkpt lat="39.48525279587866" lon="16.84039184400534"><ele>358.0</ele><time>2026-04-06T09:03:37Z</time></trkpt><trkpt lat="39.4853511479553" lon="16.840357367492896"><ele>358.0</ele><time>2026-04-06T09:03:38Z</time></trkpt><trkpt lat="39.485458486284706" lon="16.84031703952189"><ele>358.0</ele><time>2026-04-06T09:03:39Z</time></trkpt><trkpt lat="39.48557061204937" lon="16.840268922581213"><ele>358.0</ele><time>2026-04-06T09:03:40Z</time></trkpt><trkpt lat="39.48568724206904" lon="16.840221932475796"><ele>357.79999999999995</ele><time>2026-04-06T09:03:41Z</time></trkpt><trkpt lat="39.48580556326705" lon="16.840181504133145"><ele>357.6</ele><time>2026-04-06T09:03:42Z</time></trkpt><trkpt lat="39.48591311008693" lon="16.84014344839071"><ele>357.4</ele><time>2026-04-06T09:03:43Z</time></trkpt><trkpt lat="39.4860055927798" lon="16.840087438068064"><ele>357.20000000000005</ele><time>2026-04-06T09:03:44Z</time></trkpt><trkpt lat="39.486086849558674" lon="16.83999910114735"><ele>357.0</ele><time>2026-04-06T09:03:45Z</time></trkpt><trkpt lat="39.48616461872436" lon="16.839897350243785"><ele>357.0</ele><time>2026-04-06T09:03:46Z</time></trkpt><trkpt lat="39.486226495926864" lon="16.83977381147633"><ele>357.0</ele><time>2026-04-06T09:03:47Z</time></trkpt><trkpt lat="39.48626972041072" lon="16.839628844914802"><ele>357.0</ele><time>2026-04-06T09:03:48Z</time></trkpt><trkpt lat="39.48631097472839" lon="16.839481751080555"><ele>357.0</ele><time>2026-04-06T09:03:49Z</time></trkpt><trkpt lat="39.48638450371316" lon="16.83936892561484"><ele>355.20000000000005</ele><time>2026-04-06T09:03:50Z</time></trkpt><trkpt lat="39.486455036776064" lon="16.839257688435247"><ele>353.4</ele><time>2026-04-06T09:03:51Z</time></trkpt><trkpt lat="39.48653230325526" lon="16.83919166864585"><ele>351.6</ele><time>2026-04-06T09:03:52Z</time></trkpt><trkpt lat="39.48658427316637" lon="16.839127564491587"><ele>349.79999999999995</ele><time>2026-04-06T09:03:53Z</time></trkpt><trkpt lat="39.48667267604325" lon="16.83906229998549"><ele>348.0</ele><time>2026-04-06T09:03:55Z</time></trkpt><trkpt lat="39.486739252944616" lon="16.839169123749933"><ele>348.0</ele><time>2026-04-06T09:03:57Z</time></trkpt><trkpt lat="39.486662877543345" lon="16.83929575925322"><ele>348.0</ele><time>2026-04-06T09:03:59Z</time></trkpt><trkpt lat="39.48657062258292" lon="16.83934125894716"><ele>348.0</ele><time>2026-04-06T09:04:00Z</time></trkpt><trkpt lat="39.48647545225189" lon="16.839402213127965"><ele>348.0</ele><time>2026-04-06T09:04:01Z</time></trkpt><trkpt lat="39.486414835532806" lon="16.839490067788297"><ele>348.0</ele><time>2026-04-06T09:04:02Z</time></trkpt><trkpt lat="39.48638239638879" lon="16.83959159365228"><ele>345.6666666666667</ele><time>2026-04-06T09:04:03Z</time></trkpt><trkpt lat="39.48637176800887" lon="16.839695134863142"><ele>343.3333333333333</ele><time>2026-04-06T09:04:04Z</time></trkpt><trkpt lat="39.48636365037791" lon="16.83980795464311"><ele>341.0</ele><time>2026-04-06T09:04:05Z</time></trkpt><trkpt lat="39.48633825764784" lon="16.83991668309829"><ele>338.66666666666663</ele><time>2026-04-06T09:04:06Z</time></trkpt><trkpt lat="39.48632616102501" lon="16.84002494145624"><ele>336.3333333333333</ele><time>2026-04-06T09:04:07Z</time></trkpt><trkpt lat="39.48631349771652" lon="16.840131068579232"><ele>334.0</ele><time>2026-04-06T09:04:08Z</time></trkpt><trkpt lat="39.48630010282776" lon="16.840237463716118"><ele>333.2</ele><time>2026-04-06T09:04:09Z</time></trkpt><trkpt lat="39.486284699567115" lon="16.840356595810423"><ele>332.4</ele><time>2026-04-06T09:04:10Z</time></trkpt><trkpt lat="39.48626927323023" lon="16.840475274986396"><ele>331.6</ele><time>2026-04-06T09:04:11Z</time></trkpt><trkpt lat="39.486256361281455" lon="16.840574610080246"><ele>330.8</ele><time>2026-04-06T09:04:12Z</time></trkpt><trkpt lat="39.48624026063225" lon="16.84069477245772"><ele>330.0</ele><time>2026-04-06T09:04:14Z</time></trkpt><trkpt lat="39.486486294210785" lon="16.840768008138387"><ele>330.0</ele><time>2026-04-06T09:04:37Z</time></trkpt><trkpt lat="39.486553646458866" lon="16.840754837904978"><ele>330.0</ele><time>2026-04-06T09:04:38Z</time></trkpt><trkpt lat="39.48663980608692" lon="16.840762464114704"><ele>330.0</ele><time>2026-04-06T09:04:39Z</time></trkpt><trkpt lat="39.48674005268171" lon="16.840728027635787"><ele>330.0</ele><time>2026-04-06T09:04:40Z</time></trkpt><trkpt lat="39.486856335776494" lon="16.840740187957476"><ele>330.0</ele><time>2026-04-06T09:04:41Z</time></trkpt><trkpt lat="39.486982681362726" lon="16.840729369913277"><ele>328.25</ele><time>2026-04-06T09:04:42Z</time></trkpt><trkpt lat="39.4871064448303" lon="16.840705103583204"><ele>326.5</ele><time>2026-04-06T09:04:43Z</time></trkpt><trkpt lat="39.48722116628856" lon="16.840672407988258"><ele>324.75</ele><time>2026-04-06T09:04:44Z</time></trkpt><trkpt lat="39.48732193182871" lon="16.840634122801248"><ele>323.0</ele><time>2026-04-06T09:04:45Z</time></trkpt><trkpt lat="39.487415749606114" lon="16.8405703785264"><ele>323.0</ele><time>2026-04-06T09:04:46Z</time></trkpt><trkpt lat="39.48752108917314" lon="16.84055534614239"><ele>323.0</ele><time>2026-04-06T09:04:47Z</time></trkpt><trkpt lat="39.48760801961465" lon="16.84053487334208"><ele>323.0</ele><time>2026-04-06T09:04:48Z</time></trkpt><trkpt lat="39.48772597869036" lon="16.84052416977543"><ele>323.0</ele><time>2026-04-06T09:04:49Z</time></trkpt><trkpt lat="39.48785871737732" lon="16.840491631289286"><ele>323.0</ele><time>2026-04-06T09:04:50Z</time></trkpt><trkpt lat="39.487981059797185" lon="16.84045482085826"><ele>323.5</ele><time>2026-04-06T09:04:51Z</time></trkpt><trkpt lat="39.488100380356364" lon="16.840417613869718"><ele>324.0</ele><time>2026-04-06T09:04:52Z</time></trkpt><trkpt lat="39.48821471378704" lon="16.84038913608805"><ele>324.5</ele><time>2026-04-06T09:04:53Z</time></trkpt><trkpt lat="39.488335921626266" lon="16.840373884019897"><ele>325.0</ele><time>2026-04-06T09:04:54Z</time></trkpt><trkpt lat="39.48846581969657" lon="16.840359869248765"><ele>325.0</ele><time>2026-04-06T09:04:55Z</time></trkpt><trkpt lat="39.48858813837139" lon="16.840320777255318"><ele>325.0</ele><time>2026-04-06T09:04:56Z</time></trkpt><trkpt lat="39.488717546991" lon="16.840291167661093"><ele>325.0</ele><time>2026-04-06T09:04:57Z</time></trkpt><trkpt lat="39.488835788134445" lon="16.84023916895436"><ele>325.0</ele><time>2026-04-06T09:04:58Z</time></trkpt><trkpt lat="39.488937771802725" lon="16.840168939302878"><ele>326.0</ele><time>2026-04-06T09:04:59Z</time></trkpt><trkpt lat="39.489039815382704" lon="16.840089170526966"><ele>327.0</ele><time>2026-04-06T09:05:00Z</time></trkpt><trkpt lat="39.489140477228844" lon="16.84001922756744"><ele>328.0</ele><time>2026-04-06T09:05:01Z</time></trkpt><trkpt lat="39.48924330447611" lon="16.83997663216085"><ele>329.0</ele><time>2026-04-06T09:05:02Z</time></trkpt><trkpt lat="39.48934127238075" lon="16.83992668266648"><ele>330.0</ele><time>2026-04-06T09:05:03Z</time></trkpt><trkpt lat="39.4894386484289" lon="16.839882106920925"><ele>330.0</ele><time>2026-04-06T09:05:04Z</time></trkpt><trkpt lat="39.489536890994025" lon="16.839847276455675"><ele>330.0</ele><time>2026-04-06T09:05:05Z</time></trkpt><trkpt lat="39.48963892758906" lon="16.839818505300304"><ele>330.0</ele><time>2026-04-06T09:05:06Z</time></trkpt><trkpt lat="39.48973629852157" lon="16.839801135610458"><ele>330.0</ele><time>2026-04-06T09:05:07Z</time></trkpt><trkpt lat="39.489839120068496" lon="16.839801632628454"><ele>330.0</ele><time>2026-04-06T09:05:08Z</time></trkpt><trkpt lat="39.489946401813505" lon="16.83977991750975"><ele>331.0</ele><time>2026-04-06T09:05:09Z</time></trkpt><trkpt lat="39.49005106260727" lon="16.83972490057605"><ele>332.0</ele><time>2026-04-06T09:05:10Z</time></trkpt><trkpt lat="39.49015494358117" lon="16.839673232106453"><ele>333.0</ele><time>2026-04-06T09:05:11Z</time></trkpt><trkpt lat="39.49024165940368" lon="16.83961968844122"><ele>334.0</ele><time>2026-04-06T09:05:12Z</time></trkpt><trkpt lat="39.49031554947963" lon="16.839598852847885"><ele>335.0</ele><time>2026-04-06T09:05:13Z</time></trkpt><trkpt lat="39.490382709754115" lon="16.839572634980065"><ele>335.0</ele><time>2026-04-06T09:05:14Z</time></trkpt><trkpt lat="39.490449612068474" lon="16.83955478666863"><ele>335.0</ele><time>2026-04-06T09:05:15Z</time></trkpt><trkpt lat="39.4905209119704" lon="16.839555124027065"><ele>335.0</ele><time>2026-04-06T09:05:16Z</time></trkpt><trkpt lat="39.49059936957083" lon="16.839566751639435"><ele>335.0</ele><time>2026-04-06T09:05:17Z</time></trkpt><trkpt lat="39.4906905196044" lon="16.839584951777457"><ele>335.0</ele><time>2026-04-06T09:05:18Z</time></trkpt><trkpt lat="39.49079123801996" lon="16.839612767647036"><ele>335.0</ele><time>2026-04-06T09:05:19Z</time></trkpt><trkpt lat="39.49089218394812" lon="16.839652951344853"><ele>335.0</ele><time>2026-04-06T09:05:20Z</time></trkpt><trkpt lat="39.49098011649819" lon="16.839699735583885"><ele>335.0</ele><time>2026-04-06T09:05:21Z</time></trkpt><trkpt lat="39.49107385068286" lon="16.83975394013489"><ele>335.0</ele><time>2026-04-06T09:05:22Z</time></trkpt><trkpt lat="39.49117396735631" lon="16.839811836921275"><ele>335.0</ele><time>2026-04-06T09:05:23Z</time></trkpt><trkpt lat="39.4912670080827" lon="16.839865640514084"><ele>335.0</ele><time>2026-04-06T09:05:24Z</time></trkpt><trkpt lat="39.49135789543641" lon="16.839918198852533"><ele>334.0</ele><time>2026-04-06T09:05:25Z</time></trkpt><trkpt lat="39.49145548787465" lon="16.839971482660925"><ele>333.0</ele><time>2026-04-06T09:05:26Z</time></trkpt><trkpt lat="39.49156667889182" lon="16.840001310795518"><ele>332.0</ele><time>2026-04-06T09:05:27Z</time></trkpt><trkpt lat="39.491664903410964" lon="16.840045776641094"><ele>331.0</ele><time>2026-04-06T09:05:28Z</time></trkpt><trkpt lat="39.49176187294757" lon="16.840070876039373"><ele>330.0</ele><time>2026-04-06T09:05:29Z</time></trkpt><trkpt lat="39.491846243162236" lon="16.840115852105395"><ele>330.0</ele><time>2026-04-06T09:05:30Z</time></trkpt><trkpt lat="39.49194166476198" lon="16.840137627461736"><ele>330.0</ele><time>2026-04-06T09:05:31Z</time></trkpt><trkpt lat="39.49203889210137" lon="16.84013910457983"><ele>330.0</ele><time>2026-04-06T09:05:32Z</time></trkpt><trkpt lat="39.49214396017078" lon="16.84009374535765"><ele>330.0</ele><time>2026-04-06T09:05:33Z</time></trkpt><trkpt lat="39.49225204007158" lon="16.84004610652589"><ele>330.0</ele><time>2026-04-06T09:05:34Z</time></trkpt><trkpt lat="39.49237322892898" lon="16.839983013611615"><ele>330.0</ele><time>2026-04-06T09:05:35Z</time></trkpt><trkpt lat="39.49250320659895" lon="16.83992870223178"><ele>330.0</ele><time>2026-04-06T09:05:36Z</time></trkpt><trkpt lat="39.4926009343912" lon="16.8398362850829"><ele>330.0</ele><time>2026-04-06T09:05:37Z</time></trkpt><trkpt lat="39.49269266777342" lon="16.839788312056807"><ele>330.0</ele><time>2026-04-06T09:05:38Z</time></trkpt><trkpt lat="39.49278462813911" lon="16.839749879523705"><ele>330.0</ele><time>2026-04-06T09:05:39Z</time></trkpt><trkpt lat="39.492889933106945" lon="16.839753958878358"><ele>330.0</ele><time>2026-04-06T09:05:40Z</time></trkpt><trkpt lat="39.49298921498737" lon="16.83976007615945"><ele>330.0</ele><time>2026-04-06T09:05:41Z</time></trkpt><trkpt lat="39.49309667294341" lon="16.839781083805896"><ele>330.0</ele><time>2026-04-06T09:05:42Z</time></trkpt><trkpt lat="39.49320899612229" lon="16.839823233756487"><ele>330.0</ele><time>2026-04-06T09:05:43Z</time></trkpt><trkpt lat="39.49331789100525" lon="16.83988466078838"><ele>329.4</ele><time>2026-04-06T09:05:44Z</time></trkpt><trkpt lat="39.493423680521666" lon="16.83994581174566"><ele>328.8</ele><time>2026-04-06T09:05:45Z</time></trkpt><trkpt lat="39.49353252060239" lon="16.839987665691883"><ele>328.20000000000005</ele><time>2026-04-06T09:05:46Z</time></trkpt><trkpt lat="39.49363519354152" lon="16.84000932557527"><ele>327.6</ele><time>2026-04-06T09:05:47Z</time></trkpt><trkpt lat="39.49374833803905" lon="16.839997572217683"><ele>327.0</ele><time>2026-04-06T09:05:48Z</time></trkpt><trkpt lat="39.49386216384324" lon="16.839947191453277"><ele>325.20000000000005</ele><time>2026-04-06T09:05:49Z</time></trkpt><trkpt lat="39.49397055551723" lon="16.83991147323762"><ele>323.40000000000003</ele><time>2026-04-06T09:05:50Z</time></trkpt><trkpt lat="39.49406329143989" lon="16.839862257378464"><ele>321.6</ele><time>2026-04-06T09:05:51Z</time></trkpt><trkpt lat="39.49414753846317" lon="16.839869567557564"><ele>319.8</ele><time>2026-04-06T09:05:52Z</time></trkpt><trkpt lat="39.49422867464199" lon="16.839930496454617"><ele>318.0</ele><time>2026-04-06T09:05:53Z</time></trkpt><trkpt lat="39.49433054719827" lon="16.83996918317851"><ele>318.0</ele><time>2026-04-06T09:05:54Z</time></trkpt><trkpt lat="39.494455112125785" lon="16.840008147619198"><ele>318.0</ele><time>2026-04-06T09:05:55Z</time></trkpt><trkpt lat="39.494588223134556" lon="16.840022162212076"><ele>318.0</ele><time>2026-04-06T09:05:56Z</time></trkpt><trkpt lat="39.494718684144544" lon="16.840050764380443"><ele>318.0</ele><time>2026-04-06T09:05:57Z</time></trkpt><trkpt lat="39.49484639703951" lon="16.84010539029106"><ele>317.8</ele><time>2026-04-06T09:05:58Z</time></trkpt><trkpt lat="39.49496685933369" lon="16.840153476156445"><ele>317.6</ele><time>2026-04-06T09:05:59Z</time></trkpt><trkpt lat="39.49507519342159" lon="16.84016682318863"><ele>317.4</ele><time>2026-04-06T09:06:00Z</time></trkpt><trkpt lat="39.495165872198065" lon="16.84022144140548"><ele>317.2</ele><time>2026-04-06T09:06:01Z</time></trkpt><trkpt lat="39.49525720153649" lon="16.840280904006875"><ele>317.0</ele><time>2026-04-06T09:06:02Z</time></trkpt><trkpt lat="39.49534521270345" lon="16.840341413228014"><ele>313.0</ele><time>2026-04-06T09:06:03Z</time></trkpt><trkpt lat="39.49543759860102" lon="16.840414392608125"><ele>309.0</ele><time>2026-04-06T09:06:04Z</time></trkpt><trkpt lat="39.49554451089281" lon="16.84048670008259"><ele>305.0</ele><time>2026-04-06T09:06:05Z</time></trkpt><trkpt lat="39.49564863242473" lon="16.840568914544974"><ele>301.0</ele><time>2026-04-06T09:06:06Z</time></trkpt><trkpt lat="39.49575100802518" lon="16.840639160548008"><ele>301.0</ele><time>2026-04-06T09:06:07Z</time></trkpt><trkpt lat="39.495844812341346" lon="16.840711301617922"><ele>301.0</ele><time>2026-04-06T09:06:08Z</time></trkpt><trkpt lat="39.495931128567" lon="16.840778490093456"><ele>301.0</ele><time>2026-04-06T09:06:09Z</time></trkpt><trkpt lat="39.49600096532148" lon="16.840841411252367"><ele>301.0</ele><time>2026-04-06T09:06:10Z</time></trkpt><trkpt lat="39.4960598623241" lon="16.840925902518272"><ele>301.0</ele><time>2026-04-06T09:06:11Z</time></trkpt><trkpt lat="39.49610658966342" lon="16.841015358837335"><ele>298.0</ele><time>2026-04-06T09:06:12Z</time></trkpt><trkpt lat="39.496130937251166" lon="16.841109698803006"><ele>295.0</ele><time>2026-04-06T09:06:13Z</time></trkpt><trkpt lat="39.496110982701296" lon="16.84120855492923"><ele>292.0</ele><time>2026-04-06T09:06:14Z</time></trkpt><trkpt lat="39.49605509844188" lon="16.841299226895476"><ele>289.0</ele><time>2026-04-06T09:06:15Z</time></trkpt><trkpt lat="39.495980572757226" lon="16.841394487990097"><ele>286.0</ele><time>2026-04-06T09:06:16Z</time></trkpt><trkpt lat="39.495896363802906" lon="16.84150036255139"><ele>286.0</ele><time>2026-04-06T09:06:17Z</time></trkpt><trkpt lat="39.49581685807534" lon="16.84162736194823"><ele>286.0</ele><time>2026-04-06T09:06:18Z</time></trkpt><trkpt lat="39.49574214217891" lon="16.841756394605532"><ele>286.0</ele><time>2026-04-06T09:06:19Z</time></trkpt><trkpt lat="39.49566536706348" lon="16.84187452483176"><ele>286.0</ele><time>2026-04-06T09:06:20Z</time></trkpt><trkpt lat="39.4955902835799" lon="16.841991129585356"><ele>286.40000000000003</ele><time>2026-04-06T09:06:21Z</time></trkpt><trkpt lat="39.49551093363591" lon="16.842097860571613"><ele>286.8</ele><time>2026-04-06T09:06:22Z</time></trkpt><trkpt lat="39.49543391210828" lon="16.84220602081755"><ele>287.20000000000005</ele><time>2026-04-06T09:06:23Z</time></trkpt><trkpt lat="39.49535956677132" lon="16.842311923079016"><ele>287.6</ele><time>2026-04-06T09:06:24Z</time></trkpt><trkpt lat="39.4953028076041" lon="16.842408175903884"><ele>288.0</ele><time>2026-04-06T09:06:25Z</time></trkpt><trkpt lat="39.495263339785375" lon="16.842497378504525"><ele>288.0</ele><time>2026-04-06T09:06:26Z</time></trkpt><trkpt lat="39.49522948102631" lon="16.842576513900617"><ele>288.0</ele><time>2026-04-06T09:06:27Z</time></trkpt><trkpt lat="39.49526243108483" lon="16.84267318056425"><ele>288.0</ele><time>2026-04-06T09:06:28Z</time></trkpt><trkpt lat="39.4953033624601" lon="16.842752645411547"><ele>288.0</ele><time>2026-04-06T09:06:29Z</time></trkpt><trkpt lat="39.495368616855096" lon="16.842828886790823"><ele>288.0</ele><time>2026-04-06T09:06:30Z</time></trkpt><trkpt lat="39.49544935893397" lon="16.84291880996733"><ele>288.0</ele><time>2026-04-06T09:06:31Z</time></trkpt><trkpt lat="39.49553634162999" lon="16.843033810060888"><ele>282.25</ele><time>2026-04-06T09:06:32Z</time></trkpt><trkpt lat="39.49562896169753" lon="16.843166052654645"><ele>276.5</ele><time>2026-04-06T09:06:33Z</time></trkpt><trkpt lat="39.49572163708661" lon="16.843302496841225"><ele>270.75</ele><time>2026-04-06T09:06:34Z</time></trkpt><trkpt lat="39.49581765712853" lon="16.843445336370767"><ele>265.0</ele><time>2026-04-06T09:06:35Z</time></trkpt><trkpt lat="39.49591300299826" lon="16.84358602161477"><ele>262.5</ele><time>2026-04-06T09:06:36Z</time></trkpt><trkpt lat="39.496009538991956" lon="16.84372090520089"><ele>260.0</ele><time>2026-04-06T09:06:37Z</time></trkpt><trkpt lat="39.496108857675516" lon="16.84385580072246"><ele>257.5</ele><time>2026-04-06T09:06:38Z</time></trkpt><trkpt lat="39.49620688206784" lon="16.843992194898043"><ele>255.0</ele><time>2026-04-06T09:06:39Z</time></trkpt><trkpt lat="39.49630427692847" lon="16.844124533647324"><ele>254.25</ele><time>2026-04-06T09:06:40Z</time></trkpt><trkpt lat="39.4964100142338" lon="16.844245124093337"><ele>253.5</ele><time>2026-04-06T09:06:41Z</time></trkpt><trkpt lat="39.496519700232064" lon="16.844351629473536"><ele>252.75</ele><time>2026-04-06T09:06:42Z</time></trkpt><trkpt lat="39.49663497015594" lon="16.8444474080154"><ele>252.0</ele><time>2026-04-06T09:06:43Z</time></trkpt><trkpt lat="39.49675184959902" lon="16.844526333022298"><ele>248.25</ele><time>2026-04-06T09:06:44Z</time></trkpt><trkpt lat="39.496870143534935" lon="16.84459515606746"><ele>244.5</ele><time>2026-04-06T09:06:45Z</time></trkpt><trkpt lat="39.49699122111266" lon="16.844643263652234"><ele>240.75</ele><time>2026-04-06T09:06:46Z</time></trkpt><trkpt lat="39.497118306660376" lon="16.844667424136496"><ele>237.0</ele><time>2026-04-06T09:06:47Z</time></trkpt><trkpt lat="39.49723894457627" lon="16.84466943370589"><ele>236.39999999999998</ele><time>2026-04-06T09:06:47.999Z</time></trkpt><trkpt lat="39.49734402502531" lon="16.844671112766747"><ele>235.79999999999998</ele><time>2026-04-06T09:06:48.999Z</time></trkpt><trkpt lat="39.49743596473169" lon="16.84468871236607"><ele>235.2</ele><time>2026-04-06T09:06:49.999Z</time></trkpt><trkpt lat="39.49751824141684" lon="16.84473557739344"><ele>234.6</ele><time>2026-04-06T09:06:50.999Z</time></trkpt><trkpt lat="39.49758360142975" lon="16.84481277798479"><ele>234.0</ele><time>2026-04-06T09:06:51.999Z</time></trkpt><trkpt lat="39.49762813786452" lon="16.844923643223495"><ele>234.0</ele><time>2026-04-06T09:06:53Z</time></trkpt><trkpt lat="39.49764623704927" lon="16.845054717915918"><ele>234.0</ele><time>2026-04-06T09:06:54Z</time></trkpt><trkpt lat="39.49764743380718" lon="16.845200520705486"><ele>234.0</ele><time>2026-04-06T09:06:55Z</time></trkpt><trkpt lat="39.49764744912017" lon="16.845361209081556"><ele>234.0</ele><time>2026-04-06T09:06:56Z</time></trkpt><trkpt lat="39.497648438224815" lon="16.845524978081368"><ele>231.75</ele><time>2026-04-06T09:06:57Z</time></trkpt><trkpt lat="39.49764357653828" lon="16.845696314876555"><ele>229.5</ele><time>2026-04-06T09:06:58Z</time></trkpt><trkpt lat="39.49763370067884" lon="16.845870796368356"><ele>227.25</ele><time>2026-04-06T09:06:59Z</time></trkpt><trkpt lat="39.49761723741773" lon="16.846050199475933"><ele>225.0</ele><time>2026-04-06T09:07:00Z</time></trkpt><trkpt lat="39.49760530599498" lon="16.846228588470897"><ele>223.0</ele><time>2026-04-06T09:07:01Z</time></trkpt><trkpt lat="39.49759683887284" lon="16.84640807534419"><ele>221.0</ele><time>2026-04-06T09:07:02Z</time></trkpt><trkpt lat="39.49758242490061" lon="16.846585621479637"><ele>219.0</ele><time>2026-04-06T09:07:03Z</time></trkpt><trkpt lat="39.497568607159565" lon="16.846764583923356"><ele>217.0</ele><time>2026-04-06T09:07:04Z</time></trkpt><trkpt lat="39.49756062520899" lon="16.846943649275293"><ele>214.75</ele><time>2026-04-06T09:07:05Z</time></trkpt><trkpt lat="39.49755126851741" lon="16.847122096713882"><ele>212.5</ele><time>2026-04-06T09:07:06Z</time></trkpt><trkpt lat="39.497537419927006" lon="16.84729175289425"><ele>210.25</ele><time>2026-04-06T09:07:07Z</time></trkpt><trkpt lat="39.497531751034465" lon="16.847448633900086"><ele>208.0</ele><time>2026-04-06T09:07:08Z</time></trkpt><trkpt lat="39.49753157219891" lon="16.847599715199436"><ele>204.8</ele><time>2026-04-06T09:07:09Z</time></trkpt><trkpt lat="39.49754958610365" lon="16.847740014148567"><ele>201.60000000000002</ele><time>2026-04-06T09:07:10Z</time></trkpt><trkpt lat="39.49758985380631" lon="16.847879165785322"><ele>198.39999999999998</ele><time>2026-04-06T09:07:11Z</time></trkpt><trkpt lat="39.49764787083419" lon="16.847998235119977"><ele>195.2</ele><time>2026-04-06T09:07:12Z</time></trkpt><trkpt lat="39.497728878394916" lon="16.848092162191357"><ele>192.0</ele><time>2026-04-06T09:07:13Z</time></trkpt><trkpt lat="39.49783761001995" lon="16.848156297451418"><ele>190.5</ele><time>2026-04-06T09:07:14Z</time></trkpt><trkpt lat="39.49795922166637" lon="16.848221691567545"><ele>189.0</ele><time>2026-04-06T09:07:15Z</time></trkpt><trkpt lat="39.49809301972494" lon="16.848277487063864"><ele>187.5</ele><time>2026-04-06T09:07:16Z</time></trkpt><trkpt lat="39.49822070378163" lon="16.848330647429737"><ele>186.0</ele><time>2026-04-06T09:07:17Z</time></trkpt><trkpt lat="39.49835398971032" lon="16.848367103409178"><ele>186.0</ele><time>2026-04-06T09:07:18Z</time></trkpt><trkpt lat="39.49848936804722" lon="16.848406785370965"><ele>186.0</ele><time>2026-04-06T09:07:19Z</time></trkpt><trkpt lat="39.49861600235375" lon="16.84843375447696"><ele>186.0</ele><time>2026-04-06T09:07:20Z</time></trkpt><trkpt lat="39.49872612960855" lon="16.848469997622725"><ele>186.0</ele><time>2026-04-06T09:07:21Z</time></trkpt><trkpt lat="39.49882817004609" lon="16.848531018606973"><ele>181.0</ele><time>2026-04-06T09:07:22Z</time></trkpt><trkpt lat="39.49892684781208" lon="16.84861921413282"><ele>176.0</ele><time>2026-04-06T09:07:23Z</time></trkpt><trkpt lat="39.49902107846637" lon="16.848734055298717"><ele>171.0</ele><time>2026-04-06T09:07:24Z</time></trkpt><trkpt lat="39.499105022062054" lon="16.848875469976342"><ele>166.0</ele><time>2026-04-06T09:07:25Z</time></trkpt><trkpt lat="39.49916536751831" lon="16.84901092570788"><ele>166.0</ele><time>2026-04-06T09:07:26Z</time></trkpt><trkpt lat="39.49927505509214" lon="16.8491767805459"><ele>166.0</ele><time>2026-04-06T09:07:27Z</time></trkpt><trkpt lat="39.49936607529769" lon="16.849307304876593"><ele>166.0</ele><time>2026-04-06T09:07:28Z</time></trkpt><trkpt lat="39.49944997347222" lon="16.849453778577782"><ele>166.0</ele><time>2026-04-06T09:07:29Z</time></trkpt><trkpt lat="39.49954456649799" lon="16.849595225136337"><ele>163.25</ele><time>2026-04-06T09:07:30Z</time></trkpt><trkpt lat="39.49964679491901" lon="16.84972956296442"><ele>160.5</ele><time>2026-04-06T09:07:31Z</time></trkpt><trkpt lat="39.49974397644646" lon="16.84987539458844"><ele>157.75</ele><time>2026-04-06T09:07:32Z</time></trkpt><trkpt lat="39.499837983430304" lon="16.85002285732146"><ele>155.0</ele><time>2026-04-06T09:07:33Z</time></trkpt><trkpt lat="39.49992706168737" lon="16.850173744423714"><ele>155.0</ele><time>2026-04-06T09:07:34Z</time></trkpt><trkpt lat="39.499963286480266" lon="16.850355592013074"><ele>155.0</ele><time>2026-04-06T09:07:35Z</time></trkpt><trkpt lat="39.50000880500944" lon="16.8505336524057"><ele>155.0</ele><time>2026-04-06T09:07:36Z</time></trkpt><trkpt lat="39.50005935218864" lon="16.850721066369513"><ele>155.0</ele><time>2026-04-06T09:07:37Z</time></trkpt><trkpt lat="39.50009749794407" lon="16.85089546384444"><ele>154.5</ele><time>2026-04-06T09:07:38Z</time></trkpt><trkpt lat="39.50013667496304" lon="16.85105402479397"><ele>154.0</ele><time>2026-04-06T09:07:39Z</time></trkpt><trkpt lat="39.500170924329794" lon="16.851203736643384"><ele>153.5</ele><time>2026-04-06T09:07:40Z</time></trkpt><trkpt lat="39.50020054400654" lon="16.85135949385161"><ele>153.0</ele><time>2026-04-06T09:07:41Z</time></trkpt><trkpt lat="39.50022658341099" lon="16.851530625752964"><ele>153.0</ele><time>2026-04-06T09:07:42Z</time></trkpt><trkpt lat="39.50024656413839" lon="16.851716358838996"><ele>153.0</ele><time>2026-04-06T09:07:43Z</time></trkpt><trkpt lat="39.5002598208778" lon="16.851916145138482"><ele>153.0</ele><time>2026-04-06T09:07:44Z</time></trkpt><trkpt lat="39.50026453285001" lon="16.8521322235856"><ele>151.0</ele><time>2026-04-06T09:07:45Z</time></trkpt><trkpt lat="39.50027994945249" lon="16.85235486920588"><ele>149.0</ele><time>2026-04-06T09:07:46Z</time></trkpt><trkpt lat="39.50029875111302" lon="16.85256861314518"><ele>147.0</ele><time>2026-04-06T09:07:47Z</time></trkpt><trkpt lat="39.50030014592554" lon="16.852780201950686"><ele>145.25</ele><time>2026-04-06T09:07:48Z</time></trkpt><trkpt lat="39.500343402406486" lon="16.85297183642628"><ele>143.5</ele><time>2026-04-06T09:07:49Z</time></trkpt><trkpt lat="39.50036886988948" lon="16.85315557147012"><ele>141.75</ele><time>2026-04-06T09:07:50Z</time></trkpt><trkpt lat="39.50040177130088" lon="16.853342727313947"><ele>140.0</ele><time>2026-04-06T09:07:51Z</time></trkpt><trkpt lat="39.500430288520754" lon="16.85352341031063"><ele>137.0</ele><time>2026-04-06T09:07:52Z</time></trkpt><trkpt lat="39.50045101754998" lon="16.85370029406064"><ele>134.0</ele><time>2026-04-06T09:07:53Z</time></trkpt><trkpt lat="39.50047158403468" lon="16.853877175399436"><ele>131.0</ele><time>2026-04-06T09:07:54Z</time></trkpt><trkpt lat="39.500484576539364" lon="16.85405305913989"><ele>128.0</ele><time>2026-04-06T09:07:55Z</time></trkpt><trkpt lat="39.50048334440475" lon="16.854233632425032"><ele>126.25</ele><time>2026-04-06T09:07:56Z</time></trkpt><trkpt lat="39.500489395934025" lon="16.854408466211247"><ele>124.5</ele><time>2026-04-06T09:07:57Z</time></trkpt><trkpt lat="39.50049828830328" lon="16.854580913179415"><ele>122.75</ele><time>2026-04-06T09:07:58Z</time></trkpt><trkpt lat="39.500510923264436" lon="16.854747374557167"><ele>121.0</ele><time>2026-04-06T09:07:59Z</time></trkpt><trkpt lat="39.50051173659026" lon="16.854917688025015"><ele>121.0</ele><time>2026-04-06T09:08:00Z</time></trkpt><trkpt lat="39.50050385079015" lon="16.855075924413732"><ele>121.0</ele><time>2026-04-06T09:08:01Z</time></trkpt><trkpt lat="39.50047647414771" lon="16.85523060778304"><ele>121.0</ele><time>2026-04-06T09:08:02Z</time></trkpt><trkpt lat="39.50044530237672" lon="16.855383481287642"><ele>121.0</ele><time>2026-04-06T09:08:03Z</time></trkpt><trkpt lat="39.500425949459654" lon="16.855540256477735"><ele>119.25</ele><time>2026-04-06T09:08:04Z</time></trkpt><trkpt lat="39.500404822378655" lon="16.855707890730667"><ele>117.5</ele><time>2026-04-06T09:08:05Z</time></trkpt><trkpt lat="39.50037404591355" lon="16.855889778960897"><ele>115.75</ele><time>2026-04-06T09:08:06Z</time></trkpt><trkpt lat="39.50034708040049" lon="16.85606759051693"><ele>114.0</ele><time>2026-04-06T09:08:07Z</time></trkpt><trkpt lat="39.50033050534253" lon="16.85624709245622"><ele>112.5</ele><time>2026-04-06T09:08:08Z</time></trkpt><trkpt lat="39.50031416379373" lon="16.856428283154273"><ele>111.0</ele><time>2026-04-06T09:08:09Z</time></trkpt><trkpt lat="39.500300651887436" lon="16.85660678082533"><ele>109.5</ele><time>2026-04-06T09:08:10Z</time></trkpt><trkpt lat="39.500283600259976" lon="16.856778724744416"><ele>108.0</ele><time>2026-04-06T09:08:11Z</time></trkpt><trkpt lat="39.50026802459133" lon="16.85694452859135"><ele>106.75</ele><time>2026-04-06T09:08:12Z</time></trkpt><trkpt lat="39.50025436451874" lon="16.85710453199615"><ele>105.5</ele><time>2026-04-06T09:08:13Z</time></trkpt><trkpt lat="39.50024112475287" lon="16.857263021407284"><ele>104.25</ele><time>2026-04-06T09:08:14Z</time></trkpt><trkpt lat="39.50023440766399" lon="16.85743469244037"><ele>103.0</ele><time>2026-04-06T09:08:15Z</time></trkpt><trkpt lat="39.5002245965283" lon="16.857617092039277"><ele>101.5</ele><time>2026-04-06T09:08:16Z</time></trkpt><trkpt lat="39.50021030810961" lon="16.857805420443423"><ele>100.0</ele><time>2026-04-06T09:08:17Z</time></trkpt><trkpt lat="39.500201633700875" lon="16.857994930754042"><ele>98.5</ele><time>2026-04-06T09:08:18Z</time></trkpt><trkpt lat="39.50019410896422" lon="16.85818222120283"><ele>97.0</ele><time>2026-04-06T09:08:19Z</time></trkpt><trkpt lat="39.50019006383532" lon="16.858371797025693"><ele>93.33333333333334</ele><time>2026-04-06T09:08:20Z</time></trkpt><trkpt lat="39.50019092507581" lon="16.85856678818225"><ele>89.66666666666667</ele><time>2026-04-06T09:08:21Z</time></trkpt><trkpt lat="39.500192664594216" lon="16.858763733988646"><ele>86.0</ele><time>2026-04-06T09:08:22Z</time></trkpt><trkpt lat="39.50018385602126" lon="16.85896211866406"><ele>86.0</ele><time>2026-04-06T09:08:23Z</time></trkpt><trkpt lat="39.50016670029909" lon="16.859148017996137"><ele>86.0</ele><time>2026-04-06T09:08:24Z</time></trkpt><trkpt lat="39.500151242361504" lon="16.859322008921687"><ele>86.0</ele><time>2026-04-06T09:08:25Z</time></trkpt><trkpt lat="39.500142318304356" lon="16.85948481211716"><ele>86.0</ele><time>2026-04-06T09:08:26Z</time></trkpt><trkpt lat="39.500138230342294" lon="16.859647144416698"><ele>83.75</ele><time>2026-04-06T09:08:27Z</time></trkpt><trkpt lat="39.50013681559837" lon="16.85980011118346"><ele>81.5</ele><time>2026-04-06T09:08:28Z</time></trkpt><trkpt lat="39.500144081155796" lon="16.859951571259764"><ele>79.25</ele><time>2026-04-06T09:08:29Z</time></trkpt><trkpt lat="39.500147778746076" lon="16.86010296296487"><ele>77.0</ele><time>2026-04-06T09:08:30Z</time></trkpt><trkpt lat="39.50014075397753" lon="16.860257501985355"><ele>76.0</ele><time>2026-04-06T09:08:31Z</time></trkpt><trkpt lat="39.50011212292606" lon="16.860411066150885"><ele>75.0</ele><time>2026-04-06T09:08:32Z</time></trkpt><trkpt lat="39.5000651695494" lon="16.86056162595004"><ele>74.0</ele><time>2026-04-06T09:08:33Z</time></trkpt><trkpt lat="39.499998959388066" lon="16.86070778463668"><ele>73.0</ele><time>2026-04-06T09:08:34Z</time></trkpt><trkpt lat="39.49992668162757" lon="16.860852568291463"><ele>73.0</ele><time>2026-04-06T09:08:35Z</time></trkpt><trkpt lat="39.49985171148692" lon="16.860982668854508"><ele>73.0</ele><time>2026-04-06T09:08:36Z</time></trkpt><trkpt lat="39.49977373322509" lon="16.861099133414005"><ele>73.0</ele><time>2026-04-06T09:08:37Z</time></trkpt><trkpt lat="39.499702675104366" lon="16.861208800773532"><ele>73.0</ele><time>2026-04-06T09:08:37.999Z</time></trkpt><trkpt lat="39.49964481485415" lon="16.861307415651602"><ele>73.0</ele><time>2026-04-06T09:08:38.999Z</time></trkpt><trkpt lat="39.499588660645685" lon="16.861396217681406"><ele>73.0</ele><time>2026-04-06T09:08:39.999Z</time></trkpt><trkpt lat="39.49954205588587" lon="16.86149186510937"><ele>73.0</ele><time>2026-04-06T09:08:40.999Z</time></trkpt><trkpt lat="39.49949194582344" lon="16.86157765866648"><ele>73.0</ele><time>2026-04-06T09:08:41.999Z</time></trkpt><trkpt lat="39.499454260857746" lon="16.861649987367393"><ele>73.0</ele><time>2026-04-06T09:08:42.999Z</time></trkpt><trkpt lat="39.49940591051318" lon="16.861752548844592"><ele>73.0</ele><time>2026-04-06T09:08:44.999Z</time></trkpt><trkpt lat="39.49934316257859" lon="16.86183238048314"><ele>72.75</ele><time>2026-04-06T09:08:47.999Z</time></trkpt><trkpt lat="39.49944771381937" lon="16.862017647841597"><ele>72.5</ele><time>2026-04-06T09:08:50.999Z</time></trkpt><trkpt lat="39.499528523726724" lon="16.862091363124474"><ele>72.25</ele><time>2026-04-06T09:08:52.999Z</time></trkpt><trkpt lat="39.49962497691241" lon="16.8621882164282"><ele>72.0</ele><time>2026-04-06T09:08:54.999Z</time></trkpt><trkpt lat="39.49967598697002" lon="16.862239975352292"><ele>72.0</ele><time>2026-04-06T09:08:55.999Z</time></trkpt><trkpt lat="39.49973127492395" lon="16.86229050705338"><ele>72.0</ele><time>2026-04-06T09:08:56.999Z</time></trkpt><trkpt lat="39.49978656340281" lon="16.862345509087838"><ele>72.0</ele><time>2026-04-06T09:08:57.999Z</time></trkpt><trkpt lat="39.499843342457304" lon="16.8624009076506"><ele>72.0</ele><time>2026-04-06T09:08:59Z</time></trkpt><trkpt lat="39.49990487255211" lon="16.862457234181655"><ele>72.0</ele><time>2026-04-06T09:09:00Z</time></trkpt><trkpt lat="39.49997692955475" lon="16.86253406926674"><ele>72.0</ele><time>2026-04-06T09:09:01Z</time></trkpt><trkpt lat="39.500064609365054" lon="16.862619806337467"><ele>71.5</ele><time>2026-04-06T09:09:02Z</time></trkpt><trkpt lat="39.50016363341912" lon="16.862715046360375"><ele>71.0</ele><time>2026-04-06T09:09:03Z</time></trkpt><trkpt lat="39.50026611774345" lon="16.86281800044039"><ele>70.5</ele><time>2026-04-06T09:09:04Z</time></trkpt><trkpt lat="39.50037162397453" lon="16.862923107482214"><ele>70.0</ele><time>2026-04-06T09:09:05Z</time></trkpt><trkpt lat="39.50047888986096" lon="16.863022908041728"><ele>68.25</ele><time>2026-04-06T09:09:06Z</time></trkpt><trkpt lat="39.50058572418952" lon="16.86313115018938"><ele>66.5</ele><time>2026-04-06T09:09:07Z</time></trkpt><trkpt lat="39.50069100004876" lon="16.863233941425168"><ele>64.75</ele><time>2026-04-06T09:09:08Z</time></trkpt><trkpt lat="39.50079179044272" lon="16.863331350955438"><ele>63.0</ele><time>2026-04-06T09:09:09Z</time></trkpt><trkpt lat="39.50088693512955" lon="16.863425302666343"><ele>63.0</ele><time>2026-04-06T09:09:10Z</time></trkpt><trkpt lat="39.500976969033175" lon="16.86351613408558"><ele>63.0</ele><time>2026-04-06T09:09:11Z</time></trkpt><trkpt lat="39.50106625421869" lon="16.863606379598036"><ele>63.0</ele><time>2026-04-06T09:09:12Z</time></trkpt><trkpt lat="39.501154851755004" lon="16.86369357443979"><ele>63.0</ele><time>2026-04-06T09:09:13Z</time></trkpt><trkpt lat="39.50124904064746" lon="16.86378555140287"><ele>63.0</ele><time>2026-04-06T09:09:14Z</time></trkpt><trkpt lat="39.501345581612355" lon="16.863877909851965"><ele>63.0</ele><time>2026-04-06T09:09:15Z</time></trkpt><trkpt lat="39.501444783223036" lon="16.8639771397757"><ele>63.0</ele><time>2026-04-06T09:09:16Z</time></trkpt><trkpt lat="39.50154699142317" lon="16.864082551906478"><ele>63.0</ele><time>2026-04-06T09:09:17Z</time></trkpt><trkpt lat="39.50164895831028" lon="16.864187820594704"><ele>61.5</ele><time>2026-04-06T09:09:18Z</time></trkpt><trkpt lat="39.50174997965109" lon="16.864286205848924"><ele>60.0</ele><time>2026-04-06T09:09:19Z</time></trkpt><trkpt lat="39.501847942662764" lon="16.864380597581228"><ele>58.5</ele><time>2026-04-06T09:09:20Z</time></trkpt><trkpt lat="39.5019453939685" lon="16.86447069957976"><ele>57.0</ele><time>2026-04-06T09:09:21Z</time></trkpt><trkpt lat="39.50203438532992" lon="16.864573035833875"><ele>58.25</ele><time>2026-04-06T09:09:22Z</time></trkpt><trkpt lat="39.50213833640436" lon="16.864653707338512"><ele>59.5</ele><time>2026-04-06T09:09:23Z</time></trkpt><trkpt lat="39.50224958374696" lon="16.86473373318164"><ele>60.75</ele><time>2026-04-06T09:09:24Z</time></trkpt><trkpt lat="39.502363435489954" lon="16.864809848863608"><ele>62.0</ele><time>2026-04-06T09:09:25Z</time></trkpt><trkpt lat="39.50248153852606" lon="16.864885188004372"><ele>62.0</ele><time>2026-04-06T09:09:26Z</time></trkpt><trkpt lat="39.50261050887772" lon="16.864953799260118"><ele>62.0</ele><time>2026-04-06T09:09:27Z</time></trkpt><trkpt lat="39.502746601756215" lon="16.865014333920513"><ele>62.0</ele><time>2026-04-06T09:09:28Z</time></trkpt><trkpt lat="39.502889692503594" lon="16.865070816456875"><ele>62.0</ele><time>2026-04-06T09:09:29Z</time></trkpt><trkpt lat="39.50303310319413" lon="16.86510140881319"><ele>60.75</ele><time>2026-04-06T09:09:30Z</time></trkpt><trkpt lat="39.50317315150468" lon="16.86515246711698"><ele>59.5</ele><time>2026-04-06T09:09:31Z</time></trkpt><trkpt lat="39.503315243323925" lon="16.865202256862506"><ele>58.25</ele><time>2026-04-06T09:09:32Z</time></trkpt><trkpt lat="39.50346172035179" lon="16.865258660651268"><ele>57.0</ele><time>2026-04-06T09:09:33Z</time></trkpt><trkpt lat="39.50361085526158" lon="16.865309276635315"><ele>57.75</ele><time>2026-04-06T09:09:34Z</time></trkpt><trkpt lat="39.50375796070062" lon="16.865361339953036"><ele>58.5</ele><time>2026-04-06T09:09:35Z</time></trkpt><trkpt lat="39.5038955707372" lon="16.86540608812388"><ele>59.25</ele><time>2026-04-06T09:09:36Z</time></trkpt><trkpt lat="39.504017022133006" lon="16.865468176016293"><ele>60.0</ele><time>2026-04-06T09:09:37Z</time></trkpt><trkpt lat="39.5041350617581" lon="16.86550932117585"><ele>60.0</ele><time>2026-04-06T09:09:38Z</time></trkpt><trkpt lat="39.504259888766356" lon="16.865532640927338"><ele>60.0</ele><time>2026-04-06T09:09:39Z</time></trkpt><trkpt lat="39.504382680524756" lon="16.865595510098245"><ele>60.0</ele><time>2026-04-06T09:09:40Z</time></trkpt><trkpt lat="39.50450804814489" lon="16.865639146924266"><ele>60.0</ele><time>2026-04-06T09:09:41Z</time></trkpt><trkpt lat="39.504631594769286" lon="16.865682139334915"><ele>60.25</ele><time>2026-04-06T09:09:42Z</time></trkpt><trkpt lat="39.50474830959819" lon="16.865722633200132"><ele>60.5</ele><time>2026-04-06T09:09:43Z</time></trkpt><trkpt lat="39.50486377421385" lon="16.865740555914403"><ele>60.75</ele><time>2026-04-06T09:09:44Z</time></trkpt><trkpt lat="39.50497785825715" lon="16.865779077885556"><ele>61.0</ele><time>2026-04-06T09:09:45Z</time></trkpt><trkpt lat="39.505095701192005" lon="16.865840651256043"><ele>61.0</ele><time>2026-04-06T09:09:46Z</time></trkpt><trkpt lat="39.505224123842126" lon="16.865874612259464"><ele>61.0</ele><time>2026-04-06T09:09:47Z</time></trkpt><trkpt lat="39.50535444872607" lon="16.865910712788402"><ele>61.0</ele><time>2026-04-06T09:09:48Z</time></trkpt><trkpt lat="39.50548546997617" lon="16.86595808537776"><ele>61.0</ele><time>2026-04-06T09:09:49Z</time></trkpt><trkpt lat="39.50562300550805" lon="16.866000468733745"><ele>58.5</ele><time>2026-04-06T09:09:50Z</time></trkpt><trkpt lat="39.505756205279035" lon="16.8660442310495"><ele>56.0</ele><time>2026-04-06T09:09:51Z</time></trkpt><trkpt lat="39.50589084474764" lon="16.866085555339303"><ele>53.5</ele><time>2026-04-06T09:09:52Z</time></trkpt><trkpt lat="39.506027988109864" lon="16.866129214899395"><ele>51.0</ele><time>2026-04-06T09:09:53Z</time></trkpt><trkpt lat="39.506163346535025" lon="16.866170529389514"><ele>51.0</ele><time>2026-04-06T09:09:54Z</time></trkpt><trkpt lat="39.50629983502743" lon="16.866212583675026"><ele>51.0</ele><time>2026-04-06T09:09:55Z</time></trkpt><trkpt lat="39.50643489016834" lon="16.866254675063672"><ele>51.0</ele><time>2026-04-06T09:09:56Z</time></trkpt><trkpt lat="39.506561468001664" lon="16.866319862035834"><ele>51.0</ele><time>2026-04-06T09:09:57Z</time></trkpt><trkpt lat="39.50668442929189" lon="16.866363971960176"><ele>51.0</ele><time>2026-04-06T09:09:58Z</time></trkpt><trkpt lat="39.50679603972573" lon="16.866406076248698"><ele>51.0</ele><time>2026-04-06T09:09:59Z</time></trkpt><trkpt lat="39.506907620197346" lon="16.86645274935474"><ele>51.0</ele><time>2026-04-06T09:10:00Z</time></trkpt><trkpt lat="39.50701864125382" lon="16.86650898887312"><ele>51.0</ele><time>2026-04-06T09:10:01Z</time></trkpt><trkpt lat="39.50713736123715" lon="16.86656666631461"><ele>51.25</ele><time>2026-04-06T09:10:02Z</time></trkpt><trkpt lat="39.50724903299897" lon="16.866661801760007"><ele>51.5</ele><time>2026-04-06T09:10:03Z</time></trkpt><trkpt lat="39.50735447948623" lon="16.86677742702788"><ele>51.75</ele><time>2026-04-06T09:10:04Z</time></trkpt><trkpt lat="39.50745508822795" lon="16.866906152211364"><ele>52.0</ele><time>2026-04-06T09:10:05Z</time></trkpt><trkpt lat="39.50754836865564" lon="16.86702061781251"><ele>51.0</ele><time>2026-04-06T09:10:06Z</time></trkpt><trkpt lat="39.50764224709201" lon="16.86712427378497"><ele>50.0</ele><time>2026-04-06T09:10:07Z</time></trkpt><trkpt lat="39.50772670707486" lon="16.867227679040354"><ele>49.0</ele><time>2026-04-06T09:10:08Z</time></trkpt><trkpt lat="39.50781542952732" lon="16.86733441511263"><ele>48.0</ele><time>2026-04-06T09:10:09Z</time></trkpt><trkpt lat="39.50789629114409" lon="16.86745738691582"><ele>47.75</ele><time>2026-04-06T09:10:10Z</time></trkpt><trkpt lat="39.50798910513581" lon="16.86757080346008"><ele>47.5</ele><time>2026-04-06T09:10:11Z</time></trkpt><trkpt lat="39.50809476590556" lon="16.867701745818803"><ele>47.25</ele><time>2026-04-06T09:10:12Z</time></trkpt><trkpt lat="39.50820208144089" lon="16.867833607504643"><ele>47.0</ele><time>2026-04-06T09:10:13Z</time></trkpt><trkpt lat="39.50832583762857" lon="16.86798455142477"><ele>47.0</ele><time>2026-04-06T09:10:14Z</time></trkpt><trkpt lat="39.50843240862139" lon="16.868113571406774"><ele>47.0</ele><time>2026-04-06T09:10:15Z</time></trkpt><trkpt lat="39.50852851292522" lon="16.86822991990819"><ele>47.0</ele><time>2026-04-06T09:10:16Z</time></trkpt><trkpt lat="39.508621466661815" lon="16.868343323051874"><ele>47.0</ele><time>2026-04-06T09:10:17Z</time></trkpt><trkpt lat="39.5087191164504" lon="16.868470270211716"><ele>47.0</ele><time>2026-04-06T09:10:18Z</time></trkpt><trkpt lat="39.50880377980438" lon="16.868592628520158"><ele>47.0</ele><time>2026-04-06T09:10:19Z</time></trkpt><trkpt lat="39.50887836058745" lon="16.86870614378044"><ele>47.0</ele><time>2026-04-06T09:10:20Z</time></trkpt><trkpt lat="39.50895402735736" lon="16.868827255373983"><ele>47.0</ele><time>2026-04-06T09:10:21Z</time></trkpt><trkpt lat="39.50902958567945" lon="16.868954384074684"><ele>47.0</ele><time>2026-04-06T09:10:22Z</time></trkpt><trkpt lat="39.509106534824724" lon="16.869095251053906"><ele>47.0</ele><time>2026-04-06T09:10:23Z</time></trkpt><trkpt lat="39.50918363675255" lon="16.869241041262267"><ele>47.0</ele><time>2026-04-06T09:10:24Z</time></trkpt><trkpt lat="39.509278600782906" lon="16.86938734919151"><ele>47.0</ele><time>2026-04-06T09:10:25Z</time></trkpt><trkpt lat="39.50935243927791" lon="16.869557885911153"><ele>46.5</ele><time>2026-04-06T09:10:26Z</time></trkpt><trkpt lat="39.50943263603118" lon="16.869708122832268"><ele>46.0</ele><time>2026-04-06T09:10:27Z</time></trkpt><trkpt lat="39.509509722654286" lon="16.869853559593782"><ele>45.5</ele><time>2026-04-06T09:10:28Z</time></trkpt><trkpt lat="39.50958356631788" lon="16.869992472403965"><ele>45.0</ele><time>2026-04-06T09:10:29Z</time></trkpt><trkpt lat="39.50964877098911" lon="16.870114244258534"><ele>46.0</ele><time>2026-04-06T09:10:30Z</time></trkpt><trkpt lat="39.50971142651407" lon="16.870231255465065"><ele>47.0</ele><time>2026-04-06T09:10:31Z</time></trkpt><trkpt lat="39.50976907884356" lon="16.870338923072506"><ele>48.0</ele><time>2026-04-06T09:10:32Z</time></trkpt><trkpt lat="39.50982318867465" lon="16.870439974951214"><ele>49.0</ele><time>2026-04-06T09:10:33Z</time></trkpt><trkpt lat="39.509874605403844" lon="16.87053599735635"><ele>50.0</ele><time>2026-04-06T09:10:34Z</time></trkpt><trkpt lat="39.50993062262207" lon="16.87064061133903"><ele>50.0</ele><time>2026-04-06T09:10:35Z</time></trkpt><trkpt lat="39.50999058549503" lon="16.870751424574653"><ele>50.0</ele><time>2026-04-06T09:10:36Z</time></trkpt><trkpt lat="39.51005666554027" lon="16.870873040906968"><ele>50.0</ele><time>2026-04-06T09:10:37Z</time></trkpt><trkpt lat="39.51012905111847" lon="16.871006261787127"><ele>50.0</ele><time>2026-04-06T09:10:38Z</time></trkpt><trkpt lat="39.510206855551154" lon="16.871149206115696"><ele>51.25</ele><time>2026-04-06T09:10:39Z</time></trkpt><trkpt lat="39.51028938615142" lon="16.871299519750075"><ele>52.5</ele><time>2026-04-06T09:10:40Z</time></trkpt><trkpt lat="39.51037686877786" lon="16.87145885399909"><ele>53.75</ele><time>2026-04-06T09:10:41Z</time></trkpt><trkpt lat="39.51046339990064" lon="16.871615326985793"><ele>55.0</ele><time>2026-04-06T09:10:42Z</time></trkpt><trkpt lat="39.51054286239056" lon="16.871758494474044"><ele>52.75</ele><time>2026-04-06T09:10:43Z</time></trkpt><trkpt lat="39.51062267533762" lon="16.871902293378454"><ele>50.5</ele><time>2026-04-06T09:10:44Z</time></trkpt><trkpt lat="39.51071258852155" lon="16.872031711801164"><ele>48.25</ele><time>2026-04-06T09:10:45Z</time></trkpt><trkpt lat="39.51078622429329" lon="16.87216625332254"><ele>46.0</ele><time>2026-04-06T09:10:46Z</time></trkpt><trkpt lat="39.51085604463971" lon="16.872293460295275"><ele>46.0</ele><time>2026-04-06T09:10:47Z</time></trkpt><trkpt lat="39.51090796766616" lon="16.872432450565036"><ele>46.0</ele><time>2026-04-06T09:10:47.999Z</time></trkpt><trkpt lat="39.510981206157375" lon="16.87257043005403"><ele>46.0</ele><time>2026-04-06T09:10:48.999Z</time></trkpt><trkpt lat="39.51107440941881" lon="16.87269657357101"><ele>46.0</ele><time>2026-04-06T09:10:49.999Z</time></trkpt><trkpt lat="39.511167511628564" lon="16.87282996047805"><ele>46.25</ele><time>2026-04-06T09:10:50.999Z</time></trkpt><trkpt lat="39.51127972630267" lon="16.872954081460943"><ele>46.5</ele><time>2026-04-06T09:10:51.999Z</time></trkpt><trkpt lat="39.5114031240597" lon="16.873057519885226"><ele>46.75</ele><time>2026-04-06T09:10:52.999Z</time></trkpt><trkpt lat="39.51152986033116" lon="16.87313597893004"><ele>47.0</ele><time>2026-04-06T09:10:53.999Z</time></trkpt><trkpt lat="39.511645190850636" lon="16.873190546397712"><ele>47.0</ele><time>2026-04-06T09:10:54.999Z</time></trkpt><trkpt lat="39.51174970923346" lon="16.873244554653862"><ele>47.0</ele><time>2026-04-06T09:10:55.999Z</time></trkpt><trkpt lat="39.511839539250076" lon="16.87331247202468"><ele>47.0</ele><time>2026-04-06T09:10:56.999Z</time></trkpt><trkpt lat="39.51193633405276" lon="16.873360699957132"><ele>47.0</ele><time>2026-04-06T09:10:57.999Z</time></trkpt><trkpt lat="39.512035443737524" lon="16.87340863878837"><ele>47.0</ele><time>2026-04-06T09:10:58.999Z</time></trkpt><trkpt lat="39.512130402754764" lon="16.87345387074584"><ele>47.2</ele><time>2026-04-06T09:10:59.999Z</time></trkpt><trkpt lat="39.51221530129649" lon="16.873493059496692"><ele>47.400000000000006</ele><time>2026-04-06T09:11:00.999Z</time></trkpt><trkpt lat="39.51229199638421" lon="16.873527205026"><ele>47.599999999999994</ele><time>2026-04-06T09:11:01.999Z</time></trkpt><trkpt lat="39.51235835885047" lon="16.873556750349255"><ele>47.8</ele><time>2026-04-06T09:11:02.999Z</time></trkpt><trkpt lat="39.512470771652794" lon="16.873607881678968"><ele>48.0</ele><time>2026-04-06T09:11:05Z</time></trkpt><trkpt lat="39.51255435685469" lon="16.873650142589064"><ele>48.0</ele><time>2026-04-06T09:11:07Z</time></trkpt><trkpt lat="39.51265183175089" lon="16.873705808426397"><ele>48.0</ele><time>2026-04-06T09:11:09Z</time></trkpt><trkpt lat="39.51270217978044" lon="16.87376081032981"><ele>48.0</ele><time>2026-04-06T09:11:10Z</time></trkpt><trkpt lat="39.512729829962325" lon="16.873842798839064"><ele>48.0</ele><time>2026-04-06T09:11:11Z</time></trkpt><trkpt lat="39.512753550467274" lon="16.87392933767433"><ele>48.0</ele><time>2026-04-06T09:11:12Z</time></trkpt><trkpt lat="39.51275654704572" lon="16.874022136739182"><ele>48.0</ele><time>2026-04-06T09:11:13Z</time></trkpt><trkpt lat="39.51274621151652" lon="16.874118865248807"><ele>48.0</ele><time>2026-04-06T09:11:14Z</time></trkpt><trkpt lat="39.51273614427705" lon="16.874229527053462"><ele>48.0</ele><time>2026-04-06T09:11:15Z</time></trkpt><trkpt lat="39.51270521798765" lon="16.87434678007665"><ele>48.0</ele><time>2026-04-06T09:11:16Z</time></trkpt><trkpt lat="39.51268034422997" lon="16.874467511160393"><ele>48.0</ele><time>2026-04-06T09:11:17Z</time></trkpt><trkpt lat="39.512650862471936" lon="16.87458469481598"><ele>48.0</ele><time>2026-04-06T09:11:18Z</time></trkpt><trkpt lat="39.51262807333783" lon="16.874700013959664"><ele>48.666666666666664</ele><time>2026-04-06T09:11:19Z</time></trkpt><trkpt lat="39.51260527278676" lon="16.874807355870992"><ele>49.33333333333333</ele><time>2026-04-06T09:11:20Z</time></trkpt><trkpt lat="39.51256870665088" lon="16.874899680684887"><ele>50.0</ele><time>2026-04-06T09:11:21Z</time></trkpt><trkpt lat="39.51251736246096" lon="16.874979722857"><ele>50.666666666666664</ele><time>2026-04-06T09:11:22Z</time></trkpt><trkpt lat="39.51244946333321" lon="16.87503307025518"><ele>51.33333333333333</ele><time>2026-04-06T09:11:23Z</time></trkpt><trkpt lat="39.51237385207137" lon="16.875055692805866"><ele>52.0</ele><time>2026-04-06T09:11:24Z</time></trkpt><trkpt lat="39.51229535963551" lon="16.875033935468316"><ele>52.0</ele><time>2026-04-06T09:11:25Z</time></trkpt><trkpt lat="39.51221379079435" lon="16.87499677974427"><ele>52.0</ele><time>2026-04-06T09:11:26Z</time></trkpt><trkpt lat="39.51212554462908" lon="16.87495816783103"><ele>52.0</ele><time>2026-04-06T09:11:27Z</time></trkpt><trkpt lat="39.512030548587354" lon="16.874913036576043"><ele>52.0</ele><time>2026-04-06T09:11:28Z</time></trkpt><trkpt lat="39.51193340795077" lon="16.8748703827072"><ele>52.0</ele><time>2026-04-06T09:11:29Z</time></trkpt><trkpt lat="39.511838473932606" lon="16.874838955264075"><ele>53.33333333333333</ele><time>2026-04-06T09:11:30Z</time></trkpt><trkpt lat="39.511754348634106" lon="16.87482508808154"><ele>54.666666666666664</ele><time>2026-04-06T09:11:31Z</time></trkpt><trkpt lat="39.51168649402577" lon="16.874840814892195"><ele>56.0</ele><time>2026-04-06T09:11:32Z</time></trkpt><trkpt lat="39.511633749355944" lon="16.87488816886301"><ele>57.33333333333333</ele><time>2026-04-06T09:11:33Z</time></trkpt><trkpt lat="39.511599605166815" lon="16.874958683245598"><ele>58.666666666666664</ele><time>2026-04-06T09:11:34Z</time></trkpt><trkpt lat="39.51162937298629" lon="16.87508462604551"><ele>60.0</ele><time>2026-04-06T09:11:36Z</time></trkpt><trkpt lat="39.51173042973977" lon="16.875149178311204"><ele>60.833333333333336</ele><time>2026-04-06T09:11:38Z</time></trkpt><trkpt lat="39.511791102375355" lon="16.875174901083774"><ele>61.66666666666667</ele><time>2026-04-06T09:11:39Z</time></trkpt><trkpt lat="39.51184879157279" lon="16.87522299621541"><ele>62.5</ele><time>2026-04-06T09:11:40Z</time></trkpt><trkpt lat="39.51191902163474" lon="16.87523665064601"><ele>63.333333333333336</ele><time>2026-04-06T09:11:41Z</time></trkpt><trkpt lat="39.51198891276649" lon="16.875275475531964"><ele>64.16666666666667</ele><time>2026-04-06T09:11:42Z</time></trkpt><trkpt lat="39.512052648613775" lon="16.875344182250778"><ele>65.0</ele><time>2026-04-06T09:11:43Z</time></trkpt><trkpt lat="39.51212212686015" lon="16.875417472494696"><ele>65.0</ele><time>2026-04-06T09:11:44Z</time></trkpt><trkpt lat="39.51219498708881" lon="16.87550229776829"><ele>65.0</ele><time>2026-04-06T09:11:45Z</time></trkpt><trkpt lat="39.5122713134864" lon="16.87559315890002"><ele>65.0</ele><time>2026-04-06T09:11:46Z</time></trkpt><trkpt lat="39.51234972287351" lon="16.87568991081659"><ele>65.0</ele><time>2026-04-06T09:11:47Z</time></trkpt><trkpt lat="39.512420975341314" lon="16.87579010605336"><ele>65.0</ele><time>2026-04-06T09:11:48Z</time></trkpt><trkpt lat="39.5124835490284" lon="16.875897470473813"><ele>67.2</ele><time>2026-04-06T09:11:49Z</time></trkpt><trkpt lat="39.51253400971768" lon="16.87601050479447"><ele>69.4</ele><time>2026-04-06T09:11:50Z</time></trkpt><trkpt lat="39.51259627192583" lon="16.876115217744935"><ele>71.6</ele><time>2026-04-06T09:11:51Z</time></trkpt><trkpt lat="39.51264426980268" lon="16.876238013952573"><ele>73.8</ele><time>2026-04-06T09:11:52Z</time></trkpt><trkpt lat="39.51268681985461" lon="16.876363050119302"><ele>76.0</ele><time>2026-04-06T09:11:53Z</time></trkpt><trkpt lat="39.512704342295784" lon="16.876502774930564"><ele>76.0</ele><time>2026-04-06T09:11:54Z</time></trkpt><trkpt lat="39.512739383296015" lon="16.87663362439737"><ele>76.0</ele><time>2026-04-06T09:11:55Z</time></trkpt><trkpt lat="39.51275428177064" lon="16.87676995803163"><ele>76.0</ele><time>2026-04-06T09:11:56Z</time></trkpt><trkpt lat="39.51277461778704" lon="16.876892081577708"><ele>76.0</ele><time>2026-04-06T09:11:57Z</time></trkpt><trkpt lat="39.5127959671604" lon="16.8769997072402"><ele>76.0</ele><time>2026-04-06T09:11:58Z</time></trkpt><trkpt lat="39.51280139370044" lon="16.877113985922712"><ele>74.16666666666666</ele><time>2026-04-06T09:11:59Z</time></trkpt><trkpt lat="39.5127841770986" lon="16.877220443860384"><ele>72.33333333333333</ele><time>2026-04-06T09:12:00Z</time></trkpt><trkpt lat="39.51274594952597" lon="16.87730615216008"><ele>70.5</ele><time>2026-04-06T09:12:01Z</time></trkpt><trkpt lat="39.51266783363859" lon="16.87734450675627"><ele>68.66666666666667</ele><time>2026-04-06T09:12:02Z</time></trkpt><trkpt lat="39.51259364371454" lon="16.877395099217797"><ele>66.83333333333334</ele><time>2026-04-06T09:12:03Z</time></trkpt><trkpt lat="39.51251445561443" lon="16.87746667300037"><ele>65.0</ele><time>2026-04-06T09:12:04Z</time></trkpt><trkpt lat="39.5124273132032" lon="16.87750606799236"><ele>65.0</ele><time>2026-04-06T09:12:05Z</time></trkpt><trkpt lat="39.51233694650232" lon="16.877536470322354"><ele>65.0</ele><time>2026-04-06T09:12:06Z</time></trkpt><trkpt lat="39.512235463260254" lon="16.87754575229942"><ele>65.0</ele><time>2026-04-06T09:12:07Z</time></trkpt><trkpt lat="39.51213524343475" lon="16.87753519228944"><ele>65.0</ele><time>2026-04-06T09:12:08Z</time></trkpt><trkpt lat="39.51204365665434" lon="16.877499305086438"><ele>65.0</ele><time>2026-04-06T09:12:09Z</time></trkpt><trkpt lat="39.511956687319724" lon="16.877465610057037"><ele>63.66666666666667</ele><time>2026-04-06T09:12:10Z</time></trkpt><trkpt lat="39.51188211957314" lon="16.877441190637235"><ele>62.333333333333336</ele><time>2026-04-06T09:12:11Z</time></trkpt><trkpt lat="39.51181741060594" lon="16.87744821613597"><ele>61.0</ele><time>2026-04-06T09:12:12Z</time></trkpt><trkpt lat="39.51176527760746" lon="16.877502174129095"><ele>59.66666666666667</ele><time>2026-04-06T09:12:13Z</time></trkpt><trkpt lat="39.511719140431445" lon="16.877560944390627"><ele>58.333333333333336</ele><time>2026-04-06T09:12:14Z</time></trkpt><trkpt lat="39.511733511587316" lon="16.87767115705735"><ele>57.0</ele><time>2026-04-06T09:12:15Z</time></trkpt><trkpt lat="39.51178753165986" lon="16.877767310397722"><ele>55.400000000000006</ele><time>2026-04-06T09:12:16Z</time></trkpt><trkpt lat="39.511880253000704" lon="16.877804826897602"><ele>53.800000000000004</ele><time>2026-04-06T09:12:17Z</time></trkpt><trkpt lat="39.511966756858016" lon="16.877778755690997"><ele>52.2</ele><time>2026-04-06T09:12:18Z</time></trkpt><trkpt lat="39.51209252483968" lon="16.877788216950602"><ele>50.6</ele><time>2026-04-06T09:12:20Z</time></trkpt><trkpt lat="39.5121669120404" lon="16.877799019657463"><ele>49.0</ele><time>2026-04-06T09:12:21Z</time></trkpt><trkpt lat="39.51225711816859" lon="16.877802228120775"><ele>49.0</ele><time>2026-04-06T09:12:22Z</time></trkpt><trkpt lat="39.51233213776576" lon="16.877866508173625"><ele>49.0</ele><time>2026-04-06T09:12:23Z</time></trkpt><trkpt lat="39.512393701180336" lon="16.877947483918696"><ele>49.0</ele><time>2026-04-06T09:12:24Z</time></trkpt><trkpt lat="39.51247751548137" lon="16.87801577556592"><ele>49.0</ele><time>2026-04-06T09:12:25Z</time></trkpt><trkpt lat="39.51253437941746" lon="16.878118546179135"><ele>49.0</ele><time>2026-04-06T09:12:26Z</time></trkpt><trkpt lat="39.51257401527037" lon="16.8782117650686"><ele>49.0</ele><time>2026-04-06T09:12:27Z</time></trkpt><trkpt lat="39.51260343425953" lon="16.878333084366137"><ele>49.0</ele><time>2026-04-06T09:12:28Z</time></trkpt><trkpt lat="39.512634658113214" lon="16.878476869966757"><ele>49.0</ele><time>2026-04-06T09:12:29Z</time></trkpt><trkpt lat="39.512687422131364" lon="16.878620665830038"><ele>49.0</ele><time>2026-04-06T09:12:30Z</time></trkpt><trkpt lat="39.512766013106344" lon="16.878732163869113"><ele>49.0</ele><time>2026-04-06T09:12:31Z</time></trkpt><trkpt lat="39.51284653481253" lon="16.878836909479126"><ele>49.0</ele><time>2026-04-06T09:12:32Z</time></trkpt><trkpt lat="39.51294568928818" lon="16.878933201644067"><ele>49.0</ele><time>2026-04-06T09:12:33Z</time></trkpt><trkpt lat="39.51305316267772" lon="16.879019968010777"><ele>49.0</ele><time>2026-04-06T09:12:34Z</time></trkpt><trkpt lat="39.51314922917838" lon="16.879118262560194"><ele>49.0</ele><time>2026-04-06T09:12:35Z</time></trkpt><trkpt lat="39.51324687676456" lon="16.879199823702727"><ele>49.0</ele><time>2026-04-06T09:12:36Z</time></trkpt><trkpt lat="39.51334798342133" lon="16.87927108185722"><ele>49.0</ele><time>2026-04-06T09:12:37Z</time></trkpt><trkpt lat="39.513443731661134" lon="16.879332626308784"><ele>49.0</ele><time>2026-04-06T09:12:38Z</time></trkpt><trkpt lat="39.51353799281574" lon="16.879393214897316"><ele>49.0</ele><time>2026-04-06T09:12:39Z</time></trkpt><trkpt lat="39.513628719911026" lon="16.879453418638118"><ele>47.800000000000004</ele><time>2026-04-06T09:12:40Z</time></trkpt><trkpt lat="39.513710804753195" lon="16.879513767981685"><ele>46.6</ele><time>2026-04-06T09:12:41Z</time></trkpt><trkpt lat="39.51378879389601" lon="16.879590723815916"><ele>45.4</ele><time>2026-04-06T09:12:42Z</time></trkpt><trkpt lat="39.51386330995288" lon="16.87969875996287"><ele>44.2</ele><time>2026-04-06T09:12:43Z</time></trkpt><trkpt lat="39.513911892298694" lon="16.8798352527727"><ele>43.0</ele><time>2026-04-06T09:12:44Z</time></trkpt><trkpt lat="39.513948076425194" lon="16.87999096837397"><ele>41.75</ele><time>2026-04-06T09:12:45Z</time></trkpt><trkpt lat="39.513976720410085" lon="16.880163144808705"><ele>40.5</ele><time>2026-04-06T09:12:45.999Z</time></trkpt><trkpt lat="39.51399871335127" lon="16.880328898285093"><ele>39.25</ele><time>2026-04-06T09:12:46.999Z</time></trkpt><trkpt lat="39.514018113282354" lon="16.880482277196435"><ele>38.0</ele><time>2026-04-06T09:12:47.999Z</time></trkpt><trkpt lat="39.51403361352093" lon="16.880626426619344"><ele>38.0</ele><time>2026-04-06T09:12:48.999Z</time></trkpt><trkpt lat="39.514045699852396" lon="16.880764631287274"><ele>38.0</ele><time>2026-04-06T09:12:49.999Z</time></trkpt><trkpt lat="39.51405075993315" lon="16.880907111250803"><ele>38.0</ele><time>2026-04-06T09:12:50.999Z</time></trkpt><trkpt lat="39.51404729440205" lon="16.88105633270893"><ele>38.0</ele><time>2026-04-06T09:12:51.999Z</time></trkpt><trkpt lat="39.514036730940376" lon="16.88121554417854"><ele>38.25</ele><time>2026-04-06T09:12:52.999Z</time></trkpt><trkpt lat="39.51402098784491" lon="16.88136648208444"><ele>38.5</ele><time>2026-04-06T09:12:53.999Z</time></trkpt><trkpt lat="39.51400368714056" lon="16.88152214558743"><ele>38.75</ele><time>2026-04-06T09:12:54.999Z</time></trkpt><trkpt lat="39.51398686999274" lon="16.881668729722687"><ele>39.0</ele><time>2026-04-06T09:12:55.999Z</time></trkpt><trkpt lat="39.51396812850183" lon="16.881818726274695"><ele>40.25</ele><time>2026-04-06T09:12:56.999Z</time></trkpt><trkpt lat="39.51394658787688" lon="16.881968469382773"><ele>41.5</ele><time>2026-04-06T09:12:57.999Z</time></trkpt><trkpt lat="39.51392480505916" lon="16.882112165713924"><ele>42.75</ele><time>2026-04-06T09:12:58.999Z</time></trkpt><trkpt lat="39.51390501350719" lon="16.882258355720523"><ele>44.0</ele><time>2026-04-06T09:12:59.999Z</time></trkpt><trkpt lat="39.513900518858875" lon="16.88240445593102"><ele>44.0</ele><time>2026-04-06T09:13:00.999Z</time></trkpt><trkpt lat="39.513896122189735" lon="16.882556001701854"><ele>44.0</ele><time>2026-04-06T09:13:01.999Z</time></trkpt><trkpt lat="39.51391762022219" lon="16.88271888937233"><ele>44.0</ele><time>2026-04-06T09:13:02.999Z</time></trkpt><trkpt lat="39.51396397303868" lon="16.88288590098138"><ele>44.0</ele><time>2026-04-06T09:13:03.999Z</time></trkpt><trkpt lat="39.51403206402386" lon="16.88306013915464"><ele>42.0</ele><time>2026-04-06T09:13:04.999Z</time></trkpt><trkpt lat="39.51411440121971" lon="16.883204398379373"><ele>40.0</ele><time>2026-04-06T09:13:05.999Z</time></trkpt><trkpt lat="39.51419681002755" lon="16.883337893545267"><ele>38.0</ele><time>2026-04-06T09:13:06.999Z</time></trkpt><trkpt lat="39.51427784000233" lon="16.883457568752767"><ele>36.0</ele><time>2026-04-06T09:13:07.999Z</time></trkpt><trkpt lat="39.51434655947977" lon="16.883574898949504"><ele>35.0</ele><time>2026-04-06T09:13:08.999Z</time></trkpt><trkpt lat="39.514405996384355" lon="16.88368915805991"><ele>34.0</ele><time>2026-04-06T09:13:09.999Z</time></trkpt><trkpt lat="39.51445506625488" lon="16.88380225344653"><ele>33.0</ele><time>2026-04-06T09:13:11Z</time></trkpt><trkpt lat="39.51450031490449" lon="16.883914957470505"><ele>32.0</ele><time>2026-04-06T09:13:12Z</time></trkpt><trkpt lat="39.51454654957192" lon="16.88402773019783"><ele>31.0</ele><time>2026-04-06T09:13:13Z</time></trkpt><trkpt lat="39.51459726930557" lon="16.884146009942494"><ele>30.6</ele><time>2026-04-06T09:13:14Z</time></trkpt><trkpt lat="39.5146489205959" lon="16.884264937063463"><ele>30.200000000000003</ele><time>2026-04-06T09:13:15Z</time></trkpt><trkpt lat="39.51470270952541" lon="16.884388625938772"><ele>29.799999999999997</ele><time>2026-04-06T09:13:16Z</time></trkpt><trkpt lat="39.514756829439214" lon="16.88451393004427"><ele>29.4</ele><time>2026-04-06T09:13:17Z</time></trkpt><trkpt lat="39.514826342848586" lon="16.88463144417854"><ele>29.0</ele><time>2026-04-06T09:13:18Z</time></trkpt><trkpt lat="39.51488148165949" lon="16.884763513276603"><ele>29.0</ele><time>2026-04-06T09:13:19Z</time></trkpt><trkpt lat="39.51492671439754" lon="16.884911649426083"><ele>29.0</ele><time>2026-04-06T09:13:20Z</time></trkpt><trkpt lat="39.5149874373334" lon="16.885056465753713"><ele>29.0</ele><time>2026-04-06T09:13:21Z</time></trkpt><trkpt lat="39.51505055830896" lon="16.885206372439207"><ele>29.0</ele><time>2026-04-06T09:13:22Z</time></trkpt><trkpt lat="39.51511765326488" lon="16.885359028148464"><ele>28.75</ele><time>2026-04-06T09:13:23Z</time></trkpt><trkpt lat="39.515183878137236" lon="16.885509703794867"><ele>28.5</ele><time>2026-04-06T09:13:24Z</time></trkpt><trkpt lat="39.51525655458796" lon="16.885639201204675"><ele>28.25</ele><time>2026-04-06T09:13:25Z</time></trkpt><trkpt lat="39.515304930298505" lon="16.88579026678179"><ele>28.0</ele><time>2026-04-06T09:13:26Z</time></trkpt><trkpt lat="39.515362943811525" lon="16.88593494046763"><ele>27.5</ele><time>2026-04-06T09:13:27Z</time></trkpt><trkpt lat="39.51542211155378" lon="16.886080472277254"><ele>27.0</ele><time>2026-04-06T09:13:28Z</time></trkpt><trkpt lat="39.51548036674039" lon="16.88622070987271"><ele>26.5</ele><time>2026-04-06T09:13:29Z</time></trkpt><trkpt lat="39.515535840452316" lon="16.88634939143494"><ele>26.0</ele><time>2026-04-06T09:13:30Z</time></trkpt><trkpt lat="39.51559059502747" lon="16.886475558211046"><ele>26.0</ele><time>2026-04-06T09:13:31Z</time></trkpt><trkpt lat="39.51564966960653" lon="16.886606870187432"><ele>26.0</ele><time>2026-04-06T09:13:32Z</time></trkpt><trkpt lat="39.51571518472725" lon="16.886735004813897"><ele>26.0</ele><time>2026-04-06T09:13:33Z</time></trkpt><trkpt lat="39.515794704380696" lon="16.886850685135045"><ele>26.0</ele><time>2026-04-06T09:13:34Z</time></trkpt><trkpt lat="39.51589236692927" lon="16.88693442557665"><ele>25.8</ele><time>2026-04-06T09:13:35Z</time></trkpt><trkpt lat="39.51597428948873" lon="16.887030896693307"><ele>25.6</ele><time>2026-04-06T09:13:36Z</time></trkpt><trkpt lat="39.516074598417184" lon="16.887073874140597"><ele>25.4</ele><time>2026-04-06T09:13:37Z</time></trkpt><trkpt lat="39.51616414445755" lon="16.887143305839253"><ele>25.2</ele><time>2026-04-06T09:13:38Z</time></trkpt><trkpt lat="39.51626466565428" lon="16.887203521938382"><ele>25.0</ele><time>2026-04-06T09:13:39Z</time></trkpt><trkpt lat="39.51637085959464" lon="16.887261273329656"><ele>25.4</ele><time>2026-04-06T09:13:40Z</time></trkpt><trkpt lat="39.51646061628272" lon="16.88734613207835"><ele>25.8</ele><time>2026-04-06T09:13:41Z</time></trkpt><trkpt lat="39.51654436932287" lon="16.88740771959333"><ele>26.200000000000003</ele><time>2026-04-06T09:13:42Z</time></trkpt><trkpt lat="39.516616988485346" lon="16.887479681106164"><ele>26.6</ele><time>2026-04-06T09:13:43Z</time></trkpt><trkpt lat="39.516692384871696" lon="16.887567649629332"><ele>27.0</ele><time>2026-04-06T09:13:44Z</time></trkpt><trkpt lat="39.51675008036694" lon="16.887677616012297"><ele>27.0</ele><time>2026-04-06T09:13:45Z</time></trkpt><trkpt lat="39.516795896987546" lon="16.88780328451513"><ele>27.0</ele><time>2026-04-06T09:13:46Z</time></trkpt><trkpt lat="39.51683615087245" lon="16.88793879687269"><ele>27.0</ele><time>2026-04-06T09:13:47Z</time></trkpt><trkpt lat="39.516866712880564" lon="16.88808585608209"><ele>27.0</ele><time>2026-04-06T09:13:48Z</time></trkpt><trkpt lat="39.516896562591015" lon="16.888241619308342"><ele>27.0</ele><time>2026-04-06T09:13:49Z</time></trkpt><trkpt lat="39.5169452873621" lon="16.88839843363717"><ele>27.0</ele><time>2026-04-06T09:13:50Z</time></trkpt><trkpt lat="39.51698349335839" lon="16.888569440735616"><ele>27.0</ele><time>2026-04-06T09:13:51Z</time></trkpt><trkpt lat="39.51703522701579" lon="16.888747918815703"><ele>27.0</ele><time>2026-04-06T09:13:52Z</time></trkpt><trkpt lat="39.517071998981784" lon="16.88894084109553"><ele>26.5</ele><time>2026-04-06T09:13:53Z</time></trkpt><trkpt lat="39.5171561711565" lon="16.88911323386083"><ele>26.0</ele><time>2026-04-06T09:13:54Z</time></trkpt><trkpt lat="39.517238919106354" lon="16.889266315260265"><ele>25.5</ele><time>2026-04-06T09:13:55Z</time></trkpt><trkpt lat="39.51732910044984" lon="16.889392754579383"><ele>25.0</ele><time>2026-04-06T09:13:56Z</time></trkpt><trkpt lat="39.51741671290796" lon="16.88952543532728"><ele>25.0</ele><time>2026-04-06T09:13:57Z</time></trkpt><trkpt lat="39.517532619498574" lon="16.889618716057118"><ele>25.0</ele><time>2026-04-06T09:13:58Z</time></trkpt><trkpt lat="39.51766218264003" lon="16.889660542081387"><ele>25.0</ele><time>2026-04-06T09:13:59Z</time></trkpt><trkpt lat="39.51779161452785" lon="16.88970263911555"><ele>25.0</ele><time>2026-04-06T09:14:00Z</time></trkpt><trkpt lat="39.51791865678607" lon="16.889747869975437"><ele>25.0</ele><time>2026-04-06T09:14:01Z</time></trkpt><trkpt lat="39.51804280149477" lon="16.889814998134195"><ele>25.0</ele><time>2026-04-06T09:14:02Z</time></trkpt><trkpt lat="39.518130803175104" lon="16.889907166124033"><ele>25.0</ele><time>2026-04-06T09:14:03Z</time></trkpt><trkpt lat="39.51822068613283" lon="16.890006080635793"><ele>25.0</ele><time>2026-04-06T09:14:04Z</time></trkpt><trkpt lat="39.518289757119966" lon="16.890122122685536"><ele>25.0</ele><time>2026-04-06T09:14:05Z</time></trkpt><trkpt lat="39.518366665122656" lon="16.89026257962168"><ele>25.0</ele><time>2026-04-06T09:14:06Z</time></trkpt><trkpt lat="39.51842112124756" lon="16.890418762853653"><ele>25.0</ele><time>2026-04-06T09:14:07Z</time></trkpt><trkpt lat="39.51846729783688" lon="16.89057701927701"><ele>25.0</ele><time>2026-04-06T09:14:08Z</time></trkpt><trkpt lat="39.518516462194015" lon="16.890725154934028"><ele>25.0</ele><time>2026-04-06T09:14:09Z</time></trkpt><trkpt lat="39.51856459331879" lon="16.89085879359551"><ele>25.0</ele><time>2026-04-06T09:14:10Z</time></trkpt><trkpt lat="39.51864502088633" lon="16.890965077532638"><ele>25.0</ele><time>2026-04-06T09:14:11Z</time></trkpt><trkpt lat="39.51872733239071" lon="16.89107285931209"><ele>25.0</ele><time>2026-04-06T09:14:12Z</time></trkpt><trkpt lat="39.518829469064556" lon="16.89116245779134"><ele>24.5</ele><time>2026-04-06T09:14:13Z</time></trkpt><trkpt lat="39.518946366581346" lon="16.891231618709472"><ele>24.0</ele><time>2026-04-06T09:14:14Z</time></trkpt><trkpt lat="39.51907184305668" lon="16.89130339314826"><ele>23.5</ele><time>2026-04-06T09:14:15Z</time></trkpt><trkpt lat="39.51918944759983" lon="16.89139786926848"><ele>23.0</ele><time>2026-04-06T09:14:16Z</time></trkpt><trkpt lat="39.5193234466804" lon="16.891477220506903"><ele>23.0</ele><time>2026-04-06T09:14:17Z</time></trkpt><trkpt lat="39.5194654355497" lon="16.891558643765748"><ele>23.0</ele><time>2026-04-06T09:14:18Z</time></trkpt><trkpt lat="39.51960846723499" lon="16.891644741540823"><ele>23.0</ele><time>2026-04-06T09:14:19Z</time></trkpt><trkpt lat="39.51974634282646" lon="16.891743511303854"><ele>22.0</ele><time>2026-04-06T09:14:20Z</time></trkpt><trkpt lat="39.519876716795046" lon="16.891844859412185"><ele>21.0</ele><time>2026-04-06T09:14:21Z</time></trkpt><trkpt lat="39.52000207212824" lon="16.891946759209098"><ele>20.0</ele><time>2026-04-06T09:14:22Z</time></trkpt><trkpt lat="39.520123762316445" lon="16.892049496980807"><ele>19.0</ele><time>2026-04-06T09:14:23Z</time></trkpt><trkpt lat="39.520227758088915" lon="16.89216692288443"><ele>19.0</ele><time>2026-04-06T09:14:24Z</time></trkpt><trkpt lat="39.52032045254267" lon="16.892285468302845"><ele>19.0</ele><time>2026-04-06T09:14:25Z</time></trkpt><trkpt lat="39.520405047459164" lon="16.892396115007177"><ele>19.0</ele><time>2026-04-06T09:14:26Z</time></trkpt><trkpt lat="39.520498394989524" lon="16.892490424028107"><ele>19.0</ele><time>2026-04-06T09:14:27Z</time></trkpt><trkpt lat="39.52056824155568" lon="16.892614487573358"><ele>19.5</ele><time>2026-04-06T09:14:28Z</time></trkpt><trkpt lat="39.52065070302586" lon="16.89272530003686"><ele>20.0</ele><time>2026-04-06T09:14:29Z</time></trkpt><trkpt lat="39.52073422438416" lon="16.892837536787543"><ele>20.5</ele><time>2026-04-06T09:14:30Z</time></trkpt><trkpt lat="39.52081654568061" lon="16.892948160901604"><ele>21.0</ele><time>2026-04-06T09:14:31Z</time></trkpt><trkpt lat="39.52089607433287" lon="16.89305393947475"><ele>21.0</ele><time>2026-04-06T09:14:32Z</time></trkpt><trkpt lat="39.52097217006326" lon="16.893154214613393"><ele>21.0</ele><time>2026-04-06T09:14:32.999Z</time></trkpt><trkpt lat="39.52105144414776" lon="16.893256185715305"><ele>21.0</ele><time>2026-04-06T09:14:33.999Z</time></trkpt><trkpt lat="39.521134113535055" lon="16.893360639135192"><ele>21.0</ele><time>2026-04-06T09:14:34.999Z</time></trkpt><trkpt lat="39.52121645998894" lon="16.893463942448598"><ele>20.400000000000002</ele><time>2026-04-06T09:14:35.999Z</time></trkpt><trkpt lat="39.52130787238087" lon="16.893550839761115"><ele>19.8</ele><time>2026-04-06T09:14:36.999Z</time></trkpt><trkpt lat="39.52138791520056" lon="16.893655331464714"><ele>19.200000000000003</ele><time>2026-04-06T09:14:37.999Z</time></trkpt><trkpt lat="39.521467557604005" lon="16.8937531267006"><ele>18.6</ele><time>2026-04-06T09:14:38.999Z</time></trkpt><trkpt lat="39.5215437274825" lon="16.893845198333644"><ele>18.0</ele><time>2026-04-06T09:14:39.999Z</time></trkpt><trkpt lat="39.52161333007057" lon="16.893944164014222"><ele>18.0</ele><time>2026-04-06T09:14:40.999Z</time></trkpt><trkpt lat="39.52168376073826" lon="16.894042059831605"><ele>18.0</ele><time>2026-04-06T09:14:41.999Z</time></trkpt><trkpt lat="39.521759314625044" lon="16.894152494454516"><ele>18.0</ele><time>2026-04-06T09:14:42.999Z</time></trkpt><trkpt lat="39.52184218757141" lon="16.89426360670311"><ele>18.0</ele><time>2026-04-06T09:14:43.999Z</time></trkpt><trkpt lat="39.5219303932688" lon="16.89437672134802"><ele>18.25</ele><time>2026-04-06T09:14:44.999Z</time></trkpt><trkpt lat="39.52202323064755" lon="16.89449501123159"><ele>18.5</ele><time>2026-04-06T09:14:45.999Z</time></trkpt><trkpt lat="39.522095187179495" lon="16.89462195392378"><ele>18.75</ele><time>2026-04-06T09:14:46.999Z</time></trkpt><trkpt lat="39.5221822441037" lon="16.894742423034778"><ele>19.0</ele><time>2026-04-06T09:14:47.999Z</time></trkpt><trkpt lat="39.52227493871442" lon="16.894866109937183"><ele>19.0</ele><time>2026-04-06T09:14:48.999Z</time></trkpt><trkpt lat="39.52236956193324" lon="16.894984913328642"><ele>19.0</ele><time>2026-04-06T09:14:49.999Z</time></trkpt><trkpt lat="39.52246508151199" lon="16.89509812792739"><ele>19.0</ele><time>2026-04-06T09:14:50.999Z</time></trkpt><trkpt lat="39.522556905148384" lon="16.895201299241364"><ele>19.0</ele><time>2026-04-06T09:14:51.999Z</time></trkpt><trkpt lat="39.52264588893079" lon="16.89529407799203"><ele>18.2</ele><time>2026-04-06T09:14:52.999Z</time></trkpt><trkpt lat="39.522729625663445" lon="16.895379979701616"><ele>17.4</ele><time>2026-04-06T09:14:53.999Z</time></trkpt><trkpt lat="39.52280725685464" lon="16.895460221693817"><ele>16.6</ele><time>2026-04-06T09:14:54.999Z</time></trkpt><trkpt lat="39.52288046409508" lon="16.895535891010688"><ele>15.8</ele><time>2026-04-06T09:14:55.999Z</time></trkpt><trkpt lat="39.52295179385947" lon="16.895609619685082"><ele>15.0</ele><time>2026-04-06T09:14:56.999Z</time></trkpt><trkpt lat="39.523019677074714" lon="16.895683569030588"><ele>15.0</ele><time>2026-04-06T09:14:57.999Z</time></trkpt><trkpt lat="39.523078842611085" lon="16.895752218829127"><ele>15.0</ele><time>2026-04-06T09:14:58.999Z</time></trkpt><trkpt lat="39.52312089248182" lon="16.895825773228747"><ele>15.0</ele><time>2026-04-06T09:14:59.999Z</time></trkpt><trkpt lat="39.52316144463881" lon="16.89589917779007"><ele>15.0</ele><time>2026-04-06T09:15:00.999Z</time></trkpt><trkpt lat="39.523204134506194" lon="16.89596532116713"><ele>15.0</ele><time>2026-04-06T09:15:01.999Z</time></trkpt><trkpt lat="39.52321920772398" lon="16.896052201735543"><ele>15.0</ele><time>2026-04-06T09:15:02.999Z</time></trkpt><trkpt lat="39.52321631876884" lon="16.89613823447197"><ele>15.0</ele><time>2026-04-06T09:15:03.999Z</time></trkpt><trkpt lat="39.523203556806976" lon="16.896225947865084"><ele>14.0</ele><time>2026-04-06T09:15:04.999Z</time></trkpt><trkpt lat="39.52324705324773" lon="16.896375828710763"><ele>13.0</ele><time>2026-04-06T09:15:06.999Z</time></trkpt><trkpt lat="39.523351068561766" lon="16.89643267914172"><ele>12.0</ele><time>2026-04-06T09:15:08.999Z</time></trkpt><trkpt lat="39.52346711809994" lon="16.89640347064172"><ele>11.0</ele><time>2026-04-06T09:15:10.999Z</time></trkpt><trkpt lat="39.5235329389615" lon="16.89630544062573"><ele>11.0</ele><time>2026-04-06T09:15:12.999Z</time></trkpt><trkpt lat="39.52355984701433" lon="16.896186570938845"><ele>11.0</ele><time>2026-04-06T09:15:14.999Z</time></trkpt><trkpt lat="39.5235773968743" lon="16.896092802656245"><ele>11.0</ele><time>2026-04-06T09:15:17Z</time></trkpt><trkpt lat="39.52363196012356" lon="16.895998761607245"><ele>11.0</ele><time>2026-04-06T09:15:19Z</time></trkpt><trkpt lat="39.52369287240837" lon="16.895900864854276"><ele>11.0</ele><time>2026-04-06T09:15:21Z</time></trkpt><trkpt lat="39.523756808546445" lon="16.895766002865823"><ele>10.333333333333332</ele><time>2026-04-06T09:15:23Z</time></trkpt><trkpt lat="39.523791408229194" lon="16.895685901507072"><ele>9.666666666666666</ele><time>2026-04-06T09:15:24Z</time></trkpt><trkpt lat="39.52382567046706" lon="16.895592177832516"><ele>9.0</ele><time>2026-04-06T09:15:25Z</time></trkpt><trkpt lat="39.52386429011959" lon="16.895485945213984"><ele>8.333333333333334</ele><time>2026-04-06T09:15:26Z</time></trkpt><trkpt lat="39.52389976124423" lon="16.895375516006272"><ele>7.666666666666667</ele><time>2026-04-06T09:15:27Z</time></trkpt><trkpt lat="39.523939092861596" lon="16.895261005667294"><ele>7.0</ele><time>2026-04-06T09:15:28Z</time></trkpt><trkpt lat="39.523980086921945" lon="16.895146355846865"><ele>7.6</ele><time>2026-04-06T09:15:29Z</time></trkpt><trkpt lat="39.52401759228716" lon="16.895035520594842"><ele>8.2</ele><time>2026-04-06T09:15:30Z</time></trkpt><trkpt lat="39.524054242565725" lon="16.894924740873652"><ele>8.8</ele><time>2026-04-06T09:15:31Z</time></trkpt><trkpt lat="39.52409530065192" lon="16.894817864548028"><ele>9.4</ele><time>2026-04-06T09:15:32Z</time></trkpt><trkpt lat="39.524133944516244" lon="16.89471479246345"><ele>10.0</ele><time>2026-04-06T09:15:33Z</time></trkpt><trkpt lat="39.52416750694319" lon="16.894606482233932"><ele>10.0</ele><time>2026-04-06T09:15:34Z</time></trkpt><trkpt lat="39.524201247920175" lon="16.894496822612616"><ele>10.0</ele><time>2026-04-06T09:15:35Z</time></trkpt><trkpt lat="39.524238025076265" lon="16.894381271630795"><ele>10.0</ele><time>2026-04-06T09:15:36Z</time></trkpt><trkpt lat="39.52427667200698" lon="16.894269631123716"><ele>10.0</ele><time>2026-04-06T09:15:37Z</time></trkpt><trkpt lat="39.524318773772194" lon="16.894150551973365"><ele>10.0</ele><time>2026-04-06T09:15:38Z</time></trkpt><trkpt lat="39.524362913260276" lon="16.89402842080021"><ele>10.0</ele><time>2026-04-06T09:15:39Z</time></trkpt><trkpt lat="39.524408713854335" lon="16.89389957978516"><ele>10.0</ele><time>2026-04-06T09:15:40Z</time></trkpt><trkpt lat="39.52445659356706" lon="16.89377041329295"><ele>10.0</ele><time>2026-04-06T09:15:41Z</time></trkpt><trkpt lat="39.52450132305817" lon="16.89364639081307"><ele>10.0</ele><time>2026-04-06T09:15:42Z</time></trkpt><trkpt lat="39.52455148289516" lon="16.893508537706825"><ele>10.0</ele><time>2026-04-06T09:15:43Z</time></trkpt><trkpt lat="39.52460134449255" lon="16.893372525193495"><ele>10.0</ele><time>2026-04-06T09:15:44Z</time></trkpt><trkpt lat="39.524648958039315" lon="16.893254210046862"><ele>10.0</ele><time>2026-04-06T09:15:45Z</time></trkpt><trkpt lat="39.524690010771636" lon="16.89314407147417"><ele>10.0</ele><time>2026-04-06T09:15:46Z</time></trkpt><trkpt lat="39.52472571085702" lon="16.893032508908924"><ele>10.0</ele><time>2026-04-06T09:15:47Z</time></trkpt><trkpt lat="39.52476294579166" lon="16.892916626829294"><ele>10.0</ele><time>2026-04-06T09:15:48Z</time></trkpt><trkpt lat="39.52480397618597" lon="16.89279379945779"><ele>10.0</ele><time>2026-04-06T09:15:49Z</time></trkpt><trkpt lat="39.52485847339629" lon="16.892662885770317"><ele>10.0</ele><time>2026-04-06T09:15:50Z</time></trkpt><trkpt lat="39.52490951308078" lon="16.892496107891265"><ele>10.0</ele><time>2026-04-06T09:15:51Z</time></trkpt><trkpt lat="39.52497264146195" lon="16.892336624733776"><ele>10.0</ele><time>2026-04-06T09:15:52Z</time></trkpt><trkpt lat="39.525028679574994" lon="16.892191213111403"><ele>10.6</ele><time>2026-04-06T09:15:53Z</time></trkpt><trkpt lat="39.525076700731425" lon="16.89206174493804"><ele>11.2</ele><time>2026-04-06T09:15:54Z</time></trkpt><trkpt lat="39.52512166801976" lon="16.891936897157542"><ele>11.8</ele><time>2026-04-06T09:15:55Z</time></trkpt><trkpt lat="39.52516658525566" lon="16.891818162954397"><ele>12.4</ele><time>2026-04-06T09:15:56Z</time></trkpt><trkpt lat="39.52520493689365" lon="16.8917052770131"><ele>13.0</ele><time>2026-04-06T09:15:57Z</time></trkpt><trkpt lat="39.52524099539166" lon="16.891603264483226"><ele>13.666666666666666</ele><time>2026-04-06T09:15:58Z</time></trkpt><trkpt lat="39.52528026070259" lon="16.891510824797628"><ele>14.333333333333332</ele><time>2026-04-06T09:15:59Z</time></trkpt><trkpt lat="39.52532044714595" lon="16.891433069191155"><ele>15.0</ele><time>2026-04-06T09:16:00Z</time></trkpt><trkpt lat="39.52536235873968" lon="16.891371226941292"><ele>15.666666666666668</ele><time>2026-04-06T09:16:01Z</time></trkpt><trkpt lat="39.525444102112985" lon="16.891276254321255"><ele>16.333333333333336</ele><time>2026-04-06T09:16:03Z</time></trkpt><trkpt lat="39.52552610353121" lon="16.891203729813284"><ele>17.0</ele><time>2026-04-06T09:16:05Z</time></trkpt><trkpt lat="39.525581436219774" lon="16.891152830810878"><ele>15.833333333333334</ele><time>2026-04-06T09:16:06.999Z</time></trkpt><trkpt lat="39.525624646980944" lon="16.891089873395877"><ele>14.666666666666668</ele><time>2026-04-06T09:24:19Z</time></trkpt><trkpt lat="39.52563677100635" lon="16.890961574318066"><ele>13.5</ele><time>2026-04-06T09:24:22Z</time></trkpt><trkpt lat="39.525593193617894" lon="16.890835210520084"><ele>12.333333333333334</ele><time>2026-04-06T09:24:24Z</time></trkpt><trkpt lat="39.525561582227034" lon="16.89073006730301"><ele>11.166666666666668</ele><time>2026-04-06T09:24:26Z</time></trkpt><trkpt lat="39.52558780007452" lon="16.890617198402115"><ele>10.0</ele><time>2026-04-06T09:24:28Z</time></trkpt><trkpt lat="39.52563253243453" lon="16.890514377852384"><ele>10.0</ele><time>2026-04-06T09:24:29Z</time></trkpt><trkpt lat="39.52566975748399" lon="16.89040697992293"><ele>10.0</ele><time>2026-04-06T09:24:30Z</time></trkpt><trkpt lat="39.5257105610988" lon="16.89029359705247"><ele>10.0</ele><time>2026-04-06T09:24:31Z</time></trkpt><trkpt lat="39.52575189825015" lon="16.890175358311446"><ele>10.0</ele><time>2026-04-06T09:24:32Z</time></trkpt><trkpt lat="39.52579650892377" lon="16.890053830238703"><ele>10.0</ele><time>2026-04-06T09:24:33Z</time></trkpt><trkpt lat="39.525843742222236" lon="16.88992527509921"><ele>10.5</ele><time>2026-04-06T09:24:34Z</time></trkpt><trkpt lat="39.52589757827047" lon="16.889785070258693"><ele>11.0</ele><time>2026-04-06T09:24:35Z</time></trkpt><trkpt lat="39.52595192514514" lon="16.889641836460296"><ele>11.5</ele><time>2026-04-06T09:24:36Z</time></trkpt><trkpt lat="39.52601699906465" lon="16.889493369663068"><ele>12.0</ele><time>2026-04-06T09:24:37Z</time></trkpt><trkpt lat="39.526088428641906" lon="16.88934403942004"><ele>12.75</ele><time>2026-04-06T09:24:38Z</time></trkpt><trkpt lat="39.52616590840228" lon="16.889207004760483"><ele>13.5</ele><time>2026-04-06T09:24:39Z</time></trkpt><trkpt lat="39.526246122466056" lon="16.88908394962844"><ele>14.25</ele><time>2026-04-06T09:24:40Z</time></trkpt><trkpt lat="39.52633383598126" lon="16.88896718225064"><ele>15.0</ele><time>2026-04-06T09:24:41Z</time></trkpt><trkpt lat="39.52642892639225" lon="16.888848158565587"><ele>13.75</ele><time>2026-04-06T09:24:42Z</time></trkpt><trkpt lat="39.52652836640038" lon="16.888725752232215"><ele>12.5</ele><time>2026-04-06T09:24:43Z</time></trkpt><trkpt lat="39.5266296421288" lon="16.88860031211053"><ele>11.25</ele><time>2026-04-06T09:24:44Z</time></trkpt><trkpt lat="39.52673207406889" lon="16.888473654884958"><ele>10.0</ele><time>2026-04-06T09:24:45Z</time></trkpt><trkpt lat="39.52683480376287" lon="16.888349899457477"><ele>10.0</ele><time>2026-04-06T09:24:46Z</time></trkpt><trkpt lat="39.52694004952099" lon="16.888232286176066"><ele>10.0</ele><time>2026-04-06T09:24:47Z</time></trkpt><trkpt lat="39.527047547414334" lon="16.888122095824883"><ele>10.0</ele><time>2026-04-06T09:24:48Z</time></trkpt><trkpt lat="39.527158429298275" lon="16.888017782639373"><ele>10.0</ele><time>2026-04-06T09:24:48.999Z</time></trkpt><trkpt lat="39.52727776575116" lon="16.887919247307767"><ele>9.75</ele><time>2026-04-06T09:24:49.999Z</time></trkpt><trkpt lat="39.5273144202036" lon="16.887791896230464"><ele>9.5</ele><time>2026-04-06T09:24:50.999Z</time></trkpt><trkpt lat="39.52740468744251" lon="16.88767452392578"><ele>9.25</ele><time>2026-04-06T09:24:51.999Z</time></trkpt><trkpt lat="39.52749118760091" lon="16.88755998612457"><ele>9.0</ele><time>2026-04-06T09:24:52.999Z</time></trkpt><trkpt lat="39.52758366597726" lon="16.887442269397038"><ele>9.0</ele><time>2026-04-06T09:24:53.999Z</time></trkpt><trkpt lat="39.5276695335002" lon="16.8873148233739"><ele>9.0</ele><time>2026-04-06T09:24:54.999Z</time></trkpt><trkpt lat="39.52774919706918" lon="16.887165823205674"><ele>9.0</ele><time>2026-04-06T09:24:55.999Z</time></trkpt><trkpt lat="39.527818681294065" lon="16.88701367353519"><ele>9.0</ele><time>2026-04-06T09:24:56.999Z</time></trkpt><trkpt lat="39.52788921336373" lon="16.8868708417111"><ele>8.5</ele><time>2026-04-06T09:24:57.999Z</time></trkpt><trkpt lat="39.527950910023016" lon="16.886726618759862"><ele>8.0</ele><time>2026-04-06T09:24:58.999Z</time></trkpt><trkpt lat="39.52801611857511" lon="16.88657866963124"><ele>7.5</ele><time>2026-04-06T09:24:59.999Z</time></trkpt><trkpt lat="39.52807947746076" lon="16.886426020874158"><ele>7.0</ele><time>2026-04-06T09:25:00.999Z</time></trkpt><trkpt lat="39.528143331056306" lon="16.886261922932434"><ele>7.0</ele><time>2026-04-06T09:25:01.999Z</time></trkpt><trkpt lat="39.52820968333212" lon="16.88609685746902"><ele>7.0</ele><time>2026-04-06T09:25:02.999Z</time></trkpt><trkpt lat="39.52827982092977" lon="16.8859288884203"><ele>7.0</ele><time>2026-04-06T09:25:03.999Z</time></trkpt><trkpt lat="39.52835155944193" lon="16.88576530564816"><ele>7.0</ele><time>2026-04-06T09:25:04.999Z</time></trkpt><trkpt lat="39.52842321949181" lon="16.88558580741723"><ele>7.333333333333334</ele><time>2026-04-06T09:25:05.999Z</time></trkpt><trkpt lat="39.52849321511365" lon="16.88540669213148"><ele>7.666666666666666</ele><time>2026-04-06T09:25:06.999Z</time></trkpt><trkpt lat="39.52856874717471" lon="16.88522521914686"><ele>8.0</ele><time>2026-04-06T09:25:07.999Z</time></trkpt><trkpt lat="39.528645954542974" lon="16.885050396813877"><ele>6.666666666666666</ele><time>2026-04-06T09:25:08.999Z</time></trkpt><trkpt lat="39.528727082898" lon="16.884865360918905"><ele>5.333333333333333</ele><time>2026-04-06T09:25:09.999Z</time></trkpt><trkpt lat="39.528805244855754" lon="16.884677087918305"><ele>4.0</ele><time>2026-04-06T09:25:10.999Z</time></trkpt><trkpt lat="39.52888495697272" lon="16.884486269560938"><ele>4.0</ele><time>2026-04-06T09:25:11.999Z</time></trkpt><trkpt lat="39.528969207462964" lon="16.884297638383146"><ele>4.0</ele><time>2026-04-06T09:25:12.999Z</time></trkpt><trkpt lat="39.52905221941415" lon="16.88411003604223"><ele>4.0</ele><time>2026-04-06T09:25:13.999Z</time></trkpt><trkpt lat="39.52913734848329" lon="16.883915366366153"><ele>5.0</ele><time>2026-04-06T09:25:14.999Z</time></trkpt><trkpt lat="39.5292201613225" lon="16.88372924741513"><ele>6.0</ele><time>2026-04-06T09:25:15.999Z</time></trkpt><trkpt lat="39.52930236192567" lon="16.883537933522256"><ele>7.0</ele><time>2026-04-06T09:25:16.999Z</time></trkpt><trkpt lat="39.52938303376282" lon="16.88334929559554"><ele>7.333333333333334</ele><time>2026-04-06T09:25:17.999Z</time></trkpt><trkpt lat="39.52946224858592" lon="16.88315877737468"><ele>7.666666666666666</ele><time>2026-04-06T09:25:18.999Z</time></trkpt><trkpt lat="39.52954211280411" lon="16.882971749164927"><ele>8.0</ele><time>2026-04-06T09:25:19.999Z</time></trkpt><trkpt lat="39.52962365248475" lon="16.882788192177813"><ele>7.0</ele><time>2026-04-06T09:25:20.999Z</time></trkpt><trkpt lat="39.529705174837034" lon="16.882597756628428"><ele>6.0</ele><time>2026-04-06T09:25:21.999Z</time></trkpt><trkpt lat="39.52978561609533" lon="16.88241315498239"><ele>5.0</ele><time>2026-04-06T09:25:22.999Z</time></trkpt><trkpt lat="39.529863548761256" lon="16.88223447481652"><ele>5.0</ele><time>2026-04-06T09:25:23.999Z</time></trkpt><trkpt lat="39.52994706377442" lon="16.882052754502418"><ele>5.0</ele><time>2026-04-06T09:25:24.999Z</time></trkpt><trkpt lat="39.53002077807538" lon="16.881872334868714"><ele>5.0</ele><time>2026-04-06T09:25:25.999Z</time></trkpt><trkpt lat="39.53009765500362" lon="16.881694352904095"><ele>6.0</ele><time>2026-04-06T09:25:26.999Z</time></trkpt><trkpt lat="39.530176710892356" lon="16.88151564259854"><ele>7.0</ele><time>2026-04-06T09:25:27.999Z</time></trkpt><trkpt lat="39.530253700026556" lon="16.88133507286504"><ele>8.0</ele><time>2026-04-06T09:25:28.999Z</time></trkpt><trkpt lat="39.53033230169491" lon="16.88115514300479"><ele>6.666666666666666</ele><time>2026-04-06T09:25:29.999Z</time></trkpt><trkpt lat="39.530412430827" lon="16.88097462886612"><ele>5.333333333333333</ele><time>2026-04-06T09:25:30.999Z</time></trkpt><trkpt lat="39.5304885417473" lon="16.8807935104517"><ele>4.0</ele><time>2026-04-06T09:25:31.999Z</time></trkpt><trkpt lat="39.5305646144922" lon="16.880613935215667"><ele>4.0</ele><time>2026-04-06T09:25:32.999Z</time></trkpt><trkpt lat="39.53064192376" lon="16.88043977104866"><ele>4.0</ele><time>2026-04-06T09:25:33.999Z</time></trkpt><trkpt lat="39.53071805932271" lon="16.880272004748683"><ele>4.0</ele><time>2026-04-06T09:25:34.999Z</time></trkpt><trkpt lat="39.53079406104761" lon="16.880103763701456"><ele>4.0</ele><time>2026-04-06T09:25:35.999Z</time></trkpt><trkpt lat="39.53086791843625" lon="16.879932071688227"><ele>4.0</ele><time>2026-04-06T09:25:36.999Z</time></trkpt><trkpt lat="39.53093973815706" lon="16.879760562502838"><ele>4.0</ele><time>2026-04-06T09:25:37.999Z</time></trkpt><trkpt lat="39.531012994126904" lon="16.879588736205033"><ele>4.0</ele><time>2026-04-06T09:25:38.999Z</time></trkpt><trkpt lat="39.53108752901644" lon="16.879422983764584"><ele>4.0</ele><time>2026-04-06T09:25:39.999Z</time></trkpt><trkpt lat="39.531161436997564" lon="16.879254069499662"><ele>4.0</ele><time>2026-04-06T09:25:40.999Z</time></trkpt><trkpt lat="39.53123330204908" lon="16.87908480750361"><ele>4.0</ele><time>2026-04-06T09:25:41.999Z</time></trkpt><trkpt lat="39.53130975272489" lon="16.878914572560177"><ele>4.0</ele><time>2026-04-06T09:25:42.999Z</time></trkpt><trkpt lat="39.531387217675395" lon="16.87874374982679"><ele>4.0</ele><time>2026-04-06T09:25:43.999Z</time></trkpt><trkpt lat="39.53146060356719" lon="16.87856885102456"><ele>4.0</ele><time>2026-04-06T09:25:44.999Z</time></trkpt><trkpt lat="39.53153775569312" lon="16.87838831339941"><ele>4.666666666666666</ele><time>2026-04-06T09:25:45.999Z</time></trkpt><trkpt lat="39.53161355964983" lon="16.87821163972436"><ele>5.333333333333333</ele><time>2026-04-06T09:25:47Z</time></trkpt><trkpt lat="39.531690636855814" lon="16.87803069667025"><ele>6.0</ele><time>2026-04-06T09:25:48Z</time></trkpt><trkpt lat="39.53176864213495" lon="16.877850875947754"><ele>6.0</ele><time>2026-04-06T09:25:49Z</time></trkpt><trkpt lat="39.531850924458446" lon="16.87766890279259"><ele>6.0</ele><time>2026-04-06T09:25:50Z</time></trkpt><trkpt lat="39.531929193440156" lon="16.877487722138817"><ele>6.0</ele><time>2026-04-06T09:25:51Z</time></trkpt><trkpt lat="39.532006591876296" lon="16.87730861454343"><ele>5.0</ele><time>2026-04-06T09:25:52Z</time></trkpt><trkpt lat="39.53208384254547" lon="16.877128504456273"><ele>4.0</ele><time>2026-04-06T09:25:53Z</time></trkpt><trkpt lat="39.53215923139915" lon="16.876952924687615"><ele>3.0</ele><time>2026-04-06T09:25:54Z</time></trkpt><trkpt lat="39.532237429978444" lon="16.8767793028763"><ele>3.666666666666667</ele><time>2026-04-06T09:25:55Z</time></trkpt><trkpt lat="39.5323132868183" lon="16.87660923901712"><ele>4.333333333333334</ele><time>2026-04-06T09:25:56Z</time></trkpt><trkpt lat="39.53238742231476" lon="16.876436360465114"><ele>5.0</ele><time>2026-04-06T09:25:57Z</time></trkpt><trkpt lat="39.53246152204769" lon="16.876261567020176"><ele>5.0</ele><time>2026-04-06T09:25:58Z</time></trkpt><trkpt lat="39.53253332762394" lon="16.8760870346577"><ele>5.0</ele><time>2026-04-06T09:25:59Z</time></trkpt><trkpt lat="39.532609245189896" lon="16.875914683830427"><ele>5.0</ele><time>2026-04-06T09:26:00Z</time></trkpt><trkpt lat="39.53268493037309" lon="16.87574160580141"><ele>5.666666666666667</ele><time>2026-04-06T09:26:01Z</time></trkpt><trkpt lat="39.53275908506593" lon="16.875567692740173"><ele>6.333333333333334</ele><time>2026-04-06T09:26:02Z</time></trkpt><trkpt lat="39.532834414685475" lon="16.8753907760392"><ele>7.0</ele><time>2026-04-06T09:26:03Z</time></trkpt><trkpt lat="39.5329118729814" lon="16.875214168061362"><ele>6.333333333333334</ele><time>2026-04-06T09:26:04Z</time></trkpt><trkpt lat="39.53298892357573" lon="16.875029503351712"><ele>5.666666666666667</ele><time>2026-04-06T09:26:05Z</time></trkpt><trkpt lat="39.53306652920731" lon="16.874842558853256"><ele>5.0</ele><time>2026-04-06T09:26:06Z</time></trkpt><trkpt lat="39.53314805897759" lon="16.87465609358571"><ele>5.0</ele><time>2026-04-06T09:26:07Z</time></trkpt><trkpt lat="39.53322811374173" lon="16.87446646653096"><ele>5.0</ele><time>2026-04-06T09:26:08Z</time></trkpt><trkpt lat="39.53331132268044" lon="16.87427461508799"><ele>5.0</ele><time>2026-04-06T09:26:09Z</time></trkpt><trkpt lat="39.53339470772706" lon="16.874080542461588"><ele>5.666666666666667</ele><time>2026-04-06T09:26:09.999Z</time></trkpt><trkpt lat="39.53347765898931" lon="16.873888240820474"><ele>6.333333333333334</ele><time>2026-04-06T09:26:10.999Z</time></trkpt><trkpt lat="39.53356187862498" lon="16.8736972302819"><ele>7.0</ele><time>2026-04-06T09:26:11.999Z</time></trkpt><trkpt lat="39.533640467516946" lon="16.873508522616387"><ele>7.0</ele><time>2026-04-06T09:26:12.999Z</time></trkpt><trkpt lat="39.533721785846545" lon="16.873322904731474"><ele>7.0</ele><time>2026-04-06T09:26:13.999Z</time></trkpt><trkpt lat="39.53380218666598" lon="16.87313721786583"><ele>7.0</ele><time>2026-04-06T09:26:14.999Z</time></trkpt><trkpt lat="39.53388057942812" lon="16.87295200938395"><ele>6.666666666666667</ele><time>2026-04-06T09:26:15.999Z</time></trkpt><trkpt lat="39.533959322776504" lon="16.87276837579181"><ele>6.333333333333334</ele><time>2026-04-06T09:26:16.999Z</time></trkpt><trkpt lat="39.53403867862314" lon="16.872585152504964"><ele>6.0</ele><time>2026-04-06T09:26:17.999Z</time></trkpt><trkpt lat="39.534119759789505" lon="16.87240234648975"><ele>6.0</ele><time>2026-04-06T09:26:18.999Z</time></trkpt><trkpt lat="39.53420055625209" lon="16.872218500907497"><ele>6.0</ele><time>2026-04-06T09:26:19.999Z</time></trkpt><trkpt lat="39.5342760757726" lon="16.8720330782012"><ele>6.0</ele><time>2026-04-06T09:26:20.999Z</time></trkpt><trkpt lat="39.53435325954527" lon="16.87184831091357"><ele>6.0</ele><time>2026-04-06T09:26:21.999Z</time></trkpt><trkpt lat="39.53443367890284" lon="16.871665000839805"><ele>6.0</ele><time>2026-04-06T09:26:22.999Z</time></trkpt><trkpt lat="39.53450832866938" lon="16.871476607536458"><ele>6.0</ele><time>2026-04-06T09:26:23.999Z</time></trkpt><trkpt lat="39.53457834917056" lon="16.87128216074381"><ele>5.0</ele><time>2026-04-06T09:26:24.999Z</time></trkpt><trkpt lat="39.53464274380192" lon="16.871084902056367"><ele>4.0</ele><time>2026-04-06T09:26:25.999Z</time></trkpt><trkpt lat="39.53470090750766" lon="16.87088388213447"><ele>3.0</ele><time>2026-04-06T09:26:26.999Z</time></trkpt><trkpt lat="39.534763820330255" lon="16.870688433690475"><ele>3.0</ele><time>2026-04-06T09:26:27.999Z</time></trkpt><trkpt lat="39.534828610299506" lon="16.870495501862106"><ele>3.0</ele><time>2026-04-06T09:26:28.999Z</time></trkpt><trkpt lat="39.53489487417657" lon="16.870305257820732"><ele>3.0</ele><time>2026-04-06T09:26:29.999Z</time></trkpt><trkpt lat="39.534965135739796" lon="16.870115532634433"><ele>4.0</ele><time>2026-04-06T09:26:30.999Z</time></trkpt><trkpt lat="39.535038949301075" lon="16.869929608773568"><ele>5.0</ele><time>2026-04-06T09:26:31.999Z</time></trkpt><trkpt lat="39.53511643636581" lon="16.869744178004012"><ele>6.0</ele><time>2026-04-06T09:26:32.999Z</time></trkpt><trkpt lat="39.5351956652259" lon="16.869559343435984"><ele>6.0</ele><time>2026-04-06T09:26:33.999Z</time></trkpt><trkpt lat="39.535277176441205" lon="16.869368667433374"><ele>6.0</ele><time>2026-04-06T09:26:34.999Z</time></trkpt><trkpt lat="39.535359273453075" lon="16.86917438011881"><ele>6.0</ele><time>2026-04-06T09:26:35.999Z</time></trkpt><trkpt lat="39.535441928742834" lon="16.868982118085253"><ele>5.666666666666667</ele><time>2026-04-06T09:26:36.999Z</time></trkpt><trkpt lat="39.53552455603215" lon="16.86878344484"><ele>5.333333333333334</ele><time>2026-04-06T09:26:37.999Z</time></trkpt><trkpt lat="39.535607895823624" lon="16.868588609843993"><ele>5.0</ele><time>2026-04-06T09:26:38.999Z</time></trkpt><trkpt lat="39.53569050878049" lon="16.868386828507596"><ele>5.0</ele><time>2026-04-06T09:26:39.999Z</time></trkpt><trkpt lat="39.53577423728357" lon="16.868189128690354"><ele>5.0</ele><time>2026-04-06T09:26:40.999Z</time></trkpt><trkpt lat="39.535856106787" lon="16.867996928782162"><ele>5.0</ele><time>2026-04-06T09:26:41.999Z</time></trkpt><trkpt lat="39.53593854568836" lon="16.86780076650288"><ele>6.0</ele><time>2026-04-06T09:26:42.999Z</time></trkpt><trkpt lat="39.53602012779195" lon="16.86760400790599"><ele>7.0</ele><time>2026-04-06T09:26:43.999Z</time></trkpt><trkpt lat="39.536103508918444" lon="16.867405748473196"><ele>8.0</ele><time>2026-04-06T09:26:44.999Z</time></trkpt><trkpt lat="39.53618720027084" lon="16.86721067768441"><ele>7.0</ele><time>2026-04-06T09:26:45.999Z</time></trkpt><trkpt lat="39.536270159450495" lon="16.867013899356593"><ele>6.0</ele><time>2026-04-06T09:26:46.999Z</time></trkpt><trkpt lat="39.53634846706412" lon="16.866828157791954"><ele>5.0</ele><time>2026-04-06T09:26:47.999Z</time></trkpt><trkpt lat="39.53642302769616" lon="16.866654912159714"><ele>5.0</ele><time>2026-04-06T09:26:48.999Z</time></trkpt><trkpt lat="39.53650163670703" lon="16.866481713586584"><ele>5.0</ele><time>2026-04-06T09:26:49.999Z</time></trkpt><trkpt lat="39.53659216162425" lon="16.86631072034451"><ele>5.0</ele><time>2026-04-06T09:26:50.999Z</time></trkpt><trkpt lat="39.53668856276704" lon="16.866140927458094"><ele>5.0</ele><time>2026-04-06T09:26:51.999Z</time></trkpt><trkpt lat="39.53679163437366" lon="16.86597430638841"><ele>5.0</ele><time>2026-04-06T09:26:52.999Z</time></trkpt><trkpt lat="39.53689690875844" lon="16.865809098194042"><ele>5.0</ele><time>2026-04-06T09:26:53.999Z</time></trkpt><trkpt lat="39.53699806411521" lon="16.86564070517893"><ele>5.333333333333334</ele><time>2026-04-06T09:26:54.999Z</time></trkpt><trkpt lat="39.53709579684829" lon="16.865468424268233"><ele>5.666666666666667</ele><time>2026-04-06T09:26:55.999Z</time></trkpt><trkpt lat="39.53719473133785" lon="16.86529952290173"><ele>6.0</ele><time>2026-04-06T09:26:56.999Z</time></trkpt><trkpt lat="39.53729263636309" lon="16.865133600368495"><ele>6.0</ele><time>2026-04-06T09:26:57.999Z</time></trkpt><trkpt lat="39.537390284139" lon="16.864970493016656"><ele>6.0</ele><time>2026-04-06T09:26:58.999Z</time></trkpt><trkpt lat="39.53748739301117" lon="16.864803699092203"><ele>6.0</ele><time>2026-04-06T09:26:59.999Z</time></trkpt><trkpt lat="39.5375850311115" lon="16.86463991391908"><ele>6.0</ele><time>2026-04-06T09:27:00.999Z</time></trkpt><trkpt lat="39.537680581682864" lon="16.864477294825313"><ele>6.0</ele><time>2026-04-06T09:27:01.999Z</time></trkpt><trkpt lat="39.53777520930168" lon="16.864309036151607"><ele>6.0</ele><time>2026-04-06T09:27:02.999Z</time></trkpt><trkpt lat="39.53787273223234" lon="16.864141471877584"><ele>6.0</ele><time>2026-04-06T09:27:03.999Z</time></trkpt><trkpt lat="39.53797410192357" lon="16.86397171760132"><ele>6.0</ele><time>2026-04-06T09:27:04.999Z</time></trkpt><trkpt lat="39.53807514529518" lon="16.86380378817405"><ele>6.0</ele><time>2026-04-06T09:27:05.999Z</time></trkpt><trkpt lat="39.53817447149422" lon="16.86363262103437"><ele>6.0</ele><time>2026-04-06T09:27:06.999Z</time></trkpt><trkpt lat="39.538273399985876" lon="16.863456547547464"><ele>6.0</ele><time>2026-04-06T09:27:07.999Z</time></trkpt><trkpt lat="39.53837556432804" lon="16.863282198174065"><ele>6.0</ele><time>2026-04-06T09:27:08.999Z</time></trkpt><trkpt lat="39.538477781479905" lon="16.863107180535405"><ele>5.666666666666667</ele><time>2026-04-06T09:27:09.999Z</time></trkpt><trkpt lat="39.538579705683084" lon="16.862928358787354"><ele>5.333333333333334</ele><time>2026-04-06T09:27:10.999Z</time></trkpt><trkpt lat="39.538682312293105" lon="16.862749099707337"><ele>5.0</ele><time>2026-04-06T09:27:11.999Z</time></trkpt><trkpt lat="39.53878981263575" lon="16.86257185898152"><ele>5.0</ele><time>2026-04-06T09:27:12.999Z</time></trkpt><trkpt lat="39.538895596228905" lon="16.862393429840772"><ele>5.0</ele><time>2026-04-06T09:27:13.998Z</time></trkpt><trkpt lat="39.53900210248788" lon="16.862212976619112"><ele>5.0</ele><time>2026-04-06T09:27:14.998Z</time></trkpt><trkpt lat="39.53910940915666" lon="16.862028471811932"><ele>5.0</ele><time>2026-04-06T09:27:15.998Z</time></trkpt><trkpt lat="39.53921751760875" lon="16.86184817697137"><ele>5.0</ele><time>2026-04-06T09:27:16.998Z</time></trkpt><trkpt lat="39.53932429459199" lon="16.86166471543274"><ele>5.0</ele><time>2026-04-06T09:27:17.998Z</time></trkpt><trkpt lat="39.539428906709034" lon="16.86147848464701"><ele>5.0</ele><time>2026-04-06T09:27:18.998Z</time></trkpt><trkpt lat="39.53953816782219" lon="16.86130266836477"><ele>5.0</ele><time>2026-04-06T09:27:19.998Z</time></trkpt><trkpt lat="39.539643475707294" lon="16.86112919781479"><ele>5.0</ele><time>2026-04-06T09:27:20.998Z</time></trkpt><trkpt lat="39.53974278133743" lon="16.8609673614053"><ele>5.333333333333334</ele><time>2026-04-06T09:27:21.998Z</time></trkpt><trkpt lat="39.5398429916441" lon="16.86080310115184"><ele>5.666666666666667</ele><time>2026-04-06T09:27:22.998Z</time></trkpt><trkpt lat="39.539939948502784" lon="16.860644990110337"><ele>6.0</ele><time>2026-04-06T09:27:23.998Z</time></trkpt><trkpt lat="39.54002573779053" lon="16.860497481604032"><ele>6.0</ele><time>2026-04-06T09:27:24.998Z</time></trkpt><trkpt lat="39.54010748317684" lon="16.860360020212596"><ele>6.0</ele><time>2026-04-06T09:27:25.998Z</time></trkpt><trkpt lat="39.54018390684563" lon="16.860230056548048"><ele>6.0</ele><time>2026-04-06T09:27:26.998Z</time></trkpt><trkpt lat="39.54025803928198" lon="16.860099443979067"><ele>6.0</ele><time>2026-04-06T09:27:27.998Z</time></trkpt><trkpt lat="39.5403446156552" lon="16.859958435615464"><ele>5.666666666666667</ele><time>2026-04-06T09:27:28.998Z</time></trkpt><trkpt lat="39.540441333021285" lon="16.859800700625165"><ele>5.333333333333334</ele><time>2026-04-06T09:27:29.998Z</time></trkpt><trkpt lat="39.54054013373694" lon="16.8596384687779"><ele>5.0</ele><time>2026-04-06T09:27:30.998Z</time></trkpt><trkpt lat="39.54064132095383" lon="16.85947722559699"><ele>5.0</ele><time>2026-04-06T09:27:31.998Z</time></trkpt><trkpt lat="39.54074148369824" lon="16.859311468338305"><ele>5.0</ele><time>2026-04-06T09:27:32.998Z</time></trkpt><trkpt lat="39.54084138196302" lon="16.8591441243622"><ele>5.0</ele><time>2026-04-06T09:27:33.998Z</time></trkpt><trkpt lat="39.54094186865274" lon="16.858975675296513"><ele>5.0</ele><time>2026-04-06T09:27:34.998Z</time></trkpt><trkpt lat="39.54104536006043" lon="16.858804379198038"><ele>5.0</ele><time>2026-04-06T09:27:35.998Z</time></trkpt><trkpt lat="39.541146928084686" lon="16.85863128083521"><ele>5.0</ele><time>2026-04-06T09:27:36.998Z</time></trkpt><trkpt lat="39.54125112851204" lon="16.858455057245934"><ele>5.0</ele><time>2026-04-06T09:27:37.998Z</time></trkpt><trkpt lat="39.54135588909551" lon="16.858281117067158"><ele>5.0</ele><time>2026-04-06T09:27:38.998Z</time></trkpt><trkpt lat="39.54145814462867" lon="16.858102218477438"><ele>5.0</ele><time>2026-04-06T09:27:39.998Z</time></trkpt><trkpt lat="39.541562873434756" lon="16.857930185606225"><ele>5.0</ele><time>2026-04-06T09:27:40.998Z</time></trkpt><trkpt lat="39.541667698249434" lon="16.857759079511208"><ele>5.0</ele><time>2026-04-06T09:27:41.998Z</time></trkpt><trkpt lat="39.54176967051487" lon="16.857591030016337"><ele>5.0</ele><time>2026-04-06T09:27:42.998Z</time></trkpt><trkpt lat="39.5418733055307" lon="16.85742838548402"><ele>4.666666666666667</ele><time>2026-04-06T09:27:43.998Z</time></trkpt><trkpt lat="39.541974289444475" lon="16.857267823653984"><ele>4.333333333333333</ele><time>2026-04-06T09:27:44.998Z</time></trkpt><trkpt lat="39.54207078616184" lon="16.857110284693338"><ele>4.0</ele><time>2026-04-06T09:27:45.998Z</time></trkpt><trkpt lat="39.54216886054876" lon="16.856955893889936"><ele>4.0</ele><time>2026-04-06T09:27:46.998Z</time></trkpt><trkpt lat="39.542267046489826" lon="16.85680454321573"><ele>4.0</ele><time>2026-04-06T09:27:47.998Z</time></trkpt><trkpt lat="39.542364894112" lon="16.85665904846983"><ele>4.0</ele><time>2026-04-06T09:27:48.998Z</time></trkpt><trkpt lat="39.542460586702624" lon="16.856510755196915"><ele>4.25</ele><time>2026-04-06T09:27:49.998Z</time></trkpt><trkpt lat="39.542556966572576" lon="16.85636397221823"><ele>4.5</ele><time>2026-04-06T09:27:50.998Z</time></trkpt><trkpt lat="39.54265489889953" lon="16.856218800239837"><ele>4.75</ele><time>2026-04-06T09:27:51.998Z</time></trkpt><trkpt lat="39.54275229593482" lon="16.85607110770596"><ele>5.0</ele><time>2026-04-06T09:27:52.999Z</time></trkpt><trkpt lat="39.542849295635946" lon="16.855925293147695"><ele>5.75</ele><time>2026-04-06T09:27:53.999Z</time></trkpt><trkpt lat="39.542944161076086" lon="16.85577943986045"><ele>6.5</ele><time>2026-04-06T09:27:54.999Z</time></trkpt><trkpt lat="39.5430400622811" lon="16.85563311688653"><ele>7.25</ele><time>2026-04-06T09:27:55.999Z</time></trkpt><trkpt lat="39.543136236850735" lon="16.855486815482987"><ele>8.0</ele><time>2026-04-06T09:27:56.999Z</time></trkpt><trkpt lat="39.54323315557018" lon="16.85534174671035"><ele>8.0</ele><time>2026-04-06T09:27:57.999Z</time></trkpt><trkpt lat="39.543328295424615" lon="16.855194748935403"><ele>8.0</ele><time>2026-04-06T09:27:58.999Z</time></trkpt><trkpt lat="39.54342449698618" lon="16.855047272590518"><ele>8.0</ele><time>2026-04-06T09:27:59.999Z</time></trkpt><trkpt lat="39.54352174465367" lon="16.854900771112796"><ele>8.0</ele><time>2026-04-06T09:28:00.999Z</time></trkpt><trkpt lat="39.54361132432977" lon="16.8547692891483"><ele>8.0</ele><time>2026-04-06T09:28:01.999Z</time></trkpt><trkpt lat="39.543696817861736" lon="16.854639378838634"><ele>8.0</ele><time>2026-04-06T09:28:02.999Z</time></trkpt><trkpt lat="39.54378226773646" lon="16.85451783281915"><ele>8.0</ele><time>2026-04-06T09:28:03.999Z</time></trkpt><trkpt lat="39.543869615881626" lon="16.85440166287546"><ele>8.0</ele><time>2026-04-06T09:28:04.999Z</time></trkpt><trkpt lat="39.54394142105368" lon="16.854264854614954"><ele>8.25</ele><time>2026-04-06T09:28:05.999Z</time></trkpt><trkpt lat="39.54403193774288" lon="16.854137161562175"><ele>8.5</ele><time>2026-04-06T09:28:06.999Z</time></trkpt><trkpt lat="39.54413405241254" lon="16.854011734555794"><ele>8.75</ele><time>2026-04-06T09:28:07.999Z</time></trkpt><trkpt lat="39.54423086290179" lon="16.853871436437835"><ele>9.0</ele><time>2026-04-06T09:28:08.999Z</time></trkpt><trkpt lat="39.544322568059435" lon="16.853738536940984"><ele>9.0</ele><time>2026-04-06T09:28:09.999Z</time></trkpt><trkpt lat="39.54440631889064" lon="16.853617808026193"><ele>9.0</ele><time>2026-04-06T09:28:10.999Z</time></trkpt><trkpt lat="39.54449174325971" lon="16.853494783270904"><ele>9.0</ele><time>2026-04-06T09:28:12Z</time></trkpt><trkpt lat="39.54456857545862" lon="16.853356234882856"><ele>9.0</ele><time>2026-04-06T09:28:13Z</time></trkpt><trkpt lat="39.54466192732415" lon="16.853231959699574"><ele>9.0</ele><time>2026-04-06T09:28:14Z</time></trkpt><trkpt lat="39.54475052790814" lon="16.853107593203436"><ele>9.0</ele><time>2026-04-06T09:28:15Z</time></trkpt><trkpt lat="39.5448287486293" lon="16.85299761314327"><ele>9.0</ele><time>2026-04-06T09:28:16Z</time></trkpt><trkpt lat="39.544907588948426" lon="16.85287892853636"><ele>9.0</ele><time>2026-04-06T09:28:17Z</time></trkpt><trkpt lat="39.54499198440385" lon="16.85276047799512"><ele>9.0</ele><time>2026-04-06T09:28:18Z</time></trkpt><trkpt lat="39.54507593914642" lon="16.852641490599126"><ele>9.0</ele><time>2026-04-06T09:28:19Z</time></trkpt><trkpt lat="39.54516036376785" lon="16.852540299243998"><ele>9.0</ele><time>2026-04-06T09:28:20Z</time></trkpt><trkpt lat="39.54524295794939" lon="16.852422029404945"><ele>9.0</ele><time>2026-04-06T09:28:21Z</time></trkpt><trkpt lat="39.5453276193541" lon="16.85230167455588"><ele>9.0</ele><time>2026-04-06T09:28:22Z</time></trkpt><trkpt lat="39.54541353550392" lon="16.852179535933047"><ele>9.0</ele><time>2026-04-06T09:28:23Z</time></trkpt><trkpt lat="39.54549723768267" lon="16.852060544653256"><ele>9.0</ele><time>2026-04-06T09:28:24Z</time></trkpt><trkpt lat="39.54558091693127" lon="16.85194158639827"><ele>9.0</ele><time>2026-04-06T09:28:25Z</time></trkpt><trkpt lat="39.545643718636995" lon="16.8518216047065"><ele>9.0</ele><time>2026-04-06T09:28:26Z</time></trkpt><trkpt lat="39.54571428977887" lon="16.851724045106984"><ele>9.0</ele><time>2026-04-06T09:28:27Z</time></trkpt><trkpt lat="39.545797489616966" lon="16.851625412861672"><ele>9.0</ele><time>2026-04-06T09:28:28Z</time></trkpt><trkpt lat="39.54587814956692" lon="16.85151810087035"><ele>9.0</ele><time>2026-04-06T09:28:29Z</time></trkpt><trkpt lat="39.54595280648978" lon="16.851416322959274"><ele>9.0</ele><time>2026-04-06T09:28:30Z</time></trkpt><trkpt lat="39.54602619738933" lon="16.85131707414225"><ele>9.0</ele><time>2026-04-06T09:28:31Z</time></trkpt><trkpt lat="39.54610063968158" lon="16.851216386704465"><ele>9.0</ele><time>2026-04-06T09:28:32Z</time></trkpt><trkpt lat="39.54617281991748" lon="16.851113300260554"><ele>9.0</ele><time>2026-04-06T09:28:33Z</time></trkpt><trkpt lat="39.54624605517534" lon="16.851007016355407"><ele>9.0</ele><time>2026-04-06T09:28:34Z</time></trkpt><trkpt lat="39.54632582739416" lon="16.850884555891962"><ele>9.0</ele><time>2026-04-06T09:28:35Z</time></trkpt><trkpt lat="39.54641315745974" lon="16.85075027336582"><ele>8.5</ele><time>2026-04-06T09:28:36Z</time></trkpt><trkpt lat="39.54650315490194" lon="16.850613470793395"><ele>8.0</ele><time>2026-04-06T09:28:36.999Z</time></trkpt><trkpt lat="39.546592430784905" lon="16.850476912755397"><ele>7.5</ele><time>2026-04-06T09:28:37.999Z</time></trkpt><trkpt lat="39.54668879589673" lon="16.850339323955012"><ele>7.0</ele><time>2026-04-06T09:28:38.999Z</time></trkpt><trkpt lat="39.546788260000405" lon="16.850193016987372"><ele>7.333333333333334</ele><time>2026-04-06T09:28:39.999Z</time></trkpt><trkpt lat="39.5468904404633" lon="16.85004297498887"><ele>7.666666666666666</ele><time>2026-04-06T09:28:40.999Z</time></trkpt><trkpt lat="39.54699567891344" lon="16.849881584019798"><ele>8.0</ele><time>2026-04-06T09:28:41.999Z</time></trkpt><trkpt lat="39.54710426670425" lon="16.849713663768068"><ele>7.666666666666666</ele><time>2026-04-06T09:28:42.999Z</time></trkpt><trkpt lat="39.54721491356052" lon="16.84954689453393"><ele>7.333333333333334</ele><time>2026-04-06T09:28:43.999Z</time></trkpt><trkpt lat="39.54732477462688" lon="16.849379175876535"><ele>7.0</ele><time>2026-04-06T09:28:44.999Z</time></trkpt><trkpt lat="39.547433489869995" lon="16.8492111404737"><ele>7.0</ele><time>2026-04-06T09:28:45.999Z</time></trkpt><trkpt lat="39.547541100146525" lon="16.849042568159387"><ele>7.0</ele><time>2026-04-06T09:28:46.999Z</time></trkpt><trkpt lat="39.547650095123906" lon="16.84887692296653"><ele>7.0</ele><time>2026-04-06T09:28:47.999Z</time></trkpt><trkpt lat="39.54775532771243" lon="16.84871398907299"><ele>7.0</ele><time>2026-04-06T09:28:48.999Z</time></trkpt><trkpt lat="39.54785888460916" lon="16.84855691367239"><ele>7.0</ele><time>2026-04-06T09:28:49.999Z</time></trkpt><trkpt lat="39.54795801141128" lon="16.848400219685555"><ele>7.0</ele><time>2026-04-06T09:28:50.999Z</time></trkpt><trkpt lat="39.54805708617427" lon="16.84824710162668"><ele>6.666666666666667</ele><time>2026-04-06T09:28:51.999Z</time></trkpt><trkpt lat="39.54815857712037" lon="16.84809406982079"><ele>6.333333333333334</ele><time>2026-04-06T09:28:52.999Z</time></trkpt><trkpt lat="39.548259393305436" lon="16.847941405237094"><ele>6.0</ele><time>2026-04-06T09:28:53.999Z</time></trkpt><trkpt lat="39.54835897109727" lon="16.84778591201458"><ele>6.0</ele><time>2026-04-06T09:28:54.999Z</time></trkpt><trkpt lat="39.54846310191518" lon="16.847631758827244"><ele>6.0</ele><time>2026-04-06T09:28:55.999Z</time></trkpt><trkpt lat="39.5485649420052" lon="16.847477431572287"><ele>6.0</ele><time>2026-04-06T09:28:56.999Z</time></trkpt><trkpt lat="39.548668591607374" lon="16.847320870215633"><ele>6.333333333333334</ele><time>2026-04-06T09:28:57.999Z</time></trkpt><trkpt lat="39.54876936064526" lon="16.847164113800606"><ele>6.666666666666667</ele><time>2026-04-06T09:28:58.999Z</time></trkpt><trkpt lat="39.548872980374185" lon="16.847011161910856"><ele>7.0</ele><time>2026-04-06T09:28:59.999Z</time></trkpt><trkpt lat="39.54897513454517" lon="16.84685908763109"><ele>7.333333333333334</ele><time>2026-04-06T09:29:00.999Z</time></trkpt><trkpt lat="39.549076153560165" lon="16.846708619207693"><ele>7.666666666666666</ele><time>2026-04-06T09:29:01.999Z</time></trkpt><trkpt lat="39.549175313145575" lon="16.84655775129155"><ele>8.0</ele><time>2026-04-06T09:29:02.999Z</time></trkpt><trkpt lat="39.549276655538264" lon="16.846407381731982"><ele>8.0</ele><time>2026-04-06T09:29:03.999Z</time></trkpt><trkpt lat="39.54937797225161" lon="16.84625678228805"><ele>8.0</ele><time>2026-04-06T09:29:04.999Z</time></trkpt><trkpt lat="39.54947778480526" lon="16.8461068529598"><ele>8.0</ele><time>2026-04-06T09:29:05.999Z</time></trkpt><trkpt lat="39.549576840628006" lon="16.845956809478007"><ele>7.666666666666666</ele><time>2026-04-06T09:29:06.999Z</time></trkpt><trkpt lat="39.54967899391862" lon="16.845804512986305"><ele>7.333333333333334</ele><time>2026-04-06T09:29:07.999Z</time></trkpt><trkpt lat="39.54978512379257" lon="16.845654616497175"><ele>7.0</ele><time>2026-04-06T09:29:08.999Z</time></trkpt><trkpt lat="39.549888791115364" lon="16.84550159601581"><ele>7.0</ele><time>2026-04-06T09:29:09.999Z</time></trkpt><trkpt lat="39.54999078385888" lon="16.845344820995084"><ele>7.0</ele><time>2026-04-06T09:29:10.999Z</time></trkpt><trkpt lat="39.55009561733683" lon="16.84518862682462"><ele>7.0</ele><time>2026-04-06T09:29:11.999Z</time></trkpt><trkpt lat="39.55020091957345" lon="16.845032007020112"><ele>7.0</ele><time>2026-04-06T09:29:12.999Z</time></trkpt><trkpt lat="39.55030741427089" lon="16.844873764729428"><ele>7.0</ele><time>2026-04-06T09:29:13.999Z</time></trkpt><trkpt lat="39.5504159229088" lon="16.84471415477907"><ele>7.0</ele><time>2026-04-06T09:29:14.999Z</time></trkpt><trkpt lat="39.55052614158849" lon="16.844553352951987"><ele>7.0</ele><time>2026-04-06T09:29:15.999Z</time></trkpt><trkpt lat="39.550637997551966" lon="16.844379567996455"><ele>7.0</ele><time>2026-04-06T09:29:16.999Z</time></trkpt><trkpt lat="39.550751586472494" lon="16.84420487629607"><ele>7.0</ele><time>2026-04-06T09:29:17.999Z</time></trkpt><trkpt lat="39.550865277907555" lon="16.84402804732915"><ele>7.0</ele><time>2026-04-06T09:29:18.999Z</time></trkpt><trkpt lat="39.550979357301394" lon="16.843849648569535"><ele>7.0</ele><time>2026-04-06T09:29:19.999Z</time></trkpt><trkpt lat="39.55109750332362" lon="16.843673159310267"><ele>7.0</ele><time>2026-04-06T09:29:20.999Z</time></trkpt><trkpt lat="39.551214912746936" lon="16.843494416467795"><ele>6.333333333333334</ele><time>2026-04-06T09:29:21.999Z</time></trkpt><trkpt lat="39.551333009009625" lon="16.84331603542908"><ele>5.666666666666667</ele><time>2026-04-06T09:29:22.999Z</time></trkpt><trkpt lat="39.551451264021495" lon="16.843137759749382"><ele>5.0</ele><time>2026-04-06T09:29:23.999Z</time></trkpt><trkpt lat="39.55156708292877" lon="16.842961956306382"><ele>5.0</ele><time>2026-04-06T09:29:24.999Z</time></trkpt><trkpt lat="39.55168588893303" lon="16.842783691381747"><ele>5.0</ele><time>2026-04-06T09:29:25.999Z</time></trkpt><trkpt lat="39.5518026883733" lon="16.842611820071188"><ele>5.0</ele><time>2026-04-06T09:29:26.999Z</time></trkpt><trkpt lat="39.55192054857674" lon="16.84244075111697"><ele>5.666666666666667</ele><time>2026-04-06T09:29:27.999Z</time></trkpt><trkpt lat="39.55203716727179" lon="16.842271341471314"><ele>6.333333333333334</ele><time>2026-04-06T09:29:28.999Z</time></trkpt><trkpt lat="39.552155405293234" lon="16.84210375430737"><ele>7.0</ele><time>2026-04-06T09:29:29.999Z</time></trkpt><trkpt lat="39.55227312545277" lon="16.841936710259894"><ele>6.333333333333334</ele><time>2026-04-06T09:29:30.999Z</time></trkpt><trkpt lat="39.5523974749948" lon="16.841774441559423"><ele>5.666666666666667</ele><time>2026-04-06T09:29:31.999Z</time></trkpt><trkpt lat="39.55251292627535" lon="16.84160831692392"><ele>5.0</ele><time>2026-04-06T09:29:32.999Z</time></trkpt><trkpt lat="39.55263601035708" lon="16.841447675964677"><ele>5.0</ele><time>2026-04-06T09:29:33.999Z</time></trkpt><trkpt lat="39.55276174205361" lon="16.84128318790845"><ele>5.0</ele><time>2026-04-06T09:29:34.999Z</time></trkpt><trkpt lat="39.552879426641745" lon="16.84111954239771"><ele>5.0</ele><time>2026-04-06T09:29:35.999Z</time></trkpt><trkpt lat="39.552995473200276" lon="16.840959005629912"><ele>5.0</ele><time>2026-04-06T09:29:36.999Z</time></trkpt><trkpt lat="39.55311979803212" lon="16.840799377386055"><ele>5.0</ele><time>2026-04-06T09:29:37.999Z</time></trkpt><trkpt lat="39.55324138497816" lon="16.84064324087194"><ele>5.0</ele><time>2026-04-06T09:29:38.999Z</time></trkpt><trkpt lat="39.553362004491746" lon="16.840482386054077"><ele>5.0</ele><time>2026-04-06T09:29:39.999Z</time></trkpt><trkpt lat="39.55348210857719" lon="16.840317672565664"><ele>5.0</ele><time>2026-04-06T09:29:40.999Z</time></trkpt><trkpt lat="39.55360882987956" lon="16.840152036333155"><ele>5.0</ele><time>2026-04-06T09:29:41.999Z</time></trkpt><trkpt lat="39.55373214614906" lon="16.839985161671105"><ele>5.333333333333334</ele><time>2026-04-06T09:29:42.999Z</time></trkpt><trkpt lat="39.553858415366285" lon="16.839821620445587"><ele>5.666666666666667</ele><time>2026-04-06T09:29:43.999Z</time></trkpt><trkpt lat="39.55398103530748" lon="16.839661703064333"><ele>6.0</ele><time>2026-04-06T09:29:44.999Z</time></trkpt><trkpt lat="39.554103240146155" lon="16.839501542384422"><ele>6.0</ele><time>2026-04-06T09:29:45.999Z</time></trkpt><trkpt lat="39.55422085268621" lon="16.8393379336708"><ele>6.0</ele><time>2026-04-06T09:29:46.999Z</time></trkpt><trkpt lat="39.55434583000357" lon="16.839176160682634"><ele>6.0</ele><time>2026-04-06T09:29:47.999Z</time></trkpt><trkpt lat="39.55446242004203" lon="16.839013090862235"><ele>5.0</ele><time>2026-04-06T09:29:48.999Z</time></trkpt><trkpt lat="39.554590734009956" lon="16.838849357754782"><ele>4.0</ele><time>2026-04-06T09:29:49.999Z</time></trkpt><trkpt lat="39.55471665122127" lon="16.838684207922814"><ele>3.0</ele><time>2026-04-06T09:29:50.999Z</time></trkpt><trkpt lat="39.554844790089504" lon="16.838519923464087"><ele>3.333333333333333</ele><time>2026-04-06T09:29:51.999Z</time></trkpt><trkpt lat="39.55497269733933" lon="16.838362882026487"><ele>3.6666666666666665</ele><time>2026-04-06T09:29:52.999Z</time></trkpt><trkpt lat="39.555101748458036" lon="16.838207394225666"><ele>4.0</ele><time>2026-04-06T09:29:53.999Z</time></trkpt><trkpt lat="39.55523018385466" lon="16.838055927471597"><ele>4.0</ele><time>2026-04-06T09:29:54.999Z</time></trkpt><trkpt lat="39.55535375047278" lon="16.837910393102433"><ele>4.0</ele><time>2026-04-06T09:29:55.999Z</time></trkpt><trkpt lat="39.55549079293709" lon="16.837782290859106"><ele>4.0</ele><time>2026-04-06T09:29:56.999Z</time></trkpt><trkpt lat="39.55561579308405" lon="16.83763862144126"><ele>4.333333333333333</ele><time>2026-04-06T09:29:57.999Z</time></trkpt><trkpt lat="39.555741228277675" lon="16.83749477060217"><ele>4.666666666666667</ele><time>2026-04-06T09:29:59Z</time></trkpt><trkpt lat="39.555855422563674" lon="16.83733717272263"><ele>5.0</ele><time>2026-04-06T09:30:00Z</time></trkpt><trkpt lat="39.55598093933719" lon="16.837192585089728"><ele>5.0</ele><time>2026-04-06T09:30:01Z</time></trkpt><trkpt lat="39.55611918316705" lon="16.837061644073884"><ele>5.0</ele><time>2026-04-06T09:30:02Z</time></trkpt><trkpt lat="39.556248486321486" lon="16.836913465994694"><ele>5.0</ele><time>2026-04-06T09:30:03Z</time></trkpt><trkpt lat="39.55637945867411" lon="16.83676337505898"><ele>4.666666666666667</ele><time>2026-04-06T09:30:04Z</time></trkpt><trkpt lat="39.55650054632743" lon="16.836597770791006"><ele>4.333333333333333</ele><time>2026-04-06T09:30:05Z</time></trkpt><trkpt lat="39.556636947724286" lon="16.83644313878652"><ele>4.0</ele><time>2026-04-06T09:30:06Z</time></trkpt><trkpt lat="39.556773519399336" lon="16.836289319244692"><ele>4.0</ele><time>2026-04-06T09:30:07Z</time></trkpt><trkpt lat="39.55690814664472" lon="16.8361323158136"><ele>4.0</ele><time>2026-04-06T09:30:08Z</time></trkpt><trkpt lat="39.55704591350667" lon="16.835976579027708"><ele>4.0</ele><time>2026-04-06T09:30:09Z</time></trkpt><trkpt lat="39.55718055488645" lon="16.835820264511707"><ele>3.6666666666666665</ele><time>2026-04-06T09:30:10Z</time></trkpt><trkpt lat="39.557317151203684" lon="16.835664006896007"><ele>3.333333333333333</ele><time>2026-04-06T09:30:11Z</time></trkpt><trkpt lat="39.557451975041076" lon="16.83550864330712"><ele>3.0</ele><time>2026-04-06T09:30:12Z</time></trkpt><trkpt lat="39.557585906001144" lon="16.835354942642784"><ele>3.0</ele><time>2026-04-06T09:30:13Z</time></trkpt><trkpt lat="39.55772005282928" lon="16.835200047853856"><ele>3.0</ele><time>2026-04-06T09:30:14Z</time></trkpt><trkpt lat="39.55785209710055" lon="16.835044296277136"><ele>3.0</ele><time>2026-04-06T09:30:15Z</time></trkpt><trkpt lat="39.557986432191136" lon="16.83489090842465"><ele>3.333333333333333</ele><time>2026-04-06T09:30:16Z</time></trkpt><trkpt lat="39.55812166221279" lon="16.83473694943923"><ele>3.6666666666666665</ele><time>2026-04-06T09:30:17Z</time></trkpt><trkpt lat="39.558262976557366" lon="16.834597942744836"><ele>4.0</ele><time>2026-04-06T09:30:18Z</time></trkpt><trkpt lat="39.55838594283282" lon="16.834430804784287"><ele>3.6666666666666665</ele><time>2026-04-06T09:30:19Z</time></trkpt><trkpt lat="39.55851660994725" lon="16.834276965940468"><ele>3.333333333333333</ele><time>2026-04-06T09:30:20Z</time></trkpt><trkpt lat="39.55864487042714" lon="16.834121843494845"><ele>3.0</ele><time>2026-04-06T09:30:21Z</time></trkpt><trkpt lat="39.558773266450146" lon="16.833963782668896"><ele>3.0</ele><time>2026-04-06T09:30:22Z</time></trkpt><trkpt lat="39.55889570686323" lon="16.83380440367706"><ele>3.0</ele><time>2026-04-06T09:30:23Z</time></trkpt><trkpt lat="39.5590206735538" lon="16.833644485629435"><ele>3.0</ele><time>2026-04-06T09:30:24Z</time></trkpt><trkpt lat="39.55914793912962" lon="16.83348856379003"><ele>3.333333333333333</ele><time>2026-04-06T09:30:25Z</time></trkpt><trkpt lat="39.559264705345996" lon="16.833331280375045"><ele>3.6666666666666665</ele><time>2026-04-06T09:30:26Z</time></trkpt><trkpt lat="39.559381063585796" lon="16.833171865569014"><ele>4.0</ele><time>2026-04-06T09:30:27Z</time></trkpt><trkpt lat="39.55950024795225" lon="16.833014177541763"><ele>3.6666666666666665</ele><time>2026-04-06T09:30:28Z</time></trkpt><trkpt lat="39.55961968537841" lon="16.83285762918336"><ele>3.333333333333333</ele><time>2026-04-06T09:30:29Z</time></trkpt><trkpt lat="39.55973656449833" lon="16.83270104187973"><ele>3.0</ele><time>2026-04-06T09:30:30Z</time></trkpt><trkpt lat="39.55986007198192" lon="16.832549543063045"><ele>4.0</ele><time>2026-04-06T09:30:31Z</time></trkpt><trkpt lat="39.55998367520696" lon="16.83239635394132"><ele>5.0</ele><time>2026-04-06T09:30:32Z</time></trkpt><trkpt lat="39.56010390518956" lon="16.832243807850787"><ele>6.0</ele><time>2026-04-06T09:30:33Z</time></trkpt><trkpt lat="39.560230439796925" lon="16.832084457831257"><ele>6.0</ele><time>2026-04-06T09:30:34Z</time></trkpt><trkpt lat="39.560358098274186" lon="16.83193682748019"><ele>6.0</ele><time>2026-04-06T09:30:34.999Z</time></trkpt><trkpt lat="39.56048872780734" lon="16.831784483337643"><ele>6.0</ele><time>2026-04-06T09:30:35.999Z</time></trkpt><trkpt lat="39.560631274085814" lon="16.831649306584886"><ele>5.666666666666667</ele><time>2026-04-06T09:30:36.999Z</time></trkpt><trkpt lat="39.5607577480189" lon="16.831487628990434"><ele>5.333333333333334</ele><time>2026-04-06T09:30:37.999Z</time></trkpt><trkpt lat="39.56089493555935" lon="16.831351740862647"><ele>5.0</ele><time>2026-04-06T09:30:38.999Z</time></trkpt><trkpt lat="39.56102955976285" lon="16.831210740286075"><ele>5.0</ele><time>2026-04-06T09:30:39.999Z</time></trkpt><trkpt lat="39.561164653975" lon="16.831076394623928"><ele>5.0</ele><time>2026-04-06T09:30:40.999Z</time></trkpt><trkpt lat="39.5612968333529" lon="16.83093893870031"><ele>5.0</ele><time>2026-04-06T09:30:41.999Z</time></trkpt><trkpt lat="39.56143765919432" lon="16.830810815946645"><ele>6.0</ele><time>2026-04-06T09:30:42.999Z</time></trkpt><trkpt lat="39.56156712401776" lon="16.830675758685054"><ele>7.0</ele><time>2026-04-06T09:30:43.999Z</time></trkpt><trkpt lat="39.5616889624312" lon="16.83051954450886"><ele>8.0</ele><time>2026-04-06T09:30:44.999Z</time></trkpt><trkpt lat="39.561818482706265" lon="16.830384715749247"><ele>8.0</ele><time>2026-04-06T09:30:45.999Z</time></trkpt><trkpt lat="39.5619511920738" lon="16.830253323733185"><ele>8.0</ele><time>2026-04-06T09:30:46.999Z</time></trkpt><trkpt lat="39.562081214568764" lon="16.830117948077035"><ele>8.0</ele><time>2026-04-06T09:30:47.999Z</time></trkpt><trkpt lat="39.562217488387176" lon="16.829981059421012"><ele>8.0</ele><time>2026-04-06T09:30:48.999Z</time></trkpt><trkpt lat="39.562351895665635" lon="16.829844756310134"><ele>8.0</ele><time>2026-04-06T09:30:49.999Z</time></trkpt><trkpt lat="39.56248256225103" lon="16.829706062341398"><ele>8.0</ele><time>2026-04-06T09:30:50.999Z</time></trkpt><trkpt lat="39.56261033940034" lon="16.829579213833675"><ele>8.0</ele><time>2026-04-06T09:30:51.999Z</time></trkpt><trkpt lat="39.562726703099415" lon="16.829448858746872"><ele>8.0</ele><time>2026-04-06T09:30:52.999Z</time></trkpt><trkpt lat="39.56285216971416" lon="16.829348470760873"><ele>8.0</ele><time>2026-04-06T09:30:53.999Z</time></trkpt><trkpt lat="39.562953710485665" lon="16.829218732739438"><ele>8.0</ele><time>2026-04-06T09:30:54.999Z</time></trkpt><trkpt lat="39.56306554619028" lon="16.82910567554953"><ele>8.0</ele><time>2026-04-06T09:30:55.999Z</time></trkpt><trkpt lat="39.56318488741738" lon="16.829014079743665"><ele>8.0</ele><time>2026-04-06T09:30:56.999Z</time></trkpt><trkpt lat="39.56328788742667" lon="16.82888945683779"><ele>8.0</ele><time>2026-04-06T09:30:57.999Z</time></trkpt><trkpt lat="39.56340305771438" lon="16.828784336640858"><ele>8.0</ele><time>2026-04-06T09:30:58.999Z</time></trkpt><trkpt lat="39.56353071193239" lon="16.828674040645037"><ele>8.0</ele><time>2026-04-06T09:30:59.999Z</time></trkpt><trkpt lat="39.56364866710679" lon="16.828573717275997"><ele>8.0</ele><time>2026-04-06T09:31:00.999Z</time></trkpt><trkpt lat="39.5637708407378" lon="16.82846311096144"><ele>8.0</ele><time>2026-04-06T09:31:01.999Z</time></trkpt><trkpt lat="39.563895545501715" lon="16.82834713273385"><ele>8.0</ele><time>2026-04-06T09:31:02.999Z</time></trkpt><trkpt lat="39.56402322886564" lon="16.828229006255313"><ele>7.666666666666666</ele><time>2026-04-06T09:31:03.999Z</time></trkpt><trkpt lat="39.56414608351616" lon="16.828117437660715"><ele>7.333333333333334</ele><time>2026-04-06T09:31:04.999Z</time></trkpt><trkpt lat="39.56427553349937" lon="16.82800635834087"><ele>7.0</ele><time>2026-04-06T09:31:05.999Z</time></trkpt><trkpt lat="39.56439987710846" lon="16.8278931129396"><ele>7.0</ele><time>2026-04-06T09:31:06.999Z</time></trkpt><trkpt lat="39.56453001737192" lon="16.827785501738685"><ele>7.0</ele><time>2026-04-06T09:31:07.999Z</time></trkpt><trkpt lat="39.56465247196192" lon="16.827670864375197"><ele>7.0</ele><time>2026-04-06T09:31:08.999Z</time></trkpt><trkpt lat="39.56477781720088" lon="16.82755680943804"><ele>7.0</ele><time>2026-04-06T09:31:09.999Z</time></trkpt><trkpt lat="39.564902633062594" lon="16.827442307707866"><ele>7.0</ele><time>2026-04-06T09:31:10.999Z</time></trkpt><trkpt lat="39.56503052975469" lon="16.827327263335068"><ele>7.0</ele><time>2026-04-06T09:31:11.999Z</time></trkpt><trkpt lat="39.56515635830788" lon="16.82721250338457"><ele>7.0</ele><time>2026-04-06T09:31:12.999Z</time></trkpt><trkpt lat="39.56528581468532" lon="16.82709675724803"><ele>7.0</ele><time>2026-04-06T09:31:13.999Z</time></trkpt><trkpt lat="39.565411843897046" lon="16.826982702165672"><ele>7.0</ele><time>2026-04-06T09:31:14.999Z</time></trkpt><trkpt lat="39.5655431225047" lon="16.826868774223627"><ele>6.666666666666667</ele><time>2026-04-06T09:31:15.999Z</time></trkpt><trkpt lat="39.56567136279285" lon="16.82675468531117"><ele>6.333333333333334</ele><time>2026-04-06T09:31:16.999Z</time></trkpt><trkpt lat="39.56580112720615" lon="16.82664167801217"><ele>6.0</ele><time>2026-04-06T09:31:17.999Z</time></trkpt><trkpt lat="39.56592957098972" lon="16.826530102348997"><ele>6.0</ele><time>2026-04-06T09:31:18.999Z</time></trkpt><trkpt lat="39.56605732679894" lon="16.826419044404858"><ele>6.0</ele><time>2026-04-06T09:31:19.999Z</time></trkpt><trkpt lat="39.56618518314141" lon="16.82630823679377"><ele>6.0</ele><time>2026-04-06T09:31:20.999Z</time></trkpt><trkpt lat="39.56631188455633" lon="16.82619750497611"><ele>5.666666666666667</ele><time>2026-04-06T09:31:21.999Z</time></trkpt><trkpt lat="39.56643830315876" lon="16.82608909273922"><ele>5.333333333333334</ele><time>2026-04-06T09:31:22.999Z</time></trkpt><trkpt lat="39.56656521339148" lon="16.825981766972664"><ele>5.0</ele><time>2026-04-06T09:31:23.999Z</time></trkpt><trkpt lat="39.56669503513536" lon="16.825877122562808"><ele>5.0</ele><time>2026-04-06T09:31:24.999Z</time></trkpt><trkpt lat="39.56682378737535" lon="16.8257698527735"><ele>5.0</ele><time>2026-04-06T09:31:25.999Z</time></trkpt><trkpt lat="39.566948868297374" lon="16.82566328655313"><ele>5.0</ele><time>2026-04-06T09:31:26.999Z</time></trkpt><trkpt lat="39.567077070711946" lon="16.82555439828875"><ele>5.0</ele><time>2026-04-06T09:31:27.999Z</time></trkpt><trkpt lat="39.56720430887627" lon="16.82544533338469"><ele>5.0</ele><time>2026-04-06T09:31:28.999Z</time></trkpt><trkpt lat="39.56733331304878" lon="16.825337073808477"><ele>5.0</ele><time>2026-04-06T09:31:29.999Z</time></trkpt><trkpt lat="39.567464208460535" lon="16.82522770187476"><ele>4.666666666666667</ele><time>2026-04-06T09:31:30.999Z</time></trkpt><trkpt lat="39.567595474285554" lon="16.825120849062664"><ele>4.333333333333333</ele><time>2026-04-06T09:31:31.999Z</time></trkpt><trkpt lat="39.56772859844026" lon="16.825008761919705"><ele>4.0</ele><time>2026-04-06T09:31:32.999Z</time></trkpt><trkpt lat="39.567861287244035" lon="16.824897165764977"><ele>4.0</ele><time>2026-04-06T09:31:33.999Z</time></trkpt><trkpt lat="39.567994957547306" lon="16.824785084649058"><ele>4.0</ele><time>2026-04-06T09:31:34.999Z</time></trkpt><trkpt lat="39.56812974435023" lon="16.824672000119897"><ele>4.0</ele><time>2026-04-06T09:31:35.999Z</time></trkpt><trkpt lat="39.56826539147794" lon="16.82455833618753"><ele>4.0</ele><time>2026-04-06T09:31:36.999Z</time></trkpt><trkpt lat="39.568401354692206" lon="16.824442314579297"><ele>4.0</ele><time>2026-04-06T09:31:37.999Z</time></trkpt><trkpt lat="39.568539137945855" lon="16.824325977363202"><ele>4.0</ele><time>2026-04-06T09:31:38.999Z</time></trkpt><trkpt lat="39.568686576977356" lon="16.824226692622283"><ele>4.0</ele><time>2026-04-06T09:31:39.999Z</time></trkpt><trkpt lat="39.56881884192418" lon="16.82409251542215"><ele>4.0</ele><time>2026-04-06T09:31:40.999Z</time></trkpt><trkpt lat="39.568960254774275" lon="16.82397288176878"><ele>4.0</ele><time>2026-04-06T09:31:41.999Z</time></trkpt><trkpt lat="39.56911043547335" lon="16.823871511611316"><ele>4.0</ele><time>2026-04-06T09:31:42.999Z</time></trkpt><trkpt lat="39.56924587095641" lon="16.823731366974343"><ele>4.0</ele><time>2026-04-06T09:31:43.999Z</time></trkpt><trkpt lat="39.56939660545375" lon="16.82362914204698"><ele>4.0</ele><time>2026-04-06T09:31:44.999Z</time></trkpt><trkpt lat="39.56953622521076" lon="16.823513012732917"><ele>4.25</ele><time>2026-04-06T09:31:45.999Z</time></trkpt><trkpt lat="39.569661025129065" lon="16.82338561897079"><ele>4.5</ele><time>2026-04-06T09:31:46.999Z</time></trkpt><trkpt lat="39.5697861814987" lon="16.82329125231285"><ele>4.75</ele><time>2026-04-06T09:31:47.999Z</time></trkpt><trkpt lat="39.569907910879714" lon="16.823202623809408"><ele>5.0</ele><time>2026-04-06T09:31:48.999Z</time></trkpt><trkpt lat="39.570038135275176" lon="16.823124133065605"><ele>5.0</ele><time>2026-04-06T09:31:49.999Z</time></trkpt><trkpt lat="39.57017014045582" lon="16.823041204169662"><ele>5.0</ele><time>2026-04-06T09:31:50.999Z</time></trkpt><trkpt lat="39.57030250564327" lon="16.822955995206865"><ele>5.0</ele><time>2026-04-06T09:31:51.999Z</time></trkpt><trkpt lat="39.570437918484366" lon="16.82287152861285"><ele>5.0</ele><time>2026-04-06T09:31:52.999Z</time></trkpt><trkpt lat="39.57056870893297" lon="16.82278271779978"><ele>4.75</ele><time>2026-04-06T09:31:53.999Z</time></trkpt><trkpt lat="39.5706993579375" lon="16.822700319243012"><ele>4.5</ele><time>2026-04-06T09:31:54.999Z</time></trkpt><trkpt lat="39.570829183424955" lon="16.82261414748592"><ele>4.25</ele><time>2026-04-06T09:31:55.999Z</time></trkpt><trkpt lat="39.57096142756187" lon="16.822527847662382"><ele>4.0</ele><time>2026-04-06T09:31:56.999Z</time></trkpt><trkpt lat="39.571096020037146" lon="16.822451549874913"><ele>4.0</ele><time>2026-04-06T09:31:57.999Z</time></trkpt><trkpt lat="39.57122812679802" lon="16.822375591800476"><ele>4.0</ele><time>2026-04-06T09:31:58.999Z</time></trkpt><trkpt lat="39.57136224715989" lon="16.822307611490192"><ele>4.0</ele><time>2026-04-06T09:31:59.999Z</time></trkpt><trkpt lat="39.57149503354813" lon="16.822242415488272"><ele>4.0</ele><time>2026-04-06T09:32:00.999Z</time></trkpt><trkpt lat="39.57163102307207" lon="16.822179617879524"><ele>4.0</ele><time>2026-04-06T09:32:01.999Z</time></trkpt><trkpt lat="39.571770332551004" lon="16.8221171301653"><ele>4.0</ele><time>2026-04-06T09:32:02.999Z</time></trkpt><trkpt lat="39.571910684748744" lon="16.822055417267876"><ele>4.0</ele><time>2026-04-06T09:32:04Z</time></trkpt><trkpt lat="39.5720503575899" lon="16.82199412999882"><ele>4.0</ele><time>2026-04-06T09:32:05Z</time></trkpt><trkpt lat="39.57219344749565" lon="16.821936727472806"><ele>4.333333333333333</ele><time>2026-04-06T09:32:06Z</time></trkpt><trkpt lat="39.572336565666866" lon="16.821872340415297"><ele>4.666666666666667</ele><time>2026-04-06T09:32:07Z</time></trkpt><trkpt lat="39.57247737938257" lon="16.82180454395013"><ele>5.0</ele><time>2026-04-06T09:32:08Z</time></trkpt><trkpt lat="39.572624055056515" lon="16.82173935677804"><ele>5.666666666666667</ele><time>2026-04-06T09:32:09Z</time></trkpt><trkpt lat="39.57276703523951" lon="16.821676422067668"><ele>6.333333333333334</ele><time>2026-04-06T09:32:10Z</time></trkpt><trkpt lat="39.572911254981356" lon="16.821616818155583"><ele>7.0</ele><time>2026-04-06T09:32:11Z</time></trkpt><trkpt lat="39.57305560915997" lon="16.821555065511333"><ele>7.0</ele><time>2026-04-06T09:32:12Z</time></trkpt><trkpt lat="39.57320141075771" lon="16.82149100354464"><ele>7.0</ele><time>2026-04-06T09:32:13Z</time></trkpt><trkpt lat="39.57334894378054" lon="16.82142583302012"><ele>7.0</ele><time>2026-04-06T09:32:14Z</time></trkpt><trkpt lat="39.57349901940139" lon="16.821362611366233"><ele>7.0</ele><time>2026-04-06T09:32:15Z</time></trkpt><trkpt lat="39.57363772455894" lon="16.821299977182655"><ele>7.0</ele><time>2026-04-06T09:32:16Z</time></trkpt><trkpt lat="39.573770039442955" lon="16.821246537826774"><ele>7.0</ele><time>2026-04-06T09:32:17Z</time></trkpt><trkpt lat="39.57389569923773" lon="16.821194576186187"><ele>7.0</ele><time>2026-04-06T09:32:18Z</time></trkpt><trkpt lat="39.574024551438164" lon="16.82113751134813"><ele>6.75</ele><time>2026-04-06T09:32:19Z</time></trkpt><trkpt lat="39.574151910401106" lon="16.821078900430294"><ele>6.5</ele><time>2026-04-06T09:32:19.999Z</time></trkpt><trkpt lat="39.57428016243172" lon="16.821021715993034"><ele>6.25</ele><time>2026-04-06T09:32:20.999Z</time></trkpt><trkpt lat="39.574409486538976" lon="16.820964949619572"><ele>6.0</ele><time>2026-04-06T09:32:21.999Z</time></trkpt><trkpt lat="39.574542185837274" lon="16.82090514667438"><ele>6.0</ele><time>2026-04-06T09:32:22.999Z</time></trkpt><trkpt lat="39.574670168041465" lon="16.82084786199555"><ele>6.0</ele><time>2026-04-06T09:32:23.999Z</time></trkpt><trkpt lat="39.57479806913719" lon="16.820793466344984"><ele>6.0</ele><time>2026-04-06T09:32:24.999Z</time></trkpt><trkpt lat="39.574927550126475" lon="16.820740965708637"><ele>6.0</ele><time>2026-04-06T09:32:25.999Z</time></trkpt><trkpt lat="39.575062708269954" lon="16.820704668438047"><ele>6.0</ele><time>2026-04-06T09:32:26.999Z</time></trkpt><trkpt lat="39.575192176656216" lon="16.820648494713183"><ele>6.0</ele><time>2026-04-06T09:32:27.999Z</time></trkpt><trkpt lat="39.57532332549167" lon="16.82059159150518"><ele>6.0</ele><time>2026-04-06T09:32:28.999Z</time></trkpt><trkpt lat="39.575457602390806" lon="16.82053365564579"><ele>6.0</ele><time>2026-04-06T09:32:29.999Z</time></trkpt><trkpt lat="39.5755891839487" lon="16.820454326741906"><ele>5.5</ele><time>2026-04-06T09:32:30.999Z</time></trkpt><trkpt lat="39.575727080911236" lon="16.82039492049652"><ele>5.0</ele><time>2026-04-06T09:32:31.999Z</time></trkpt><trkpt lat="39.575872783996964" lon="16.820354431137304"><ele>4.5</ele><time>2026-04-06T09:32:32.999Z</time></trkpt><trkpt lat="39.57601479911603" lon="16.820275307177944"><ele>4.0</ele><time>2026-04-06T09:32:33.999Z</time></trkpt><trkpt lat="39.576162999600534" lon="16.82021123290202"><ele>4.0</ele><time>2026-04-06T09:32:34.999Z</time></trkpt><trkpt lat="39.576313848948914" lon="16.820144792062997"><ele>4.0</ele><time>2026-04-06T09:32:35.999Z</time></trkpt><trkpt lat="39.576463442796566" lon="16.820078792882466"><ele>4.0</ele><time>2026-04-06T09:32:36.999Z</time></trkpt><trkpt lat="39.57661191135735" lon="16.820013242692525"><ele>4.0</ele><time>2026-04-06T09:32:37.999Z</time></trkpt><trkpt lat="39.57676525613862" lon="16.819969230401615"><ele>4.0</ele><time>2026-04-06T09:32:38.999Z</time></trkpt><trkpt lat="39.57691053034041" lon="16.81988549346936"><ele>4.0</ele><time>2026-04-06T09:32:39.999Z</time></trkpt><trkpt lat="39.57706300907872" lon="16.819824432866103"><ele>4.0</ele><time>2026-04-06T09:32:40.999Z</time></trkpt><trkpt lat="39.57721554082027" lon="16.81975869203857"><ele>4.0</ele><time>2026-04-06T09:32:41.999Z</time></trkpt><trkpt lat="39.577373014492714" lon="16.819693206480085"><ele>4.0</ele><time>2026-04-06T09:32:42.999Z</time></trkpt><trkpt lat="39.577532984329885" lon="16.819620810496968"><ele>4.0</ele><time>2026-04-06T09:32:43.999Z</time></trkpt><trkpt lat="39.57770083000929" lon="16.81955216380182"><ele>4.0</ele><time>2026-04-06T09:32:44.999Z</time></trkpt><trkpt lat="39.57784779855542" lon="16.819484912445038"><ele>4.0</ele><time>2026-04-06T09:32:45.999Z</time></trkpt><trkpt lat="39.57799343363061" lon="16.819430352764076"><ele>4.0</ele><time>2026-04-06T09:32:46.999Z</time></trkpt><trkpt lat="39.57814195540493" lon="16.819376160643962"><ele>4.0</ele><time>2026-04-06T09:32:47.999Z</time></trkpt><trkpt lat="39.57829437507969" lon="16.819326612702778"><ele>4.0</ele><time>2026-04-06T09:32:48.999Z</time></trkpt><trkpt lat="39.57844759696345" lon="16.819281210628947"><ele>4.25</ele><time>2026-04-06T09:32:49.999Z</time></trkpt><trkpt lat="39.57859307796196" lon="16.819232103785485"><ele>4.5</ele><time>2026-04-06T09:32:50.999Z</time></trkpt><trkpt lat="39.578735269253144" lon="16.8191882624322"><ele>4.75</ele><time>2026-04-06T09:32:51.999Z</time></trkpt><trkpt lat="39.578881008126146" lon="16.819143641907104"><ele>5.0</ele><time>2026-04-06T09:32:52.999Z</time></trkpt><trkpt lat="39.579025418051366" lon="16.81909664930967"><ele>5.0</ele><time>2026-04-06T09:32:53.999Z</time></trkpt><trkpt lat="39.57915781391047" lon="16.819049457528802"><ele>5.0</ele><time>2026-04-06T09:32:54.998Z</time></trkpt><trkpt lat="39.57928436528607" lon="16.819010639336636"><ele>5.0</ele><time>2026-04-06T09:32:55.998Z</time></trkpt><trkpt lat="39.579405998428946" lon="16.81898117747259"><ele>5.0</ele><time>2026-04-06T09:32:56.998Z</time></trkpt><trkpt lat="39.57952353617445" lon="16.818949806485758"><ele>4.5</ele><time>2026-04-06T09:32:57.998Z</time></trkpt><trkpt lat="39.5796416350377" lon="16.818917407262507"><ele>4.0</ele><time>2026-04-06T09:32:58.998Z</time></trkpt><trkpt lat="39.57976964845776" lon="16.818885686385727"><ele>3.5</ele><time>2026-04-06T09:32:59.998Z</time></trkpt><trkpt lat="39.57989972682078" lon="16.81885527550631"><ele>3.0</ele><time>2026-04-06T09:33:00.998Z</time></trkpt><trkpt lat="39.58003328693383" lon="16.81881808284647"><ele>3.0</ele><time>2026-04-06T09:33:01.998Z</time></trkpt><trkpt lat="39.58017148901555" lon="16.81878051218536"><ele>3.0</ele><time>2026-04-06T09:33:02.998Z</time></trkpt><trkpt lat="39.58031512410954" lon="16.818749326557977"><ele>3.0</ele><time>2026-04-06T09:33:03.998Z</time></trkpt><trkpt lat="39.58046111479155" lon="16.81870822844368"><ele>3.0</ele><time>2026-04-06T09:33:04.998Z</time></trkpt><trkpt lat="39.58060771670053" lon="16.81867115156453"><ele>3.25</ele><time>2026-04-06T09:33:05.998Z</time></trkpt><trkpt lat="39.58074958492219" lon="16.818625503095042"><ele>3.5</ele><time>2026-04-06T09:33:06.998Z</time></trkpt><trkpt lat="39.58089360823598" lon="16.81857685630561"><ele>3.75</ele><time>2026-04-06T09:33:07.998Z</time></trkpt><trkpt lat="39.581034950134836" lon="16.818522959847634"><ele>4.0</ele><time>2026-04-06T09:33:08.998Z</time></trkpt><trkpt lat="39.581182195404345" lon="16.81848742653933"><ele>4.25</ele><time>2026-04-06T09:33:09.998Z</time></trkpt><trkpt lat="39.58132675819817" lon="16.81843458205109"><ele>4.5</ele><time>2026-04-06T09:33:10.998Z</time></trkpt><trkpt lat="39.58147160842448" lon="16.818381632539705"><ele>4.75</ele><time>2026-04-06T09:33:11.998Z</time></trkpt><trkpt lat="39.58160945014264" lon="16.81831152626523"><ele>5.0</ele><time>2026-04-06T09:33:12.998Z</time></trkpt><trkpt lat="39.581756393841424" lon="16.81827753018691"><ele>5.0</ele><time>2026-04-06T09:33:13.998Z</time></trkpt><trkpt lat="39.58189856179384" lon="16.81822556116551"><ele>5.0</ele><time>2026-04-06T09:33:14.998Z</time></trkpt><trkpt lat="39.582042410371244" lon="16.818172595331337"><ele>5.0</ele><time>2026-04-06T09:33:15.998Z</time></trkpt><trkpt lat="39.5821875924388" lon="16.818117761983242"><ele>5.0</ele><time>2026-04-06T09:33:16.998Z</time></trkpt><trkpt lat="39.582330906676596" lon="16.81806065252864"><ele>5.0</ele><time>2026-04-06T09:33:17.998Z</time></trkpt><trkpt lat="39.58246693038091" lon="16.81798151830752"><ele>5.0</ele><time>2026-04-06T09:33:18.998Z</time></trkpt><trkpt lat="39.58260226367831" lon="16.817937625989984"><ele>5.0</ele><time>2026-04-06T09:33:19.998Z</time></trkpt><trkpt lat="39.58272277502654" lon="16.817877768914915"><ele>5.0</ele><time>2026-04-06T09:33:20.998Z</time></trkpt><trkpt lat="39.58283554578585" lon="16.817813839774868"><ele>5.333333333333334</ele><time>2026-04-06T09:33:21.998Z</time></trkpt><trkpt lat="39.58294183637035" lon="16.81774781893955"><ele>5.666666666666667</ele><time>2026-04-06T09:33:22.998Z</time></trkpt><trkpt lat="39.58294183637035" lon="16.81774781893955"><ele>6.0</ele><time>2026-04-06T09:33:22.998Z</time></trkpt><trkpt lat="39.58386711136186" lon="16.81709930821544"><ele>5.75</ele><time>2026-04-06T09:33:32.998Z</time></trkpt><trkpt lat="39.58397965051266" lon="16.81701938665966"><ele>5.5</ele><time>2026-04-06T09:33:33.998Z</time></trkpt><trkpt lat="39.58409808991225" lon="16.816936604765854"><ele>5.25</ele><time>2026-04-06T09:33:34.998Z</time></trkpt><trkpt lat="39.584221968672324" lon="16.81685229514051"><ele>5.0</ele><time>2026-04-06T09:33:35.998Z</time></trkpt><trkpt lat="39.584353377067245" lon="16.816757451887135"><ele>5.0</ele><time>2026-04-06T09:33:36.998Z</time></trkpt><trkpt lat="39.584480833640434" lon="16.81665119959493"><ele>5.0</ele><time>2026-04-06T09:33:37.998Z</time></trkpt><trkpt lat="39.58461188340535" lon="16.816538027123066"><ele>5.0</ele><time>2026-04-06T09:33:38.998Z</time></trkpt><trkpt lat="39.58474189004959" lon="16.81641717334698"><ele>5.0</ele><time>2026-04-06T09:33:39.998Z</time></trkpt><trkpt lat="39.58486563213797" lon="16.816293372391435"><ele>5.0</ele><time>2026-04-06T09:33:40.998Z</time></trkpt><trkpt lat="39.58498878831391" lon="16.81616722671479"><ele>5.0</ele><time>2026-04-06T09:33:41.998Z</time></trkpt><trkpt lat="39.58510786275513" lon="16.81605264073469"><ele>5.0</ele><time>2026-04-06T09:33:42.998Z</time></trkpt><trkpt lat="39.58522386805349" lon="16.815950579763626"><ele>5.0</ele><time>2026-04-06T09:33:43.998Z</time></trkpt><trkpt lat="39.5853314018555" lon="16.815845304965162"><ele>5.0</ele><time>2026-04-06T09:33:44.998Z</time></trkpt><trkpt lat="39.58543980850507" lon="16.815731968612035"><ele>5.0</ele><time>2026-04-06T09:33:45.998Z</time></trkpt><trkpt lat="39.58556715128397" lon="16.815639821831986"><ele>5.0</ele><time>2026-04-06T09:33:46.998Z</time></trkpt><trkpt lat="39.58569037360479" lon="16.815521555599968"><ele>5.0</ele><time>2026-04-06T09:33:47.998Z</time></trkpt><trkpt lat="39.58580505037192" lon="16.81538605490109"><ele>5.0</ele><time>2026-04-06T09:33:48.998Z</time></trkpt><trkpt lat="39.585929691449444" lon="16.81526907478475"><ele>5.0</ele><time>2026-04-06T09:33:49.998Z</time></trkpt><trkpt lat="39.58605575212483" lon="16.815147979204394"><ele>5.0</ele><time>2026-04-06T09:33:50.998Z</time></trkpt><trkpt lat="39.58618126185071" lon="16.815023926571154"><ele>5.0</ele><time>2026-04-06T09:33:51.998Z</time></trkpt><trkpt lat="39.5863182934659" lon="16.814916414622708"><ele>5.0</ele><time>2026-04-06T09:33:52.998Z</time></trkpt><trkpt lat="39.586448086279894" lon="16.81479219539188"><ele>5.0</ele><time>2026-04-06T09:33:53.998Z</time></trkpt><trkpt lat="39.5865691612177" lon="16.81464967329055"><ele>5.0</ele><time>2026-04-06T09:33:54.998Z</time></trkpt><trkpt lat="39.58670937660611" lon="16.81454104310636"><ele>5.0</ele><time>2026-04-06T09:33:55.998Z</time></trkpt><trkpt lat="39.58683885639387" lon="16.81441648250559"><ele>5.0</ele><time>2026-04-06T09:33:56.998Z</time></trkpt><trkpt lat="39.586969199679366" lon="16.814290905783274"><ele>5.0</ele><time>2026-04-06T09:33:57.998Z</time></trkpt><trkpt lat="39.58709971097461" lon="16.81416516720459"><ele>4.666666666666667</ele><time>2026-04-06T09:33:58.998Z</time></trkpt><trkpt lat="39.587231687158585" lon="16.81403801732447"><ele>4.333333333333333</ele><time>2026-04-06T09:33:59.998Z</time></trkpt><trkpt lat="39.587359133795864" lon="16.813915231347217"><ele>4.0</ele><time>2026-04-06T09:34:00.998Z</time></trkpt><trkpt lat="39.58748322759587" lon="16.81379532307583"><ele>4.0</ele><time>2026-04-06T09:34:01.998Z</time></trkpt><trkpt lat="39.587610808395326" lon="16.81367140346792"><ele>4.0</ele><time>2026-04-06T09:34:02.998Z</time></trkpt><trkpt lat="39.58772805664015" lon="16.813526445976567"><ele>4.0</ele><time>2026-04-06T09:34:03.998Z</time></trkpt><trkpt lat="39.587855221285935" lon="16.813388104972375"><ele>4.666666666666666</ele><time>2026-04-06T09:34:04.998Z</time></trkpt><trkpt lat="39.58797014679317" lon="16.813237035032174"><ele>5.333333333333333</ele><time>2026-04-06T09:34:05.998Z</time></trkpt><trkpt lat="39.58807992305027" lon="16.813082081326577"><ele>6.0</ele><time>2026-04-06T09:34:06.998Z</time></trkpt><trkpt lat="39.58819283625679" lon="16.812900502382867"><ele>6.0</ele><time>2026-04-06T09:34:07.998Z</time></trkpt><trkpt lat="39.5883140838408" lon="16.812732230254884"><ele>6.0</ele><time>2026-04-06T09:34:08.999Z</time></trkpt><trkpt lat="39.588425166550856" lon="16.81254925632824"><ele>6.0</ele><time>2026-04-06T09:34:09.999Z</time></trkpt><trkpt lat="39.58851845617958" lon="16.812361457812393"><ele>6.0</ele><time>2026-04-06T09:34:10.999Z</time></trkpt><trkpt lat="39.58863874103351" lon="16.812197459303928"><ele>6.0</ele><time>2026-04-06T09:34:11.999Z</time></trkpt><trkpt lat="39.58873883819406" lon="16.81200767437678"><ele>6.0</ele><time>2026-04-06T09:34:12.999Z</time></trkpt><trkpt lat="39.588850595604605" lon="16.811831614302093"><ele>6.333333333333334</ele><time>2026-04-06T09:34:13.999Z</time></trkpt><trkpt lat="39.58895206701705" lon="16.811667462201527"><ele>6.666666666666667</ele><time>2026-04-06T09:34:14.999Z</time></trkpt><trkpt lat="39.58905195239683" lon="16.811499460409625"><ele>7.0</ele><time>2026-04-06T09:34:15.999Z</time></trkpt><trkpt lat="39.58915189969563" lon="16.811324399317826"><ele>7.0</ele><time>2026-04-06T09:34:16.999Z</time></trkpt><trkpt lat="39.58925829173241" lon="16.811149226055317"><ele>7.0</ele><time>2026-04-06T09:34:17.999Z</time></trkpt><trkpt lat="39.589365423624706" lon="16.810971014002597"><ele>7.0</ele><time>2026-04-06T09:34:18.999Z</time></trkpt><trkpt lat="39.589474663640004" lon="16.810793172467474"><ele>7.0</ele><time>2026-04-06T09:34:19.999Z</time></trkpt><trkpt lat="39.58958224556931" lon="16.810612949859657"><ele>7.0</ele><time>2026-04-06T09:34:20.999Z</time></trkpt><trkpt lat="39.589692894956045" lon="16.810437350189698"><ele>7.0</ele><time>2026-04-06T09:34:21.999Z</time></trkpt><trkpt lat="39.58979801967881" lon="16.810259365246033"><ele>7.666666666666667</ele><time>2026-04-06T09:34:22.999Z</time></trkpt><trkpt lat="39.5899044944285" lon="16.810087204025727"><ele>8.333333333333334</ele><time>2026-04-06T09:34:23.999Z</time></trkpt><trkpt lat="39.59000892180595" lon="16.80991064176116"><ele>9.0</ele><time>2026-04-06T09:34:24.999Z</time></trkpt><trkpt lat="39.590124893439636" lon="16.809749150096074"><ele>9.0</ele><time>2026-04-06T09:34:25.999Z</time></trkpt><trkpt lat="39.59021778540303" lon="16.809567926586595"><ele>9.0</ele><time>2026-04-06T09:34:26.999Z</time></trkpt><trkpt lat="39.590326142901795" lon="16.809397620622644"><ele>9.0</ele><time>2026-04-06T09:34:27.999Z</time></trkpt><trkpt lat="39.590427350841374" lon="16.80922103606643"><ele>8.666666666666666</ele><time>2026-04-06T09:34:28.999Z</time></trkpt><trkpt lat="39.5905451778707" lon="16.80905578280858"><ele>8.333333333333332</ele><time>2026-04-06T09:34:29.999Z</time></trkpt><trkpt lat="39.590651766325266" lon="16.808879339510977"><ele>8.0</ele><time>2026-04-06T09:34:30.999Z</time></trkpt><trkpt lat="39.59076058773333" lon="16.808698770800184"><ele>8.0</ele><time>2026-04-06T09:34:31.999Z</time></trkpt><trkpt lat="39.59085714798025" lon="16.808505750247956"><ele>8.0</ele><time>2026-04-06T09:34:32.999Z</time></trkpt><trkpt lat="39.590973643234854" lon="16.808345044180136"><ele>8.0</ele><time>2026-04-06T09:34:33.999Z</time></trkpt><trkpt lat="39.59107197236221" lon="16.80815490869274"><ele>7.333333333333333</ele><time>2026-04-06T09:34:34.999Z</time></trkpt><trkpt lat="39.5911759544182" lon="16.80797809889226"><ele>6.666666666666666</ele><time>2026-04-06T09:34:35.999Z</time></trkpt><trkpt lat="39.59128111236552" lon="16.80780035297546"><ele>6.0</ele><time>2026-04-06T09:34:36.999Z</time></trkpt><trkpt lat="39.591399691847634" lon="16.80763690729723"><ele>7.333333333333334</ele><time>2026-04-06T09:34:37.999Z</time></trkpt><trkpt lat="39.59150333985559" lon="16.807460808955874"><ele>8.666666666666668</ele><time>2026-04-06T09:34:38.999Z</time></trkpt><trkpt lat="39.591608896341135" lon="16.807284241666032"><ele>10.0</ele><time>2026-04-06T09:34:39.999Z</time></trkpt><trkpt lat="39.59171291889855" lon="16.807110358996944"><ele>10.0</ele><time>2026-04-06T09:34:40.999Z</time></trkpt><trkpt lat="39.59180222867215" lon="16.806934322884118"><ele>10.0</ele><time>2026-04-06T09:34:41.999Z</time></trkpt><trkpt lat="39.591901114595764" lon="16.806780057321358"><ele>10.0</ele><time>2026-04-06T09:34:42.999Z</time></trkpt><trkpt lat="39.59198988116077" lon="16.80663143776683"><ele>9.25</ele><time>2026-04-06T09:34:43.999Z</time></trkpt><trkpt lat="39.59206968827776" lon="16.806495117764662"><ele>8.5</ele><time>2026-04-06T09:34:44.999Z</time></trkpt><trkpt lat="39.592152274421935" lon="16.806364827862783"><ele>7.75</ele><time>2026-04-06T09:34:45.999Z</time></trkpt><trkpt lat="39.59223785310757" lon="16.806232611089452"><ele>7.0</ele><time>2026-04-06T09:34:46.999Z</time></trkpt><trkpt lat="39.592326145840595" lon="16.806108365318384"><ele>7.75</ele><time>2026-04-06T09:34:47.999Z</time></trkpt><trkpt lat="39.592420794867564" lon="16.80598200006509"><ele>8.5</ele><time>2026-04-06T09:34:48.999Z</time></trkpt><trkpt lat="39.59250201168307" lon="16.80585856588002"><ele>9.25</ele><time>2026-04-06T09:34:49.999Z</time></trkpt><trkpt lat="39.59258934063766" lon="16.8057430584867"><ele>10.0</ele><time>2026-04-06T09:34:50.999Z</time></trkpt><trkpt lat="39.59267523142862" lon="16.80562507948452"><ele>10.0</ele><time>2026-04-06T09:34:51.999Z</time></trkpt><trkpt lat="39.592756825111245" lon="16.80551465909576"><ele>10.0</ele><time>2026-04-06T09:34:52.999Z</time></trkpt><trkpt lat="39.59283387386999" lon="16.805413278188336"><ele>10.0</ele><time>2026-04-06T09:34:53.999Z</time></trkpt><trkpt lat="39.592905208443725" lon="16.805315175842924"><ele>10.0</ele><time>2026-04-06T09:34:54.999Z</time></trkpt><trkpt lat="39.59297948246829" lon="16.8052126343638"><ele>10.0</ele><time>2026-04-06T09:34:55.999Z</time></trkpt><trkpt lat="39.59306088960267" lon="16.805098086044058"><ele>9.5</ele><time>2026-04-06T09:34:56.999Z</time></trkpt><trkpt lat="39.5931487818436" lon="16.80497778499274"><ele>9.0</ele><time>2026-04-06T09:34:57.999Z</time></trkpt><trkpt lat="39.593237097231935" lon="16.80485836849301"><ele>8.5</ele><time>2026-04-06T09:34:58.999Z</time></trkpt><trkpt lat="39.593319943136535" lon="16.804746674756757"><ele>8.0</ele><time>2026-04-06T09:34:59.999Z</time></trkpt><trkpt lat="39.59339854594884" lon="16.804638824654106"><ele>8.0</ele><time>2026-04-06T09:35:00.999Z</time></trkpt><trkpt lat="39.59347621847982" lon="16.804530014669602"><ele>8.0</ele><time>2026-04-06T09:35:01.999Z</time></trkpt><trkpt lat="39.59355886560325" lon="16.80441844984231"><ele>8.0</ele><time>2026-04-06T09:35:02.999Z</time></trkpt><trkpt lat="39.593647048406815" lon="16.804302149243203"><ele>8.0</ele><time>2026-04-06T09:35:03.999Z</time></trkpt><trkpt lat="39.59373602215986" lon="16.80418254972294"><ele>7.5</ele><time>2026-04-06T09:35:04.999Z</time></trkpt><trkpt lat="39.59382900181153" lon="16.804058274554233"><ele>7.0</ele><time>2026-04-06T09:35:05.999Z</time></trkpt><trkpt lat="39.59392208418218" lon="16.803935463436872"><ele>6.5</ele><time>2026-04-06T09:35:06.999Z</time></trkpt><trkpt lat="39.59401096375603" lon="16.80380506755914"><ele>6.0</ele><time>2026-04-06T09:35:07.999Z</time></trkpt><trkpt lat="39.594105713082044" lon="16.80367752785203"><ele>6.0</ele><time>2026-04-06T09:35:08.999Z</time></trkpt><trkpt lat="39.594195369366155" lon="16.80355274574604"><ele>6.0</ele><time>2026-04-06T09:35:09.999Z</time></trkpt><trkpt lat="39.59428361710948" lon="16.80344025146476"><ele>6.0</ele><time>2026-04-06T09:35:10.999Z</time></trkpt><trkpt lat="39.59436517566487" lon="16.803329276891674"><ele>6.0</ele><time>2026-04-06T09:35:11.999Z</time></trkpt><trkpt lat="39.59444800134252" lon="16.803217229006016"><ele>6.0</ele><time>2026-04-06T09:35:12.999Z</time></trkpt><trkpt lat="39.59453210482814" lon="16.803096193973172"><ele>6.0</ele><time>2026-04-06T09:35:13.999Z</time></trkpt><trkpt lat="39.59461701763738" lon="16.802976545185373"><ele>6.0</ele><time>2026-04-06T09:35:14.999Z</time></trkpt><trkpt lat="39.59469860152245" lon="16.8028525604435"><ele>6.0</ele><time>2026-04-06T09:35:15.999Z</time></trkpt><trkpt lat="39.59477742802968" lon="16.80272255087653"><ele>6.75</ele><time>2026-04-06T09:35:16.999Z</time></trkpt><trkpt lat="39.59485711529483" lon="16.802591529722612"><ele>7.5</ele><time>2026-04-06T09:35:17.999Z</time></trkpt><trkpt lat="39.59493594385778" lon="16.80245866893056"><ele>8.25</ele><time>2026-04-06T09:35:18.999Z</time></trkpt><trkpt lat="39.595016603435184" lon="16.80232489300684"><ele>9.0</ele><time>2026-04-06T09:35:19.999Z</time></trkpt><trkpt lat="39.59509620152727" lon="16.80218947920864"><ele>9.0</ele><time>2026-04-06T09:35:20.999Z</time></trkpt><trkpt lat="39.59517429866772" lon="16.802057024765787"><ele>9.0</ele><time>2026-04-06T09:35:21.999Z</time></trkpt><trkpt lat="39.59525150454829" lon="16.80192596996024"><ele>9.0</ele><time>2026-04-06T09:35:22.999Z</time></trkpt><trkpt lat="39.59532727905454" lon="16.801801460014524"><ele>9.0</ele><time>2026-04-06T09:35:23.999Z</time></trkpt><trkpt lat="39.595403122970524" lon="16.801675212012032"><ele>8.75</ele><time>2026-04-06T09:35:24.999Z</time></trkpt><trkpt lat="39.59548082635079" lon="16.80154409044127"><ele>8.5</ele><time>2026-04-06T09:35:25.999Z</time></trkpt><trkpt lat="39.59555906534181" lon="16.801411999480234"><ele>8.25</ele><time>2026-04-06T09:35:26.999Z</time></trkpt><trkpt lat="39.59563801310561" lon="16.80127545321917"><ele>8.0</ele><time>2026-04-06T09:35:27.999Z</time></trkpt><trkpt lat="39.59571791735215" lon="16.80114635548555"><ele>8.0</ele><time>2026-04-06T09:35:28.999Z</time></trkpt><trkpt lat="39.59579912029279" lon="16.801021171199316"><ele>8.0</ele><time>2026-04-06T09:35:29.999Z</time></trkpt><trkpt lat="39.59587104561336" lon="16.800891702624902"><ele>8.0</ele><time>2026-04-06T09:35:30.999Z</time></trkpt><trkpt lat="39.5959457928156" lon="16.80076227960502"><ele>8.0</ele><time>2026-04-06T09:35:31.999Z</time></trkpt><trkpt lat="39.596021799549526" lon="16.800634542681582"><ele>8.25</ele><time>2026-04-06T09:35:32.999Z</time></trkpt><trkpt lat="39.5960990583532" lon="16.800502616242415"><ele>8.5</ele><time>2026-04-06T09:35:33.999Z</time></trkpt><trkpt lat="39.596175169753494" lon="16.80036869080661"><ele>8.75</ele><time>2026-04-06T09:35:34.999Z</time></trkpt><trkpt lat="39.59625181890916" lon="16.800234112475707"><ele>9.0</ele><time>2026-04-06T09:35:35.999Z</time></trkpt><trkpt lat="39.59633090036782" lon="16.80009841668255"><ele>9.25</ele><time>2026-04-06T09:35:36.999Z</time></trkpt><trkpt lat="39.596406960331784" lon="16.799959118266145"><ele>9.5</ele><time>2026-04-06T09:35:37.999Z</time></trkpt><trkpt lat="39.596484750131154" lon="16.799815916522622"><ele>9.75</ele><time>2026-04-06T09:35:38.999Z</time></trkpt><trkpt lat="39.59656133715683" lon="16.799668281203253"><ele>10.0</ele><time>2026-04-06T09:35:39.999Z</time></trkpt><trkpt lat="39.59663480854527" lon="16.799524168878307"><ele>10.0</ele><time>2026-04-06T09:35:40.999Z</time></trkpt><trkpt lat="39.59670456809879" lon="16.799388028128256"><ele>10.0</ele><time>2026-04-06T09:35:41.999Z</time></trkpt><trkpt lat="39.59676676035018" lon="16.799255457303786"><ele>10.0</ele><time>2026-04-06T09:35:42.999Z</time></trkpt><trkpt lat="39.59683055853387" lon="16.799123607865905"><ele>10.0</ele><time>2026-04-06T09:35:43.999Z</time></trkpt><trkpt lat="39.59689512319746" lon="16.79899101725994"><ele>10.25</ele><time>2026-04-06T09:35:44.999Z</time></trkpt><trkpt lat="39.596959247129284" lon="16.798856815371796"><ele>10.5</ele><time>2026-04-06T09:35:45.999Z</time></trkpt><trkpt lat="39.597024788536295" lon="16.798722595589314"><ele>10.75</ele><time>2026-04-06T09:35:46.999Z</time></trkpt><trkpt lat="39.59709193009858" lon="16.798588093586883"><ele>11.0</ele><time>2026-04-06T09:35:47.999Z</time></trkpt><trkpt lat="39.597156881520824" lon="16.7984519394324"><ele>10.25</ele><time>2026-04-06T09:35:48.999Z</time></trkpt><trkpt lat="39.59722271104208" lon="16.798314176917906"><ele>9.5</ele><time>2026-04-06T09:35:49.999Z</time></trkpt><trkpt lat="39.597288098865505" lon="16.798173426318684"><ele>8.75</ele><time>2026-04-06T09:35:50.999Z</time></trkpt><trkpt lat="39.59735504999608" lon="16.79803038493246"><ele>8.0</ele><time>2026-04-06T09:35:51.999Z</time></trkpt><trkpt lat="39.59742694105786" lon="16.797887240931185"><ele>8.0</ele><time>2026-04-06T09:35:52.999Z</time></trkpt><trkpt lat="39.59750150566989" lon="16.797744627818048"><ele>8.0</ele><time>2026-04-06T09:35:53.999Z</time></trkpt><trkpt lat="39.59757118678671" lon="16.797601795282368"><ele>8.0</ele><time>2026-04-06T09:35:54.999Z</time></trkpt><trkpt lat="39.59764642664294" lon="16.79745237744936"><ele>8.0</ele><time>2026-04-06T09:35:55.999Z</time></trkpt><trkpt lat="39.597721588188335" lon="16.797306280205603"><ele>7.75</ele><time>2026-04-06T09:35:56.999Z</time></trkpt><trkpt lat="39.597796201651455" lon="16.797154239016876"><ele>7.5</ele><time>2026-04-06T09:35:57.999Z</time></trkpt><trkpt lat="39.597870273427695" lon="16.79700547656416"><ele>7.25</ele><time>2026-04-06T09:35:58.999Z</time></trkpt><trkpt lat="39.597943485469344" lon="16.796855428444797"><ele>7.0</ele><time>2026-04-06T09:35:59.999Z</time></trkpt><trkpt lat="39.598015342845166" lon="16.796707894474405"><ele>7.5</ele><time>2026-04-06T09:36:00.999Z</time></trkpt><trkpt lat="39.59808423535318" lon="16.79656181629649"><ele>8.0</ele><time>2026-04-06T09:36:01.999Z</time></trkpt><trkpt lat="39.598151491813006" lon="16.796424246233308"><ele>8.5</ele><time>2026-04-06T09:36:02.999Z</time></trkpt><trkpt lat="39.59822076430299" lon="16.796290008672713"><ele>9.0</ele><time>2026-04-06T09:36:03.999Z</time></trkpt><trkpt lat="39.59828387170121" lon="16.796158549790434"><ele>9.0</ele><time>2026-04-06T09:36:04.999Z</time></trkpt><trkpt lat="39.59834855875356" lon="16.796025780716363"><ele>9.0</ele><time>2026-04-06T09:36:05.999Z</time></trkpt><trkpt lat="39.598412055959216" lon="16.795894313117767"><ele>9.0</ele><time>2026-04-06T09:36:06.999Z</time></trkpt><trkpt lat="39.59847311527689" lon="16.795760473642698"><ele>9.0</ele><time>2026-04-06T09:36:07.999Z</time></trkpt><trkpt lat="39.59853706261011" lon="16.795623578359223"><ele>8.75</ele><time>2026-04-06T09:36:08.999Z</time></trkpt><trkpt lat="39.59861696583075" lon="16.795497928228713"><ele>8.5</ele><time>2026-04-06T09:36:09.999Z</time></trkpt><trkpt lat="39.59868464992621" lon="16.795360637362"><ele>8.25</ele><time>2026-04-06T09:36:10.999Z</time></trkpt><trkpt lat="39.59875392838529" lon="16.79522011243356"><ele>8.0</ele><time>2026-04-06T09:36:11.999Z</time></trkpt><trkpt lat="39.59882374916579" lon="16.795077858680862"><ele>8.5</ele><time>2026-04-06T09:36:12.999Z</time></trkpt><trkpt lat="39.598879776247614" lon="16.79492282747896"><ele>9.0</ele><time>2026-04-06T09:36:13.999Z</time></trkpt><trkpt lat="39.59895454815828" lon="16.79477215333486"><ele>9.5</ele><time>2026-04-06T09:36:15Z</time></trkpt><trkpt lat="39.599032417892474" lon="16.794620150683862"><ele>10.0</ele><time>2026-04-06T09:36:16Z</time></trkpt><trkpt lat="39.599110213340175" lon="16.794466437438402"><ele>10.25</ele><time>2026-04-06T09:36:17Z</time></trkpt><trkpt lat="39.59918651054188" lon="16.794315310749386"><ele>10.5</ele><time>2026-04-06T09:36:18Z</time></trkpt><trkpt lat="39.59926191190266" lon="16.794161064637137"><ele>10.75</ele><time>2026-04-06T09:36:19Z</time></trkpt><trkpt lat="39.59933753144476" lon="16.7940013596861"><ele>11.0</ele><time>2026-04-06T09:36:20Z</time></trkpt><trkpt lat="39.59941782816252" lon="16.79383556668471"><ele>11.0</ele><time>2026-04-06T09:36:21Z</time></trkpt><trkpt lat="39.599500279794896" lon="16.79366682204175"><ele>11.0</ele><time>2026-04-06T09:36:22Z</time></trkpt><trkpt lat="39.599579407663875" lon="16.793507274490963"><ele>11.0</ele><time>2026-04-06T09:36:23Z</time></trkpt><trkpt lat="39.599664846152564" lon="16.79332925418405"><ele>10.666666666666666</ele><time>2026-04-06T09:36:24Z</time></trkpt><trkpt lat="39.59975287383801" lon="16.793146490849644"><ele>10.333333333333334</ele><time>2026-04-06T09:36:25Z</time></trkpt><trkpt lat="39.59983656149121" lon="16.792968266494537"><ele>10.0</ele><time>2026-04-06T09:36:26Z</time></trkpt><trkpt lat="39.599922392193065" lon="16.792791575737276"><ele>10.333333333333334</ele><time>2026-04-06T09:36:26.999Z</time></trkpt><trkpt lat="39.60001822849512" lon="16.792612286388636"><ele>10.666666666666666</ele><time>2026-04-06T09:36:27.999Z</time></trkpt><trkpt lat="39.60011003837036" lon="16.792428343885028"><ele>11.0</ele><time>2026-04-06T09:36:28.999Z</time></trkpt><trkpt lat="39.6001815335869" lon="16.792248025408547"><ele>11.0</ele><time>2026-04-06T09:36:29.999Z</time></trkpt><trkpt lat="39.60023058893457" lon="16.79207545337182"><ele>11.0</ele><time>2026-04-06T09:36:30.999Z</time></trkpt><trkpt lat="39.60025582654268" lon="16.791913895315844"><ele>11.0</ele><time>2026-04-06T09:36:31.999Z</time></trkpt><trkpt lat="39.60026316671763" lon="16.79177001949105"><ele>11.0</ele><time>2026-04-06T09:36:32.999Z</time></trkpt><trkpt lat="39.60028492568969" lon="16.79163861183404"><ele>11.0</ele><time>2026-04-06T09:36:33.999Z</time></trkpt><trkpt lat="39.600329449790316" lon="16.791518242461176"><ele>11.0</ele><time>2026-04-06T09:36:34.999Z</time></trkpt><trkpt lat="39.600391869349885" lon="16.791404843806998"><ele>11.0</ele><time>2026-04-06T09:36:35.999Z</time></trkpt><trkpt lat="39.60042404861947" lon="16.791269963628547"><ele>11.0</ele><time>2026-04-06T09:36:37Z</time></trkpt><trkpt lat="39.60045899670209" lon="16.791125196920568"><ele>11.0</ele><time>2026-04-06T09:36:38Z</time></trkpt><trkpt lat="39.60053936190261" lon="16.79100515810543"><ele>11.0</ele><time>2026-04-06T09:36:39Z</time></trkpt><trkpt lat="39.60064361403606" lon="16.790900455568483"><ele>11.0</ele><time>2026-04-06T09:36:40Z</time></trkpt><trkpt lat="39.60074128515695" lon="16.790779319024274"><ele>11.0</ele><time>2026-04-06T09:36:41Z</time></trkpt><trkpt lat="39.60082514946022" lon="16.790633084989317"><ele>11.0</ele><time>2026-04-06T09:36:42Z</time></trkpt><trkpt lat="39.600902316428595" lon="16.790466581367607"><ele>11.0</ele><time>2026-04-06T09:36:43Z</time></trkpt><trkpt lat="39.60096452025641" lon="16.790280264026826"><ele>11.0</ele><time>2026-04-06T09:36:44Z</time></trkpt><trkpt lat="39.601025295461014" lon="16.790101372835306"><ele>11.0</ele><time>2026-04-06T09:36:45Z</time></trkpt><trkpt lat="39.60108514763452" lon="16.789942496404652"><ele>11.0</ele><time>2026-04-06T09:36:46Z</time></trkpt><trkpt lat="39.60115215917433" lon="16.78980089529945"><ele>10.75</ele><time>2026-04-06T09:36:47Z</time></trkpt><trkpt lat="39.60119835658208" lon="16.789631939649613"><ele>10.5</ele><time>2026-04-06T09:36:48Z</time></trkpt><trkpt lat="39.60126568934587" lon="16.789463628056968"><ele>10.25</ele><time>2026-04-06T09:36:49Z</time></trkpt><trkpt lat="39.60133207770048" lon="16.7892940298896"><ele>10.0</ele><time>2026-04-06T09:36:50Z</time></trkpt><trkpt lat="39.60139883073037" lon="16.78912872603546"><ele>9.75</ele><time>2026-04-06T09:36:51Z</time></trkpt><trkpt lat="39.601459097575805" lon="16.78897955943043"><ele>9.5</ele><time>2026-04-06T09:36:52Z</time></trkpt><trkpt lat="39.60151309690661" lon="16.788833896305615"><ele>9.25</ele><time>2026-04-06T09:36:53Z</time></trkpt><trkpt lat="39.601569303457886" lon="16.78867773058682"><ele>9.0</ele><time>2026-04-06T09:36:54Z</time></trkpt><trkpt lat="39.60162298600041" lon="16.78851636990726"><ele>10.0</ele><time>2026-04-06T09:36:55Z</time></trkpt><trkpt lat="39.60166032955568" lon="16.78835671229236"><ele>11.0</ele><time>2026-04-06T09:36:56Z</time></trkpt><trkpt lat="39.60169559526182" lon="16.78820833708172"><ele>12.0</ele><time>2026-04-06T09:36:57Z</time></trkpt><trkpt lat="39.60172499886373" lon="16.78804884637531"><ele>13.0</ele><time>2026-04-06T09:36:58Z</time></trkpt><trkpt lat="39.601750634141176" lon="16.78788682481696"><ele>13.0</ele><time>2026-04-06T09:36:59Z</time></trkpt><trkpt lat="39.60177883154483" lon="16.78773765576594"><ele>13.0</ele><time>2026-04-06T09:37:00Z</time></trkpt><trkpt lat="39.60181875991988" lon="16.78760593466854"><ele>13.0</ele><time>2026-04-06T09:37:01Z</time></trkpt><trkpt lat="39.601862187633415" lon="16.7874871224732"><ele>13.0</ele><time>2026-04-06T09:37:02Z</time></trkpt><trkpt lat="39.60191705319068" lon="16.78738922385823"><ele>13.0</ele><time>2026-04-06T09:37:03Z</time></trkpt><trkpt lat="39.60196728848615" lon="16.787326320008138"><ele>12.600000000000001</ele><time>2026-04-06T09:37:04Z</time></trkpt><trkpt lat="39.60204311365253" lon="16.78730541026442"><ele>12.200000000000001</ele><time>2026-04-06T09:37:07Z</time></trkpt><trkpt lat="39.602161385691126" lon="16.78729142265726"><ele>11.8</ele><time>2026-04-06T09:37:16Z</time></trkpt><trkpt lat="39.60223599064759" lon="16.787243184549855"><ele>11.4</ele><time>2026-04-06T09:37:17Z</time></trkpt><trkpt lat="39.6022893312638" lon="16.78716185389783"><ele>11.0</ele><time>2026-04-06T09:37:18Z</time></trkpt><trkpt lat="39.60231876724517" lon="16.78705207725796"><ele>11.0</ele><time>2026-04-06T09:37:19Z</time></trkpt><trkpt lat="39.602321820071204" lon="16.78692376473202"><ele>11.0</ele><time>2026-04-06T09:37:20Z</time></trkpt><trkpt lat="39.602321599943835" lon="16.78678056521583"><ele>11.0</ele><time>2026-04-06T09:37:21Z</time></trkpt><trkpt lat="39.60235355920485" lon="16.786641640831313"><ele>11.0</ele><time>2026-04-06T09:37:22Z</time></trkpt><trkpt lat="39.60241223823435" lon="16.786508798085485"><ele>11.0</ele><time>2026-04-06T09:37:23Z</time></trkpt><trkpt lat="39.602474062939685" lon="16.786372891535184"><ele>11.200000000000001</ele><time>2026-04-06T09:37:24Z</time></trkpt><trkpt lat="39.6025222701946" lon="16.78623863487954"><ele>11.4</ele><time>2026-04-06T09:37:25Z</time></trkpt><trkpt lat="39.60256160092966" lon="16.786115409447717"><ele>11.6</ele><time>2026-04-06T09:37:26Z</time></trkpt><trkpt lat="39.602598815875155" lon="16.7860033248404"><ele>11.8</ele><time>2026-04-06T09:37:27Z</time></trkpt><trkpt lat="39.602637047052596" lon="16.785883559511195"><ele>12.0</ele><time>2026-04-06T09:37:28Z</time></trkpt><trkpt lat="39.6026731608803" lon="16.785765110177376"><ele>11.8</ele><time>2026-04-06T09:37:29Z</time></trkpt><trkpt lat="39.602709816281916" lon="16.785650203905508"><ele>11.6</ele><time>2026-04-06T09:37:30Z</time></trkpt><trkpt lat="39.6027481059345" lon="16.78552962458996"><ele>11.4</ele><time>2026-04-06T09:37:31Z</time></trkpt><trkpt lat="39.602785430260866" lon="16.78541379607768"><ele>11.200000000000001</ele><time>2026-04-06T09:37:32Z</time></trkpt><trkpt lat="39.60281342990295" lon="16.785308146559117"><ele>11.0</ele><time>2026-04-06T09:37:33Z</time></trkpt><trkpt lat="39.602843250375926" lon="16.78519782471975"><ele>11.8</ele><time>2026-04-06T09:37:34Z</time></trkpt><trkpt lat="39.60287723303678" lon="16.785078331124144"><ele>12.600000000000001</ele><time>2026-04-06T09:37:35Z</time></trkpt><trkpt lat="39.60290930845254" lon="16.784948472749686"><ele>13.4</ele><time>2026-04-06T09:37:36Z</time></trkpt><trkpt lat="39.6029358226372" lon="16.784827621948633"><ele>14.2</ele><time>2026-04-06T09:37:37Z</time></trkpt><trkpt lat="39.60297660259524" lon="16.784729379871248"><ele>15.0</ele><time>2026-04-06T09:37:38Z</time></trkpt><trkpt lat="39.602989031959865" lon="16.784611199526434"><ele>15.0</ele><time>2026-04-06T09:37:39Z</time></trkpt><trkpt lat="39.60303370323599" lon="16.784492315451615"><ele>15.0</ele><time>2026-04-06T09:37:40Z</time></trkpt><trkpt lat="39.60306385413857" lon="16.784362652917846"><ele>15.0</ele><time>2026-04-06T09:37:41Z</time></trkpt><trkpt lat="39.60309203685622" lon="16.78424009445463"><ele>15.0</ele><time>2026-04-06T09:37:42Z</time></trkpt><trkpt lat="39.60311739642633" lon="16.78412997229178"><ele>15.0</ele><time>2026-04-06T09:37:43Z</time></trkpt><trkpt lat="39.60312572915748" lon="16.78402171445604"><ele>15.2</ele><time>2026-04-06T09:37:44Z</time></trkpt><trkpt lat="39.60315008551133" lon="16.783916642738806"><ele>15.4</ele><time>2026-04-06T09:37:45Z</time></trkpt><trkpt lat="39.60317416551371" lon="16.783802095040304"><ele>15.600000000000001</ele><time>2026-04-06T09:37:46Z</time></trkpt><trkpt lat="39.60321646404436" lon="16.783687545375688"><ele>15.8</ele><time>2026-04-06T09:37:47Z</time></trkpt><trkpt lat="39.60324412599589" lon="16.78356209673432"><ele>16.0</ele><time>2026-04-06T09:37:48Z</time></trkpt><trkpt lat="39.60327039171455" lon="16.783438744315152"><ele>16.400000000000002</ele><time>2026-04-06T09:37:49Z</time></trkpt><trkpt lat="39.60329393586594" lon="16.783327307102322"><ele>16.8</ele><time>2026-04-06T09:37:50Z</time></trkpt><trkpt lat="39.60331711463046" lon="16.78321082765941"><ele>17.200000000000003</ele><time>2026-04-06T09:37:51Z</time></trkpt><trkpt lat="39.603341568252304" lon="16.783087711579675"><ele>17.6</ele><time>2026-04-06T09:37:52Z</time></trkpt><trkpt lat="39.60336696907162" lon="16.782957917699566"><ele>18.0</ele><time>2026-04-06T09:37:53Z</time></trkpt><trkpt lat="39.60338934981583" lon="16.78284355573701"><ele>18.0</ele><time>2026-04-06T09:37:54Z</time></trkpt><trkpt lat="39.603410332125634" lon="16.782736339601737"><ele>18.0</ele><time>2026-04-06T09:37:55Z</time></trkpt><trkpt lat="39.60342983943053" lon="16.782636660738408"><ele>18.0</ele><time>2026-04-06T09:37:56Z</time></trkpt><trkpt lat="39.603448022361526" lon="16.782543749012167"><ele>18.0</ele><time>2026-04-06T09:37:57Z</time></trkpt><trkpt lat="39.60346602094351" lon="16.782451779259848"><ele>18.0</ele><time>2026-04-06T09:37:58Z</time></trkpt><trkpt lat="39.60348558496213" lon="16.782351358180996"><ele>18.0</ele><time>2026-04-06T09:37:59Z</time></trkpt><trkpt lat="39.60350644822555" lon="16.78224417966157"><ele>18.333333333333332</ele><time>2026-04-06T09:38:00Z</time></trkpt><trkpt lat="39.603525631227015" lon="16.782145632731556"><ele>18.666666666666668</ele><time>2026-04-06T09:38:01Z</time></trkpt><trkpt lat="39.603542668838436" lon="16.78205810736522"><ele>19.0</ele><time>2026-04-06T09:38:02Z</time></trkpt><trkpt lat="39.60355989223077" lon="16.781969627419198"><ele>19.333333333333336</ele><time>2026-04-06T09:38:03Z</time></trkpt><trkpt lat="39.603578262707416" lon="16.78187525482799"><ele>19.666666666666668</ele><time>2026-04-06T09:38:04Z</time></trkpt><trkpt lat="39.60359748879362" lon="16.78177648734873"><ele>20.0</ele><time>2026-04-06T09:38:05Z</time></trkpt><trkpt lat="39.6036176463318" lon="16.781670336675834"><ele>20.333333333333336</ele><time>2026-04-06T09:38:06Z</time></trkpt><trkpt lat="39.603638360452194" lon="16.781561530857886"><ele>20.666666666666668</ele><time>2026-04-06T09:38:07Z</time></trkpt><trkpt lat="39.60365914783394" lon="16.781452340416134"><ele>21.0</ele><time>2026-04-06T09:38:08Z</time></trkpt><trkpt lat="39.60368001756165" lon="16.78135150421962"><ele>21.333333333333332</ele><time>2026-04-06T09:38:09Z</time></trkpt><trkpt lat="39.60369852730392" lon="16.781262105283545"><ele>21.666666666666664</ele><time>2026-04-06T09:38:10Z</time></trkpt><trkpt lat="39.6037185699751" lon="16.781165302277888"><ele>22.0</ele><time>2026-04-06T09:38:11Z</time></trkpt><trkpt lat="39.60373789484521" lon="16.781071966385046"><ele>21.5</ele><time>2026-04-06T09:38:12Z</time></trkpt><trkpt lat="39.6037566468996" lon="16.780981399655115"><ele>21.0</ele><time>2026-04-06T09:38:13Z</time></trkpt><trkpt lat="39.60377223499069" lon="16.780887024263134"><ele>20.5</ele><time>2026-04-06T09:38:14Z</time></trkpt><trkpt lat="39.603790073414174" lon="16.780788153450757"><ele>20.0</ele><time>2026-04-06T09:38:15Z</time></trkpt><trkpt lat="39.60380820561403" lon="16.780685673287536"><ele>19.5</ele><time>2026-04-06T09:38:16Z</time></trkpt><trkpt lat="39.60382462254017" lon="16.780592887631798"><ele>19.0</ele><time>2026-04-06T09:38:17Z</time></trkpt><trkpt lat="39.60384183438114" lon="16.780490625692636"><ele>19.0</ele><time>2026-04-06T09:38:18Z</time></trkpt><trkpt lat="39.60386035591109" lon="16.780379819955723"><ele>19.0</ele><time>2026-04-06T09:38:19Z</time></trkpt><trkpt lat="39.60387888100866" lon="16.78026899278601"><ele>19.0</ele><time>2026-04-06T09:38:20Z</time></trkpt><trkpt lat="39.60389592446652" lon="16.780167031388864"><ele>19.0</ele><time>2026-04-06T09:38:21Z</time></trkpt><trkpt lat="39.603910772056786" lon="16.780075680587064"><ele>19.0</ele><time>2026-04-06T09:38:22Z</time></trkpt><trkpt lat="39.60392574921439" lon="16.779982851187793"><ele>19.0</ele><time>2026-04-06T09:38:23Z</time></trkpt><trkpt lat="39.603941103915936" lon="16.77988342189397"><ele>19.166666666666664</ele><time>2026-04-06T09:38:24Z</time></trkpt><trkpt lat="39.603956881896224" lon="16.77978125172079"><ele>19.333333333333332</ele><time>2026-04-06T09:38:25Z</time></trkpt><trkpt lat="39.60397188577747" lon="16.77968409428216"><ele>19.5</ele><time>2026-04-06T09:38:26Z</time></trkpt><trkpt lat="39.603985175965796" lon="16.779598033888995"><ele>19.666666666666668</ele><time>2026-04-06T09:38:27Z</time></trkpt><trkpt lat="39.60400755018516" lon="16.779454489128224"><ele>19.833333333333336</ele><time>2026-04-06T09:38:29Z</time></trkpt><trkpt lat="39.60402807633822" lon="16.779328399918867"><ele>20.0</ele><time>2026-04-06T09:38:31Z</time></trkpt><trkpt lat="39.604046534368706" lon="16.77921501484714"><ele>20.2</ele><time>2026-04-06T09:38:33Z</time></trkpt><trkpt lat="39.60406290814217" lon="16.77910707680047"><ele>20.4</ele><time>2026-04-06T09:38:35Z</time></trkpt><trkpt lat="39.60407776143274" lon="16.779006552402777"><ele>20.6</ele><time>2026-04-06T09:38:37Z</time></trkpt><trkpt lat="39.60409499952434" lon="16.77888988811728"><ele>20.8</ele><time>2026-04-06T09:38:39Z</time></trkpt><trkpt lat="39.60411446502379" lon="16.778758151648425"><ele>21.0</ele><time>2026-04-06T09:38:41Z</time></trkpt><trkpt lat="39.60413459170331" lon="16.77862369208367"><ele>21.333333333333332</ele><time>2026-04-06T09:38:43Z</time></trkpt><trkpt lat="39.604159545309194" lon="16.77846879784108"><ele>21.666666666666668</ele><time>2026-04-06T09:38:45Z</time></trkpt><trkpt lat="39.604173709029006" lon="16.778381250903365"><ele>22.0</ele><time>2026-04-06T09:38:46Z</time></trkpt><trkpt lat="39.6041884628579" lon="16.778288808451016"><ele>22.333333333333336</ele><time>2026-04-06T09:38:47Z</time></trkpt><trkpt lat="39.604202018744076" lon="16.778200825869828"><ele>22.666666666666668</ele><time>2026-04-06T09:38:48Z</time></trkpt><trkpt lat="39.604214537768925" lon="16.77811957362091"><ele>23.0</ele><time>2026-04-06T09:38:49Z</time></trkpt><trkpt lat="39.60423838933656" lon="16.777964769271005"><ele>23.0</ele><time>2026-04-06T09:38:51Z</time></trkpt><trkpt lat="39.60425184507607" lon="16.777877436327405"><ele>23.0</ele><time>2026-04-06T09:38:52Z</time></trkpt><trkpt lat="39.604266319515176" lon="16.77778503704683"><ele>23.0</ele><time>2026-04-06T09:38:53Z</time></trkpt><trkpt lat="39.604278475038825" lon="16.77770440326094"><ele>23.0</ele><time>2026-04-06T09:38:54Z</time></trkpt><trkpt lat="39.60429949967777" lon="16.777564936020084"><ele>23.0</ele><time>2026-04-06T09:38:56Z</time></trkpt><trkpt lat="39.60432197404885" lon="16.777415851890535"><ele>23.0</ele><time>2026-04-06T09:38:58Z</time></trkpt><trkpt lat="39.60433406096378" lon="16.777335542395615"><ele>23.0</ele><time>2026-04-06T09:38:59Z</time></trkpt><trkpt lat="39.60434703215352" lon="16.77724737417911"><ele>23.0</ele><time>2026-04-06T09:39:00Z</time></trkpt><trkpt lat="39.60436116042147" lon="16.77715133995711"><ele>23.0</ele><time>2026-04-06T09:39:01Z</time></trkpt><trkpt lat="39.6043748292667" lon="16.77705228902768"><ele>23.0</ele><time>2026-04-06T09:39:02Z</time></trkpt><trkpt lat="39.60438884616958" lon="16.77696361834018"><ele>23.0</ele><time>2026-04-06T09:39:03Z</time></trkpt><trkpt lat="39.60441420997362" lon="16.776812864356785"><ele>23.0</ele><time>2026-04-06T09:39:05Z</time></trkpt><trkpt lat="39.604429239684215" lon="16.776726351414336"><ele>22.833333333333336</ele><time>2026-04-06T09:39:06Z</time></trkpt><trkpt lat="39.60444489211017" lon="16.776636253961744"><ele>22.666666666666668</ele><time>2026-04-06T09:39:07Z</time></trkpt><trkpt lat="39.60446163735631" lon="16.77653986610982"><ele>22.5</ele><time>2026-04-06T09:39:08Z</time></trkpt><trkpt lat="39.604478854035364" lon="16.77643901200524"><ele>22.333333333333332</ele><time>2026-04-06T09:39:09Z</time></trkpt><trkpt lat="39.60449552242953" lon="16.776339539367306"><ele>22.166666666666664</ele><time>2026-04-06T09:39:10Z</time></trkpt><trkpt lat="39.604510505108905" lon="16.776256012690123"><ele>22.0</ele><time>2026-04-06T09:39:11Z</time></trkpt><trkpt lat="39.604536759830275" lon="16.77611743895321"><ele>21.0</ele><time>2026-04-06T09:39:13Z</time></trkpt><trkpt lat="39.60457151753919" lon="16.775950510913106"><ele>20.0</ele><time>2026-04-06T09:39:15Z</time></trkpt><trkpt lat="39.60459355099531" lon="16.775852904718732"><ele>19.0</ele><time>2026-04-06T09:39:16Z</time></trkpt><trkpt lat="39.60461926710119" lon="16.77575074852067"><ele>18.0</ele><time>2026-04-06T09:39:17Z</time></trkpt><trkpt lat="39.60464908962233" lon="16.775643673538603"><ele>17.0</ele><time>2026-04-06T09:39:18Z</time></trkpt><trkpt lat="39.604681176825636" lon="16.775531809862297"><ele>17.0</ele><time>2026-04-06T09:39:19Z</time></trkpt><trkpt lat="39.604714430708256" lon="16.77541587891933"><ele>17.0</ele><time>2026-04-06T09:39:20Z</time></trkpt><trkpt lat="39.60474903054808" lon="16.775300252196217"><ele>17.0</ele><time>2026-04-06T09:39:21Z</time></trkpt><trkpt lat="39.6047836537229" lon="16.775186477277682"><ele>17.0</ele><time>2026-04-06T09:39:22Z</time></trkpt><trkpt lat="39.60481776907495" lon="16.775072639657754"><ele>17.0</ele><time>2026-04-06T09:39:23Z</time></trkpt><trkpt lat="39.60481706139704" lon="16.774942095824777"><ele>17.2</ele><time>2026-04-06T09:39:24Z</time></trkpt><trkpt lat="39.604853919597716" lon="16.774829724796934"><ele>17.4</ele><time>2026-04-06T09:39:25Z</time></trkpt><trkpt lat="39.60489006912649" lon="16.77471671480403"><ele>17.6</ele><time>2026-04-06T09:39:26Z</time></trkpt><trkpt lat="39.60492434658919" lon="16.774600052872994"><ele>17.8</ele><time>2026-04-06T09:39:27Z</time></trkpt><trkpt lat="39.604986228479035" lon="16.774500036618228"><ele>18.0</ele><time>2026-04-06T09:39:28Z</time></trkpt><trkpt lat="39.605019154187545" lon="16.7743846617575"><ele>18.6</ele><time>2026-04-06T09:39:29Z</time></trkpt><trkpt lat="39.60505256573153" lon="16.77426874208616"><ele>19.200000000000003</ele><time>2026-04-06T09:39:30Z</time></trkpt><trkpt lat="39.60508549928269" lon="16.774152933858726"><ele>19.8</ele><time>2026-04-06T09:39:31Z</time></trkpt><trkpt lat="39.60511973793166" lon="16.774031244425792"><ele>20.400000000000002</ele><time>2026-04-06T09:39:32Z</time></trkpt><trkpt lat="39.60515442031993" lon="16.77390797788702"><ele>21.0</ele><time>2026-04-06T09:39:33Z</time></trkpt><trkpt lat="39.60516055419448" lon="16.77377000326609"><ele>21.0</ele><time>2026-04-06T09:39:34Z</time></trkpt><trkpt lat="39.60519495725324" lon="16.77364381367519"><ele>21.0</ele><time>2026-04-06T09:39:35Z</time></trkpt><trkpt lat="39.605230163511116" lon="16.773522567183004"><ele>21.0</ele><time>2026-04-06T09:39:36Z</time></trkpt><trkpt lat="39.605261431352666" lon="16.773402489901375"><ele>21.0</ele><time>2026-04-06T09:39:37Z</time></trkpt><trkpt lat="39.605300994826855" lon="16.773283036298427"><ele>21.0</ele><time>2026-04-06T09:39:38Z</time></trkpt><trkpt lat="39.60533521835727" lon="16.773165419473383"><ele>20.8</ele><time>2026-04-06T09:39:39Z</time></trkpt><trkpt lat="39.6054032482411" lon="16.773064330046612"><ele>20.6</ele><time>2026-04-06T09:39:40Z</time></trkpt><trkpt lat="39.60540578560304" lon="16.77292961574143"><ele>20.4</ele><time>2026-04-06T09:39:41Z</time></trkpt><trkpt lat="39.60543757123709" lon="16.772808390457417"><ele>20.2</ele><time>2026-04-06T09:39:42Z</time></trkpt><trkpt lat="39.605470464426055" lon="16.772683657966436"><ele>20.0</ele><time>2026-04-06T09:39:43Z</time></trkpt><trkpt lat="39.60550032699889" lon="16.77254957233992"><ele>20.0</ele><time>2026-04-06T09:39:44Z</time></trkpt><trkpt lat="39.605520701077445" lon="16.772424724775945"><ele>20.0</ele><time>2026-04-06T09:39:45Z</time></trkpt><trkpt lat="39.60553690158313" lon="16.772316184465613"><ele>20.0</ele><time>2026-04-06T09:39:46Z</time></trkpt><trkpt lat="39.60555118005733" lon="16.77221022542512"><ele>20.0</ele><time>2026-04-06T09:39:47Z</time></trkpt><trkpt lat="39.605561178707426" lon="16.772109289135155"><ele>20.0</ele><time>2026-04-06T09:39:48Z</time></trkpt><trkpt lat="39.60560289984402" lon="16.772015444665453"><ele>20.0</ele><time>2026-04-06T09:39:49Z</time></trkpt><trkpt lat="39.605612660893804" lon="16.771923788305433"><ele>20.0</ele><time>2026-04-06T09:39:50Z</time></trkpt><trkpt lat="39.60562304627602" lon="16.771825230747044"><ele>20.0</ele><time>2026-04-06T09:39:51Z</time></trkpt><trkpt lat="39.60563438314817" lon="16.77171734749455"><ele>20.0</ele><time>2026-04-06T09:39:52Z</time></trkpt><trkpt lat="39.605646769670926" lon="16.77160255778042"><ele>20.0</ele><time>2026-04-06T09:39:53Z</time></trkpt><trkpt lat="39.605659808040855" lon="16.771484090997394"><ele>20.0</ele><time>2026-04-06T09:39:54Z</time></trkpt><trkpt lat="39.6056727436062" lon="16.771366558145196"><ele>20.0</ele><time>2026-04-06T09:39:55Z</time></trkpt><trkpt lat="39.60568632235225" lon="16.771243181298704"><ele>20.0</ele><time>2026-04-06T09:39:56Z</time></trkpt><trkpt lat="39.60569976962561" lon="16.771115047866978"><ele>20.0</ele><time>2026-04-06T09:39:57Z</time></trkpt><trkpt lat="39.605713973740166" lon="16.77098332217867"><ele>20.0</ele><time>2026-04-06T09:39:58Z</time></trkpt><trkpt lat="39.60572899633892" lon="16.770845987599767"><ele>20.0</ele><time>2026-04-06T09:39:59Z</time></trkpt><trkpt lat="39.60574544287345" lon="16.770698306590024"><ele>20.0</ele><time>2026-04-06T09:40:00Z</time></trkpt><trkpt lat="39.60576329430953" lon="16.770539135479424"><ele>20.0</ele><time>2026-04-06T09:40:01Z</time></trkpt><trkpt lat="39.60578015268755" lon="16.77038881891296"><ele>20.0</ele><time>2026-04-06T09:40:02Z</time></trkpt><trkpt lat="39.60579718917791" lon="16.77023691420543"><ele>20.0</ele><time>2026-04-06T09:40:03Z</time></trkpt><trkpt lat="39.60581452235839" lon="16.770082364069"><ele>20.0</ele><time>2026-04-06T09:40:04Z</time></trkpt><trkpt lat="39.60583170827014" lon="16.769929127085298"><ele>20.4</ele><time>2026-04-06T09:40:05Z</time></trkpt><trkpt lat="39.60584800160569" lon="16.769787571934714"><ele>20.8</ele><time>2026-04-06T09:40:06Z</time></trkpt><trkpt lat="39.60586331640988" lon="16.769658217517918"><ele>21.200000000000003</ele><time>2026-04-06T09:40:07Z</time></trkpt><trkpt lat="39.605877139593076" lon="16.769542010863262"><ele>21.6</ele><time>2026-04-06T09:40:08Z</time></trkpt><trkpt lat="39.60589037096904" lon="16.769431142610593"><ele>22.0</ele><time>2026-04-06T09:40:09Z</time></trkpt><trkpt lat="39.60588751814719" lon="16.769319631163995"><ele>22.0</ele><time>2026-04-06T09:40:10Z</time></trkpt><trkpt lat="39.60589838613217" lon="16.76921391864169"><ele>22.0</ele><time>2026-04-06T09:40:11Z</time></trkpt><trkpt lat="39.605908657736165" lon="16.76910812201454"><ele>22.0</ele><time>2026-04-06T09:40:12Z</time></trkpt><trkpt lat="39.605923037358934" lon="16.76899709234576"><ele>22.0</ele><time>2026-04-06T09:40:13Z</time></trkpt><trkpt lat="39.605928521437555" lon="16.768882361989654"><ele>22.0</ele><time>2026-04-06T09:40:14Z</time></trkpt><trkpt lat="39.60594728654559" lon="16.768759591053783"><ele>22.0</ele><time>2026-04-06T09:40:15Z</time></trkpt><trkpt lat="39.60596066958435" lon="16.768635181152792"><ele>21.400000000000002</ele><time>2026-04-06T09:40:16Z</time></trkpt><trkpt lat="39.60597232876377" lon="16.76850898193056"><ele>20.8</ele><time>2026-04-06T09:40:17Z</time></trkpt><trkpt lat="39.60598122161655" lon="16.768377922906733"><ele>20.2</ele><time>2026-04-06T09:40:18Z</time></trkpt><trkpt lat="39.605991545982434" lon="16.768242645841823"><ele>19.6</ele><time>2026-04-06T09:40:19Z</time></trkpt><trkpt lat="39.606002168977376" lon="16.768104527638062"><ele>19.0</ele><time>2026-04-06T09:40:20Z</time></trkpt><trkpt lat="39.606016206443584" lon="16.767967713117688"><ele>19.0</ele><time>2026-04-06T09:40:21Z</time></trkpt><trkpt lat="39.606024612640084" lon="16.767844420050245"><ele>19.0</ele><time>2026-04-06T09:40:22Z</time></trkpt><trkpt lat="39.606031519889015" lon="16.767722284240296"><ele>19.0</ele><time>2026-04-06T09:40:23Z</time></trkpt><trkpt lat="39.60602997296589" lon="16.767609573540472"><ele>19.0</ele><time>2026-04-06T09:40:24Z</time></trkpt><trkpt lat="39.606026878514314" lon="16.76749933549472"><ele>19.0</ele><time>2026-04-06T09:40:25Z</time></trkpt><trkpt lat="39.60601175783728" lon="16.76740051366559"><ele>19.0</ele><time>2026-04-06T09:40:26Z</time></trkpt><trkpt lat="39.60599870991614" lon="16.76731845643121"><ele>19.0</ele><time>2026-04-06T09:40:27Z</time></trkpt><trkpt lat="39.605982255127664" lon="16.767215300407166"><ele>19.0</ele><time>2026-04-06T09:40:28Z</time></trkpt><trkpt lat="39.605985370412505" lon="16.76710449791898"><ele>19.0</ele><time>2026-04-06T09:40:29Z</time></trkpt><trkpt lat="39.60602044581234" lon="16.76699361901419"><ele>19.0</ele><time>2026-04-06T09:40:30Z</time></trkpt><trkpt lat="39.60606130237952" lon="16.766890221582557"><ele>19.0</ele><time>2026-04-06T09:40:31Z</time></trkpt><trkpt lat="39.60608352075467" lon="16.766779917978532"><ele>19.0</ele><time>2026-04-06T09:40:32Z</time></trkpt><trkpt lat="39.60609405929356" lon="16.766654765945315"><ele>19.0</ele><time>2026-04-06T09:40:33Z</time></trkpt><trkpt lat="39.60609529295488" lon="16.766520280662995"><ele>19.0</ele><time>2026-04-06T09:40:34Z</time></trkpt><trkpt lat="39.60608728887654" lon="16.766384393005417"><ele>19.0</ele><time>2026-04-06T09:40:35Z</time></trkpt><trkpt lat="39.60608484573068" lon="16.76624180131807"><ele>19.0</ele><time>2026-04-06T09:40:36Z</time></trkpt><trkpt lat="39.60608583189453" lon="16.76609400267853"><ele>19.0</ele><time>2026-04-06T09:40:37Z</time></trkpt><trkpt lat="39.60608266771958" lon="16.765944311723743"><ele>19.5</ele><time>2026-04-06T09:40:38Z</time></trkpt><trkpt lat="39.606073414569046" lon="16.76579090633936"><ele>20.0</ele><time>2026-04-06T09:40:39Z</time></trkpt><trkpt lat="39.60606339079515" lon="16.765639753054785"><ele>20.5</ele><time>2026-04-06T09:40:40Z</time></trkpt><trkpt lat="39.60605754076041" lon="16.7654886232374"><ele>21.0</ele><time>2026-04-06T09:40:41Z</time></trkpt><trkpt lat="39.60605110902911" lon="16.765340291170535"><ele>21.0</ele><time>2026-04-06T09:40:42Z</time></trkpt><trkpt lat="39.606053025989894" lon="16.765197554265928"><ele>21.0</ele><time>2026-04-06T09:40:43Z</time></trkpt><trkpt lat="39.60604737666573" lon="16.765066687620834"><ele>21.0</ele><time>2026-04-06T09:40:44Z</time></trkpt><trkpt lat="39.60604240874156" lon="16.764952384638665"><ele>21.0</ele><time>2026-04-06T09:40:45Z</time></trkpt><trkpt lat="39.60603564005968" lon="16.764857394501085"><ele>21.0</ele><time>2026-04-06T09:40:46Z</time></trkpt><trkpt lat="39.60602827008307" lon="16.76477144991666"><ele>21.0</ele><time>2026-04-06T09:40:47Z</time></trkpt><trkpt lat="39.60603194674506" lon="16.764625420006215"><ele>21.0</ele><time>2026-04-06T09:40:49Z</time></trkpt><trkpt lat="39.60602189701682" lon="16.76445835798446"><ele>21.0</ele><time>2026-04-06T09:40:51Z</time></trkpt><trkpt lat="39.60600701476616" lon="16.76428929796237"><ele>21.0</ele><time>2026-04-06T09:40:52Z</time></trkpt><trkpt lat="39.6059924920087" lon="16.764099556398545"><ele>21.0</ele><time>2026-04-06T09:40:53Z</time></trkpt><trkpt lat="39.60598062200258" lon="16.763920249625386"><ele>21.0</ele><time>2026-04-06T09:40:54Z</time></trkpt><trkpt lat="39.6059758592161" lon="16.76374929064173"><ele>21.0</ele><time>2026-04-06T09:40:55Z</time></trkpt><trkpt lat="39.60596976092423" lon="16.76357194867669"><ele>21.0</ele><time>2026-04-06T09:40:56Z</time></trkpt><trkpt lat="39.60597636049907" lon="16.763389860230156"><ele>21.0</ele><time>2026-04-06T09:40:57Z</time></trkpt><trkpt lat="39.60599413491438" lon="16.76320242812099"><ele>21.0</ele><time>2026-04-06T09:40:58Z</time></trkpt><trkpt lat="39.60601084021733" lon="16.763007091634066"><ele>21.0</ele><time>2026-04-06T09:40:59Z</time></trkpt><trkpt lat="39.60603054476786" lon="16.762804724172"><ele>21.0</ele><time>2026-04-06T09:41:00Z</time></trkpt><trkpt lat="39.60604810599003" lon="16.762590030080084"><ele>21.0</ele><time>2026-04-06T09:41:01Z</time></trkpt><trkpt lat="39.60606501437828" lon="16.76235883472781"><ele>21.0</ele><time>2026-04-06T09:41:02Z</time></trkpt><trkpt lat="39.60609309143755" lon="16.762080536277608"><ele>21.0</ele><time>2026-04-06T09:41:03Z</time></trkpt><trkpt lat="39.60613022918661" lon="16.76181727021329"><ele>20.666666666666668</ele><time>2026-04-06T09:41:04Z</time></trkpt><trkpt lat="39.60617401446858" lon="16.761537716127"><ele>20.333333333333336</ele><time>2026-04-06T09:41:05Z</time></trkpt><trkpt lat="39.60624058606675" lon="16.761255436184065"><ele>20.0</ele><time>2026-04-06T09:41:06Z</time></trkpt><trkpt lat="39.60628301548649" lon="16.76095921416094"><ele>20.0</ele><time>2026-04-06T09:41:07Z</time></trkpt><trkpt lat="39.60633333170024" lon="16.76066781501667"><ele>20.0</ele><time>2026-04-06T09:41:08Z</time></trkpt><trkpt lat="39.60637275164993" lon="16.760365956087636"><ele>19.5</ele><time>2026-04-06T09:41:09Z</time></trkpt><trkpt lat="39.60640635714091" lon="16.76004775427411"><ele>19.0</ele><time>2026-04-06T09:41:10Z</time></trkpt><trkpt lat="39.60643663106812" lon="16.759706586748575"><ele>18.5</ele><time>2026-04-06T09:41:11Z</time></trkpt><trkpt lat="39.60647026627534" lon="16.75936493568388"><ele>18.0</ele><time>2026-04-06T09:41:12Z</time></trkpt><trkpt lat="39.60650204082277" lon="16.759043534980435"><ele>18.0</ele><time>2026-04-06T09:41:13Z</time></trkpt><trkpt lat="39.60652895863492" lon="16.758733723529815"><ele>18.0</ele><time>2026-04-06T09:41:14Z</time></trkpt><trkpt lat="39.60655411788258" lon="16.758419247585856"><ele>18.0</ele><time>2026-04-06T09:41:15Z</time></trkpt><trkpt lat="39.606577667505455" lon="16.75808950218115"><ele>18.0</ele><time>2026-04-06T09:41:16Z</time></trkpt><trkpt lat="39.60659696217785" lon="16.75773043865395"><ele>19.0</ele><time>2026-04-06T09:41:17Z</time></trkpt><trkpt lat="39.606608096784065" lon="16.757374944010824"><ele>20.0</ele><time>2026-04-06T09:41:18Z</time></trkpt><trkpt lat="39.60661291099559" lon="16.75702673600452"><ele>19.5</ele><time>2026-04-06T09:41:19Z</time></trkpt><trkpt lat="39.60661179300284" lon="16.756682990080066"><ele>19.0</ele><time>2026-04-06T09:41:20Z</time></trkpt><trkpt lat="39.606612001385216" lon="16.756341476331254"><ele>19.0</ele><time>2026-04-06T09:41:21Z</time></trkpt><trkpt lat="39.606615889693" lon="16.755999314465324"><ele>19.0</ele><time>2026-04-06T09:41:22Z</time></trkpt><trkpt lat="39.60664959831254" lon="16.755661887852902"><ele>19.0</ele><time>2026-04-06T09:41:23Z</time></trkpt><trkpt lat="39.606678443318785" lon="16.755319544422658"><ele>19.0</ele><time>2026-04-06T09:41:24Z</time></trkpt><trkpt lat="39.60670740964606" lon="16.754979557518073"><ele>19.0</ele><time>2026-04-06T09:41:25Z</time></trkpt><trkpt lat="39.60673664265911" lon="16.754644111393894"><ele>19.0</ele><time>2026-04-06T09:41:26Z</time></trkpt><trkpt lat="39.60674921113644" lon="16.754317376121353"><ele>19.0</ele><time>2026-04-06T09:41:27Z</time></trkpt><trkpt lat="39.60678682941133" lon="16.753982625026396"><ele>19.0</ele><time>2026-04-06T09:41:28Z</time></trkpt><trkpt lat="39.60682454881156" lon="16.75368409324257"><ele>18.5</ele><time>2026-04-06T09:41:29Z</time></trkpt><trkpt lat="39.606847861499624" lon="16.753370622789774"><ele>18.0</ele><time>2026-04-06T09:41:30Z</time></trkpt><trkpt lat="39.60689362402592" lon="16.75303205231485"><ele>18.5</ele><time>2026-04-06T09:41:31Z</time></trkpt><trkpt lat="39.60695315305007" lon="16.752670800195762"><ele>19.0</ele><time>2026-04-06T09:41:32Z</time></trkpt><trkpt lat="39.60700203634344" lon="16.752347327885225"><ele>19.0</ele><time>2026-04-06T09:41:33Z</time></trkpt><trkpt lat="39.60705686990371" lon="16.752055886709606"><ele>19.0</ele><time>2026-04-06T09:41:34Z</time></trkpt><trkpt lat="39.6071014818201" lon="16.75176980442306"><ele>18.333333333333332</ele><time>2026-04-06T09:41:35Z</time></trkpt><trkpt lat="39.60714659546858" lon="16.751480504918913"><ele>17.666666666666668</ele><time>2026-04-06T09:41:36Z</time></trkpt><trkpt lat="39.6071875179259" lon="16.751218081868203"><ele>17.0</ele><time>2026-04-06T09:41:37Z</time></trkpt><trkpt lat="39.60720924221737" lon="16.750974892831472"><ele>16.666666666666668</ele><time>2026-04-06T09:41:38Z</time></trkpt><trkpt lat="39.60725907772726" lon="16.750757369841125"><ele>16.333333333333332</ele><time>2026-04-06T09:41:39Z</time></trkpt><trkpt lat="39.60727471744669" lon="16.750549280389357"><ele>16.0</ele><time>2026-04-06T09:41:40Z</time></trkpt><trkpt lat="39.60732080270581" lon="16.750358919773625"><ele>16.0</ele><time>2026-04-06T09:41:41Z</time></trkpt><trkpt lat="39.60734825293326" lon="16.750172303219795"><ele>16.0</ele><time>2026-04-06T09:41:42Z</time></trkpt><trkpt lat="39.607376826381525" lon="16.749978050478873"><ele>16.0</ele><time>2026-04-06T09:41:43Z</time></trkpt><trkpt lat="39.607405974155434" lon="16.749775747446165"><ele>16.0</ele><time>2026-04-06T09:41:44Z</time></trkpt><trkpt lat="39.60742104064233" lon="16.74956317238912"><ele>16.0</ele><time>2026-04-06T09:41:45Z</time></trkpt><trkpt lat="39.607452198221026" lon="16.74935548256803"><ele>16.0</ele><time>2026-04-06T09:41:46Z</time></trkpt><trkpt lat="39.607475603014386" lon="16.74916392870546"><ele>16.25</ele><time>2026-04-06T09:41:47Z</time></trkpt><trkpt lat="39.607489051687075" lon="16.748980328125555"><ele>16.5</ele><time>2026-04-06T09:41:48Z</time></trkpt><trkpt lat="39.60749959882529" lon="16.748805413324824"><ele>16.75</ele><time>2026-04-06T09:41:49Z</time></trkpt><trkpt lat="39.60750236295153" lon="16.748638050182837"><ele>17.0</ele><time>2026-04-06T09:41:50Z</time></trkpt><trkpt lat="39.60750522215627" lon="16.748461051545082"><ele>16.5</ele><time>2026-04-06T09:41:51Z</time></trkpt><trkpt lat="39.607511408675954" lon="16.748276331727084"><ele>16.0</ele><time>2026-04-06T09:41:52Z</time></trkpt><trkpt lat="39.607520206287084" lon="16.748121941228607"><ele>15.5</ele><time>2026-04-06T09:41:53Z</time></trkpt><trkpt lat="39.60754128185232" lon="16.747990812072935"><ele>15.0</ele><time>2026-04-06T09:41:54Z</time></trkpt><trkpt lat="39.60757257963262" lon="16.747857094334343"><ele>15.0</ele><time>2026-04-06T09:41:55Z</time></trkpt><trkpt lat="39.60761556729421" lon="16.74774812969561"><ele>15.0</ele><time>2026-04-06T09:41:56Z</time></trkpt><trkpt lat="39.607642416638186" lon="16.747652832902947"><ele>15.0</ele><time>2026-04-06T09:41:57Z</time></trkpt><trkpt lat="39.60764359305841" lon="16.74754452410009"><ele>15.0</ele><time>2026-04-06T09:41:58Z</time></trkpt><trkpt lat="39.607602993809145" lon="16.747438299503965"><ele>15.0</ele><time>2026-04-06T09:41:59Z</time></trkpt><trkpt lat="39.60754880648841" lon="16.74732604150156"><ele>15.0</ele><time>2026-04-06T09:42:00Z</time></trkpt><trkpt lat="39.607505827340894" lon="16.74713377118889"><ele>14.333333333333332</ele><time>2026-04-06T09:42:01Z</time></trkpt><trkpt lat="39.60750315389715" lon="16.746897156751043"><ele>13.666666666666666</ele><time>2026-04-06T09:42:02Z</time></trkpt><trkpt lat="39.60750285919037" lon="16.74663573864591"><ele>13.0</ele><time>2026-04-06T09:42:03Z</time></trkpt><trkpt lat="39.6074964174372" lon="16.746347994523585"><ele>13.0</ele><time>2026-04-06T09:42:04Z</time></trkpt><trkpt lat="39.60749022940798" lon="16.746038366291096"><ele>13.0</ele><time>2026-04-06T09:42:05Z</time></trkpt><trkpt lat="39.60748875603813" lon="16.74574795522033"><ele>13.0</ele><time>2026-04-06T09:42:06Z</time></trkpt><trkpt lat="39.60748496130186" lon="16.745462412947415"><ele>13.0</ele><time>2026-04-06T09:42:07Z</time></trkpt><trkpt lat="39.60748297145114" lon="16.74519306429346"><ele>13.0</ele><time>2026-04-06T09:42:08Z</time></trkpt><trkpt lat="39.607484569556924" lon="16.744918642395636"><ele>13.0</ele><time>2026-04-06T09:42:09Z</time></trkpt><trkpt lat="39.607481875949915" lon="16.744648556848375"><ele>13.0</ele><time>2026-04-06T09:42:10Z</time></trkpt><trkpt lat="39.60747756223426" lon="16.744376902787597"><ele>13.0</ele><time>2026-04-06T09:42:11Z</time></trkpt><trkpt lat="39.6074720067474" lon="16.744103397639723"><ele>13.0</ele><time>2026-04-06T09:42:11.999Z</time></trkpt><trkpt lat="39.60746739924024" lon="16.743829348987337"><ele>13.0</ele><time>2026-04-06T09:42:12.999Z</time></trkpt><trkpt lat="39.607466275953435" lon="16.743557656954142"><ele>13.0</ele><time>2026-04-06T09:42:13.999Z</time></trkpt><trkpt lat="39.60746362228913" lon="16.743285325047285"><ele>13.0</ele><time>2026-04-06T09:42:14.999Z</time></trkpt><trkpt lat="39.607460288088426" lon="16.74301661017509"><ele>13.0</ele><time>2026-04-06T09:42:15.999Z</time></trkpt><trkpt lat="39.60745512031462" lon="16.742750614123736"><ele>13.0</ele><time>2026-04-06T09:42:16.999Z</time></trkpt><trkpt lat="39.60745302170182" lon="16.742484151600436"><ele>13.0</ele><time>2026-04-06T09:42:17.999Z</time></trkpt><trkpt lat="39.60745353784996" lon="16.74222759173288"><ele>13.0</ele><time>2026-04-06T09:42:18.999Z</time></trkpt><trkpt lat="39.607456081144036" lon="16.741987881279215"><ele>13.0</ele><time>2026-04-06T09:42:19.999Z</time></trkpt><trkpt lat="39.60746223462198" lon="16.741749046984125"><ele>13.0</ele><time>2026-04-06T09:42:20.999Z</time></trkpt><trkpt lat="39.607468073385796" lon="16.741505071740665"><ele>13.0</ele><time>2026-04-06T09:42:21.999Z</time></trkpt><trkpt lat="39.60747370505867" lon="16.741247936749453"><ele>13.0</ele><time>2026-04-06T09:42:22.999Z</time></trkpt><trkpt lat="39.6074813633018" lon="16.740962172606395"><ele>12.666666666666666</ele><time>2026-04-06T09:42:23.999Z</time></trkpt><trkpt lat="39.60749601440668" lon="16.740674683093655"><ele>12.333333333333332</ele><time>2026-04-06T09:42:24.999Z</time></trkpt><trkpt lat="39.607513789963434" lon="16.74041432519475"><ele>12.0</ele><time>2026-04-06T09:42:25.999Z</time></trkpt><trkpt lat="39.60753103590633" lon="16.740155732642226"><ele>11.666666666666666</ele><time>2026-04-06T09:42:26.999Z</time></trkpt><trkpt lat="39.60754104119087" lon="16.73989741325723"><ele>11.333333333333332</ele><time>2026-04-06T09:42:27.999Z</time></trkpt><trkpt lat="39.60754231794694" lon="16.73963203061579"><ele>11.0</ele><time>2026-04-06T09:42:28.999Z</time></trkpt><trkpt lat="39.607537528820764" lon="16.739359187376145"><ele>12.0</ele><time>2026-04-06T09:42:29.999Z</time></trkpt><trkpt lat="39.6075221875277" lon="16.739082310923834"><ele>13.0</ele><time>2026-04-06T09:42:30.999Z</time></trkpt><trkpt lat="39.60749707990249" lon="16.738790019021625"><ele>14.0</ele><time>2026-04-06T09:42:32Z</time></trkpt><trkpt lat="39.607476124373704" lon="16.738472838777383"><ele>14.0</ele><time>2026-04-06T09:42:33Z</time></trkpt><trkpt lat="39.60746035425099" lon="16.738119840213002"><ele>14.0</ele><time>2026-04-06T09:42:34Z</time></trkpt><trkpt lat="39.60743781357486" lon="16.73773366031001"><ele>14.5</ele><time>2026-04-06T09:42:35Z</time></trkpt><trkpt lat="39.6074125235556" lon="16.737344174033996"><ele>15.0</ele><time>2026-04-06T09:42:36Z</time></trkpt><trkpt lat="39.60739223845997" lon="16.736942889423997"><ele>15.0</ele><time>2026-04-06T09:42:37Z</time></trkpt><trkpt lat="39.60736997656855" lon="16.736540178558762"><ele>15.0</ele><time>2026-04-06T09:42:38Z</time></trkpt><trkpt lat="39.60734482699253" lon="16.736172137070643"><ele>14.5</ele><time>2026-04-06T09:42:39Z</time></trkpt><trkpt lat="39.607323845529805" lon="16.735831014049484"><ele>14.0</ele><time>2026-04-06T09:42:40Z</time></trkpt><trkpt lat="39.60730288665423" lon="16.73550006214667"><ele>13.5</ele><time>2026-04-06T09:42:41Z</time></trkpt><trkpt lat="39.60728288777222" lon="16.735173317134294"><ele>13.0</ele><time>2026-04-06T09:42:42Z</time></trkpt><trkpt lat="39.60726288810865" lon="16.734848787225065"><ele>13.0</ele><time>2026-04-06T09:42:43Z</time></trkpt><trkpt lat="39.60724317943659" lon="16.734526573602974"><ele>13.0</ele><time>2026-04-06T09:42:44Z</time></trkpt><trkpt lat="39.607224133494945" lon="16.73420784865224"><ele>12.5</ele><time>2026-04-06T09:42:45Z</time></trkpt><trkpt lat="39.60719990293737" lon="16.733890097061604"><ele>12.0</ele><time>2026-04-06T09:42:46Z</time></trkpt><trkpt lat="39.60718025467043" lon="16.733569754420756"><ele>12.0</ele><time>2026-04-06T09:42:47Z</time></trkpt><trkpt lat="39.607167403105436" lon="16.7332455904367"><ele>12.0</ele><time>2026-04-06T09:42:48Z</time></trkpt><trkpt lat="39.60716034854796" lon="16.73291881123317"><ele>12.0</ele><time>2026-04-06T09:42:49Z</time></trkpt><trkpt lat="39.60715775693023" lon="16.73259300618249"><ele>12.0</ele><time>2026-04-06T09:42:50Z</time></trkpt><trkpt lat="39.607156297723385" lon="16.732254005247956"><ele>12.0</ele><time>2026-04-06T09:42:51Z</time></trkpt><trkpt lat="39.60714813953312" lon="16.731884908349596"><ele>12.0</ele><time>2026-04-06T09:42:52Z</time></trkpt><trkpt lat="39.60713167606093" lon="16.731494596108618"><ele>12.0</ele><time>2026-04-06T09:42:53Z</time></trkpt><trkpt lat="39.60711358987217" lon="16.73111923009255"><ele>12.0</ele><time>2026-04-06T09:42:54Z</time></trkpt><trkpt lat="39.607096195977384" lon="16.730784039945092"><ele>12.0</ele><time>2026-04-06T09:42:55Z</time></trkpt><trkpt lat="39.607081728529444" lon="16.730473687126082"><ele>12.0</ele><time>2026-04-06T09:42:56Z</time></trkpt><trkpt lat="39.607063852470986" lon="16.730153014959523"><ele>12.0</ele><time>2026-04-06T09:42:57Z</time></trkpt><trkpt lat="39.60704882298581" lon="16.729817436118825"><ele>12.0</ele><time>2026-04-06T09:42:58Z</time></trkpt><trkpt lat="39.607036679294055" lon="16.729484709154747"><ele>12.0</ele><time>2026-04-06T09:42:59Z</time></trkpt><trkpt lat="39.60702071085649" lon="16.729154324967922"><ele>12.0</ele><time>2026-04-06T09:43:00Z</time></trkpt><trkpt lat="39.60700350581486" lon="16.728825374811993"><ele>13.0</ele><time>2026-04-06T09:43:01Z</time></trkpt><trkpt lat="39.60698977590258" lon="16.72849715722683"><ele>14.0</ele><time>2026-04-06T09:43:02Z</time></trkpt><trkpt lat="39.60697565946549" lon="16.728171004562444"><ele>14.0</ele><time>2026-04-06T09:43:03Z</time></trkpt><trkpt lat="39.60695910040571" lon="16.72784629065637"><ele>14.0</ele><time>2026-04-06T09:43:04Z</time></trkpt><trkpt lat="39.60694111858053" lon="16.727522042774083"><ele>14.0</ele><time>2026-04-06T09:43:05Z</time></trkpt><trkpt lat="39.60692209771073" lon="16.727196830476924"><ele>14.0</ele><time>2026-04-06T09:43:06Z</time></trkpt><trkpt lat="39.60690657571343" lon="16.726861699350522"><ele>14.0</ele><time>2026-04-06T09:43:07Z</time></trkpt><trkpt lat="39.60689034018803" lon="16.726521327439134"><ele>14.0</ele><time>2026-04-06T09:43:08Z</time></trkpt><trkpt lat="39.60687331676125" lon="16.726174629262264"><ele>13.5</ele><time>2026-04-06T09:43:09Z</time></trkpt><trkpt lat="39.606858589944885" lon="16.72583100682846"><ele>13.0</ele><time>2026-04-06T09:43:10Z</time></trkpt><trkpt lat="39.60684282591045" lon="16.725510646272078"><ele>13.5</ele><time>2026-04-06T09:43:11Z</time></trkpt><trkpt lat="39.60682822130587" lon="16.725213642859078"><ele>14.0</ele><time>2026-04-06T09:43:12Z</time></trkpt><trkpt lat="39.60681332724349" lon="16.724914620554824"><ele>14.0</ele><time>2026-04-06T09:43:13Z</time></trkpt><trkpt lat="39.60679719597179" lon="16.724607955446213"><ele>14.0</ele><time>2026-04-06T09:43:14Z</time></trkpt><trkpt lat="39.60678037760818" lon="16.724280388378286"><ele>14.0</ele><time>2026-04-06T09:43:15Z</time></trkpt><trkpt lat="39.60676283509832" lon="16.723946032398747"><ele>14.0</ele><time>2026-04-06T09:43:16Z</time></trkpt><trkpt lat="39.6067461057243" lon="16.723613393378532"><ele>14.5</ele><time>2026-04-06T09:43:17Z</time></trkpt><trkpt lat="39.60673078364493" lon="16.723306684453433"><ele>15.0</ele><time>2026-04-06T09:43:18Z</time></trkpt><trkpt lat="39.606714588336175" lon="16.723018405702902"><ele>17.5</ele><time>2026-04-06T09:43:19Z</time></trkpt><trkpt lat="39.606698808605" lon="16.722723868895596"><ele>20.0</ele><time>2026-04-06T09:43:20Z</time></trkpt><trkpt lat="39.606687820550036" lon="16.7224290304175"><ele>20.0</ele><time>2026-04-06T09:43:21Z</time></trkpt><trkpt lat="39.606672625067304" lon="16.72213375501035"><ele>20.0</ele><time>2026-04-06T09:43:22Z</time></trkpt><trkpt lat="39.606656674020094" lon="16.721834246284867"><ele>20.5</ele><time>2026-04-06T09:43:23Z</time></trkpt><trkpt lat="39.60664241974494" lon="16.72152523454335"><ele>21.0</ele><time>2026-04-06T09:43:24Z</time></trkpt><trkpt lat="39.606623684555146" lon="16.721225149361157"><ele>20.0</ele><time>2026-04-06T09:43:25Z</time></trkpt><trkpt lat="39.6066030286696" lon="16.720942001798623"><ele>19.0</ele><time>2026-04-06T09:43:26Z</time></trkpt><trkpt lat="39.606583821320164" lon="16.72067020278383"><ele>18.0</ele><time>2026-04-06T09:43:27Z</time></trkpt><trkpt lat="39.60656120193351" lon="16.72041704833064"><ele>16.666666666666668</ele><time>2026-04-06T09:43:28Z</time></trkpt><trkpt lat="39.60654180084778" lon="16.72017613868841"><ele>15.333333333333334</ele><time>2026-04-06T09:43:29Z</time></trkpt><trkpt lat="39.60651862441235" lon="16.719945937234996"><ele>14.0</ele><time>2026-04-06T09:43:30Z</time></trkpt><trkpt lat="39.606501281992884" lon="16.719730597839202"><ele>14.0</ele><time>2026-04-06T09:43:31Z</time></trkpt><trkpt lat="39.60648250844021" lon="16.719515552148877"><ele>14.0</ele><time>2026-04-06T09:43:32Z</time></trkpt><trkpt lat="39.60646585019414" lon="16.719298015140446"><ele>14.0</ele><time>2026-04-06T09:43:33Z</time></trkpt><trkpt lat="39.60645578224356" lon="16.719076041292848"><ele>14.333333333333334</ele><time>2026-04-06T09:43:34Z</time></trkpt><trkpt lat="39.606450934698834" lon="16.71885251632064"><ele>14.666666666666668</ele><time>2026-04-06T09:43:35Z</time></trkpt><trkpt lat="39.60645820684345" lon="16.718627611674417"><ele>15.0</ele><time>2026-04-06T09:43:36Z</time></trkpt><trkpt lat="39.60647127735041" lon="16.71840607507677"><ele>15.333333333333332</ele><time>2026-04-06T09:43:37Z</time></trkpt><trkpt lat="39.606482505442564" lon="16.7181962501906"><ele>15.666666666666666</ele><time>2026-04-06T09:43:38Z</time></trkpt><trkpt lat="39.60649311770831" lon="16.71800170647469"><ele>16.0</ele><time>2026-04-06T09:43:39Z</time></trkpt><trkpt lat="39.606507863456805" lon="16.717821339422848"><ele>15.75</ele><time>2026-04-06T09:43:40Z</time></trkpt><trkpt lat="39.60652141741276" lon="16.717651280203476"><ele>15.5</ele><time>2026-04-06T09:43:41Z</time></trkpt><trkpt lat="39.60654938648169" lon="16.71749300516792"><ele>15.25</ele><time>2026-04-06T09:43:42Z</time></trkpt><trkpt lat="39.60656251542959" lon="16.717329358154142"><ele>15.0</ele><time>2026-04-06T09:43:43Z</time></trkpt><trkpt lat="39.606572121259596" lon="16.717156670776134"><ele>15.0</ele><time>2026-04-06T09:43:44Z</time></trkpt><trkpt lat="39.606561780926185" lon="16.716998669419944"><ele>15.0</ele><time>2026-04-06T09:43:45Z</time></trkpt><trkpt lat="39.60654371464512" lon="16.7168610742861"><ele>15.0</ele><time>2026-04-06T09:43:46Z</time></trkpt><trkpt lat="39.606524208177674" lon="16.716739775631336"><ele>15.0</ele><time>2026-04-06T09:43:47Z</time></trkpt><trkpt lat="39.60649143484136" lon="16.71664347750419"><ele>15.0</ele><time>2026-04-06T09:43:48Z</time></trkpt><trkpt lat="39.6064951701129" lon="16.71653115002677"><ele>15.25</ele><time>2026-04-06T09:43:49Z</time></trkpt><trkpt lat="39.60651055402294" lon="16.716402709311875"><ele>15.5</ele><time>2026-04-06T09:43:50Z</time></trkpt><trkpt lat="39.60652178264079" lon="16.716252916394204"><ele>15.75</ele><time>2026-04-06T09:43:51Z</time></trkpt><trkpt lat="39.60654897887632" lon="16.716081852210372"><ele>16.0</ele><time>2026-04-06T09:43:52Z</time></trkpt><trkpt lat="39.606632561595134" lon="16.71595092729418"><ele>16.0</ele><time>2026-04-06T09:43:53Z</time></trkpt><trkpt lat="39.606671737049204" lon="16.71580921962005"><ele>16.0</ele><time>2026-04-06T09:43:54Z</time></trkpt><trkpt lat="39.60669442594242" lon="16.715686459896915"><ele>16.0</ele><time>2026-04-06T09:43:55Z</time></trkpt><trkpt lat="39.606688580931745" lon="16.715560408394754"><ele>16.0</ele><time>2026-04-06T09:43:56Z</time></trkpt><trkpt lat="39.60670435442962" lon="16.715425586544086"><ele>16.0</ele><time>2026-04-06T09:43:57Z</time></trkpt><trkpt lat="39.606718355426835" lon="16.715278981444904"><ele>16.25</ele><time>2026-04-06T09:43:58Z</time></trkpt><trkpt lat="39.606725498899664" lon="16.71512658081903"><ele>16.5</ele><time>2026-04-06T09:43:59Z</time></trkpt><trkpt lat="39.606737575980574" lon="16.71498308970249"><ele>16.75</ele><time>2026-04-06T09:44:00Z</time></trkpt><trkpt lat="39.60675314100635" lon="16.714824368778782"><ele>17.0</ele><time>2026-04-06T09:44:01Z</time></trkpt><trkpt lat="39.60676623254277" lon="16.714662033055223"><ele>17.0</ele><time>2026-04-06T09:44:02Z</time></trkpt><trkpt lat="39.606776412005715" lon="16.714496360691967"><ele>17.0</ele><time>2026-04-06T09:44:03Z</time></trkpt><trkpt lat="39.6067861515007" lon="16.714347130437613"><ele>17.0</ele><time>2026-04-06T09:44:04Z</time></trkpt><trkpt lat="39.606795921088754" lon="16.714213887390464"><ele>17.0</ele><time>2026-04-06T09:44:05Z</time></trkpt><trkpt lat="39.60680715452451" lon="16.714091852256345"><ele>17.0</ele><time>2026-04-06T09:44:06Z</time></trkpt><trkpt lat="39.60682315436779" lon="16.713976574136503"><ele>17.0</ele><time>2026-04-06T09:44:07Z</time></trkpt><trkpt lat="39.60683883084767" lon="16.713846794021816"><ele>17.0</ele><time>2026-04-06T09:44:08Z</time></trkpt><trkpt lat="39.60684727342055" lon="16.71368957125833"><ele>17.0</ele><time>2026-04-06T09:44:09Z</time></trkpt><trkpt lat="39.60685766835065" lon="16.71351986450299"><ele>17.0</ele><time>2026-04-06T09:44:10Z</time></trkpt><trkpt lat="39.60687205290438" lon="16.7133385034385"><ele>16.75</ele><time>2026-04-06T09:44:11Z</time></trkpt><trkpt lat="39.606883053685934" lon="16.713150940011506"><ele>16.5</ele><time>2026-04-06T09:44:12Z</time></trkpt><trkpt lat="39.606896451698944" lon="16.712963775727886"><ele>16.25</ele><time>2026-04-06T09:44:13Z</time></trkpt><trkpt lat="39.60691182508709" lon="16.712784660515876"><ele>16.0</ele><time>2026-04-06T09:44:14Z</time></trkpt><trkpt lat="39.60692778218769" lon="16.712599094127157"><ele>16.5</ele><time>2026-04-06T09:44:15Z</time></trkpt><trkpt lat="39.60694161725244" lon="16.712417731345155"><ele>17.0</ele><time>2026-04-06T09:44:16Z</time></trkpt><trkpt lat="39.606957086064355" lon="16.71224023225836"><ele>17.5</ele><time>2026-04-06T09:44:17Z</time></trkpt><trkpt lat="39.60697174979843" lon="16.712065822518728"><ele>18.0</ele><time>2026-04-06T09:44:18Z</time></trkpt><trkpt lat="39.60697914387902" lon="16.711895887889657"><ele>18.0</ele><time>2026-04-06T09:44:19Z</time></trkpt><trkpt lat="39.60699204171316" lon="16.711738191753152"><ele>18.0</ele><time>2026-04-06T09:44:20Z</time></trkpt><trkpt lat="39.607003065879866" lon="16.711581467604827"><ele>18.0</ele><time>2026-04-06T09:44:21Z</time></trkpt><trkpt lat="39.60701497538161" lon="16.71141780273361"><ele>18.0</ele><time>2026-04-06T09:44:22Z</time></trkpt><trkpt lat="39.60703354306392" lon="16.711244879269643"><ele>17.25</ele><time>2026-04-06T09:44:23Z</time></trkpt><trkpt lat="39.60704997839763" lon="16.711064875167214"><ele>16.5</ele><time>2026-04-06T09:44:24Z</time></trkpt><trkpt lat="39.60706429888877" lon="16.710877768322106"><ele>15.75</ele><time>2026-04-06T09:44:25Z</time></trkpt><trkpt lat="39.60707722945938" lon="16.71069127120671"><ele>15.0</ele><time>2026-04-06T09:44:26Z</time></trkpt><trkpt lat="39.60709003630072" lon="16.71050752991407"><ele>15.0</ele><time>2026-04-06T09:44:27Z</time></trkpt><trkpt lat="39.60710626147769" lon="16.710323151710977"><ele>15.0</ele><time>2026-04-06T09:44:28Z</time></trkpt><trkpt lat="39.60711218236572" lon="16.710141916173054"><ele>15.0</ele><time>2026-04-06T09:44:29Z</time></trkpt><trkpt lat="39.60712764756927" lon="16.70995303252236"><ele>15.0</ele><time>2026-04-06T09:44:30Z</time></trkpt><trkpt lat="39.607138665046314" lon="16.70976179683071"><ele>15.0</ele><time>2026-04-06T09:44:31Z</time></trkpt><trkpt lat="39.60715626083658" lon="16.709575975708244"><ele>15.0</ele><time>2026-04-06T09:44:31.999Z</time></trkpt><trkpt lat="39.60717285463405" lon="16.70937483213603"><ele>15.0</ele><time>2026-04-06T09:44:32.999Z</time></trkpt><trkpt lat="39.60718506013088" lon="16.709172063297288"><ele>15.0</ele><time>2026-04-06T09:44:33.999Z</time></trkpt><trkpt lat="39.607198732246324" lon="16.70898039075615"><ele>15.0</ele><time>2026-04-06T09:44:34.999Z</time></trkpt><trkpt lat="39.60721222265598" lon="16.70880502947675"><ele>15.0</ele><time>2026-04-06T09:44:35.999Z</time></trkpt><trkpt lat="39.60722766505617" lon="16.70864489594633"><ele>15.0</ele><time>2026-04-06T09:44:37Z</time></trkpt><trkpt lat="39.6072415048948" lon="16.708494660248135"><ele>15.0</ele><time>2026-04-06T09:44:38Z</time></trkpt><trkpt lat="39.60725456312439" lon="16.70835701051549"><ele>15.0</ele><time>2026-04-06T09:44:39Z</time></trkpt><trkpt lat="39.60726623083827" lon="16.708220198977585"><ele>15.0</ele><time>2026-04-06T09:44:40Z</time></trkpt><trkpt lat="39.60727762790946" lon="16.708075052919984"><ele>15.0</ele><time>2026-04-06T09:44:41Z</time></trkpt><trkpt lat="39.607288059714186" lon="16.707921252988104"><ele>15.0</ele><time>2026-04-06T09:44:42Z</time></trkpt><trkpt lat="39.60729735557061" lon="16.707761807112895"><ele>15.25</ele><time>2026-04-06T09:44:43Z</time></trkpt><trkpt lat="39.607314581905435" lon="16.707598253891305"><ele>15.5</ele><time>2026-04-06T09:44:44Z</time></trkpt><trkpt lat="39.60733198744109" lon="16.707427988148492"><ele>15.75</ele><time>2026-04-06T09:44:45Z</time></trkpt><trkpt lat="39.60734884150354" lon="16.707250207756637"><ele>16.0</ele><time>2026-04-06T09:44:46Z</time></trkpt><trkpt lat="39.60736636276924" lon="16.707074367122328"><ele>16.0</ele><time>2026-04-06T09:44:47Z</time></trkpt><trkpt lat="39.607379950409246" lon="16.7069117916978"><ele>16.0</ele><time>2026-04-06T09:44:48Z</time></trkpt><trkpt lat="39.60738704475205" lon="16.70675901065943"><ele>16.0</ele><time>2026-04-06T09:44:49Z</time></trkpt><trkpt lat="39.607393729029695" lon="16.706604569201666"><ele>16.0</ele><time>2026-04-06T09:44:50Z</time></trkpt><trkpt lat="39.607398942887876" lon="16.70643678949277"><ele>16.0</ele><time>2026-04-06T09:44:51Z</time></trkpt><trkpt lat="39.60740374829167" lon="16.706252260416036"><ele>16.0</ele><time>2026-04-06T09:44:52Z</time></trkpt><trkpt lat="39.6074256627055" lon="16.706071009843328"><ele>16.0</ele><time>2026-04-06T09:44:53Z</time></trkpt><trkpt lat="39.60743116275489" lon="16.70590565331406"><ele>16.0</ele><time>2026-04-06T09:44:54Z</time></trkpt><trkpt lat="39.60743634573776" lon="16.705738635033544"><ele>16.0</ele><time>2026-04-06T09:44:55Z</time></trkpt><trkpt lat="39.6074404713661" lon="16.705559231753632"><ele>16.0</ele><time>2026-04-06T09:44:56Z</time></trkpt><trkpt lat="39.607444846361766" lon="16.70537076417937"><ele>16.0</ele><time>2026-04-06T09:44:57Z</time></trkpt><trkpt lat="39.60744916057104" lon="16.705184915184482"><ele>16.0</ele><time>2026-04-06T09:44:58Z</time></trkpt><trkpt lat="39.60745348991531" lon="16.704998414186406"><ele>16.0</ele><time>2026-04-06T09:44:59Z</time></trkpt><trkpt lat="39.60745806600587" lon="16.70480128378083"><ele>16.0</ele><time>2026-04-06T09:45:00Z</time></trkpt><trkpt lat="39.607446897473594" lon="16.70459811073232"><ele>16.0</ele><time>2026-04-06T09:45:01Z</time></trkpt><trkpt lat="39.6074661193336" lon="16.70440764170484"><ele>15.75</ele><time>2026-04-06T09:45:02Z</time></trkpt><trkpt lat="39.60746947472663" lon="16.704239571225877"><ele>15.5</ele><time>2026-04-06T09:45:03Z</time></trkpt><trkpt lat="39.60745786121252" lon="16.70408225801675"><ele>15.25</ele><time>2026-04-06T09:45:04Z</time></trkpt><trkpt lat="39.607462365912966" lon="16.703908859856014"><ele>15.0</ele><time>2026-04-06T09:45:05Z</time></trkpt><trkpt lat="39.60746477719612" lon="16.703712418516524"><ele>15.666666666666668</ele><time>2026-04-06T09:45:06Z</time></trkpt><trkpt lat="39.60746885683233" lon="16.703507568446742"><ele>16.333333333333336</ele><time>2026-04-06T09:45:07Z</time></trkpt><trkpt lat="39.60747515010797" lon="16.70330924161505"><ele>17.0</ele><time>2026-04-06T09:45:08Z</time></trkpt><trkpt lat="39.60747871516858" lon="16.7031055058062"><ele>17.0</ele><time>2026-04-06T09:45:09Z</time></trkpt><trkpt lat="39.60748147085301" lon="16.70290028263894"><ele>17.0</ele><time>2026-04-06T09:45:10Z</time></trkpt><trkpt lat="39.60748756014159" lon="16.702696920181825"><ele>17.0</ele><time>2026-04-06T09:45:11Z</time></trkpt><trkpt lat="39.6074947871013" lon="16.702494124617594"><ele>17.0</ele><time>2026-04-06T09:45:12Z</time></trkpt><trkpt lat="39.60750107973502" lon="16.702289514678068"><ele>17.0</ele><time>2026-04-06T09:45:13Z</time></trkpt><trkpt lat="39.607505966127285" lon="16.70208290284873"><ele>17.0</ele><time>2026-04-06T09:45:14Z</time></trkpt><trkpt lat="39.60750972218398" lon="16.701895165728114"><ele>17.0</ele><time>2026-04-06T09:45:15Z</time></trkpt><trkpt lat="39.60751306230037" lon="16.70172200757676"><ele>17.0</ele><time>2026-04-06T09:45:16Z</time></trkpt><trkpt lat="39.60751653308258" lon="16.70155571492751"><ele>17.0</ele><time>2026-04-06T09:45:17Z</time></trkpt><trkpt lat="39.60752045385409" lon="16.70139264289572"><ele>17.0</ele><time>2026-04-06T09:45:18Z</time></trkpt><trkpt lat="39.60752360928955" lon="16.70122996129316"><ele>17.25</ele><time>2026-04-06T09:45:19Z</time></trkpt><trkpt lat="39.607524835333585" lon="16.701069516390174"><ele>17.5</ele><time>2026-04-06T09:45:20Z</time></trkpt><trkpt lat="39.607528394106424" lon="16.700897912381215"><ele>17.75</ele><time>2026-04-06T09:45:21Z</time></trkpt><trkpt lat="39.607537280134046" lon="16.700720162424094"><ele>18.0</ele><time>2026-04-06T09:45:22Z</time></trkpt><trkpt lat="39.60754175127821" lon="16.700540435577256"><ele>18.0</ele><time>2026-04-06T09:45:23Z</time></trkpt><trkpt lat="39.60754685100354" lon="16.70035909042448"><ele>18.0</ele><time>2026-04-06T09:45:24Z</time></trkpt><trkpt lat="39.60755236156235" lon="16.7001739082845"><ele>18.0</ele><time>2026-04-06T09:45:25Z</time></trkpt><trkpt lat="39.60755425982699" lon="16.699989353621906"><ele>18.0</ele><time>2026-04-06T09:45:26Z</time></trkpt><trkpt lat="39.60755627588165" lon="16.699808031207546"><ele>18.0</ele><time>2026-04-06T09:45:27Z</time></trkpt><trkpt lat="39.607555265591174" lon="16.699630641459205"><ele>18.0</ele><time>2026-04-06T09:45:28Z</time></trkpt><trkpt lat="39.60755794922686" lon="16.69945646960623"><ele>18.0</ele><time>2026-04-06T09:45:29Z</time></trkpt><trkpt lat="39.60755822620244" lon="16.699286917789415"><ele>18.0</ele><time>2026-04-06T09:45:30Z</time></trkpt><trkpt lat="39.60755217735807" lon="16.699118832819188"><ele>18.0</ele><time>2026-04-06T09:45:31Z</time></trkpt><trkpt lat="39.607537131769895" lon="16.698937620408138"><ele>18.0</ele><time>2026-04-06T09:45:32Z</time></trkpt><trkpt lat="39.60750672618473" lon="16.698750817574346"><ele>18.0</ele><time>2026-04-06T09:45:33Z</time></trkpt><trkpt lat="39.607464117462" lon="16.698562986848387"><ele>18.0</ele><time>2026-04-06T09:45:34Z</time></trkpt><trkpt lat="39.607413931707185" lon="16.69838323423084"><ele>18.25</ele><time>2026-04-06T09:45:35Z</time></trkpt><trkpt lat="39.607344589408655" lon="16.69820527739435"><ele>18.5</ele><time>2026-04-06T09:45:36Z</time></trkpt><trkpt lat="39.607260723084245" lon="16.698048563020084"><ele>18.75</ele><time>2026-04-06T09:45:37Z</time></trkpt><trkpt lat="39.607171067480834" lon="16.697904377492065"><ele>19.0</ele><time>2026-04-06T09:45:38Z</time></trkpt><trkpt lat="39.607079748936236" lon="16.697760651090856"><ele>19.25</ele><time>2026-04-06T09:45:39Z</time></trkpt><trkpt lat="39.606977164825" lon="16.697624133967825"><ele>19.5</ele><time>2026-04-06T09:45:40Z</time></trkpt><trkpt lat="39.606869712046766" lon="16.69748367929907"><ele>19.75</ele><time>2026-04-06T09:45:41Z</time></trkpt><trkpt lat="39.60677411284014" lon="16.697347876053698"><ele>20.0</ele><time>2026-04-06T09:45:42Z</time></trkpt><trkpt lat="39.60668082948636" lon="16.69722367355795"><ele>20.0</ele><time>2026-04-06T09:45:43Z</time></trkpt><trkpt lat="39.6065842534319" lon="16.69710089729477"><ele>20.0</ele><time>2026-04-06T09:45:44Z</time></trkpt><trkpt lat="39.60648674383396" lon="16.696979422362368"><ele>20.0</ele><time>2026-04-06T09:45:45Z</time></trkpt><trkpt lat="39.60638778673302" lon="16.696855915768733"><ele>20.0</ele><time>2026-04-06T09:45:46Z</time></trkpt><trkpt lat="39.6062902404322" lon="16.69673294214641"><ele>19.75</ele><time>2026-04-06T09:45:47Z</time></trkpt><trkpt lat="39.60619583578332" lon="16.696617438590025"><ele>19.5</ele><time>2026-04-06T09:45:48Z</time></trkpt><trkpt lat="39.606108958526185" lon="16.69650986907492"><ele>19.25</ele><time>2026-04-06T09:45:49Z</time></trkpt><trkpt lat="39.60602980781863" lon="16.69640764159414"><ele>19.0</ele><time>2026-04-06T09:45:50Z</time></trkpt><trkpt lat="39.60595670737723" lon="16.69631115841419"><ele>19.0</ele><time>2026-04-06T09:45:51Z</time></trkpt><trkpt lat="39.60588337809935" lon="16.696217826172116"><ele>19.0</ele><time>2026-04-06T09:45:52Z</time></trkpt><trkpt lat="39.60580481828394" lon="16.696118753651287"><ele>19.0</ele><time>2026-04-06T09:45:53Z</time></trkpt><trkpt lat="39.60572900475154" lon="16.696023129257323"><ele>19.0</ele><time>2026-04-06T09:45:54Z</time></trkpt><trkpt lat="39.60564825727553" lon="16.695921544758512"><ele>19.0</ele><time>2026-04-06T09:45:55Z</time></trkpt><trkpt lat="39.60556429255111" lon="16.69581362949603"><ele>18.75</ele><time>2026-04-06T09:45:56Z</time></trkpt><trkpt lat="39.60548862332472" lon="16.69569533997318"><ele>18.5</ele><time>2026-04-06T09:45:57Z</time></trkpt><trkpt lat="39.605426818051036" lon="16.695575067110077"><ele>18.25</ele><time>2026-04-06T09:45:58Z</time></trkpt><trkpt lat="39.60536484126955" lon="16.695454701534047"><ele>18.0</ele><time>2026-04-06T09:45:59Z</time></trkpt><trkpt lat="39.60529990808519" lon="16.69532369880643"><ele>18.4</ele><time>2026-04-06T09:46:00Z</time></trkpt><trkpt lat="39.605244216382125" lon="16.69518567124063"><ele>18.8</ele><time>2026-04-06T09:46:01Z</time></trkpt><trkpt lat="39.60519715947188" lon="16.69506202659303"><ele>19.2</ele><time>2026-04-06T09:46:02Z</time></trkpt><trkpt lat="39.605159935586876" lon="16.69495048195056"><ele>19.6</ele><time>2026-04-06T09:46:03Z</time></trkpt><trkpt lat="39.6051332948273" lon="16.694848152202724"><ele>20.0</ele><time>2026-04-06T09:46:04Z</time></trkpt><trkpt lat="39.60512171174023" lon="16.694759174109763"><ele>20.0</ele><time>2026-04-06T09:46:05Z</time></trkpt><trkpt lat="39.60512210808311" lon="16.69466901874247"><ele>20.0</ele><time>2026-04-06T09:46:06Z</time></trkpt><trkpt lat="39.6051310396595" lon="16.694563326562424"><ele>20.0</ele><time>2026-04-06T09:46:07Z</time></trkpt><trkpt lat="39.605109808577474" lon="16.69446736055546"><ele>20.0</ele><time>2026-04-06T09:46:08Z</time></trkpt><trkpt lat="39.60506293976402" lon="16.694394860669107"><ele>20.0</ele><time>2026-04-06T09:46:09Z</time></trkpt><trkpt lat="39.604995736967126" lon="16.694342913488487"><ele>20.0</ele><time>2026-04-06T09:46:10Z</time></trkpt><trkpt lat="39.6049157060778" lon="16.69428161346006"><ele>20.0</ele><time>2026-04-06T09:46:11Z</time></trkpt><trkpt lat="39.60484457369189" lon="16.694167379523012"><ele>20.0</ele><time>2026-04-06T09:46:12Z</time></trkpt><trkpt lat="39.60478683649298" lon="16.69403618452799"><ele>20.0</ele><time>2026-04-06T09:46:13Z</time></trkpt><trkpt lat="39.60474890274803" lon="16.69389512310776"><ele>20.0</ele><time>2026-04-06T09:46:14Z</time></trkpt><trkpt lat="39.604721890940695" lon="16.69375627088455"><ele>20.0</ele><time>2026-04-06T09:46:15Z</time></trkpt><trkpt lat="39.60469438521339" lon="16.693612107738133"><ele>20.0</ele><time>2026-04-06T09:46:16Z</time></trkpt><trkpt lat="39.60467875795182" lon="16.69345924769113"><ele>20.0</ele><time>2026-04-06T09:46:17Z</time></trkpt><trkpt lat="39.60467239976445" lon="16.693297365708386"><ele>20.0</ele><time>2026-04-06T09:46:18Z</time></trkpt><trkpt lat="39.60466837900352" lon="16.693132649573744"><ele>19.75</ele><time>2026-04-06T09:46:19Z</time></trkpt><trkpt lat="39.604667859976786" lon="16.692963072081827"><ele>19.5</ele><time>2026-04-06T09:46:20Z</time></trkpt><trkpt lat="39.60466372766501" lon="16.692789965567936"><ele>19.25</ele><time>2026-04-06T09:46:21Z</time></trkpt><trkpt lat="39.60466266202072" lon="16.692620280358337"><ele>19.0</ele><time>2026-04-06T09:46:22Z</time></trkpt><trkpt lat="39.60466183091479" lon="16.692445606377408"><ele>19.0</ele><time>2026-04-06T09:46:23Z</time></trkpt><trkpt lat="39.604660000233004" lon="16.692262590208397"><ele>19.0</ele><time>2026-04-06T09:46:24Z</time></trkpt><trkpt lat="39.60466033061756" lon="16.69207865480684"><ele>19.0</ele><time>2026-04-06T09:46:25Z</time></trkpt><trkpt lat="39.60466179887296" lon="16.69190433286197"><ele>19.0</ele><time>2026-04-06T09:46:26Z</time></trkpt><trkpt lat="39.60466086809631" lon="16.69173612075364"><ele>19.0</ele><time>2026-04-06T09:46:27Z</time></trkpt><trkpt lat="39.6046589551819" lon="16.69156214819091"><ele>19.0</ele><time>2026-04-06T09:46:28Z</time></trkpt><trkpt lat="39.604656869274706" lon="16.691379280815042"><ele>19.0</ele><time>2026-04-06T09:46:29Z</time></trkpt><trkpt lat="39.6046530630417" lon="16.691191723614754"><ele>19.0</ele><time>2026-04-06T09:46:30Z</time></trkpt><trkpt lat="39.604647972017894" lon="16.691003888424813"><ele>19.25</ele><time>2026-04-06T09:46:31Z</time></trkpt><trkpt lat="39.60464462894886" lon="16.69081102261669"><ele>19.5</ele><time>2026-04-06T09:46:32Z</time></trkpt><trkpt lat="39.60464209582249" lon="16.69061720988685"><ele>19.75</ele><time>2026-04-06T09:46:33Z</time></trkpt><trkpt lat="39.6046411020937" lon="16.690420548669337"><ele>20.0</ele><time>2026-04-06T09:46:34Z</time></trkpt><trkpt lat="39.60464088709996" lon="16.690223514618467"><ele>20.0</ele><time>2026-04-06T09:46:35Z</time></trkpt><trkpt lat="39.60464133060844" lon="16.690024239059497"><ele>20.0</ele><time>2026-04-06T09:46:36Z</time></trkpt><trkpt lat="39.60463993801773" lon="16.689824519676435"><ele>20.0</ele><time>2026-04-06T09:46:37Z</time></trkpt><trkpt lat="39.60463668050826" lon="16.6896249013571"><ele>21.333333333333336</ele><time>2026-04-06T09:46:38Z</time></trkpt><trkpt lat="39.60463250512896" lon="16.689424816568568"><ele>22.666666666666668</ele><time>2026-04-06T09:46:39Z</time></trkpt><trkpt lat="39.60462839571077" lon="16.689223419184508"><ele>24.0</ele><time>2026-04-06T09:46:40Z</time></trkpt><trkpt lat="39.604626668983244" lon="16.689018825701304"><ele>24.0</ele><time>2026-04-06T09:46:41Z</time></trkpt><trkpt lat="39.60462842174086" lon="16.68881010827699"><ele>24.0</ele><time>2026-04-06T09:46:42Z</time></trkpt><trkpt lat="39.60462856273801" lon="16.688598202653864"><ele>24.0</ele><time>2026-04-06T09:46:43Z</time></trkpt><trkpt lat="39.604628005205974" lon="16.688381608160032"><ele>24.333333333333336</ele><time>2026-04-06T09:46:44Z</time></trkpt><trkpt lat="39.60463092001657" lon="16.6881569397862"><ele>24.666666666666668</ele><time>2026-04-06T09:46:45Z</time></trkpt><trkpt lat="39.60463726750644" lon="16.687927438113462"><ele>25.0</ele><time>2026-04-06T09:46:46Z</time></trkpt><trkpt lat="39.60464564184169" lon="16.68769358513944"><ele>25.0</ele><time>2026-04-06T09:46:47Z</time></trkpt><trkpt lat="39.604656552969374" lon="16.687461190232607"><ele>25.0</ele><time>2026-04-06T09:46:48Z</time></trkpt><trkpt lat="39.604673379743595" lon="16.687236713581537"><ele>25.0</ele><time>2026-04-06T09:46:49Z</time></trkpt><trkpt lat="39.604693844486796" lon="16.687020697810627"><ele>25.333333333333336</ele><time>2026-04-06T09:46:50Z</time></trkpt><trkpt lat="39.60471162290059" lon="16.686805256388237"><ele>25.666666666666664</ele><time>2026-04-06T09:46:51Z</time></trkpt><trkpt lat="39.60473402199187" lon="16.686586246478853"><ele>26.0</ele><time>2026-04-06T09:46:52Z</time></trkpt><trkpt lat="39.60475922810166" lon="16.686366195895847"><ele>26.0</ele><time>2026-04-06T09:46:53Z</time></trkpt><trkpt lat="39.60478793300851" lon="16.68614406965031"><ele>26.0</ele><time>2026-04-06T09:46:54Z</time></trkpt><trkpt lat="39.604817702105926" lon="16.68591920153245"><ele>26.0</ele><time>2026-04-06T09:46:55Z</time></trkpt><trkpt lat="39.60484438882145" lon="16.68569005482099"><ele>26.333333333333332</ele><time>2026-04-06T09:46:56Z</time></trkpt><trkpt lat="39.60486806308595" lon="16.68545927909181"><ele>26.666666666666664</ele><time>2026-04-06T09:46:57Z</time></trkpt><trkpt lat="39.60489408109508" lon="16.685226475452122"><ele>27.0</ele><time>2026-04-06T09:46:58Z</time></trkpt><trkpt lat="39.60492225113417" lon="16.684995701477543"><ele>27.0</ele><time>2026-04-06T09:46:59Z</time></trkpt><trkpt lat="39.604951438193126" lon="16.684768075672977"><ele>27.0</ele><time>2026-04-06T09:47:00Z</time></trkpt><trkpt lat="39.60497918385285" lon="16.684535818999773"><ele>27.0</ele><time>2026-04-06T09:47:01Z</time></trkpt><trkpt lat="39.60500392725842" lon="16.68430067501706"><ele>27.333333333333336</ele><time>2026-04-06T09:47:02Z</time></trkpt><trkpt lat="39.60502840106135" lon="16.684077745769173"><ele>27.666666666666668</ele><time>2026-04-06T09:47:03Z</time></trkpt><trkpt lat="39.60505420929871" lon="16.683858322948407"><ele>28.0</ele><time>2026-04-06T09:47:04Z</time></trkpt><trkpt lat="39.60508165819955" lon="16.683631184892587"><ele>28.0</ele><time>2026-04-06T09:47:05Z</time></trkpt><trkpt lat="39.60511197430416" lon="16.683396561874208"><ele>28.0</ele><time>2026-04-06T09:47:06Z</time></trkpt><trkpt lat="39.60514667825348" lon="16.683156387585644"><ele>28.0</ele><time>2026-04-06T09:47:07Z</time></trkpt><trkpt lat="39.60517981469327" lon="16.682911015449"><ele>28.0</ele><time>2026-04-06T09:47:08Z</time></trkpt><trkpt lat="39.6052063559327" lon="16.682661862178534"><ele>28.0</ele><time>2026-04-06T09:47:09Z</time></trkpt><trkpt lat="39.605232636319414" lon="16.682408889681742"><ele>28.0</ele><time>2026-04-06T09:47:10Z</time></trkpt><trkpt lat="39.60525805873156" lon="16.6821486831732"><ele>27.333333333333336</ele><time>2026-04-06T09:47:11Z</time></trkpt><trkpt lat="39.60528515785489" lon="16.681882850809952"><ele>26.666666666666664</ele><time>2026-04-06T09:47:12Z</time></trkpt><trkpt lat="39.60531459988713" lon="16.68161292499929"><ele>26.0</ele><time>2026-04-06T09:47:13Z</time></trkpt><trkpt lat="39.60533919285469" lon="16.68133879067666"><ele>25.666666666666664</ele><time>2026-04-06T09:47:14Z</time></trkpt><trkpt lat="39.60535310740884" lon="16.681063543489213"><ele>25.333333333333336</ele><time>2026-04-06T09:47:15Z</time></trkpt><trkpt lat="39.60536084766333" lon="16.680786216918825"><ele>25.0</ele><time>2026-04-06T09:47:16Z</time></trkpt><trkpt lat="39.605363616933865" lon="16.680507148647045"><ele>25.0</ele><time>2026-04-06T09:47:17Z</time></trkpt><trkpt lat="39.60536679874249" lon="16.6802249840428"><ele>25.0</ele><time>2026-04-06T09:47:18Z</time></trkpt><trkpt lat="39.605376739615345" lon="16.679936068994856"><ele>25.0</ele><time>2026-04-06T09:47:19Z</time></trkpt><trkpt lat="39.60537406010424" lon="16.679633823601158"><ele>24.5</ele><time>2026-04-06T09:47:20Z</time></trkpt><trkpt lat="39.60536181386611" lon="16.679328067703608"><ele>24.0</ele><time>2026-04-06T09:47:21Z</time></trkpt><trkpt lat="39.60535411033906" lon="16.679030771113823"><ele>24.0</ele><time>2026-04-06T09:47:22Z</time></trkpt><trkpt lat="39.60534419966201" lon="16.67875678693376"><ele>24.0</ele><time>2026-04-06T09:47:23Z</time></trkpt><trkpt lat="39.60533017592595" lon="16.67849769743205"><ele>24.0</ele><time>2026-04-06T09:47:24Z</time></trkpt><trkpt lat="39.605321337958614" lon="16.67825155698808"><ele>24.0</ele><time>2026-04-06T09:47:25Z</time></trkpt><trkpt lat="39.605314291505366" lon="16.678008959907608"><ele>24.0</ele><time>2026-04-06T09:47:26Z</time></trkpt><trkpt lat="39.60530708512921" lon="16.67775823604546"><ele>24.0</ele><time>2026-04-06T09:47:27Z</time></trkpt><trkpt lat="39.60530115368146" lon="16.677504309991775"><ele>23.666666666666668</ele><time>2026-04-06T09:47:28Z</time></trkpt><trkpt lat="39.60529504619173" lon="16.677246428526725"><ele>23.333333333333336</ele><time>2026-04-06T09:47:29Z</time></trkpt><trkpt lat="39.60528722351476" lon="16.676983331302665"><ele>23.0</ele><time>2026-04-06T09:47:30Z</time></trkpt><trkpt lat="39.60527365134494" lon="16.676714531149003"><ele>23.0</ele><time>2026-04-06T09:47:31Z</time></trkpt><trkpt lat="39.605262782030536" lon="16.676455311128155"><ele>23.0</ele><time>2026-04-06T09:47:32Z</time></trkpt><trkpt lat="39.60525377372124" lon="16.676214155012378"><ele>23.0</ele><time>2026-04-06T09:47:33Z</time></trkpt><trkpt lat="39.605246810559066" lon="16.675983299044216"><ele>23.0</ele><time>2026-04-06T09:47:34Z</time></trkpt><trkpt lat="39.60523966679281" lon="16.675763151157025"><ele>23.0</ele><time>2026-04-06T09:47:35Z</time></trkpt><trkpt lat="39.60523199092225" lon="16.675556359542192"><ele>23.0</ele><time>2026-04-06T09:47:36Z</time></trkpt><trkpt lat="39.605225089348664" lon="16.675358920750742"><ele>22.333333333333336</ele><time>2026-04-06T09:47:37Z</time></trkpt><trkpt lat="39.60521758209298" lon="16.675169361390463"><ele>21.666666666666668</ele><time>2026-04-06T09:47:38Z</time></trkpt><trkpt lat="39.60520836417605" lon="16.6749641315461"><ele>21.0</ele><time>2026-04-06T09:47:39Z</time></trkpt><trkpt lat="39.60520064931415" lon="16.67474992738517"><ele>21.0</ele><time>2026-04-06T09:47:40Z</time></trkpt><trkpt lat="39.60519596596759" lon="16.674528338506782"><ele>21.0</ele><time>2026-04-06T09:47:41Z</time></trkpt><trkpt lat="39.60519206114548" lon="16.674311822993605"><ele>21.0</ele><time>2026-04-06T09:47:42Z</time></trkpt><trkpt lat="39.605183781605334" lon="16.674093140220293"><ele>21.333333333333332</ele><time>2026-04-06T09:47:43Z</time></trkpt><trkpt lat="39.605177446750254" lon="16.67388370496551"><ele>21.666666666666664</ele><time>2026-04-06T09:47:44Z</time></trkpt><trkpt lat="39.605172290338984" lon="16.67368841706292"><ele>22.0</ele><time>2026-04-06T09:47:45Z</time></trkpt><trkpt lat="39.6051674981926" lon="16.6735030365743"><ele>22.0</ele><time>2026-04-06T09:47:46Z</time></trkpt><trkpt lat="39.60515884961476" lon="16.673318582025146"><ele>22.0</ele><time>2026-04-06T09:47:47Z</time></trkpt><trkpt lat="39.605149351265545" lon="16.673134770313524"><ele>22.0</ele><time>2026-04-06T09:47:48Z</time></trkpt><trkpt lat="39.6051426459939" lon="16.67293851170185"><ele>22.0</ele><time>2026-04-06T09:47:49Z</time></trkpt><trkpt lat="39.605137167429156" lon="16.672729837536302"><ele>22.25</ele><time>2026-04-06T09:47:50Z</time></trkpt><trkpt lat="39.60513102890318" lon="16.672521982245396"><ele>22.5</ele><time>2026-04-06T09:47:51Z</time></trkpt><trkpt lat="39.60512534308294" lon="16.672330642027894"><ele>22.75</ele><time>2026-04-06T09:47:52Z</time></trkpt><trkpt lat="39.60512043063166" lon="16.672147803899062"><ele>23.0</ele><time>2026-04-06T09:47:53Z</time></trkpt><trkpt lat="39.605117595447304" lon="16.67197379473035"><ele>22.75</ele><time>2026-04-06T09:47:54Z</time></trkpt><trkpt lat="39.60511225915587" lon="16.671808728081"><ele>22.5</ele><time>2026-04-06T09:47:55Z</time></trkpt><trkpt lat="39.60510536884592" lon="16.67165221715254"><ele>22.25</ele><time>2026-04-06T09:47:56Z</time></trkpt><trkpt lat="39.60509844133589" lon="16.67150261017733"><ele>22.0</ele><time>2026-04-06T09:47:57Z</time></trkpt><trkpt lat="39.60509365237247" lon="16.67134996746833"><ele>22.0</ele><time>2026-04-06T09:47:58Z</time></trkpt><trkpt lat="39.605089140123184" lon="16.671190521407343"><ele>22.0</ele><time>2026-04-06T09:47:59Z</time></trkpt><trkpt lat="39.605086949698865" lon="16.67102771566566"><ele>22.0</ele><time>2026-04-06T09:48:00Z</time></trkpt><trkpt lat="39.605082701856745" lon="16.67086522111421"><ele>22.0</ele><time>2026-04-06T09:48:01Z</time></trkpt><trkpt lat="39.60507623114872" lon="16.670705381298298"><ele>22.200000000000003</ele><time>2026-04-06T09:48:02Z</time></trkpt><trkpt lat="39.605072660697644" lon="16.670551028059077"><ele>22.4</ele><time>2026-04-06T09:48:03Z</time></trkpt><trkpt lat="39.60507070868436" lon="16.670408470342416"><ele>22.6</ele><time>2026-04-06T09:48:04Z</time></trkpt><trkpt lat="39.605070606625624" lon="16.67028408245379"><ele>22.799999999999997</ele><time>2026-04-06T09:48:05Z</time></trkpt><trkpt lat="39.60507844285534" lon="16.670167201673355"><ele>23.0</ele><time>2026-04-06T09:48:06Z</time></trkpt><trkpt lat="39.60509826575369" lon="16.670062451319694"><ele>23.333333333333336</ele><time>2026-04-06T09:48:07Z</time></trkpt><trkpt lat="39.60513029517693" lon="16.669972130389137"><ele>23.666666666666668</ele><time>2026-04-06T09:48:08Z</time></trkpt><trkpt lat="39.60515671125039" lon="16.669886370618485"><ele>24.0</ele><time>2026-04-06T09:48:09Z</time></trkpt><trkpt lat="39.60516608697733" lon="16.669783046802966"><ele>24.333333333333336</ele><time>2026-04-06T09:48:10Z</time></trkpt><trkpt lat="39.60514431490352" lon="16.669687715229216"><ele>24.666666666666668</ele><time>2026-04-06T09:48:11Z</time></trkpt><trkpt lat="39.6050967481013" lon="16.66959467944664"><ele>25.0</ele><time>2026-04-06T09:48:12Z</time></trkpt><trkpt lat="39.60505259318842" lon="16.669484285179458"><ele>24.8</ele><time>2026-04-06T09:48:13Z</time></trkpt><trkpt lat="39.60503523807619" lon="16.669354845422564"><ele>24.6</ele><time>2026-04-06T09:48:14Z</time></trkpt><trkpt lat="39.60502633711284" lon="16.66921502386158"><ele>24.4</ele><time>2026-04-06T09:48:15Z</time></trkpt><trkpt lat="39.6050204663234" lon="16.66906787584886"><ele>24.2</ele><time>2026-04-06T09:48:16Z</time></trkpt><trkpt lat="39.60501513303212" lon="16.66891778594344"><ele>24.0</ele><time>2026-04-06T09:48:17Z</time></trkpt><trkpt lat="39.60501215280925" lon="16.668770059718454"><ele>24.0</ele><time>2026-04-06T09:48:18Z</time></trkpt><trkpt lat="39.60501228360386" lon="16.668626111114328"><ele>24.0</ele><time>2026-04-06T09:48:19Z</time></trkpt><trkpt lat="39.60501078843758" lon="16.66849184011268"><ele>24.0</ele><time>2026-04-06T09:48:20Z</time></trkpt><trkpt lat="39.605008565103006" lon="16.66836134027878"><ele>24.0</ele><time>2026-04-06T09:48:21Z</time></trkpt><trkpt lat="39.60500364537515" lon="16.66823493525134"><ele>24.0</ele><time>2026-04-06T09:48:22Z</time></trkpt><trkpt lat="39.6049975017613" lon="16.668102748269135"><ele>24.5</ele><time>2026-04-06T09:48:23Z</time></trkpt><trkpt lat="39.604992749983204" lon="16.667959767417155"><ele>25.0</ele><time>2026-04-06T09:48:24Z</time></trkpt><trkpt lat="39.60498821828587" lon="16.667808010767477"><ele>25.5</ele><time>2026-04-06T09:48:25Z</time></trkpt><trkpt lat="39.604984374480374" lon="16.66764993878335"><ele>26.0</ele><time>2026-04-06T09:48:26Z</time></trkpt><trkpt lat="39.604981021688445" lon="16.66748530127858"><ele>26.25</ele><time>2026-04-06T09:48:27Z</time></trkpt><trkpt lat="39.60497630561349" lon="16.667314777573242"><ele>26.5</ele><time>2026-04-06T09:48:28Z</time></trkpt><trkpt lat="39.60496959330446" lon="16.667138446141575"><ele>26.75</ele><time>2026-04-06T09:48:29Z</time></trkpt><trkpt lat="39.60496568973154" lon="16.666958012997984"><ele>27.0</ele><time>2026-04-06T09:48:30Z</time></trkpt><trkpt lat="39.604959321552165" lon="16.66677229509786"><ele>27.0</ele><time>2026-04-06T09:48:31Z</time></trkpt><trkpt lat="39.60495319734467" lon="16.666583813097226"><ele>27.0</ele><time>2026-04-06T09:48:32Z</time></trkpt><trkpt lat="39.604945818567465" lon="16.6663935088491"><ele>27.0</ele><time>2026-04-06T09:48:33Z</time></trkpt><trkpt lat="39.604939137934714" lon="16.66621693134357"><ele>27.0</ele><time>2026-04-06T09:48:34Z</time></trkpt><trkpt lat="39.60493228028608" lon="16.666057644483615"><ele>26.75</ele><time>2026-04-06T09:48:35Z</time></trkpt><trkpt lat="39.60492635397533" lon="16.665903617060206"><ele>26.5</ele><time>2026-04-06T09:48:36Z</time></trkpt><trkpt lat="39.60492144608194" lon="16.665741455827256"><ele>26.25</ele><time>2026-04-06T09:48:37Z</time></trkpt><trkpt lat="39.60491643627205" lon="16.66557266024869"><ele>26.0</ele><time>2026-04-06T09:48:38Z</time></trkpt><trkpt lat="39.604908587086605" lon="16.665409173753538"><ele>26.4</ele><time>2026-04-06T09:48:39Z</time></trkpt><trkpt lat="39.60490795946039" lon="16.66526159001529"><ele>26.8</ele><time>2026-04-06T09:48:40Z</time></trkpt><trkpt lat="39.60492073781476" lon="16.66512660492156"><ele>27.199999999999996</ele><time>2026-04-06T09:48:41Z</time></trkpt><trkpt lat="39.60494768180672" lon="16.66500733714481"><ele>27.599999999999998</ele><time>2026-04-06T09:48:42Z</time></trkpt><trkpt lat="39.6049839650522" lon="16.664903509932575"><ele>28.0</ele><time>2026-04-06T09:48:43Z</time></trkpt><trkpt lat="39.60500214183627" lon="16.66479570096236"><ele>28.0</ele><time>2026-04-06T09:48:44Z</time></trkpt><trkpt lat="39.604988953254725" lon="16.664677560367757"><ele>27.999999999999996</ele><time>2026-04-06T09:48:45Z</time></trkpt><trkpt lat="39.604940777930565" lon="16.6645659451424"><ele>27.999999999999996</ele><time>2026-04-06T09:48:46Z</time></trkpt><trkpt lat="39.604891529325734" lon="16.664440960796743"><ele>28.0</ele><time>2026-04-06T09:48:47Z</time></trkpt><trkpt lat="39.604870610240795" lon="16.664283473832455"><ele>28.0</ele><time>2026-04-06T09:48:48Z</time></trkpt><trkpt lat="39.60486350547427" lon="16.664127499200465"><ele>27.75</ele><time>2026-04-06T09:48:49Z</time></trkpt><trkpt lat="39.604854849150136" lon="16.663962648764397"><ele>27.5</ele><time>2026-04-06T09:48:50Z</time></trkpt><trkpt lat="39.60484643351046" lon="16.663793020533937"><ele>27.25</ele><time>2026-04-06T09:48:51Z</time></trkpt><trkpt lat="39.60483920540245" lon="16.66361707303222"><ele>27.0</ele><time>2026-04-06T09:48:52Z</time></trkpt><trkpt lat="39.60483436502674" lon="16.66343423544374"><ele>27.0</ele><time>2026-04-06T09:48:53Z</time></trkpt><trkpt lat="39.60482665956886" lon="16.6632530444577"><ele>27.0</ele><time>2026-04-06T09:48:54Z</time></trkpt><trkpt lat="39.60481807362557" lon="16.663057921925045"><ele>27.0</ele><time>2026-04-06T09:48:55Z</time></trkpt><trkpt lat="39.60481226728645" lon="16.66285357512384"><ele>27.0</ele><time>2026-04-06T09:48:56Z</time></trkpt><trkpt lat="39.60480839766291" lon="16.662636865796337"><ele>26.666666666666664</ele><time>2026-04-06T09:48:57Z</time></trkpt><trkpt lat="39.60480242116942" lon="16.662411568019163"><ele>26.333333333333332</ele><time>2026-04-06T09:48:58Z</time></trkpt><trkpt lat="39.60479307774586" lon="16.662175172838857"><ele>26.0</ele><time>2026-04-06T09:48:59Z</time></trkpt><trkpt lat="39.60478083069765" lon="16.66193334654002"><ele>25.666666666666664</ele><time>2026-04-06T09:49:00Z</time></trkpt><trkpt lat="39.60477061477052" lon="16.66170201004325"><ele>25.333333333333336</ele><time>2026-04-06T09:49:01Z</time></trkpt><trkpt lat="39.60476251720359" lon="16.661471548602538"><ele>25.0</ele><time>2026-04-06T09:49:02Z</time></trkpt><trkpt lat="39.60475324226478" lon="16.661256506403696"><ele>25.0</ele><time>2026-04-06T09:49:03Z</time></trkpt><trkpt lat="39.60474573597032" lon="16.661058354054656"><ele>25.0</ele><time>2026-04-06T09:49:04Z</time></trkpt><trkpt lat="39.60474196024587" lon="16.660872326347445"><ele>25.0</ele><time>2026-04-06T09:49:05Z</time></trkpt><trkpt lat="39.604738794134796" lon="16.660685573794414"><ele>25.0</ele><time>2026-04-06T09:49:06Z</time></trkpt><trkpt lat="39.60473631103801" lon="16.660487606837922"><ele>25.0</ele><time>2026-04-06T09:49:07Z</time></trkpt><trkpt lat="39.60473165911075" lon="16.660285281134005"><ele>25.0</ele><time>2026-04-06T09:49:08Z</time></trkpt><trkpt lat="39.604725573663785" lon="16.660079134451788"><ele>25.0</ele><time>2026-04-06T09:49:09Z</time></trkpt><trkpt lat="39.604720536128" lon="16.65986995494077"><ele>25.0</ele><time>2026-04-06T09:49:10Z</time></trkpt><trkpt lat="39.60471377857292" lon="16.65966950692962"><ele>25.0</ele><time>2026-04-06T09:49:11Z</time></trkpt><trkpt lat="39.604706807572455" lon="16.659474767649243"><ele>25.0</ele><time>2026-04-06T09:49:12Z</time></trkpt><trkpt lat="39.60469976536537" lon="16.659285924420562"><ele>25.0</ele><time>2026-04-06T09:49:13Z</time></trkpt><trkpt lat="39.60469259836663" lon="16.65910664995433"><ele>25.0</ele><time>2026-04-06T09:49:14Z</time></trkpt><trkpt lat="39.60468499418206" lon="16.658921884902327"><ele>25.0</ele><time>2026-04-06T09:49:15Z</time></trkpt><trkpt lat="39.60467790804178" lon="16.658731950489404"><ele>25.0</ele><time>2026-04-06T09:49:16Z</time></trkpt><trkpt lat="39.60467240022326" lon="16.65854917270487"><ele>25.0</ele><time>2026-04-06T09:49:17Z</time></trkpt><trkpt lat="39.60466797389736" lon="16.658357933121945"><ele>25.0</ele><time>2026-04-06T09:49:18Z</time></trkpt><trkpt lat="39.60466405720046" lon="16.658175658748874"><ele>25.0</ele><time>2026-04-06T09:49:19Z</time></trkpt><trkpt lat="39.60465625336306" lon="16.65799864672178"><ele>25.0</ele><time>2026-04-06T09:49:20Z</time></trkpt><trkpt lat="39.604649676211984" lon="16.657808665764154"><ele>25.25</ele><time>2026-04-06T09:49:21Z</time></trkpt><trkpt lat="39.60464382773051" lon="16.657619659712957"><ele>25.5</ele><time>2026-04-06T09:49:22Z</time></trkpt><trkpt lat="39.604637942571124" lon="16.657437557543062"><ele>25.75</ele><time>2026-04-06T09:49:23Z</time></trkpt><trkpt lat="39.604631703154716" lon="16.657253712670915"><ele>26.0</ele><time>2026-04-06T09:49:24Z</time></trkpt><trkpt lat="39.6046266069308" lon="16.657061174509863"><ele>25.666666666666664</ele><time>2026-04-06T09:49:25Z</time></trkpt><trkpt lat="39.60462361272685" lon="16.656858849917064"><ele>25.333333333333336</ele><time>2026-04-06T09:49:26Z</time></trkpt><trkpt lat="39.60462601789215" lon="16.656649220978647"><ele>25.0</ele><time>2026-04-06T09:49:27Z</time></trkpt><trkpt lat="39.60463953646956" lon="16.65643524605368"><ele>25.0</ele><time>2026-04-06T09:49:28Z</time></trkpt><trkpt lat="39.60465919570673" lon="16.656223498290238"><ele>25.0</ele><time>2026-04-06T09:49:29Z</time></trkpt><trkpt lat="39.60467785296467" lon="16.656011080031163"><ele>25.0</ele><time>2026-04-06T09:49:30Z</time></trkpt><trkpt lat="39.60470160791363" lon="16.655799482030563"><ele>25.0</ele><time>2026-04-06T09:49:31Z</time></trkpt><trkpt lat="39.604730806537745" lon="16.655589239155727"><ele>25.0</ele><time>2026-04-06T09:49:32Z</time></trkpt><trkpt lat="39.60476187651393" lon="16.655379427196344"><ele>25.0</ele><time>2026-04-06T09:49:33Z</time></trkpt><trkpt lat="39.60480216676316" lon="16.65517092184062"><ele>25.0</ele><time>2026-04-06T09:49:34Z</time></trkpt><trkpt lat="39.6048524897425" lon="16.654960127009254"><ele>25.0</ele><time>2026-04-06T09:49:35Z</time></trkpt><trkpt lat="39.60490174765326" lon="16.65475736758539"><ele>25.0</ele><time>2026-04-06T09:49:36Z</time></trkpt><trkpt lat="39.60495257686973" lon="16.6545532787786"><ele>25.666666666666668</ele><time>2026-04-06T09:49:37Z</time></trkpt><trkpt lat="39.60501103002281" lon="16.65434863175705"><ele>26.333333333333336</ele><time>2026-04-06T09:49:38Z</time></trkpt><trkpt lat="39.60507815536974" lon="16.654144343394748"><ele>27.0</ele><time>2026-04-06T09:49:39Z</time></trkpt><trkpt lat="39.605147114254294" lon="16.65394314989841"><ele>27.0</ele><time>2026-04-06T09:49:40Z</time></trkpt><trkpt lat="39.60522393559578" lon="16.653746329129582"><ele>27.0</ele><time>2026-04-06T09:49:41Z</time></trkpt><trkpt lat="39.60530494649989" lon="16.653551338110276"><ele>27.0</ele><time>2026-04-06T09:49:42Z</time></trkpt><trkpt lat="39.60538778753286" lon="16.653363134946833"><ele>26.0</ele><time>2026-04-06T09:49:43Z</time></trkpt><trkpt lat="39.605467864379335" lon="16.65317708494458"><ele>25.0</ele><time>2026-04-06T09:49:44Z</time></trkpt><trkpt lat="39.60555843659766" lon="16.65299795096548"><ele>24.0</ele><time>2026-04-06T09:49:45Z</time></trkpt><trkpt lat="39.60564119362723" lon="16.65281613110659"><ele>24.0</ele><time>2026-04-06T09:49:46Z</time></trkpt><trkpt lat="39.605724637843814" lon="16.652635838219826"><ele>24.0</ele><time>2026-04-06T09:49:47Z</time></trkpt><trkpt lat="39.60580709867288" lon="16.65244846277684"><ele>24.0</ele><time>2026-04-06T09:49:48Z</time></trkpt><trkpt lat="39.60589294297139" lon="16.652260605696657"><ele>24.0</ele><time>2026-04-06T09:49:49Z</time></trkpt><trkpt lat="39.605981306460336" lon="16.652069578841733"><ele>24.0</ele><time>2026-04-06T09:49:50Z</time></trkpt><trkpt lat="39.60606788319676" lon="16.651878307151488"><ele>24.0</ele><time>2026-04-06T09:49:51Z</time></trkpt><trkpt lat="39.606155853574265" lon="16.651685466720014"><ele>24.0</ele><time>2026-04-06T09:49:52Z</time></trkpt><trkpt lat="39.60624344536436" lon="16.651491455730614"><ele>24.0</ele><time>2026-04-06T09:49:53Z</time></trkpt><trkpt lat="39.60633118483026" lon="16.651294845998585"><ele>24.0</ele><time>2026-04-06T09:49:54Z</time></trkpt><trkpt lat="39.60641865993695" lon="16.6510974031178"><ele>24.0</ele><time>2026-04-06T09:49:55Z</time></trkpt><trkpt lat="39.60650872080252" lon="16.650900214263764"><ele>24.0</ele><time>2026-04-06T09:49:56Z</time></trkpt><trkpt lat="39.60659945839295" lon="16.65070316499161"><ele>24.0</ele><time>2026-04-06T09:49:57Z</time></trkpt><trkpt lat="39.606689849746104" lon="16.650506967782093"><ele>24.0</ele><time>2026-04-06T09:49:58Z</time></trkpt><trkpt lat="39.60678182498075" lon="16.65030476821326"><ele>24.0</ele><time>2026-04-06T09:49:59Z</time></trkpt><trkpt lat="39.606875948777784" lon="16.650096231908133"><ele>24.0</ele><time>2026-04-06T09:50:00Z</time></trkpt><trkpt lat="39.60697287151836" lon="16.64988135528587"><ele>23.666666666666668</ele><time>2026-04-06T09:50:01Z</time></trkpt><trkpt lat="39.60707117088044" lon="16.649661483184236"><ele>23.333333333333336</ele><time>2026-04-06T09:50:02Z</time></trkpt><trkpt lat="39.607173753911304" lon="16.64943872600442"><ele>23.0</ele><time>2026-04-06T09:50:03Z</time></trkpt><trkpt lat="39.607280866351296" lon="16.64921117282371"><ele>23.0</ele><time>2026-04-06T09:50:04Z</time></trkpt><trkpt lat="39.60739480266365" lon="16.648963690118578"><ele>23.0</ele><time>2026-04-06T09:50:05Z</time></trkpt><trkpt lat="39.60751628040007" lon="16.64869166915785"><ele>22.5</ele><time>2026-04-06T09:50:06Z</time></trkpt><trkpt lat="39.60765701963616" lon="16.648381803565943"><ele>22.0</ele><time>2026-04-06T09:50:07Z</time></trkpt><trkpt lat="39.60781195204256" lon="16.648041162722272"><ele>22.0</ele><time>2026-04-06T09:50:08Z</time></trkpt><trkpt lat="39.60796725969709" lon="16.647698295024064"><ele>22.0</ele><time>2026-04-06T09:50:09Z</time></trkpt><trkpt lat="39.60810543667765" lon="16.647387520895855"><ele>22.0</ele><time>2026-04-06T09:50:10Z</time></trkpt><trkpt lat="39.608236370736286" lon="16.647098426929297"><ele>22.0</ele><time>2026-04-06T09:50:11Z</time></trkpt><trkpt lat="39.608360935439634" lon="16.64682817336147"><ele>22.0</ele><time>2026-04-06T09:50:12Z</time></trkpt><trkpt lat="39.60847769131996" lon="16.64657171990865"><ele>22.0</ele><time>2026-04-06T09:50:13Z</time></trkpt><trkpt lat="39.60859023425891" lon="16.646321797284678"><ele>20.5</ele><time>2026-04-06T09:50:14Z</time></trkpt><trkpt lat="39.60870501982714" lon="16.646070650935687"><ele>19.0</ele><time>2026-04-06T09:50:15Z</time></trkpt><trkpt lat="39.60882005228648" lon="16.645819143305634"><ele>19.0</ele><time>2026-04-06T09:50:16Z</time></trkpt><trkpt lat="39.60893277843104" lon="16.645569261272"><ele>19.0</ele><time>2026-04-06T09:50:17Z</time></trkpt><trkpt lat="39.60904429695581" lon="16.64532315178425"><ele>19.0</ele><time>2026-04-06T09:50:18Z</time></trkpt><trkpt lat="39.60915592171696" lon="16.645085372571366"><ele>19.0</ele><time>2026-04-06T09:50:19Z</time></trkpt><trkpt lat="39.60926395394263" lon="16.644859492103212"><ele>19.0</ele><time>2026-04-06T09:50:20Z</time></trkpt><trkpt lat="39.60936310932563" lon="16.644640357328132"><ele>19.0</ele><time>2026-04-06T09:50:21Z</time></trkpt><trkpt lat="39.60946541027459" lon="16.644416044176005"><ele>18.333333333333332</ele><time>2026-04-06T09:50:22Z</time></trkpt><trkpt lat="39.60957015391078" lon="16.644192750024196"><ele>17.666666666666668</ele><time>2026-04-06T09:50:23Z</time></trkpt><trkpt lat="39.60966926663012" lon="16.643985207145185"><ele>17.0</ele><time>2026-04-06T09:50:24Z</time></trkpt><trkpt lat="39.609761801578834" lon="16.64378632200741"><ele>18.0</ele><time>2026-04-06T09:50:25Z</time></trkpt><trkpt lat="39.60985379035807" lon="16.643590692972506"><ele>19.0</ele><time>2026-04-06T09:50:26Z</time></trkpt><trkpt lat="39.60994051030673" lon="16.64339629402791"><ele>20.0</ele><time>2026-04-06T09:50:27Z</time></trkpt><trkpt lat="39.6100250506626" lon="16.643204796577805"><ele>20.0</ele><time>2026-04-06T09:50:28Z</time></trkpt><trkpt lat="39.610110273776506" lon="16.64301682056727"><ele>20.0</ele><time>2026-04-06T09:50:29Z</time></trkpt><trkpt lat="39.61019660092019" lon="16.642826137452342"><ele>20.0</ele><time>2026-04-06T09:50:30Z</time></trkpt><trkpt lat="39.610285650320805" lon="16.64262485034693"><ele>18.666666666666668</ele><time>2026-04-06T09:50:31Z</time></trkpt><trkpt lat="39.61037855020203" lon="16.642415541988576"><ele>17.333333333333332</ele><time>2026-04-06T09:50:32Z</time></trkpt><trkpt lat="39.610456385049964" lon="16.64221804100186"><ele>16.0</ele><time>2026-04-06T09:50:33Z</time></trkpt><trkpt lat="39.61053004184758" lon="16.642005606024902"><ele>16.666666666666664</ele><time>2026-04-06T09:50:34Z</time></trkpt><trkpt lat="39.610602111824754" lon="16.641784895659786"><ele>17.333333333333332</ele><time>2026-04-06T09:50:35Z</time></trkpt><trkpt lat="39.61067002127066" lon="16.6415678026712"><ele>18.0</ele><time>2026-04-06T09:50:36Z</time></trkpt><trkpt lat="39.610730029804174" lon="16.641357693098445"><ele>18.0</ele><time>2026-04-06T09:50:37Z</time></trkpt><trkpt lat="39.610781712089945" lon="16.64114089173435"><ele>18.0</ele><time>2026-04-06T09:50:38Z</time></trkpt><trkpt lat="39.61082645296086" lon="16.6409207499409"><ele>18.0</ele><time>2026-04-06T09:50:39Z</time></trkpt><trkpt lat="39.61086710163861" lon="16.64070094500219"><ele>18.0</ele><time>2026-04-06T09:50:40Z</time></trkpt><trkpt lat="39.610899418142765" lon="16.640491111312336"><ele>18.0</ele><time>2026-04-06T09:50:41Z</time></trkpt><trkpt lat="39.610935825139194" lon="16.64028155238061"><ele>18.0</ele><time>2026-04-06T09:50:42Z</time></trkpt><trkpt lat="39.61096590727313" lon="16.640092783179938"><ele>18.0</ele><time>2026-04-06T09:50:43Z</time></trkpt><trkpt lat="39.610981605103234" lon="16.6399050915876"><ele>18.0</ele><time>2026-04-06T09:50:44Z</time></trkpt><trkpt lat="39.610993406577585" lon="16.639700236688586"><ele>18.0</ele><time>2026-04-06T09:50:44.999Z</time></trkpt><trkpt lat="39.61100513987635" lon="16.639488632995278"><ele>18.0</ele><time>2026-04-06T09:50:45.999Z</time></trkpt><trkpt lat="39.61101526142208" lon="16.639271234811705"><ele>18.0</ele><time>2026-04-06T09:50:46.999Z</time></trkpt><trkpt lat="39.61102535073204" lon="16.63905041448122"><ele>18.0</ele><time>2026-04-06T09:50:47.999Z</time></trkpt><trkpt lat="39.611030463402635" lon="16.638824146382113"><ele>18.0</ele><time>2026-04-06T09:50:48.999Z</time></trkpt><trkpt lat="39.611039348816625" lon="16.63859384893565"><ele>18.0</ele><time>2026-04-06T09:50:49.999Z</time></trkpt><trkpt lat="39.61104835325756" lon="16.638363168704306"><ele>18.0</ele><time>2026-04-06T09:50:50.999Z</time></trkpt><trkpt lat="39.61105772397856" lon="16.63814595125855"><ele>18.0</ele><time>2026-04-06T09:50:51.999Z</time></trkpt><trkpt lat="39.61106874739843" lon="16.637923792407666"><ele>18.0</ele><time>2026-04-06T09:50:52.999Z</time></trkpt><trkpt lat="39.6110771824642" lon="16.637694953450836"><ele>18.0</ele><time>2026-04-06T09:50:54Z</time></trkpt><trkpt lat="39.61108898478244" lon="16.637469729765495"><ele>18.0</ele><time>2026-04-06T09:50:55Z</time></trkpt><trkpt lat="39.61110131000579" lon="16.637258166933773"><ele>18.0</ele><time>2026-04-06T09:50:56Z</time></trkpt><trkpt lat="39.61111230855974" lon="16.637060842544724"><ele>18.0</ele><time>2026-04-06T09:50:57Z</time></trkpt><trkpt lat="39.61111999929359" lon="16.636873446847154"><ele>18.0</ele><time>2026-04-06T09:50:58Z</time></trkpt><trkpt lat="39.611128991909304" lon="16.636678685852264"><ele>18.0</ele><time>2026-04-06T09:50:59Z</time></trkpt><trkpt lat="39.6111383092907" lon="16.636475629514226"><ele>18.0</ele><time>2026-04-06T09:51:00Z</time></trkpt><trkpt lat="39.61114847170364" lon="16.63627896273924"><ele>17.333333333333332</ele><time>2026-04-06T09:51:01Z</time></trkpt><trkpt lat="39.611153742294086" lon="16.63608441640714"><ele>16.666666666666664</ele><time>2026-04-06T09:51:02Z</time></trkpt><trkpt lat="39.61115802056678" lon="16.635892281200604"><ele>16.0</ele><time>2026-04-06T09:51:03Z</time></trkpt><trkpt lat="39.61117637008891" lon="16.635691962333905"><ele>15.333333333333332</ele><time>2026-04-06T09:51:04Z</time></trkpt><trkpt lat="39.61118795753835" lon="16.635450720469354"><ele>14.666666666666668</ele><time>2026-04-06T09:51:05Z</time></trkpt><trkpt lat="39.61118456241184" lon="16.63518366190347"><ele>14.0</ele><time>2026-04-06T09:51:06Z</time></trkpt><trkpt lat="39.611205351097034" lon="16.6349313093149"><ele>14.0</ele><time>2026-04-06T09:51:07Z</time></trkpt><trkpt lat="39.61122153756732" lon="16.634690387703202"><ele>14.0</ele><time>2026-04-06T09:51:08Z</time></trkpt><trkpt lat="39.61123570620996" lon="16.634437676611434"><ele>14.0</ele><time>2026-04-06T09:51:09Z</time></trkpt><trkpt lat="39.61124881728209" lon="16.634185096296342"><ele>14.0</ele><time>2026-04-06T09:51:10Z</time></trkpt><trkpt lat="39.61126142884897" lon="16.633934125390738"><ele>14.0</ele><time>2026-04-06T09:51:11Z</time></trkpt><trkpt lat="39.611274466900234" lon="16.633700813128108"><ele>14.0</ele><time>2026-04-06T09:51:12Z</time></trkpt><trkpt lat="39.611284351225606" lon="16.633477515488114"><ele>14.0</ele><time>2026-04-06T09:51:13Z</time></trkpt><trkpt lat="39.6112941916758" lon="16.633264024610032"><ele>14.0</ele><time>2026-04-06T09:51:14Z</time></trkpt><trkpt lat="39.611305214106935" lon="16.633062448836913"><ele>14.0</ele><time>2026-04-06T09:51:15Z</time></trkpt><trkpt lat="39.61131753113461" lon="16.63286784459504"><ele>14.666666666666668</ele><time>2026-04-06T09:51:16Z</time></trkpt><trkpt lat="39.61132537525884" lon="16.63265865952705"><ele>15.333333333333332</ele><time>2026-04-06T09:51:17Z</time></trkpt><trkpt lat="39.6113312370652" lon="16.632444452750864"><ele>16.0</ele><time>2026-04-06T09:51:18Z</time></trkpt><trkpt lat="39.6113429102189" lon="16.632245426897782"><ele>16.0</ele><time>2026-04-06T09:51:19Z</time></trkpt><trkpt lat="39.61135584895653" lon="16.632056536682253"><ele>16.0</ele><time>2026-04-06T09:51:20Z</time></trkpt><trkpt lat="39.61136662555268" lon="16.631876770025272"><ele>16.0</ele><time>2026-04-06T09:51:21Z</time></trkpt><trkpt lat="39.611375947886756" lon="16.63170564639854"><ele>16.0</ele><time>2026-04-06T09:51:22Z</time></trkpt><trkpt lat="39.61139177764176" lon="16.63155164606723"><ele>16.2</ele><time>2026-04-06T09:51:23Z</time></trkpt><trkpt lat="39.61140780791798" lon="16.631424440276444"><ele>16.400000000000002</ele><time>2026-04-06T09:51:24Z</time></trkpt><trkpt lat="39.61142188367623" lon="16.6313258480822"><ele>16.6</ele><time>2026-04-06T09:51:25Z</time></trkpt><trkpt lat="39.611476528906834" lon="16.63118859341617"><ele>16.8</ele><time>2026-04-06T09:51:27Z</time></trkpt><trkpt lat="39.61147674128403" lon="16.631076113902754"><ele>17.0</ele><time>2026-04-06T09:51:29Z</time></trkpt><trkpt lat="39.611567361150385" lon="16.631024712528312"><ele>16.71428571428571</ele><time>2026-04-06T09:51:30Z</time></trkpt><trkpt lat="39.611578888518274" lon="16.63092955875979"><ele>16.428571428571427</ele><time>2026-04-06T09:51:32Z</time></trkpt><trkpt lat="39.61156115637494" lon="16.630832570279438"><ele>16.142857142857142</ele><time>2026-04-06T09:51:35Z</time></trkpt><trkpt lat="39.61151908968411" lon="16.630753237750486"><ele>15.857142857142856</ele><time>2026-04-06T09:53:30Z</time></trkpt><trkpt lat="39.611469479897075" lon="16.630700830700874"><ele>15.57142857142857</ele><time>2026-04-06T09:53:32Z</time></trkpt><trkpt lat="39.61143911837278" lon="16.630628597161113"><ele>15.285714285714286</ele><time>2026-04-06T09:53:34Z</time></trkpt><trkpt lat="39.61142851205799" lon="16.630536152487426"><ele>15.0</ele><time>2026-04-06T09:53:35Z</time></trkpt><trkpt lat="39.61143166048849" lon="16.630381614787684"><ele>15.0</ele><time>2026-04-06T09:53:36Z</time></trkpt><trkpt lat="39.61143862938146" lon="16.630186743352883"><ele>15.0</ele><time>2026-04-06T09:53:37Z</time></trkpt><trkpt lat="39.611455616654624" lon="16.629913967497114"><ele>15.0</ele><time>2026-04-06T09:53:38Z</time></trkpt><trkpt lat="39.61147526190547" lon="16.629661257566458"><ele>14.75</ele><time>2026-04-06T09:53:39Z</time></trkpt><trkpt lat="39.61149313801735" lon="16.62946214565917"><ele>14.5</ele><time>2026-04-06T09:53:40Z</time></trkpt><trkpt lat="39.6115165503515" lon="16.629273977358164"><ele>14.25</ele><time>2026-04-06T09:53:41Z</time></trkpt><trkpt lat="39.611539438242254" lon="16.629101459966126"><ele>14.0</ele><time>2026-04-06T09:53:42Z</time></trkpt><trkpt lat="39.611551006266325" lon="16.628944828346782"><ele>14.0</ele><time>2026-04-06T09:53:43Z</time></trkpt><trkpt lat="39.61156792522552" lon="16.628807264242308"><ele>13.999999999999998</ele><time>2026-04-06T09:53:44Z</time></trkpt><trkpt lat="39.61158994275627" lon="16.628691555452626"><ele>13.999999999999998</ele><time>2026-04-06T09:53:45Z</time></trkpt><trkpt lat="39.61160926679028" lon="16.628565077234743"><ele>14.0</ele><time>2026-04-06T09:53:46Z</time></trkpt><trkpt lat="39.611623597898834" lon="16.628470192510132"><ele>14.0</ele><time>2026-04-06T09:53:47Z</time></trkpt><trkpt lat="39.61164466112567" lon="16.62833069216025"><ele>14.0</ele><time>2026-04-06T09:53:49Z</time></trkpt><trkpt lat="39.61167047355289" lon="16.62823421320099"><ele>13.999999999999998</ele><time>2026-04-06T09:53:51Z</time></trkpt><trkpt lat="39.61170551112127" lon="16.628133814722077"><ele>13.999999999999998</ele><time>2026-04-06T09:53:53Z</time></trkpt><trkpt lat="39.61178047051783" lon="16.628023388362873"><ele>14.0</ele><time>2026-04-06T09:53:55Z</time></trkpt><trkpt lat="39.61182081268992" lon="16.627890552705356"><ele>14.0</ele><time>2026-04-06T09:53:57Z</time></trkpt><trkpt lat="39.61175913344237" lon="16.627768608629317"><ele>13.799999999999999</ele><time>2026-04-06T09:53:59Z</time></trkpt><trkpt lat="39.61165817066347" lon="16.62775501864402"><ele>13.599999999999998</ele><time>2026-04-06T09:54:01Z</time></trkpt><trkpt lat="39.611596330372414" lon="16.62778403762527"><ele>13.4</ele><time>2026-04-06T09:54:02Z</time></trkpt><trkpt lat="39.611522488043505" lon="16.627805617794"><ele>13.2</ele><time>2026-04-06T09:54:03Z</time></trkpt><trkpt lat="39.611426162553435" lon="16.6277863709134"><ele>13.0</ele><time>2026-04-06T09:54:04Z</time></trkpt><trkpt lat="39.611314617418" lon="16.62774604816447"><ele>13.0</ele><time>2026-04-06T09:54:05Z</time></trkpt><trkpt lat="39.611201656664065" lon="16.62770677916876"><ele>13.0</ele><time>2026-04-06T09:54:06Z</time></trkpt><trkpt lat="39.61109933310583" lon="16.627663970725234"><ele>13.0</ele><time>2026-04-06T09:54:07Z</time></trkpt><trkpt lat="39.61097717515108" lon="16.6276198930058"><ele>13.0</ele><time>2026-04-06T09:54:08Z</time></trkpt><trkpt lat="39.61086284195705" lon="16.62756902252538"><ele>13.75</ele><time>2026-04-06T09:54:09Z</time></trkpt><trkpt lat="39.610754164090224" lon="16.62752652543205"><ele>14.5</ele><time>2026-04-06T09:54:10Z</time></trkpt><trkpt lat="39.61063954725793" lon="16.627481617775118"><ele>15.25</ele><time>2026-04-06T09:54:11Z</time></trkpt><trkpt lat="39.610524330896666" lon="16.627439099170196"><ele>16.0</ele><time>2026-04-06T09:54:12Z</time></trkpt><trkpt lat="39.61040525961003" lon="16.62738963014376"><ele>16.25</ele><time>2026-04-06T09:54:13Z</time></trkpt><trkpt lat="39.61028242330621" lon="16.627337506942872"><ele>16.5</ele><time>2026-04-06T09:54:14Z</time></trkpt><trkpt lat="39.610154428763764" lon="16.627294964552963"><ele>16.75</ele><time>2026-04-06T09:54:15Z</time></trkpt><trkpt lat="39.61000151430105" lon="16.62723690419968"><ele>17.0</ele><time>2026-04-06T09:54:16Z</time></trkpt><trkpt lat="39.60981127734787" lon="16.627164882983333"><ele>17.0</ele><time>2026-04-06T09:54:17Z</time></trkpt><trkpt lat="39.60960079439412" lon="16.62706741530755"><ele>17.0</ele><time>2026-04-06T09:54:18Z</time></trkpt><trkpt lat="39.6094102511773" lon="16.62698833662684"><ele>17.0</ele><time>2026-04-06T09:54:19Z</time></trkpt><trkpt lat="39.60922276085972" lon="16.62691551890246"><ele>17.666666666666668</ele><time>2026-04-06T09:54:20Z</time></trkpt><trkpt lat="39.609038662240245" lon="16.626841681358822"><ele>18.333333333333332</ele><time>2026-04-06T09:54:21Z</time></trkpt><trkpt lat="39.60885749664347" lon="16.626764568792087"><ele>19.0</ele><time>2026-04-06T09:54:22Z</time></trkpt><trkpt lat="39.60867674144769" lon="16.626698026080255"><ele>20.333333333333332</ele><time>2026-04-06T09:54:22.999Z</time></trkpt><trkpt lat="39.60851035855912" lon="16.626629558042172"><ele>21.666666666666668</ele><time>2026-04-06T09:54:23.999Z</time></trkpt><trkpt lat="39.60832790457653" lon="16.626550993253982"><ele>23.0</ele><time>2026-04-06T09:54:24.999Z</time></trkpt><trkpt lat="39.608134522093955" lon="16.62647045814833"><ele>23.0</ele><time>2026-04-06T09:54:25.999Z</time></trkpt><trkpt lat="39.60793518227486" lon="16.626393533339858"><ele>23.0</ele><time>2026-04-06T09:54:26.999Z</time></trkpt><trkpt lat="39.607738741600585" lon="16.626319730456323"><ele>23.0</ele><time>2026-04-06T09:54:27.999Z</time></trkpt><trkpt lat="39.607542445009884" lon="16.626249056558475"><ele>23.333333333333336</ele><time>2026-04-06T09:54:28.999Z</time></trkpt><trkpt lat="39.6073457675758" lon="16.626185193604574"><ele>23.666666666666668</ele><time>2026-04-06T09:54:29.999Z</time></trkpt><trkpt lat="39.60716315352138" lon="16.62613104148356"><ele>24.0</ele><time>2026-04-06T09:54:30.999Z</time></trkpt><trkpt lat="39.60697976613985" lon="16.626098729058768"><ele>24.666666666666664</ele><time>2026-04-06T09:54:31.999Z</time></trkpt><trkpt lat="39.60680062613295" lon="16.626087120772077"><ele>25.333333333333332</ele><time>2026-04-06T09:54:32.999Z</time></trkpt><trkpt lat="39.60662425540764" lon="16.626084325646115"><ele>26.0</ele><time>2026-04-06T09:54:33.999Z</time></trkpt><trkpt lat="39.60646234810815" lon="16.626077803127732"><ele>26.0</ele><time>2026-04-06T09:54:34.999Z</time></trkpt><trkpt lat="39.60631165403556" lon="16.62607311537181"><ele>26.0</ele><time>2026-04-06T09:54:35.999Z</time></trkpt><trkpt lat="39.606168069915434" lon="16.626071089531212"><ele>26.0</ele><time>2026-04-06T09:54:36.999Z</time></trkpt><trkpt lat="39.60601400464139" lon="16.62606282273395"><ele>26.0</ele><time>2026-04-06T09:54:37.999Z</time></trkpt><trkpt lat="39.60585016714649" lon="16.62605158143285"><ele>26.666666666666664</ele><time>2026-04-06T09:54:38.999Z</time></trkpt><trkpt lat="39.60568095615606" lon="16.626043726835388"><ele>27.333333333333336</ele><time>2026-04-06T09:54:39.999Z</time></trkpt><trkpt lat="39.60551607463222" lon="16.626037597411457"><ele>28.0</ele><time>2026-04-06T09:54:40.999Z</time></trkpt><trkpt lat="39.605352005985196" lon="16.626030608440967"><ele>29.666666666666668</ele><time>2026-04-06T09:54:41.999Z</time></trkpt><trkpt lat="39.6051939543616" lon="16.626025629517702"><ele>31.333333333333336</ele><time>2026-04-06T09:54:42.999Z</time></trkpt><trkpt lat="39.60503790263464" lon="16.62601799628831"><ele>33.0</ele><time>2026-04-06T09:54:43.999Z</time></trkpt><trkpt lat="39.604851248593576" lon="16.62600853542868"><ele>33.0</ele><time>2026-04-06T09:54:44.999Z</time></trkpt><trkpt lat="39.60465032392804" lon="16.62598288550177"><ele>33.0</ele><time>2026-04-06T09:54:45.999Z</time></trkpt><trkpt lat="39.60443398515936" lon="16.62596875643371"><ele>33.0</ele><time>2026-04-06T09:54:46.999Z</time></trkpt><trkpt lat="39.6042361042294" lon="16.62594977006596"><ele>34.0</ele><time>2026-04-06T09:54:47.999Z</time></trkpt><trkpt lat="39.604006714761596" lon="16.625936267839574"><ele>35.0</ele><time>2026-04-06T09:54:48.999Z</time></trkpt><trkpt lat="39.6038112334199" lon="16.625923363052767"><ele>36.0</ele><time>2026-04-06T09:54:49.999Z</time></trkpt><trkpt lat="39.60363092685227" lon="16.625931918695148"><ele>37.25</ele><time>2026-04-06T09:54:50.999Z</time></trkpt><trkpt lat="39.6034556003878" lon="16.62591907055"><ele>38.5</ele><time>2026-04-06T09:54:51.999Z</time></trkpt><trkpt lat="39.60331300796991" lon="16.625914014797022"><ele>39.75</ele><time>2026-04-06T09:54:52.999Z</time></trkpt><trkpt lat="39.60319446802566" lon="16.625911348378644"><ele>41.0</ele><time>2026-04-06T09:54:53.999Z</time></trkpt><trkpt lat="39.603107635409486" lon="16.625904111959667"><ele>41.0</ele><time>2026-04-06T09:54:54.999Z</time></trkpt><trkpt lat="39.60302680656045" lon="16.62589826218189"><ele>41.0</ele><time>2026-04-06T09:54:55.999Z</time></trkpt><trkpt lat="39.60295861989817" lon="16.625889444700725"><ele>41.0</ele><time>2026-04-06T09:54:56.999Z</time></trkpt><trkpt lat="39.602891244642926" lon="16.625876683529725"><ele>41.0</ele><time>2026-04-06T09:54:57.999Z</time></trkpt><trkpt lat="39.60278591652973" lon="16.625832696654378"><ele>41.0</ele><time>2026-04-06T09:54:59.999Z</time></trkpt><trkpt lat="39.602732391498094" lon="16.625787291577172"><ele>41.0</ele><time>2026-04-06T09:55:00.999Z</time></trkpt><trkpt lat="39.60267217288873" lon="16.625708512629622"><ele>41.5</ele><time>2026-04-06T09:55:01.999Z</time></trkpt><trkpt lat="39.60261944974714" lon="16.6256226225799"><ele>42.0</ele><time>2026-04-06T09:55:02.999Z</time></trkpt><trkpt lat="39.60255750458045" lon="16.625547058175528"><ele>42.5</ele><time>2026-04-06T09:55:03.999Z</time></trkpt><trkpt lat="39.60251551180705" lon="16.62546431255814"><ele>43.0</ele><time>2026-04-06T09:55:05Z</time></trkpt><trkpt lat="39.602468199754334" lon="16.62536601475616"><ele>43.5</ele><time>2026-04-06T09:55:06Z</time></trkpt><trkpt lat="39.60241396307683" lon="16.62526876412847"><ele>44.0</ele><time>2026-04-06T09:55:07Z</time></trkpt><trkpt lat="39.60236739732724" lon="16.625181963690018"><ele>44.166666666666664</ele><time>2026-04-06T09:55:08Z</time></trkpt><trkpt lat="39.602322733572095" lon="16.625099767483267"><ele>44.33333333333333</ele><time>2026-04-06T09:55:09Z</time></trkpt><trkpt lat="39.60228037751137" lon="16.625035765773713"><ele>44.5</ele><time>2026-04-06T09:55:10Z</time></trkpt><trkpt lat="39.602198027565485" lon="16.624954896108548"><ele>44.666666666666664</ele><time>2026-04-06T09:55:12Z</time></trkpt><trkpt lat="39.60209566928543" lon="16.6249279937197"><ele>44.833333333333336</ele><time>2026-04-06T09:55:14Z</time></trkpt><trkpt lat="39.60202779121677" lon="16.62492109352098"><ele>45.0</ele><time>2026-04-06T09:55:16Z</time></trkpt><trkpt lat="39.60191888688296" lon="16.62488063942898"><ele>45.2</ele><time>2026-04-06T09:55:18Z</time></trkpt><trkpt lat="39.601805687212426" lon="16.624922512462373"><ele>45.4</ele><time>2026-04-06T09:55:20Z</time></trkpt><trkpt lat="39.601774525188446" lon="16.624995578900787"><ele>45.599999999999994</ele><time>2026-04-06T09:55:21Z</time></trkpt><trkpt lat="39.601764904206156" lon="16.625083221882736"><ele>45.8</ele><time>2026-04-06T09:55:22Z</time></trkpt><trkpt lat="39.6017975660288" lon="16.625196588032335"><ele>46.0</ele><time>2026-04-06T09:55:23Z</time></trkpt><trkpt lat="39.601767385691346" lon="16.625354053767197"><ele>46.0</ele><time>2026-04-06T09:55:24Z</time></trkpt><trkpt lat="39.60173581156914" lon="16.62553277508256"><ele>46.0</ele><time>2026-04-06T09:55:25Z</time></trkpt><trkpt lat="39.601684895620444" lon="16.62569101659305"><ele>46.0</ele><time>2026-04-06T09:55:26Z</time></trkpt><trkpt lat="39.60163292185194" lon="16.62584358236846"><ele>46.0</ele><time>2026-04-06T09:55:27Z</time></trkpt><trkpt lat="39.60158378661746" lon="16.62598481920837"><ele>46.0</ele><time>2026-04-06T09:55:28Z</time></trkpt><trkpt lat="39.60153924152387" lon="16.62611806771904"><ele>46.0</ele><time>2026-04-06T09:55:29Z</time></trkpt><trkpt lat="39.60149929913594" lon="16.62623073598853"><ele>46.0</ele><time>2026-04-06T09:55:30Z</time></trkpt><trkpt lat="39.60145921460289" lon="16.62631931618085"><ele>46.0</ele><time>2026-04-06T09:55:31Z</time></trkpt><trkpt lat="39.60140716388024" lon="16.626378337166646"><ele>46.0</ele><time>2026-04-06T09:55:32Z</time></trkpt><trkpt lat="39.60136300890464" lon="16.626463779728404"><ele>46.0</ele><time>2026-04-06T09:55:34Z</time></trkpt><trkpt lat="39.6011654389258" lon="16.62639382810181"><ele>47.0</ele><time>2026-04-06T09:55:35Z</time></trkpt><trkpt lat="39.601043087489465" lon="16.626358206391302"><ele>48.0</ele><time>2026-04-06T09:55:36Z</time></trkpt><trkpt lat="39.600944676899" lon="16.626331623398322"><ele>49.0</ele><time>2026-04-06T09:55:37Z</time></trkpt><trkpt lat="39.60084567587613" lon="16.626322562550214"><ele>50.0</ele><time>2026-04-06T09:55:38Z</time></trkpt><trkpt lat="39.60072473926868" lon="16.626316785635677"><ele>51.0</ele><time>2026-04-06T09:55:39Z</time></trkpt><trkpt lat="39.60056308175712" lon="16.626278493062284"><ele>51.0</ele><time>2026-04-06T09:55:40Z</time></trkpt><trkpt lat="39.60038021712745" lon="16.626269720831434"><ele>51.0</ele><time>2026-04-06T09:55:41Z</time></trkpt><trkpt lat="39.60020202157082" lon="16.626261562741423"><ele>51.0</ele><time>2026-04-06T09:55:42Z</time></trkpt><trkpt lat="39.600012855499344" lon="16.62628313639793"><ele>52.33333333333333</ele><time>2026-04-06T09:55:43Z</time></trkpt><trkpt lat="39.59980340874794" lon="16.62633810537916"><ele>53.666666666666664</ele><time>2026-04-06T09:55:44Z</time></trkpt><trkpt lat="39.599577641751104" lon="16.626401364222886"><ele>55.0</ele><time>2026-04-06T09:55:45Z</time></trkpt><trkpt lat="39.599340116862884" lon="16.626459887962238"><ele>56.5</ele><time>2026-04-06T09:55:46Z</time></trkpt><trkpt lat="39.59908745529448" lon="16.626520527322242"><ele>58.0</ele><time>2026-04-06T09:55:47Z</time></trkpt><trkpt lat="39.598855216354195" lon="16.62657670590497"><ele>59.33333333333333</ele><time>2026-04-06T09:55:48Z</time></trkpt><trkpt lat="39.598651001066685" lon="16.626636160168673"><ele>60.66666666666667</ele><time>2026-04-06T09:55:49Z</time></trkpt><trkpt lat="39.598465471897036" lon="16.626705893726076"><ele>62.0</ele><time>2026-04-06T09:55:50Z</time></trkpt><trkpt lat="39.59829735559381" lon="16.626768760186316"><ele>62.0</ele><time>2026-04-06T09:55:51Z</time></trkpt><trkpt lat="39.598133630727375" lon="16.62682829925969"><ele>62.0</ele><time>2026-04-06T09:55:52Z</time></trkpt><trkpt lat="39.59798490607364" lon="16.626889490872962"><ele>62.0</ele><time>2026-04-06T09:55:53Z</time></trkpt><trkpt lat="39.59785212390475" lon="16.626953420613855"><ele>62.75</ele><time>2026-04-06T09:55:54Z</time></trkpt><trkpt lat="39.597730304260196" lon="16.62700633451719"><ele>63.5</ele><time>2026-04-06T09:55:55Z</time></trkpt><trkpt lat="39.59762522778143" lon="16.62705829992369"><ele>64.25</ele><time>2026-04-06T09:55:56Z</time></trkpt><trkpt lat="39.59751093482732" lon="16.627013750525297"><ele>65.0</ele><time>2026-04-06T09:55:57Z</time></trkpt><trkpt lat="39.59741976321048" lon="16.627019577433718"><ele>65.75</ele><time>2026-04-06T09:55:58Z</time></trkpt><trkpt lat="39.597325844851404" lon="16.626872998102915"><ele>66.5</ele><time>2026-04-06T09:55:59Z</time></trkpt><trkpt lat="39.59720947750891" lon="16.626749332652764"><ele>67.25</ele><time>2026-04-06T09:56:00Z</time></trkpt><trkpt lat="39.59709016495512" lon="16.626631762940455"><ele>68.0</ele><time>2026-04-06T09:56:01Z</time></trkpt><trkpt lat="39.59698593573493" lon="16.626566056025787"><ele>68.66666666666667</ele><time>2026-04-06T09:56:02Z</time></trkpt><trkpt lat="39.596916107851506" lon="16.626508692671642"><ele>69.33333333333333</ele><time>2026-04-06T09:56:03Z</time></trkpt><trkpt lat="39.59683774313061" lon="16.626426008828624"><ele>70.0</ele><time>2026-04-06T09:56:05Z</time></trkpt><trkpt lat="39.596649724971016" lon="16.626722998708118"><ele>70.0</ele><time>2026-04-06T09:56:06Z</time></trkpt><trkpt lat="39.59657503249321" lon="16.626768283320867"><ele>70.0</ele><time>2026-04-06T09:56:07Z</time></trkpt><trkpt lat="39.596501675962855" lon="16.626808261980994"><ele>70.0</ele><time>2026-04-06T09:56:08Z</time></trkpt><trkpt lat="39.59641963143086" lon="16.626854961415273"><ele>70.0</ele><time>2026-04-06T09:56:09Z</time></trkpt><trkpt lat="39.59633029624973" lon="16.626909033381448"><ele>70.0</ele><time>2026-04-06T09:56:10Z</time></trkpt><trkpt lat="39.596246485668544" lon="16.626963138738066"><ele>70.0</ele><time>2026-04-06T09:56:11Z</time></trkpt><trkpt lat="39.59618047927433" lon="16.627007683398197"><ele>71.0</ele><time>2026-04-06T09:56:12Z</time></trkpt><trkpt lat="39.595991181562766" lon="16.62688772222804"><ele>72.0</ele><time>2026-04-06T09:56:14Z</time></trkpt><trkpt lat="39.59589121014841" lon="16.626803658338215"><ele>73.0</ele><time>2026-04-06T09:56:15Z</time></trkpt><trkpt lat="39.59577154128615" lon="16.626674731670324"><ele>73.0</ele><time>2026-04-06T09:56:16Z</time></trkpt><trkpt lat="39.595620459336686" lon="16.62651558303019"><ele>73.0</ele><time>2026-04-06T09:56:17Z</time></trkpt><trkpt lat="39.595449666476696" lon="16.626349016321292"><ele>73.0</ele><time>2026-04-06T09:56:18Z</time></trkpt><trkpt lat="39.5952660067351" lon="16.626186344607664"><ele>74.66666666666666</ele><time>2026-04-06T09:56:19Z</time></trkpt><trkpt lat="39.59508653947082" lon="16.62603599436285"><ele>76.33333333333333</ele><time>2026-04-06T09:56:20Z</time></trkpt><trkpt lat="39.59491893572435" lon="16.62587118351079"><ele>78.0</ele><time>2026-04-06T09:56:21Z</time></trkpt><trkpt lat="39.59475633761097" lon="16.62571525177158"><ele>78.0</ele><time>2026-04-06T09:56:21.999Z</time></trkpt><trkpt lat="39.59461153264857" lon="16.625583724083288"><ele>78.0</ele><time>2026-04-06T09:56:22.999Z</time></trkpt><trkpt lat="39.59448528871624" lon="16.625464652642513"><ele>78.0</ele><time>2026-04-06T09:56:23.999Z</time></trkpt><trkpt lat="39.59438264717552" lon="16.62536637141795"><ele>79.4</ele><time>2026-04-06T09:56:24.999Z</time></trkpt><trkpt lat="39.59430347514504" lon="16.625273088402675"><ele>80.8</ele><time>2026-04-06T09:56:25.999Z</time></trkpt><trkpt lat="39.59424957507235" lon="16.62518850812005"><ele>82.2</ele><time>2026-04-06T09:56:26.999Z</time></trkpt><trkpt lat="39.59417738407574" lon="16.62508031289702"><ele>83.6</ele><time>2026-04-06T09:56:28.999Z</time></trkpt><trkpt lat="39.59405988402503" lon="16.625076356419736"><ele>85.0</ele><time>2026-04-06T09:56:30.999Z</time></trkpt><trkpt lat="39.59398074624739" lon="16.625113442499117"><ele>85.0</ele><time>2026-04-06T09:56:31.999Z</time></trkpt><trkpt lat="39.59388926419679" lon="16.625134724594616"><ele>85.0</ele><time>2026-04-06T09:56:32.999Z</time></trkpt><trkpt lat="39.59376775605032" lon="16.625147666872437"><ele>85.0</ele><time>2026-04-06T09:56:33.999Z</time></trkpt><trkpt lat="39.59363924184536" lon="16.62516385367063"><ele>85.0</ele><time>2026-04-06T09:56:34.999Z</time></trkpt><trkpt lat="39.593494865736155" lon="16.625183341345878"><ele>85.5</ele><time>2026-04-06T09:56:35.999Z</time></trkpt><trkpt lat="39.593347377940034" lon="16.625195764401965"><ele>86.0</ele><time>2026-04-06T09:56:36.999Z</time></trkpt><trkpt lat="39.59320562701912" lon="16.62521063269863"><ele>86.5</ele><time>2026-04-06T09:56:37.999Z</time></trkpt><trkpt lat="39.59307553740294" lon="16.625235500432495"><ele>87.0</ele><time>2026-04-06T09:56:38.999Z</time></trkpt><trkpt lat="39.5929664591386" lon="16.625283116473312"><ele>87.19999999999999</ele><time>2026-04-06T09:56:39.999Z</time></trkpt><trkpt lat="39.59287201510308" lon="16.625363235811513"><ele>87.4</ele><time>2026-04-06T09:56:40.999Z</time></trkpt><trkpt lat="39.59280157661721" lon="16.62544629076093"><ele>87.6</ele><time>2026-04-06T09:56:41.999Z</time></trkpt><trkpt lat="39.592743175764916" lon="16.62553006080087"><ele>87.80000000000001</ele><time>2026-04-06T09:56:43.999Z</time></trkpt><trkpt lat="39.59262614068514" lon="16.625480632401395"><ele>88.0</ele><time>2026-04-06T09:56:45.999Z</time></trkpt><trkpt lat="39.59253178317525" lon="16.62542205135374"><ele>88.5</ele><time>2026-04-06T09:56:46.999Z</time></trkpt><trkpt lat="39.59241462108253" lon="16.62531305149077"><ele>89.0</ele><time>2026-04-06T09:56:47.999Z</time></trkpt><trkpt lat="39.59229183747121" lon="16.625219378910153"><ele>89.5</ele><time>2026-04-06T09:56:48.999Z</time></trkpt><trkpt lat="39.592159985614074" lon="16.62513455128049"><ele>90.0</ele><time>2026-04-06T09:56:49.999Z</time></trkpt><trkpt lat="39.59203948374618" lon="16.62502937576575"><ele>92.8</ele><time>2026-04-06T09:56:50.999Z</time></trkpt><trkpt lat="39.59193389087341" lon="16.624938882586697"><ele>95.6</ele><time>2026-04-06T09:56:51.999Z</time></trkpt><trkpt lat="39.5918460854879" lon="16.624856408848885"><ele>98.4</ele><time>2026-04-06T09:56:52.999Z</time></trkpt><trkpt lat="39.591777413299695" lon="16.624777645797877"><ele>101.2</ele><time>2026-04-06T09:56:53.999Z</time></trkpt><trkpt lat="39.59170623056786" lon="16.624716506069312"><ele>104.0</ele><time>2026-04-06T09:56:54.999Z</time></trkpt><trkpt lat="39.59164145246261" lon="16.624682908707594"><ele>104.0</ele><time>2026-04-06T09:56:55.999Z</time></trkpt><trkpt lat="39.591589605895244" lon="16.624592304843492"><ele>104.0</ele><time>2026-04-06T09:56:57.999Z</time></trkpt><trkpt lat="39.59170126828781" lon="16.624440190544583"><ele>104.0</ele><time>2026-04-06T09:56:59.999Z</time></trkpt><trkpt lat="39.591747199987914" lon="16.624352670567077"><ele>104.0</ele><time>2026-04-06T09:57:00.999Z</time></trkpt><trkpt lat="39.591795835850576" lon="16.624259998225423"><ele>104.0</ele><time>2026-04-06T09:57:01.999Z</time></trkpt><trkpt lat="39.591848146243294" lon="16.624160324048198"><ele>99.0</ele><time>2026-04-06T09:57:02.999Z</time></trkpt><trkpt lat="39.591890584552495" lon="16.62407946057173"><ele>99.0</ele><time>2026-04-06T09:57:03.999Z</time></trkpt><trkpt lat="39.59194984152213" lon="16.62396655035021"><ele>99.0</ele><time>2026-04-06T09:57:05.999Z</time></trkpt></trkseg></trk></gpx>